<?xml version="1.0" encoding="UTF-8" standalone="no" ?>
<gpx xmlns="http://www.topografix.com/GPX/1/1" xmlns:xsi="http://www.w3.org/2001/XMLSchema-instance" xsi:schemaLocation="http://www.topografix.com/GPX/1/1 http://www.topografix.com/GPX/1/1/gpx.xsd" version="1.1" creator="VisuGPX - https://www.visugpx.com">
  <metadata>
    <name>Cuq Crémail, Crêtes du Culentous, la Peyre depuis Vielle</name>
  </metadata>
  <trk>
    <name><![CDATA[20210810]]></name>
    <trkseg>
      <trkpt lat="43.14617" lon="0.11508">
        <ele>457</ele>
        <time>2021-08-10T05:21:9.000Z</time>
      </trkpt>
      <trkpt lat="43.14612" lon="0.11506">
        <ele>457</ele>
        <time>2021-08-10T05:21:9.000Z</time>
      </trkpt>
      <trkpt lat="43.14607" lon="0.11503">
        <ele>457</ele>
        <time>2021-08-10T05:21:9.000Z</time>
      </trkpt>
      <trkpt lat="43.14603" lon="0.11497">
        <ele>457</ele>
        <time>2021-08-10T05:21:9.000Z</time>
      </trkpt>
      <trkpt lat="43.14597" lon="0.11498">
        <ele>457</ele>
        <time>2021-08-10T05:21:9.000Z</time>
      </trkpt>
      <trkpt lat="43.14589" lon="0.11501">
        <ele>457</ele>
        <time>2021-08-10T05:21:9.000Z</time>
      </trkpt>
      <trkpt lat="43.14581" lon="0.11504">
        <ele>457</ele>
        <time>2021-08-10T05:21:9.000Z</time>
      </trkpt>
      <trkpt lat="43.14576" lon="0.11506">
        <ele>457</ele>
        <time>2021-08-10T05:21:9.000Z</time>
      </trkpt>
      <trkpt lat="43.1457" lon="0.11507">
        <ele>457</ele>
        <time>2021-08-10T05:21:9.000Z</time>
      </trkpt>
      <trkpt lat="43.14563" lon="0.11507">
        <ele>457</ele>
        <time>2021-08-10T05:21:9.000Z</time>
      </trkpt>
      <trkpt lat="43.14559" lon="0.11501">
        <ele>457</ele>
        <time>2021-08-10T05:21:9.000Z</time>
      </trkpt>
      <trkpt lat="43.14557" lon="0.11494">
        <ele>457</ele>
        <time>2021-08-10T05:21:9.000Z</time>
      </trkpt>
      <trkpt lat="43.14555" lon="0.11485">
        <ele>457</ele>
        <time>2021-08-10T05:21:9.000Z</time>
      </trkpt>
      <trkpt lat="43.14553" lon="0.11475">
        <ele>457</ele>
        <time>2021-08-10T05:21:9.000Z</time>
      </trkpt>
      <trkpt lat="43.14552" lon="0.11465">
        <ele>457</ele>
        <time>2021-08-10T05:21:9.000Z</time>
      </trkpt>
      <trkpt lat="43.1455" lon="0.11453">
        <ele>457</ele>
        <time>2021-08-10T05:21:9.000Z</time>
      </trkpt>
      <trkpt lat="43.14549" lon="0.11441">
        <ele>457</ele>
        <time>2021-08-10T05:21:9.000Z</time>
      </trkpt>
      <trkpt lat="43.14548" lon="0.11429">
        <ele>457</ele>
        <time>2021-08-10T05:21:9.000Z</time>
      </trkpt>
      <trkpt lat="43.14546" lon="0.11417">
        <ele>457</ele>
        <time>2021-08-10T05:21:9.000Z</time>
      </trkpt>
      <trkpt lat="43.14546" lon="0.11406">
        <ele>457</ele>
        <time>2021-08-10T05:21:9.000Z</time>
      </trkpt>
      <trkpt lat="43.14545" lon="0.11394">
        <ele>457</ele>
        <time>2021-08-10T05:21:9.000Z</time>
      </trkpt>
      <trkpt lat="43.14543" lon="0.11383">
        <ele>457</ele>
        <time>2021-08-10T05:21:9.000Z</time>
      </trkpt>
      <trkpt lat="43.14542" lon="0.11371">
        <ele>457</ele>
        <time>2021-08-10T05:21:9.000Z</time>
      </trkpt>
      <trkpt lat="43.14541" lon="0.1136">
        <ele>457</ele>
        <time>2021-08-10T05:21:9.000Z</time>
      </trkpt>
      <trkpt lat="43.14539" lon="0.1135">
        <ele>457</ele>
        <time>2021-08-10T05:21:9.000Z</time>
      </trkpt>
      <trkpt lat="43.14536" lon="0.11343">
        <ele>457</ele>
        <time>2021-08-10T05:21:9.000Z</time>
      </trkpt>
      <trkpt lat="43.14533" lon="0.11338">
        <ele>457</ele>
        <time>2021-08-10T05:21:9.000Z</time>
      </trkpt>
      <trkpt lat="43.1453" lon="0.11334">
        <ele>457</ele>
        <time>2021-08-10T05:21:9.000Z</time>
      </trkpt>
      <trkpt lat="43.14524" lon="0.11329">
        <ele>457</ele>
        <time>2021-08-10T05:21:9.000Z</time>
      </trkpt>
      <trkpt lat="43.14518" lon="0.11328">
        <ele>457</ele>
        <time>2021-08-10T05:21:9.000Z</time>
      </trkpt>
      <trkpt lat="43.14511" lon="0.11328">
        <ele>457</ele>
        <time>2021-08-10T05:21:11.000Z</time>
      </trkpt>
      <trkpt lat="43.14503" lon="0.11328">
        <ele>457</ele>
        <time>2021-08-10T05:21:13.000Z</time>
      </trkpt>
      <trkpt lat="43.14497" lon="0.11328">
        <ele>457</ele>
        <time>2021-08-10T05:21:14.000Z</time>
      </trkpt>
      <trkpt lat="43.14488" lon="0.11328">
        <ele>457</ele>
        <time>2021-08-10T05:21:16.000Z</time>
      </trkpt>
      <trkpt lat="43.1448" lon="0.11327">
        <ele>457</ele>
        <time>2021-08-10T05:21:18.000Z</time>
      </trkpt>
      <trkpt lat="43.14475" lon="0.11326">
        <ele>457</ele>
        <time>2021-08-10T05:21:19.000Z</time>
      </trkpt>
      <trkpt lat="43.14467" lon="0.11323">
        <ele>457</ele>
        <time>2021-08-10T05:21:21.000Z</time>
      </trkpt>
      <trkpt lat="43.14462" lon="0.11321">
        <ele>458</ele>
        <time>2021-08-10T05:21:22.000Z</time>
      </trkpt>
      <trkpt lat="43.14459" lon="0.11314">
        <ele>458</ele>
        <time>2021-08-10T05:21:23.000Z</time>
      </trkpt>
      <trkpt lat="43.14457" lon="0.11308">
        <ele>458</ele>
        <time>2021-08-10T05:21:24.000Z</time>
      </trkpt>
      <trkpt lat="43.14455" lon="0.11302">
        <ele>458</ele>
        <time>2021-08-10T05:21:25.000Z</time>
      </trkpt>
      <trkpt lat="43.14453" lon="0.11296">
        <ele>458</ele>
        <time>2021-08-10T05:21:26.000Z</time>
      </trkpt>
      <trkpt lat="43.14451" lon="0.11285">
        <ele>458</ele>
        <time>2021-08-10T05:21:28.000Z</time>
      </trkpt>
      <trkpt lat="43.14449" lon="0.11278">
        <ele>458</ele>
        <time>2021-08-10T05:21:29.000Z</time>
      </trkpt>
      <trkpt lat="43.14449" lon="0.11272">
        <ele>458</ele>
        <time>2021-08-10T05:21:30.000Z</time>
      </trkpt>
      <trkpt lat="43.14448" lon="0.11265">
        <ele>458</ele>
        <time>2021-08-10T05:21:31.000Z</time>
      </trkpt>
      <trkpt lat="43.14447" lon="0.11259">
        <ele>458</ele>
        <time>2021-08-10T05:21:32.000Z</time>
      </trkpt>
      <trkpt lat="43.14446" lon="0.11248">
        <ele>458</ele>
        <time>2021-08-10T05:21:34.000Z</time>
      </trkpt>
      <trkpt lat="43.14444" lon="0.11241">
        <ele>458</ele>
        <time>2021-08-10T05:21:35.000Z</time>
      </trkpt>
      <trkpt lat="43.14444" lon="0.11234">
        <ele>458</ele>
        <time>2021-08-10T05:21:36.000Z</time>
      </trkpt>
      <trkpt lat="43.14443" lon="0.11227">
        <ele>458</ele>
        <time>2021-08-10T05:21:37.000Z</time>
      </trkpt>
      <trkpt lat="43.14441" lon="0.11215">
        <ele>458</ele>
        <time>2021-08-10T05:21:39.000Z</time>
      </trkpt>
      <trkpt lat="43.1444" lon="0.11207">
        <ele>458</ele>
        <time>2021-08-10T05:21:40.000Z</time>
      </trkpt>
      <trkpt lat="43.14438" lon="0.11196">
        <ele>458</ele>
        <time>2021-08-10T05:21:42.000Z</time>
      </trkpt>
      <trkpt lat="43.14437" lon="0.11189">
        <ele>458</ele>
        <time>2021-08-10T05:21:43.000Z</time>
      </trkpt>
      <trkpt lat="43.14436" lon="0.11182">
        <ele>458</ele>
        <time>2021-08-10T05:21:44.000Z</time>
      </trkpt>
      <trkpt lat="43.14436" lon="0.11175">
        <ele>458</ele>
        <time>2021-08-10T05:21:45.000Z</time>
      </trkpt>
      <trkpt lat="43.14434" lon="0.11169">
        <ele>458</ele>
        <time>2021-08-10T05:21:46.000Z</time>
      </trkpt>
      <trkpt lat="43.14434" lon="0.11162">
        <ele>458</ele>
        <time>2021-08-10T05:21:47.000Z</time>
      </trkpt>
      <trkpt lat="43.14433" lon="0.11156">
        <ele>458</ele>
        <time>2021-08-10T05:21:48.000Z</time>
      </trkpt>
      <trkpt lat="43.14431" lon="0.1115">
        <ele>458</ele>
        <time>2021-08-10T05:21:49.000Z</time>
      </trkpt>
      <trkpt lat="43.14427" lon="0.11145">
        <ele>458</ele>
        <time>2021-08-10T05:21:50.000Z</time>
      </trkpt>
      <trkpt lat="43.14424" lon="0.1114">
        <ele>458</ele>
        <time>2021-08-10T05:21:51.000Z</time>
      </trkpt>
      <trkpt lat="43.1442" lon="0.11136">
        <ele>458</ele>
        <time>2021-08-10T05:21:52.000Z</time>
      </trkpt>
      <trkpt lat="43.14416" lon="0.11133">
        <ele>458</ele>
        <time>2021-08-10T05:21:53.000Z</time>
      </trkpt>
      <trkpt lat="43.14408" lon="0.1113">
        <ele>458</ele>
        <time>2021-08-10T05:21:55.000Z</time>
      </trkpt>
      <trkpt lat="43.14402" lon="0.11129">
        <ele>458</ele>
        <time>2021-08-10T05:21:56.000Z</time>
      </trkpt>
      <trkpt lat="43.14397" lon="0.11129">
        <ele>458</ele>
        <time>2021-08-10T05:21:57.000Z</time>
      </trkpt>
      <trkpt lat="43.14392" lon="0.11128">
        <ele>458</ele>
        <time>2021-08-10T05:21:58.000Z</time>
      </trkpt>
      <trkpt lat="43.14383" lon="0.11129">
        <ele>458</ele>
        <time>2021-08-10T05:22:0.000Z</time>
      </trkpt>
      <trkpt lat="43.14378" lon="0.11129">
        <ele>459</ele>
        <time>2021-08-10T05:22:1.000Z</time>
      </trkpt>
      <trkpt lat="43.14373" lon="0.11129">
        <ele>459</ele>
        <time>2021-08-10T05:22:2.000Z</time>
      </trkpt>
      <trkpt lat="43.14368" lon="0.11129">
        <ele>459</ele>
        <time>2021-08-10T05:22:3.000Z</time>
      </trkpt>
      <trkpt lat="43.14362" lon="0.11129">
        <ele>459</ele>
        <time>2021-08-10T05:22:4.000Z</time>
      </trkpt>
      <trkpt lat="43.14357" lon="0.11129">
        <ele>459</ele>
        <time>2021-08-10T05:22:5.000Z</time>
      </trkpt>
      <trkpt lat="43.14352" lon="0.11129">
        <ele>459</ele>
        <time>2021-08-10T05:22:6.000Z</time>
      </trkpt>
      <trkpt lat="43.14341" lon="0.11128">
        <ele>459</ele>
        <time>2021-08-10T05:22:8.000Z</time>
      </trkpt>
      <trkpt lat="43.14336" lon="0.11128">
        <ele>459</ele>
        <time>2021-08-10T05:22:9.000Z</time>
      </trkpt>
      <trkpt lat="43.14327" lon="0.11126">
        <ele>459</ele>
        <time>2021-08-10T05:22:11.000Z</time>
      </trkpt>
      <trkpt lat="43.14318" lon="0.11125">
        <ele>459</ele>
        <time>2021-08-10T05:22:13.000Z</time>
      </trkpt>
      <trkpt lat="43.14313" lon="0.11123">
        <ele>459</ele>
        <time>2021-08-10T05:22:14.000Z</time>
      </trkpt>
      <trkpt lat="43.14308" lon="0.11121">
        <ele>460</ele>
        <time>2021-08-10T05:22:15.000Z</time>
      </trkpt>
      <trkpt lat="43.14304" lon="0.1112">
        <ele>460</ele>
        <time>2021-08-10T05:22:16.000Z</time>
      </trkpt>
      <trkpt lat="43.14298" lon="0.11118">
        <ele>460</ele>
        <time>2021-08-10T05:22:17.000Z</time>
      </trkpt>
      <trkpt lat="43.1429" lon="0.11115">
        <ele>460</ele>
        <time>2021-08-10T05:22:19.000Z</time>
      </trkpt>
      <trkpt lat="43.14285" lon="0.11112">
        <ele>460</ele>
        <time>2021-08-10T05:22:20.000Z</time>
      </trkpt>
      <trkpt lat="43.1428" lon="0.1111">
        <ele>460</ele>
        <time>2021-08-10T05:22:21.000Z</time>
      </trkpt>
      <trkpt lat="43.14275" lon="0.11107">
        <ele>460</ele>
        <time>2021-08-10T05:22:22.000Z</time>
      </trkpt>
      <trkpt lat="43.1427" lon="0.11105">
        <ele>460</ele>
        <time>2021-08-10T05:22:23.000Z</time>
      </trkpt>
      <trkpt lat="43.14265" lon="0.11103">
        <ele>460</ele>
        <time>2021-08-10T05:22:24.000Z</time>
      </trkpt>
      <trkpt lat="43.14261" lon="0.111">
        <ele>460</ele>
        <time>2021-08-10T05:22:25.000Z</time>
      </trkpt>
      <trkpt lat="43.14256" lon="0.11098">
        <ele>460</ele>
        <time>2021-08-10T05:22:26.000Z</time>
      </trkpt>
      <trkpt lat="43.14253" lon="0.11096">
        <ele>460</ele>
        <time>2021-08-10T05:22:27.000Z</time>
      </trkpt>
      <trkpt lat="43.14244" lon="0.11092">
        <ele>460</ele>
        <time>2021-08-10T05:22:29.000Z</time>
      </trkpt>
      <trkpt lat="43.14238" lon="0.11089">
        <ele>460</ele>
        <time>2021-08-10T05:22:30.000Z</time>
      </trkpt>
      <trkpt lat="43.14231" lon="0.11085">
        <ele>461</ele>
        <time>2021-08-10T05:22:32.000Z</time>
      </trkpt>
      <trkpt lat="43.14227" lon="0.11082">
        <ele>461</ele>
        <time>2021-08-10T05:22:33.000Z</time>
      </trkpt>
      <trkpt lat="43.14223" lon="0.11079">
        <ele>461</ele>
        <time>2021-08-10T05:22:34.000Z</time>
      </trkpt>
      <trkpt lat="43.14218" lon="0.11077">
        <ele>461</ele>
        <time>2021-08-10T05:22:35.000Z</time>
      </trkpt>
      <trkpt lat="43.14214" lon="0.11074">
        <ele>461</ele>
        <time>2021-08-10T05:22:36.000Z</time>
      </trkpt>
      <trkpt lat="43.14209" lon="0.11071">
        <ele>461</ele>
        <time>2021-08-10T05:22:37.000Z</time>
      </trkpt>
      <trkpt lat="43.14205" lon="0.11068">
        <ele>461</ele>
        <time>2021-08-10T05:22:38.000Z</time>
      </trkpt>
      <trkpt lat="43.14202" lon="0.11065">
        <ele>461</ele>
        <time>2021-08-10T05:22:39.000Z</time>
      </trkpt>
      <trkpt lat="43.14196" lon="0.11045">
        <ele>461</ele>
        <time>2021-08-10T05:22:41.000Z</time>
      </trkpt>
      <trkpt lat="43.14191" lon="0.11036">
        <ele>461</ele>
        <time>2021-08-10T05:22:43.000Z</time>
      </trkpt>
      <trkpt lat="43.14189" lon="0.1103">
        <ele>461</ele>
        <time>2021-08-10T05:22:44.000Z</time>
      </trkpt>
      <trkpt lat="43.14187" lon="0.1102">
        <ele>461</ele>
        <time>2021-08-10T05:22:46.000Z</time>
      </trkpt>
      <trkpt lat="43.14185" lon="0.11014">
        <ele>461</ele>
        <time>2021-08-10T05:22:50.000Z</time>
      </trkpt>
      <trkpt lat="43.14182" lon="0.11007">
        <ele>461</ele>
        <time>2021-08-10T05:23:0.000Z</time>
      </trkpt>
      <trkpt lat="43.14175" lon="0.11006">
        <ele>461</ele>
        <time>2021-08-10T05:23:2.000Z</time>
      </trkpt>
      <trkpt lat="43.14167" lon="0.11008">
        <ele>461</ele>
        <time>2021-08-10T05:23:4.000Z</time>
      </trkpt>
      <trkpt lat="43.14162" lon="0.1101">
        <ele>461</ele>
        <time>2021-08-10T05:23:5.000Z</time>
      </trkpt>
      <trkpt lat="43.14157" lon="0.11012">
        <ele>461</ele>
        <time>2021-08-10T05:23:6.000Z</time>
      </trkpt>
      <trkpt lat="43.14152" lon="0.11014">
        <ele>461</ele>
        <time>2021-08-10T05:23:7.000Z</time>
      </trkpt>
      <trkpt lat="43.14146" lon="0.11016">
        <ele>461</ele>
        <time>2021-08-10T05:23:8.000Z</time>
      </trkpt>
      <trkpt lat="43.14141" lon="0.11019">
        <ele>461</ele>
        <time>2021-08-10T05:23:9.000Z</time>
      </trkpt>
      <trkpt lat="43.14136" lon="0.1102">
        <ele>461</ele>
        <time>2021-08-10T05:23:10.000Z</time>
      </trkpt>
      <trkpt lat="43.14129" lon="0.11023">
        <ele>461</ele>
        <time>2021-08-10T05:23:11.000Z</time>
      </trkpt>
      <trkpt lat="43.14125" lon="0.11025">
        <ele>461</ele>
        <time>2021-08-10T05:23:12.000Z</time>
      </trkpt>
      <trkpt lat="43.14118" lon="0.11028">
        <ele>461</ele>
        <time>2021-08-10T05:23:13.000Z</time>
      </trkpt>
      <trkpt lat="43.14114" lon="0.1103">
        <ele>461</ele>
        <time>2021-08-10T05:23:14.000Z</time>
      </trkpt>
      <trkpt lat="43.14108" lon="0.11033">
        <ele>461</ele>
        <time>2021-08-10T05:23:15.000Z</time>
      </trkpt>
      <trkpt lat="43.14102" lon="0.11035">
        <ele>461</ele>
        <time>2021-08-10T05:23:16.000Z</time>
      </trkpt>
      <trkpt lat="43.14096" lon="0.11038">
        <ele>461</ele>
        <time>2021-08-10T05:23:17.000Z</time>
      </trkpt>
      <trkpt lat="43.14092" lon="0.1104">
        <ele>461</ele>
        <time>2021-08-10T05:23:18.000Z</time>
      </trkpt>
      <trkpt lat="43.14086" lon="0.11042">
        <ele>461</ele>
        <time>2021-08-10T05:23:19.000Z</time>
      </trkpt>
      <trkpt lat="43.14081" lon="0.11044">
        <ele>461</ele>
        <time>2021-08-10T05:23:20.000Z</time>
      </trkpt>
      <trkpt lat="43.14076" lon="0.11047">
        <ele>461</ele>
        <time>2021-08-10T05:23:21.000Z</time>
      </trkpt>
      <trkpt lat="43.14065" lon="0.11051">
        <ele>462</ele>
        <time>2021-08-10T05:23:23.000Z</time>
      </trkpt>
      <trkpt lat="43.1406" lon="0.11053">
        <ele>462</ele>
        <time>2021-08-10T05:23:24.000Z</time>
      </trkpt>
      <trkpt lat="43.14054" lon="0.11055">
        <ele>462</ele>
        <time>2021-08-10T05:23:25.000Z</time>
      </trkpt>
      <trkpt lat="43.14049" lon="0.11057">
        <ele>462</ele>
        <time>2021-08-10T05:23:26.000Z</time>
      </trkpt>
      <trkpt lat="43.14044" lon="0.11059">
        <ele>462</ele>
        <time>2021-08-10T05:23:27.000Z</time>
      </trkpt>
      <trkpt lat="43.14039" lon="0.11061">
        <ele>462</ele>
        <time>2021-08-10T05:23:28.000Z</time>
      </trkpt>
      <trkpt lat="43.14033" lon="0.11063">
        <ele>462</ele>
        <time>2021-08-10T05:23:29.000Z</time>
      </trkpt>
      <trkpt lat="43.14028" lon="0.11065">
        <ele>462</ele>
        <time>2021-08-10T05:23:30.000Z</time>
      </trkpt>
      <trkpt lat="43.14023" lon="0.11067">
        <ele>462</ele>
        <time>2021-08-10T05:23:31.000Z</time>
      </trkpt>
      <trkpt lat="43.14018" lon="0.1107">
        <ele>462</ele>
        <time>2021-08-10T05:23:32.000Z</time>
      </trkpt>
      <trkpt lat="43.14013" lon="0.11071">
        <ele>462</ele>
        <time>2021-08-10T05:23:33.000Z</time>
      </trkpt>
      <trkpt lat="43.14002" lon="0.11075">
        <ele>462</ele>
        <time>2021-08-10T05:23:35.000Z</time>
      </trkpt>
      <trkpt lat="43.13997" lon="0.11076">
        <ele>462</ele>
        <time>2021-08-10T05:23:36.000Z</time>
      </trkpt>
      <trkpt lat="43.13992" lon="0.11066">
        <ele>462</ele>
        <time>2021-08-10T05:23:37.000Z</time>
      </trkpt>
      <trkpt lat="43.13988" lon="0.11062">
        <ele>462</ele>
        <time>2021-08-10T05:23:38.000Z</time>
      </trkpt>
      <trkpt lat="43.13985" lon="0.1105">
        <ele>461</ele>
        <time>2021-08-10T05:23:40.000Z</time>
      </trkpt>
      <trkpt lat="43.13983" lon="0.11042">
        <ele>461</ele>
        <time>2021-08-10T05:23:41.000Z</time>
      </trkpt>
      <trkpt lat="43.13981" lon="0.11028">
        <ele>461</ele>
        <time>2021-08-10T05:23:43.000Z</time>
      </trkpt>
      <trkpt lat="43.1398" lon="0.11021">
        <ele>461</ele>
        <time>2021-08-10T05:23:44.000Z</time>
      </trkpt>
      <trkpt lat="43.13978" lon="0.11012">
        <ele>461</ele>
        <time>2021-08-10T05:23:45.000Z</time>
      </trkpt>
      <trkpt lat="43.13977" lon="0.11004">
        <ele>461</ele>
        <time>2021-08-10T05:23:46.000Z</time>
      </trkpt>
      <trkpt lat="43.13976" lon="0.10997">
        <ele>461</ele>
        <time>2021-08-10T05:23:47.000Z</time>
      </trkpt>
      <trkpt lat="43.13974" lon="0.10982">
        <ele>461</ele>
        <time>2021-08-10T05:23:49.000Z</time>
      </trkpt>
      <trkpt lat="43.13973" lon="0.10975">
        <ele>461</ele>
        <time>2021-08-10T05:23:50.000Z</time>
      </trkpt>
      <trkpt lat="43.13972" lon="0.10968">
        <ele>461</ele>
        <time>2021-08-10T05:23:51.000Z</time>
      </trkpt>
      <trkpt lat="43.1397" lon="0.1096">
        <ele>461</ele>
        <time>2021-08-10T05:23:52.000Z</time>
      </trkpt>
      <trkpt lat="43.13969" lon="0.10952">
        <ele>461</ele>
        <time>2021-08-10T05:23:53.000Z</time>
      </trkpt>
      <trkpt lat="43.13967" lon="0.10942">
        <ele>461</ele>
        <time>2021-08-10T05:23:54.000Z</time>
      </trkpt>
      <trkpt lat="43.13966" lon="0.10935">
        <ele>461</ele>
        <time>2021-08-10T05:23:55.000Z</time>
      </trkpt>
      <trkpt lat="43.13964" lon="0.10928">
        <ele>461</ele>
        <time>2021-08-10T05:23:56.000Z</time>
      </trkpt>
      <trkpt lat="43.13963" lon="0.10922">
        <ele>461</ele>
        <time>2021-08-10T05:23:57.000Z</time>
      </trkpt>
      <trkpt lat="43.1396" lon="0.10913">
        <ele>461</ele>
        <time>2021-08-10T05:23:58.000Z</time>
      </trkpt>
      <trkpt lat="43.13959" lon="0.10907">
        <ele>461</ele>
        <time>2021-08-10T05:23:59.000Z</time>
      </trkpt>
      <trkpt lat="43.13957" lon="0.10898">
        <ele>461</ele>
        <time>2021-08-10T05:24:0.000Z</time>
      </trkpt>
      <trkpt lat="43.13955" lon="0.10891">
        <ele>461</ele>
        <time>2021-08-10T05:24:1.000Z</time>
      </trkpt>
      <trkpt lat="43.13953" lon="0.10883">
        <ele>461</ele>
        <time>2021-08-10T05:24:2.000Z</time>
      </trkpt>
      <trkpt lat="43.13951" lon="0.10874">
        <ele>461</ele>
        <time>2021-08-10T05:24:3.000Z</time>
      </trkpt>
      <trkpt lat="43.13949" lon="0.10867">
        <ele>461</ele>
        <time>2021-08-10T05:24:4.000Z</time>
      </trkpt>
      <trkpt lat="43.13947" lon="0.10861">
        <ele>461</ele>
        <time>2021-08-10T05:24:5.000Z</time>
      </trkpt>
      <trkpt lat="43.13945" lon="0.10854">
        <ele>461</ele>
        <time>2021-08-10T05:24:6.000Z</time>
      </trkpt>
      <trkpt lat="43.13943" lon="0.10846">
        <ele>461</ele>
        <time>2021-08-10T05:24:7.000Z</time>
      </trkpt>
      <trkpt lat="43.1394" lon="0.10837">
        <ele>461</ele>
        <time>2021-08-10T05:24:8.000Z</time>
      </trkpt>
      <trkpt lat="43.13939" lon="0.10831">
        <ele>461</ele>
        <time>2021-08-10T05:24:9.000Z</time>
      </trkpt>
      <trkpt lat="43.13936" lon="0.10822">
        <ele>460</ele>
        <time>2021-08-10T05:24:10.000Z</time>
      </trkpt>
      <trkpt lat="43.13934" lon="0.10814">
        <ele>460</ele>
        <time>2021-08-10T05:24:10.000Z</time>
      </trkpt>
      <trkpt lat="43.13932" lon="0.10808">
        <ele>460</ele>
        <time>2021-08-10T05:24:11.000Z</time>
      </trkpt>
      <trkpt lat="43.1393" lon="0.10799">
        <ele>460</ele>
        <time>2021-08-10T05:24:12.000Z</time>
      </trkpt>
      <trkpt lat="43.13928" lon="0.10791">
        <ele>460</ele>
        <time>2021-08-10T05:24:13.000Z</time>
      </trkpt>
      <trkpt lat="43.13926" lon="0.10784">
        <ele>460</ele>
        <time>2021-08-10T05:24:14.000Z</time>
      </trkpt>
      <trkpt lat="43.13924" lon="0.10775">
        <ele>460</ele>
        <time>2021-08-10T05:24:15.000Z</time>
      </trkpt>
      <trkpt lat="43.13921" lon="0.10767">
        <ele>460</ele>
        <time>2021-08-10T05:24:16.000Z</time>
      </trkpt>
      <trkpt lat="43.1392" lon="0.10759">
        <ele>459</ele>
        <time>2021-08-10T05:24:17.000Z</time>
      </trkpt>
      <trkpt lat="43.13918" lon="0.10751">
        <ele>459</ele>
        <time>2021-08-10T05:24:18.000Z</time>
      </trkpt>
      <trkpt lat="43.13916" lon="0.10743">
        <ele>459</ele>
        <time>2021-08-10T05:24:19.000Z</time>
      </trkpt>
      <trkpt lat="43.13915" lon="0.10734">
        <ele>459</ele>
        <time>2021-08-10T05:24:20.000Z</time>
      </trkpt>
      <trkpt lat="43.13913" lon="0.10726">
        <ele>459</ele>
        <time>2021-08-10T05:24:21.000Z</time>
      </trkpt>
      <trkpt lat="43.13911" lon="0.10717">
        <ele>459</ele>
        <time>2021-08-10T05:24:22.000Z</time>
      </trkpt>
      <trkpt lat="43.1391" lon="0.10708">
        <ele>459</ele>
        <time>2021-08-10T05:24:23.000Z</time>
      </trkpt>
      <trkpt lat="43.13908" lon="0.10699">
        <ele>458</ele>
        <time>2021-08-10T05:24:24.000Z</time>
      </trkpt>
      <trkpt lat="43.13906" lon="0.10689">
        <ele>458</ele>
        <time>2021-08-10T05:24:25.000Z</time>
      </trkpt>
      <trkpt lat="43.13905" lon="0.10682">
        <ele>458</ele>
        <time>2021-08-10T05:24:26.000Z</time>
      </trkpt>
      <trkpt lat="43.13903" lon="0.10672">
        <ele>458</ele>
        <time>2021-08-10T05:24:27.000Z</time>
      </trkpt>
      <trkpt lat="43.13902" lon="0.10665">
        <ele>458</ele>
        <time>2021-08-10T05:24:28.000Z</time>
      </trkpt>
      <trkpt lat="43.139" lon="0.10658">
        <ele>458</ele>
        <time>2021-08-10T05:24:29.000Z</time>
      </trkpt>
      <trkpt lat="43.13899" lon="0.10648">
        <ele>458</ele>
        <time>2021-08-10T05:24:30.000Z</time>
      </trkpt>
      <trkpt lat="43.13897" lon="0.10639">
        <ele>458</ele>
        <time>2021-08-10T05:24:31.000Z</time>
      </trkpt>
      <trkpt lat="43.13897" lon="0.10632">
        <ele>458</ele>
        <time>2021-08-10T05:24:32.000Z</time>
      </trkpt>
      <trkpt lat="43.13895" lon="0.10624">
        <ele>458</ele>
        <time>2021-08-10T05:24:33.000Z</time>
      </trkpt>
      <trkpt lat="43.13894" lon="0.10616">
        <ele>458</ele>
        <time>2021-08-10T05:24:34.000Z</time>
      </trkpt>
      <trkpt lat="43.13892" lon="0.10607">
        <ele>458</ele>
        <time>2021-08-10T05:24:35.000Z</time>
      </trkpt>
      <trkpt lat="43.13891" lon="0.10599">
        <ele>458</ele>
        <time>2021-08-10T05:24:36.000Z</time>
      </trkpt>
      <trkpt lat="43.1389" lon="0.10592">
        <ele>458</ele>
        <time>2021-08-10T05:24:37.000Z</time>
      </trkpt>
      <trkpt lat="43.13889" lon="0.10584">
        <ele>458</ele>
        <time>2021-08-10T05:24:38.000Z</time>
      </trkpt>
      <trkpt lat="43.13888" lon="0.10576">
        <ele>458</ele>
        <time>2021-08-10T05:24:39.000Z</time>
      </trkpt>
      <trkpt lat="43.13887" lon="0.10569">
        <ele>458</ele>
        <time>2021-08-10T05:24:40.000Z</time>
      </trkpt>
      <trkpt lat="43.13885" lon="0.10561">
        <ele>458</ele>
        <time>2021-08-10T05:24:41.000Z</time>
      </trkpt>
      <trkpt lat="43.13884" lon="0.10552">
        <ele>458</ele>
        <time>2021-08-10T05:24:42.000Z</time>
      </trkpt>
      <trkpt lat="43.13883" lon="0.10544">
        <ele>458</ele>
        <time>2021-08-10T05:24:43.000Z</time>
      </trkpt>
      <trkpt lat="43.13882" lon="0.10538">
        <ele>458</ele>
        <time>2021-08-10T05:24:44.000Z</time>
      </trkpt>
      <trkpt lat="43.13881" lon="0.10529">
        <ele>458</ele>
        <time>2021-08-10T05:24:45.000Z</time>
      </trkpt>
      <trkpt lat="43.13879" lon="0.10522">
        <ele>458</ele>
        <time>2021-08-10T05:24:46.000Z</time>
      </trkpt>
      <trkpt lat="43.13878" lon="0.10514">
        <ele>458</ele>
        <time>2021-08-10T05:24:47.000Z</time>
      </trkpt>
      <trkpt lat="43.13876" lon="0.10505">
        <ele>458</ele>
        <time>2021-08-10T05:24:48.000Z</time>
      </trkpt>
      <trkpt lat="43.13875" lon="0.10498">
        <ele>457</ele>
        <time>2021-08-10T05:24:49.000Z</time>
      </trkpt>
      <trkpt lat="43.13873" lon="0.10491">
        <ele>457</ele>
        <time>2021-08-10T05:24:50.000Z</time>
      </trkpt>
      <trkpt lat="43.13871" lon="0.10478">
        <ele>457</ele>
        <time>2021-08-10T05:24:52.000Z</time>
      </trkpt>
      <trkpt lat="43.13868" lon="0.1047">
        <ele>457</ele>
        <time>2021-08-10T05:24:53.000Z</time>
      </trkpt>
      <trkpt lat="43.13867" lon="0.10464">
        <ele>457</ele>
        <time>2021-08-10T05:24:54.000Z</time>
      </trkpt>
      <trkpt lat="43.13865" lon="0.10459">
        <ele>457</ele>
        <time>2021-08-10T05:24:55.000Z</time>
      </trkpt>
      <trkpt lat="43.13863" lon="0.10452">
        <ele>457</ele>
        <time>2021-08-10T05:24:56.000Z</time>
      </trkpt>
      <trkpt lat="43.1386" lon="0.10446">
        <ele>457</ele>
        <time>2021-08-10T05:24:57.000Z</time>
      </trkpt>
      <trkpt lat="43.13857" lon="0.10439">
        <ele>457</ele>
        <time>2021-08-10T05:24:58.000Z</time>
      </trkpt>
      <trkpt lat="43.13854" lon="0.10429">
        <ele>457</ele>
        <time>2021-08-10T05:25:0.000Z</time>
      </trkpt>
      <trkpt lat="43.13823" lon="0.1042">
        <ele>457</ele>
        <time>2021-08-10T05:25:2.000Z</time>
      </trkpt>
      <trkpt lat="43.13818" lon="0.10418">
        <ele>457</ele>
        <time>2021-08-10T05:25:3.000Z</time>
      </trkpt>
      <trkpt lat="43.13813" lon="0.10418">
        <ele>457</ele>
        <time>2021-08-10T05:25:4.000Z</time>
      </trkpt>
      <trkpt lat="43.13807" lon="0.10418">
        <ele>457</ele>
        <time>2021-08-10T05:25:5.000Z</time>
      </trkpt>
      <trkpt lat="43.13802" lon="0.10418">
        <ele>457</ele>
        <time>2021-08-10T05:25:6.000Z</time>
      </trkpt>
      <trkpt lat="43.13796" lon="0.10417">
        <ele>457</ele>
        <time>2021-08-10T05:25:7.000Z</time>
      </trkpt>
      <trkpt lat="43.13791" lon="0.10417">
        <ele>457</ele>
        <time>2021-08-10T05:25:8.000Z</time>
      </trkpt>
      <trkpt lat="43.13785" lon="0.10417">
        <ele>457</ele>
        <time>2021-08-10T05:25:9.000Z</time>
      </trkpt>
      <trkpt lat="43.1378" lon="0.10416">
        <ele>457</ele>
        <time>2021-08-10T05:25:10.000Z</time>
      </trkpt>
      <trkpt lat="43.13775" lon="0.10416">
        <ele>457</ele>
        <time>2021-08-10T05:25:11.000Z</time>
      </trkpt>
      <trkpt lat="43.1377" lon="0.10415">
        <ele>457</ele>
        <time>2021-08-10T05:25:12.000Z</time>
      </trkpt>
      <trkpt lat="43.13764" lon="0.10415">
        <ele>457</ele>
        <time>2021-08-10T05:25:13.000Z</time>
      </trkpt>
      <trkpt lat="43.13758" lon="0.10415">
        <ele>457</ele>
        <time>2021-08-10T05:25:14.000Z</time>
      </trkpt>
      <trkpt lat="43.13753" lon="0.10414">
        <ele>457</ele>
        <time>2021-08-10T05:25:15.000Z</time>
      </trkpt>
      <trkpt lat="43.13747" lon="0.10414">
        <ele>457</ele>
        <time>2021-08-10T05:25:16.000Z</time>
      </trkpt>
      <trkpt lat="43.1374" lon="0.10414">
        <ele>457</ele>
        <time>2021-08-10T05:25:17.000Z</time>
      </trkpt>
      <trkpt lat="43.13735" lon="0.10413">
        <ele>457</ele>
        <time>2021-08-10T05:25:18.000Z</time>
      </trkpt>
      <trkpt lat="43.13724" lon="0.10413">
        <ele>457</ele>
        <time>2021-08-10T05:25:20.000Z</time>
      </trkpt>
      <trkpt lat="43.13715" lon="0.10418">
        <ele>457</ele>
        <time>2021-08-10T05:25:22.000Z</time>
      </trkpt>
      <trkpt lat="43.1371" lon="0.1042">
        <ele>457</ele>
        <time>2021-08-10T05:25:23.000Z</time>
      </trkpt>
      <trkpt lat="43.13704" lon="0.10423">
        <ele>457</ele>
        <time>2021-08-10T05:25:24.000Z</time>
      </trkpt>
      <trkpt lat="43.13699" lon="0.10424">
        <ele>457</ele>
        <time>2021-08-10T05:25:25.000Z</time>
      </trkpt>
      <trkpt lat="43.13694" lon="0.10426">
        <ele>457</ele>
        <time>2021-08-10T05:25:26.000Z</time>
      </trkpt>
      <trkpt lat="43.13689" lon="0.10428">
        <ele>457</ele>
        <time>2021-08-10T05:25:27.000Z</time>
      </trkpt>
      <trkpt lat="43.13684" lon="0.1043">
        <ele>457</ele>
        <time>2021-08-10T05:25:28.000Z</time>
      </trkpt>
      <trkpt lat="43.1368" lon="0.10433">
        <ele>457</ele>
        <time>2021-08-10T05:25:29.000Z</time>
      </trkpt>
      <trkpt lat="43.13675" lon="0.10439">
        <ele>457</ele>
        <time>2021-08-10T05:25:30.000Z</time>
      </trkpt>
      <trkpt lat="43.13671" lon="0.10443">
        <ele>457</ele>
        <time>2021-08-10T05:25:31.000Z</time>
      </trkpt>
      <trkpt lat="43.13667" lon="0.10447">
        <ele>457</ele>
        <time>2021-08-10T05:25:32.000Z</time>
      </trkpt>
      <trkpt lat="43.13662" lon="0.10451">
        <ele>457</ele>
        <time>2021-08-10T05:25:33.000Z</time>
      </trkpt>
      <trkpt lat="43.13658" lon="0.10455">
        <ele>457</ele>
        <time>2021-08-10T05:25:34.000Z</time>
      </trkpt>
      <trkpt lat="43.13653" lon="0.10458">
        <ele>457</ele>
        <time>2021-08-10T05:25:35.000Z</time>
      </trkpt>
      <trkpt lat="43.13645" lon="0.10466">
        <ele>457</ele>
        <time>2021-08-10T05:25:37.000Z</time>
      </trkpt>
      <trkpt lat="43.13641" lon="0.10471">
        <ele>457</ele>
        <time>2021-08-10T05:25:38.000Z</time>
      </trkpt>
      <trkpt lat="43.13638" lon="0.10477">
        <ele>457</ele>
        <time>2021-08-10T05:25:39.000Z</time>
      </trkpt>
      <trkpt lat="43.13635" lon="0.10483">
        <ele>458</ele>
        <time>2021-08-10T05:25:40.000Z</time>
      </trkpt>
      <trkpt lat="43.13629" lon="0.10494">
        <ele>458</ele>
        <time>2021-08-10T05:25:42.000Z</time>
      </trkpt>
      <trkpt lat="43.13626" lon="0.105">
        <ele>458</ele>
        <time>2021-08-10T05:25:43.000Z</time>
      </trkpt>
      <trkpt lat="43.13621" lon="0.10511">
        <ele>459</ele>
        <time>2021-08-10T05:25:45.000Z</time>
      </trkpt>
      <trkpt lat="43.13618" lon="0.10518">
        <ele>459</ele>
        <time>2021-08-10T05:25:46.000Z</time>
      </trkpt>
      <trkpt lat="43.13611" lon="0.10527">
        <ele>459</ele>
        <time>2021-08-10T05:25:48.000Z</time>
      </trkpt>
      <trkpt lat="43.13607" lon="0.1053">
        <ele>459</ele>
        <time>2021-08-10T05:25:49.000Z</time>
      </trkpt>
      <trkpt lat="43.13598" lon="0.10532">
        <ele>460</ele>
        <time>2021-08-10T05:25:51.000Z</time>
      </trkpt>
      <trkpt lat="43.13593" lon="0.1053">
        <ele>460</ele>
        <time>2021-08-10T05:25:52.000Z</time>
      </trkpt>
      <trkpt lat="43.13584" lon="0.10528">
        <ele>460</ele>
        <time>2021-08-10T05:25:54.000Z</time>
      </trkpt>
      <trkpt lat="43.13578" lon="0.10527">
        <ele>460</ele>
        <time>2021-08-10T05:25:55.000Z</time>
      </trkpt>
      <trkpt lat="43.13574" lon="0.10526">
        <ele>460</ele>
        <time>2021-08-10T05:25:56.000Z</time>
      </trkpt>
      <trkpt lat="43.13569" lon="0.10526">
        <ele>460</ele>
        <time>2021-08-10T05:25:57.000Z</time>
      </trkpt>
      <trkpt lat="43.13559" lon="0.10526">
        <ele>460</ele>
        <time>2021-08-10T05:25:59.000Z</time>
      </trkpt>
      <trkpt lat="43.1355" lon="0.10529">
        <ele>460</ele>
        <time>2021-08-10T05:26:1.000Z</time>
      </trkpt>
      <trkpt lat="43.13541" lon="0.10533">
        <ele>460</ele>
        <time>2021-08-10T05:26:3.000Z</time>
      </trkpt>
      <trkpt lat="43.13532" lon="0.10537">
        <ele>460</ele>
        <time>2021-08-10T05:26:5.000Z</time>
      </trkpt>
      <trkpt lat="43.13527" lon="0.10539">
        <ele>460</ele>
        <time>2021-08-10T05:26:6.000Z</time>
      </trkpt>
      <trkpt lat="43.13522" lon="0.10541">
        <ele>460</ele>
        <time>2021-08-10T05:26:7.000Z</time>
      </trkpt>
      <trkpt lat="43.13515" lon="0.10545">
        <ele>460</ele>
        <time>2021-08-10T05:26:9.000Z</time>
      </trkpt>
      <trkpt lat="43.13509" lon="0.10547">
        <ele>460</ele>
        <time>2021-08-10T05:26:10.000Z</time>
      </trkpt>
      <trkpt lat="43.13504" lon="0.1055">
        <ele>460</ele>
        <time>2021-08-10T05:26:11.000Z</time>
      </trkpt>
      <trkpt lat="43.135" lon="0.10552">
        <ele>460</ele>
        <time>2021-08-10T05:26:12.000Z</time>
      </trkpt>
      <trkpt lat="43.13491" lon="0.10556">
        <ele>461</ele>
        <time>2021-08-10T05:26:14.000Z</time>
      </trkpt>
      <trkpt lat="43.13486" lon="0.10559">
        <ele>461</ele>
        <time>2021-08-10T05:26:15.000Z</time>
      </trkpt>
      <trkpt lat="43.13481" lon="0.10561">
        <ele>461</ele>
        <time>2021-08-10T05:26:16.000Z</time>
      </trkpt>
      <trkpt lat="43.13474" lon="0.10565">
        <ele>461</ele>
        <time>2021-08-10T05:26:18.000Z</time>
      </trkpt>
      <trkpt lat="43.13468" lon="0.10568">
        <ele>461</ele>
        <time>2021-08-10T05:26:19.000Z</time>
      </trkpt>
      <trkpt lat="43.1346" lon="0.10572">
        <ele>461</ele>
        <time>2021-08-10T05:26:21.000Z</time>
      </trkpt>
      <trkpt lat="43.13454" lon="0.10575">
        <ele>461</ele>
        <time>2021-08-10T05:26:22.000Z</time>
      </trkpt>
      <trkpt lat="43.13446" lon="0.1058">
        <ele>462</ele>
        <time>2021-08-10T05:26:24.000Z</time>
      </trkpt>
      <trkpt lat="43.13442" lon="0.10583">
        <ele>462</ele>
        <time>2021-08-10T05:26:25.000Z</time>
      </trkpt>
      <trkpt lat="43.13438" lon="0.10586">
        <ele>462</ele>
        <time>2021-08-10T05:26:26.000Z</time>
      </trkpt>
      <trkpt lat="43.1343" lon="0.10591">
        <ele>462</ele>
        <time>2021-08-10T05:26:28.000Z</time>
      </trkpt>
      <trkpt lat="43.13425" lon="0.10594">
        <ele>462</ele>
        <time>2021-08-10T05:26:29.000Z</time>
      </trkpt>
      <trkpt lat="43.13418" lon="0.10599">
        <ele>463</ele>
        <time>2021-08-10T05:26:31.000Z</time>
      </trkpt>
      <trkpt lat="43.13414" lon="0.10602">
        <ele>463</ele>
        <time>2021-08-10T05:26:32.000Z</time>
      </trkpt>
      <trkpt lat="43.13409" lon="0.10605">
        <ele>463</ele>
        <time>2021-08-10T05:26:33.000Z</time>
      </trkpt>
      <trkpt lat="43.13404" lon="0.10609">
        <ele>463</ele>
        <time>2021-08-10T05:26:34.000Z</time>
      </trkpt>
      <trkpt lat="43.134" lon="0.10612">
        <ele>463</ele>
        <time>2021-08-10T05:26:35.000Z</time>
      </trkpt>
      <trkpt lat="43.13396" lon="0.10614">
        <ele>463</ele>
        <time>2021-08-10T05:26:36.000Z</time>
      </trkpt>
      <trkpt lat="43.13387" lon="0.1062">
        <ele>463</ele>
        <time>2021-08-10T05:26:38.000Z</time>
      </trkpt>
      <trkpt lat="43.13382" lon="0.10623">
        <ele>463</ele>
        <time>2021-08-10T05:26:39.000Z</time>
      </trkpt>
      <trkpt lat="43.13378" lon="0.10626">
        <ele>463</ele>
        <time>2021-08-10T05:26:40.000Z</time>
      </trkpt>
      <trkpt lat="43.1337" lon="0.10631">
        <ele>463</ele>
        <time>2021-08-10T05:26:42.000Z</time>
      </trkpt>
      <trkpt lat="43.13366" lon="0.10635">
        <ele>463</ele>
        <time>2021-08-10T05:26:43.000Z</time>
      </trkpt>
      <trkpt lat="43.13361" lon="0.10638">
        <ele>464</ele>
        <time>2021-08-10T05:26:44.000Z</time>
      </trkpt>
      <trkpt lat="43.13354" lon="0.10643">
        <ele>464</ele>
        <time>2021-08-10T05:26:46.000Z</time>
      </trkpt>
      <trkpt lat="43.1335" lon="0.10646">
        <ele>464</ele>
        <time>2021-08-10T05:26:47.000Z</time>
      </trkpt>
      <trkpt lat="43.13346" lon="0.1065">
        <ele>464</ele>
        <time>2021-08-10T05:26:48.000Z</time>
      </trkpt>
      <trkpt lat="43.1334" lon="0.10654">
        <ele>464</ele>
        <time>2021-08-10T05:26:49.000Z</time>
      </trkpt>
      <trkpt lat="43.13336" lon="0.10658">
        <ele>464</ele>
        <time>2021-08-10T05:26:50.000Z</time>
      </trkpt>
      <trkpt lat="43.13329" lon="0.10664">
        <ele>464</ele>
        <time>2021-08-10T05:26:52.000Z</time>
      </trkpt>
      <trkpt lat="43.13324" lon="0.10668">
        <ele>464</ele>
        <time>2021-08-10T05:26:53.000Z</time>
      </trkpt>
      <trkpt lat="43.13319" lon="0.10672">
        <ele>464</ele>
        <time>2021-08-10T05:26:54.000Z</time>
      </trkpt>
      <trkpt lat="43.13315" lon="0.10675">
        <ele>464</ele>
        <time>2021-08-10T05:26:55.000Z</time>
      </trkpt>
      <trkpt lat="43.13311" lon="0.10679">
        <ele>464</ele>
        <time>2021-08-10T05:26:56.000Z</time>
      </trkpt>
      <trkpt lat="43.13306" lon="0.10683">
        <ele>464</ele>
        <time>2021-08-10T05:26:57.000Z</time>
      </trkpt>
      <trkpt lat="43.13303" lon="0.10686">
        <ele>464</ele>
        <time>2021-08-10T05:26:58.000Z</time>
      </trkpt>
      <trkpt lat="43.13298" lon="0.10689">
        <ele>464</ele>
        <time>2021-08-10T05:26:59.000Z</time>
      </trkpt>
      <trkpt lat="43.13294" lon="0.10693">
        <ele>464</ele>
        <time>2021-08-10T05:27:0.000Z</time>
      </trkpt>
      <trkpt lat="43.1329" lon="0.10697">
        <ele>464</ele>
        <time>2021-08-10T05:27:1.000Z</time>
      </trkpt>
      <trkpt lat="43.13285" lon="0.107">
        <ele>464</ele>
        <time>2021-08-10T05:27:2.000Z</time>
      </trkpt>
      <trkpt lat="43.13281" lon="0.10704">
        <ele>465</ele>
        <time>2021-08-10T05:27:3.000Z</time>
      </trkpt>
      <trkpt lat="43.13277" lon="0.10708">
        <ele>465</ele>
        <time>2021-08-10T05:27:4.000Z</time>
      </trkpt>
      <trkpt lat="43.13273" lon="0.10712">
        <ele>465</ele>
        <time>2021-08-10T05:27:5.000Z</time>
      </trkpt>
      <trkpt lat="43.13268" lon="0.10716">
        <ele>465</ele>
        <time>2021-08-10T05:27:6.000Z</time>
      </trkpt>
      <trkpt lat="43.13258" lon="0.10724">
        <ele>465</ele>
        <time>2021-08-10T05:27:8.000Z</time>
      </trkpt>
      <trkpt lat="43.13254" lon="0.10727">
        <ele>465</ele>
        <time>2021-08-10T05:27:9.000Z</time>
      </trkpt>
      <trkpt lat="43.1325" lon="0.10731">
        <ele>465</ele>
        <time>2021-08-10T05:27:10.000Z</time>
      </trkpt>
      <trkpt lat="43.13246" lon="0.10734">
        <ele>465</ele>
        <time>2021-08-10T05:27:11.000Z</time>
      </trkpt>
      <trkpt lat="43.13242" lon="0.10738">
        <ele>465</ele>
        <time>2021-08-10T05:27:12.000Z</time>
      </trkpt>
      <trkpt lat="43.13239" lon="0.10745">
        <ele>465</ele>
        <time>2021-08-10T05:27:13.000Z</time>
      </trkpt>
      <trkpt lat="43.13236" lon="0.10751">
        <ele>465</ele>
        <time>2021-08-10T05:27:14.000Z</time>
      </trkpt>
      <trkpt lat="43.13233" lon="0.10756">
        <ele>465</ele>
        <time>2021-08-10T05:27:15.000Z</time>
      </trkpt>
      <trkpt lat="43.13231" lon="0.10762">
        <ele>465</ele>
        <time>2021-08-10T05:27:16.000Z</time>
      </trkpt>
      <trkpt lat="43.13227" lon="0.10768">
        <ele>465</ele>
        <time>2021-08-10T05:27:17.000Z</time>
      </trkpt>
      <trkpt lat="43.13224" lon="0.10773">
        <ele>465</ele>
        <time>2021-08-10T05:27:18.000Z</time>
      </trkpt>
      <trkpt lat="43.13221" lon="0.10779">
        <ele>465</ele>
        <time>2021-08-10T05:27:19.000Z</time>
      </trkpt>
      <trkpt lat="43.13218" lon="0.10784">
        <ele>465</ele>
        <time>2021-08-10T05:27:20.000Z</time>
      </trkpt>
      <trkpt lat="43.1321" lon="0.10794">
        <ele>465</ele>
        <time>2021-08-10T05:27:22.000Z</time>
      </trkpt>
      <trkpt lat="43.13205" lon="0.10798">
        <ele>465</ele>
        <time>2021-08-10T05:27:23.000Z</time>
      </trkpt>
      <trkpt lat="43.13197" lon="0.10803">
        <ele>465</ele>
        <time>2021-08-10T05:27:25.000Z</time>
      </trkpt>
      <trkpt lat="43.13191" lon="0.10806">
        <ele>465</ele>
        <time>2021-08-10T05:27:26.000Z</time>
      </trkpt>
      <trkpt lat="43.13187" lon="0.10809">
        <ele>465</ele>
        <time>2021-08-10T05:27:27.000Z</time>
      </trkpt>
      <trkpt lat="43.13182" lon="0.10813">
        <ele>465</ele>
        <time>2021-08-10T05:27:28.000Z</time>
      </trkpt>
      <trkpt lat="43.13178" lon="0.10817">
        <ele>465</ele>
        <time>2021-08-10T05:27:29.000Z</time>
      </trkpt>
      <trkpt lat="43.13174" lon="0.10821">
        <ele>465</ele>
        <time>2021-08-10T05:27:30.000Z</time>
      </trkpt>
      <trkpt lat="43.13166" lon="0.10829">
        <ele>465</ele>
        <time>2021-08-10T05:27:32.000Z</time>
      </trkpt>
      <trkpt lat="43.13162" lon="0.10834">
        <ele>465</ele>
        <time>2021-08-10T05:27:33.000Z</time>
      </trkpt>
      <trkpt lat="43.13158" lon="0.10838">
        <ele>465</ele>
        <time>2021-08-10T05:27:34.000Z</time>
      </trkpt>
      <trkpt lat="43.1315" lon="0.10845">
        <ele>465</ele>
        <time>2021-08-10T05:27:36.000Z</time>
      </trkpt>
      <trkpt lat="43.13141" lon="0.10847">
        <ele>466</ele>
        <time>2021-08-10T05:27:38.000Z</time>
      </trkpt>
      <trkpt lat="43.13133" lon="0.1085">
        <ele>466</ele>
        <time>2021-08-10T05:27:40.000Z</time>
      </trkpt>
      <trkpt lat="43.13128" lon="0.10852">
        <ele>466</ele>
        <time>2021-08-10T05:27:41.000Z</time>
      </trkpt>
      <trkpt lat="43.13123" lon="0.10853">
        <ele>466</ele>
        <time>2021-08-10T05:27:42.000Z</time>
      </trkpt>
      <trkpt lat="43.13119" lon="0.10855">
        <ele>466</ele>
        <time>2021-08-10T05:27:43.000Z</time>
      </trkpt>
      <trkpt lat="43.13114" lon="0.10857">
        <ele>466</ele>
        <time>2021-08-10T05:27:44.000Z</time>
      </trkpt>
      <trkpt lat="43.13109" lon="0.10859">
        <ele>466</ele>
        <time>2021-08-10T05:27:45.000Z</time>
      </trkpt>
      <trkpt lat="43.13099" lon="0.10862">
        <ele>466</ele>
        <time>2021-08-10T05:27:47.000Z</time>
      </trkpt>
      <trkpt lat="43.13095" lon="0.10864">
        <ele>466</ele>
        <time>2021-08-10T05:27:48.000Z</time>
      </trkpt>
      <trkpt lat="43.1309" lon="0.10865">
        <ele>466</ele>
        <time>2021-08-10T05:27:49.000Z</time>
      </trkpt>
      <trkpt lat="43.13085" lon="0.10867">
        <ele>467</ele>
        <time>2021-08-10T05:27:50.000Z</time>
      </trkpt>
      <trkpt lat="43.1308" lon="0.10868">
        <ele>467</ele>
        <time>2021-08-10T05:27:51.000Z</time>
      </trkpt>
      <trkpt lat="43.13075" lon="0.1087">
        <ele>467</ele>
        <time>2021-08-10T05:27:52.000Z</time>
      </trkpt>
      <trkpt lat="43.1307" lon="0.10871">
        <ele>467</ele>
        <time>2021-08-10T05:27:53.000Z</time>
      </trkpt>
      <trkpt lat="43.13059" lon="0.10874">
        <ele>467</ele>
        <time>2021-08-10T05:27:55.000Z</time>
      </trkpt>
      <trkpt lat="43.13049" lon="0.10871">
        <ele>467</ele>
        <time>2021-08-10T05:27:57.000Z</time>
      </trkpt>
      <trkpt lat="43.13044" lon="0.1087">
        <ele>467</ele>
        <time>2021-08-10T05:27:58.000Z</time>
      </trkpt>
      <trkpt lat="43.13039" lon="0.10868">
        <ele>467</ele>
        <time>2021-08-10T05:27:59.000Z</time>
      </trkpt>
      <trkpt lat="43.13034" lon="0.10865">
        <ele>467</ele>
        <time>2021-08-10T05:28:0.000Z</time>
      </trkpt>
      <trkpt lat="43.13029" lon="0.10862">
        <ele>467</ele>
        <time>2021-08-10T05:28:1.000Z</time>
      </trkpt>
      <trkpt lat="43.13024" lon="0.10859">
        <ele>467</ele>
        <time>2021-08-10T05:28:2.000Z</time>
      </trkpt>
      <trkpt lat="43.13019" lon="0.10856">
        <ele>467</ele>
        <time>2021-08-10T05:28:3.000Z</time>
      </trkpt>
      <trkpt lat="43.13014" lon="0.10853">
        <ele>467</ele>
        <time>2021-08-10T05:28:4.000Z</time>
      </trkpt>
      <trkpt lat="43.13009" lon="0.1085">
        <ele>467</ele>
        <time>2021-08-10T05:28:5.000Z</time>
      </trkpt>
      <trkpt lat="43.13005" lon="0.10849">
        <ele>467</ele>
        <time>2021-08-10T05:28:6.000Z</time>
      </trkpt>
      <trkpt lat="43.12999" lon="0.10848">
        <ele>467</ele>
        <time>2021-08-10T05:28:7.000Z</time>
      </trkpt>
      <trkpt lat="43.12993" lon="0.10853">
        <ele>467</ele>
        <time>2021-08-10T05:28:8.000Z</time>
      </trkpt>
      <trkpt lat="43.12989" lon="0.10855">
        <ele>467</ele>
        <time>2021-08-10T05:28:9.000Z</time>
      </trkpt>
      <trkpt lat="43.1298" lon="0.10862">
        <ele>467</ele>
        <time>2021-08-10T05:28:11.000Z</time>
      </trkpt>
      <trkpt lat="43.12975" lon="0.10867">
        <ele>467</ele>
        <time>2021-08-10T05:28:12.000Z</time>
      </trkpt>
      <trkpt lat="43.12971" lon="0.10871">
        <ele>467</ele>
        <time>2021-08-10T05:28:13.000Z</time>
      </trkpt>
      <trkpt lat="43.12966" lon="0.10875">
        <ele>467</ele>
        <time>2021-08-10T05:28:14.000Z</time>
      </trkpt>
      <trkpt lat="43.12962" lon="0.10878">
        <ele>467</ele>
        <time>2021-08-10T05:28:15.000Z</time>
      </trkpt>
      <trkpt lat="43.12953" lon="0.10886">
        <ele>468</ele>
        <time>2021-08-10T05:28:17.000Z</time>
      </trkpt>
      <trkpt lat="43.12948" lon="0.10889">
        <ele>468</ele>
        <time>2021-08-10T05:28:18.000Z</time>
      </trkpt>
      <trkpt lat="43.12941" lon="0.10895">
        <ele>468</ele>
        <time>2021-08-10T05:28:20.000Z</time>
      </trkpt>
      <trkpt lat="43.12936" lon="0.10898">
        <ele>468</ele>
        <time>2021-08-10T05:28:21.000Z</time>
      </trkpt>
      <trkpt lat="43.12932" lon="0.10901">
        <ele>468</ele>
        <time>2021-08-10T05:28:22.000Z</time>
      </trkpt>
      <trkpt lat="43.12928" lon="0.10904">
        <ele>468</ele>
        <time>2021-08-10T05:28:23.000Z</time>
      </trkpt>
      <trkpt lat="43.12924" lon="0.10908">
        <ele>469</ele>
        <time>2021-08-10T05:28:24.000Z</time>
      </trkpt>
      <trkpt lat="43.12919" lon="0.10913">
        <ele>469</ele>
        <time>2021-08-10T05:28:25.000Z</time>
      </trkpt>
      <trkpt lat="43.12914" lon="0.10917">
        <ele>469</ele>
        <time>2021-08-10T05:28:25.000Z</time>
      </trkpt>
      <trkpt lat="43.12911" lon="0.10921">
        <ele>469</ele>
        <time>2021-08-10T05:28:26.000Z</time>
      </trkpt>
      <trkpt lat="43.12906" lon="0.10925">
        <ele>469</ele>
        <time>2021-08-10T05:28:27.000Z</time>
      </trkpt>
      <trkpt lat="43.12898" lon="0.10933">
        <ele>469</ele>
        <time>2021-08-10T05:28:29.000Z</time>
      </trkpt>
      <trkpt lat="43.1289" lon="0.10942">
        <ele>470</ele>
        <time>2021-08-10T05:28:31.000Z</time>
      </trkpt>
      <trkpt lat="43.12885" lon="0.10946">
        <ele>470</ele>
        <time>2021-08-10T05:28:32.000Z</time>
      </trkpt>
      <trkpt lat="43.12881" lon="0.1095">
        <ele>470</ele>
        <time>2021-08-10T05:28:33.000Z</time>
      </trkpt>
      <trkpt lat="43.12876" lon="0.10955">
        <ele>470</ele>
        <time>2021-08-10T05:28:34.000Z</time>
      </trkpt>
      <trkpt lat="43.12868" lon="0.10962">
        <ele>470</ele>
        <time>2021-08-10T05:28:36.000Z</time>
      </trkpt>
      <trkpt lat="43.12864" lon="0.10965">
        <ele>470</ele>
        <time>2021-08-10T05:28:37.000Z</time>
      </trkpt>
      <trkpt lat="43.12859" lon="0.10969">
        <ele>470</ele>
        <time>2021-08-10T05:28:38.000Z</time>
      </trkpt>
      <trkpt lat="43.12854" lon="0.10973">
        <ele>470</ele>
        <time>2021-08-10T05:28:39.000Z</time>
      </trkpt>
      <trkpt lat="43.12849" lon="0.10977">
        <ele>470</ele>
        <time>2021-08-10T05:28:40.000Z</time>
      </trkpt>
      <trkpt lat="43.12845" lon="0.1098">
        <ele>471</ele>
        <time>2021-08-10T05:28:41.000Z</time>
      </trkpt>
      <trkpt lat="43.12836" lon="0.10988">
        <ele>471</ele>
        <time>2021-08-10T05:28:43.000Z</time>
      </trkpt>
      <trkpt lat="43.12832" lon="0.10991">
        <ele>471</ele>
        <time>2021-08-10T05:28:44.000Z</time>
      </trkpt>
      <trkpt lat="43.12824" lon="0.10997">
        <ele>471</ele>
        <time>2021-08-10T05:28:46.000Z</time>
      </trkpt>
      <trkpt lat="43.12821" lon="0.11">
        <ele>471</ele>
        <time>2021-08-10T05:28:47.000Z</time>
      </trkpt>
      <trkpt lat="43.12817" lon="0.11003">
        <ele>471</ele>
        <time>2021-08-10T05:28:48.000Z</time>
      </trkpt>
      <trkpt lat="43.12813" lon="0.11007">
        <ele>471</ele>
        <time>2021-08-10T05:28:49.000Z</time>
      </trkpt>
      <trkpt lat="43.12809" lon="0.1101">
        <ele>471</ele>
        <time>2021-08-10T05:28:50.000Z</time>
      </trkpt>
      <trkpt lat="43.12806" lon="0.11014">
        <ele>471</ele>
        <time>2021-08-10T05:28:51.000Z</time>
      </trkpt>
      <trkpt lat="43.12801" lon="0.11018">
        <ele>472</ele>
        <time>2021-08-10T05:28:52.000Z</time>
      </trkpt>
      <trkpt lat="43.12794" lon="0.11025">
        <ele>472</ele>
        <time>2021-08-10T05:28:54.000Z</time>
      </trkpt>
      <trkpt lat="43.12787" lon="0.11032">
        <ele>472</ele>
        <time>2021-08-10T05:28:56.000Z</time>
      </trkpt>
      <trkpt lat="43.1278" lon="0.11038">
        <ele>473</ele>
        <time>2021-08-10T05:28:58.000Z</time>
      </trkpt>
      <trkpt lat="43.12776" lon="0.11042">
        <ele>473</ele>
        <time>2021-08-10T05:28:59.000Z</time>
      </trkpt>
      <trkpt lat="43.12772" lon="0.11047">
        <ele>473</ele>
        <time>2021-08-10T05:29:0.000Z</time>
      </trkpt>
      <trkpt lat="43.12764" lon="0.11054">
        <ele>474</ele>
        <time>2021-08-10T05:29:2.000Z</time>
      </trkpt>
      <trkpt lat="43.12759" lon="0.11058">
        <ele>474</ele>
        <time>2021-08-10T05:29:3.000Z</time>
      </trkpt>
      <trkpt lat="43.12751" lon="0.11061">
        <ele>474</ele>
        <time>2021-08-10T05:29:5.000Z</time>
      </trkpt>
      <trkpt lat="43.12746" lon="0.11062">
        <ele>474</ele>
        <time>2021-08-10T05:29:6.000Z</time>
      </trkpt>
      <trkpt lat="43.12738" lon="0.11063">
        <ele>474</ele>
        <time>2021-08-10T05:29:8.000Z</time>
      </trkpt>
      <trkpt lat="43.12734" lon="0.11064">
        <ele>474</ele>
        <time>2021-08-10T05:29:9.000Z</time>
      </trkpt>
      <trkpt lat="43.12729" lon="0.11064">
        <ele>474</ele>
        <time>2021-08-10T05:29:10.000Z</time>
      </trkpt>
      <trkpt lat="43.12724" lon="0.11064">
        <ele>474</ele>
        <time>2021-08-10T05:29:11.000Z</time>
      </trkpt>
      <trkpt lat="43.1272" lon="0.11064">
        <ele>475</ele>
        <time>2021-08-10T05:29:12.000Z</time>
      </trkpt>
      <trkpt lat="43.12715" lon="0.11065">
        <ele>475</ele>
        <time>2021-08-10T05:29:13.000Z</time>
      </trkpt>
      <trkpt lat="43.12711" lon="0.11065">
        <ele>475</ele>
        <time>2021-08-10T05:29:14.000Z</time>
      </trkpt>
      <trkpt lat="43.12706" lon="0.11065">
        <ele>475</ele>
        <time>2021-08-10T05:29:15.000Z</time>
      </trkpt>
      <trkpt lat="43.12702" lon="0.11066">
        <ele>475</ele>
        <time>2021-08-10T05:29:16.000Z</time>
      </trkpt>
      <trkpt lat="43.12697" lon="0.11066">
        <ele>475</ele>
        <time>2021-08-10T05:29:17.000Z</time>
      </trkpt>
      <trkpt lat="43.12693" lon="0.11067">
        <ele>475</ele>
        <time>2021-08-10T05:29:18.000Z</time>
      </trkpt>
      <trkpt lat="43.12688" lon="0.11067">
        <ele>475</ele>
        <time>2021-08-10T05:29:19.000Z</time>
      </trkpt>
      <trkpt lat="43.12684" lon="0.11068">
        <ele>475</ele>
        <time>2021-08-10T05:29:20.000Z</time>
      </trkpt>
      <trkpt lat="43.12679" lon="0.11068">
        <ele>475</ele>
        <time>2021-08-10T05:29:21.000Z</time>
      </trkpt>
      <trkpt lat="43.12673" lon="0.11069">
        <ele>476</ele>
        <time>2021-08-10T05:29:22.000Z</time>
      </trkpt>
      <trkpt lat="43.12668" lon="0.1107">
        <ele>476</ele>
        <time>2021-08-10T05:29:23.000Z</time>
      </trkpt>
      <trkpt lat="43.12664" lon="0.1107">
        <ele>476</ele>
        <time>2021-08-10T05:29:24.000Z</time>
      </trkpt>
      <trkpt lat="43.12659" lon="0.11071">
        <ele>476</ele>
        <time>2021-08-10T05:29:25.000Z</time>
      </trkpt>
      <trkpt lat="43.12654" lon="0.11072">
        <ele>476</ele>
        <time>2021-08-10T05:29:26.000Z</time>
      </trkpt>
      <trkpt lat="43.12646" lon="0.11074">
        <ele>476</ele>
        <time>2021-08-10T05:29:28.000Z</time>
      </trkpt>
      <trkpt lat="43.12642" lon="0.11075">
        <ele>476</ele>
        <time>2021-08-10T05:29:29.000Z</time>
      </trkpt>
      <trkpt lat="43.12637" lon="0.11076">
        <ele>476</ele>
        <time>2021-08-10T05:29:30.000Z</time>
      </trkpt>
      <trkpt lat="43.12633" lon="0.11077">
        <ele>476</ele>
        <time>2021-08-10T05:29:31.000Z</time>
      </trkpt>
      <trkpt lat="43.12628" lon="0.11078">
        <ele>476</ele>
        <time>2021-08-10T05:29:32.000Z</time>
      </trkpt>
      <trkpt lat="43.12619" lon="0.11081">
        <ele>476</ele>
        <time>2021-08-10T05:29:34.000Z</time>
      </trkpt>
      <trkpt lat="43.12611" lon="0.11083">
        <ele>476</ele>
        <time>2021-08-10T05:29:36.000Z</time>
      </trkpt>
      <trkpt lat="43.12602" lon="0.11086">
        <ele>477</ele>
        <time>2021-08-10T05:29:38.000Z</time>
      </trkpt>
      <trkpt lat="43.12593" lon="0.11088">
        <ele>477</ele>
        <time>2021-08-10T05:29:40.000Z</time>
      </trkpt>
      <trkpt lat="43.12584" lon="0.1109">
        <ele>477</ele>
        <time>2021-08-10T05:29:42.000Z</time>
      </trkpt>
      <trkpt lat="43.12577" lon="0.11084">
        <ele>477</ele>
        <time>2021-08-10T05:29:44.000Z</time>
      </trkpt>
      <trkpt lat="43.12572" lon="0.11073">
        <ele>477</ele>
        <time>2021-08-10T05:29:46.000Z</time>
      </trkpt>
      <trkpt lat="43.12569" lon="0.11066">
        <ele>477</ele>
        <time>2021-08-10T05:29:47.000Z</time>
      </trkpt>
      <trkpt lat="43.12566" lon="0.11059">
        <ele>477</ele>
        <time>2021-08-10T05:29:48.000Z</time>
      </trkpt>
      <trkpt lat="43.12564" lon="0.11052">
        <ele>477</ele>
        <time>2021-08-10T05:29:49.000Z</time>
      </trkpt>
      <trkpt lat="43.12562" lon="0.11046">
        <ele>477</ele>
        <time>2021-08-10T05:29:50.000Z</time>
      </trkpt>
      <trkpt lat="43.12559" lon="0.11039">
        <ele>477</ele>
        <time>2021-08-10T05:29:51.000Z</time>
      </trkpt>
      <trkpt lat="43.12556" lon="0.1103">
        <ele>476</ele>
        <time>2021-08-10T05:29:52.000Z</time>
      </trkpt>
      <trkpt lat="43.12553" lon="0.11023">
        <ele>476</ele>
        <time>2021-08-10T05:29:53.000Z</time>
      </trkpt>
      <trkpt lat="43.12551" lon="0.11017">
        <ele>476</ele>
        <time>2021-08-10T05:29:54.000Z</time>
      </trkpt>
      <trkpt lat="43.12548" lon="0.1101">
        <ele>476</ele>
        <time>2021-08-10T05:29:55.000Z</time>
      </trkpt>
      <trkpt lat="43.12545" lon="0.11003">
        <ele>476</ele>
        <time>2021-08-10T05:29:56.000Z</time>
      </trkpt>
      <trkpt lat="43.12542" lon="0.10996">
        <ele>476</ele>
        <time>2021-08-10T05:29:57.000Z</time>
      </trkpt>
      <trkpt lat="43.12539" lon="0.10988">
        <ele>476</ele>
        <time>2021-08-10T05:29:58.000Z</time>
      </trkpt>
      <trkpt lat="43.12536" lon="0.10981">
        <ele>476</ele>
        <time>2021-08-10T05:29:59.000Z</time>
      </trkpt>
      <trkpt lat="43.12534" lon="0.10975">
        <ele>476</ele>
        <time>2021-08-10T05:30:0.000Z</time>
      </trkpt>
      <trkpt lat="43.12529" lon="0.10964">
        <ele>476</ele>
        <time>2021-08-10T05:30:2.000Z</time>
      </trkpt>
      <trkpt lat="43.12526" lon="0.10957">
        <ele>476</ele>
        <time>2021-08-10T05:30:3.000Z</time>
      </trkpt>
      <trkpt lat="43.12524" lon="0.10952">
        <ele>476</ele>
        <time>2021-08-10T05:30:4.000Z</time>
      </trkpt>
      <trkpt lat="43.12521" lon="0.10947">
        <ele>476</ele>
        <time>2021-08-10T05:30:5.000Z</time>
      </trkpt>
      <trkpt lat="43.12517" lon="0.10938">
        <ele>476</ele>
        <time>2021-08-10T05:30:7.000Z</time>
      </trkpt>
      <trkpt lat="43.12514" lon="0.10932">
        <ele>476</ele>
        <time>2021-08-10T05:30:8.000Z</time>
      </trkpt>
      <trkpt lat="43.12511" lon="0.10926">
        <ele>476</ele>
        <time>2021-08-10T05:30:9.000Z</time>
      </trkpt>
      <trkpt lat="43.12506" lon="0.10915">
        <ele>476</ele>
        <time>2021-08-10T05:30:11.000Z</time>
      </trkpt>
      <trkpt lat="43.12503" lon="0.10909">
        <ele>476</ele>
        <time>2021-08-10T05:30:12.000Z</time>
      </trkpt>
      <trkpt lat="43.125" lon="0.10903">
        <ele>476</ele>
        <time>2021-08-10T05:30:13.000Z</time>
      </trkpt>
      <trkpt lat="43.12495" lon="0.10893">
        <ele>476</ele>
        <time>2021-08-10T05:30:15.000Z</time>
      </trkpt>
      <trkpt lat="43.1249" lon="0.10882">
        <ele>476</ele>
        <time>2021-08-10T05:30:17.000Z</time>
      </trkpt>
      <trkpt lat="43.12487" lon="0.10875">
        <ele>476</ele>
        <time>2021-08-10T05:30:19.000Z</time>
      </trkpt>
      <trkpt lat="43.12484" lon="0.10869">
        <ele>476</ele>
        <time>2021-08-10T05:30:22.000Z</time>
      </trkpt>
      <trkpt lat="43.12479" lon="0.10865">
        <ele>477</ele>
        <time>2021-08-10T05:30:26.000Z</time>
      </trkpt>
      <trkpt lat="43.12474" lon="0.10867">
        <ele>477</ele>
        <time>2021-08-10T05:30:28.000Z</time>
      </trkpt>
      <trkpt lat="43.12468" lon="0.1087">
        <ele>477</ele>
        <time>2021-08-10T05:30:30.000Z</time>
      </trkpt>
      <trkpt lat="43.12461" lon="0.10874">
        <ele>477</ele>
        <time>2021-08-10T05:30:32.000Z</time>
      </trkpt>
      <trkpt lat="43.12454" lon="0.10877">
        <ele>477</ele>
        <time>2021-08-10T05:30:34.000Z</time>
      </trkpt>
      <trkpt lat="43.12449" lon="0.1088">
        <ele>477</ele>
        <time>2021-08-10T05:30:35.000Z</time>
      </trkpt>
      <trkpt lat="43.12441" lon="0.10884">
        <ele>477</ele>
        <time>2021-08-10T05:30:37.000Z</time>
      </trkpt>
      <trkpt lat="43.12437" lon="0.10886">
        <ele>477</ele>
        <time>2021-08-10T05:30:38.000Z</time>
      </trkpt>
      <trkpt lat="43.12433" lon="0.10888">
        <ele>477</ele>
        <time>2021-08-10T05:30:39.000Z</time>
      </trkpt>
      <trkpt lat="43.12429" lon="0.10891">
        <ele>477</ele>
        <time>2021-08-10T05:30:40.000Z</time>
      </trkpt>
      <trkpt lat="43.12424" lon="0.10893">
        <ele>477</ele>
        <time>2021-08-10T05:30:41.000Z</time>
      </trkpt>
      <trkpt lat="43.1242" lon="0.10895">
        <ele>477</ele>
        <time>2021-08-10T05:30:42.000Z</time>
      </trkpt>
      <trkpt lat="43.12415" lon="0.10897">
        <ele>477</ele>
        <time>2021-08-10T05:30:43.000Z</time>
      </trkpt>
      <trkpt lat="43.12411" lon="0.109">
        <ele>478</ele>
        <time>2021-08-10T05:30:44.000Z</time>
      </trkpt>
      <trkpt lat="43.12401" lon="0.10904">
        <ele>478</ele>
        <time>2021-08-10T05:30:46.000Z</time>
      </trkpt>
      <trkpt lat="43.12392" lon="0.10908">
        <ele>478</ele>
        <time>2021-08-10T05:30:48.000Z</time>
      </trkpt>
      <trkpt lat="43.12382" lon="0.10912">
        <ele>478</ele>
        <time>2021-08-10T05:30:50.000Z</time>
      </trkpt>
      <trkpt lat="43.12377" lon="0.10914">
        <ele>478</ele>
        <time>2021-08-10T05:30:51.000Z</time>
      </trkpt>
      <trkpt lat="43.12372" lon="0.10916">
        <ele>478</ele>
        <time>2021-08-10T05:30:52.000Z</time>
      </trkpt>
      <trkpt lat="43.12367" lon="0.10917">
        <ele>478</ele>
        <time>2021-08-10T05:30:53.000Z</time>
      </trkpt>
      <trkpt lat="43.12357" lon="0.10914">
        <ele>478</ele>
        <time>2021-08-10T05:30:55.000Z</time>
      </trkpt>
      <trkpt lat="43.12352" lon="0.10913">
        <ele>478</ele>
        <time>2021-08-10T05:30:56.000Z</time>
      </trkpt>
      <trkpt lat="43.12347" lon="0.10913">
        <ele>478</ele>
        <time>2021-08-10T05:30:57.000Z</time>
      </trkpt>
      <trkpt lat="43.12342" lon="0.10912">
        <ele>478</ele>
        <time>2021-08-10T05:30:58.000Z</time>
      </trkpt>
      <trkpt lat="43.12333" lon="0.1091">
        <ele>478</ele>
        <time>2021-08-10T05:31:0.000Z</time>
      </trkpt>
      <trkpt lat="43.12327" lon="0.10909">
        <ele>478</ele>
        <time>2021-08-10T05:31:1.000Z</time>
      </trkpt>
      <trkpt lat="43.12323" lon="0.10908">
        <ele>478</ele>
        <time>2021-08-10T05:31:2.000Z</time>
      </trkpt>
      <trkpt lat="43.12318" lon="0.10906">
        <ele>478</ele>
        <time>2021-08-10T05:31:3.000Z</time>
      </trkpt>
      <trkpt lat="43.12314" lon="0.10905">
        <ele>478</ele>
        <time>2021-08-10T05:31:4.000Z</time>
      </trkpt>
      <trkpt lat="43.12309" lon="0.10903">
        <ele>478</ele>
        <time>2021-08-10T05:31:5.000Z</time>
      </trkpt>
      <trkpt lat="43.12305" lon="0.109">
        <ele>478</ele>
        <time>2021-08-10T05:31:6.000Z</time>
      </trkpt>
      <trkpt lat="43.12297" lon="0.10896">
        <ele>478</ele>
        <time>2021-08-10T05:31:8.000Z</time>
      </trkpt>
      <trkpt lat="43.12293" lon="0.10887">
        <ele>478</ele>
        <time>2021-08-10T05:31:9.000Z</time>
      </trkpt>
      <trkpt lat="43.12289" lon="0.10881">
        <ele>478</ele>
        <time>2021-08-10T05:31:10.000Z</time>
      </trkpt>
      <trkpt lat="43.12281" lon="0.10873">
        <ele>478</ele>
        <time>2021-08-10T05:31:12.000Z</time>
      </trkpt>
      <trkpt lat="43.12277" lon="0.10868">
        <ele>478</ele>
        <time>2021-08-10T05:31:13.000Z</time>
      </trkpt>
      <trkpt lat="43.12272" lon="0.10863">
        <ele>478</ele>
        <time>2021-08-10T05:31:14.000Z</time>
      </trkpt>
      <trkpt lat="43.12267" lon="0.10859">
        <ele>478</ele>
        <time>2021-08-10T05:31:15.000Z</time>
      </trkpt>
      <trkpt lat="43.12263" lon="0.10856">
        <ele>478</ele>
        <time>2021-08-10T05:31:16.000Z</time>
      </trkpt>
      <trkpt lat="43.12256" lon="0.10849">
        <ele>478</ele>
        <time>2021-08-10T05:31:18.000Z</time>
      </trkpt>
      <trkpt lat="43.1225" lon="0.10845">
        <ele>478</ele>
        <time>2021-08-10T05:31:19.000Z</time>
      </trkpt>
      <trkpt lat="43.12242" lon="0.10838">
        <ele>479</ele>
        <time>2021-08-10T05:31:21.000Z</time>
      </trkpt>
      <trkpt lat="43.12238" lon="0.10834">
        <ele>479</ele>
        <time>2021-08-10T05:31:22.000Z</time>
      </trkpt>
      <trkpt lat="43.12233" lon="0.10831">
        <ele>479</ele>
        <time>2021-08-10T05:31:23.000Z</time>
      </trkpt>
      <trkpt lat="43.12224" lon="0.10824">
        <ele>479</ele>
        <time>2021-08-10T05:31:25.000Z</time>
      </trkpt>
      <trkpt lat="43.1222" lon="0.10821">
        <ele>480</ele>
        <time>2021-08-10T05:31:26.000Z</time>
      </trkpt>
      <trkpt lat="43.12215" lon="0.10818">
        <ele>480</ele>
        <time>2021-08-10T05:31:27.000Z</time>
      </trkpt>
      <trkpt lat="43.12211" lon="0.10815">
        <ele>480</ele>
        <time>2021-08-10T05:31:28.000Z</time>
      </trkpt>
      <trkpt lat="43.12206" lon="0.10813">
        <ele>480</ele>
        <time>2021-08-10T05:31:29.000Z</time>
      </trkpt>
      <trkpt lat="43.12201" lon="0.10816">
        <ele>480</ele>
        <time>2021-08-10T05:31:30.000Z</time>
      </trkpt>
      <trkpt lat="43.12197" lon="0.10816">
        <ele>480</ele>
        <time>2021-08-10T05:31:31.000Z</time>
      </trkpt>
      <trkpt lat="43.12191" lon="0.10815">
        <ele>480</ele>
        <time>2021-08-10T05:31:32.000Z</time>
      </trkpt>
      <trkpt lat="43.12181" lon="0.10814">
        <ele>480</ele>
        <time>2021-08-10T05:31:34.000Z</time>
      </trkpt>
      <trkpt lat="43.1217" lon="0.10814">
        <ele>480</ele>
        <time>2021-08-10T05:31:36.000Z</time>
      </trkpt>
      <trkpt lat="43.12166" lon="0.10813">
        <ele>480</ele>
        <time>2021-08-10T05:31:37.000Z</time>
      </trkpt>
      <trkpt lat="43.1216" lon="0.10813">
        <ele>480</ele>
        <time>2021-08-10T05:31:38.000Z</time>
      </trkpt>
      <trkpt lat="43.12155" lon="0.10813">
        <ele>480</ele>
        <time>2021-08-10T05:31:39.000Z</time>
      </trkpt>
      <trkpt lat="43.12145" lon="0.10812">
        <ele>480</ele>
        <time>2021-08-10T05:31:41.000Z</time>
      </trkpt>
      <trkpt lat="43.12139" lon="0.10812">
        <ele>480</ele>
        <time>2021-08-10T05:31:42.000Z</time>
      </trkpt>
      <trkpt lat="43.12131" lon="0.10812">
        <ele>480</ele>
        <time>2021-08-10T05:31:44.000Z</time>
      </trkpt>
      <trkpt lat="43.12124" lon="0.10811">
        <ele>480</ele>
        <time>2021-08-10T05:31:45.000Z</time>
      </trkpt>
      <trkpt lat="43.12118" lon="0.10811">
        <ele>481</ele>
        <time>2021-08-10T05:31:46.000Z</time>
      </trkpt>
      <trkpt lat="43.12113" lon="0.10811">
        <ele>481</ele>
        <time>2021-08-10T05:31:47.000Z</time>
      </trkpt>
      <trkpt lat="43.12103" lon="0.1081">
        <ele>481</ele>
        <time>2021-08-10T05:31:49.000Z</time>
      </trkpt>
      <trkpt lat="43.12098" lon="0.1081">
        <ele>481</ele>
        <time>2021-08-10T05:31:50.000Z</time>
      </trkpt>
      <trkpt lat="43.12088" lon="0.10809">
        <ele>481</ele>
        <time>2021-08-10T05:31:52.000Z</time>
      </trkpt>
      <trkpt lat="43.12083" lon="0.10808">
        <ele>481</ele>
        <time>2021-08-10T05:31:53.000Z</time>
      </trkpt>
      <trkpt lat="43.12073" lon="0.10807">
        <ele>482</ele>
        <time>2021-08-10T05:31:55.000Z</time>
      </trkpt>
      <trkpt lat="43.12069" lon="0.10806">
        <ele>482</ele>
        <time>2021-08-10T05:31:56.000Z</time>
      </trkpt>
      <trkpt lat="43.12063" lon="0.10804">
        <ele>482</ele>
        <time>2021-08-10T05:31:57.000Z</time>
      </trkpt>
      <trkpt lat="43.12055" lon="0.10793">
        <ele>482</ele>
        <time>2021-08-10T05:31:59.000Z</time>
      </trkpt>
      <trkpt lat="43.1205" lon="0.10789">
        <ele>482</ele>
        <time>2021-08-10T05:32:0.000Z</time>
      </trkpt>
      <trkpt lat="43.12045" lon="0.10785">
        <ele>482</ele>
        <time>2021-08-10T05:32:1.000Z</time>
      </trkpt>
      <trkpt lat="43.12038" lon="0.10779">
        <ele>482</ele>
        <time>2021-08-10T05:32:3.000Z</time>
      </trkpt>
      <trkpt lat="43.12033" lon="0.10775">
        <ele>482</ele>
        <time>2021-08-10T05:32:4.000Z</time>
      </trkpt>
      <trkpt lat="43.12029" lon="0.10771">
        <ele>482</ele>
        <time>2021-08-10T05:32:5.000Z</time>
      </trkpt>
      <trkpt lat="43.12024" lon="0.10768">
        <ele>482</ele>
        <time>2021-08-10T05:32:6.000Z</time>
      </trkpt>
      <trkpt lat="43.12021" lon="0.10764">
        <ele>482</ele>
        <time>2021-08-10T05:32:7.000Z</time>
      </trkpt>
      <trkpt lat="43.12016" lon="0.1076">
        <ele>482</ele>
        <time>2021-08-10T05:32:8.000Z</time>
      </trkpt>
      <trkpt lat="43.12011" lon="0.10756">
        <ele>482</ele>
        <time>2021-08-10T05:32:9.000Z</time>
      </trkpt>
      <trkpt lat="43.12003" lon="0.1075">
        <ele>483</ele>
        <time>2021-08-10T05:32:11.000Z</time>
      </trkpt>
      <trkpt lat="43.11998" lon="0.10747">
        <ele>483</ele>
        <time>2021-08-10T05:32:12.000Z</time>
      </trkpt>
      <trkpt lat="43.11989" lon="0.10741">
        <ele>483</ele>
        <time>2021-08-10T05:32:14.000Z</time>
      </trkpt>
      <trkpt lat="43.11981" lon="0.10736">
        <ele>483</ele>
        <time>2021-08-10T05:32:16.000Z</time>
      </trkpt>
      <trkpt lat="43.11977" lon="0.10733">
        <ele>484</ele>
        <time>2021-08-10T05:32:17.000Z</time>
      </trkpt>
      <trkpt lat="43.11972" lon="0.1073">
        <ele>484</ele>
        <time>2021-08-10T05:32:18.000Z</time>
      </trkpt>
      <trkpt lat="43.11968" lon="0.10726">
        <ele>484</ele>
        <time>2021-08-10T05:32:19.000Z</time>
      </trkpt>
      <trkpt lat="43.11961" lon="0.1072">
        <ele>484</ele>
        <time>2021-08-10T05:32:21.000Z</time>
      </trkpt>
      <trkpt lat="43.11955" lon="0.10715">
        <ele>485</ele>
        <time>2021-08-10T05:32:23.000Z</time>
      </trkpt>
      <trkpt lat="43.1195" lon="0.1071">
        <ele>485</ele>
        <time>2021-08-10T05:32:24.000Z</time>
      </trkpt>
      <trkpt lat="43.11947" lon="0.107">
        <ele>485</ele>
        <time>2021-08-10T05:32:25.000Z</time>
      </trkpt>
      <trkpt lat="43.11944" lon="0.10695">
        <ele>485</ele>
        <time>2021-08-10T05:32:26.000Z</time>
      </trkpt>
      <trkpt lat="43.11939" lon="0.10685">
        <ele>486</ele>
        <time>2021-08-10T05:32:28.000Z</time>
      </trkpt>
      <trkpt lat="43.11935" lon="0.1068">
        <ele>486</ele>
        <time>2021-08-10T05:32:29.000Z</time>
      </trkpt>
      <trkpt lat="43.11933" lon="0.10674">
        <ele>486</ele>
        <time>2021-08-10T05:32:30.000Z</time>
      </trkpt>
      <trkpt lat="43.11928" lon="0.10664">
        <ele>486</ele>
        <time>2021-08-10T05:32:32.000Z</time>
      </trkpt>
      <trkpt lat="43.11923" lon="0.10654">
        <ele>487</ele>
        <time>2021-08-10T05:32:34.000Z</time>
      </trkpt>
      <trkpt lat="43.11918" lon="0.10646">
        <ele>487</ele>
        <time>2021-08-10T05:32:36.000Z</time>
      </trkpt>
      <trkpt lat="43.11915" lon="0.1064">
        <ele>488</ele>
        <time>2021-08-10T05:32:37.000Z</time>
      </trkpt>
      <trkpt lat="43.1191" lon="0.10632">
        <ele>488</ele>
        <time>2021-08-10T05:32:39.000Z</time>
      </trkpt>
      <trkpt lat="43.11905" lon="0.10626">
        <ele>489</ele>
        <time>2021-08-10T05:32:40.000Z</time>
      </trkpt>
      <trkpt lat="43.11898" lon="0.10621">
        <ele>489</ele>
        <time>2021-08-10T05:32:42.000Z</time>
      </trkpt>
      <trkpt lat="43.11894" lon="0.10618">
        <ele>490</ele>
        <time>2021-08-10T05:32:43.000Z</time>
      </trkpt>
      <trkpt lat="43.11888" lon="0.10613">
        <ele>490</ele>
        <time>2021-08-10T05:32:45.000Z</time>
      </trkpt>
      <trkpt lat="43.11882" lon="0.10606">
        <ele>490</ele>
        <time>2021-08-10T05:32:47.000Z</time>
      </trkpt>
      <trkpt lat="43.11877" lon="0.10599">
        <ele>490</ele>
        <time>2021-08-10T05:32:49.000Z</time>
      </trkpt>
      <trkpt lat="43.11871" lon="0.10594">
        <ele>491</ele>
        <time>2021-08-10T05:32:51.000Z</time>
      </trkpt>
      <trkpt lat="43.11865" lon="0.10587">
        <ele>491</ele>
        <time>2021-08-10T05:32:53.000Z</time>
      </trkpt>
      <trkpt lat="43.11859" lon="0.1058">
        <ele>492</ele>
        <time>2021-08-10T05:32:55.000Z</time>
      </trkpt>
      <trkpt lat="43.11853" lon="0.10574">
        <ele>492</ele>
        <time>2021-08-10T05:32:57.000Z</time>
      </trkpt>
      <trkpt lat="43.11847" lon="0.10567">
        <ele>493</ele>
        <time>2021-08-10T05:32:59.000Z</time>
      </trkpt>
      <trkpt lat="43.11841" lon="0.10562">
        <ele>493</ele>
        <time>2021-08-10T05:33:1.000Z</time>
      </trkpt>
      <trkpt lat="43.11837" lon="0.10562">
        <ele>493</ele>
        <time>2021-08-10T05:33:2.000Z</time>
      </trkpt>
      <trkpt lat="43.11829" lon="0.10559">
        <ele>494</ele>
        <time>2021-08-10T05:33:4.000Z</time>
      </trkpt>
      <trkpt lat="43.11823" lon="0.10557">
        <ele>494</ele>
        <time>2021-08-10T05:33:6.000Z</time>
      </trkpt>
      <trkpt lat="43.11818" lon="0.10555">
        <ele>495</ele>
        <time>2021-08-10T05:33:7.000Z</time>
      </trkpt>
      <trkpt lat="43.11811" lon="0.10551">
        <ele>495</ele>
        <time>2021-08-10T05:33:9.000Z</time>
      </trkpt>
      <trkpt lat="43.11805" lon="0.10547">
        <ele>495</ele>
        <time>2021-08-10T05:33:11.000Z</time>
      </trkpt>
      <trkpt lat="43.11799" lon="0.10539">
        <ele>496</ele>
        <time>2021-08-10T05:33:13.000Z</time>
      </trkpt>
      <trkpt lat="43.11793" lon="0.10532">
        <ele>496</ele>
        <time>2021-08-10T05:33:15.000Z</time>
      </trkpt>
      <trkpt lat="43.1179" lon="0.10528">
        <ele>496</ele>
        <time>2021-08-10T05:33:16.000Z</time>
      </trkpt>
      <trkpt lat="43.11785" lon="0.1052">
        <ele>496</ele>
        <time>2021-08-10T05:33:18.000Z</time>
      </trkpt>
      <trkpt lat="43.1178" lon="0.10513">
        <ele>496</ele>
        <time>2021-08-10T05:33:20.000Z</time>
      </trkpt>
      <trkpt lat="43.11777" lon="0.10507">
        <ele>496</ele>
        <time>2021-08-10T05:33:21.000Z</time>
      </trkpt>
      <trkpt lat="43.11773" lon="0.10499">
        <ele>496</ele>
        <time>2021-08-10T05:33:23.000Z</time>
      </trkpt>
      <trkpt lat="43.11769" lon="0.10492">
        <ele>496</ele>
        <time>2021-08-10T05:33:25.000Z</time>
      </trkpt>
      <trkpt lat="43.11765" lon="0.10486">
        <ele>496</ele>
        <time>2021-08-10T05:33:27.000Z</time>
      </trkpt>
      <trkpt lat="43.11761" lon="0.10478">
        <ele>496</ele>
        <time>2021-08-10T05:33:29.000Z</time>
      </trkpt>
      <trkpt lat="43.11757" lon="0.10471">
        <ele>497</ele>
        <time>2021-08-10T05:33:31.000Z</time>
      </trkpt>
      <trkpt lat="43.11754" lon="0.10464">
        <ele>497</ele>
        <time>2021-08-10T05:33:33.000Z</time>
      </trkpt>
      <trkpt lat="43.11751" lon="0.10458">
        <ele>497</ele>
        <time>2021-08-10T05:33:34.000Z</time>
      </trkpt>
      <trkpt lat="43.11746" lon="0.10449">
        <ele>497</ele>
        <time>2021-08-10T05:33:36.000Z</time>
      </trkpt>
      <trkpt lat="43.11741" lon="0.10439">
        <ele>497</ele>
        <time>2021-08-10T05:33:38.000Z</time>
      </trkpt>
      <trkpt lat="43.11739" lon="0.10433">
        <ele>497</ele>
        <time>2021-08-10T05:33:39.000Z</time>
      </trkpt>
      <trkpt lat="43.11737" lon="0.10427">
        <ele>497</ele>
        <time>2021-08-10T05:33:40.000Z</time>
      </trkpt>
      <trkpt lat="43.11734" lon="0.10422">
        <ele>497</ele>
        <time>2021-08-10T05:33:41.000Z</time>
      </trkpt>
      <trkpt lat="43.11732" lon="0.10417">
        <ele>497</ele>
        <time>2021-08-10T05:33:42.000Z</time>
      </trkpt>
      <trkpt lat="43.1173" lon="0.10412">
        <ele>497</ele>
        <time>2021-08-10T05:33:43.000Z</time>
      </trkpt>
      <trkpt lat="43.11725" lon="0.10401">
        <ele>497</ele>
        <time>2021-08-10T05:33:45.000Z</time>
      </trkpt>
      <trkpt lat="43.11722" lon="0.10396">
        <ele>497</ele>
        <time>2021-08-10T05:33:46.000Z</time>
      </trkpt>
      <trkpt lat="43.1172" lon="0.1039">
        <ele>497</ele>
        <time>2021-08-10T05:33:47.000Z</time>
      </trkpt>
      <trkpt lat="43.11717" lon="0.10385">
        <ele>497</ele>
        <time>2021-08-10T05:33:48.000Z</time>
      </trkpt>
      <trkpt lat="43.11712" lon="0.10373">
        <ele>497</ele>
        <time>2021-08-10T05:33:50.000Z</time>
      </trkpt>
      <trkpt lat="43.11709" lon="0.10365">
        <ele>496</ele>
        <time>2021-08-10T05:33:51.000Z</time>
      </trkpt>
      <trkpt lat="43.11707" lon="0.10359">
        <ele>496</ele>
        <time>2021-08-10T05:33:52.000Z</time>
      </trkpt>
      <trkpt lat="43.11705" lon="0.10352">
        <ele>496</ele>
        <time>2021-08-10T05:33:53.000Z</time>
      </trkpt>
      <trkpt lat="43.11702" lon="0.10343">
        <ele>496</ele>
        <time>2021-08-10T05:33:54.000Z</time>
      </trkpt>
      <trkpt lat="43.11699" lon="0.10335">
        <ele>495</ele>
        <time>2021-08-10T05:33:55.000Z</time>
      </trkpt>
      <trkpt lat="43.11696" lon="0.10327">
        <ele>495</ele>
        <time>2021-08-10T05:33:56.000Z</time>
      </trkpt>
      <trkpt lat="43.11694" lon="0.1032">
        <ele>495</ele>
        <time>2021-08-10T05:33:57.000Z</time>
      </trkpt>
      <trkpt lat="43.11691" lon="0.10312">
        <ele>495</ele>
        <time>2021-08-10T05:33:58.000Z</time>
      </trkpt>
      <trkpt lat="43.11689" lon="0.10306">
        <ele>494</ele>
        <time>2021-08-10T05:33:59.000Z</time>
      </trkpt>
      <trkpt lat="43.11687" lon="0.103">
        <ele>494</ele>
        <time>2021-08-10T05:34:0.000Z</time>
      </trkpt>
      <trkpt lat="43.1168" lon="0.10294">
        <ele>494</ele>
        <time>2021-08-10T05:34:2.000Z</time>
      </trkpt>
      <trkpt lat="43.11675" lon="0.10293">
        <ele>494</ele>
        <time>2021-08-10T05:34:3.000Z</time>
      </trkpt>
      <trkpt lat="43.1167" lon="0.10293">
        <ele>494</ele>
        <time>2021-08-10T05:34:4.000Z</time>
      </trkpt>
      <trkpt lat="43.11664" lon="0.10294">
        <ele>494</ele>
        <time>2021-08-10T05:34:5.000Z</time>
      </trkpt>
      <trkpt lat="43.11659" lon="0.10295">
        <ele>494</ele>
        <time>2021-08-10T05:34:6.000Z</time>
      </trkpt>
      <trkpt lat="43.11654" lon="0.10296">
        <ele>494</ele>
        <time>2021-08-10T05:34:7.000Z</time>
      </trkpt>
      <trkpt lat="43.11649" lon="0.10296">
        <ele>494</ele>
        <time>2021-08-10T05:34:8.000Z</time>
      </trkpt>
      <trkpt lat="43.11644" lon="0.10297">
        <ele>494</ele>
        <time>2021-08-10T05:34:9.000Z</time>
      </trkpt>
      <trkpt lat="43.11639" lon="0.10297">
        <ele>494</ele>
        <time>2021-08-10T05:34:10.000Z</time>
      </trkpt>
      <trkpt lat="43.1163" lon="0.10296">
        <ele>494</ele>
        <time>2021-08-10T05:34:12.000Z</time>
      </trkpt>
      <trkpt lat="43.11624" lon="0.10295">
        <ele>494</ele>
        <time>2021-08-10T05:34:13.000Z</time>
      </trkpt>
      <trkpt lat="43.11614" lon="0.1029">
        <ele>494</ele>
        <time>2021-08-10T05:34:15.000Z</time>
      </trkpt>
      <trkpt lat="43.11609" lon="0.10288">
        <ele>494</ele>
        <time>2021-08-10T05:34:16.000Z</time>
      </trkpt>
      <trkpt lat="43.11599" lon="0.10283">
        <ele>494</ele>
        <time>2021-08-10T05:34:18.000Z</time>
      </trkpt>
      <trkpt lat="43.11594" lon="0.1028">
        <ele>494</ele>
        <time>2021-08-10T05:34:19.000Z</time>
      </trkpt>
      <trkpt lat="43.11589" lon="0.10278">
        <ele>494</ele>
        <time>2021-08-10T05:34:20.000Z</time>
      </trkpt>
      <trkpt lat="43.11584" lon="0.10275">
        <ele>494</ele>
        <time>2021-08-10T05:34:21.000Z</time>
      </trkpt>
      <trkpt lat="43.1158" lon="0.10272">
        <ele>494</ele>
        <time>2021-08-10T05:34:22.000Z</time>
      </trkpt>
      <trkpt lat="43.11573" lon="0.10268">
        <ele>494</ele>
        <time>2021-08-10T05:34:23.000Z</time>
      </trkpt>
      <trkpt lat="43.11568" lon="0.10265">
        <ele>494</ele>
        <time>2021-08-10T05:34:24.000Z</time>
      </trkpt>
      <trkpt lat="43.11562" lon="0.10262">
        <ele>493</ele>
        <time>2021-08-10T05:34:25.000Z</time>
      </trkpt>
      <trkpt lat="43.11556" lon="0.10258">
        <ele>493</ele>
        <time>2021-08-10T05:34:26.000Z</time>
      </trkpt>
      <trkpt lat="43.11549" lon="0.10255">
        <ele>493</ele>
        <time>2021-08-10T05:34:27.000Z</time>
      </trkpt>
      <trkpt lat="43.11544" lon="0.10253">
        <ele>493</ele>
        <time>2021-08-10T05:34:28.000Z</time>
      </trkpt>
      <trkpt lat="43.11538" lon="0.1025">
        <ele>492</ele>
        <time>2021-08-10T05:34:29.000Z</time>
      </trkpt>
      <trkpt lat="43.11533" lon="0.10248">
        <ele>492</ele>
        <time>2021-08-10T05:34:30.000Z</time>
      </trkpt>
      <trkpt lat="43.11527" lon="0.10245">
        <ele>492</ele>
        <time>2021-08-10T05:34:31.000Z</time>
      </trkpt>
      <trkpt lat="43.11522" lon="0.10243">
        <ele>492</ele>
        <time>2021-08-10T05:34:32.000Z</time>
      </trkpt>
      <trkpt lat="43.11517" lon="0.1024">
        <ele>492</ele>
        <time>2021-08-10T05:34:33.000Z</time>
      </trkpt>
      <trkpt lat="43.11511" lon="0.10238">
        <ele>491</ele>
        <time>2021-08-10T05:34:34.000Z</time>
      </trkpt>
      <trkpt lat="43.11504" lon="0.10235">
        <ele>491</ele>
        <time>2021-08-10T05:34:35.000Z</time>
      </trkpt>
      <trkpt lat="43.11499" lon="0.10233">
        <ele>491</ele>
        <time>2021-08-10T05:34:36.000Z</time>
      </trkpt>
      <trkpt lat="43.11494" lon="0.10231">
        <ele>491</ele>
        <time>2021-08-10T05:34:37.000Z</time>
      </trkpt>
      <trkpt lat="43.11488" lon="0.1023">
        <ele>491</ele>
        <time>2021-08-10T05:34:38.000Z</time>
      </trkpt>
      <trkpt lat="43.11482" lon="0.10227">
        <ele>491</ele>
        <time>2021-08-10T05:34:39.000Z</time>
      </trkpt>
      <trkpt lat="43.11476" lon="0.10226">
        <ele>491</ele>
        <time>2021-08-10T05:34:40.000Z</time>
      </trkpt>
      <trkpt lat="43.1147" lon="0.10225">
        <ele>491</ele>
        <time>2021-08-10T05:34:41.000Z</time>
      </trkpt>
      <trkpt lat="43.11464" lon="0.10224">
        <ele>491</ele>
        <time>2021-08-10T05:34:42.000Z</time>
      </trkpt>
      <trkpt lat="43.11459" lon="0.10224">
        <ele>491</ele>
        <time>2021-08-10T05:34:43.000Z</time>
      </trkpt>
      <trkpt lat="43.11454" lon="0.10223">
        <ele>491</ele>
        <time>2021-08-10T05:34:44.000Z</time>
      </trkpt>
      <trkpt lat="43.11445" lon="0.10222">
        <ele>491</ele>
        <time>2021-08-10T05:34:46.000Z</time>
      </trkpt>
      <trkpt lat="43.11438" lon="0.10222">
        <ele>491</ele>
        <time>2021-08-10T05:34:47.000Z</time>
      </trkpt>
      <trkpt lat="43.11434" lon="0.10222">
        <ele>491</ele>
        <time>2021-08-10T05:34:48.000Z</time>
      </trkpt>
      <trkpt lat="43.11429" lon="0.10222">
        <ele>491</ele>
        <time>2021-08-10T05:34:49.000Z</time>
      </trkpt>
      <trkpt lat="43.1142" lon="0.10222">
        <ele>491</ele>
        <time>2021-08-10T05:34:51.000Z</time>
      </trkpt>
      <trkpt lat="43.11413" lon="0.10222">
        <ele>492</ele>
        <time>2021-08-10T05:34:53.000Z</time>
      </trkpt>
      <trkpt lat="43.11408" lon="0.10223">
        <ele>492</ele>
        <time>2021-08-10T05:34:54.000Z</time>
      </trkpt>
      <trkpt lat="43.11401" lon="0.10224">
        <ele>493</ele>
        <time>2021-08-10T05:34:56.000Z</time>
      </trkpt>
      <trkpt lat="43.11395" lon="0.10225">
        <ele>493</ele>
        <time>2021-08-10T05:34:58.000Z</time>
      </trkpt>
      <trkpt lat="43.11388" lon="0.10225">
        <ele>494</ele>
        <time>2021-08-10T05:35:0.000Z</time>
      </trkpt>
      <trkpt lat="43.11382" lon="0.10227">
        <ele>494</ele>
        <time>2021-08-10T05:35:2.000Z</time>
      </trkpt>
      <trkpt lat="43.11377" lon="0.10228">
        <ele>495</ele>
        <time>2021-08-10T05:35:4.000Z</time>
      </trkpt>
      <trkpt lat="43.1137" lon="0.1023">
        <ele>495</ele>
        <time>2021-08-10T05:35:6.000Z</time>
      </trkpt>
      <trkpt lat="43.11365" lon="0.10232">
        <ele>496</ele>
        <time>2021-08-10T05:35:8.000Z</time>
      </trkpt>
      <trkpt lat="43.11359" lon="0.10234">
        <ele>498</ele>
        <time>2021-08-10T05:35:10.000Z</time>
      </trkpt>
      <trkpt lat="43.11353" lon="0.10235">
        <ele>498</ele>
        <time>2021-08-10T05:35:12.000Z</time>
      </trkpt>
      <trkpt lat="43.11346" lon="0.10237">
        <ele>499</ele>
        <time>2021-08-10T05:35:14.000Z</time>
      </trkpt>
      <trkpt lat="43.1134" lon="0.10239">
        <ele>500</ele>
        <time>2021-08-10T05:35:16.000Z</time>
      </trkpt>
      <trkpt lat="43.11334" lon="0.10241">
        <ele>500</ele>
        <time>2021-08-10T05:35:18.000Z</time>
      </trkpt>
      <trkpt lat="43.11328" lon="0.10265">
        <ele>501</ele>
        <time>2021-08-10T05:35:20.000Z</time>
      </trkpt>
      <trkpt lat="43.11322" lon="0.10262">
        <ele>502</ele>
        <time>2021-08-10T05:35:22.000Z</time>
      </trkpt>
      <trkpt lat="43.11316" lon="0.10258">
        <ele>502</ele>
        <time>2021-08-10T05:35:24.000Z</time>
      </trkpt>
      <trkpt lat="43.11313" lon="0.10253">
        <ele>503</ele>
        <time>2021-08-10T05:35:26.000Z</time>
      </trkpt>
      <trkpt lat="43.11308" lon="0.10246">
        <ele>503</ele>
        <time>2021-08-10T05:35:28.000Z</time>
      </trkpt>
      <trkpt lat="43.11305" lon="0.10239">
        <ele>503</ele>
        <time>2021-08-10T05:35:30.000Z</time>
      </trkpt>
      <trkpt lat="43.11301" lon="0.10232">
        <ele>504</ele>
        <time>2021-08-10T05:35:32.000Z</time>
      </trkpt>
      <trkpt lat="43.11298" lon="0.10223">
        <ele>504</ele>
        <time>2021-08-10T05:35:34.000Z</time>
      </trkpt>
      <trkpt lat="43.11297" lon="0.10216">
        <ele>504</ele>
        <time>2021-08-10T05:35:36.000Z</time>
      </trkpt>
      <trkpt lat="43.11293" lon="0.10206">
        <ele>504</ele>
        <time>2021-08-10T05:35:38.000Z</time>
      </trkpt>
      <trkpt lat="43.1129" lon="0.10196">
        <ele>505</ele>
        <time>2021-08-10T05:35:40.000Z</time>
      </trkpt>
      <trkpt lat="43.11287" lon="0.10186">
        <ele>505</ele>
        <time>2021-08-10T05:35:42.000Z</time>
      </trkpt>
      <trkpt lat="43.11283" lon="0.10177">
        <ele>505</ele>
        <time>2021-08-10T05:35:44.000Z</time>
      </trkpt>
      <trkpt lat="43.11279" lon="0.10168">
        <ele>505</ele>
        <time>2021-08-10T05:35:46.000Z</time>
      </trkpt>
      <trkpt lat="43.11275" lon="0.10159">
        <ele>505</ele>
        <time>2021-08-10T05:35:48.000Z</time>
      </trkpt>
      <trkpt lat="43.11272" lon="0.10152">
        <ele>505</ele>
        <time>2021-08-10T05:35:49.000Z</time>
      </trkpt>
      <trkpt lat="43.11269" lon="0.10146">
        <ele>505</ele>
        <time>2021-08-10T05:35:50.000Z</time>
      </trkpt>
      <trkpt lat="43.11265" lon="0.10134">
        <ele>505</ele>
        <time>2021-08-10T05:35:52.000Z</time>
      </trkpt>
      <trkpt lat="43.11261" lon="0.10121">
        <ele>504</ele>
        <time>2021-08-10T05:35:54.000Z</time>
      </trkpt>
      <trkpt lat="43.11259" lon="0.10114">
        <ele>504</ele>
        <time>2021-08-10T05:35:55.000Z</time>
      </trkpt>
      <trkpt lat="43.11257" lon="0.10107">
        <ele>504</ele>
        <time>2021-08-10T05:35:56.000Z</time>
      </trkpt>
      <trkpt lat="43.11255" lon="0.101">
        <ele>504</ele>
        <time>2021-08-10T05:35:57.000Z</time>
      </trkpt>
      <trkpt lat="43.11252" lon="0.10087">
        <ele>503</ele>
        <time>2021-08-10T05:35:59.000Z</time>
      </trkpt>
      <trkpt lat="43.11251" lon="0.1008">
        <ele>503</ele>
        <time>2021-08-10T05:36:0.000Z</time>
      </trkpt>
      <trkpt lat="43.11249" lon="0.10072">
        <ele>503</ele>
        <time>2021-08-10T05:36:1.000Z</time>
      </trkpt>
      <trkpt lat="43.11248" lon="0.10066">
        <ele>503</ele>
        <time>2021-08-10T05:36:2.000Z</time>
      </trkpt>
      <trkpt lat="43.11247" lon="0.10058">
        <ele>503</ele>
        <time>2021-08-10T05:36:3.000Z</time>
      </trkpt>
      <trkpt lat="43.11246" lon="0.10052">
        <ele>503</ele>
        <time>2021-08-10T05:36:4.000Z</time>
      </trkpt>
      <trkpt lat="43.11244" lon="0.10044">
        <ele>503</ele>
        <time>2021-08-10T05:36:5.000Z</time>
      </trkpt>
      <trkpt lat="43.11242" lon="0.1003">
        <ele>503</ele>
        <time>2021-08-10T05:36:7.000Z</time>
      </trkpt>
      <trkpt lat="43.11239" lon="0.10016">
        <ele>503</ele>
        <time>2021-08-10T05:36:9.000Z</time>
      </trkpt>
      <trkpt lat="43.11237" lon="0.10002">
        <ele>503</ele>
        <time>2021-08-10T05:36:11.000Z</time>
      </trkpt>
      <trkpt lat="43.11235" lon="0.09995">
        <ele>503</ele>
        <time>2021-08-10T05:36:12.000Z</time>
      </trkpt>
      <trkpt lat="43.11235" lon="0.09988">
        <ele>503</ele>
        <time>2021-08-10T05:36:13.000Z</time>
      </trkpt>
      <trkpt lat="43.11234" lon="0.09981">
        <ele>503</ele>
        <time>2021-08-10T05:36:14.000Z</time>
      </trkpt>
      <trkpt lat="43.11233" lon="0.09974">
        <ele>503</ele>
        <time>2021-08-10T05:36:15.000Z</time>
      </trkpt>
      <trkpt lat="43.11232" lon="0.09967">
        <ele>503</ele>
        <time>2021-08-10T05:36:16.000Z</time>
      </trkpt>
      <trkpt lat="43.11231" lon="0.0996">
        <ele>503</ele>
        <time>2021-08-10T05:36:17.000Z</time>
      </trkpt>
      <trkpt lat="43.11229" lon="0.09948">
        <ele>503</ele>
        <time>2021-08-10T05:36:19.000Z</time>
      </trkpt>
      <trkpt lat="43.11227" lon="0.09942">
        <ele>503</ele>
        <time>2021-08-10T05:36:20.000Z</time>
      </trkpt>
      <trkpt lat="43.11226" lon="0.09935">
        <ele>503</ele>
        <time>2021-08-10T05:36:21.000Z</time>
      </trkpt>
      <trkpt lat="43.11224" lon="0.09929">
        <ele>503</ele>
        <time>2021-08-10T05:36:22.000Z</time>
      </trkpt>
      <trkpt lat="43.11221" lon="0.09916">
        <ele>503</ele>
        <time>2021-08-10T05:36:24.000Z</time>
      </trkpt>
      <trkpt lat="43.1122" lon="0.0991">
        <ele>503</ele>
        <time>2021-08-10T05:36:25.000Z</time>
      </trkpt>
      <trkpt lat="43.11218" lon="0.09904">
        <ele>503</ele>
        <time>2021-08-10T05:36:26.000Z</time>
      </trkpt>
      <trkpt lat="43.11216" lon="0.09897">
        <ele>503</ele>
        <time>2021-08-10T05:36:27.000Z</time>
      </trkpt>
      <trkpt lat="43.11214" lon="0.09891">
        <ele>503</ele>
        <time>2021-08-10T05:36:28.000Z</time>
      </trkpt>
      <trkpt lat="43.11211" lon="0.09881">
        <ele>503</ele>
        <time>2021-08-10T05:36:30.000Z</time>
      </trkpt>
      <trkpt lat="43.11208" lon="0.09874">
        <ele>503</ele>
        <time>2021-08-10T05:36:31.000Z</time>
      </trkpt>
      <trkpt lat="43.11206" lon="0.09868">
        <ele>503</ele>
        <time>2021-08-10T05:36:32.000Z</time>
      </trkpt>
      <trkpt lat="43.11204" lon="0.09862">
        <ele>503</ele>
        <time>2021-08-10T05:36:33.000Z</time>
      </trkpt>
      <trkpt lat="43.11202" lon="0.09857">
        <ele>503</ele>
        <time>2021-08-10T05:36:34.000Z</time>
      </trkpt>
      <trkpt lat="43.112" lon="0.09851">
        <ele>503</ele>
        <time>2021-08-10T05:36:35.000Z</time>
      </trkpt>
      <trkpt lat="43.11196" lon="0.09841">
        <ele>503</ele>
        <time>2021-08-10T05:36:37.000Z</time>
      </trkpt>
      <trkpt lat="43.11176" lon="0.09835">
        <ele>503</ele>
        <time>2021-08-10T05:36:38.000Z</time>
      </trkpt>
      <trkpt lat="43.11168" lon="0.09826">
        <ele>503</ele>
        <time>2021-08-10T05:36:40.000Z</time>
      </trkpt>
      <trkpt lat="43.11164" lon="0.09821">
        <ele>503</ele>
        <time>2021-08-10T05:36:41.000Z</time>
      </trkpt>
      <trkpt lat="43.1116" lon="0.09816">
        <ele>503</ele>
        <time>2021-08-10T05:36:42.000Z</time>
      </trkpt>
      <trkpt lat="43.11156" lon="0.09811">
        <ele>503</ele>
        <time>2021-08-10T05:36:43.000Z</time>
      </trkpt>
      <trkpt lat="43.11151" lon="0.09805">
        <ele>503</ele>
        <time>2021-08-10T05:36:44.000Z</time>
      </trkpt>
      <trkpt lat="43.11147" lon="0.09801">
        <ele>503</ele>
        <time>2021-08-10T05:36:45.000Z</time>
      </trkpt>
      <trkpt lat="43.11144" lon="0.09796">
        <ele>503</ele>
        <time>2021-08-10T05:36:46.000Z</time>
      </trkpt>
      <trkpt lat="43.11136" lon="0.09787">
        <ele>503</ele>
        <time>2021-08-10T05:36:48.000Z</time>
      </trkpt>
      <trkpt lat="43.1113" lon="0.09779">
        <ele>503</ele>
        <time>2021-08-10T05:36:50.000Z</time>
      </trkpt>
      <trkpt lat="43.11123" lon="0.09772">
        <ele>503</ele>
        <time>2021-08-10T05:36:52.000Z</time>
      </trkpt>
      <trkpt lat="43.11117" lon="0.09764">
        <ele>503</ele>
        <time>2021-08-10T05:36:54.000Z</time>
      </trkpt>
      <trkpt lat="43.11112" lon="0.09757">
        <ele>503</ele>
        <time>2021-08-10T05:36:55.000Z</time>
      </trkpt>
      <trkpt lat="43.11109" lon="0.09751">
        <ele>504</ele>
        <time>2021-08-10T05:36:56.000Z</time>
      </trkpt>
      <trkpt lat="43.11103" lon="0.09743">
        <ele>504</ele>
        <time>2021-08-10T05:36:58.000Z</time>
      </trkpt>
      <trkpt lat="43.11099" lon="0.09734">
        <ele>504</ele>
        <time>2021-08-10T05:37:0.000Z</time>
      </trkpt>
      <trkpt lat="43.11094" lon="0.09725">
        <ele>504</ele>
        <time>2021-08-10T05:37:2.000Z</time>
      </trkpt>
      <trkpt lat="43.1109" lon="0.09718">
        <ele>504</ele>
        <time>2021-08-10T05:37:3.000Z</time>
      </trkpt>
      <trkpt lat="43.11087" lon="0.09712">
        <ele>504</ele>
        <time>2021-08-10T05:37:4.000Z</time>
      </trkpt>
      <trkpt lat="43.11084" lon="0.09707">
        <ele>504</ele>
        <time>2021-08-10T05:37:5.000Z</time>
      </trkpt>
      <trkpt lat="43.1108" lon="0.09701">
        <ele>504</ele>
        <time>2021-08-10T05:37:6.000Z</time>
      </trkpt>
      <trkpt lat="43.11076" lon="0.09695">
        <ele>504</ele>
        <time>2021-08-10T05:37:7.000Z</time>
      </trkpt>
      <trkpt lat="43.11073" lon="0.09689">
        <ele>504</ele>
        <time>2021-08-10T05:37:8.000Z</time>
      </trkpt>
      <trkpt lat="43.11069" lon="0.09683">
        <ele>504</ele>
        <time>2021-08-10T05:37:9.000Z</time>
      </trkpt>
      <trkpt lat="43.11065" lon="0.09677">
        <ele>503</ele>
        <time>2021-08-10T05:37:10.000Z</time>
      </trkpt>
      <trkpt lat="43.11061" lon="0.09671">
        <ele>503</ele>
        <time>2021-08-10T05:37:11.000Z</time>
      </trkpt>
      <trkpt lat="43.11057" lon="0.09665">
        <ele>503</ele>
        <time>2021-08-10T05:37:12.000Z</time>
      </trkpt>
      <trkpt lat="43.11054" lon="0.0966">
        <ele>503</ele>
        <time>2021-08-10T05:37:13.000Z</time>
      </trkpt>
      <trkpt lat="43.1105" lon="0.09655">
        <ele>503</ele>
        <time>2021-08-10T05:37:14.000Z</time>
      </trkpt>
      <trkpt lat="43.11044" lon="0.09649">
        <ele>503</ele>
        <time>2021-08-10T05:37:15.000Z</time>
      </trkpt>
      <trkpt lat="43.11041" lon="0.09644">
        <ele>503</ele>
        <time>2021-08-10T05:37:16.000Z</time>
      </trkpt>
      <trkpt lat="43.11036" lon="0.09637">
        <ele>503</ele>
        <time>2021-08-10T05:37:17.000Z</time>
      </trkpt>
      <trkpt lat="43.11033" lon="0.0963">
        <ele>503</ele>
        <time>2021-08-10T05:37:18.000Z</time>
      </trkpt>
      <trkpt lat="43.11028" lon="0.09623">
        <ele>502</ele>
        <time>2021-08-10T05:37:19.000Z</time>
      </trkpt>
      <trkpt lat="43.11025" lon="0.09616">
        <ele>502</ele>
        <time>2021-08-10T05:37:20.000Z</time>
      </trkpt>
      <trkpt lat="43.11017" lon="0.09603">
        <ele>501</ele>
        <time>2021-08-10T05:37:21.000Z</time>
      </trkpt>
      <trkpt lat="43.11012" lon="0.09594">
        <ele>501</ele>
        <time>2021-08-10T05:37:22.000Z</time>
      </trkpt>
      <trkpt lat="43.11009" lon="0.09586">
        <ele>500</ele>
        <time>2021-08-10T05:37:23.000Z</time>
      </trkpt>
      <trkpt lat="43.11004" lon="0.09576">
        <ele>500</ele>
        <time>2021-08-10T05:37:24.000Z</time>
      </trkpt>
      <trkpt lat="43.11" lon="0.09567">
        <ele>500</ele>
        <time>2021-08-10T05:37:25.000Z</time>
      </trkpt>
      <trkpt lat="43.10997" lon="0.0956">
        <ele>499</ele>
        <time>2021-08-10T05:37:26.000Z</time>
      </trkpt>
      <trkpt lat="43.10991" lon="0.0955">
        <ele>499</ele>
        <time>2021-08-10T05:37:27.000Z</time>
      </trkpt>
      <trkpt lat="43.10986" lon="0.09546">
        <ele>499</ele>
        <time>2021-08-10T05:37:28.000Z</time>
      </trkpt>
      <trkpt lat="43.10978" lon="0.09543">
        <ele>499</ele>
        <time>2021-08-10T05:37:29.000Z</time>
      </trkpt>
      <trkpt lat="43.10973" lon="0.09538">
        <ele>499</ele>
        <time>2021-08-10T05:37:30.000Z</time>
      </trkpt>
      <trkpt lat="43.10963" lon="0.09534">
        <ele>499</ele>
        <time>2021-08-10T05:37:31.000Z</time>
      </trkpt>
      <trkpt lat="43.10956" lon="0.09531">
        <ele>499</ele>
        <time>2021-08-10T05:37:32.000Z</time>
      </trkpt>
      <trkpt lat="43.1095" lon="0.09527">
        <ele>499</ele>
        <time>2021-08-10T05:37:33.000Z</time>
      </trkpt>
      <trkpt lat="43.10944" lon="0.09525">
        <ele>499</ele>
        <time>2021-08-10T05:37:34.000Z</time>
      </trkpt>
      <trkpt lat="43.10938" lon="0.09522">
        <ele>499</ele>
        <time>2021-08-10T05:37:35.000Z</time>
      </trkpt>
      <trkpt lat="43.10927" lon="0.09517">
        <ele>498</ele>
        <time>2021-08-10T05:37:37.000Z</time>
      </trkpt>
      <trkpt lat="43.10921" lon="0.09514">
        <ele>498</ele>
        <time>2021-08-10T05:37:38.000Z</time>
      </trkpt>
      <trkpt lat="43.10917" lon="0.09513">
        <ele>498</ele>
        <time>2021-08-10T05:37:39.000Z</time>
      </trkpt>
      <trkpt lat="43.1091" lon="0.0951">
        <ele>498</ele>
        <time>2021-08-10T05:37:40.000Z</time>
      </trkpt>
      <trkpt lat="43.10904" lon="0.09507">
        <ele>498</ele>
        <time>2021-08-10T05:37:41.000Z</time>
      </trkpt>
      <trkpt lat="43.10898" lon="0.09505">
        <ele>498</ele>
        <time>2021-08-10T05:37:42.000Z</time>
      </trkpt>
      <trkpt lat="43.10893" lon="0.09502">
        <ele>498</ele>
        <time>2021-08-10T05:37:43.000Z</time>
      </trkpt>
      <trkpt lat="43.10888" lon="0.095">
        <ele>498</ele>
        <time>2021-08-10T05:37:44.000Z</time>
      </trkpt>
      <trkpt lat="43.10882" lon="0.09497">
        <ele>498</ele>
        <time>2021-08-10T05:37:45.000Z</time>
      </trkpt>
      <trkpt lat="43.10876" lon="0.09495">
        <ele>498</ele>
        <time>2021-08-10T05:37:46.000Z</time>
      </trkpt>
      <trkpt lat="43.1087" lon="0.09492">
        <ele>498</ele>
        <time>2021-08-10T05:37:47.000Z</time>
      </trkpt>
      <trkpt lat="43.10865" lon="0.0949">
        <ele>498</ele>
        <time>2021-08-10T05:37:48.000Z</time>
      </trkpt>
      <trkpt lat="43.1086" lon="0.09488">
        <ele>498</ele>
        <time>2021-08-10T05:37:49.000Z</time>
      </trkpt>
      <trkpt lat="43.10854" lon="0.09485">
        <ele>498</ele>
        <time>2021-08-10T05:37:50.000Z</time>
      </trkpt>
      <trkpt lat="43.10848" lon="0.09483">
        <ele>498</ele>
        <time>2021-08-10T05:37:51.000Z</time>
      </trkpt>
      <trkpt lat="43.1084" lon="0.0948">
        <ele>498</ele>
        <time>2021-08-10T05:37:53.000Z</time>
      </trkpt>
      <trkpt lat="43.10835" lon="0.09478">
        <ele>499</ele>
        <time>2021-08-10T05:37:54.000Z</time>
      </trkpt>
      <trkpt lat="43.1083" lon="0.09476">
        <ele>499</ele>
        <time>2021-08-10T05:37:55.000Z</time>
      </trkpt>
      <trkpt lat="43.10822" lon="0.09473">
        <ele>500</ele>
        <time>2021-08-10T05:37:57.000Z</time>
      </trkpt>
      <trkpt lat="43.10815" lon="0.0947">
        <ele>500</ele>
        <time>2021-08-10T05:37:59.000Z</time>
      </trkpt>
      <trkpt lat="43.10809" lon="0.09467">
        <ele>501</ele>
        <time>2021-08-10T05:38:1.000Z</time>
      </trkpt>
      <trkpt lat="43.10802" lon="0.09464">
        <ele>502</ele>
        <time>2021-08-10T05:38:3.000Z</time>
      </trkpt>
      <trkpt lat="43.10798" lon="0.09455">
        <ele>503</ele>
        <time>2021-08-10T05:38:5.000Z</time>
      </trkpt>
      <trkpt lat="43.10794" lon="0.09451">
        <ele>503</ele>
        <time>2021-08-10T05:38:6.000Z</time>
      </trkpt>
      <trkpt lat="43.10789" lon="0.09443">
        <ele>504</ele>
        <time>2021-08-10T05:38:8.000Z</time>
      </trkpt>
      <trkpt lat="43.10785" lon="0.09434">
        <ele>504</ele>
        <time>2021-08-10T05:38:10.000Z</time>
      </trkpt>
      <trkpt lat="43.10781" lon="0.09424">
        <ele>504</ele>
        <time>2021-08-10T05:38:12.000Z</time>
      </trkpt>
      <trkpt lat="43.10779" lon="0.09417">
        <ele>504</ele>
        <time>2021-08-10T05:38:13.000Z</time>
      </trkpt>
      <trkpt lat="43.10776" lon="0.09411">
        <ele>504</ele>
        <time>2021-08-10T05:38:14.000Z</time>
      </trkpt>
      <trkpt lat="43.10772" lon="0.09397">
        <ele>504</ele>
        <time>2021-08-10T05:38:16.000Z</time>
      </trkpt>
      <trkpt lat="43.1077" lon="0.09391">
        <ele>504</ele>
        <time>2021-08-10T05:38:17.000Z</time>
      </trkpt>
      <trkpt lat="43.10768" lon="0.09382">
        <ele>504</ele>
        <time>2021-08-10T05:38:18.000Z</time>
      </trkpt>
      <trkpt lat="43.10766" lon="0.09375">
        <ele>504</ele>
        <time>2021-08-10T05:38:19.000Z</time>
      </trkpt>
      <trkpt lat="43.10763" lon="0.09366">
        <ele>504</ele>
        <time>2021-08-10T05:38:20.000Z</time>
      </trkpt>
      <trkpt lat="43.10761" lon="0.09358">
        <ele>504</ele>
        <time>2021-08-10T05:38:21.000Z</time>
      </trkpt>
      <trkpt lat="43.10759" lon="0.0935">
        <ele>504</ele>
        <time>2021-08-10T05:38:22.000Z</time>
      </trkpt>
      <trkpt lat="43.10756" lon="0.09342">
        <ele>503</ele>
        <time>2021-08-10T05:38:23.000Z</time>
      </trkpt>
      <trkpt lat="43.10753" lon="0.09334">
        <ele>503</ele>
        <time>2021-08-10T05:38:24.000Z</time>
      </trkpt>
      <trkpt lat="43.10751" lon="0.09328">
        <ele>503</ele>
        <time>2021-08-10T05:38:25.000Z</time>
      </trkpt>
      <trkpt lat="43.10749" lon="0.0932">
        <ele>503</ele>
        <time>2021-08-10T05:38:26.000Z</time>
      </trkpt>
      <trkpt lat="43.10745" lon="0.09311">
        <ele>503</ele>
        <time>2021-08-10T05:38:27.000Z</time>
      </trkpt>
      <trkpt lat="43.10743" lon="0.09306">
        <ele>503</ele>
        <time>2021-08-10T05:38:28.000Z</time>
      </trkpt>
      <trkpt lat="43.1074" lon="0.09297">
        <ele>503</ele>
        <time>2021-08-10T05:38:29.000Z</time>
      </trkpt>
      <trkpt lat="43.10737" lon="0.0929">
        <ele>502</ele>
        <time>2021-08-10T05:38:30.000Z</time>
      </trkpt>
      <trkpt lat="43.10734" lon="0.09283">
        <ele>502</ele>
        <time>2021-08-10T05:38:31.000Z</time>
      </trkpt>
      <trkpt lat="43.10731" lon="0.09277">
        <ele>502</ele>
        <time>2021-08-10T05:38:32.000Z</time>
      </trkpt>
      <trkpt lat="43.10728" lon="0.0927">
        <ele>502</ele>
        <time>2021-08-10T05:38:33.000Z</time>
      </trkpt>
      <trkpt lat="43.10725" lon="0.09264">
        <ele>502</ele>
        <time>2021-08-10T05:38:34.000Z</time>
      </trkpt>
      <trkpt lat="43.10723" lon="0.09257">
        <ele>502</ele>
        <time>2021-08-10T05:38:35.000Z</time>
      </trkpt>
      <trkpt lat="43.10718" lon="0.09246">
        <ele>502</ele>
        <time>2021-08-10T05:38:37.000Z</time>
      </trkpt>
      <trkpt lat="43.10715" lon="0.09238">
        <ele>502</ele>
        <time>2021-08-10T05:38:38.000Z</time>
      </trkpt>
      <trkpt lat="43.10711" lon="0.09232">
        <ele>502</ele>
        <time>2021-08-10T05:38:39.000Z</time>
      </trkpt>
      <trkpt lat="43.1071" lon="0.09225">
        <ele>502</ele>
        <time>2021-08-10T05:38:40.000Z</time>
      </trkpt>
      <trkpt lat="43.10707" lon="0.09212">
        <ele>502</ele>
        <time>2021-08-10T05:38:42.000Z</time>
      </trkpt>
      <trkpt lat="43.10706" lon="0.09203">
        <ele>502</ele>
        <time>2021-08-10T05:38:43.000Z</time>
      </trkpt>
      <trkpt lat="43.10705" lon="0.09196">
        <ele>502</ele>
        <time>2021-08-10T05:38:44.000Z</time>
      </trkpt>
      <trkpt lat="43.10704" lon="0.09189">
        <ele>502</ele>
        <time>2021-08-10T05:38:45.000Z</time>
      </trkpt>
      <trkpt lat="43.10703" lon="0.09182">
        <ele>502</ele>
        <time>2021-08-10T05:38:46.000Z</time>
      </trkpt>
      <trkpt lat="43.10701" lon="0.09174">
        <ele>502</ele>
        <time>2021-08-10T05:38:47.000Z</time>
      </trkpt>
      <trkpt lat="43.107" lon="0.09167">
        <ele>502</ele>
        <time>2021-08-10T05:38:48.000Z</time>
      </trkpt>
      <trkpt lat="43.10696" lon="0.09154">
        <ele>502</ele>
        <time>2021-08-10T05:38:50.000Z</time>
      </trkpt>
      <trkpt lat="43.10695" lon="0.09147">
        <ele>502</ele>
        <time>2021-08-10T05:38:51.000Z</time>
      </trkpt>
      <trkpt lat="43.10693" lon="0.0914">
        <ele>502</ele>
        <time>2021-08-10T05:38:52.000Z</time>
      </trkpt>
      <trkpt lat="43.10691" lon="0.09131">
        <ele>502</ele>
        <time>2021-08-10T05:38:53.000Z</time>
      </trkpt>
      <trkpt lat="43.10688" lon="0.09119">
        <ele>502</ele>
        <time>2021-08-10T05:38:55.000Z</time>
      </trkpt>
      <trkpt lat="43.10686" lon="0.09112">
        <ele>502</ele>
        <time>2021-08-10T05:38:56.000Z</time>
      </trkpt>
      <trkpt lat="43.10684" lon="0.09105">
        <ele>502</ele>
        <time>2021-08-10T05:38:57.000Z</time>
      </trkpt>
      <trkpt lat="43.10682" lon="0.09097">
        <ele>502</ele>
        <time>2021-08-10T05:38:58.000Z</time>
      </trkpt>
      <trkpt lat="43.10679" lon="0.09084">
        <ele>502</ele>
        <time>2021-08-10T05:39:0.000Z</time>
      </trkpt>
      <trkpt lat="43.10677" lon="0.09078">
        <ele>502</ele>
        <time>2021-08-10T05:39:1.000Z</time>
      </trkpt>
      <trkpt lat="43.10676" lon="0.09071">
        <ele>502</ele>
        <time>2021-08-10T05:39:2.000Z</time>
      </trkpt>
      <trkpt lat="43.10674" lon="0.09063">
        <ele>502</ele>
        <time>2021-08-10T05:39:3.000Z</time>
      </trkpt>
      <trkpt lat="43.10672" lon="0.09056">
        <ele>502</ele>
        <time>2021-08-10T05:39:4.000Z</time>
      </trkpt>
      <trkpt lat="43.10671" lon="0.09049">
        <ele>502</ele>
        <time>2021-08-10T05:39:5.000Z</time>
      </trkpt>
      <trkpt lat="43.10668" lon="0.09038">
        <ele>503</ele>
        <time>2021-08-10T05:39:7.000Z</time>
      </trkpt>
      <trkpt lat="43.10667" lon="0.09032">
        <ele>503</ele>
        <time>2021-08-10T05:39:8.000Z</time>
      </trkpt>
      <trkpt lat="43.10666" lon="0.09025">
        <ele>503</ele>
        <time>2021-08-10T05:39:9.000Z</time>
      </trkpt>
      <trkpt lat="43.10664" lon="0.09014">
        <ele>504</ele>
        <time>2021-08-10T05:39:11.000Z</time>
      </trkpt>
      <trkpt lat="43.10668" lon="0.09004">
        <ele>504</ele>
        <time>2021-08-10T05:39:13.000Z</time>
      </trkpt>
      <trkpt lat="43.1067" lon="0.08993">
        <ele>505</ele>
        <time>2021-08-10T05:39:15.000Z</time>
      </trkpt>
      <trkpt lat="43.10671" lon="0.08985">
        <ele>506</ele>
        <time>2021-08-10T05:39:17.000Z</time>
      </trkpt>
      <trkpt lat="43.10674" lon="0.08976">
        <ele>506</ele>
        <time>2021-08-10T05:39:19.000Z</time>
      </trkpt>
      <trkpt lat="43.10675" lon="0.08967">
        <ele>507</ele>
        <time>2021-08-10T05:39:21.000Z</time>
      </trkpt>
      <trkpt lat="43.10676" lon="0.08959">
        <ele>508</ele>
        <time>2021-08-10T05:39:23.000Z</time>
      </trkpt>
      <trkpt lat="43.10677" lon="0.08951">
        <ele>508</ele>
        <time>2021-08-10T05:39:25.000Z</time>
      </trkpt>
      <trkpt lat="43.10678" lon="0.08943">
        <ele>509</ele>
        <time>2021-08-10T05:39:27.000Z</time>
      </trkpt>
      <trkpt lat="43.10679" lon="0.08937">
        <ele>510</ele>
        <time>2021-08-10T05:39:29.000Z</time>
      </trkpt>
      <trkpt lat="43.1068" lon="0.08929">
        <ele>510</ele>
        <time>2021-08-10T05:39:31.000Z</time>
      </trkpt>
      <trkpt lat="43.1068" lon="0.08922">
        <ele>511</ele>
        <time>2021-08-10T05:39:33.000Z</time>
      </trkpt>
      <trkpt lat="43.1068" lon="0.08915">
        <ele>512</ele>
        <time>2021-08-10T05:39:35.000Z</time>
      </trkpt>
      <trkpt lat="43.10682" lon="0.08909">
        <ele>512</ele>
        <time>2021-08-10T05:39:37.000Z</time>
      </trkpt>
      <trkpt lat="43.10682" lon="0.08901">
        <ele>513</ele>
        <time>2021-08-10T05:39:39.000Z</time>
      </trkpt>
      <trkpt lat="43.10683" lon="0.08895">
        <ele>514</ele>
        <time>2021-08-10T05:39:41.000Z</time>
      </trkpt>
      <trkpt lat="43.10683" lon="0.08887">
        <ele>514</ele>
        <time>2021-08-10T05:39:43.000Z</time>
      </trkpt>
      <trkpt lat="43.10684" lon="0.08881">
        <ele>514</ele>
        <time>2021-08-10T05:39:45.000Z</time>
      </trkpt>
      <trkpt lat="43.1068" lon="0.08876">
        <ele>515</ele>
        <time>2021-08-10T05:39:47.000Z</time>
      </trkpt>
      <trkpt lat="43.10674" lon="0.08873">
        <ele>516</ele>
        <time>2021-08-10T05:39:50.000Z</time>
      </trkpt>
      <trkpt lat="43.10668" lon="0.08875">
        <ele>516</ele>
        <time>2021-08-10T05:39:52.000Z</time>
      </trkpt>
      <trkpt lat="43.10664" lon="0.08878">
        <ele>517</ele>
        <time>2021-08-10T05:39:54.000Z</time>
      </trkpt>
      <trkpt lat="43.10659" lon="0.08882">
        <ele>518</ele>
        <time>2021-08-10T05:39:56.000Z</time>
      </trkpt>
      <trkpt lat="43.10655" lon="0.08887">
        <ele>518</ele>
        <time>2021-08-10T05:39:58.000Z</time>
      </trkpt>
      <trkpt lat="43.10651" lon="0.08891">
        <ele>519</ele>
        <time>2021-08-10T05:40:0.000Z</time>
      </trkpt>
      <trkpt lat="43.10647" lon="0.08895">
        <ele>520</ele>
        <time>2021-08-10T05:40:2.000Z</time>
      </trkpt>
      <trkpt lat="43.10642" lon="0.08897">
        <ele>520</ele>
        <time>2021-08-10T05:40:4.000Z</time>
      </trkpt>
      <trkpt lat="43.10637" lon="0.08897">
        <ele>521</ele>
        <time>2021-08-10T05:40:7.000Z</time>
      </trkpt>
      <trkpt lat="43.10631" lon="0.08895">
        <ele>522</ele>
        <time>2021-08-10T05:40:10.000Z</time>
      </trkpt>
      <trkpt lat="43.10627" lon="0.08893">
        <ele>523</ele>
        <time>2021-08-10T05:40:12.000Z</time>
      </trkpt>
      <trkpt lat="43.10621" lon="0.08887">
        <ele>523</ele>
        <time>2021-08-10T05:40:15.000Z</time>
      </trkpt>
      <trkpt lat="43.10617" lon="0.08884">
        <ele>524</ele>
        <time>2021-08-10T05:40:17.000Z</time>
      </trkpt>
      <trkpt lat="43.10612" lon="0.0888">
        <ele>524</ele>
        <time>2021-08-10T05:40:19.000Z</time>
      </trkpt>
      <trkpt lat="43.10608" lon="0.08877">
        <ele>525</ele>
        <time>2021-08-10T05:40:21.000Z</time>
      </trkpt>
      <trkpt lat="43.10603" lon="0.08873">
        <ele>525</ele>
        <time>2021-08-10T05:40:23.000Z</time>
      </trkpt>
      <trkpt lat="43.10598" lon="0.08868">
        <ele>526</ele>
        <time>2021-08-10T05:40:26.000Z</time>
      </trkpt>
      <trkpt lat="43.10593" lon="0.08864">
        <ele>526</ele>
        <time>2021-08-10T05:40:28.000Z</time>
      </trkpt>
      <trkpt lat="43.10589" lon="0.08858">
        <ele>526</ele>
        <time>2021-08-10T05:40:30.000Z</time>
      </trkpt>
      <trkpt lat="43.10582" lon="0.08852">
        <ele>526</ele>
        <time>2021-08-10T05:40:32.000Z</time>
      </trkpt>
      <trkpt lat="43.10577" lon="0.08846">
        <ele>526</ele>
        <time>2021-08-10T05:40:34.000Z</time>
      </trkpt>
      <trkpt lat="43.10572" lon="0.08841">
        <ele>526</ele>
        <time>2021-08-10T05:40:35.000Z</time>
      </trkpt>
      <trkpt lat="43.10566" lon="0.08834">
        <ele>526</ele>
        <time>2021-08-10T05:40:37.000Z</time>
      </trkpt>
      <trkpt lat="43.10562" lon="0.0883">
        <ele>526</ele>
        <time>2021-08-10T05:40:38.000Z</time>
      </trkpt>
      <trkpt lat="43.10555" lon="0.08822">
        <ele>526</ele>
        <time>2021-08-10T05:40:40.000Z</time>
      </trkpt>
      <trkpt lat="43.10552" lon="0.08818">
        <ele>525</ele>
        <time>2021-08-10T05:40:41.000Z</time>
      </trkpt>
      <trkpt lat="43.10549" lon="0.08811">
        <ele>525</ele>
        <time>2021-08-10T05:40:42.000Z</time>
      </trkpt>
      <trkpt lat="43.10542" lon="0.08801">
        <ele>525</ele>
        <time>2021-08-10T05:40:44.000Z</time>
      </trkpt>
      <trkpt lat="43.10538" lon="0.08797">
        <ele>524</ele>
        <time>2021-08-10T05:40:45.000Z</time>
      </trkpt>
      <trkpt lat="43.10534" lon="0.08795">
        <ele>524</ele>
        <time>2021-08-10T05:40:46.000Z</time>
      </trkpt>
      <trkpt lat="43.10528" lon="0.08794">
        <ele>524</ele>
        <time>2021-08-10T05:40:47.000Z</time>
      </trkpt>
      <trkpt lat="43.10523" lon="0.08794">
        <ele>524</ele>
        <time>2021-08-10T05:40:48.000Z</time>
      </trkpt>
      <trkpt lat="43.10518" lon="0.08794">
        <ele>523</ele>
        <time>2021-08-10T05:40:49.000Z</time>
      </trkpt>
      <trkpt lat="43.10511" lon="0.08795">
        <ele>523</ele>
        <time>2021-08-10T05:40:50.000Z</time>
      </trkpt>
      <trkpt lat="43.10506" lon="0.08796">
        <ele>523</ele>
        <time>2021-08-10T05:40:51.000Z</time>
      </trkpt>
      <trkpt lat="43.105" lon="0.08795">
        <ele>523</ele>
        <time>2021-08-10T05:40:52.000Z</time>
      </trkpt>
      <trkpt lat="43.10493" lon="0.08794">
        <ele>522</ele>
        <time>2021-08-10T05:40:53.000Z</time>
      </trkpt>
      <trkpt lat="43.10482" lon="0.08793">
        <ele>522</ele>
        <time>2021-08-10T05:40:55.000Z</time>
      </trkpt>
      <trkpt lat="43.10476" lon="0.08792">
        <ele>522</ele>
        <time>2021-08-10T05:40:56.000Z</time>
      </trkpt>
      <trkpt lat="43.1047" lon="0.08792">
        <ele>522</ele>
        <time>2021-08-10T05:40:57.000Z</time>
      </trkpt>
      <trkpt lat="43.10463" lon="0.08792">
        <ele>522</ele>
        <time>2021-08-10T05:40:58.000Z</time>
      </trkpt>
      <trkpt lat="43.10457" lon="0.08794">
        <ele>522</ele>
        <time>2021-08-10T05:40:59.000Z</time>
      </trkpt>
      <trkpt lat="43.1045" lon="0.088">
        <ele>521</ele>
        <time>2021-08-10T05:41:0.000Z</time>
      </trkpt>
      <trkpt lat="43.10445" lon="0.08804">
        <ele>521</ele>
        <time>2021-08-10T05:41:1.000Z</time>
      </trkpt>
      <trkpt lat="43.10438" lon="0.08808">
        <ele>521</ele>
        <time>2021-08-10T05:41:2.000Z</time>
      </trkpt>
      <trkpt lat="43.10431" lon="0.08812">
        <ele>520</ele>
        <time>2021-08-10T05:41:3.000Z</time>
      </trkpt>
      <trkpt lat="43.10424" lon="0.08816">
        <ele>520</ele>
        <time>2021-08-10T05:41:4.000Z</time>
      </trkpt>
      <trkpt lat="43.10418" lon="0.08819">
        <ele>519</ele>
        <time>2021-08-10T05:41:5.000Z</time>
      </trkpt>
      <trkpt lat="43.1041" lon="0.0882">
        <ele>519</ele>
        <time>2021-08-10T05:41:6.000Z</time>
      </trkpt>
      <trkpt lat="43.10402" lon="0.08817">
        <ele>519</ele>
        <time>2021-08-10T05:41:7.000Z</time>
      </trkpt>
      <trkpt lat="43.10397" lon="0.08813">
        <ele>518</ele>
        <time>2021-08-10T05:41:8.000Z</time>
      </trkpt>
      <trkpt lat="43.1039" lon="0.08806">
        <ele>518</ele>
        <time>2021-08-10T05:41:9.000Z</time>
      </trkpt>
      <trkpt lat="43.10386" lon="0.08798">
        <ele>518</ele>
        <time>2021-08-10T05:41:10.000Z</time>
      </trkpt>
      <trkpt lat="43.10383" lon="0.0879">
        <ele>518</ele>
        <time>2021-08-10T05:41:10.000Z</time>
      </trkpt>
      <trkpt lat="43.10381" lon="0.08782">
        <ele>518</ele>
        <time>2021-08-10T05:41:11.000Z</time>
      </trkpt>
      <trkpt lat="43.10378" lon="0.08774">
        <ele>518</ele>
        <time>2021-08-10T05:41:12.000Z</time>
      </trkpt>
      <trkpt lat="43.10375" lon="0.08765">
        <ele>518</ele>
        <time>2021-08-10T05:41:13.000Z</time>
      </trkpt>
      <trkpt lat="43.10371" lon="0.08759">
        <ele>518</ele>
        <time>2021-08-10T05:41:14.000Z</time>
      </trkpt>
      <trkpt lat="43.10365" lon="0.08749">
        <ele>518</ele>
        <time>2021-08-10T05:41:16.000Z</time>
      </trkpt>
      <trkpt lat="43.10357" lon="0.08741">
        <ele>518</ele>
        <time>2021-08-10T05:41:18.000Z</time>
      </trkpt>
      <trkpt lat="43.10354" lon="0.08737">
        <ele>518</ele>
        <time>2021-08-10T05:41:19.000Z</time>
      </trkpt>
      <trkpt lat="43.10349" lon="0.08733">
        <ele>519</ele>
        <time>2021-08-10T05:41:20.000Z</time>
      </trkpt>
      <trkpt lat="43.10346" lon="0.08729">
        <ele>519</ele>
        <time>2021-08-10T05:41:21.000Z</time>
      </trkpt>
      <trkpt lat="43.10337" lon="0.08723">
        <ele>519</ele>
        <time>2021-08-10T05:41:23.000Z</time>
      </trkpt>
      <trkpt lat="43.10328" lon="0.08719">
        <ele>519</ele>
        <time>2021-08-10T05:41:25.000Z</time>
      </trkpt>
      <trkpt lat="43.10323" lon="0.08717">
        <ele>518</ele>
        <time>2021-08-10T05:41:26.000Z</time>
      </trkpt>
      <trkpt lat="43.10316" lon="0.08714">
        <ele>518</ele>
        <time>2021-08-10T05:41:27.000Z</time>
      </trkpt>
      <trkpt lat="43.10309" lon="0.08713">
        <ele>517</ele>
        <time>2021-08-10T05:41:28.000Z</time>
      </trkpt>
      <trkpt lat="43.10301" lon="0.08716">
        <ele>517</ele>
        <time>2021-08-10T05:41:29.000Z</time>
      </trkpt>
      <trkpt lat="43.10295" lon="0.08716">
        <ele>516</ele>
        <time>2021-08-10T05:41:30.000Z</time>
      </trkpt>
      <trkpt lat="43.10288" lon="0.08717">
        <ele>516</ele>
        <time>2021-08-10T05:41:31.000Z</time>
      </trkpt>
      <trkpt lat="43.10278" lon="0.0872">
        <ele>515</ele>
        <time>2021-08-10T05:41:32.000Z</time>
      </trkpt>
      <trkpt lat="43.1027" lon="0.08724">
        <ele>515</ele>
        <time>2021-08-10T05:41:33.000Z</time>
      </trkpt>
      <trkpt lat="43.10263" lon="0.08731">
        <ele>513</ele>
        <time>2021-08-10T05:41:34.000Z</time>
      </trkpt>
      <trkpt lat="43.10257" lon="0.08739">
        <ele>513</ele>
        <time>2021-08-10T05:41:35.000Z</time>
      </trkpt>
      <trkpt lat="43.10252" lon="0.08747">
        <ele>513</ele>
        <time>2021-08-10T05:41:36.000Z</time>
      </trkpt>
      <trkpt lat="43.10247" lon="0.08757">
        <ele>513</ele>
        <time>2021-08-10T05:41:37.000Z</time>
      </trkpt>
      <trkpt lat="43.10243" lon="0.08765">
        <ele>513</ele>
        <time>2021-08-10T05:41:38.000Z</time>
      </trkpt>
      <trkpt lat="43.10237" lon="0.08773">
        <ele>513</ele>
        <time>2021-08-10T05:41:39.000Z</time>
      </trkpt>
      <trkpt lat="43.10232" lon="0.08776">
        <ele>513</ele>
        <time>2021-08-10T05:41:40.000Z</time>
      </trkpt>
      <trkpt lat="43.10228" lon="0.08778">
        <ele>513</ele>
        <time>2021-08-10T05:41:41.000Z</time>
      </trkpt>
      <trkpt lat="43.10219" lon="0.08779">
        <ele>514</ele>
        <time>2021-08-10T05:41:43.000Z</time>
      </trkpt>
      <trkpt lat="43.10211" lon="0.08779">
        <ele>514</ele>
        <time>2021-08-10T05:41:45.000Z</time>
      </trkpt>
      <trkpt lat="43.10206" lon="0.08778">
        <ele>514</ele>
        <time>2021-08-10T05:41:46.000Z</time>
      </trkpt>
      <trkpt lat="43.10198" lon="0.08778">
        <ele>515</ele>
        <time>2021-08-10T05:41:48.000Z</time>
      </trkpt>
      <trkpt lat="43.10189" lon="0.08779">
        <ele>515</ele>
        <time>2021-08-10T05:41:50.000Z</time>
      </trkpt>
      <trkpt lat="43.10186" lon="0.0878">
        <ele>515</ele>
        <time>2021-08-10T05:41:51.000Z</time>
      </trkpt>
      <trkpt lat="43.10178" lon="0.08781">
        <ele>515</ele>
        <time>2021-08-10T05:41:53.000Z</time>
      </trkpt>
      <trkpt lat="43.10171" lon="0.08784">
        <ele>515</ele>
        <time>2021-08-10T05:41:55.000Z</time>
      </trkpt>
      <trkpt lat="43.10164" lon="0.08792">
        <ele>515</ele>
        <time>2021-08-10T05:41:57.000Z</time>
      </trkpt>
      <trkpt lat="43.10156" lon="0.08798">
        <ele>516</ele>
        <time>2021-08-10T05:41:59.000Z</time>
      </trkpt>
      <trkpt lat="43.10149" lon="0.08803">
        <ele>516</ele>
        <time>2021-08-10T05:42:1.000Z</time>
      </trkpt>
      <trkpt lat="43.10145" lon="0.08806">
        <ele>516</ele>
        <time>2021-08-10T05:42:2.000Z</time>
      </trkpt>
      <trkpt lat="43.10138" lon="0.0881">
        <ele>517</ele>
        <time>2021-08-10T05:42:4.000Z</time>
      </trkpt>
      <trkpt lat="43.10134" lon="0.08812">
        <ele>517</ele>
        <time>2021-08-10T05:42:5.000Z</time>
      </trkpt>
      <trkpt lat="43.10128" lon="0.08814">
        <ele>518</ele>
        <time>2021-08-10T05:42:7.000Z</time>
      </trkpt>
      <trkpt lat="43.10122" lon="0.08813">
        <ele>519</ele>
        <time>2021-08-10T05:42:9.000Z</time>
      </trkpt>
      <trkpt lat="43.10116" lon="0.08812">
        <ele>519</ele>
        <time>2021-08-10T05:42:11.000Z</time>
      </trkpt>
      <trkpt lat="43.10109" lon="0.08806">
        <ele>520</ele>
        <time>2021-08-10T05:42:13.000Z</time>
      </trkpt>
      <trkpt lat="43.10104" lon="0.088">
        <ele>520</ele>
        <time>2021-08-10T05:42:15.000Z</time>
      </trkpt>
      <trkpt lat="43.10099" lon="0.08793">
        <ele>521</ele>
        <time>2021-08-10T05:42:17.000Z</time>
      </trkpt>
      <trkpt lat="43.10097" lon="0.08786">
        <ele>521</ele>
        <time>2021-08-10T05:42:19.000Z</time>
      </trkpt>
      <trkpt lat="43.10093" lon="0.08779">
        <ele>521</ele>
        <time>2021-08-10T05:42:21.000Z</time>
      </trkpt>
      <trkpt lat="43.1009" lon="0.08773">
        <ele>522</ele>
        <time>2021-08-10T05:42:23.000Z</time>
      </trkpt>
      <trkpt lat="43.10087" lon="0.08765">
        <ele>522</ele>
        <time>2021-08-10T05:42:25.000Z</time>
      </trkpt>
      <trkpt lat="43.10084" lon="0.08759">
        <ele>523</ele>
        <time>2021-08-10T05:42:27.000Z</time>
      </trkpt>
      <trkpt lat="43.10081" lon="0.08752">
        <ele>524</ele>
        <time>2021-08-10T05:42:29.000Z</time>
      </trkpt>
      <trkpt lat="43.10078" lon="0.08743">
        <ele>524</ele>
        <time>2021-08-10T05:42:31.000Z</time>
      </trkpt>
      <trkpt lat="43.10076" lon="0.08737">
        <ele>525</ele>
        <time>2021-08-10T05:42:33.000Z</time>
      </trkpt>
      <trkpt lat="43.10074" lon="0.0873">
        <ele>526</ele>
        <time>2021-08-10T05:42:35.000Z</time>
      </trkpt>
      <trkpt lat="43.10072" lon="0.08724">
        <ele>526</ele>
        <time>2021-08-10T05:42:37.000Z</time>
      </trkpt>
      <trkpt lat="43.1007" lon="0.08718">
        <ele>527</ele>
        <time>2021-08-10T05:42:39.000Z</time>
      </trkpt>
      <trkpt lat="43.10068" lon="0.08711">
        <ele>528</ele>
        <time>2021-08-10T05:42:41.000Z</time>
      </trkpt>
      <trkpt lat="43.10066" lon="0.08704">
        <ele>528</ele>
        <time>2021-08-10T05:42:43.000Z</time>
      </trkpt>
      <trkpt lat="43.10063" lon="0.08696">
        <ele>529</ele>
        <time>2021-08-10T05:42:46.000Z</time>
      </trkpt>
      <trkpt lat="43.10062" lon="0.08689">
        <ele>530</ele>
        <time>2021-08-10T05:42:49.000Z</time>
      </trkpt>
      <trkpt lat="43.10059" lon="0.0868">
        <ele>531</ele>
        <time>2021-08-10T05:42:52.000Z</time>
      </trkpt>
      <trkpt lat="43.10058" lon="0.08672">
        <ele>532</ele>
        <time>2021-08-10T05:42:55.000Z</time>
      </trkpt>
      <trkpt lat="43.10056" lon="0.08666">
        <ele>533</ele>
        <time>2021-08-10T05:42:58.000Z</time>
      </trkpt>
      <trkpt lat="43.10056" lon="0.0866">
        <ele>534</ele>
        <time>2021-08-10T05:43:1.000Z</time>
      </trkpt>
      <trkpt lat="43.10054" lon="0.08654">
        <ele>535</ele>
        <time>2021-08-10T05:43:3.000Z</time>
      </trkpt>
      <trkpt lat="43.10051" lon="0.08648">
        <ele>536</ele>
        <time>2021-08-10T05:43:6.000Z</time>
      </trkpt>
      <trkpt lat="43.10046" lon="0.08641">
        <ele>537</ele>
        <time>2021-08-10T05:43:9.000Z</time>
      </trkpt>
      <trkpt lat="43.10041" lon="0.08636">
        <ele>538</ele>
        <time>2021-08-10T05:43:12.000Z</time>
      </trkpt>
      <trkpt lat="43.10035" lon="0.08631">
        <ele>538</ele>
        <time>2021-08-10T05:43:15.000Z</time>
      </trkpt>
      <trkpt lat="43.10031" lon="0.08629">
        <ele>539</ele>
        <time>2021-08-10T05:43:17.000Z</time>
      </trkpt>
      <trkpt lat="43.10025" lon="0.08629">
        <ele>539</ele>
        <time>2021-08-10T05:43:20.000Z</time>
      </trkpt>
      <trkpt lat="43.1002" lon="0.08629">
        <ele>540</ele>
        <time>2021-08-10T05:43:22.000Z</time>
      </trkpt>
      <trkpt lat="43.10015" lon="0.0863">
        <ele>540</ele>
        <time>2021-08-10T05:43:24.000Z</time>
      </trkpt>
      <trkpt lat="43.10011" lon="0.08632">
        <ele>541</ele>
        <time>2021-08-10T05:43:26.000Z</time>
      </trkpt>
      <trkpt lat="43.10004" lon="0.08635">
        <ele>542</ele>
        <time>2021-08-10T05:43:29.000Z</time>
      </trkpt>
      <trkpt lat="43.09999" lon="0.08636">
        <ele>542</ele>
        <time>2021-08-10T05:43:31.000Z</time>
      </trkpt>
      <trkpt lat="43.09995" lon="0.08638">
        <ele>543</ele>
        <time>2021-08-10T05:43:33.000Z</time>
      </trkpt>
      <trkpt lat="43.0999" lon="0.0864">
        <ele>543</ele>
        <time>2021-08-10T05:43:35.000Z</time>
      </trkpt>
      <trkpt lat="43.09983" lon="0.08644">
        <ele>544</ele>
        <time>2021-08-10T05:43:38.000Z</time>
      </trkpt>
      <trkpt lat="43.09979" lon="0.08646">
        <ele>544</ele>
        <time>2021-08-10T05:43:40.000Z</time>
      </trkpt>
      <trkpt lat="43.09972" lon="0.08649">
        <ele>544</ele>
        <time>2021-08-10T05:43:42.000Z</time>
      </trkpt>
      <trkpt lat="43.09967" lon="0.08651">
        <ele>545</ele>
        <time>2021-08-10T05:43:44.000Z</time>
      </trkpt>
      <trkpt lat="43.09962" lon="0.08654">
        <ele>545</ele>
        <time>2021-08-10T05:43:46.000Z</time>
      </trkpt>
      <trkpt lat="43.09958" lon="0.08657">
        <ele>545</ele>
        <time>2021-08-10T05:43:48.000Z</time>
      </trkpt>
      <trkpt lat="43.09953" lon="0.08661">
        <ele>545</ele>
        <time>2021-08-10T05:43:50.000Z</time>
      </trkpt>
      <trkpt lat="43.09947" lon="0.08664">
        <ele>545</ele>
        <time>2021-08-10T05:43:52.000Z</time>
      </trkpt>
      <trkpt lat="43.09942" lon="0.08668">
        <ele>545</ele>
        <time>2021-08-10T05:43:54.000Z</time>
      </trkpt>
      <trkpt lat="43.09939" lon="0.08672">
        <ele>545</ele>
        <time>2021-08-10T05:43:56.000Z</time>
      </trkpt>
      <trkpt lat="43.09933" lon="0.08677">
        <ele>545</ele>
        <time>2021-08-10T05:43:58.000Z</time>
      </trkpt>
      <trkpt lat="43.09929" lon="0.08681">
        <ele>546</ele>
        <time>2021-08-10T05:44:0.000Z</time>
      </trkpt>
      <trkpt lat="43.09925" lon="0.08686">
        <ele>546</ele>
        <time>2021-08-10T05:44:2.000Z</time>
      </trkpt>
      <trkpt lat="43.09922" lon="0.087">
        <ele>546</ele>
        <time>2021-08-10T05:44:4.000Z</time>
      </trkpt>
      <trkpt lat="43.09918" lon="0.08708">
        <ele>547</ele>
        <time>2021-08-10T05:44:6.000Z</time>
      </trkpt>
      <trkpt lat="43.09914" lon="0.08714">
        <ele>547</ele>
        <time>2021-08-10T05:44:8.000Z</time>
      </trkpt>
      <trkpt lat="43.09911" lon="0.08722">
        <ele>547</ele>
        <time>2021-08-10T05:44:10.000Z</time>
      </trkpt>
      <trkpt lat="43.09908" lon="0.0873">
        <ele>548</ele>
        <time>2021-08-10T05:44:12.000Z</time>
      </trkpt>
      <trkpt lat="43.09905" lon="0.08737">
        <ele>548</ele>
        <time>2021-08-10T05:44:14.000Z</time>
      </trkpt>
      <trkpt lat="43.09901" lon="0.08744">
        <ele>549</ele>
        <time>2021-08-10T05:44:16.000Z</time>
      </trkpt>
      <trkpt lat="43.09897" lon="0.08749">
        <ele>549</ele>
        <time>2021-08-10T05:44:18.000Z</time>
      </trkpt>
      <trkpt lat="43.09891" lon="0.08751">
        <ele>550</ele>
        <time>2021-08-10T05:44:20.000Z</time>
      </trkpt>
      <trkpt lat="43.09885" lon="0.0875">
        <ele>550</ele>
        <time>2021-08-10T05:44:22.000Z</time>
      </trkpt>
      <trkpt lat="43.09882" lon="0.08742">
        <ele>551</ele>
        <time>2021-08-10T05:44:25.000Z</time>
      </trkpt>
      <trkpt lat="43.0988" lon="0.08736">
        <ele>551</ele>
        <time>2021-08-10T05:44:27.000Z</time>
      </trkpt>
      <trkpt lat="43.09879" lon="0.08728">
        <ele>551</ele>
        <time>2021-08-10T05:44:29.000Z</time>
      </trkpt>
      <trkpt lat="43.09879" lon="0.0872">
        <ele>551</ele>
        <time>2021-08-10T05:44:31.000Z</time>
      </trkpt>
      <trkpt lat="43.09878" lon="0.08713">
        <ele>551</ele>
        <time>2021-08-10T05:44:33.000Z</time>
      </trkpt>
      <trkpt lat="43.09879" lon="0.08704">
        <ele>552</ele>
        <time>2021-08-10T05:44:36.000Z</time>
      </trkpt>
      <trkpt lat="43.09877" lon="0.08698">
        <ele>552</ele>
        <time>2021-08-10T05:44:38.000Z</time>
      </trkpt>
      <trkpt lat="43.09875" lon="0.0869">
        <ele>552</ele>
        <time>2021-08-10T05:44:40.000Z</time>
      </trkpt>
      <trkpt lat="43.09873" lon="0.08682">
        <ele>553</ele>
        <time>2021-08-10T05:44:42.000Z</time>
      </trkpt>
      <trkpt lat="43.09869" lon="0.08675">
        <ele>553</ele>
        <time>2021-08-10T05:44:44.000Z</time>
      </trkpt>
      <trkpt lat="43.09864" lon="0.0867">
        <ele>554</ele>
        <time>2021-08-10T05:44:46.000Z</time>
      </trkpt>
      <trkpt lat="43.0986" lon="0.08665">
        <ele>554</ele>
        <time>2021-08-10T05:44:48.000Z</time>
      </trkpt>
      <trkpt lat="43.09855" lon="0.08663">
        <ele>555</ele>
        <time>2021-08-10T05:44:50.000Z</time>
      </trkpt>
      <trkpt lat="43.09848" lon="0.08662">
        <ele>555</ele>
        <time>2021-08-10T05:44:52.000Z</time>
      </trkpt>
      <trkpt lat="43.09843" lon="0.08661">
        <ele>556</ele>
        <time>2021-08-10T05:44:54.000Z</time>
      </trkpt>
      <trkpt lat="43.09837" lon="0.0866">
        <ele>556</ele>
        <time>2021-08-10T05:44:56.000Z</time>
      </trkpt>
      <trkpt lat="43.09832" lon="0.08659">
        <ele>557</ele>
        <time>2021-08-10T05:44:58.000Z</time>
      </trkpt>
      <trkpt lat="43.09827" lon="0.08659">
        <ele>557</ele>
        <time>2021-08-10T05:45:0.000Z</time>
      </trkpt>
      <trkpt lat="43.09821" lon="0.08658">
        <ele>558</ele>
        <time>2021-08-10T05:45:2.000Z</time>
      </trkpt>
      <trkpt lat="43.09815" lon="0.08658">
        <ele>558</ele>
        <time>2021-08-10T05:45:4.000Z</time>
      </trkpt>
      <trkpt lat="43.09811" lon="0.08657">
        <ele>559</ele>
        <time>2021-08-10T05:45:6.000Z</time>
      </trkpt>
      <trkpt lat="43.09806" lon="0.08656">
        <ele>559</ele>
        <time>2021-08-10T05:45:8.000Z</time>
      </trkpt>
      <trkpt lat="43.098" lon="0.08656">
        <ele>560</ele>
        <time>2021-08-10T05:45:10.000Z</time>
      </trkpt>
      <trkpt lat="43.09795" lon="0.08656">
        <ele>560</ele>
        <time>2021-08-10T05:45:12.000Z</time>
      </trkpt>
      <trkpt lat="43.0979" lon="0.08656">
        <ele>561</ele>
        <time>2021-08-10T05:45:14.000Z</time>
      </trkpt>
      <trkpt lat="43.09785" lon="0.08656">
        <ele>561</ele>
        <time>2021-08-10T05:45:16.000Z</time>
      </trkpt>
      <trkpt lat="43.09779" lon="0.08656">
        <ele>562</ele>
        <time>2021-08-10T05:45:18.000Z</time>
      </trkpt>
      <trkpt lat="43.09774" lon="0.08655">
        <ele>562</ele>
        <time>2021-08-10T05:45:20.000Z</time>
      </trkpt>
      <trkpt lat="43.09769" lon="0.08655">
        <ele>562</ele>
        <time>2021-08-10T05:45:22.000Z</time>
      </trkpt>
      <trkpt lat="43.09764" lon="0.08654">
        <ele>562</ele>
        <time>2021-08-10T05:45:24.000Z</time>
      </trkpt>
      <trkpt lat="43.09758" lon="0.08654">
        <ele>563</ele>
        <time>2021-08-10T05:45:25.000Z</time>
      </trkpt>
      <trkpt lat="43.09754" lon="0.08653">
        <ele>563</ele>
        <time>2021-08-10T05:45:27.000Z</time>
      </trkpt>
      <trkpt lat="43.09748" lon="0.08653">
        <ele>564</ele>
        <time>2021-08-10T05:45:29.000Z</time>
      </trkpt>
      <trkpt lat="43.09744" lon="0.08652">
        <ele>565</ele>
        <time>2021-08-10T05:45:31.000Z</time>
      </trkpt>
      <trkpt lat="43.0974" lon="0.08646">
        <ele>565</ele>
        <time>2021-08-10T05:45:33.000Z</time>
      </trkpt>
      <trkpt lat="43.09737" lon="0.08639">
        <ele>566</ele>
        <time>2021-08-10T05:45:35.000Z</time>
      </trkpt>
      <trkpt lat="43.09737" lon="0.08632">
        <ele>567</ele>
        <time>2021-08-10T05:45:38.000Z</time>
      </trkpt>
      <trkpt lat="43.09739" lon="0.08625">
        <ele>568</ele>
        <time>2021-08-10T05:45:41.000Z</time>
      </trkpt>
      <trkpt lat="43.09743" lon="0.08618">
        <ele>568</ele>
        <time>2021-08-10T05:45:44.000Z</time>
      </trkpt>
      <trkpt lat="43.09745" lon="0.08611">
        <ele>569</ele>
        <time>2021-08-10T05:45:47.000Z</time>
      </trkpt>
      <trkpt lat="43.09748" lon="0.08604">
        <ele>570</ele>
        <time>2021-08-10T05:45:50.000Z</time>
      </trkpt>
      <trkpt lat="43.09751" lon="0.08598">
        <ele>571</ele>
        <time>2021-08-10T05:45:52.000Z</time>
      </trkpt>
      <trkpt lat="43.09753" lon="0.08593">
        <ele>571</ele>
        <time>2021-08-10T05:45:54.000Z</time>
      </trkpt>
      <trkpt lat="43.09757" lon="0.08586">
        <ele>572</ele>
        <time>2021-08-10T05:45:57.000Z</time>
      </trkpt>
      <trkpt lat="43.0976" lon="0.08578">
        <ele>573</ele>
        <time>2021-08-10T05:46:0.000Z</time>
      </trkpt>
      <trkpt lat="43.09762" lon="0.08571">
        <ele>573</ele>
        <time>2021-08-10T05:46:3.000Z</time>
      </trkpt>
      <trkpt lat="43.09765" lon="0.08565">
        <ele>574</ele>
        <time>2021-08-10T05:46:5.000Z</time>
      </trkpt>
      <trkpt lat="43.09768" lon="0.08557">
        <ele>575</ele>
        <time>2021-08-10T05:46:8.000Z</time>
      </trkpt>
      <trkpt lat="43.09771" lon="0.08549">
        <ele>575</ele>
        <time>2021-08-10T05:46:11.000Z</time>
      </trkpt>
      <trkpt lat="43.09773" lon="0.08544">
        <ele>576</ele>
        <time>2021-08-10T05:46:13.000Z</time>
      </trkpt>
      <trkpt lat="43.09776" lon="0.0854">
        <ele>576</ele>
        <time>2021-08-10T05:46:15.000Z</time>
      </trkpt>
      <trkpt lat="43.09779" lon="0.08532">
        <ele>577</ele>
        <time>2021-08-10T05:46:18.000Z</time>
      </trkpt>
      <trkpt lat="43.09782" lon="0.08527">
        <ele>578</ele>
        <time>2021-08-10T05:46:20.000Z</time>
      </trkpt>
      <trkpt lat="43.09785" lon="0.0852">
        <ele>579</ele>
        <time>2021-08-10T05:46:23.000Z</time>
      </trkpt>
      <trkpt lat="43.09789" lon="0.08511">
        <ele>579</ele>
        <time>2021-08-10T05:46:26.000Z</time>
      </trkpt>
      <trkpt lat="43.09791" lon="0.08504">
        <ele>580</ele>
        <time>2021-08-10T05:46:28.000Z</time>
      </trkpt>
      <trkpt lat="43.09793" lon="0.08495">
        <ele>580</ele>
        <time>2021-08-10T05:46:30.000Z</time>
      </trkpt>
      <trkpt lat="43.09794" lon="0.08487">
        <ele>580</ele>
        <time>2021-08-10T05:46:32.000Z</time>
      </trkpt>
      <trkpt lat="43.09794" lon="0.08479">
        <ele>581</ele>
        <time>2021-08-10T05:46:34.000Z</time>
      </trkpt>
      <trkpt lat="43.09794" lon="0.08472">
        <ele>581</ele>
        <time>2021-08-10T05:46:36.000Z</time>
      </trkpt>
      <trkpt lat="43.09792" lon="0.08464">
        <ele>581</ele>
        <time>2021-08-10T05:46:38.000Z</time>
      </trkpt>
      <trkpt lat="43.09789" lon="0.08457">
        <ele>581</ele>
        <time>2021-08-10T05:46:40.000Z</time>
      </trkpt>
      <trkpt lat="43.09786" lon="0.08449">
        <ele>581</ele>
        <time>2021-08-10T05:46:42.000Z</time>
      </trkpt>
      <trkpt lat="43.09782" lon="0.08443">
        <ele>582</ele>
        <time>2021-08-10T05:46:44.000Z</time>
      </trkpt>
      <trkpt lat="43.09778" lon="0.08436">
        <ele>582</ele>
        <time>2021-08-10T05:46:46.000Z</time>
      </trkpt>
      <trkpt lat="43.09773" lon="0.08431">
        <ele>582</ele>
        <time>2021-08-10T05:46:48.000Z</time>
      </trkpt>
      <trkpt lat="43.09768" lon="0.08425">
        <ele>582</ele>
        <time>2021-08-10T05:46:50.000Z</time>
      </trkpt>
      <trkpt lat="43.09761" lon="0.0842">
        <ele>583</ele>
        <time>2021-08-10T05:46:52.000Z</time>
      </trkpt>
      <trkpt lat="43.09756" lon="0.08414">
        <ele>583</ele>
        <time>2021-08-10T05:46:54.000Z</time>
      </trkpt>
      <trkpt lat="43.0975" lon="0.08408">
        <ele>583</ele>
        <time>2021-08-10T05:46:56.000Z</time>
      </trkpt>
      <trkpt lat="43.09744" lon="0.08402">
        <ele>584</ele>
        <time>2021-08-10T05:46:58.000Z</time>
      </trkpt>
      <trkpt lat="43.09738" lon="0.08396">
        <ele>584</ele>
        <time>2021-08-10T05:47:0.000Z</time>
      </trkpt>
      <trkpt lat="43.09732" lon="0.0839">
        <ele>584</ele>
        <time>2021-08-10T05:47:2.000Z</time>
      </trkpt>
      <trkpt lat="43.09726" lon="0.08384">
        <ele>584</ele>
        <time>2021-08-10T05:47:4.000Z</time>
      </trkpt>
      <trkpt lat="43.09721" lon="0.08378">
        <ele>584</ele>
        <time>2021-08-10T05:47:6.000Z</time>
      </trkpt>
      <trkpt lat="43.09716" lon="0.08372">
        <ele>585</ele>
        <time>2021-08-10T05:47:8.000Z</time>
      </trkpt>
      <trkpt lat="43.0971" lon="0.08366">
        <ele>585</ele>
        <time>2021-08-10T05:47:10.000Z</time>
      </trkpt>
      <trkpt lat="43.09705" lon="0.0836">
        <ele>585</ele>
        <time>2021-08-10T05:47:12.000Z</time>
      </trkpt>
      <trkpt lat="43.09699" lon="0.08354">
        <ele>586</ele>
        <time>2021-08-10T05:47:14.000Z</time>
      </trkpt>
      <trkpt lat="43.09693" lon="0.08353">
        <ele>586</ele>
        <time>2021-08-10T05:47:16.000Z</time>
      </trkpt>
      <trkpt lat="43.09687" lon="0.08354">
        <ele>587</ele>
        <time>2021-08-10T05:47:18.000Z</time>
      </trkpt>
      <trkpt lat="43.09682" lon="0.08356">
        <ele>587</ele>
        <time>2021-08-10T05:47:20.000Z</time>
      </trkpt>
      <trkpt lat="43.09676" lon="0.08359">
        <ele>587</ele>
        <time>2021-08-10T05:47:22.000Z</time>
      </trkpt>
      <trkpt lat="43.0967" lon="0.08364">
        <ele>587</ele>
        <time>2021-08-10T05:47:24.000Z</time>
      </trkpt>
      <trkpt lat="43.09665" lon="0.08369">
        <ele>587</ele>
        <time>2021-08-10T05:47:26.000Z</time>
      </trkpt>
      <trkpt lat="43.09661" lon="0.08374">
        <ele>587</ele>
        <time>2021-08-10T05:47:28.000Z</time>
      </trkpt>
      <trkpt lat="43.09656" lon="0.08381">
        <ele>588</ele>
        <time>2021-08-10T05:47:30.000Z</time>
      </trkpt>
      <trkpt lat="43.09652" lon="0.08389">
        <ele>588</ele>
        <time>2021-08-10T05:47:32.000Z</time>
      </trkpt>
      <trkpt lat="43.09647" lon="0.08397">
        <ele>588</ele>
        <time>2021-08-10T05:47:34.000Z</time>
      </trkpt>
      <trkpt lat="43.09644" lon="0.08405">
        <ele>589</ele>
        <time>2021-08-10T05:47:36.000Z</time>
      </trkpt>
      <trkpt lat="43.0964" lon="0.08414">
        <ele>589</ele>
        <time>2021-08-10T05:47:38.000Z</time>
      </trkpt>
      <trkpt lat="43.09636" lon="0.08421">
        <ele>589</ele>
        <time>2021-08-10T05:47:40.000Z</time>
      </trkpt>
      <trkpt lat="43.09633" lon="0.08427">
        <ele>590</ele>
        <time>2021-08-10T05:47:42.000Z</time>
      </trkpt>
      <trkpt lat="43.09628" lon="0.08435">
        <ele>590</ele>
        <time>2021-08-10T05:47:44.000Z</time>
      </trkpt>
      <trkpt lat="43.09623" lon="0.08442">
        <ele>590</ele>
        <time>2021-08-10T05:47:46.000Z</time>
      </trkpt>
      <trkpt lat="43.09619" lon="0.0845">
        <ele>590</ele>
        <time>2021-08-10T05:47:48.000Z</time>
      </trkpt>
      <trkpt lat="43.09615" lon="0.08458">
        <ele>591</ele>
        <time>2021-08-10T05:47:50.000Z</time>
      </trkpt>
      <trkpt lat="43.09611" lon="0.08466">
        <ele>591</ele>
        <time>2021-08-10T05:47:52.000Z</time>
      </trkpt>
      <trkpt lat="43.09607" lon="0.08475">
        <ele>591</ele>
        <time>2021-08-10T05:47:54.000Z</time>
      </trkpt>
      <trkpt lat="43.09604" lon="0.08484">
        <ele>591</ele>
        <time>2021-08-10T05:47:56.000Z</time>
      </trkpt>
      <trkpt lat="43.096" lon="0.08494">
        <ele>591</ele>
        <time>2021-08-10T05:47:58.000Z</time>
      </trkpt>
      <trkpt lat="43.09597" lon="0.08506">
        <ele>591</ele>
        <time>2021-08-10T05:48:0.000Z</time>
      </trkpt>
      <trkpt lat="43.09593" lon="0.08517">
        <ele>591</ele>
        <time>2021-08-10T05:48:2.000Z</time>
      </trkpt>
      <trkpt lat="43.09592" lon="0.08523">
        <ele>591</ele>
        <time>2021-08-10T05:48:3.000Z</time>
      </trkpt>
      <trkpt lat="43.09589" lon="0.08535">
        <ele>592</ele>
        <time>2021-08-10T05:48:5.000Z</time>
      </trkpt>
      <trkpt lat="43.09585" lon="0.08547">
        <ele>592</ele>
        <time>2021-08-10T05:48:7.000Z</time>
      </trkpt>
      <trkpt lat="43.09582" lon="0.08559">
        <ele>592</ele>
        <time>2021-08-10T05:48:9.000Z</time>
      </trkpt>
      <trkpt lat="43.09579" lon="0.08569">
        <ele>592</ele>
        <time>2021-08-10T05:48:11.000Z</time>
      </trkpt>
      <trkpt lat="43.09578" lon="0.08576">
        <ele>592</ele>
        <time>2021-08-10T05:48:12.000Z</time>
      </trkpt>
      <trkpt lat="43.09574" lon="0.08587">
        <ele>592</ele>
        <time>2021-08-10T05:48:14.000Z</time>
      </trkpt>
      <trkpt lat="43.09572" lon="0.08597">
        <ele>592</ele>
        <time>2021-08-10T05:48:16.000Z</time>
      </trkpt>
      <trkpt lat="43.09569" lon="0.08603">
        <ele>592</ele>
        <time>2021-08-10T05:48:17.000Z</time>
      </trkpt>
      <trkpt lat="43.09566" lon="0.08607">
        <ele>592</ele>
        <time>2021-08-10T05:48:18.000Z</time>
      </trkpt>
      <trkpt lat="43.09561" lon="0.0861">
        <ele>592</ele>
        <time>2021-08-10T05:48:19.000Z</time>
      </trkpt>
      <trkpt lat="43.09556" lon="0.08611">
        <ele>592</ele>
        <time>2021-08-10T05:48:20.000Z</time>
      </trkpt>
      <trkpt lat="43.09552" lon="0.08611">
        <ele>592</ele>
        <time>2021-08-10T05:48:21.000Z</time>
      </trkpt>
      <trkpt lat="43.09547" lon="0.08609">
        <ele>592</ele>
        <time>2021-08-10T05:48:22.000Z</time>
      </trkpt>
      <trkpt lat="43.09543" lon="0.08606">
        <ele>592</ele>
        <time>2021-08-10T05:48:23.000Z</time>
      </trkpt>
      <trkpt lat="43.09534" lon="0.08597">
        <ele>592</ele>
        <time>2021-08-10T05:48:25.000Z</time>
      </trkpt>
      <trkpt lat="43.09529" lon="0.08592">
        <ele>591</ele>
        <time>2021-08-10T05:48:26.000Z</time>
      </trkpt>
      <trkpt lat="43.09525" lon="0.08585">
        <ele>591</ele>
        <time>2021-08-10T05:48:27.000Z</time>
      </trkpt>
      <trkpt lat="43.0952" lon="0.08578">
        <ele>590</ele>
        <time>2021-08-10T05:48:28.000Z</time>
      </trkpt>
      <trkpt lat="43.09517" lon="0.08572">
        <ele>590</ele>
        <time>2021-08-10T05:48:29.000Z</time>
      </trkpt>
      <trkpt lat="43.09511" lon="0.08562">
        <ele>589</ele>
        <time>2021-08-10T05:48:30.000Z</time>
      </trkpt>
      <trkpt lat="43.09505" lon="0.08553">
        <ele>588</ele>
        <time>2021-08-10T05:48:31.000Z</time>
      </trkpt>
      <trkpt lat="43.09498" lon="0.08546">
        <ele>587</ele>
        <time>2021-08-10T05:48:32.000Z</time>
      </trkpt>
      <trkpt lat="43.0949" lon="0.0854">
        <ele>586</ele>
        <time>2021-08-10T05:48:33.000Z</time>
      </trkpt>
      <trkpt lat="43.09483" lon="0.08538">
        <ele>585</ele>
        <time>2021-08-10T05:48:34.000Z</time>
      </trkpt>
      <trkpt lat="43.09473" lon="0.08537">
        <ele>584</ele>
        <time>2021-08-10T05:48:35.000Z</time>
      </trkpt>
      <trkpt lat="43.0946" lon="0.08538">
        <ele>583</ele>
        <time>2021-08-10T05:48:36.000Z</time>
      </trkpt>
      <trkpt lat="43.09452" lon="0.0854">
        <ele>583</ele>
        <time>2021-08-10T05:48:37.000Z</time>
      </trkpt>
      <trkpt lat="43.09442" lon="0.08542">
        <ele>582</ele>
        <time>2021-08-10T05:48:38.000Z</time>
      </trkpt>
      <trkpt lat="43.0943" lon="0.08545">
        <ele>582</ele>
        <time>2021-08-10T05:48:39.000Z</time>
      </trkpt>
      <trkpt lat="43.09421" lon="0.08548">
        <ele>582</ele>
        <time>2021-08-10T05:48:40.000Z</time>
      </trkpt>
      <trkpt lat="43.09412" lon="0.0855">
        <ele>581</ele>
        <time>2021-08-10T05:48:41.000Z</time>
      </trkpt>
      <trkpt lat="43.09405" lon="0.08553">
        <ele>581</ele>
        <time>2021-08-10T05:48:42.000Z</time>
      </trkpt>
      <trkpt lat="43.09396" lon="0.08555">
        <ele>581</ele>
        <time>2021-08-10T05:48:43.000Z</time>
      </trkpt>
      <trkpt lat="43.09388" lon="0.08557">
        <ele>581</ele>
        <time>2021-08-10T05:48:44.000Z</time>
      </trkpt>
      <trkpt lat="43.09379" lon="0.08559">
        <ele>581</ele>
        <time>2021-08-10T05:48:45.000Z</time>
      </trkpt>
      <trkpt lat="43.09373" lon="0.0856">
        <ele>581</ele>
        <time>2021-08-10T05:48:46.000Z</time>
      </trkpt>
      <trkpt lat="43.09365" lon="0.08561">
        <ele>581</ele>
        <time>2021-08-10T05:48:47.000Z</time>
      </trkpt>
      <trkpt lat="43.09359" lon="0.08561">
        <ele>581</ele>
        <time>2021-08-10T05:48:48.000Z</time>
      </trkpt>
      <trkpt lat="43.09354" lon="0.08561">
        <ele>582</ele>
        <time>2021-08-10T05:48:49.000Z</time>
      </trkpt>
      <trkpt lat="43.09349" lon="0.0856">
        <ele>582</ele>
        <time>2021-08-10T05:48:50.000Z</time>
      </trkpt>
      <trkpt lat="43.0934" lon="0.0856">
        <ele>583</ele>
        <time>2021-08-10T05:48:52.000Z</time>
      </trkpt>
      <trkpt lat="43.09335" lon="0.0856">
        <ele>583</ele>
        <time>2021-08-10T05:48:53.000Z</time>
      </trkpt>
      <trkpt lat="43.09326" lon="0.08559">
        <ele>584</ele>
        <time>2021-08-10T05:48:55.000Z</time>
      </trkpt>
      <trkpt lat="43.09318" lon="0.08558">
        <ele>584</ele>
        <time>2021-08-10T05:48:57.000Z</time>
      </trkpt>
      <trkpt lat="43.09312" lon="0.08546">
        <ele>585</ele>
        <time>2021-08-10T05:48:59.000Z</time>
      </trkpt>
      <trkpt lat="43.09311" lon="0.08538">
        <ele>585</ele>
        <time>2021-08-10T05:49:1.000Z</time>
      </trkpt>
      <trkpt lat="43.09313" lon="0.08531">
        <ele>586</ele>
        <time>2021-08-10T05:49:3.000Z</time>
      </trkpt>
      <trkpt lat="43.09318" lon="0.08525">
        <ele>586</ele>
        <time>2021-08-10T05:49:5.000Z</time>
      </trkpt>
      <trkpt lat="43.09324" lon="0.0852">
        <ele>587</ele>
        <time>2021-08-10T05:49:7.000Z</time>
      </trkpt>
      <trkpt lat="43.0933" lon="0.08515">
        <ele>588</ele>
        <time>2021-08-10T05:49:9.000Z</time>
      </trkpt>
      <trkpt lat="43.09336" lon="0.0851">
        <ele>588</ele>
        <time>2021-08-10T05:49:11.000Z</time>
      </trkpt>
      <trkpt lat="43.09343" lon="0.08505">
        <ele>589</ele>
        <time>2021-08-10T05:49:13.000Z</time>
      </trkpt>
      <trkpt lat="43.09348" lon="0.08501">
        <ele>589</ele>
        <time>2021-08-10T05:49:15.000Z</time>
      </trkpt>
      <trkpt lat="43.09356" lon="0.08497">
        <ele>590</ele>
        <time>2021-08-10T05:49:17.000Z</time>
      </trkpt>
      <trkpt lat="43.09362" lon="0.08493">
        <ele>590</ele>
        <time>2021-08-10T05:49:19.000Z</time>
      </trkpt>
      <trkpt lat="43.09369" lon="0.08488">
        <ele>590</ele>
        <time>2021-08-10T05:49:21.000Z</time>
      </trkpt>
      <trkpt lat="43.09374" lon="0.08482">
        <ele>591</ele>
        <time>2021-08-10T05:49:23.000Z</time>
      </trkpt>
      <trkpt lat="43.0938" lon="0.08473">
        <ele>591</ele>
        <time>2021-08-10T05:49:25.000Z</time>
      </trkpt>
      <trkpt lat="43.09385" lon="0.08466">
        <ele>591</ele>
        <time>2021-08-10T05:49:27.000Z</time>
      </trkpt>
      <trkpt lat="43.0939" lon="0.08459">
        <ele>591</ele>
        <time>2021-08-10T05:49:29.000Z</time>
      </trkpt>
      <trkpt lat="43.09396" lon="0.08452">
        <ele>591</ele>
        <time>2021-08-10T05:49:31.000Z</time>
      </trkpt>
      <trkpt lat="43.09399" lon="0.08447">
        <ele>591</ele>
        <time>2021-08-10T05:49:32.000Z</time>
      </trkpt>
      <trkpt lat="43.09404" lon="0.0844">
        <ele>591</ele>
        <time>2021-08-10T05:49:34.000Z</time>
      </trkpt>
      <trkpt lat="43.0941" lon="0.08433">
        <ele>592</ele>
        <time>2021-08-10T05:49:36.000Z</time>
      </trkpt>
      <trkpt lat="43.09415" lon="0.08425">
        <ele>592</ele>
        <time>2021-08-10T05:49:38.000Z</time>
      </trkpt>
      <trkpt lat="43.0942" lon="0.08416">
        <ele>592</ele>
        <time>2021-08-10T05:49:40.000Z</time>
      </trkpt>
      <trkpt lat="43.09423" lon="0.08406">
        <ele>592</ele>
        <time>2021-08-10T05:49:41.000Z</time>
      </trkpt>
      <trkpt lat="43.09427" lon="0.08395">
        <ele>593</ele>
        <time>2021-08-10T05:49:43.000Z</time>
      </trkpt>
      <trkpt lat="43.0943" lon="0.08385">
        <ele>593</ele>
        <time>2021-08-10T05:49:45.000Z</time>
      </trkpt>
      <trkpt lat="43.09434" lon="0.08375">
        <ele>593</ele>
        <time>2021-08-10T05:49:47.000Z</time>
      </trkpt>
      <trkpt lat="43.09438" lon="0.08366">
        <ele>594</ele>
        <time>2021-08-10T05:49:49.000Z</time>
      </trkpt>
      <trkpt lat="43.0944" lon="0.08357">
        <ele>594</ele>
        <time>2021-08-10T05:49:51.000Z</time>
      </trkpt>
      <trkpt lat="43.09443" lon="0.08348">
        <ele>594</ele>
        <time>2021-08-10T05:49:53.000Z</time>
      </trkpt>
      <trkpt lat="43.09444" lon="0.08338">
        <ele>595</ele>
        <time>2021-08-10T05:49:55.000Z</time>
      </trkpt>
      <trkpt lat="43.09446" lon="0.08328">
        <ele>595</ele>
        <time>2021-08-10T05:49:57.000Z</time>
      </trkpt>
      <trkpt lat="43.09447" lon="0.08319">
        <ele>595</ele>
        <time>2021-08-10T05:49:59.000Z</time>
      </trkpt>
      <trkpt lat="43.09447" lon="0.08311">
        <ele>596</ele>
        <time>2021-08-10T05:50:1.000Z</time>
      </trkpt>
      <trkpt lat="43.09447" lon="0.083">
        <ele>596</ele>
        <time>2021-08-10T05:50:3.000Z</time>
      </trkpt>
      <trkpt lat="43.09447" lon="0.08292">
        <ele>596</ele>
        <time>2021-08-10T05:50:5.000Z</time>
      </trkpt>
      <trkpt lat="43.09446" lon="0.08281">
        <ele>597</ele>
        <time>2021-08-10T05:50:7.000Z</time>
      </trkpt>
      <trkpt lat="43.09444" lon="0.08272">
        <ele>597</ele>
        <time>2021-08-10T05:50:9.000Z</time>
      </trkpt>
      <trkpt lat="43.09444" lon="0.08263">
        <ele>597</ele>
        <time>2021-08-10T05:50:11.000Z</time>
      </trkpt>
      <trkpt lat="43.09442" lon="0.08254">
        <ele>597</ele>
        <time>2021-08-10T05:50:13.000Z</time>
      </trkpt>
      <trkpt lat="43.09441" lon="0.08245">
        <ele>598</ele>
        <time>2021-08-10T05:50:15.000Z</time>
      </trkpt>
      <trkpt lat="43.0944" lon="0.08238">
        <ele>598</ele>
        <time>2021-08-10T05:50:17.000Z</time>
      </trkpt>
      <trkpt lat="43.09438" lon="0.0823">
        <ele>599</ele>
        <time>2021-08-10T05:50:19.000Z</time>
      </trkpt>
      <trkpt lat="43.09436" lon="0.08221">
        <ele>599</ele>
        <time>2021-08-10T05:50:21.000Z</time>
      </trkpt>
      <trkpt lat="43.09435" lon="0.08214">
        <ele>600</ele>
        <time>2021-08-10T05:50:23.000Z</time>
      </trkpt>
      <trkpt lat="43.0942" lon="0.08208">
        <ele>601</ele>
        <time>2021-08-10T05:50:25.000Z</time>
      </trkpt>
      <trkpt lat="43.09415" lon="0.08204">
        <ele>601</ele>
        <time>2021-08-10T05:50:27.000Z</time>
      </trkpt>
      <trkpt lat="43.09411" lon="0.08201">
        <ele>602</ele>
        <time>2021-08-10T05:50:29.000Z</time>
      </trkpt>
      <trkpt lat="43.09405" lon="0.08201">
        <ele>603</ele>
        <time>2021-08-10T05:50:31.000Z</time>
      </trkpt>
      <trkpt lat="43.094" lon="0.08202">
        <ele>603</ele>
        <time>2021-08-10T05:50:33.000Z</time>
      </trkpt>
      <trkpt lat="43.09396" lon="0.08204">
        <ele>604</ele>
        <time>2021-08-10T05:50:35.000Z</time>
      </trkpt>
      <trkpt lat="43.09391" lon="0.08205">
        <ele>605</ele>
        <time>2021-08-10T05:50:37.000Z</time>
      </trkpt>
      <trkpt lat="43.09386" lon="0.08206">
        <ele>605</ele>
        <time>2021-08-10T05:50:39.000Z</time>
      </trkpt>
      <trkpt lat="43.09381" lon="0.08208">
        <ele>606</ele>
        <time>2021-08-10T05:50:41.000Z</time>
      </trkpt>
      <trkpt lat="43.09377" lon="0.0821">
        <ele>606</ele>
        <time>2021-08-10T05:50:43.000Z</time>
      </trkpt>
      <trkpt lat="43.09372" lon="0.08212">
        <ele>607</ele>
        <time>2021-08-10T05:50:45.000Z</time>
      </trkpt>
      <trkpt lat="43.09367" lon="0.08214">
        <ele>607</ele>
        <time>2021-08-10T05:50:47.000Z</time>
      </trkpt>
      <trkpt lat="43.09362" lon="0.08216">
        <ele>608</ele>
        <time>2021-08-10T05:50:49.000Z</time>
      </trkpt>
      <trkpt lat="43.09358" lon="0.08218">
        <ele>608</ele>
        <time>2021-08-10T05:50:51.000Z</time>
      </trkpt>
      <trkpt lat="43.09354" lon="0.0822">
        <ele>609</ele>
        <time>2021-08-10T05:50:53.000Z</time>
      </trkpt>
      <trkpt lat="43.09348" lon="0.08222">
        <ele>609</ele>
        <time>2021-08-10T05:50:55.000Z</time>
      </trkpt>
      <trkpt lat="43.09342" lon="0.08225">
        <ele>609</ele>
        <time>2021-08-10T05:50:58.000Z</time>
      </trkpt>
      <trkpt lat="43.09336" lon="0.08228">
        <ele>610</ele>
        <time>2021-08-10T05:51:1.000Z</time>
      </trkpt>
      <trkpt lat="43.09331" lon="0.0823">
        <ele>610</ele>
        <time>2021-08-10T05:51:3.000Z</time>
      </trkpt>
      <trkpt lat="43.09326" lon="0.08232">
        <ele>611</ele>
        <time>2021-08-10T05:51:5.000Z</time>
      </trkpt>
      <trkpt lat="43.09322" lon="0.08234">
        <ele>612</ele>
        <time>2021-08-10T05:51:7.000Z</time>
      </trkpt>
      <trkpt lat="43.09317" lon="0.08236">
        <ele>612</ele>
        <time>2021-08-10T05:51:9.000Z</time>
      </trkpt>
      <trkpt lat="43.09312" lon="0.08239">
        <ele>613</ele>
        <time>2021-08-10T05:51:12.000Z</time>
      </trkpt>
      <trkpt lat="43.09305" lon="0.08242">
        <ele>614</ele>
        <time>2021-08-10T05:51:15.000Z</time>
      </trkpt>
      <trkpt lat="43.09301" lon="0.08244">
        <ele>615</ele>
        <time>2021-08-10T05:51:17.000Z</time>
      </trkpt>
      <trkpt lat="43.09297" lon="0.08247">
        <ele>615</ele>
        <time>2021-08-10T05:51:19.000Z</time>
      </trkpt>
      <trkpt lat="43.0929" lon="0.0825">
        <ele>616</ele>
        <time>2021-08-10T05:51:22.000Z</time>
      </trkpt>
      <trkpt lat="43.09285" lon="0.08253">
        <ele>617</ele>
        <time>2021-08-10T05:51:25.000Z</time>
      </trkpt>
      <trkpt lat="43.09279" lon="0.08256">
        <ele>617</ele>
        <time>2021-08-10T05:51:28.000Z</time>
      </trkpt>
      <trkpt lat="43.09275" lon="0.08259">
        <ele>617</ele>
        <time>2021-08-10T05:51:30.000Z</time>
      </trkpt>
      <trkpt lat="43.09269" lon="0.08263">
        <ele>618</ele>
        <time>2021-08-10T05:51:33.000Z</time>
      </trkpt>
      <trkpt lat="43.09264" lon="0.08265">
        <ele>619</ele>
        <time>2021-08-10T05:51:35.000Z</time>
      </trkpt>
      <trkpt lat="43.0926" lon="0.08268">
        <ele>619</ele>
        <time>2021-08-10T05:51:37.000Z</time>
      </trkpt>
      <trkpt lat="43.09253" lon="0.08271">
        <ele>620</ele>
        <time>2021-08-10T05:51:40.000Z</time>
      </trkpt>
      <trkpt lat="43.09248" lon="0.08275">
        <ele>620</ele>
        <time>2021-08-10T05:51:43.000Z</time>
      </trkpt>
      <trkpt lat="43.09243" lon="0.08278">
        <ele>620</ele>
        <time>2021-08-10T05:51:45.000Z</time>
      </trkpt>
      <trkpt lat="43.09239" lon="0.0828">
        <ele>620</ele>
        <time>2021-08-10T05:51:47.000Z</time>
      </trkpt>
      <trkpt lat="43.09234" lon="0.08284">
        <ele>621</ele>
        <time>2021-08-10T05:51:49.000Z</time>
      </trkpt>
      <trkpt lat="43.09229" lon="0.08287">
        <ele>621</ele>
        <time>2021-08-10T05:51:51.000Z</time>
      </trkpt>
      <trkpt lat="43.09223" lon="0.0829">
        <ele>621</ele>
        <time>2021-08-10T05:51:53.000Z</time>
      </trkpt>
      <trkpt lat="43.09218" lon="0.08293">
        <ele>621</ele>
        <time>2021-08-10T05:51:55.000Z</time>
      </trkpt>
      <trkpt lat="43.09213" lon="0.08296">
        <ele>621</ele>
        <time>2021-08-10T05:51:57.000Z</time>
      </trkpt>
      <trkpt lat="43.09207" lon="0.083">
        <ele>621</ele>
        <time>2021-08-10T05:51:59.000Z</time>
      </trkpt>
      <trkpt lat="43.09201" lon="0.08303">
        <ele>622</ele>
        <time>2021-08-10T05:52:1.000Z</time>
      </trkpt>
      <trkpt lat="43.09195" lon="0.08306">
        <ele>622</ele>
        <time>2021-08-10T05:52:3.000Z</time>
      </trkpt>
      <trkpt lat="43.09189" lon="0.0831">
        <ele>622</ele>
        <time>2021-08-10T05:52:5.000Z</time>
      </trkpt>
      <trkpt lat="43.09184" lon="0.08312">
        <ele>622</ele>
        <time>2021-08-10T05:52:7.000Z</time>
      </trkpt>
      <trkpt lat="43.09179" lon="0.08315">
        <ele>622</ele>
        <time>2021-08-10T05:52:9.000Z</time>
      </trkpt>
      <trkpt lat="43.09174" lon="0.08318">
        <ele>623</ele>
        <time>2021-08-10T05:52:11.000Z</time>
      </trkpt>
      <trkpt lat="43.09168" lon="0.08321">
        <ele>623</ele>
        <time>2021-08-10T05:52:13.000Z</time>
      </trkpt>
      <trkpt lat="43.09163" lon="0.08324">
        <ele>623</ele>
        <time>2021-08-10T05:52:15.000Z</time>
      </trkpt>
      <trkpt lat="43.09157" lon="0.08327">
        <ele>624</ele>
        <time>2021-08-10T05:52:17.000Z</time>
      </trkpt>
      <trkpt lat="43.09153" lon="0.08329">
        <ele>624</ele>
        <time>2021-08-10T05:52:19.000Z</time>
      </trkpt>
      <trkpt lat="43.09146" lon="0.08333">
        <ele>625</ele>
        <time>2021-08-10T05:52:22.000Z</time>
      </trkpt>
      <trkpt lat="43.0914" lon="0.08335">
        <ele>625</ele>
        <time>2021-08-10T05:52:24.000Z</time>
      </trkpt>
      <trkpt lat="43.09136" lon="0.08338">
        <ele>626</ele>
        <time>2021-08-10T05:52:26.000Z</time>
      </trkpt>
      <trkpt lat="43.09131" lon="0.0834">
        <ele>626</ele>
        <time>2021-08-10T05:52:28.000Z</time>
      </trkpt>
      <trkpt lat="43.09127" lon="0.08343">
        <ele>627</ele>
        <time>2021-08-10T05:52:30.000Z</time>
      </trkpt>
      <trkpt lat="43.09121" lon="0.08345">
        <ele>627</ele>
        <time>2021-08-10T05:52:32.000Z</time>
      </trkpt>
      <trkpt lat="43.09116" lon="0.08347">
        <ele>628</ele>
        <time>2021-08-10T05:52:34.000Z</time>
      </trkpt>
      <trkpt lat="43.09111" lon="0.08349">
        <ele>628</ele>
        <time>2021-08-10T05:52:36.000Z</time>
      </trkpt>
      <trkpt lat="43.09106" lon="0.08351">
        <ele>629</ele>
        <time>2021-08-10T05:52:38.000Z</time>
      </trkpt>
      <trkpt lat="43.09101" lon="0.08353">
        <ele>629</ele>
        <time>2021-08-10T05:52:40.000Z</time>
      </trkpt>
      <trkpt lat="43.09096" lon="0.08354">
        <ele>630</ele>
        <time>2021-08-10T05:52:42.000Z</time>
      </trkpt>
      <trkpt lat="43.09091" lon="0.08355">
        <ele>630</ele>
        <time>2021-08-10T05:52:44.000Z</time>
      </trkpt>
      <trkpt lat="43.09086" lon="0.08356">
        <ele>630</ele>
        <time>2021-08-10T05:52:46.000Z</time>
      </trkpt>
      <trkpt lat="43.09082" lon="0.08329">
        <ele>631</ele>
        <time>2021-08-10T05:52:49.000Z</time>
      </trkpt>
      <trkpt lat="43.09082" lon="0.08321">
        <ele>631</ele>
        <time>2021-08-10T05:52:51.000Z</time>
      </trkpt>
      <trkpt lat="43.09085" lon="0.08314">
        <ele>631</ele>
        <time>2021-08-10T05:52:53.000Z</time>
      </trkpt>
      <trkpt lat="43.0909" lon="0.08304">
        <ele>631</ele>
        <time>2021-08-10T05:52:55.000Z</time>
      </trkpt>
      <trkpt lat="43.09092" lon="0.08299">
        <ele>631</ele>
        <time>2021-08-10T05:52:56.000Z</time>
      </trkpt>
      <trkpt lat="43.09095" lon="0.08293">
        <ele>631</ele>
        <time>2021-08-10T05:52:57.000Z</time>
      </trkpt>
      <trkpt lat="43.091" lon="0.08284">
        <ele>631</ele>
        <time>2021-08-10T05:52:59.000Z</time>
      </trkpt>
      <trkpt lat="43.09104" lon="0.08276">
        <ele>631</ele>
        <time>2021-08-10T05:53:1.000Z</time>
      </trkpt>
      <trkpt lat="43.09108" lon="0.0827">
        <ele>631</ele>
        <time>2021-08-10T05:53:3.000Z</time>
      </trkpt>
      <trkpt lat="43.09112" lon="0.08264">
        <ele>631</ele>
        <time>2021-08-10T05:53:5.000Z</time>
      </trkpt>
      <trkpt lat="43.09116" lon="0.08258">
        <ele>631</ele>
        <time>2021-08-10T05:53:7.000Z</time>
      </trkpt>
      <trkpt lat="43.0912" lon="0.0825">
        <ele>631</ele>
        <time>2021-08-10T05:53:9.000Z</time>
      </trkpt>
      <trkpt lat="43.09125" lon="0.08242">
        <ele>631</ele>
        <time>2021-08-10T05:53:11.000Z</time>
      </trkpt>
      <trkpt lat="43.09128" lon="0.08234">
        <ele>631</ele>
        <time>2021-08-10T05:53:13.000Z</time>
      </trkpt>
      <trkpt lat="43.09133" lon="0.08225">
        <ele>631</ele>
        <time>2021-08-10T05:53:15.000Z</time>
      </trkpt>
      <trkpt lat="43.09135" lon="0.08219">
        <ele>631</ele>
        <time>2021-08-10T05:53:17.000Z</time>
      </trkpt>
      <trkpt lat="43.0914" lon="0.08211">
        <ele>631</ele>
        <time>2021-08-10T05:53:19.000Z</time>
      </trkpt>
      <trkpt lat="43.09137" lon="0.08202">
        <ele>631</ele>
        <time>2021-08-10T05:53:21.000Z</time>
      </trkpt>
      <trkpt lat="43.09137" lon="0.08192">
        <ele>631</ele>
        <time>2021-08-10T05:53:23.000Z</time>
      </trkpt>
      <trkpt lat="43.09136" lon="0.08181">
        <ele>631</ele>
        <time>2021-08-10T05:53:25.000Z</time>
      </trkpt>
      <trkpt lat="43.09133" lon="0.0817">
        <ele>631</ele>
        <time>2021-08-10T05:53:27.000Z</time>
      </trkpt>
      <trkpt lat="43.0913" lon="0.08162">
        <ele>631</ele>
        <time>2021-08-10T05:53:28.000Z</time>
      </trkpt>
      <trkpt lat="43.09127" lon="0.08157">
        <ele>631</ele>
        <time>2021-08-10T05:53:29.000Z</time>
      </trkpt>
      <trkpt lat="43.09122" lon="0.08149">
        <ele>630</ele>
        <time>2021-08-10T05:53:30.000Z</time>
      </trkpt>
      <trkpt lat="43.09119" lon="0.08145">
        <ele>630</ele>
        <time>2021-08-10T05:53:31.000Z</time>
      </trkpt>
      <trkpt lat="43.09114" lon="0.08139">
        <ele>630</ele>
        <time>2021-08-10T05:53:32.000Z</time>
      </trkpt>
      <trkpt lat="43.09108" lon="0.08134">
        <ele>629</ele>
        <time>2021-08-10T05:53:33.000Z</time>
      </trkpt>
      <trkpt lat="43.09103" lon="0.08129">
        <ele>629</ele>
        <time>2021-08-10T05:53:34.000Z</time>
      </trkpt>
      <trkpt lat="43.09097" lon="0.08124">
        <ele>629</ele>
        <time>2021-08-10T05:53:35.000Z</time>
      </trkpt>
      <trkpt lat="43.09089" lon="0.08118">
        <ele>629</ele>
        <time>2021-08-10T05:53:36.000Z</time>
      </trkpt>
      <trkpt lat="43.09084" lon="0.08114">
        <ele>628</ele>
        <time>2021-08-10T05:53:37.000Z</time>
      </trkpt>
      <trkpt lat="43.09079" lon="0.0811">
        <ele>628</ele>
        <time>2021-08-10T05:53:38.000Z</time>
      </trkpt>
      <trkpt lat="43.09073" lon="0.08106">
        <ele>628</ele>
        <time>2021-08-10T05:53:39.000Z</time>
      </trkpt>
      <trkpt lat="43.09067" lon="0.08101">
        <ele>628</ele>
        <time>2021-08-10T05:53:40.000Z</time>
      </trkpt>
      <trkpt lat="43.09062" lon="0.08098">
        <ele>628</ele>
        <time>2021-08-10T05:53:41.000Z</time>
      </trkpt>
      <trkpt lat="43.09057" lon="0.08095">
        <ele>628</ele>
        <time>2021-08-10T05:53:42.000Z</time>
      </trkpt>
      <trkpt lat="43.09052" lon="0.08091">
        <ele>628</ele>
        <time>2021-08-10T05:53:43.000Z</time>
      </trkpt>
      <trkpt lat="43.09048" lon="0.08088">
        <ele>628</ele>
        <time>2021-08-10T05:53:44.000Z</time>
      </trkpt>
      <trkpt lat="43.09046" lon="0.08085">
        <ele>628</ele>
        <time>2021-08-10T05:53:45.000Z</time>
      </trkpt>
      <trkpt lat="43.09045" lon="0.08075">
        <ele>628</ele>
        <time>2021-08-10T05:53:46.000Z</time>
      </trkpt>
      <trkpt lat="43.09047" lon="0.08065">
        <ele>628</ele>
        <time>2021-08-10T05:53:48.000Z</time>
      </trkpt>
      <trkpt lat="43.0905" lon="0.08056">
        <ele>628</ele>
        <time>2021-08-10T05:53:50.000Z</time>
      </trkpt>
      <trkpt lat="43.09053" lon="0.08051">
        <ele>628</ele>
        <time>2021-08-10T05:53:51.000Z</time>
      </trkpt>
      <trkpt lat="43.09058" lon="0.08045">
        <ele>628</ele>
        <time>2021-08-10T05:53:53.000Z</time>
      </trkpt>
      <trkpt lat="43.09062" lon="0.08041">
        <ele>629</ele>
        <time>2021-08-10T05:53:54.000Z</time>
      </trkpt>
      <trkpt lat="43.09067" lon="0.08034">
        <ele>629</ele>
        <time>2021-08-10T05:53:55.000Z</time>
      </trkpt>
      <trkpt lat="43.09073" lon="0.08026">
        <ele>630</ele>
        <time>2021-08-10T05:53:57.000Z</time>
      </trkpt>
      <trkpt lat="43.09076" lon="0.08019">
        <ele>630</ele>
        <time>2021-08-10T05:53:59.000Z</time>
      </trkpt>
      <trkpt lat="43.09081" lon="0.08012">
        <ele>631</ele>
        <time>2021-08-10T05:54:1.000Z</time>
      </trkpt>
      <trkpt lat="43.09084" lon="0.08007">
        <ele>631</ele>
        <time>2021-08-10T05:54:3.000Z</time>
      </trkpt>
      <trkpt lat="43.09088" lon="0.08">
        <ele>632</ele>
        <time>2021-08-10T05:54:5.000Z</time>
      </trkpt>
      <trkpt lat="43.09091" lon="0.07996">
        <ele>633</ele>
        <time>2021-08-10T05:54:7.000Z</time>
      </trkpt>
      <trkpt lat="43.09094" lon="0.07991">
        <ele>633</ele>
        <time>2021-08-10T05:54:9.000Z</time>
      </trkpt>
      <trkpt lat="43.09098" lon="0.07987">
        <ele>634</ele>
        <time>2021-08-10T05:54:11.000Z</time>
      </trkpt>
      <trkpt lat="43.09103" lon="0.07981">
        <ele>635</ele>
        <time>2021-08-10T05:54:14.000Z</time>
      </trkpt>
      <trkpt lat="43.09108" lon="0.07977">
        <ele>636</ele>
        <time>2021-08-10T05:54:16.000Z</time>
      </trkpt>
      <trkpt lat="43.09111" lon="0.07974">
        <ele>636</ele>
        <time>2021-08-10T05:54:18.000Z</time>
      </trkpt>
      <trkpt lat="43.09117" lon="0.0797">
        <ele>637</ele>
        <time>2021-08-10T05:54:21.000Z</time>
      </trkpt>
      <trkpt lat="43.09121" lon="0.07967">
        <ele>638</ele>
        <time>2021-08-10T05:54:23.000Z</time>
      </trkpt>
      <trkpt lat="43.09127" lon="0.07964">
        <ele>639</ele>
        <time>2021-08-10T05:54:26.000Z</time>
      </trkpt>
      <trkpt lat="43.09132" lon="0.0796">
        <ele>640</ele>
        <time>2021-08-10T05:54:29.000Z</time>
      </trkpt>
      <trkpt lat="43.09136" lon="0.07954">
        <ele>641</ele>
        <time>2021-08-10T05:54:32.000Z</time>
      </trkpt>
      <trkpt lat="43.09137" lon="0.07947">
        <ele>641</ele>
        <time>2021-08-10T05:54:35.000Z</time>
      </trkpt>
      <trkpt lat="43.09137" lon="0.07938">
        <ele>642</ele>
        <time>2021-08-10T05:54:38.000Z</time>
      </trkpt>
      <trkpt lat="43.09135" lon="0.07929">
        <ele>643</ele>
        <time>2021-08-10T05:54:41.000Z</time>
      </trkpt>
      <trkpt lat="43.09132" lon="0.07921">
        <ele>643</ele>
        <time>2021-08-10T05:54:44.000Z</time>
      </trkpt>
      <trkpt lat="43.0913" lon="0.07914">
        <ele>644</ele>
        <time>2021-08-10T05:54:47.000Z</time>
      </trkpt>
      <trkpt lat="43.09127" lon="0.07908">
        <ele>645</ele>
        <time>2021-08-10T05:54:49.000Z</time>
      </trkpt>
      <trkpt lat="43.09125" lon="0.079">
        <ele>645</ele>
        <time>2021-08-10T05:54:52.000Z</time>
      </trkpt>
      <trkpt lat="43.09123" lon="0.07895">
        <ele>646</ele>
        <time>2021-08-10T05:54:54.000Z</time>
      </trkpt>
      <trkpt lat="43.09119" lon="0.07887">
        <ele>646</ele>
        <time>2021-08-10T05:54:57.000Z</time>
      </trkpt>
      <trkpt lat="43.09116" lon="0.0788">
        <ele>647</ele>
        <time>2021-08-10T05:55:0.000Z</time>
      </trkpt>
      <trkpt lat="43.09113" lon="0.07872">
        <ele>648</ele>
        <time>2021-08-10T05:55:3.000Z</time>
      </trkpt>
      <trkpt lat="43.0911" lon="0.07866">
        <ele>648</ele>
        <time>2021-08-10T05:55:5.000Z</time>
      </trkpt>
      <trkpt lat="43.09108" lon="0.07859">
        <ele>649</ele>
        <time>2021-08-10T05:55:7.000Z</time>
      </trkpt>
      <trkpt lat="43.09106" lon="0.07851">
        <ele>649</ele>
        <time>2021-08-10T05:55:9.000Z</time>
      </trkpt>
      <trkpt lat="43.09104" lon="0.07843">
        <ele>649</ele>
        <time>2021-08-10T05:55:11.000Z</time>
      </trkpt>
      <trkpt lat="43.09102" lon="0.07835">
        <ele>650</ele>
        <time>2021-08-10T05:55:13.000Z</time>
      </trkpt>
      <trkpt lat="43.091" lon="0.07826">
        <ele>650</ele>
        <time>2021-08-10T05:55:15.000Z</time>
      </trkpt>
      <trkpt lat="43.09098" lon="0.07817">
        <ele>650</ele>
        <time>2021-08-10T05:55:17.000Z</time>
      </trkpt>
      <trkpt lat="43.09096" lon="0.07809">
        <ele>650</ele>
        <time>2021-08-10T05:55:19.000Z</time>
      </trkpt>
      <trkpt lat="43.09094" lon="0.07802">
        <ele>650</ele>
        <time>2021-08-10T05:55:21.000Z</time>
      </trkpt>
      <trkpt lat="43.09092" lon="0.07794">
        <ele>650</ele>
        <time>2021-08-10T05:55:23.000Z</time>
      </trkpt>
      <trkpt lat="43.0909" lon="0.07786">
        <ele>650</ele>
        <time>2021-08-10T05:55:25.000Z</time>
      </trkpt>
      <trkpt lat="43.09087" lon="0.07777">
        <ele>650</ele>
        <time>2021-08-10T05:55:27.000Z</time>
      </trkpt>
      <trkpt lat="43.09085" lon="0.0777">
        <ele>650</ele>
        <time>2021-08-10T05:55:29.000Z</time>
      </trkpt>
      <trkpt lat="43.09083" lon="0.07765">
        <ele>650</ele>
        <time>2021-08-10T05:55:30.000Z</time>
      </trkpt>
      <trkpt lat="43.0908" lon="0.07757">
        <ele>650</ele>
        <time>2021-08-10T05:55:32.000Z</time>
      </trkpt>
      <trkpt lat="43.09068" lon="0.07751">
        <ele>650</ele>
        <time>2021-08-10T05:55:34.000Z</time>
      </trkpt>
      <trkpt lat="43.09062" lon="0.07746">
        <ele>650</ele>
        <time>2021-08-10T05:55:36.000Z</time>
      </trkpt>
      <trkpt lat="43.09056" lon="0.07743">
        <ele>650</ele>
        <time>2021-08-10T05:55:38.000Z</time>
      </trkpt>
      <trkpt lat="43.09049" lon="0.0774">
        <ele>650</ele>
        <time>2021-08-10T05:55:40.000Z</time>
      </trkpt>
      <trkpt lat="43.09043" lon="0.07739">
        <ele>650</ele>
        <time>2021-08-10T05:55:42.000Z</time>
      </trkpt>
      <trkpt lat="43.09036" lon="0.07739">
        <ele>650</ele>
        <time>2021-08-10T05:55:44.000Z</time>
      </trkpt>
      <trkpt lat="43.09029" lon="0.07739">
        <ele>650</ele>
        <time>2021-08-10T05:55:46.000Z</time>
      </trkpt>
      <trkpt lat="43.09023" lon="0.07739">
        <ele>650</ele>
        <time>2021-08-10T05:55:48.000Z</time>
      </trkpt>
      <trkpt lat="43.09016" lon="0.0774">
        <ele>652</ele>
        <time>2021-08-10T05:55:50.000Z</time>
      </trkpt>
      <trkpt lat="43.0901" lon="0.07741">
        <ele>652</ele>
        <time>2021-08-10T05:55:52.000Z</time>
      </trkpt>
      <trkpt lat="43.09005" lon="0.07742">
        <ele>652</ele>
        <time>2021-08-10T05:55:54.000Z</time>
      </trkpt>
      <trkpt lat="43.09" lon="0.07744">
        <ele>652</ele>
        <time>2021-08-10T05:55:56.000Z</time>
      </trkpt>
      <trkpt lat="43.08995" lon="0.07746">
        <ele>653</ele>
        <time>2021-08-10T05:55:58.000Z</time>
      </trkpt>
      <trkpt lat="43.08989" lon="0.07748">
        <ele>653</ele>
        <time>2021-08-10T05:56:1.000Z</time>
      </trkpt>
      <trkpt lat="43.08984" lon="0.07751">
        <ele>654</ele>
        <time>2021-08-10T05:56:4.000Z</time>
      </trkpt>
      <trkpt lat="43.08979" lon="0.07754">
        <ele>655</ele>
        <time>2021-08-10T05:56:7.000Z</time>
      </trkpt>
      <trkpt lat="43.08975" lon="0.07757">
        <ele>656</ele>
        <time>2021-08-10T05:56:10.000Z</time>
      </trkpt>
      <trkpt lat="43.08971" lon="0.07761">
        <ele>656</ele>
        <time>2021-08-10T05:56:12.000Z</time>
      </trkpt>
      <trkpt lat="43.08967" lon="0.07764">
        <ele>657</ele>
        <time>2021-08-10T05:56:14.000Z</time>
      </trkpt>
      <trkpt lat="43.08962" lon="0.07768">
        <ele>658</ele>
        <time>2021-08-10T05:56:16.000Z</time>
      </trkpt>
      <trkpt lat="43.08957" lon="0.07772">
        <ele>659</ele>
        <time>2021-08-10T05:56:19.000Z</time>
      </trkpt>
      <trkpt lat="43.08952" lon="0.07776">
        <ele>660</ele>
        <time>2021-08-10T05:56:22.000Z</time>
      </trkpt>
      <trkpt lat="43.08947" lon="0.0778">
        <ele>661</ele>
        <time>2021-08-10T05:56:25.000Z</time>
      </trkpt>
      <trkpt lat="43.08941" lon="0.07784">
        <ele>662</ele>
        <time>2021-08-10T05:56:28.000Z</time>
      </trkpt>
      <trkpt lat="43.08937" lon="0.07788">
        <ele>663</ele>
        <time>2021-08-10T05:56:31.000Z</time>
      </trkpt>
      <trkpt lat="43.08932" lon="0.07792">
        <ele>664</ele>
        <time>2021-08-10T05:56:34.000Z</time>
      </trkpt>
      <trkpt lat="43.08927" lon="0.07796">
        <ele>664</ele>
        <time>2021-08-10T05:56:37.000Z</time>
      </trkpt>
      <trkpt lat="43.08921" lon="0.078">
        <ele>665</ele>
        <time>2021-08-10T05:56:40.000Z</time>
      </trkpt>
      <trkpt lat="43.08916" lon="0.07804">
        <ele>666</ele>
        <time>2021-08-10T05:56:43.000Z</time>
      </trkpt>
      <trkpt lat="43.08912" lon="0.07808">
        <ele>667</ele>
        <time>2021-08-10T05:56:46.000Z</time>
      </trkpt>
      <trkpt lat="43.08907" lon="0.07811">
        <ele>667</ele>
        <time>2021-08-10T05:56:49.000Z</time>
      </trkpt>
      <trkpt lat="43.08902" lon="0.07814">
        <ele>668</ele>
        <time>2021-08-10T05:56:52.000Z</time>
      </trkpt>
      <trkpt lat="43.08897" lon="0.07817">
        <ele>668</ele>
        <time>2021-08-10T05:56:55.000Z</time>
      </trkpt>
      <trkpt lat="43.08892" lon="0.0782">
        <ele>669</ele>
        <time>2021-08-10T05:56:58.000Z</time>
      </trkpt>
      <trkpt lat="43.08888" lon="0.07823">
        <ele>669</ele>
        <time>2021-08-10T05:57:1.000Z</time>
      </trkpt>
      <trkpt lat="43.08882" lon="0.07825">
        <ele>670</ele>
        <time>2021-08-10T05:57:4.000Z</time>
      </trkpt>
      <trkpt lat="43.08877" lon="0.07815">
        <ele>671</ele>
        <time>2021-08-10T05:57:7.000Z</time>
      </trkpt>
      <trkpt lat="43.08873" lon="0.07811">
        <ele>672</ele>
        <time>2021-08-10T05:57:10.000Z</time>
      </trkpt>
      <trkpt lat="43.08867" lon="0.07808">
        <ele>673</ele>
        <time>2021-08-10T05:57:13.000Z</time>
      </trkpt>
      <trkpt lat="43.08862" lon="0.07805">
        <ele>674</ele>
        <time>2021-08-10T05:57:16.000Z</time>
      </trkpt>
      <trkpt lat="43.08857" lon="0.07802">
        <ele>674</ele>
        <time>2021-08-10T05:57:19.000Z</time>
      </trkpt>
      <trkpt lat="43.08852" lon="0.078">
        <ele>675</ele>
        <time>2021-08-10T05:57:22.000Z</time>
      </trkpt>
      <trkpt lat="43.08847" lon="0.07799">
        <ele>676</ele>
        <time>2021-08-10T05:57:25.000Z</time>
      </trkpt>
      <trkpt lat="43.08841" lon="0.07803">
        <ele>677</ele>
        <time>2021-08-10T05:57:28.000Z</time>
      </trkpt>
      <trkpt lat="43.08836" lon="0.07804">
        <ele>677</ele>
        <time>2021-08-10T05:57:31.000Z</time>
      </trkpt>
      <trkpt lat="43.08832" lon="0.07806">
        <ele>678</ele>
        <time>2021-08-10T05:57:34.000Z</time>
      </trkpt>
      <trkpt lat="43.08828" lon="0.0781">
        <ele>679</ele>
        <time>2021-08-10T05:57:37.000Z</time>
      </trkpt>
      <trkpt lat="43.08823" lon="0.07814">
        <ele>680</ele>
        <time>2021-08-10T05:57:40.000Z</time>
      </trkpt>
      <trkpt lat="43.0882" lon="0.07818">
        <ele>680</ele>
        <time>2021-08-10T05:57:43.000Z</time>
      </trkpt>
      <trkpt lat="43.08815" lon="0.07823">
        <ele>681</ele>
        <time>2021-08-10T05:57:47.000Z</time>
      </trkpt>
      <trkpt lat="43.0881" lon="0.07828">
        <ele>682</ele>
        <time>2021-08-10T05:57:50.000Z</time>
      </trkpt>
      <trkpt lat="43.08807" lon="0.07832">
        <ele>683</ele>
        <time>2021-08-10T05:57:53.000Z</time>
      </trkpt>
      <trkpt lat="43.08802" lon="0.07837">
        <ele>683</ele>
        <time>2021-08-10T05:57:56.000Z</time>
      </trkpt>
      <trkpt lat="43.08798" lon="0.07841">
        <ele>683</ele>
        <time>2021-08-10T05:57:59.000Z</time>
      </trkpt>
      <trkpt lat="43.08792" lon="0.07845">
        <ele>684</ele>
        <time>2021-08-10T05:58:2.000Z</time>
      </trkpt>
      <trkpt lat="43.08786" lon="0.07844">
        <ele>685</ele>
        <time>2021-08-10T05:58:5.000Z</time>
      </trkpt>
      <trkpt lat="43.08781" lon="0.07845">
        <ele>686</ele>
        <time>2021-08-10T05:58:8.000Z</time>
      </trkpt>
      <trkpt lat="43.08775" lon="0.07846">
        <ele>687</ele>
        <time>2021-08-10T05:58:10.000Z</time>
      </trkpt>
      <trkpt lat="43.0877" lon="0.07847">
        <ele>688</ele>
        <time>2021-08-10T05:58:13.000Z</time>
      </trkpt>
      <trkpt lat="43.08765" lon="0.07848">
        <ele>689</ele>
        <time>2021-08-10T05:58:16.000Z</time>
      </trkpt>
      <trkpt lat="43.08759" lon="0.07848">
        <ele>689</ele>
        <time>2021-08-10T05:58:19.000Z</time>
      </trkpt>
      <trkpt lat="43.08754" lon="0.07842">
        <ele>689</ele>
        <time>2021-08-10T05:58:22.000Z</time>
      </trkpt>
      <trkpt lat="43.08749" lon="0.07836">
        <ele>690</ele>
        <time>2021-08-10T05:58:25.000Z</time>
      </trkpt>
      <trkpt lat="43.08747" lon="0.07831">
        <ele>690</ele>
        <time>2021-08-10T05:58:27.000Z</time>
      </trkpt>
      <trkpt lat="43.08743" lon="0.07824">
        <ele>690</ele>
        <time>2021-08-10T05:58:30.000Z</time>
      </trkpt>
      <trkpt lat="43.08738" lon="0.07819">
        <ele>690</ele>
        <time>2021-08-10T05:58:33.000Z</time>
      </trkpt>
      <trkpt lat="43.08732" lon="0.07815">
        <ele>691</ele>
        <time>2021-08-10T05:58:36.000Z</time>
      </trkpt>
      <trkpt lat="43.08726" lon="0.07813">
        <ele>692</ele>
        <time>2021-08-10T05:58:39.000Z</time>
      </trkpt>
      <trkpt lat="43.08719" lon="0.07813">
        <ele>692</ele>
        <time>2021-08-10T05:58:42.000Z</time>
      </trkpt>
      <trkpt lat="43.08714" lon="0.07811">
        <ele>693</ele>
        <time>2021-08-10T05:58:45.000Z</time>
      </trkpt>
      <trkpt lat="43.08709" lon="0.0781">
        <ele>694</ele>
        <time>2021-08-10T05:58:47.000Z</time>
      </trkpt>
      <trkpt lat="43.08702" lon="0.0781">
        <ele>694</ele>
        <time>2021-08-10T05:58:50.000Z</time>
      </trkpt>
      <trkpt lat="43.08696" lon="0.07808">
        <ele>695</ele>
        <time>2021-08-10T05:58:53.000Z</time>
      </trkpt>
      <trkpt lat="43.08689" lon="0.07807">
        <ele>695</ele>
        <time>2021-08-10T05:58:56.000Z</time>
      </trkpt>
      <trkpt lat="43.08683" lon="0.07807">
        <ele>696</ele>
        <time>2021-08-10T05:58:59.000Z</time>
      </trkpt>
      <trkpt lat="43.08677" lon="0.07806">
        <ele>697</ele>
        <time>2021-08-10T05:59:2.000Z</time>
      </trkpt>
      <trkpt lat="43.0867" lon="0.07806">
        <ele>697</ele>
        <time>2021-08-10T05:59:5.000Z</time>
      </trkpt>
      <trkpt lat="43.08664" lon="0.07805">
        <ele>698</ele>
        <time>2021-08-10T05:59:8.000Z</time>
      </trkpt>
      <trkpt lat="43.08658" lon="0.07805">
        <ele>698</ele>
        <time>2021-08-10T05:59:11.000Z</time>
      </trkpt>
      <trkpt lat="43.08653" lon="0.07804">
        <ele>699</ele>
        <time>2021-08-10T05:59:13.000Z</time>
      </trkpt>
      <trkpt lat="43.08648" lon="0.07804">
        <ele>699</ele>
        <time>2021-08-10T05:59:15.000Z</time>
      </trkpt>
      <trkpt lat="43.08641" lon="0.07803">
        <ele>699</ele>
        <time>2021-08-10T05:59:18.000Z</time>
      </trkpt>
      <trkpt lat="43.08636" lon="0.07802">
        <ele>700</ele>
        <time>2021-08-10T05:59:20.000Z</time>
      </trkpt>
      <trkpt lat="43.08632" lon="0.07801">
        <ele>700</ele>
        <time>2021-08-10T05:59:22.000Z</time>
      </trkpt>
      <trkpt lat="43.08627" lon="0.07795">
        <ele>700</ele>
        <time>2021-08-10T05:59:24.000Z</time>
      </trkpt>
      <trkpt lat="43.08624" lon="0.07791">
        <ele>700</ele>
        <time>2021-08-10T05:59:26.000Z</time>
      </trkpt>
      <trkpt lat="43.08621" lon="0.07785">
        <ele>701</ele>
        <time>2021-08-10T05:59:28.000Z</time>
      </trkpt>
      <trkpt lat="43.08616" lon="0.07778">
        <ele>701</ele>
        <time>2021-08-10T05:59:31.000Z</time>
      </trkpt>
      <trkpt lat="43.08612" lon="0.07773">
        <ele>701</ele>
        <time>2021-08-10T05:59:33.000Z</time>
      </trkpt>
      <trkpt lat="43.08609" lon="0.07766">
        <ele>701</ele>
        <time>2021-08-10T05:59:35.000Z</time>
      </trkpt>
      <trkpt lat="43.08606" lon="0.07758">
        <ele>701</ele>
        <time>2021-08-10T05:59:37.000Z</time>
      </trkpt>
      <trkpt lat="43.08603" lon="0.0775">
        <ele>701</ele>
        <time>2021-08-10T05:59:39.000Z</time>
      </trkpt>
      <trkpt lat="43.086" lon="0.07742">
        <ele>701</ele>
        <time>2021-08-10T05:59:41.000Z</time>
      </trkpt>
      <trkpt lat="43.08598" lon="0.07734">
        <ele>701</ele>
        <time>2021-08-10T05:59:43.000Z</time>
      </trkpt>
      <trkpt lat="43.086" lon="0.07722">
        <ele>701</ele>
        <time>2021-08-10T05:59:45.000Z</time>
      </trkpt>
      <trkpt lat="43.08602" lon="0.07712">
        <ele>701</ele>
        <time>2021-08-10T05:59:47.000Z</time>
      </trkpt>
      <trkpt lat="43.08605" lon="0.07702">
        <ele>701</ele>
        <time>2021-08-10T05:59:49.000Z</time>
      </trkpt>
      <trkpt lat="43.08607" lon="0.07696">
        <ele>701</ele>
        <time>2021-08-10T05:59:50.000Z</time>
      </trkpt>
      <trkpt lat="43.08609" lon="0.07689">
        <ele>701</ele>
        <time>2021-08-10T05:59:51.000Z</time>
      </trkpt>
      <trkpt lat="43.08612" lon="0.07681">
        <ele>701</ele>
        <time>2021-08-10T05:59:52.000Z</time>
      </trkpt>
      <trkpt lat="43.08614" lon="0.07674">
        <ele>701</ele>
        <time>2021-08-10T05:59:53.000Z</time>
      </trkpt>
      <trkpt lat="43.08617" lon="0.07667">
        <ele>700</ele>
        <time>2021-08-10T05:59:54.000Z</time>
      </trkpt>
      <trkpt lat="43.0862" lon="0.07659">
        <ele>700</ele>
        <time>2021-08-10T05:59:55.000Z</time>
      </trkpt>
      <trkpt lat="43.08623" lon="0.07651">
        <ele>699</ele>
        <time>2021-08-10T05:59:56.000Z</time>
      </trkpt>
      <trkpt lat="43.08627" lon="0.07642">
        <ele>699</ele>
        <time>2021-08-10T05:59:57.000Z</time>
      </trkpt>
      <trkpt lat="43.0863" lon="0.07631">
        <ele>697</ele>
        <time>2021-08-10T05:59:58.000Z</time>
      </trkpt>
      <trkpt lat="43.08632" lon="0.07622">
        <ele>697</ele>
        <time>2021-08-10T05:59:59.000Z</time>
      </trkpt>
      <trkpt lat="43.08631" lon="0.07609">
        <ele>696</ele>
        <time>2021-08-10T06:00:0.000Z</time>
      </trkpt>
      <trkpt lat="43.08632" lon="0.07597">
        <ele>696</ele>
        <time>2021-08-10T06:00:1.000Z</time>
      </trkpt>
      <trkpt lat="43.08633" lon="0.07585">
        <ele>695</ele>
        <time>2021-08-10T06:00:2.000Z</time>
      </trkpt>
      <trkpt lat="43.08633" lon="0.07575">
        <ele>695</ele>
        <time>2021-08-10T06:00:3.000Z</time>
      </trkpt>
      <trkpt lat="43.08634" lon="0.07564">
        <ele>694</ele>
        <time>2021-08-10T06:00:4.000Z</time>
      </trkpt>
      <trkpt lat="43.08636" lon="0.0755">
        <ele>694</ele>
        <time>2021-08-10T06:00:5.000Z</time>
      </trkpt>
      <trkpt lat="43.08638" lon="0.07539">
        <ele>693</ele>
        <time>2021-08-10T06:00:6.000Z</time>
      </trkpt>
      <trkpt lat="43.08641" lon="0.07529">
        <ele>693</ele>
        <time>2021-08-10T06:00:7.000Z</time>
      </trkpt>
      <trkpt lat="43.08648" lon="0.07523">
        <ele>693</ele>
        <time>2021-08-10T06:00:8.000Z</time>
      </trkpt>
      <trkpt lat="43.08653" lon="0.07517">
        <ele>693</ele>
        <time>2021-08-10T06:00:9.000Z</time>
      </trkpt>
      <trkpt lat="43.08658" lon="0.07511">
        <ele>693</ele>
        <time>2021-08-10T06:00:10.000Z</time>
      </trkpt>
      <trkpt lat="43.08664" lon="0.07506">
        <ele>693</ele>
        <time>2021-08-10T06:00:11.000Z</time>
      </trkpt>
      <trkpt lat="43.0867" lon="0.07501">
        <ele>693</ele>
        <time>2021-08-10T06:00:12.000Z</time>
      </trkpt>
      <trkpt lat="43.08674" lon="0.07498">
        <ele>693</ele>
        <time>2021-08-10T06:00:13.000Z</time>
      </trkpt>
      <trkpt lat="43.08679" lon="0.07493">
        <ele>693</ele>
        <time>2021-08-10T06:00:14.000Z</time>
      </trkpt>
      <trkpt lat="43.08686" lon="0.07487">
        <ele>693</ele>
        <time>2021-08-10T06:00:16.000Z</time>
      </trkpt>
      <trkpt lat="43.08692" lon="0.07482">
        <ele>693</ele>
        <time>2021-08-10T06:00:18.000Z</time>
      </trkpt>
      <trkpt lat="43.08699" lon="0.07476">
        <ele>694</ele>
        <time>2021-08-10T06:00:20.000Z</time>
      </trkpt>
      <trkpt lat="43.08705" lon="0.0747">
        <ele>694</ele>
        <time>2021-08-10T06:00:22.000Z</time>
      </trkpt>
      <trkpt lat="43.08711" lon="0.07461">
        <ele>694</ele>
        <time>2021-08-10T06:00:24.000Z</time>
      </trkpt>
      <trkpt lat="43.08715" lon="0.07451">
        <ele>694</ele>
        <time>2021-08-10T06:00:26.000Z</time>
      </trkpt>
      <trkpt lat="43.08716" lon="0.07445">
        <ele>694</ele>
        <time>2021-08-10T06:00:27.000Z</time>
      </trkpt>
      <trkpt lat="43.08719" lon="0.07433">
        <ele>694</ele>
        <time>2021-08-10T06:00:29.000Z</time>
      </trkpt>
      <trkpt lat="43.08719" lon="0.07426">
        <ele>694</ele>
        <time>2021-08-10T06:00:30.000Z</time>
      </trkpt>
      <trkpt lat="43.0872" lon="0.07414">
        <ele>694</ele>
        <time>2021-08-10T06:00:32.000Z</time>
      </trkpt>
      <trkpt lat="43.0872" lon="0.07408">
        <ele>694</ele>
        <time>2021-08-10T06:00:33.000Z</time>
      </trkpt>
      <trkpt lat="43.0872" lon="0.07401">
        <ele>694</ele>
        <time>2021-08-10T06:00:34.000Z</time>
      </trkpt>
      <trkpt lat="43.0872" lon="0.07395">
        <ele>694</ele>
        <time>2021-08-10T06:00:35.000Z</time>
      </trkpt>
      <trkpt lat="43.0872" lon="0.07388">
        <ele>694</ele>
        <time>2021-08-10T06:00:36.000Z</time>
      </trkpt>
      <trkpt lat="43.08719" lon="0.07382">
        <ele>694</ele>
        <time>2021-08-10T06:00:37.000Z</time>
      </trkpt>
      <trkpt lat="43.08719" lon="0.07375">
        <ele>694</ele>
        <time>2021-08-10T06:00:38.000Z</time>
      </trkpt>
      <trkpt lat="43.08719" lon="0.07369">
        <ele>694</ele>
        <time>2021-08-10T06:00:39.000Z</time>
      </trkpt>
      <trkpt lat="43.08718" lon="0.07356">
        <ele>694</ele>
        <time>2021-08-10T06:00:41.000Z</time>
      </trkpt>
      <trkpt lat="43.08717" lon="0.07348">
        <ele>694</ele>
        <time>2021-08-10T06:00:42.000Z</time>
      </trkpt>
      <trkpt lat="43.08717" lon="0.0734">
        <ele>694</ele>
        <time>2021-08-10T06:00:43.000Z</time>
      </trkpt>
      <trkpt lat="43.08717" lon="0.07333">
        <ele>694</ele>
        <time>2021-08-10T06:00:44.000Z</time>
      </trkpt>
      <trkpt lat="43.08716" lon="0.07326">
        <ele>693</ele>
        <time>2021-08-10T06:00:45.000Z</time>
      </trkpt>
      <trkpt lat="43.08716" lon="0.07317">
        <ele>693</ele>
        <time>2021-08-10T06:00:46.000Z</time>
      </trkpt>
      <trkpt lat="43.08716" lon="0.07309">
        <ele>693</ele>
        <time>2021-08-10T06:00:47.000Z</time>
      </trkpt>
      <trkpt lat="43.08717" lon="0.073">
        <ele>692</ele>
        <time>2021-08-10T06:00:48.000Z</time>
      </trkpt>
      <trkpt lat="43.08717" lon="0.07292">
        <ele>692</ele>
        <time>2021-08-10T06:00:49.000Z</time>
      </trkpt>
      <trkpt lat="43.08718" lon="0.07285">
        <ele>692</ele>
        <time>2021-08-10T06:00:50.000Z</time>
      </trkpt>
      <trkpt lat="43.08719" lon="0.07278">
        <ele>691</ele>
        <time>2021-08-10T06:00:51.000Z</time>
      </trkpt>
      <trkpt lat="43.0872" lon="0.07272">
        <ele>691</ele>
        <time>2021-08-10T06:00:52.000Z</time>
      </trkpt>
      <trkpt lat="43.08721" lon="0.07266">
        <ele>691</ele>
        <time>2021-08-10T06:00:53.000Z</time>
      </trkpt>
      <trkpt lat="43.08722" lon="0.07257">
        <ele>690</ele>
        <time>2021-08-10T06:00:55.000Z</time>
      </trkpt>
      <trkpt lat="43.08725" lon="0.0725">
        <ele>690</ele>
        <time>2021-08-10T06:00:57.000Z</time>
      </trkpt>
      <trkpt lat="43.08719" lon="0.07249">
        <ele>690</ele>
        <time>2021-08-10T06:01:0.000Z</time>
      </trkpt>
      <trkpt lat="43.08714" lon="0.07252">
        <ele>690</ele>
        <time>2021-08-10T06:01:3.000Z</time>
      </trkpt>
      <trkpt lat="43.08709" lon="0.07257">
        <ele>691</ele>
        <time>2021-08-10T06:01:5.000Z</time>
      </trkpt>
      <trkpt lat="43.08705" lon="0.07262">
        <ele>691</ele>
        <time>2021-08-10T06:01:7.000Z</time>
      </trkpt>
      <trkpt lat="43.08701" lon="0.07267">
        <ele>692</ele>
        <time>2021-08-10T06:01:9.000Z</time>
      </trkpt>
      <trkpt lat="43.08697" lon="0.07272">
        <ele>692</ele>
        <time>2021-08-10T06:01:11.000Z</time>
      </trkpt>
      <trkpt lat="43.08693" lon="0.07277">
        <ele>693</ele>
        <time>2021-08-10T06:01:13.000Z</time>
      </trkpt>
      <trkpt lat="43.0869" lon="0.07282">
        <ele>693</ele>
        <time>2021-08-10T06:01:15.000Z</time>
      </trkpt>
      <trkpt lat="43.08687" lon="0.07287">
        <ele>693</ele>
        <time>2021-08-10T06:01:17.000Z</time>
      </trkpt>
      <trkpt lat="43.08684" lon="0.07292">
        <ele>695</ele>
        <time>2021-08-10T06:01:19.000Z</time>
      </trkpt>
      <trkpt lat="43.08679" lon="0.07299">
        <ele>695</ele>
        <time>2021-08-10T06:01:22.000Z</time>
      </trkpt>
      <trkpt lat="43.08675" lon="0.07304">
        <ele>695</ele>
        <time>2021-08-10T06:01:25.000Z</time>
      </trkpt>
      <trkpt lat="43.0868" lon="0.07299">
        <ele>696</ele>
        <time>2021-08-10T06:01:32.000Z</time>
      </trkpt>
      <trkpt lat="43.08686" lon="0.07289">
        <ele>695</ele>
        <time>2021-08-10T06:01:34.000Z</time>
      </trkpt>
      <trkpt lat="43.0869" lon="0.07284">
        <ele>695</ele>
        <time>2021-08-10T06:01:35.000Z</time>
      </trkpt>
      <trkpt lat="43.08693" lon="0.07278">
        <ele>695</ele>
        <time>2021-08-10T06:01:36.000Z</time>
      </trkpt>
      <trkpt lat="43.08698" lon="0.07272">
        <ele>695</ele>
        <time>2021-08-10T06:01:37.000Z</time>
      </trkpt>
      <trkpt lat="43.08701" lon="0.07268">
        <ele>693</ele>
        <time>2021-08-10T06:01:38.000Z</time>
      </trkpt>
      <trkpt lat="43.08707" lon="0.07261">
        <ele>693</ele>
        <time>2021-08-10T06:01:39.000Z</time>
      </trkpt>
      <trkpt lat="43.08711" lon="0.07256">
        <ele>692</ele>
        <time>2021-08-10T06:01:40.000Z</time>
      </trkpt>
      <trkpt lat="43.08717" lon="0.07252">
        <ele>692</ele>
        <time>2021-08-10T06:01:41.000Z</time>
      </trkpt>
      <trkpt lat="43.08722" lon="0.07248">
        <ele>691</ele>
        <time>2021-08-10T06:01:42.000Z</time>
      </trkpt>
      <trkpt lat="43.08726" lon="0.07247">
        <ele>691</ele>
        <time>2021-08-10T06:01:43.000Z</time>
      </trkpt>
      <trkpt lat="43.08734" lon="0.07242">
        <ele>690</ele>
        <time>2021-08-10T06:01:45.000Z</time>
      </trkpt>
      <trkpt lat="43.08737" lon="0.07235">
        <ele>689</ele>
        <time>2021-08-10T06:01:47.000Z</time>
      </trkpt>
      <trkpt lat="43.08733" lon="0.0723">
        <ele>688</ele>
        <time>2021-08-10T06:01:51.000Z</time>
      </trkpt>
      <trkpt lat="43.08727" lon="0.07232">
        <ele>688</ele>
        <time>2021-08-10T06:01:54.000Z</time>
      </trkpt>
      <trkpt lat="43.08723" lon="0.07235">
        <ele>688</ele>
        <time>2021-08-10T06:01:56.000Z</time>
      </trkpt>
      <trkpt lat="43.08718" lon="0.0724">
        <ele>688</ele>
        <time>2021-08-10T06:01:58.000Z</time>
      </trkpt>
      <trkpt lat="43.08714" lon="0.07245">
        <ele>689</ele>
        <time>2021-08-10T06:02:0.000Z</time>
      </trkpt>
      <trkpt lat="43.08709" lon="0.07249">
        <ele>689</ele>
        <time>2021-08-10T06:02:2.000Z</time>
      </trkpt>
      <trkpt lat="43.08704" lon="0.07253">
        <ele>689</ele>
        <time>2021-08-10T06:02:4.000Z</time>
      </trkpt>
      <trkpt lat="43.087" lon="0.07257">
        <ele>689</ele>
        <time>2021-08-10T06:02:6.000Z</time>
      </trkpt>
      <trkpt lat="43.08697" lon="0.07261">
        <ele>689</ele>
        <time>2021-08-10T06:02:8.000Z</time>
      </trkpt>
      <trkpt lat="43.08693" lon="0.07266">
        <ele>690</ele>
        <time>2021-08-10T06:02:10.000Z</time>
      </trkpt>
      <trkpt lat="43.08689" lon="0.07271">
        <ele>690</ele>
        <time>2021-08-10T06:02:12.000Z</time>
      </trkpt>
      <trkpt lat="43.08684" lon="0.07276">
        <ele>691</ele>
        <time>2021-08-10T06:02:14.000Z</time>
      </trkpt>
      <trkpt lat="43.0868" lon="0.07281">
        <ele>691</ele>
        <time>2021-08-10T06:02:16.000Z</time>
      </trkpt>
      <trkpt lat="43.08676" lon="0.07286">
        <ele>691</ele>
        <time>2021-08-10T06:02:18.000Z</time>
      </trkpt>
      <trkpt lat="43.0867" lon="0.07291">
        <ele>692</ele>
        <time>2021-08-10T06:02:20.000Z</time>
      </trkpt>
      <trkpt lat="43.08666" lon="0.07296">
        <ele>692</ele>
        <time>2021-08-10T06:02:22.000Z</time>
      </trkpt>
      <trkpt lat="43.08661" lon="0.07301">
        <ele>693</ele>
        <time>2021-08-10T06:02:24.000Z</time>
      </trkpt>
      <trkpt lat="43.08656" lon="0.07306">
        <ele>693</ele>
        <time>2021-08-10T06:02:25.000Z</time>
      </trkpt>
      <trkpt lat="43.08652" lon="0.0731">
        <ele>694</ele>
        <time>2021-08-10T06:02:27.000Z</time>
      </trkpt>
      <trkpt lat="43.08647" lon="0.07316">
        <ele>694</ele>
        <time>2021-08-10T06:02:29.000Z</time>
      </trkpt>
      <trkpt lat="43.08642" lon="0.07321">
        <ele>694</ele>
        <time>2021-08-10T06:02:31.000Z</time>
      </trkpt>
      <trkpt lat="43.08637" lon="0.07327">
        <ele>695</ele>
        <time>2021-08-10T06:02:33.000Z</time>
      </trkpt>
      <trkpt lat="43.08633" lon="0.07334">
        <ele>695</ele>
        <time>2021-08-10T06:02:35.000Z</time>
      </trkpt>
      <trkpt lat="43.08629" lon="0.0734">
        <ele>695</ele>
        <time>2021-08-10T06:02:37.000Z</time>
      </trkpt>
      <trkpt lat="43.08624" lon="0.07347">
        <ele>695</ele>
        <time>2021-08-10T06:02:39.000Z</time>
      </trkpt>
      <trkpt lat="43.0862" lon="0.07352">
        <ele>695</ele>
        <time>2021-08-10T06:02:41.000Z</time>
      </trkpt>
      <trkpt lat="43.08614" lon="0.07357">
        <ele>695</ele>
        <time>2021-08-10T06:02:43.000Z</time>
      </trkpt>
      <trkpt lat="43.08607" lon="0.07362">
        <ele>695</ele>
        <time>2021-08-10T06:02:45.000Z</time>
      </trkpt>
      <trkpt lat="43.08599" lon="0.07366">
        <ele>695</ele>
        <time>2021-08-10T06:02:47.000Z</time>
      </trkpt>
      <trkpt lat="43.08591" lon="0.07367">
        <ele>695</ele>
        <time>2021-08-10T06:02:49.000Z</time>
      </trkpt>
      <trkpt lat="43.08584" lon="0.07368">
        <ele>695</ele>
        <time>2021-08-10T06:02:51.000Z</time>
      </trkpt>
      <trkpt lat="43.08576" lon="0.07368">
        <ele>696</ele>
        <time>2021-08-10T06:02:53.000Z</time>
      </trkpt>
      <trkpt lat="43.08567" lon="0.07369">
        <ele>696</ele>
        <time>2021-08-10T06:02:55.000Z</time>
      </trkpt>
      <trkpt lat="43.08559" lon="0.07369">
        <ele>696</ele>
        <time>2021-08-10T06:02:57.000Z</time>
      </trkpt>
      <trkpt lat="43.08552" lon="0.07369">
        <ele>696</ele>
        <time>2021-08-10T06:02:59.000Z</time>
      </trkpt>
      <trkpt lat="43.08545" lon="0.07369">
        <ele>697</ele>
        <time>2021-08-10T06:03:1.000Z</time>
      </trkpt>
      <trkpt lat="43.0854" lon="0.0737">
        <ele>697</ele>
        <time>2021-08-10T06:03:2.000Z</time>
      </trkpt>
      <trkpt lat="43.08532" lon="0.07371">
        <ele>697</ele>
        <time>2021-08-10T06:03:4.000Z</time>
      </trkpt>
      <trkpt lat="43.08525" lon="0.07372">
        <ele>697</ele>
        <time>2021-08-10T06:03:6.000Z</time>
      </trkpt>
      <trkpt lat="43.08518" lon="0.07374">
        <ele>697</ele>
        <time>2021-08-10T06:03:8.000Z</time>
      </trkpt>
      <trkpt lat="43.08511" lon="0.07377">
        <ele>697</ele>
        <time>2021-08-10T06:03:10.000Z</time>
      </trkpt>
      <trkpt lat="43.08503" lon="0.0738">
        <ele>697</ele>
        <time>2021-08-10T06:03:12.000Z</time>
      </trkpt>
      <trkpt lat="43.08495" lon="0.07382">
        <ele>697</ele>
        <time>2021-08-10T06:03:14.000Z</time>
      </trkpt>
      <trkpt lat="43.08487" lon="0.07385">
        <ele>698</ele>
        <time>2021-08-10T06:03:16.000Z</time>
      </trkpt>
      <trkpt lat="43.08479" lon="0.07389">
        <ele>698</ele>
        <time>2021-08-10T06:03:18.000Z</time>
      </trkpt>
      <trkpt lat="43.08472" lon="0.07392">
        <ele>698</ele>
        <time>2021-08-10T06:03:20.000Z</time>
      </trkpt>
      <trkpt lat="43.08466" lon="0.07395">
        <ele>699</ele>
        <time>2021-08-10T06:03:22.000Z</time>
      </trkpt>
      <trkpt lat="43.08461" lon="0.07397">
        <ele>699</ele>
        <time>2021-08-10T06:03:23.000Z</time>
      </trkpt>
      <trkpt lat="43.08453" lon="0.07401">
        <ele>699</ele>
        <time>2021-08-10T06:03:25.000Z</time>
      </trkpt>
      <trkpt lat="43.08447" lon="0.07404">
        <ele>699</ele>
        <time>2021-08-10T06:03:27.000Z</time>
      </trkpt>
      <trkpt lat="43.08442" lon="0.07406">
        <ele>699</ele>
        <time>2021-08-10T06:03:28.000Z</time>
      </trkpt>
      <trkpt lat="43.08434" lon="0.0741">
        <ele>699</ele>
        <time>2021-08-10T06:03:30.000Z</time>
      </trkpt>
      <trkpt lat="43.08427" lon="0.07413">
        <ele>700</ele>
        <time>2021-08-10T06:03:32.000Z</time>
      </trkpt>
      <trkpt lat="43.08419" lon="0.07417">
        <ele>700</ele>
        <time>2021-08-10T06:03:34.000Z</time>
      </trkpt>
      <trkpt lat="43.08412" lon="0.07421">
        <ele>700</ele>
        <time>2021-08-10T06:03:36.000Z</time>
      </trkpt>
      <trkpt lat="43.08406" lon="0.07432">
        <ele>700</ele>
        <time>2021-08-10T06:03:38.000Z</time>
      </trkpt>
      <trkpt lat="43.08403" lon="0.07437">
        <ele>700</ele>
        <time>2021-08-10T06:03:39.000Z</time>
      </trkpt>
      <trkpt lat="43.084" lon="0.07446">
        <ele>700</ele>
        <time>2021-08-10T06:03:41.000Z</time>
      </trkpt>
      <trkpt lat="43.08398" lon="0.07455">
        <ele>700</ele>
        <time>2021-08-10T06:03:43.000Z</time>
      </trkpt>
      <trkpt lat="43.08395" lon="0.07466">
        <ele>700</ele>
        <time>2021-08-10T06:03:45.000Z</time>
      </trkpt>
      <trkpt lat="43.08393" lon="0.07471">
        <ele>700</ele>
        <time>2021-08-10T06:03:46.000Z</time>
      </trkpt>
      <trkpt lat="43.08386" lon="0.07481">
        <ele>700</ele>
        <time>2021-08-10T06:03:48.000Z</time>
      </trkpt>
      <trkpt lat="43.08379" lon="0.07486">
        <ele>699</ele>
        <time>2021-08-10T06:03:49.000Z</time>
      </trkpt>
      <trkpt lat="43.08373" lon="0.07489">
        <ele>699</ele>
        <time>2021-08-10T06:03:50.000Z</time>
      </trkpt>
      <trkpt lat="43.08368" lon="0.07491">
        <ele>699</ele>
        <time>2021-08-10T06:03:51.000Z</time>
      </trkpt>
      <trkpt lat="43.08361" lon="0.07494">
        <ele>699</ele>
        <time>2021-08-10T06:03:52.000Z</time>
      </trkpt>
      <trkpt lat="43.08355" lon="0.07495">
        <ele>698</ele>
        <time>2021-08-10T06:03:53.000Z</time>
      </trkpt>
      <trkpt lat="43.0835" lon="0.07497">
        <ele>698</ele>
        <time>2021-08-10T06:03:54.000Z</time>
      </trkpt>
      <trkpt lat="43.08344" lon="0.07498">
        <ele>698</ele>
        <time>2021-08-10T06:03:55.000Z</time>
      </trkpt>
      <trkpt lat="43.08334" lon="0.075">
        <ele>698</ele>
        <time>2021-08-10T06:03:57.000Z</time>
      </trkpt>
      <trkpt lat="43.08324" lon="0.07502">
        <ele>698</ele>
        <time>2021-08-10T06:03:59.000Z</time>
      </trkpt>
      <trkpt lat="43.08319" lon="0.07503">
        <ele>698</ele>
        <time>2021-08-10T06:04:0.000Z</time>
      </trkpt>
      <trkpt lat="43.08309" lon="0.07505">
        <ele>698</ele>
        <time>2021-08-10T06:04:2.000Z</time>
      </trkpt>
      <trkpt lat="43.08304" lon="0.07506">
        <ele>698</ele>
        <time>2021-08-10T06:04:3.000Z</time>
      </trkpt>
      <trkpt lat="43.08294" lon="0.07508">
        <ele>698</ele>
        <time>2021-08-10T06:04:5.000Z</time>
      </trkpt>
      <trkpt lat="43.08287" lon="0.07509">
        <ele>697</ele>
        <time>2021-08-10T06:04:6.000Z</time>
      </trkpt>
      <trkpt lat="43.08281" lon="0.07511">
        <ele>697</ele>
        <time>2021-08-10T06:04:7.000Z</time>
      </trkpt>
      <trkpt lat="43.08274" lon="0.07513">
        <ele>696</ele>
        <time>2021-08-10T06:04:8.000Z</time>
      </trkpt>
      <trkpt lat="43.08265" lon="0.07517">
        <ele>696</ele>
        <time>2021-08-10T06:04:9.000Z</time>
      </trkpt>
      <trkpt lat="43.08258" lon="0.07522">
        <ele>695</ele>
        <time>2021-08-10T06:04:10.000Z</time>
      </trkpt>
      <trkpt lat="43.08255" lon="0.07538">
        <ele>695</ele>
        <time>2021-08-10T06:04:11.000Z</time>
      </trkpt>
      <trkpt lat="43.08247" lon="0.07546">
        <ele>694</ele>
        <time>2021-08-10T06:04:12.000Z</time>
      </trkpt>
      <trkpt lat="43.08241" lon="0.07551">
        <ele>694</ele>
        <time>2021-08-10T06:04:13.000Z</time>
      </trkpt>
      <trkpt lat="43.08235" lon="0.07556">
        <ele>694</ele>
        <time>2021-08-10T06:04:14.000Z</time>
      </trkpt>
      <trkpt lat="43.08226" lon="0.07561">
        <ele>693</ele>
        <time>2021-08-10T06:04:15.000Z</time>
      </trkpt>
      <trkpt lat="43.0822" lon="0.07566">
        <ele>693</ele>
        <time>2021-08-10T06:04:16.000Z</time>
      </trkpt>
      <trkpt lat="43.08215" lon="0.0757">
        <ele>693</ele>
        <time>2021-08-10T06:04:17.000Z</time>
      </trkpt>
      <trkpt lat="43.0821" lon="0.07574">
        <ele>693</ele>
        <time>2021-08-10T06:04:18.000Z</time>
      </trkpt>
      <trkpt lat="43.08205" lon="0.07578">
        <ele>693</ele>
        <time>2021-08-10T06:04:19.000Z</time>
      </trkpt>
      <trkpt lat="43.08199" lon="0.07582">
        <ele>693</ele>
        <time>2021-08-10T06:04:20.000Z</time>
      </trkpt>
      <trkpt lat="43.08188" lon="0.07589">
        <ele>693</ele>
        <time>2021-08-10T06:04:21.000Z</time>
      </trkpt>
      <trkpt lat="43.08181" lon="0.07583">
        <ele>693</ele>
        <time>2021-08-10T06:04:22.000Z</time>
      </trkpt>
      <trkpt lat="43.08176" lon="0.07578">
        <ele>693</ele>
        <time>2021-08-10T06:04:23.000Z</time>
      </trkpt>
      <trkpt lat="43.08172" lon="0.07575">
        <ele>693</ele>
        <time>2021-08-10T06:04:24.000Z</time>
      </trkpt>
      <trkpt lat="43.08162" lon="0.07576">
        <ele>693</ele>
        <time>2021-08-10T06:04:26.000Z</time>
      </trkpt>
      <trkpt lat="43.08155" lon="0.07577">
        <ele>693</ele>
        <time>2021-08-10T06:04:27.000Z</time>
      </trkpt>
      <trkpt lat="43.0815" lon="0.07578">
        <ele>693</ele>
        <time>2021-08-10T06:04:28.000Z</time>
      </trkpt>
      <trkpt lat="43.08145" lon="0.0758">
        <ele>693</ele>
        <time>2021-08-10T06:04:29.000Z</time>
      </trkpt>
      <trkpt lat="43.08139" lon="0.07582">
        <ele>693</ele>
        <time>2021-08-10T06:04:30.000Z</time>
      </trkpt>
      <trkpt lat="43.08133" lon="0.07583">
        <ele>693</ele>
        <time>2021-08-10T06:04:31.000Z</time>
      </trkpt>
      <trkpt lat="43.08127" lon="0.07584">
        <ele>694</ele>
        <time>2021-08-10T06:04:32.000Z</time>
      </trkpt>
      <trkpt lat="43.08123" lon="0.07585">
        <ele>694</ele>
        <time>2021-08-10T06:04:33.000Z</time>
      </trkpt>
      <trkpt lat="43.08115" lon="0.07586">
        <ele>694</ele>
        <time>2021-08-10T06:04:34.000Z</time>
      </trkpt>
      <trkpt lat="43.0811" lon="0.07587">
        <ele>694</ele>
        <time>2021-08-10T06:04:35.000Z</time>
      </trkpt>
      <trkpt lat="43.08105" lon="0.07588">
        <ele>694</ele>
        <time>2021-08-10T06:04:36.000Z</time>
      </trkpt>
      <trkpt lat="43.081" lon="0.07593">
        <ele>694</ele>
        <time>2021-08-10T06:04:37.000Z</time>
      </trkpt>
      <trkpt lat="43.08095" lon="0.07597">
        <ele>694</ele>
        <time>2021-08-10T06:04:38.000Z</time>
      </trkpt>
      <trkpt lat="43.0809" lon="0.07602">
        <ele>694</ele>
        <time>2021-08-10T06:04:39.000Z</time>
      </trkpt>
      <trkpt lat="43.08086" lon="0.07607">
        <ele>694</ele>
        <time>2021-08-10T06:04:40.000Z</time>
      </trkpt>
      <trkpt lat="43.08082" lon="0.07612">
        <ele>694</ele>
        <time>2021-08-10T06:04:41.000Z</time>
      </trkpt>
      <trkpt lat="43.08073" lon="0.07618">
        <ele>694</ele>
        <time>2021-08-10T06:04:43.000Z</time>
      </trkpt>
      <trkpt lat="43.08067" lon="0.07619">
        <ele>694</ele>
        <time>2021-08-10T06:04:44.000Z</time>
      </trkpt>
      <trkpt lat="43.08063" lon="0.07616">
        <ele>694</ele>
        <time>2021-08-10T06:04:45.000Z</time>
      </trkpt>
      <trkpt lat="43.08057" lon="0.07608">
        <ele>694</ele>
        <time>2021-08-10T06:04:47.000Z</time>
      </trkpt>
      <trkpt lat="43.08055" lon="0.07602">
        <ele>694</ele>
        <time>2021-08-10T06:04:48.000Z</time>
      </trkpt>
      <trkpt lat="43.08052" lon="0.07592">
        <ele>694</ele>
        <time>2021-08-10T06:04:50.000Z</time>
      </trkpt>
      <trkpt lat="43.0805" lon="0.07585">
        <ele>694</ele>
        <time>2021-08-10T06:04:51.000Z</time>
      </trkpt>
      <trkpt lat="43.08048" lon="0.07579">
        <ele>694</ele>
        <time>2021-08-10T06:04:52.000Z</time>
      </trkpt>
      <trkpt lat="43.08045" lon="0.07573">
        <ele>694</ele>
        <time>2021-08-10T06:04:53.000Z</time>
      </trkpt>
      <trkpt lat="43.08044" lon="0.07567">
        <ele>694</ele>
        <time>2021-08-10T06:04:54.000Z</time>
      </trkpt>
      <trkpt lat="43.08041" lon="0.07553">
        <ele>695</ele>
        <time>2021-08-10T06:04:56.000Z</time>
      </trkpt>
      <trkpt lat="43.08038" lon="0.0754">
        <ele>695</ele>
        <time>2021-08-10T06:04:58.000Z</time>
      </trkpt>
      <trkpt lat="43.08038" lon="0.07527">
        <ele>695</ele>
        <time>2021-08-10T06:05:0.000Z</time>
      </trkpt>
      <trkpt lat="43.08038" lon="0.07519">
        <ele>695</ele>
        <time>2021-08-10T06:05:1.000Z</time>
      </trkpt>
      <trkpt lat="43.08038" lon="0.07512">
        <ele>695</ele>
        <time>2021-08-10T06:05:2.000Z</time>
      </trkpt>
      <trkpt lat="43.08038" lon="0.07505">
        <ele>695</ele>
        <time>2021-08-10T06:05:3.000Z</time>
      </trkpt>
      <trkpt lat="43.08037" lon="0.07499">
        <ele>695</ele>
        <time>2021-08-10T06:05:4.000Z</time>
      </trkpt>
      <trkpt lat="43.08036" lon="0.07493">
        <ele>695</ele>
        <time>2021-08-10T06:05:5.000Z</time>
      </trkpt>
      <trkpt lat="43.08034" lon="0.07482">
        <ele>696</ele>
        <time>2021-08-10T06:05:7.000Z</time>
      </trkpt>
      <trkpt lat="43.08029" lon="0.07472">
        <ele>696</ele>
        <time>2021-08-10T06:05:9.000Z</time>
      </trkpt>
      <trkpt lat="43.08027" lon="0.07465">
        <ele>696</ele>
        <time>2021-08-10T06:05:10.000Z</time>
      </trkpt>
      <trkpt lat="43.08022" lon="0.07457">
        <ele>696</ele>
        <time>2021-08-10T06:05:12.000Z</time>
      </trkpt>
      <trkpt lat="43.08017" lon="0.07448">
        <ele>697</ele>
        <time>2021-08-10T06:05:14.000Z</time>
      </trkpt>
      <trkpt lat="43.08011" lon="0.07439">
        <ele>697</ele>
        <time>2021-08-10T06:05:16.000Z</time>
      </trkpt>
      <trkpt lat="43.08006" lon="0.0743">
        <ele>698</ele>
        <time>2021-08-10T06:05:18.000Z</time>
      </trkpt>
      <trkpt lat="43.08001" lon="0.07422">
        <ele>698</ele>
        <time>2021-08-10T06:05:20.000Z</time>
      </trkpt>
      <trkpt lat="43.07995" lon="0.07415">
        <ele>698</ele>
        <time>2021-08-10T06:05:22.000Z</time>
      </trkpt>
      <trkpt lat="43.07988" lon="0.07409">
        <ele>699</ele>
        <time>2021-08-10T06:05:24.000Z</time>
      </trkpt>
      <trkpt lat="43.07982" lon="0.07403">
        <ele>699</ele>
        <time>2021-08-10T06:05:26.000Z</time>
      </trkpt>
      <trkpt lat="43.07976" lon="0.07398">
        <ele>699</ele>
        <time>2021-08-10T06:05:28.000Z</time>
      </trkpt>
      <trkpt lat="43.07972" lon="0.07394">
        <ele>699</ele>
        <time>2021-08-10T06:05:29.000Z</time>
      </trkpt>
      <trkpt lat="43.07966" lon="0.07389">
        <ele>699</ele>
        <time>2021-08-10T06:05:31.000Z</time>
      </trkpt>
      <trkpt lat="43.07961" lon="0.07384">
        <ele>700</ele>
        <time>2021-08-10T06:05:33.000Z</time>
      </trkpt>
      <trkpt lat="43.07956" lon="0.0738">
        <ele>700</ele>
        <time>2021-08-10T06:05:34.000Z</time>
      </trkpt>
      <trkpt lat="43.07951" lon="0.07374">
        <ele>700</ele>
        <time>2021-08-10T06:05:36.000Z</time>
      </trkpt>
      <trkpt lat="43.07946" lon="0.07369">
        <ele>701</ele>
        <time>2021-08-10T06:05:38.000Z</time>
      </trkpt>
      <trkpt lat="43.07939" lon="0.07363">
        <ele>701</ele>
        <time>2021-08-10T06:05:40.000Z</time>
      </trkpt>
      <trkpt lat="43.07933" lon="0.07356">
        <ele>701</ele>
        <time>2021-08-10T06:05:42.000Z</time>
      </trkpt>
      <trkpt lat="43.07928" lon="0.0735">
        <ele>702</ele>
        <time>2021-08-10T06:05:44.000Z</time>
      </trkpt>
      <trkpt lat="43.07921" lon="0.07344">
        <ele>702</ele>
        <time>2021-08-10T06:05:46.000Z</time>
      </trkpt>
      <trkpt lat="43.07915" lon="0.07337">
        <ele>702</ele>
        <time>2021-08-10T06:05:48.000Z</time>
      </trkpt>
      <trkpt lat="43.07909" lon="0.07332">
        <ele>703</ele>
        <time>2021-08-10T06:05:50.000Z</time>
      </trkpt>
      <trkpt lat="43.07906" lon="0.07326">
        <ele>703</ele>
        <time>2021-08-10T06:05:52.000Z</time>
      </trkpt>
      <trkpt lat="43.07902" lon="0.07319">
        <ele>704</ele>
        <time>2021-08-10T06:05:54.000Z</time>
      </trkpt>
      <trkpt lat="43.07898" lon="0.07312">
        <ele>704</ele>
        <time>2021-08-10T06:05:56.000Z</time>
      </trkpt>
      <trkpt lat="43.07896" lon="0.07305">
        <ele>704</ele>
        <time>2021-08-10T06:05:58.000Z</time>
      </trkpt>
      <trkpt lat="43.07892" lon="0.07298">
        <ele>704</ele>
        <time>2021-08-10T06:06:0.000Z</time>
      </trkpt>
      <trkpt lat="43.0789" lon="0.07291">
        <ele>705</ele>
        <time>2021-08-10T06:06:2.000Z</time>
      </trkpt>
      <trkpt lat="43.07887" lon="0.07285">
        <ele>705</ele>
        <time>2021-08-10T06:06:4.000Z</time>
      </trkpt>
      <trkpt lat="43.07884" lon="0.07278">
        <ele>706</ele>
        <time>2021-08-10T06:06:6.000Z</time>
      </trkpt>
      <trkpt lat="43.07881" lon="0.07271">
        <ele>706</ele>
        <time>2021-08-10T06:06:8.000Z</time>
      </trkpt>
      <trkpt lat="43.07879" lon="0.07264">
        <ele>707</ele>
        <time>2021-08-10T06:06:10.000Z</time>
      </trkpt>
      <trkpt lat="43.07876" lon="0.07258">
        <ele>707</ele>
        <time>2021-08-10T06:06:12.000Z</time>
      </trkpt>
      <trkpt lat="43.07874" lon="0.07252">
        <ele>708</ele>
        <time>2021-08-10T06:06:14.000Z</time>
      </trkpt>
      <trkpt lat="43.07871" lon="0.07246">
        <ele>708</ele>
        <time>2021-08-10T06:06:16.000Z</time>
      </trkpt>
      <trkpt lat="43.07869" lon="0.0724">
        <ele>709</ele>
        <time>2021-08-10T06:06:18.000Z</time>
      </trkpt>
      <trkpt lat="43.07867" lon="0.07234">
        <ele>709</ele>
        <time>2021-08-10T06:06:20.000Z</time>
      </trkpt>
      <trkpt lat="43.07864" lon="0.07228">
        <ele>710</ele>
        <time>2021-08-10T06:06:22.000Z</time>
      </trkpt>
      <trkpt lat="43.07861" lon="0.07222">
        <ele>710</ele>
        <time>2021-08-10T06:06:24.000Z</time>
      </trkpt>
      <trkpt lat="43.07859" lon="0.07216">
        <ele>711</ele>
        <time>2021-08-10T06:06:26.000Z</time>
      </trkpt>
      <trkpt lat="43.07856" lon="0.07209">
        <ele>711</ele>
        <time>2021-08-10T06:06:28.000Z</time>
      </trkpt>
      <trkpt lat="43.07855" lon="0.07204">
        <ele>711</ele>
        <time>2021-08-10T06:06:30.000Z</time>
      </trkpt>
      <trkpt lat="43.07852" lon="0.07197">
        <ele>711</ele>
        <time>2021-08-10T06:06:32.000Z</time>
      </trkpt>
      <trkpt lat="43.07849" lon="0.07191">
        <ele>712</ele>
        <time>2021-08-10T06:06:34.000Z</time>
      </trkpt>
      <trkpt lat="43.07846" lon="0.07183">
        <ele>712</ele>
        <time>2021-08-10T06:06:37.000Z</time>
      </trkpt>
      <trkpt lat="43.07843" lon="0.07175">
        <ele>713</ele>
        <time>2021-08-10T06:06:40.000Z</time>
      </trkpt>
      <trkpt lat="43.0784" lon="0.07169">
        <ele>714</ele>
        <time>2021-08-10T06:06:41.000Z</time>
      </trkpt>
      <trkpt lat="43.07838" lon="0.07163">
        <ele>714</ele>
        <time>2021-08-10T06:06:43.000Z</time>
      </trkpt>
      <trkpt lat="43.07836" lon="0.07158">
        <ele>714</ele>
        <time>2021-08-10T06:06:45.000Z</time>
      </trkpt>
      <trkpt lat="43.07834" lon="0.07152">
        <ele>715</ele>
        <time>2021-08-10T06:06:47.000Z</time>
      </trkpt>
      <trkpt lat="43.07831" lon="0.07146">
        <ele>715</ele>
        <time>2021-08-10T06:06:49.000Z</time>
      </trkpt>
      <trkpt lat="43.07828" lon="0.07138">
        <ele>716</ele>
        <time>2021-08-10T06:06:52.000Z</time>
      </trkpt>
      <trkpt lat="43.07825" lon="0.07132">
        <ele>717</ele>
        <time>2021-08-10T06:06:54.000Z</time>
      </trkpt>
      <trkpt lat="43.07823" lon="0.07126">
        <ele>717</ele>
        <time>2021-08-10T06:06:56.000Z</time>
      </trkpt>
      <trkpt lat="43.07819" lon="0.07118">
        <ele>718</ele>
        <time>2021-08-10T06:06:59.000Z</time>
      </trkpt>
      <trkpt lat="43.07817" lon="0.07111">
        <ele>719</ele>
        <time>2021-08-10T06:07:2.000Z</time>
      </trkpt>
      <trkpt lat="43.07815" lon="0.07106">
        <ele>719</ele>
        <time>2021-08-10T06:07:4.000Z</time>
      </trkpt>
      <trkpt lat="43.07812" lon="0.07099">
        <ele>720</ele>
        <time>2021-08-10T06:07:7.000Z</time>
      </trkpt>
      <trkpt lat="43.07809" lon="0.07092">
        <ele>721</ele>
        <time>2021-08-10T06:07:10.000Z</time>
      </trkpt>
      <trkpt lat="43.07805" lon="0.07084">
        <ele>721</ele>
        <time>2021-08-10T06:07:13.000Z</time>
      </trkpt>
      <trkpt lat="43.07801" lon="0.07076">
        <ele>721</ele>
        <time>2021-08-10T06:07:16.000Z</time>
      </trkpt>
      <trkpt lat="43.078" lon="0.0707">
        <ele>722</ele>
        <time>2021-08-10T06:07:18.000Z</time>
      </trkpt>
      <trkpt lat="43.07797" lon="0.07065">
        <ele>722</ele>
        <time>2021-08-10T06:07:20.000Z</time>
      </trkpt>
      <trkpt lat="43.07795" lon="0.07059">
        <ele>723</ele>
        <time>2021-08-10T06:07:22.000Z</time>
      </trkpt>
      <trkpt lat="43.07793" lon="0.07054">
        <ele>723</ele>
        <time>2021-08-10T06:07:24.000Z</time>
      </trkpt>
      <trkpt lat="43.0779" lon="0.07047">
        <ele>724</ele>
        <time>2021-08-10T06:07:27.000Z</time>
      </trkpt>
      <trkpt lat="43.07788" lon="0.07042">
        <ele>724</ele>
        <time>2021-08-10T06:07:29.000Z</time>
      </trkpt>
      <trkpt lat="43.07785" lon="0.07037">
        <ele>725</ele>
        <time>2021-08-10T06:07:31.000Z</time>
      </trkpt>
      <trkpt lat="43.07783" lon="0.07032">
        <ele>725</ele>
        <time>2021-08-10T06:07:33.000Z</time>
      </trkpt>
      <trkpt lat="43.07774" lon="0.07029">
        <ele>726</ele>
        <time>2021-08-10T06:07:35.000Z</time>
      </trkpt>
      <trkpt lat="43.07769" lon="0.07025">
        <ele>726</ele>
        <time>2021-08-10T06:07:37.000Z</time>
      </trkpt>
      <trkpt lat="43.07765" lon="0.07023">
        <ele>727</ele>
        <time>2021-08-10T06:07:39.000Z</time>
      </trkpt>
      <trkpt lat="43.07759" lon="0.07021">
        <ele>728</ele>
        <time>2021-08-10T06:07:42.000Z</time>
      </trkpt>
      <trkpt lat="43.07754" lon="0.07021">
        <ele>728</ele>
        <time>2021-08-10T06:07:44.000Z</time>
      </trkpt>
      <trkpt lat="43.07747" lon="0.07024">
        <ele>728</ele>
        <time>2021-08-10T06:07:47.000Z</time>
      </trkpt>
      <trkpt lat="43.07741" lon="0.07025">
        <ele>728</ele>
        <time>2021-08-10T06:07:50.000Z</time>
      </trkpt>
      <trkpt lat="43.07735" lon="0.07025">
        <ele>728</ele>
        <time>2021-08-10T06:07:52.000Z</time>
      </trkpt>
      <trkpt lat="43.07728" lon="0.07021">
        <ele>728</ele>
        <time>2021-08-10T06:07:54.000Z</time>
      </trkpt>
      <trkpt lat="43.0772" lon="0.07017">
        <ele>728</ele>
        <time>2021-08-10T06:07:56.000Z</time>
      </trkpt>
      <trkpt lat="43.07716" lon="0.07014">
        <ele>728</ele>
        <time>2021-08-10T06:07:57.000Z</time>
      </trkpt>
      <trkpt lat="43.07711" lon="0.07011">
        <ele>728</ele>
        <time>2021-08-10T06:07:58.000Z</time>
      </trkpt>
      <trkpt lat="43.07706" lon="0.07008">
        <ele>728</ele>
        <time>2021-08-10T06:07:59.000Z</time>
      </trkpt>
      <trkpt lat="43.07701" lon="0.07005">
        <ele>728</ele>
        <time>2021-08-10T06:08:0.000Z</time>
      </trkpt>
      <trkpt lat="43.07695" lon="0.07001">
        <ele>728</ele>
        <time>2021-08-10T06:08:1.000Z</time>
      </trkpt>
      <trkpt lat="43.07689" lon="0.06997">
        <ele>727</ele>
        <time>2021-08-10T06:08:2.000Z</time>
      </trkpt>
      <trkpt lat="43.07684" lon="0.06993">
        <ele>727</ele>
        <time>2021-08-10T06:08:3.000Z</time>
      </trkpt>
      <trkpt lat="43.07678" lon="0.06989">
        <ele>727</ele>
        <time>2021-08-10T06:08:4.000Z</time>
      </trkpt>
      <trkpt lat="43.07673" lon="0.06984">
        <ele>726</ele>
        <time>2021-08-10T06:08:5.000Z</time>
      </trkpt>
      <trkpt lat="43.07666" lon="0.06979">
        <ele>726</ele>
        <time>2021-08-10T06:08:6.000Z</time>
      </trkpt>
      <trkpt lat="43.07661" lon="0.06975">
        <ele>726</ele>
        <time>2021-08-10T06:08:7.000Z</time>
      </trkpt>
      <trkpt lat="43.07657" lon="0.06971">
        <ele>726</ele>
        <time>2021-08-10T06:08:8.000Z</time>
      </trkpt>
      <trkpt lat="43.0765" lon="0.06965">
        <ele>726</ele>
        <time>2021-08-10T06:08:9.000Z</time>
      </trkpt>
      <trkpt lat="43.07645" lon="0.0696">
        <ele>726</ele>
        <time>2021-08-10T06:08:10.000Z</time>
      </trkpt>
      <trkpt lat="43.07641" lon="0.06956">
        <ele>726</ele>
        <time>2021-08-10T06:08:11.000Z</time>
      </trkpt>
      <trkpt lat="43.07636" lon="0.06952">
        <ele>726</ele>
        <time>2021-08-10T06:08:12.000Z</time>
      </trkpt>
      <trkpt lat="43.07631" lon="0.06948">
        <ele>726</ele>
        <time>2021-08-10T06:08:13.000Z</time>
      </trkpt>
      <trkpt lat="43.07626" lon="0.06944">
        <ele>726</ele>
        <time>2021-08-10T06:08:14.000Z</time>
      </trkpt>
      <trkpt lat="43.0762" lon="0.06939">
        <ele>726</ele>
        <time>2021-08-10T06:08:16.000Z</time>
      </trkpt>
      <trkpt lat="43.07614" lon="0.06935">
        <ele>726</ele>
        <time>2021-08-10T06:08:18.000Z</time>
      </trkpt>
      <trkpt lat="43.07608" lon="0.06932">
        <ele>727</ele>
        <time>2021-08-10T06:08:20.000Z</time>
      </trkpt>
      <trkpt lat="43.07604" lon="0.06929">
        <ele>728</ele>
        <time>2021-08-10T06:08:22.000Z</time>
      </trkpt>
      <trkpt lat="43.07599" lon="0.06925">
        <ele>728</ele>
        <time>2021-08-10T06:08:24.000Z</time>
      </trkpt>
      <trkpt lat="43.07594" lon="0.06922">
        <ele>729</ele>
        <time>2021-08-10T06:08:26.000Z</time>
      </trkpt>
      <trkpt lat="43.0759" lon="0.0692">
        <ele>729</ele>
        <time>2021-08-10T06:08:28.000Z</time>
      </trkpt>
      <trkpt lat="43.07584" lon="0.06917">
        <ele>729</ele>
        <time>2021-08-10T06:08:30.000Z</time>
      </trkpt>
      <trkpt lat="43.07579" lon="0.06913">
        <ele>730</ele>
        <time>2021-08-10T06:08:33.000Z</time>
      </trkpt>
      <trkpt lat="43.07575" lon="0.06911">
        <ele>730</ele>
        <time>2021-08-10T06:08:35.000Z</time>
      </trkpt>
      <trkpt lat="43.07569" lon="0.06908">
        <ele>731</ele>
        <time>2021-08-10T06:08:38.000Z</time>
      </trkpt>
      <trkpt lat="43.07565" lon="0.06905">
        <ele>732</ele>
        <time>2021-08-10T06:08:40.000Z</time>
      </trkpt>
      <trkpt lat="43.0756" lon="0.06902">
        <ele>733</ele>
        <time>2021-08-10T06:08:43.000Z</time>
      </trkpt>
      <trkpt lat="43.07553" lon="0.06898">
        <ele>734</ele>
        <time>2021-08-10T06:08:46.000Z</time>
      </trkpt>
      <trkpt lat="43.07548" lon="0.06896">
        <ele>734</ele>
        <time>2021-08-10T06:08:48.000Z</time>
      </trkpt>
      <trkpt lat="43.07542" lon="0.06894">
        <ele>735</ele>
        <time>2021-08-10T06:08:51.000Z</time>
      </trkpt>
      <trkpt lat="43.07537" lon="0.06892">
        <ele>736</ele>
        <time>2021-08-10T06:08:54.000Z</time>
      </trkpt>
      <trkpt lat="43.07532" lon="0.0689">
        <ele>736</ele>
        <time>2021-08-10T06:08:56.000Z</time>
      </trkpt>
      <trkpt lat="43.07527" lon="0.06889">
        <ele>737</ele>
        <time>2021-08-10T06:08:59.000Z</time>
      </trkpt>
      <trkpt lat="43.07522" lon="0.06888">
        <ele>738</ele>
        <time>2021-08-10T06:09:1.000Z</time>
      </trkpt>
      <trkpt lat="43.07517" lon="0.06887">
        <ele>738</ele>
        <time>2021-08-10T06:09:4.000Z</time>
      </trkpt>
      <trkpt lat="43.07511" lon="0.06886">
        <ele>739</ele>
        <time>2021-08-10T06:09:7.000Z</time>
      </trkpt>
      <trkpt lat="43.07505" lon="0.06885">
        <ele>739</ele>
        <time>2021-08-10T06:09:11.000Z</time>
      </trkpt>
      <trkpt lat="43.07501" lon="0.06886">
        <ele>740</ele>
        <time>2021-08-10T06:09:14.000Z</time>
      </trkpt>
      <trkpt lat="43.07496" lon="0.06885">
        <ele>741</ele>
        <time>2021-08-10T06:09:17.000Z</time>
      </trkpt>
      <trkpt lat="43.0749" lon="0.06885">
        <ele>742</ele>
        <time>2021-08-10T06:09:20.000Z</time>
      </trkpt>
      <trkpt lat="43.07485" lon="0.06886">
        <ele>743</ele>
        <time>2021-08-10T06:09:23.000Z</time>
      </trkpt>
      <trkpt lat="43.07481" lon="0.06886">
        <ele>744</ele>
        <time>2021-08-10T06:09:26.000Z</time>
      </trkpt>
      <trkpt lat="43.07475" lon="0.06887">
        <ele>744</ele>
        <time>2021-08-10T06:09:29.000Z</time>
      </trkpt>
      <trkpt lat="43.0747" lon="0.06887">
        <ele>745</ele>
        <time>2021-08-10T06:09:32.000Z</time>
      </trkpt>
      <trkpt lat="43.07465" lon="0.06888">
        <ele>746</ele>
        <time>2021-08-10T06:09:35.000Z</time>
      </trkpt>
      <trkpt lat="43.07459" lon="0.06888">
        <ele>747</ele>
        <time>2021-08-10T06:09:38.000Z</time>
      </trkpt>
      <trkpt lat="43.07454" lon="0.06889">
        <ele>747</ele>
        <time>2021-08-10T06:09:41.000Z</time>
      </trkpt>
      <trkpt lat="43.07449" lon="0.06891">
        <ele>748</ele>
        <time>2021-08-10T06:09:44.000Z</time>
      </trkpt>
      <trkpt lat="43.07444" lon="0.06892">
        <ele>749</ele>
        <time>2021-08-10T06:09:47.000Z</time>
      </trkpt>
      <trkpt lat="43.07439" lon="0.06893">
        <ele>750</ele>
        <time>2021-08-10T06:09:50.000Z</time>
      </trkpt>
      <trkpt lat="43.07434" lon="0.06894">
        <ele>750</ele>
        <time>2021-08-10T06:09:53.000Z</time>
      </trkpt>
      <trkpt lat="43.07429" lon="0.06895">
        <ele>751</ele>
        <time>2021-08-10T06:09:57.000Z</time>
      </trkpt>
      <trkpt lat="43.07424" lon="0.06896">
        <ele>752</ele>
        <time>2021-08-10T06:10:1.000Z</time>
      </trkpt>
      <trkpt lat="43.07418" lon="0.06896">
        <ele>753</ele>
        <time>2021-08-10T06:10:4.000Z</time>
      </trkpt>
      <trkpt lat="43.07414" lon="0.06897">
        <ele>754</ele>
        <time>2021-08-10T06:10:7.000Z</time>
      </trkpt>
      <trkpt lat="43.0741" lon="0.06897">
        <ele>755</ele>
        <time>2021-08-10T06:10:10.000Z</time>
      </trkpt>
      <trkpt lat="43.07406" lon="0.06897">
        <ele>756</ele>
        <time>2021-08-10T06:10:14.000Z</time>
      </trkpt>
      <trkpt lat="43.07401" lon="0.06896">
        <ele>757</ele>
        <time>2021-08-10T06:10:18.000Z</time>
      </trkpt>
      <trkpt lat="43.07395" lon="0.06883">
        <ele>758</ele>
        <time>2021-08-10T06:10:22.000Z</time>
      </trkpt>
      <trkpt lat="43.07391" lon="0.06881">
        <ele>759</ele>
        <time>2021-08-10T06:10:25.000Z</time>
      </trkpt>
      <trkpt lat="43.07386" lon="0.06878">
        <ele>759</ele>
        <time>2021-08-10T06:10:28.000Z</time>
      </trkpt>
      <trkpt lat="43.07382" lon="0.06876">
        <ele>760</ele>
        <time>2021-08-10T06:10:31.000Z</time>
      </trkpt>
      <trkpt lat="43.07377" lon="0.06875">
        <ele>761</ele>
        <time>2021-08-10T06:10:34.000Z</time>
      </trkpt>
      <trkpt lat="43.07372" lon="0.06874">
        <ele>762</ele>
        <time>2021-08-10T06:10:37.000Z</time>
      </trkpt>
      <trkpt lat="43.07365" lon="0.06873">
        <ele>762</ele>
        <time>2021-08-10T06:10:41.000Z</time>
      </trkpt>
      <trkpt lat="43.0736" lon="0.06873">
        <ele>762</ele>
        <time>2021-08-10T06:10:44.000Z</time>
      </trkpt>
      <trkpt lat="43.07355" lon="0.06873">
        <ele>763</ele>
        <time>2021-08-10T06:10:47.000Z</time>
      </trkpt>
      <trkpt lat="43.07349" lon="0.06873">
        <ele>764</ele>
        <time>2021-08-10T06:10:50.000Z</time>
      </trkpt>
      <trkpt lat="43.07345" lon="0.06874">
        <ele>764</ele>
        <time>2021-08-10T06:10:53.000Z</time>
      </trkpt>
      <trkpt lat="43.07339" lon="0.06874">
        <ele>765</ele>
        <time>2021-08-10T06:10:56.000Z</time>
      </trkpt>
      <trkpt lat="43.07334" lon="0.06875">
        <ele>766</ele>
        <time>2021-08-10T06:10:59.000Z</time>
      </trkpt>
      <trkpt lat="43.07329" lon="0.06876">
        <ele>766</ele>
        <time>2021-08-10T06:11:2.000Z</time>
      </trkpt>
      <trkpt lat="43.07324" lon="0.06877">
        <ele>767</ele>
        <time>2021-08-10T06:11:5.000Z</time>
      </trkpt>
      <trkpt lat="43.07319" lon="0.06877">
        <ele>767</ele>
        <time>2021-08-10T06:11:8.000Z</time>
      </trkpt>
      <trkpt lat="43.07317" lon="0.06871">
        <ele>767</ele>
        <time>2021-08-10T06:11:11.000Z</time>
      </trkpt>
      <trkpt lat="43.07319" lon="0.06863">
        <ele>768</ele>
        <time>2021-08-10T06:11:14.000Z</time>
      </trkpt>
      <trkpt lat="43.07322" lon="0.06858">
        <ele>769</ele>
        <time>2021-08-10T06:11:17.000Z</time>
      </trkpt>
      <trkpt lat="43.07327" lon="0.06852">
        <ele>769</ele>
        <time>2021-08-10T06:11:20.000Z</time>
      </trkpt>
      <trkpt lat="43.07331" lon="0.06844">
        <ele>770</ele>
        <time>2021-08-10T06:11:23.000Z</time>
      </trkpt>
      <trkpt lat="43.07334" lon="0.06837">
        <ele>770</ele>
        <time>2021-08-10T06:11:26.000Z</time>
      </trkpt>
      <trkpt lat="43.07337" lon="0.06828">
        <ele>771</ele>
        <time>2021-08-10T06:11:29.000Z</time>
      </trkpt>
      <trkpt lat="43.07338" lon="0.06822">
        <ele>771</ele>
        <time>2021-08-10T06:11:31.000Z</time>
      </trkpt>
      <trkpt lat="43.07339" lon="0.06815">
        <ele>771</ele>
        <time>2021-08-10T06:11:33.000Z</time>
      </trkpt>
      <trkpt lat="43.0734" lon="0.06809">
        <ele>772</ele>
        <time>2021-08-10T06:11:35.000Z</time>
      </trkpt>
      <trkpt lat="43.07341" lon="0.06802">
        <ele>772</ele>
        <time>2021-08-10T06:11:37.000Z</time>
      </trkpt>
      <trkpt lat="43.07341" lon="0.06794">
        <ele>772</ele>
        <time>2021-08-10T06:11:39.000Z</time>
      </trkpt>
      <trkpt lat="43.07338" lon="0.06787">
        <ele>772</ele>
        <time>2021-08-10T06:11:41.000Z</time>
      </trkpt>
      <trkpt lat="43.07336" lon="0.0678">
        <ele>773</ele>
        <time>2021-08-10T06:11:43.000Z</time>
      </trkpt>
      <trkpt lat="43.07334" lon="0.06773">
        <ele>773</ele>
        <time>2021-08-10T06:11:45.000Z</time>
      </trkpt>
      <trkpt lat="43.07333" lon="0.06766">
        <ele>773</ele>
        <time>2021-08-10T06:11:47.000Z</time>
      </trkpt>
      <trkpt lat="43.07331" lon="0.06759">
        <ele>773</ele>
        <time>2021-08-10T06:11:49.000Z</time>
      </trkpt>
      <trkpt lat="43.07328" lon="0.06752">
        <ele>774</ele>
        <time>2021-08-10T06:11:51.000Z</time>
      </trkpt>
      <trkpt lat="43.07326" lon="0.06745">
        <ele>774</ele>
        <time>2021-08-10T06:11:53.000Z</time>
      </trkpt>
      <trkpt lat="43.07324" lon="0.06738">
        <ele>774</ele>
        <time>2021-08-10T06:11:55.000Z</time>
      </trkpt>
      <trkpt lat="43.07322" lon="0.06732">
        <ele>774</ele>
        <time>2021-08-10T06:11:57.000Z</time>
      </trkpt>
      <trkpt lat="43.07319" lon="0.06725">
        <ele>774</ele>
        <time>2021-08-10T06:11:59.000Z</time>
      </trkpt>
      <trkpt lat="43.07317" lon="0.06719">
        <ele>774</ele>
        <time>2021-08-10T06:12:1.000Z</time>
      </trkpt>
      <trkpt lat="43.07315" lon="0.06711">
        <ele>774</ele>
        <time>2021-08-10T06:12:3.000Z</time>
      </trkpt>
      <trkpt lat="43.07313" lon="0.06705">
        <ele>775</ele>
        <time>2021-08-10T06:12:5.000Z</time>
      </trkpt>
      <trkpt lat="43.0731" lon="0.06697">
        <ele>775</ele>
        <time>2021-08-10T06:12:7.000Z</time>
      </trkpt>
      <trkpt lat="43.07307" lon="0.0669">
        <ele>775</ele>
        <time>2021-08-10T06:12:9.000Z</time>
      </trkpt>
      <trkpt lat="43.07305" lon="0.06683">
        <ele>776</ele>
        <time>2021-08-10T06:12:11.000Z</time>
      </trkpt>
      <trkpt lat="43.07303" lon="0.06676">
        <ele>776</ele>
        <time>2021-08-10T06:12:13.000Z</time>
      </trkpt>
      <trkpt lat="43.073" lon="0.06669">
        <ele>776</ele>
        <time>2021-08-10T06:12:15.000Z</time>
      </trkpt>
      <trkpt lat="43.07297" lon="0.06662">
        <ele>777</ele>
        <time>2021-08-10T06:12:17.000Z</time>
      </trkpt>
      <trkpt lat="43.07295" lon="0.06655">
        <ele>777</ele>
        <time>2021-08-10T06:12:19.000Z</time>
      </trkpt>
      <trkpt lat="43.07293" lon="0.06649">
        <ele>777</ele>
        <time>2021-08-10T06:12:21.000Z</time>
      </trkpt>
      <trkpt lat="43.0729" lon="0.06642">
        <ele>778</ele>
        <time>2021-08-10T06:12:23.000Z</time>
      </trkpt>
      <trkpt lat="43.07288" lon="0.06636">
        <ele>778</ele>
        <time>2021-08-10T06:12:25.000Z</time>
      </trkpt>
      <trkpt lat="43.07285" lon="0.06629">
        <ele>778</ele>
        <time>2021-08-10T06:12:27.000Z</time>
      </trkpt>
      <trkpt lat="43.07282" lon="0.06623">
        <ele>779</ele>
        <time>2021-08-10T06:12:29.000Z</time>
      </trkpt>
      <trkpt lat="43.0728" lon="0.06617">
        <ele>779</ele>
        <time>2021-08-10T06:12:31.000Z</time>
      </trkpt>
      <trkpt lat="43.07277" lon="0.0661">
        <ele>779</ele>
        <time>2021-08-10T06:12:33.000Z</time>
      </trkpt>
      <trkpt lat="43.07274" lon="0.06603">
        <ele>779</ele>
        <time>2021-08-10T06:12:35.000Z</time>
      </trkpt>
      <trkpt lat="43.07272" lon="0.06598">
        <ele>779</ele>
        <time>2021-08-10T06:12:37.000Z</time>
      </trkpt>
      <trkpt lat="43.07269" lon="0.06591">
        <ele>780</ele>
        <time>2021-08-10T06:12:39.000Z</time>
      </trkpt>
      <trkpt lat="43.07266" lon="0.06584">
        <ele>780</ele>
        <time>2021-08-10T06:12:41.000Z</time>
      </trkpt>
      <trkpt lat="43.07264" lon="0.06579">
        <ele>781</ele>
        <time>2021-08-10T06:12:43.000Z</time>
      </trkpt>
      <trkpt lat="43.07261" lon="0.06572">
        <ele>781</ele>
        <time>2021-08-10T06:12:45.000Z</time>
      </trkpt>
      <trkpt lat="43.07258" lon="0.06566">
        <ele>781</ele>
        <time>2021-08-10T06:12:47.000Z</time>
      </trkpt>
      <trkpt lat="43.07255" lon="0.0656">
        <ele>782</ele>
        <time>2021-08-10T06:12:49.000Z</time>
      </trkpt>
      <trkpt lat="43.07252" lon="0.06554">
        <ele>782</ele>
        <time>2021-08-10T06:12:51.000Z</time>
      </trkpt>
      <trkpt lat="43.07249" lon="0.06548">
        <ele>782</ele>
        <time>2021-08-10T06:12:53.000Z</time>
      </trkpt>
      <trkpt lat="43.07246" lon="0.06542">
        <ele>783</ele>
        <time>2021-08-10T06:12:55.000Z</time>
      </trkpt>
      <trkpt lat="43.07243" lon="0.06536">
        <ele>783</ele>
        <time>2021-08-10T06:12:57.000Z</time>
      </trkpt>
      <trkpt lat="43.0724" lon="0.06531">
        <ele>783</ele>
        <time>2021-08-10T06:12:59.000Z</time>
      </trkpt>
      <trkpt lat="43.07237" lon="0.06525">
        <ele>784</ele>
        <time>2021-08-10T06:13:1.000Z</time>
      </trkpt>
      <trkpt lat="43.07225" lon="0.06519">
        <ele>784</ele>
        <time>2021-08-10T06:13:3.000Z</time>
      </trkpt>
      <trkpt lat="43.0722" lon="0.06514">
        <ele>784</ele>
        <time>2021-08-10T06:13:5.000Z</time>
      </trkpt>
      <trkpt lat="43.07214" lon="0.06509">
        <ele>784</ele>
        <time>2021-08-10T06:13:7.000Z</time>
      </trkpt>
      <trkpt lat="43.07209" lon="0.06504">
        <ele>784</ele>
        <time>2021-08-10T06:13:9.000Z</time>
      </trkpt>
      <trkpt lat="43.07204" lon="0.06499">
        <ele>784</ele>
        <time>2021-08-10T06:13:11.000Z</time>
      </trkpt>
      <trkpt lat="43.072" lon="0.06494">
        <ele>784</ele>
        <time>2021-08-10T06:13:13.000Z</time>
      </trkpt>
      <trkpt lat="43.07195" lon="0.06487">
        <ele>784</ele>
        <time>2021-08-10T06:13:15.000Z</time>
      </trkpt>
      <trkpt lat="43.07192" lon="0.06481">
        <ele>784</ele>
        <time>2021-08-10T06:13:17.000Z</time>
      </trkpt>
      <trkpt lat="43.07189" lon="0.06475">
        <ele>784</ele>
        <time>2021-08-10T06:13:19.000Z</time>
      </trkpt>
      <trkpt lat="43.07185" lon="0.0647">
        <ele>784</ele>
        <time>2021-08-10T06:13:22.000Z</time>
      </trkpt>
      <trkpt lat="43.07182" lon="0.06465">
        <ele>785</ele>
        <time>2021-08-10T06:13:25.000Z</time>
      </trkpt>
      <trkpt lat="43.07178" lon="0.06458">
        <ele>785</ele>
        <time>2021-08-10T06:13:28.000Z</time>
      </trkpt>
      <trkpt lat="43.07175" lon="0.06452">
        <ele>785</ele>
        <time>2021-08-10T06:13:31.000Z</time>
      </trkpt>
      <trkpt lat="43.07179" lon="0.06459">
        <ele>785</ele>
        <time>2021-08-10T06:13:38.000Z</time>
      </trkpt>
      <trkpt lat="43.07178" lon="0.06466">
        <ele>785</ele>
        <time>2021-08-10T06:13:41.000Z</time>
      </trkpt>
      <trkpt lat="43.07132" lon="0.06352">
        <ele>757</ele>
        <time>2021-08-10T06:17:54.000Z</time>
      </trkpt>
      <trkpt lat="43.07143" lon="0.06356">
        <ele>757</ele>
        <time>2021-08-10T06:17:54.000Z</time>
      </trkpt>
      <trkpt lat="43.07148" lon="0.06361">
        <ele>757</ele>
        <time>2021-08-10T06:17:54.000Z</time>
      </trkpt>
      <trkpt lat="43.07141" lon="0.06352">
        <ele>757</ele>
        <time>2021-08-10T06:17:54.000Z</time>
      </trkpt>
      <trkpt lat="43.07138" lon="0.06346">
        <ele>757</ele>
        <time>2021-08-10T06:17:54.000Z</time>
      </trkpt>
      <trkpt lat="43.07135" lon="0.06339">
        <ele>757</ele>
        <time>2021-08-10T06:17:54.000Z</time>
      </trkpt>
      <trkpt lat="43.07132" lon="0.06332">
        <ele>757</ele>
        <time>2021-08-10T06:17:54.000Z</time>
      </trkpt>
      <trkpt lat="43.07134" lon="0.06325">
        <ele>757</ele>
        <time>2021-08-10T06:17:54.000Z</time>
      </trkpt>
      <trkpt lat="43.07135" lon="0.06317">
        <ele>757</ele>
        <time>2021-08-10T06:17:54.000Z</time>
      </trkpt>
      <trkpt lat="43.07135" lon="0.06309">
        <ele>758</ele>
        <time>2021-08-10T06:17:54.000Z</time>
      </trkpt>
      <trkpt lat="43.07135" lon="0.063">
        <ele>759</ele>
        <time>2021-08-10T06:17:54.000Z</time>
      </trkpt>
      <trkpt lat="43.07137" lon="0.06292">
        <ele>759</ele>
        <time>2021-08-10T06:17:54.000Z</time>
      </trkpt>
      <trkpt lat="43.07138" lon="0.06284">
        <ele>760</ele>
        <time>2021-08-10T06:17:54.000Z</time>
      </trkpt>
      <trkpt lat="43.07138" lon="0.06276">
        <ele>761</ele>
        <time>2021-08-10T06:17:54.000Z</time>
      </trkpt>
      <trkpt lat="43.0714" lon="0.0627">
        <ele>761</ele>
        <time>2021-08-10T06:17:54.000Z</time>
      </trkpt>
      <trkpt lat="43.07141" lon="0.06261">
        <ele>762</ele>
        <time>2021-08-10T06:17:54.000Z</time>
      </trkpt>
      <trkpt lat="43.07142" lon="0.06253">
        <ele>763</ele>
        <time>2021-08-10T06:17:54.000Z</time>
      </trkpt>
      <trkpt lat="43.07143" lon="0.06244">
        <ele>763</ele>
        <time>2021-08-10T06:17:54.000Z</time>
      </trkpt>
      <trkpt lat="43.07146" lon="0.06236">
        <ele>763</ele>
        <time>2021-08-10T06:17:54.000Z</time>
      </trkpt>
      <trkpt lat="43.07148" lon="0.06229">
        <ele>764</ele>
        <time>2021-08-10T06:17:54.000Z</time>
      </trkpt>
      <trkpt lat="43.07149" lon="0.06221">
        <ele>765</ele>
        <time>2021-08-10T06:17:54.000Z</time>
      </trkpt>
      <trkpt lat="43.07151" lon="0.06213">
        <ele>766</ele>
        <time>2021-08-10T06:17:54.000Z</time>
      </trkpt>
      <trkpt lat="43.07153" lon="0.06205">
        <ele>766</ele>
        <time>2021-08-10T06:17:54.000Z</time>
      </trkpt>
      <trkpt lat="43.07153" lon="0.06198">
        <ele>767</ele>
        <time>2021-08-10T06:17:54.000Z</time>
      </trkpt>
      <trkpt lat="43.07155" lon="0.06189">
        <ele>768</ele>
        <time>2021-08-10T06:17:54.000Z</time>
      </trkpt>
      <trkpt lat="43.07157" lon="0.06181">
        <ele>769</ele>
        <time>2021-08-10T06:17:54.000Z</time>
      </trkpt>
      <trkpt lat="43.07159" lon="0.06174">
        <ele>769</ele>
        <time>2021-08-10T06:17:54.000Z</time>
      </trkpt>
      <trkpt lat="43.07162" lon="0.06165">
        <ele>769</ele>
        <time>2021-08-10T06:17:54.000Z</time>
      </trkpt>
      <trkpt lat="43.07164" lon="0.06157">
        <ele>770</ele>
        <time>2021-08-10T06:17:54.000Z</time>
      </trkpt>
      <trkpt lat="43.07167" lon="0.0615">
        <ele>771</ele>
        <time>2021-08-10T06:17:54.000Z</time>
      </trkpt>
      <trkpt lat="43.07168" lon="0.06149">
        <ele>771</ele>
        <time>2021-08-10T06:17:54.000Z</time>
      </trkpt>
      <trkpt lat="43.07169" lon="0.06144">
        <ele>771</ele>
        <time>2021-08-10T06:17:56.000Z</time>
      </trkpt>
      <trkpt lat="43.07172" lon="0.06136">
        <ele>772</ele>
        <time>2021-08-10T06:17:59.000Z</time>
      </trkpt>
      <trkpt lat="43.07174" lon="0.06129">
        <ele>773</ele>
        <time>2021-08-10T06:18:2.000Z</time>
      </trkpt>
      <trkpt lat="43.07175" lon="0.06122">
        <ele>774</ele>
        <time>2021-08-10T06:18:5.000Z</time>
      </trkpt>
      <trkpt lat="43.07176" lon="0.06114">
        <ele>774</ele>
        <time>2021-08-10T06:18:8.000Z</time>
      </trkpt>
      <trkpt lat="43.07177" lon="0.06108">
        <ele>774</ele>
        <time>2021-08-10T06:18:11.000Z</time>
      </trkpt>
      <trkpt lat="43.07176" lon="0.06101">
        <ele>775</ele>
        <time>2021-08-10T06:18:14.000Z</time>
      </trkpt>
      <trkpt lat="43.07175" lon="0.06095">
        <ele>776</ele>
        <time>2021-08-10T06:18:17.000Z</time>
      </trkpt>
      <trkpt lat="43.07174" lon="0.06089">
        <ele>776</ele>
        <time>2021-08-10T06:18:20.000Z</time>
      </trkpt>
      <trkpt lat="43.07173" lon="0.06083">
        <ele>777</ele>
        <time>2021-08-10T06:18:23.000Z</time>
      </trkpt>
      <trkpt lat="43.07171" lon="0.06078">
        <ele>778</ele>
        <time>2021-08-10T06:18:26.000Z</time>
      </trkpt>
      <trkpt lat="43.07162" lon="0.06072">
        <ele>779</ele>
        <time>2021-08-10T06:18:30.000Z</time>
      </trkpt>
      <trkpt lat="43.07159" lon="0.06067">
        <ele>780</ele>
        <time>2021-08-10T06:18:33.000Z</time>
      </trkpt>
      <trkpt lat="43.07155" lon="0.06062">
        <ele>781</ele>
        <time>2021-08-10T06:18:36.000Z</time>
      </trkpt>
      <trkpt lat="43.07151" lon="0.06058">
        <ele>782</ele>
        <time>2021-08-10T06:18:39.000Z</time>
      </trkpt>
      <trkpt lat="43.07147" lon="0.06054">
        <ele>783</ele>
        <time>2021-08-10T06:18:42.000Z</time>
      </trkpt>
      <trkpt lat="43.07142" lon="0.06049">
        <ele>784</ele>
        <time>2021-08-10T06:18:46.000Z</time>
      </trkpt>
      <trkpt lat="43.07139" lon="0.06045">
        <ele>784</ele>
        <time>2021-08-10T06:18:49.000Z</time>
      </trkpt>
      <trkpt lat="43.07135" lon="0.06041">
        <ele>784</ele>
        <time>2021-08-10T06:18:52.000Z</time>
      </trkpt>
      <trkpt lat="43.07131" lon="0.06037">
        <ele>785</ele>
        <time>2021-08-10T06:18:55.000Z</time>
      </trkpt>
      <trkpt lat="43.07126" lon="0.06033">
        <ele>786</ele>
        <time>2021-08-10T06:18:58.000Z</time>
      </trkpt>
      <trkpt lat="43.07122" lon="0.06028">
        <ele>787</ele>
        <time>2021-08-10T06:19:2.000Z</time>
      </trkpt>
      <trkpt lat="43.07118" lon="0.06024">
        <ele>788</ele>
        <time>2021-08-10T06:19:5.000Z</time>
      </trkpt>
      <trkpt lat="43.07113" lon="0.06021">
        <ele>789</ele>
        <time>2021-08-10T06:19:8.000Z</time>
      </trkpt>
      <trkpt lat="43.07109" lon="0.06017">
        <ele>789</ele>
        <time>2021-08-10T06:19:11.000Z</time>
      </trkpt>
      <trkpt lat="43.07105" lon="0.06014">
        <ele>790</ele>
        <time>2021-08-10T06:19:14.000Z</time>
      </trkpt>
      <trkpt lat="43.07101" lon="0.0601">
        <ele>791</ele>
        <time>2021-08-10T06:19:18.000Z</time>
      </trkpt>
      <trkpt lat="43.07096" lon="0.06006">
        <ele>792</ele>
        <time>2021-08-10T06:19:21.000Z</time>
      </trkpt>
      <trkpt lat="43.07092" lon="0.06002">
        <ele>793</ele>
        <time>2021-08-10T06:19:24.000Z</time>
      </trkpt>
      <trkpt lat="43.07087" lon="0.05998">
        <ele>794</ele>
        <time>2021-08-10T06:19:27.000Z</time>
      </trkpt>
      <trkpt lat="43.07083" lon="0.05995">
        <ele>794</ele>
        <time>2021-08-10T06:19:30.000Z</time>
      </trkpt>
      <trkpt lat="43.07079" lon="0.05991">
        <ele>795</ele>
        <time>2021-08-10T06:19:33.000Z</time>
      </trkpt>
      <trkpt lat="43.07075" lon="0.05988">
        <ele>796</ele>
        <time>2021-08-10T06:19:36.000Z</time>
      </trkpt>
      <trkpt lat="43.07071" lon="0.05984">
        <ele>797</ele>
        <time>2021-08-10T06:19:39.000Z</time>
      </trkpt>
      <trkpt lat="43.07067" lon="0.0598">
        <ele>797</ele>
        <time>2021-08-10T06:19:42.000Z</time>
      </trkpt>
      <trkpt lat="43.07062" lon="0.05976">
        <ele>798</ele>
        <time>2021-08-10T06:19:45.000Z</time>
      </trkpt>
      <trkpt lat="43.07059" lon="0.05973">
        <ele>799</ele>
        <time>2021-08-10T06:19:48.000Z</time>
      </trkpt>
      <trkpt lat="43.07055" lon="0.05969">
        <ele>800</ele>
        <time>2021-08-10T06:19:51.000Z</time>
      </trkpt>
      <trkpt lat="43.0705" lon="0.05965">
        <ele>801</ele>
        <time>2021-08-10T06:19:54.000Z</time>
      </trkpt>
      <trkpt lat="43.07047" lon="0.05961">
        <ele>801</ele>
        <time>2021-08-10T06:19:57.000Z</time>
      </trkpt>
      <trkpt lat="43.07042" lon="0.05957">
        <ele>802</ele>
        <time>2021-08-10T06:20:0.000Z</time>
      </trkpt>
      <trkpt lat="43.07039" lon="0.05953">
        <ele>803</ele>
        <time>2021-08-10T06:20:3.000Z</time>
      </trkpt>
      <trkpt lat="43.07035" lon="0.05948">
        <ele>803</ele>
        <time>2021-08-10T06:20:6.000Z</time>
      </trkpt>
      <trkpt lat="43.0703" lon="0.05944">
        <ele>804</ele>
        <time>2021-08-10T06:20:9.000Z</time>
      </trkpt>
      <trkpt lat="43.07026" lon="0.05939">
        <ele>805</ele>
        <time>2021-08-10T06:20:12.000Z</time>
      </trkpt>
      <trkpt lat="43.07021" lon="0.05934">
        <ele>805</ele>
        <time>2021-08-10T06:20:15.000Z</time>
      </trkpt>
      <trkpt lat="43.07018" lon="0.0593">
        <ele>806</ele>
        <time>2021-08-10T06:20:17.000Z</time>
      </trkpt>
      <trkpt lat="43.07012" lon="0.05924">
        <ele>806</ele>
        <time>2021-08-10T06:20:20.000Z</time>
      </trkpt>
      <trkpt lat="43.07007" lon="0.05919">
        <ele>807</ele>
        <time>2021-08-10T06:20:23.000Z</time>
      </trkpt>
      <trkpt lat="43.07002" lon="0.05915">
        <ele>808</ele>
        <time>2021-08-10T06:20:26.000Z</time>
      </trkpt>
      <trkpt lat="43.06997" lon="0.0591">
        <ele>808</ele>
        <time>2021-08-10T06:20:29.000Z</time>
      </trkpt>
      <trkpt lat="43.06992" lon="0.05904">
        <ele>808</ele>
        <time>2021-08-10T06:20:32.000Z</time>
      </trkpt>
      <trkpt lat="43.06987" lon="0.05899">
        <ele>809</ele>
        <time>2021-08-10T06:20:35.000Z</time>
      </trkpt>
      <trkpt lat="43.06982" lon="0.05895">
        <ele>809</ele>
        <time>2021-08-10T06:20:37.000Z</time>
      </trkpt>
      <trkpt lat="43.06976" lon="0.0589">
        <ele>810</ele>
        <time>2021-08-10T06:20:40.000Z</time>
      </trkpt>
      <trkpt lat="43.0697" lon="0.05886">
        <ele>810</ele>
        <time>2021-08-10T06:20:42.000Z</time>
      </trkpt>
      <trkpt lat="43.06965" lon="0.05882">
        <ele>811</ele>
        <time>2021-08-10T06:20:44.000Z</time>
      </trkpt>
      <trkpt lat="43.0696" lon="0.05878">
        <ele>811</ele>
        <time>2021-08-10T06:20:47.000Z</time>
      </trkpt>
      <trkpt lat="43.06953" lon="0.05874">
        <ele>812</ele>
        <time>2021-08-10T06:20:50.000Z</time>
      </trkpt>
      <trkpt lat="43.06947" lon="0.0587">
        <ele>812</ele>
        <time>2021-08-10T06:20:53.000Z</time>
      </trkpt>
      <trkpt lat="43.06942" lon="0.05867">
        <ele>813</ele>
        <time>2021-08-10T06:20:55.000Z</time>
      </trkpt>
      <trkpt lat="43.06936" lon="0.05863">
        <ele>813</ele>
        <time>2021-08-10T06:20:58.000Z</time>
      </trkpt>
      <trkpt lat="43.0693" lon="0.0586">
        <ele>814</ele>
        <time>2021-08-10T06:21:1.000Z</time>
      </trkpt>
      <trkpt lat="43.06924" lon="0.05857">
        <ele>814</ele>
        <time>2021-08-10T06:21:4.000Z</time>
      </trkpt>
      <trkpt lat="43.06918" lon="0.05854">
        <ele>814</ele>
        <time>2021-08-10T06:21:7.000Z</time>
      </trkpt>
      <trkpt lat="43.06912" lon="0.05852">
        <ele>815</ele>
        <time>2021-08-10T06:21:10.000Z</time>
      </trkpt>
      <trkpt lat="43.06907" lon="0.0585">
        <ele>816</ele>
        <time>2021-08-10T06:21:13.000Z</time>
      </trkpt>
      <trkpt lat="43.06902" lon="0.05848">
        <ele>816</ele>
        <time>2021-08-10T06:21:16.000Z</time>
      </trkpt>
      <trkpt lat="43.06897" lon="0.05846">
        <ele>817</ele>
        <time>2021-08-10T06:21:19.000Z</time>
      </trkpt>
      <trkpt lat="43.06892" lon="0.05844">
        <ele>818</ele>
        <time>2021-08-10T06:21:22.000Z</time>
      </trkpt>
      <trkpt lat="43.06888" lon="0.05841">
        <ele>818</ele>
        <time>2021-08-10T06:21:25.000Z</time>
      </trkpt>
      <trkpt lat="43.06884" lon="0.05838">
        <ele>819</ele>
        <time>2021-08-10T06:21:28.000Z</time>
      </trkpt>
      <trkpt lat="43.0688" lon="0.05836">
        <ele>819</ele>
        <time>2021-08-10T06:21:30.000Z</time>
      </trkpt>
      <trkpt lat="43.06876" lon="0.05834">
        <ele>820</ele>
        <time>2021-08-10T06:21:33.000Z</time>
      </trkpt>
      <trkpt lat="43.06873" lon="0.05831">
        <ele>820</ele>
        <time>2021-08-10T06:21:35.000Z</time>
      </trkpt>
      <trkpt lat="43.06869" lon="0.0582">
        <ele>820</ele>
        <time>2021-08-10T06:21:38.000Z</time>
      </trkpt>
      <trkpt lat="43.06864" lon="0.05813">
        <ele>821</ele>
        <time>2021-08-10T06:21:41.000Z</time>
      </trkpt>
      <trkpt lat="43.0686" lon="0.05806">
        <ele>822</ele>
        <time>2021-08-10T06:21:44.000Z</time>
      </trkpt>
      <trkpt lat="43.06857" lon="0.05801">
        <ele>822</ele>
        <time>2021-08-10T06:21:46.000Z</time>
      </trkpt>
      <trkpt lat="43.06854" lon="0.05793">
        <ele>823</ele>
        <time>2021-08-10T06:21:49.000Z</time>
      </trkpt>
      <trkpt lat="43.0685" lon="0.05786">
        <ele>823</ele>
        <time>2021-08-10T06:21:52.000Z</time>
      </trkpt>
      <trkpt lat="43.06847" lon="0.0578">
        <ele>824</ele>
        <time>2021-08-10T06:21:55.000Z</time>
      </trkpt>
      <trkpt lat="43.06843" lon="0.05773">
        <ele>825</ele>
        <time>2021-08-10T06:21:58.000Z</time>
      </trkpt>
      <trkpt lat="43.06841" lon="0.05768">
        <ele>825</ele>
        <time>2021-08-10T06:22:1.000Z</time>
      </trkpt>
      <trkpt lat="43.06838" lon="0.05762">
        <ele>826</ele>
        <time>2021-08-10T06:22:4.000Z</time>
      </trkpt>
      <trkpt lat="43.06835" lon="0.05757">
        <ele>827</ele>
        <time>2021-08-10T06:22:7.000Z</time>
      </trkpt>
      <trkpt lat="43.0683" lon="0.05756">
        <ele>828</ele>
        <time>2021-08-10T06:22:10.000Z</time>
      </trkpt>
      <trkpt lat="43.06825" lon="0.05758">
        <ele>828</ele>
        <time>2021-08-10T06:22:13.000Z</time>
      </trkpt>
      <trkpt lat="43.06823" lon="0.05764">
        <ele>828</ele>
        <time>2021-08-10T06:22:16.000Z</time>
      </trkpt>
      <trkpt lat="43.06821" lon="0.05772">
        <ele>829</ele>
        <time>2021-08-10T06:22:19.000Z</time>
      </trkpt>
      <trkpt lat="43.06819" lon="0.05782">
        <ele>829</ele>
        <time>2021-08-10T06:22:22.000Z</time>
      </trkpt>
      <trkpt lat="43.06818" lon="0.05789">
        <ele>829</ele>
        <time>2021-08-10T06:22:24.000Z</time>
      </trkpt>
      <trkpt lat="43.06816" lon="0.05797">
        <ele>829</ele>
        <time>2021-08-10T06:22:26.000Z</time>
      </trkpt>
      <trkpt lat="43.06815" lon="0.05804">
        <ele>829</ele>
        <time>2021-08-10T06:22:28.000Z</time>
      </trkpt>
      <trkpt lat="43.06812" lon="0.05812">
        <ele>829</ele>
        <time>2021-08-10T06:22:30.000Z</time>
      </trkpt>
      <trkpt lat="43.0681" lon="0.0582">
        <ele>829</ele>
        <time>2021-08-10T06:22:32.000Z</time>
      </trkpt>
      <trkpt lat="43.06809" lon="0.05826">
        <ele>830</ele>
        <time>2021-08-10T06:22:34.000Z</time>
      </trkpt>
      <trkpt lat="43.06806" lon="0.05833">
        <ele>830</ele>
        <time>2021-08-10T06:22:36.000Z</time>
      </trkpt>
      <trkpt lat="43.06804" lon="0.05839">
        <ele>830</ele>
        <time>2021-08-10T06:22:38.000Z</time>
      </trkpt>
      <trkpt lat="43.06799" lon="0.05845">
        <ele>830</ele>
        <time>2021-08-10T06:22:40.000Z</time>
      </trkpt>
      <trkpt lat="43.06795" lon="0.0585">
        <ele>831</ele>
        <time>2021-08-10T06:22:42.000Z</time>
      </trkpt>
      <trkpt lat="43.06791" lon="0.05855">
        <ele>831</ele>
        <time>2021-08-10T06:22:44.000Z</time>
      </trkpt>
      <trkpt lat="43.06788" lon="0.0586">
        <ele>831</ele>
        <time>2021-08-10T06:22:46.000Z</time>
      </trkpt>
      <trkpt lat="43.06783" lon="0.05866">
        <ele>832</ele>
        <time>2021-08-10T06:22:48.000Z</time>
      </trkpt>
      <trkpt lat="43.06779" lon="0.0587">
        <ele>832</ele>
        <time>2021-08-10T06:22:50.000Z</time>
      </trkpt>
      <trkpt lat="43.06773" lon="0.05874">
        <ele>833</ele>
        <time>2021-08-10T06:22:53.000Z</time>
      </trkpt>
      <trkpt lat="43.06767" lon="0.05878">
        <ele>833</ele>
        <time>2021-08-10T06:22:56.000Z</time>
      </trkpt>
      <trkpt lat="43.06761" lon="0.05883">
        <ele>834</ele>
        <time>2021-08-10T06:22:59.000Z</time>
      </trkpt>
      <trkpt lat="43.06756" lon="0.05886">
        <ele>834</ele>
        <time>2021-08-10T06:23:2.000Z</time>
      </trkpt>
      <trkpt lat="43.06751" lon="0.05888">
        <ele>835</ele>
        <time>2021-08-10T06:23:5.000Z</time>
      </trkpt>
      <trkpt lat="43.06745" lon="0.0589">
        <ele>835</ele>
        <time>2021-08-10T06:23:8.000Z</time>
      </trkpt>
      <trkpt lat="43.0674" lon="0.05891">
        <ele>836</ele>
        <time>2021-08-10T06:23:11.000Z</time>
      </trkpt>
      <trkpt lat="43.06735" lon="0.05892">
        <ele>837</ele>
        <time>2021-08-10T06:23:14.000Z</time>
      </trkpt>
      <trkpt lat="43.0673" lon="0.05892">
        <ele>838</ele>
        <time>2021-08-10T06:23:17.000Z</time>
      </trkpt>
      <trkpt lat="43.06724" lon="0.05892">
        <ele>839</ele>
        <time>2021-08-10T06:23:20.000Z</time>
      </trkpt>
      <trkpt lat="43.0672" lon="0.05892">
        <ele>840</ele>
        <time>2021-08-10T06:23:23.000Z</time>
      </trkpt>
      <trkpt lat="43.06715" lon="0.05892">
        <ele>841</ele>
        <time>2021-08-10T06:23:26.000Z</time>
      </trkpt>
      <trkpt lat="43.0671" lon="0.05884">
        <ele>841</ele>
        <time>2021-08-10T06:23:30.000Z</time>
      </trkpt>
      <trkpt lat="43.06704" lon="0.05884">
        <ele>842</ele>
        <time>2021-08-10T06:23:33.000Z</time>
      </trkpt>
      <trkpt lat="43.06699" lon="0.05883">
        <ele>843</ele>
        <time>2021-08-10T06:23:36.000Z</time>
      </trkpt>
      <trkpt lat="43.06693" lon="0.05882">
        <ele>845</ele>
        <time>2021-08-10T06:23:40.000Z</time>
      </trkpt>
      <trkpt lat="43.06688" lon="0.05882">
        <ele>846</ele>
        <time>2021-08-10T06:23:44.000Z</time>
      </trkpt>
      <trkpt lat="43.06682" lon="0.05882">
        <ele>847</ele>
        <time>2021-08-10T06:23:47.000Z</time>
      </trkpt>
      <trkpt lat="43.06678" lon="0.05881">
        <ele>847</ele>
        <time>2021-08-10T06:23:50.000Z</time>
      </trkpt>
      <trkpt lat="43.06673" lon="0.05881">
        <ele>848</ele>
        <time>2021-08-10T06:23:53.000Z</time>
      </trkpt>
      <trkpt lat="43.06668" lon="0.05881">
        <ele>849</ele>
        <time>2021-08-10T06:23:56.000Z</time>
      </trkpt>
      <trkpt lat="43.06662" lon="0.05881">
        <ele>850</ele>
        <time>2021-08-10T06:23:59.000Z</time>
      </trkpt>
      <trkpt lat="43.06657" lon="0.05881">
        <ele>851</ele>
        <time>2021-08-10T06:24:2.000Z</time>
      </trkpt>
      <trkpt lat="43.06652" lon="0.05881">
        <ele>852</ele>
        <time>2021-08-10T06:24:5.000Z</time>
      </trkpt>
      <trkpt lat="43.06646" lon="0.05881">
        <ele>852</ele>
        <time>2021-08-10T06:24:8.000Z</time>
      </trkpt>
      <trkpt lat="43.06642" lon="0.05881">
        <ele>853</ele>
        <time>2021-08-10T06:24:11.000Z</time>
      </trkpt>
      <trkpt lat="43.06637" lon="0.05882">
        <ele>854</ele>
        <time>2021-08-10T06:24:14.000Z</time>
      </trkpt>
      <trkpt lat="43.06632" lon="0.05882">
        <ele>855</ele>
        <time>2021-08-10T06:24:17.000Z</time>
      </trkpt>
      <trkpt lat="43.06627" lon="0.05883">
        <ele>856</ele>
        <time>2021-08-10T06:24:20.000Z</time>
      </trkpt>
      <trkpt lat="43.06622" lon="0.05884">
        <ele>856</ele>
        <time>2021-08-10T06:24:23.000Z</time>
      </trkpt>
      <trkpt lat="43.06617" lon="0.05884">
        <ele>857</ele>
        <time>2021-08-10T06:24:26.000Z</time>
      </trkpt>
      <trkpt lat="43.06612" lon="0.05885">
        <ele>858</ele>
        <time>2021-08-10T06:24:29.000Z</time>
      </trkpt>
      <trkpt lat="43.06607" lon="0.05886">
        <ele>858</ele>
        <time>2021-08-10T06:24:32.000Z</time>
      </trkpt>
      <trkpt lat="43.06602" lon="0.05887">
        <ele>858</ele>
        <time>2021-08-10T06:24:35.000Z</time>
      </trkpt>
      <trkpt lat="43.06597" lon="0.05888">
        <ele>859</ele>
        <time>2021-08-10T06:24:38.000Z</time>
      </trkpt>
      <trkpt lat="43.06592" lon="0.05889">
        <ele>860</ele>
        <time>2021-08-10T06:24:41.000Z</time>
      </trkpt>
      <trkpt lat="43.06587" lon="0.0589">
        <ele>860</ele>
        <time>2021-08-10T06:24:44.000Z</time>
      </trkpt>
      <trkpt lat="43.06582" lon="0.05891">
        <ele>861</ele>
        <time>2021-08-10T06:24:47.000Z</time>
      </trkpt>
      <trkpt lat="43.06576" lon="0.05891">
        <ele>862</ele>
        <time>2021-08-10T06:24:50.000Z</time>
      </trkpt>
      <trkpt lat="43.0657" lon="0.05893">
        <ele>862</ele>
        <time>2021-08-10T06:24:53.000Z</time>
      </trkpt>
      <trkpt lat="43.06566" lon="0.05893">
        <ele>863</ele>
        <time>2021-08-10T06:24:55.000Z</time>
      </trkpt>
      <trkpt lat="43.06559" lon="0.05894">
        <ele>864</ele>
        <time>2021-08-10T06:24:57.000Z</time>
      </trkpt>
      <trkpt lat="43.06553" lon="0.05895">
        <ele>864</ele>
        <time>2021-08-10T06:25:0.000Z</time>
      </trkpt>
      <trkpt lat="43.06547" lon="0.05895">
        <ele>865</ele>
        <time>2021-08-10T06:25:3.000Z</time>
      </trkpt>
      <trkpt lat="43.06541" lon="0.05896">
        <ele>865</ele>
        <time>2021-08-10T06:25:6.000Z</time>
      </trkpt>
      <trkpt lat="43.06536" lon="0.05897">
        <ele>866</ele>
        <time>2021-08-10T06:25:9.000Z</time>
      </trkpt>
      <trkpt lat="43.06531" lon="0.05897">
        <ele>866</ele>
        <time>2021-08-10T06:25:11.000Z</time>
      </trkpt>
      <trkpt lat="43.06526" lon="0.05898">
        <ele>867</ele>
        <time>2021-08-10T06:25:14.000Z</time>
      </trkpt>
      <trkpt lat="43.0652" lon="0.05898">
        <ele>868</ele>
        <time>2021-08-10T06:25:17.000Z</time>
      </trkpt>
      <trkpt lat="43.06514" lon="0.05898">
        <ele>868</ele>
        <time>2021-08-10T06:25:20.000Z</time>
      </trkpt>
      <trkpt lat="43.06509" lon="0.05899">
        <ele>869</ele>
        <time>2021-08-10T06:25:23.000Z</time>
      </trkpt>
      <trkpt lat="43.06503" lon="0.05899">
        <ele>870</ele>
        <time>2021-08-10T06:25:26.000Z</time>
      </trkpt>
      <trkpt lat="43.06498" lon="0.059">
        <ele>870</ele>
        <time>2021-08-10T06:25:29.000Z</time>
      </trkpt>
      <trkpt lat="43.06493" lon="0.059">
        <ele>871</ele>
        <time>2021-08-10T06:25:32.000Z</time>
      </trkpt>
      <trkpt lat="43.06488" lon="0.059">
        <ele>871</ele>
        <time>2021-08-10T06:25:35.000Z</time>
      </trkpt>
      <trkpt lat="43.06483" lon="0.059">
        <ele>871</ele>
        <time>2021-08-10T06:25:38.000Z</time>
      </trkpt>
      <trkpt lat="43.06478" lon="0.059">
        <ele>872</ele>
        <time>2021-08-10T06:25:41.000Z</time>
      </trkpt>
      <trkpt lat="43.06473" lon="0.059">
        <ele>873</ele>
        <time>2021-08-10T06:25:44.000Z</time>
      </trkpt>
      <trkpt lat="43.06468" lon="0.059">
        <ele>873</ele>
        <time>2021-08-10T06:25:47.000Z</time>
      </trkpt>
      <trkpt lat="43.06463" lon="0.059">
        <ele>874</ele>
        <time>2021-08-10T06:25:50.000Z</time>
      </trkpt>
      <trkpt lat="43.06458" lon="0.05899">
        <ele>875</ele>
        <time>2021-08-10T06:25:53.000Z</time>
      </trkpt>
      <trkpt lat="43.06453" lon="0.05899">
        <ele>876</ele>
        <time>2021-08-10T06:25:56.000Z</time>
      </trkpt>
      <trkpt lat="43.06447" lon="0.05898">
        <ele>876</ele>
        <time>2021-08-10T06:25:59.000Z</time>
      </trkpt>
      <trkpt lat="43.06442" lon="0.05898">
        <ele>877</ele>
        <time>2021-08-10T06:26:2.000Z</time>
      </trkpt>
      <trkpt lat="43.06437" lon="0.05897">
        <ele>877</ele>
        <time>2021-08-10T06:26:5.000Z</time>
      </trkpt>
      <trkpt lat="43.06431" lon="0.05896">
        <ele>877</ele>
        <time>2021-08-10T06:26:8.000Z</time>
      </trkpt>
      <trkpt lat="43.06426" lon="0.05896">
        <ele>878</ele>
        <time>2021-08-10T06:26:11.000Z</time>
      </trkpt>
      <trkpt lat="43.06421" lon="0.05895">
        <ele>879</ele>
        <time>2021-08-10T06:26:14.000Z</time>
      </trkpt>
      <trkpt lat="43.06414" lon="0.05894">
        <ele>879</ele>
        <time>2021-08-10T06:26:17.000Z</time>
      </trkpt>
      <trkpt lat="43.06408" lon="0.05893">
        <ele>880</ele>
        <time>2021-08-10T06:26:20.000Z</time>
      </trkpt>
      <trkpt lat="43.06402" lon="0.05892">
        <ele>881</ele>
        <time>2021-08-10T06:26:23.000Z</time>
      </trkpt>
      <trkpt lat="43.06398" lon="0.05891">
        <ele>881</ele>
        <time>2021-08-10T06:26:25.000Z</time>
      </trkpt>
      <trkpt lat="43.06392" lon="0.05891">
        <ele>882</ele>
        <time>2021-08-10T06:26:28.000Z</time>
      </trkpt>
      <trkpt lat="43.06386" lon="0.05889">
        <ele>883</ele>
        <time>2021-08-10T06:26:31.000Z</time>
      </trkpt>
      <trkpt lat="43.06381" lon="0.05888">
        <ele>883</ele>
        <time>2021-08-10T06:26:34.000Z</time>
      </trkpt>
      <trkpt lat="43.06375" lon="0.05887">
        <ele>883</ele>
        <time>2021-08-10T06:26:37.000Z</time>
      </trkpt>
      <trkpt lat="43.06368" lon="0.05886">
        <ele>884</ele>
        <time>2021-08-10T06:26:40.000Z</time>
      </trkpt>
      <trkpt lat="43.06363" lon="0.05885">
        <ele>885</ele>
        <time>2021-08-10T06:26:43.000Z</time>
      </trkpt>
      <trkpt lat="43.06358" lon="0.05884">
        <ele>885</ele>
        <time>2021-08-10T06:26:45.000Z</time>
      </trkpt>
      <trkpt lat="43.06352" lon="0.05883">
        <ele>886</ele>
        <time>2021-08-10T06:26:48.000Z</time>
      </trkpt>
      <trkpt lat="43.06346" lon="0.05882">
        <ele>886</ele>
        <time>2021-08-10T06:26:51.000Z</time>
      </trkpt>
      <trkpt lat="43.06339" lon="0.05881">
        <ele>887</ele>
        <time>2021-08-10T06:26:54.000Z</time>
      </trkpt>
      <trkpt lat="43.06334" lon="0.05881">
        <ele>888</ele>
        <time>2021-08-10T06:26:57.000Z</time>
      </trkpt>
      <trkpt lat="43.06327" lon="0.0588">
        <ele>888</ele>
        <time>2021-08-10T06:27:0.000Z</time>
      </trkpt>
      <trkpt lat="43.06321" lon="0.0588">
        <ele>889</ele>
        <time>2021-08-10T06:27:3.000Z</time>
      </trkpt>
      <trkpt lat="43.06315" lon="0.05879">
        <ele>889</ele>
        <time>2021-08-10T06:27:6.000Z</time>
      </trkpt>
      <trkpt lat="43.0631" lon="0.05879">
        <ele>889</ele>
        <time>2021-08-10T06:27:8.000Z</time>
      </trkpt>
      <trkpt lat="43.06306" lon="0.05879">
        <ele>889</ele>
        <time>2021-08-10T06:27:10.000Z</time>
      </trkpt>
      <trkpt lat="43.063" lon="0.05879">
        <ele>890</ele>
        <time>2021-08-10T06:27:13.000Z</time>
      </trkpt>
      <trkpt lat="43.06294" lon="0.05879">
        <ele>890</ele>
        <time>2021-08-10T06:27:16.000Z</time>
      </trkpt>
      <trkpt lat="43.0629" lon="0.05879">
        <ele>891</ele>
        <time>2021-08-10T06:27:18.000Z</time>
      </trkpt>
      <trkpt lat="43.06283" lon="0.0588">
        <ele>892</ele>
        <time>2021-08-10T06:27:21.000Z</time>
      </trkpt>
      <trkpt lat="43.06278" lon="0.0588">
        <ele>892</ele>
        <time>2021-08-10T06:27:24.000Z</time>
      </trkpt>
      <trkpt lat="43.06272" lon="0.05881">
        <ele>893</ele>
        <time>2021-08-10T06:27:26.000Z</time>
      </trkpt>
      <trkpt lat="43.06266" lon="0.05881">
        <ele>894</ele>
        <time>2021-08-10T06:27:29.000Z</time>
      </trkpt>
      <trkpt lat="43.06261" lon="0.05881">
        <ele>894</ele>
        <time>2021-08-10T06:27:31.000Z</time>
      </trkpt>
      <trkpt lat="43.06254" lon="0.05881">
        <ele>895</ele>
        <time>2021-08-10T06:27:34.000Z</time>
      </trkpt>
      <trkpt lat="43.06248" lon="0.05881">
        <ele>896</ele>
        <time>2021-08-10T06:27:37.000Z</time>
      </trkpt>
      <trkpt lat="43.06242" lon="0.05881">
        <ele>897</ele>
        <time>2021-08-10T06:27:40.000Z</time>
      </trkpt>
      <trkpt lat="43.06237" lon="0.05882">
        <ele>897</ele>
        <time>2021-08-10T06:27:43.000Z</time>
      </trkpt>
      <trkpt lat="43.06233" lon="0.05881">
        <ele>897</ele>
        <time>2021-08-10T06:27:45.000Z</time>
      </trkpt>
      <trkpt lat="43.06227" lon="0.05881">
        <ele>898</ele>
        <time>2021-08-10T06:27:48.000Z</time>
      </trkpt>
      <trkpt lat="43.06221" lon="0.0588">
        <ele>899</ele>
        <time>2021-08-10T06:27:51.000Z</time>
      </trkpt>
      <trkpt lat="43.06215" lon="0.0588">
        <ele>899</ele>
        <time>2021-08-10T06:27:54.000Z</time>
      </trkpt>
      <trkpt lat="43.0621" lon="0.05879">
        <ele>900</ele>
        <time>2021-08-10T06:27:57.000Z</time>
      </trkpt>
      <trkpt lat="43.06206" lon="0.05878">
        <ele>900</ele>
        <time>2021-08-10T06:27:59.000Z</time>
      </trkpt>
      <trkpt lat="43.062" lon="0.05876">
        <ele>901</ele>
        <time>2021-08-10T06:28:2.000Z</time>
      </trkpt>
      <trkpt lat="43.06194" lon="0.05874">
        <ele>901</ele>
        <time>2021-08-10T06:28:5.000Z</time>
      </trkpt>
      <trkpt lat="43.06191" lon="0.05873">
        <ele>902</ele>
        <time>2021-08-10T06:28:7.000Z</time>
      </trkpt>
      <trkpt lat="43.06186" lon="0.05871">
        <ele>902</ele>
        <time>2021-08-10T06:28:9.000Z</time>
      </trkpt>
      <trkpt lat="43.06182" lon="0.05869">
        <ele>902</ele>
        <time>2021-08-10T06:28:11.000Z</time>
      </trkpt>
      <trkpt lat="43.06177" lon="0.05867">
        <ele>902</ele>
        <time>2021-08-10T06:28:13.000Z</time>
      </trkpt>
      <trkpt lat="43.06173" lon="0.05865">
        <ele>902</ele>
        <time>2021-08-10T06:28:15.000Z</time>
      </trkpt>
      <trkpt lat="43.06168" lon="0.05862">
        <ele>902</ele>
        <time>2021-08-10T06:28:17.000Z</time>
      </trkpt>
      <trkpt lat="43.06163" lon="0.05859">
        <ele>902</ele>
        <time>2021-08-10T06:28:19.000Z</time>
      </trkpt>
      <trkpt lat="43.06158" lon="0.05857">
        <ele>902</ele>
        <time>2021-08-10T06:28:21.000Z</time>
      </trkpt>
      <trkpt lat="43.06154" lon="0.05854">
        <ele>903</ele>
        <time>2021-08-10T06:28:23.000Z</time>
      </trkpt>
      <trkpt lat="43.06149" lon="0.05851">
        <ele>903</ele>
        <time>2021-08-10T06:28:25.000Z</time>
      </trkpt>
      <trkpt lat="43.06144" lon="0.05848">
        <ele>903</ele>
        <time>2021-08-10T06:28:27.000Z</time>
      </trkpt>
      <trkpt lat="43.06139" lon="0.05845">
        <ele>904</ele>
        <time>2021-08-10T06:28:29.000Z</time>
      </trkpt>
      <trkpt lat="43.06134" lon="0.05842">
        <ele>904</ele>
        <time>2021-08-10T06:28:31.000Z</time>
      </trkpt>
      <trkpt lat="43.0613" lon="0.05839">
        <ele>904</ele>
        <time>2021-08-10T06:28:33.000Z</time>
      </trkpt>
      <trkpt lat="43.06124" lon="0.05836">
        <ele>905</ele>
        <time>2021-08-10T06:28:35.000Z</time>
      </trkpt>
      <trkpt lat="43.06119" lon="0.05833">
        <ele>905</ele>
        <time>2021-08-10T06:28:37.000Z</time>
      </trkpt>
      <trkpt lat="43.06115" lon="0.0583">
        <ele>906</ele>
        <time>2021-08-10T06:28:39.000Z</time>
      </trkpt>
      <trkpt lat="43.0611" lon="0.05827">
        <ele>906</ele>
        <time>2021-08-10T06:28:41.000Z</time>
      </trkpt>
      <trkpt lat="43.06104" lon="0.05824">
        <ele>906</ele>
        <time>2021-08-10T06:28:43.000Z</time>
      </trkpt>
      <trkpt lat="43.06099" lon="0.05822">
        <ele>906</ele>
        <time>2021-08-10T06:28:45.000Z</time>
      </trkpt>
      <trkpt lat="43.06092" lon="0.05819">
        <ele>907</ele>
        <time>2021-08-10T06:28:48.000Z</time>
      </trkpt>
      <trkpt lat="43.06086" lon="0.05817">
        <ele>908</ele>
        <time>2021-08-10T06:28:51.000Z</time>
      </trkpt>
      <trkpt lat="43.0608" lon="0.05814">
        <ele>908</ele>
        <time>2021-08-10T06:28:54.000Z</time>
      </trkpt>
      <trkpt lat="43.06075" lon="0.05813">
        <ele>908</ele>
        <time>2021-08-10T06:28:57.000Z</time>
      </trkpt>
      <trkpt lat="43.0607" lon="0.05812">
        <ele>909</ele>
        <time>2021-08-10T06:29:0.000Z</time>
      </trkpt>
      <trkpt lat="43.06064" lon="0.05825">
        <ele>909</ele>
        <time>2021-08-10T06:30:32.000Z</time>
      </trkpt>
      <trkpt lat="43.06058" lon="0.0582">
        <ele>909</ele>
        <time>2021-08-10T06:30:36.000Z</time>
      </trkpt>
      <trkpt lat="43.06055" lon="0.05816">
        <ele>909</ele>
        <time>2021-08-10T06:30:38.000Z</time>
      </trkpt>
      <trkpt lat="43.06049" lon="0.05811">
        <ele>909</ele>
        <time>2021-08-10T06:30:40.000Z</time>
      </trkpt>
      <trkpt lat="43.06044" lon="0.05806">
        <ele>909</ele>
        <time>2021-08-10T06:30:42.000Z</time>
      </trkpt>
      <trkpt lat="43.06039" lon="0.05798">
        <ele>909</ele>
        <time>2021-08-10T06:30:44.000Z</time>
      </trkpt>
      <trkpt lat="43.06032" lon="0.0579">
        <ele>909</ele>
        <time>2021-08-10T06:30:46.000Z</time>
      </trkpt>
      <trkpt lat="43.06026" lon="0.05783">
        <ele>908</ele>
        <time>2021-08-10T06:30:48.000Z</time>
      </trkpt>
      <trkpt lat="43.06022" lon="0.05778">
        <ele>908</ele>
        <time>2021-08-10T06:30:49.000Z</time>
      </trkpt>
      <trkpt lat="43.06018" lon="0.05773">
        <ele>908</ele>
        <time>2021-08-10T06:30:50.000Z</time>
      </trkpt>
      <trkpt lat="43.06013" lon="0.05767">
        <ele>908</ele>
        <time>2021-08-10T06:30:51.000Z</time>
      </trkpt>
      <trkpt lat="43.06008" lon="0.05763">
        <ele>908</ele>
        <time>2021-08-10T06:30:52.000Z</time>
      </trkpt>
      <trkpt lat="43.06002" lon="0.05758">
        <ele>907</ele>
        <time>2021-08-10T06:30:53.000Z</time>
      </trkpt>
      <trkpt lat="43.05996" lon="0.05751">
        <ele>907</ele>
        <time>2021-08-10T06:30:54.000Z</time>
      </trkpt>
      <trkpt lat="43.0599" lon="0.05748">
        <ele>906</ele>
        <time>2021-08-10T06:30:55.000Z</time>
      </trkpt>
      <trkpt lat="43.0598" lon="0.05741">
        <ele>906</ele>
        <time>2021-08-10T06:30:56.000Z</time>
      </trkpt>
      <trkpt lat="43.05971" lon="0.05736">
        <ele>905</ele>
        <time>2021-08-10T06:30:57.000Z</time>
      </trkpt>
      <trkpt lat="43.05963" lon="0.05745">
        <ele>905</ele>
        <time>2021-08-10T06:30:58.000Z</time>
      </trkpt>
      <trkpt lat="43.05954" lon="0.05742">
        <ele>904</ele>
        <time>2021-08-10T06:30:59.000Z</time>
      </trkpt>
      <trkpt lat="43.05945" lon="0.05742">
        <ele>904</ele>
        <time>2021-08-10T06:31:0.000Z</time>
      </trkpt>
      <trkpt lat="43.05937" lon="0.05742">
        <ele>904</ele>
        <time>2021-08-10T06:31:1.000Z</time>
      </trkpt>
      <trkpt lat="43.05931" lon="0.05742">
        <ele>903</ele>
        <time>2021-08-10T06:31:2.000Z</time>
      </trkpt>
      <trkpt lat="43.05922" lon="0.05741">
        <ele>903</ele>
        <time>2021-08-10T06:31:3.000Z</time>
      </trkpt>
      <trkpt lat="43.05915" lon="0.05739">
        <ele>903</ele>
        <time>2021-08-10T06:31:4.000Z</time>
      </trkpt>
      <trkpt lat="43.05909" lon="0.05732">
        <ele>902</ele>
        <time>2021-08-10T06:31:5.000Z</time>
      </trkpt>
      <trkpt lat="43.05903" lon="0.05724">
        <ele>902</ele>
        <time>2021-08-10T06:31:6.000Z</time>
      </trkpt>
      <trkpt lat="43.05898" lon="0.05715">
        <ele>901</ele>
        <time>2021-08-10T06:31:7.000Z</time>
      </trkpt>
      <trkpt lat="43.05893" lon="0.05705">
        <ele>900</ele>
        <time>2021-08-10T06:31:8.000Z</time>
      </trkpt>
      <trkpt lat="43.05888" lon="0.05695">
        <ele>899</ele>
        <time>2021-08-10T06:31:9.000Z</time>
      </trkpt>
      <trkpt lat="43.05883" lon="0.05686">
        <ele>898</ele>
        <time>2021-08-10T06:31:10.000Z</time>
      </trkpt>
      <trkpt lat="43.05872" lon="0.05668">
        <ele>896</ele>
        <time>2021-08-10T06:31:11.000Z</time>
      </trkpt>
      <trkpt lat="43.05863" lon="0.05661">
        <ele>895</ele>
        <time>2021-08-10T06:31:12.000Z</time>
      </trkpt>
      <trkpt lat="43.05855" lon="0.05656">
        <ele>894</ele>
        <time>2021-08-10T06:31:13.000Z</time>
      </trkpt>
      <trkpt lat="43.05842" lon="0.05651">
        <ele>894</ele>
        <time>2021-08-10T06:31:14.000Z</time>
      </trkpt>
      <trkpt lat="43.05831" lon="0.05647">
        <ele>893</ele>
        <time>2021-08-10T06:31:15.000Z</time>
      </trkpt>
      <trkpt lat="43.05821" lon="0.05644">
        <ele>893</ele>
        <time>2021-08-10T06:31:16.000Z</time>
      </trkpt>
      <trkpt lat="43.05811" lon="0.0564">
        <ele>892</ele>
        <time>2021-08-10T06:31:17.000Z</time>
      </trkpt>
      <trkpt lat="43.05802" lon="0.05637">
        <ele>892</ele>
        <time>2021-08-10T06:31:18.000Z</time>
      </trkpt>
      <trkpt lat="43.05793" lon="0.05633">
        <ele>892</ele>
        <time>2021-08-10T06:31:19.000Z</time>
      </trkpt>
      <trkpt lat="43.05784" lon="0.0563">
        <ele>892</ele>
        <time>2021-08-10T06:31:20.000Z</time>
      </trkpt>
      <trkpt lat="43.05775" lon="0.05627">
        <ele>892</ele>
        <time>2021-08-10T06:31:21.000Z</time>
      </trkpt>
      <trkpt lat="43.05767" lon="0.05624">
        <ele>892</ele>
        <time>2021-08-10T06:31:22.000Z</time>
      </trkpt>
      <trkpt lat="43.0576" lon="0.05622">
        <ele>892</ele>
        <time>2021-08-10T06:31:23.000Z</time>
      </trkpt>
      <trkpt lat="43.05754" lon="0.05621">
        <ele>892</ele>
        <time>2021-08-10T06:31:24.000Z</time>
      </trkpt>
      <trkpt lat="43.05748" lon="0.0562">
        <ele>892</ele>
        <time>2021-08-10T06:31:26.000Z</time>
      </trkpt>
      <trkpt lat="43.05748" lon="0.0563">
        <ele>892</ele>
        <time>2021-08-10T06:31:32.000Z</time>
      </trkpt>
      <trkpt lat="43.05742" lon="0.05632">
        <ele>892</ele>
        <time>2021-08-10T06:32:9.000Z</time>
      </trkpt>
      <trkpt lat="43.05735" lon="0.05636">
        <ele>892</ele>
        <time>2021-08-10T06:32:11.000Z</time>
      </trkpt>
      <trkpt lat="43.05727" lon="0.05639">
        <ele>890</ele>
        <time>2021-08-10T06:32:13.000Z</time>
      </trkpt>
      <trkpt lat="43.05721" lon="0.05642">
        <ele>890</ele>
        <time>2021-08-10T06:32:14.000Z</time>
      </trkpt>
      <trkpt lat="43.05716" lon="0.05644">
        <ele>889</ele>
        <time>2021-08-10T06:32:15.000Z</time>
      </trkpt>
      <trkpt lat="43.05709" lon="0.05647">
        <ele>889</ele>
        <time>2021-08-10T06:32:16.000Z</time>
      </trkpt>
      <trkpt lat="43.05702" lon="0.0565">
        <ele>888</ele>
        <time>2021-08-10T06:32:17.000Z</time>
      </trkpt>
      <trkpt lat="43.05691" lon="0.05656">
        <ele>888</ele>
        <time>2021-08-10T06:32:18.000Z</time>
      </trkpt>
      <trkpt lat="43.05687" lon="0.05658">
        <ele>886</ele>
        <time>2021-08-10T06:32:19.000Z</time>
      </trkpt>
      <trkpt lat="43.05678" lon="0.05662">
        <ele>886</ele>
        <time>2021-08-10T06:32:20.000Z</time>
      </trkpt>
      <trkpt lat="43.0567" lon="0.05666">
        <ele>885</ele>
        <time>2021-08-10T06:32:21.000Z</time>
      </trkpt>
      <trkpt lat="43.05661" lon="0.05671">
        <ele>885</ele>
        <time>2021-08-10T06:32:22.000Z</time>
      </trkpt>
      <trkpt lat="43.05651" lon="0.05677">
        <ele>884</ele>
        <time>2021-08-10T06:32:23.000Z</time>
      </trkpt>
      <trkpt lat="43.05644" lon="0.05683">
        <ele>884</ele>
        <time>2021-08-10T06:32:24.000Z</time>
      </trkpt>
      <trkpt lat="43.05636" lon="0.05689">
        <ele>882</ele>
        <time>2021-08-10T06:32:25.000Z</time>
      </trkpt>
      <trkpt lat="43.05627" lon="0.05694">
        <ele>882</ele>
        <time>2021-08-10T06:32:26.000Z</time>
      </trkpt>
      <trkpt lat="43.05618" lon="0.057">
        <ele>881</ele>
        <time>2021-08-10T06:32:27.000Z</time>
      </trkpt>
      <trkpt lat="43.05609" lon="0.05707">
        <ele>881</ele>
        <time>2021-08-10T06:32:28.000Z</time>
      </trkpt>
      <trkpt lat="43.056" lon="0.05714">
        <ele>880</ele>
        <time>2021-08-10T06:32:29.000Z</time>
      </trkpt>
      <trkpt lat="43.05593" lon="0.0572">
        <ele>880</ele>
        <time>2021-08-10T06:32:30.000Z</time>
      </trkpt>
      <trkpt lat="43.05584" lon="0.05727">
        <ele>878</ele>
        <time>2021-08-10T06:32:31.000Z</time>
      </trkpt>
      <trkpt lat="43.05576" lon="0.05733">
        <ele>878</ele>
        <time>2021-08-10T06:32:32.000Z</time>
      </trkpt>
      <trkpt lat="43.05566" lon="0.05741">
        <ele>877</ele>
        <time>2021-08-10T06:32:33.000Z</time>
      </trkpt>
      <trkpt lat="43.05558" lon="0.05747">
        <ele>877</ele>
        <time>2021-08-10T06:32:34.000Z</time>
      </trkpt>
      <trkpt lat="43.0555" lon="0.05753">
        <ele>877</ele>
        <time>2021-08-10T06:32:35.000Z</time>
      </trkpt>
      <trkpt lat="43.05542" lon="0.0576">
        <ele>877</ele>
        <time>2021-08-10T06:32:36.000Z</time>
      </trkpt>
      <trkpt lat="43.05534" lon="0.05765">
        <ele>876</ele>
        <time>2021-08-10T06:32:37.000Z</time>
      </trkpt>
      <trkpt lat="43.05524" lon="0.05772">
        <ele>876</ele>
        <time>2021-08-10T06:32:38.000Z</time>
      </trkpt>
      <trkpt lat="43.05518" lon="0.05776">
        <ele>874</ele>
        <time>2021-08-10T06:32:39.000Z</time>
      </trkpt>
      <trkpt lat="43.0551" lon="0.05781">
        <ele>874</ele>
        <time>2021-08-10T06:32:40.000Z</time>
      </trkpt>
      <trkpt lat="43.05501" lon="0.05786">
        <ele>873</ele>
        <time>2021-08-10T06:32:41.000Z</time>
      </trkpt>
      <trkpt lat="43.05492" lon="0.0579">
        <ele>873</ele>
        <time>2021-08-10T06:32:42.000Z</time>
      </trkpt>
      <trkpt lat="43.05486" lon="0.05793">
        <ele>872</ele>
        <time>2021-08-10T06:32:43.000Z</time>
      </trkpt>
      <trkpt lat="43.05476" lon="0.05799">
        <ele>872</ele>
        <time>2021-08-10T06:32:44.000Z</time>
      </trkpt>
      <trkpt lat="43.05469" lon="0.05802">
        <ele>871</ele>
        <time>2021-08-10T06:32:45.000Z</time>
      </trkpt>
      <trkpt lat="43.05459" lon="0.05807">
        <ele>871</ele>
        <time>2021-08-10T06:32:46.000Z</time>
      </trkpt>
      <trkpt lat="43.0545" lon="0.05811">
        <ele>869</ele>
        <time>2021-08-10T06:32:47.000Z</time>
      </trkpt>
      <trkpt lat="43.05443" lon="0.05814">
        <ele>869</ele>
        <time>2021-08-10T06:32:48.000Z</time>
      </trkpt>
      <trkpt lat="43.05431" lon="0.0582">
        <ele>868</ele>
        <time>2021-08-10T06:32:49.000Z</time>
      </trkpt>
      <trkpt lat="43.05424" lon="0.05823">
        <ele>868</ele>
        <time>2021-08-10T06:32:50.000Z</time>
      </trkpt>
      <trkpt lat="43.05415" lon="0.05827">
        <ele>866</ele>
        <time>2021-08-10T06:32:51.000Z</time>
      </trkpt>
      <trkpt lat="43.05405" lon="0.0583">
        <ele>866</ele>
        <time>2021-08-10T06:32:52.000Z</time>
      </trkpt>
      <trkpt lat="43.05396" lon="0.05833">
        <ele>865</ele>
        <time>2021-08-10T06:32:53.000Z</time>
      </trkpt>
      <trkpt lat="43.05388" lon="0.05836">
        <ele>864</ele>
        <time>2021-08-10T06:32:54.000Z</time>
      </trkpt>
      <trkpt lat="43.05381" lon="0.05837">
        <ele>863</ele>
        <time>2021-08-10T06:32:55.000Z</time>
      </trkpt>
      <trkpt lat="43.0537" lon="0.0584">
        <ele>862</ele>
        <time>2021-08-10T06:32:56.000Z</time>
      </trkpt>
      <trkpt lat="43.05362" lon="0.05843">
        <ele>861</ele>
        <time>2021-08-10T06:32:57.000Z</time>
      </trkpt>
      <trkpt lat="43.05354" lon="0.05844">
        <ele>860</ele>
        <time>2021-08-10T06:32:58.000Z</time>
      </trkpt>
      <trkpt lat="43.05347" lon="0.05845">
        <ele>859</ele>
        <time>2021-08-10T06:32:59.000Z</time>
      </trkpt>
      <trkpt lat="43.05339" lon="0.05845">
        <ele>858</ele>
        <time>2021-08-10T06:33:0.000Z</time>
      </trkpt>
      <trkpt lat="43.05331" lon="0.05809">
        <ele>858</ele>
        <time>2021-08-10T06:33:1.000Z</time>
      </trkpt>
      <trkpt lat="43.05323" lon="0.05804">
        <ele>858</ele>
        <time>2021-08-10T06:33:2.000Z</time>
      </trkpt>
      <trkpt lat="43.05315" lon="0.05798">
        <ele>857</ele>
        <time>2021-08-10T06:33:3.000Z</time>
      </trkpt>
      <trkpt lat="43.05307" lon="0.05791">
        <ele>857</ele>
        <time>2021-08-10T06:33:4.000Z</time>
      </trkpt>
      <trkpt lat="43.05299" lon="0.05784">
        <ele>857</ele>
        <time>2021-08-10T06:33:5.000Z</time>
      </trkpt>
      <trkpt lat="43.05292" lon="0.05778">
        <ele>856</ele>
        <time>2021-08-10T06:33:6.000Z</time>
      </trkpt>
      <trkpt lat="43.05286" lon="0.05772">
        <ele>856</ele>
        <time>2021-08-10T06:33:7.000Z</time>
      </trkpt>
      <trkpt lat="43.05281" lon="0.05766">
        <ele>856</ele>
        <time>2021-08-10T06:33:8.000Z</time>
      </trkpt>
      <trkpt lat="43.05275" lon="0.05759">
        <ele>856</ele>
        <time>2021-08-10T06:33:9.000Z</time>
      </trkpt>
      <trkpt lat="43.0527" lon="0.05753">
        <ele>856</ele>
        <time>2021-08-10T06:33:10.000Z</time>
      </trkpt>
      <trkpt lat="43.05266" lon="0.05747">
        <ele>856</ele>
        <time>2021-08-10T06:33:11.000Z</time>
      </trkpt>
      <trkpt lat="43.0526" lon="0.05739">
        <ele>856</ele>
        <time>2021-08-10T06:33:12.000Z</time>
      </trkpt>
      <trkpt lat="43.05254" lon="0.05733">
        <ele>856</ele>
        <time>2021-08-10T06:33:14.000Z</time>
      </trkpt>
      <trkpt lat="43.05248" lon="0.05726">
        <ele>856</ele>
        <time>2021-08-10T06:33:16.000Z</time>
      </trkpt>
      <trkpt lat="43.05243" lon="0.05721">
        <ele>856</ele>
        <time>2021-08-10T06:33:18.000Z</time>
      </trkpt>
      <trkpt lat="43.05238" lon="0.05716">
        <ele>857</ele>
        <time>2021-08-10T06:33:20.000Z</time>
      </trkpt>
      <trkpt lat="43.05232" lon="0.05709">
        <ele>858</ele>
        <time>2021-08-10T06:33:23.000Z</time>
      </trkpt>
      <trkpt lat="43.05228" lon="0.05705">
        <ele>859</ele>
        <time>2021-08-10T06:33:25.000Z</time>
      </trkpt>
      <trkpt lat="43.05222" lon="0.05699">
        <ele>860</ele>
        <time>2021-08-10T06:33:27.000Z</time>
      </trkpt>
      <trkpt lat="43.05217" lon="0.05694">
        <ele>860</ele>
        <time>2021-08-10T06:33:30.000Z</time>
      </trkpt>
      <trkpt lat="43.05211" lon="0.05689">
        <ele>861</ele>
        <time>2021-08-10T06:33:33.000Z</time>
      </trkpt>
      <trkpt lat="43.05206" lon="0.05685">
        <ele>862</ele>
        <time>2021-08-10T06:33:36.000Z</time>
      </trkpt>
      <trkpt lat="43.05201" lon="0.05681">
        <ele>863</ele>
        <time>2021-08-10T06:33:39.000Z</time>
      </trkpt>
      <trkpt lat="43.05196" lon="0.05678">
        <ele>864</ele>
        <time>2021-08-10T06:33:42.000Z</time>
      </trkpt>
      <trkpt lat="43.05191" lon="0.05675">
        <ele>865</ele>
        <time>2021-08-10T06:33:45.000Z</time>
      </trkpt>
      <trkpt lat="43.05187" lon="0.05671">
        <ele>865</ele>
        <time>2021-08-10T06:33:48.000Z</time>
      </trkpt>
      <trkpt lat="43.05182" lon="0.05668">
        <ele>866</ele>
        <time>2021-08-10T06:33:51.000Z</time>
      </trkpt>
      <trkpt lat="43.05177" lon="0.05665">
        <ele>867</ele>
        <time>2021-08-10T06:33:54.000Z</time>
      </trkpt>
      <trkpt lat="43.05172" lon="0.05663">
        <ele>867</ele>
        <time>2021-08-10T06:33:57.000Z</time>
      </trkpt>
      <trkpt lat="43.05169" lon="0.0566">
        <ele>868</ele>
        <time>2021-08-10T06:34:0.000Z</time>
      </trkpt>
      <trkpt lat="43.05164" lon="0.05658">
        <ele>869</ele>
        <time>2021-08-10T06:34:3.000Z</time>
      </trkpt>
      <trkpt lat="43.05159" lon="0.05655">
        <ele>869</ele>
        <time>2021-08-10T06:34:6.000Z</time>
      </trkpt>
      <trkpt lat="43.05154" lon="0.05653">
        <ele>870</ele>
        <time>2021-08-10T06:34:10.000Z</time>
      </trkpt>
      <trkpt lat="43.0515" lon="0.05651">
        <ele>871</ele>
        <time>2021-08-10T06:34:12.000Z</time>
      </trkpt>
      <trkpt lat="43.05145" lon="0.05649">
        <ele>872</ele>
        <time>2021-08-10T06:34:15.000Z</time>
      </trkpt>
      <trkpt lat="43.0514" lon="0.05662">
        <ele>872</ele>
        <time>2021-08-10T06:34:19.000Z</time>
      </trkpt>
      <trkpt lat="43.05138" lon="0.05655">
        <ele>873</ele>
        <time>2021-08-10T06:34:22.000Z</time>
      </trkpt>
      <trkpt lat="43.05136" lon="0.05647">
        <ele>873</ele>
        <time>2021-08-10T06:34:25.000Z</time>
      </trkpt>
      <trkpt lat="43.05134" lon="0.05641">
        <ele>874</ele>
        <time>2021-08-10T06:34:28.000Z</time>
      </trkpt>
      <trkpt lat="43.05133" lon="0.05633">
        <ele>874</ele>
        <time>2021-08-10T06:34:31.000Z</time>
      </trkpt>
      <trkpt lat="43.05131" lon="0.05627">
        <ele>875</ele>
        <time>2021-08-10T06:34:34.000Z</time>
      </trkpt>
      <trkpt lat="43.0513" lon="0.0562">
        <ele>875</ele>
        <time>2021-08-10T06:34:37.000Z</time>
      </trkpt>
      <trkpt lat="43.05128" lon="0.05614">
        <ele>875</ele>
        <time>2021-08-10T06:34:40.000Z</time>
      </trkpt>
      <trkpt lat="43.05126" lon="0.05605">
        <ele>876</ele>
        <time>2021-08-10T06:34:44.000Z</time>
      </trkpt>
      <trkpt lat="43.05124" lon="0.05599">
        <ele>877</ele>
        <time>2021-08-10T06:34:47.000Z</time>
      </trkpt>
      <trkpt lat="43.05122" lon="0.05593">
        <ele>877</ele>
        <time>2021-08-10T06:34:50.000Z</time>
      </trkpt>
      <trkpt lat="43.0512" lon="0.05588">
        <ele>878</ele>
        <time>2021-08-10T06:34:53.000Z</time>
      </trkpt>
      <trkpt lat="43.05117" lon="0.05582">
        <ele>879</ele>
        <time>2021-08-10T06:34:56.000Z</time>
      </trkpt>
      <trkpt lat="43.05114" lon="0.05577">
        <ele>879</ele>
        <time>2021-08-10T06:34:59.000Z</time>
      </trkpt>
      <trkpt lat="43.05112" lon="0.05571">
        <ele>880</ele>
        <time>2021-08-10T06:35:2.000Z</time>
      </trkpt>
      <trkpt lat="43.05109" lon="0.05566">
        <ele>881</ele>
        <time>2021-08-10T06:35:5.000Z</time>
      </trkpt>
      <trkpt lat="43.05101" lon="0.05562">
        <ele>881</ele>
        <time>2021-08-10T06:35:8.000Z</time>
      </trkpt>
      <trkpt lat="43.05097" lon="0.05561">
        <ele>882</ele>
        <time>2021-08-10T06:35:11.000Z</time>
      </trkpt>
      <trkpt lat="43.05092" lon="0.05562">
        <ele>882</ele>
        <time>2021-08-10T06:35:14.000Z</time>
      </trkpt>
      <trkpt lat="43.05088" lon="0.05563">
        <ele>883</ele>
        <time>2021-08-10T06:35:17.000Z</time>
      </trkpt>
      <trkpt lat="43.05082" lon="0.05566">
        <ele>884</ele>
        <time>2021-08-10T06:35:21.000Z</time>
      </trkpt>
      <trkpt lat="43.05077" lon="0.05566">
        <ele>884</ele>
        <time>2021-08-10T06:35:24.000Z</time>
      </trkpt>
      <trkpt lat="43.05071" lon="0.05563">
        <ele>885</ele>
        <time>2021-08-10T06:35:28.000Z</time>
      </trkpt>
      <trkpt lat="43.05067" lon="0.05561">
        <ele>886</ele>
        <time>2021-08-10T06:35:31.000Z</time>
      </trkpt>
      <trkpt lat="43.05062" lon="0.05558">
        <ele>886</ele>
        <time>2021-08-10T06:35:34.000Z</time>
      </trkpt>
      <trkpt lat="43.05058" lon="0.05553">
        <ele>887</ele>
        <time>2021-08-10T06:35:36.000Z</time>
      </trkpt>
      <trkpt lat="43.05056" lon="0.05548">
        <ele>887</ele>
        <time>2021-08-10T06:35:38.000Z</time>
      </trkpt>
      <trkpt lat="43.05052" lon="0.0554">
        <ele>887</ele>
        <time>2021-08-10T06:35:41.000Z</time>
      </trkpt>
      <trkpt lat="43.05049" lon="0.05533">
        <ele>887</ele>
        <time>2021-08-10T06:35:43.000Z</time>
      </trkpt>
      <trkpt lat="43.05045" lon="0.05526">
        <ele>887</ele>
        <time>2021-08-10T06:35:45.000Z</time>
      </trkpt>
      <trkpt lat="43.0504" lon="0.05519">
        <ele>887</ele>
        <time>2021-08-10T06:35:47.000Z</time>
      </trkpt>
      <trkpt lat="43.05037" lon="0.05513">
        <ele>887</ele>
        <time>2021-08-10T06:35:48.000Z</time>
      </trkpt>
      <trkpt lat="43.05031" lon="0.05502">
        <ele>886</ele>
        <time>2021-08-10T06:35:50.000Z</time>
      </trkpt>
      <trkpt lat="43.05027" lon="0.05494">
        <ele>886</ele>
        <time>2021-08-10T06:35:51.000Z</time>
      </trkpt>
      <trkpt lat="43.05022" lon="0.05487">
        <ele>885</ele>
        <time>2021-08-10T06:35:52.000Z</time>
      </trkpt>
      <trkpt lat="43.05018" lon="0.05479">
        <ele>885</ele>
        <time>2021-08-10T06:35:53.000Z</time>
      </trkpt>
      <trkpt lat="43.05013" lon="0.05468">
        <ele>884</ele>
        <time>2021-08-10T06:35:55.000Z</time>
      </trkpt>
      <trkpt lat="43.05008" lon="0.05459">
        <ele>884</ele>
        <time>2021-08-10T06:35:55.000Z</time>
      </trkpt>
      <trkpt lat="43.05002" lon="0.05447">
        <ele>883</ele>
        <time>2021-08-10T06:35:56.000Z</time>
      </trkpt>
      <trkpt lat="43.04996" lon="0.05436">
        <ele>882</ele>
        <time>2021-08-10T06:35:57.000Z</time>
      </trkpt>
      <trkpt lat="43.0499" lon="0.05425">
        <ele>881</ele>
        <time>2021-08-10T06:35:58.000Z</time>
      </trkpt>
      <trkpt lat="43.04985" lon="0.05417">
        <ele>880</ele>
        <time>2021-08-10T06:35:59.000Z</time>
      </trkpt>
      <trkpt lat="43.04979" lon="0.05406">
        <ele>880</ele>
        <time>2021-08-10T06:36:0.000Z</time>
      </trkpt>
      <trkpt lat="43.04971" lon="0.05395">
        <ele>879</ele>
        <time>2021-08-10T06:36:1.000Z</time>
      </trkpt>
      <trkpt lat="43.04966" lon="0.05386">
        <ele>879</ele>
        <time>2021-08-10T06:36:2.000Z</time>
      </trkpt>
      <trkpt lat="43.04959" lon="0.05375">
        <ele>879</ele>
        <time>2021-08-10T06:36:3.000Z</time>
      </trkpt>
      <trkpt lat="43.04955" lon="0.0537">
        <ele>879</ele>
        <time>2021-08-10T06:36:4.000Z</time>
      </trkpt>
      <trkpt lat="43.0495" lon="0.05361">
        <ele>879</ele>
        <time>2021-08-10T06:36:5.000Z</time>
      </trkpt>
      <trkpt lat="43.04945" lon="0.05354">
        <ele>880</ele>
        <time>2021-08-10T06:36:7.000Z</time>
      </trkpt>
      <trkpt lat="43.0494" lon="0.05347">
        <ele>882</ele>
        <time>2021-08-10T06:36:11.000Z</time>
      </trkpt>
      <trkpt lat="43.04934" lon="0.05343">
        <ele>883</ele>
        <time>2021-08-10T06:36:14.000Z</time>
      </trkpt>
      <trkpt lat="43.0493" lon="0.0534">
        <ele>884</ele>
        <time>2021-08-10T06:36:17.000Z</time>
      </trkpt>
      <trkpt lat="43.04925" lon="0.05333">
        <ele>885</ele>
        <time>2021-08-10T06:36:20.000Z</time>
      </trkpt>
      <trkpt lat="43.04921" lon="0.05328">
        <ele>887</ele>
        <time>2021-08-10T06:36:24.000Z</time>
      </trkpt>
      <trkpt lat="43.04918" lon="0.05324">
        <ele>888</ele>
        <time>2021-08-10T06:36:27.000Z</time>
      </trkpt>
      <trkpt lat="43.04913" lon="0.05321">
        <ele>888</ele>
        <time>2021-08-10T06:36:30.000Z</time>
      </trkpt>
      <trkpt lat="43.04909" lon="0.05316">
        <ele>889</ele>
        <time>2021-08-10T06:36:33.000Z</time>
      </trkpt>
      <trkpt lat="43.04905" lon="0.05313">
        <ele>890</ele>
        <time>2021-08-10T06:36:36.000Z</time>
      </trkpt>
      <trkpt lat="43.049" lon="0.0531">
        <ele>891</ele>
        <time>2021-08-10T06:36:39.000Z</time>
      </trkpt>
      <trkpt lat="43.04895" lon="0.05306">
        <ele>891</ele>
        <time>2021-08-10T06:36:42.000Z</time>
      </trkpt>
      <trkpt lat="43.04892" lon="0.05303">
        <ele>892</ele>
        <time>2021-08-10T06:36:45.000Z</time>
      </trkpt>
      <trkpt lat="43.04888" lon="0.05299">
        <ele>892</ele>
        <time>2021-08-10T06:36:48.000Z</time>
      </trkpt>
      <trkpt lat="43.04883" lon="0.05295">
        <ele>893</ele>
        <time>2021-08-10T06:36:51.000Z</time>
      </trkpt>
      <trkpt lat="43.04878" lon="0.05291">
        <ele>894</ele>
        <time>2021-08-10T06:36:54.000Z</time>
      </trkpt>
      <trkpt lat="43.04872" lon="0.05294">
        <ele>895</ele>
        <time>2021-08-10T06:36:57.000Z</time>
      </trkpt>
      <trkpt lat="43.04867" lon="0.05299">
        <ele>895</ele>
        <time>2021-08-10T06:37:0.000Z</time>
      </trkpt>
      <trkpt lat="43.04864" lon="0.05304">
        <ele>896</ele>
        <time>2021-08-10T06:37:3.000Z</time>
      </trkpt>
      <trkpt lat="43.04861" lon="0.05309">
        <ele>896</ele>
        <time>2021-08-10T06:37:5.000Z</time>
      </trkpt>
      <trkpt lat="43.04857" lon="0.05314">
        <ele>896</ele>
        <time>2021-08-10T06:37:7.000Z</time>
      </trkpt>
      <trkpt lat="43.04854" lon="0.05319">
        <ele>896</ele>
        <time>2021-08-10T06:37:9.000Z</time>
      </trkpt>
      <trkpt lat="43.04852" lon="0.05324">
        <ele>896</ele>
        <time>2021-08-10T06:37:11.000Z</time>
      </trkpt>
      <trkpt lat="43.04849" lon="0.05331">
        <ele>896</ele>
        <time>2021-08-10T06:37:13.000Z</time>
      </trkpt>
      <trkpt lat="43.04845" lon="0.05337">
        <ele>896</ele>
        <time>2021-08-10T06:37:15.000Z</time>
      </trkpt>
      <trkpt lat="43.04842" lon="0.05342">
        <ele>896</ele>
        <time>2021-08-10T06:37:17.000Z</time>
      </trkpt>
      <trkpt lat="43.04839" lon="0.05348">
        <ele>896</ele>
        <time>2021-08-10T06:37:19.000Z</time>
      </trkpt>
      <trkpt lat="43.04835" lon="0.05352">
        <ele>897</ele>
        <time>2021-08-10T06:37:21.000Z</time>
      </trkpt>
      <trkpt lat="43.0483" lon="0.05357">
        <ele>897</ele>
        <time>2021-08-10T06:37:23.000Z</time>
      </trkpt>
      <trkpt lat="43.04824" lon="0.05363">
        <ele>898</ele>
        <time>2021-08-10T06:37:26.000Z</time>
      </trkpt>
      <trkpt lat="43.0482" lon="0.05366">
        <ele>898</ele>
        <time>2021-08-10T06:37:28.000Z</time>
      </trkpt>
      <trkpt lat="43.04816" lon="0.05368">
        <ele>899</ele>
        <time>2021-08-10T06:37:30.000Z</time>
      </trkpt>
      <trkpt lat="43.04811" lon="0.05368">
        <ele>899</ele>
        <time>2021-08-10T06:37:32.000Z</time>
      </trkpt>
      <trkpt lat="43.04806" lon="0.05368">
        <ele>900</ele>
        <time>2021-08-10T06:37:34.000Z</time>
      </trkpt>
      <trkpt lat="43.04801" lon="0.05367">
        <ele>900</ele>
        <time>2021-08-10T06:37:36.000Z</time>
      </trkpt>
      <trkpt lat="43.04795" lon="0.05366">
        <ele>900</ele>
        <time>2021-08-10T06:37:38.000Z</time>
      </trkpt>
      <trkpt lat="43.04789" lon="0.05366">
        <ele>900</ele>
        <time>2021-08-10T06:37:40.000Z</time>
      </trkpt>
      <trkpt lat="43.04785" lon="0.05369">
        <ele>901</ele>
        <time>2021-08-10T06:37:42.000Z</time>
      </trkpt>
      <trkpt lat="43.0478" lon="0.05372">
        <ele>901</ele>
        <time>2021-08-10T06:37:43.000Z</time>
      </trkpt>
      <trkpt lat="43.04774" lon="0.05375">
        <ele>901</ele>
        <time>2021-08-10T06:37:45.000Z</time>
      </trkpt>
      <trkpt lat="43.04769" lon="0.05376">
        <ele>902</ele>
        <time>2021-08-10T06:37:47.000Z</time>
      </trkpt>
      <trkpt lat="43.04764" lon="0.05375">
        <ele>902</ele>
        <time>2021-08-10T06:37:49.000Z</time>
      </trkpt>
      <trkpt lat="43.04759" lon="0.05374">
        <ele>902</ele>
        <time>2021-08-10T06:37:51.000Z</time>
      </trkpt>
      <trkpt lat="43.04754" lon="0.05373">
        <ele>902</ele>
        <time>2021-08-10T06:37:53.000Z</time>
      </trkpt>
      <trkpt lat="43.04749" lon="0.05371">
        <ele>902</ele>
        <time>2021-08-10T06:37:55.000Z</time>
      </trkpt>
      <trkpt lat="43.04744" lon="0.05368">
        <ele>902</ele>
        <time>2021-08-10T06:37:57.000Z</time>
      </trkpt>
      <trkpt lat="43.04739" lon="0.05364">
        <ele>903</ele>
        <time>2021-08-10T06:37:59.000Z</time>
      </trkpt>
      <trkpt lat="43.04735" lon="0.0536">
        <ele>903</ele>
        <time>2021-08-10T06:38:1.000Z</time>
      </trkpt>
      <trkpt lat="43.04731" lon="0.05355">
        <ele>903</ele>
        <time>2021-08-10T06:38:3.000Z</time>
      </trkpt>
      <trkpt lat="43.04727" lon="0.05348">
        <ele>903</ele>
        <time>2021-08-10T06:38:5.000Z</time>
      </trkpt>
      <trkpt lat="43.04723" lon="0.05341">
        <ele>903</ele>
        <time>2021-08-10T06:38:7.000Z</time>
      </trkpt>
      <trkpt lat="43.0472" lon="0.05334">
        <ele>904</ele>
        <time>2021-08-10T06:38:9.000Z</time>
      </trkpt>
      <trkpt lat="43.04717" lon="0.05327">
        <ele>904</ele>
        <time>2021-08-10T06:38:11.000Z</time>
      </trkpt>
      <trkpt lat="43.04713" lon="0.05318">
        <ele>904</ele>
        <time>2021-08-10T06:38:13.000Z</time>
      </trkpt>
      <trkpt lat="43.04709" lon="0.05311">
        <ele>904</ele>
        <time>2021-08-10T06:38:15.000Z</time>
      </trkpt>
      <trkpt lat="43.04705" lon="0.05303">
        <ele>904</ele>
        <time>2021-08-10T06:38:17.000Z</time>
      </trkpt>
      <trkpt lat="43.04702" lon="0.05296">
        <ele>905</ele>
        <time>2021-08-10T06:38:19.000Z</time>
      </trkpt>
      <trkpt lat="43.04698" lon="0.05288">
        <ele>905</ele>
        <time>2021-08-10T06:38:21.000Z</time>
      </trkpt>
      <trkpt lat="43.04694" lon="0.05281">
        <ele>905</ele>
        <time>2021-08-10T06:38:23.000Z</time>
      </trkpt>
      <trkpt lat="43.04691" lon="0.05275">
        <ele>905</ele>
        <time>2021-08-10T06:38:25.000Z</time>
      </trkpt>
      <trkpt lat="43.04687" lon="0.05269">
        <ele>905</ele>
        <time>2021-08-10T06:38:27.000Z</time>
      </trkpt>
      <trkpt lat="43.0468" lon="0.05262">
        <ele>906</ele>
        <time>2021-08-10T06:38:29.000Z</time>
      </trkpt>
      <trkpt lat="43.04675" lon="0.05257">
        <ele>906</ele>
        <time>2021-08-10T06:38:31.000Z</time>
      </trkpt>
      <trkpt lat="43.04671" lon="0.05251">
        <ele>906</ele>
        <time>2021-08-10T06:38:33.000Z</time>
      </trkpt>
      <trkpt lat="43.04667" lon="0.05246">
        <ele>907</ele>
        <time>2021-08-10T06:38:35.000Z</time>
      </trkpt>
      <trkpt lat="43.04663" lon="0.05242">
        <ele>907</ele>
        <time>2021-08-10T06:38:37.000Z</time>
      </trkpt>
      <trkpt lat="43.04657" lon="0.05236">
        <ele>908</ele>
        <time>2021-08-10T06:38:40.000Z</time>
      </trkpt>
      <trkpt lat="43.04653" lon="0.05232">
        <ele>908</ele>
        <time>2021-08-10T06:38:42.000Z</time>
      </trkpt>
      <trkpt lat="43.0465" lon="0.05228">
        <ele>908</ele>
        <time>2021-08-10T06:38:44.000Z</time>
      </trkpt>
      <trkpt lat="43.04646" lon="0.05223">
        <ele>909</ele>
        <time>2021-08-10T06:38:47.000Z</time>
      </trkpt>
      <trkpt lat="43.04642" lon="0.05217">
        <ele>910</ele>
        <time>2021-08-10T06:38:50.000Z</time>
      </trkpt>
      <trkpt lat="43.04637" lon="0.05211">
        <ele>911</ele>
        <time>2021-08-10T06:38:53.000Z</time>
      </trkpt>
      <trkpt lat="43.04633" lon="0.05206">
        <ele>912</ele>
        <time>2021-08-10T06:38:56.000Z</time>
      </trkpt>
      <trkpt lat="43.04628" lon="0.052">
        <ele>912</ele>
        <time>2021-08-10T06:38:59.000Z</time>
      </trkpt>
      <trkpt lat="43.04624" lon="0.05194">
        <ele>913</ele>
        <time>2021-08-10T06:39:2.000Z</time>
      </trkpt>
      <trkpt lat="43.04619" lon="0.05189">
        <ele>914</ele>
        <time>2021-08-10T06:39:5.000Z</time>
      </trkpt>
      <trkpt lat="43.04614" lon="0.05183">
        <ele>915</ele>
        <time>2021-08-10T06:39:8.000Z</time>
      </trkpt>
      <trkpt lat="43.0461" lon="0.05179">
        <ele>915</ele>
        <time>2021-08-10T06:39:10.000Z</time>
      </trkpt>
      <trkpt lat="43.04606" lon="0.05175">
        <ele>916</ele>
        <time>2021-08-10T06:39:13.000Z</time>
      </trkpt>
      <trkpt lat="43.04602" lon="0.0517">
        <ele>917</ele>
        <time>2021-08-10T06:39:16.000Z</time>
      </trkpt>
      <trkpt lat="43.04598" lon="0.05165">
        <ele>917</ele>
        <time>2021-08-10T06:39:18.000Z</time>
      </trkpt>
      <trkpt lat="43.04593" lon="0.05161">
        <ele>918</ele>
        <time>2021-08-10T06:39:21.000Z</time>
      </trkpt>
      <trkpt lat="43.0459" lon="0.05154">
        <ele>918</ele>
        <time>2021-08-10T06:39:24.000Z</time>
      </trkpt>
      <trkpt lat="43.04586" lon="0.05147">
        <ele>918</ele>
        <time>2021-08-10T06:39:27.000Z</time>
      </trkpt>
      <trkpt lat="43.04582" lon="0.05142">
        <ele>919</ele>
        <time>2021-08-10T06:39:30.000Z</time>
      </trkpt>
      <trkpt lat="43.04578" lon="0.05138">
        <ele>920</ele>
        <time>2021-08-10T06:39:33.000Z</time>
      </trkpt>
      <trkpt lat="43.04575" lon="0.05133">
        <ele>921</ele>
        <time>2021-08-10T06:39:36.000Z</time>
      </trkpt>
      <trkpt lat="43.0457" lon="0.05128">
        <ele>921</ele>
        <time>2021-08-10T06:39:39.000Z</time>
      </trkpt>
      <trkpt lat="43.04566" lon="0.05123">
        <ele>922</ele>
        <time>2021-08-10T06:39:42.000Z</time>
      </trkpt>
      <trkpt lat="43.04562" lon="0.05118">
        <ele>923</ele>
        <time>2021-08-10T06:39:45.000Z</time>
      </trkpt>
      <trkpt lat="43.04558" lon="0.05113">
        <ele>924</ele>
        <time>2021-08-10T06:39:48.000Z</time>
      </trkpt>
      <trkpt lat="43.04555" lon="0.05109">
        <ele>924</ele>
        <time>2021-08-10T06:39:52.000Z</time>
      </trkpt>
      <trkpt lat="43.04551" lon="0.05105">
        <ele>925</ele>
        <time>2021-08-10T06:39:55.000Z</time>
      </trkpt>
      <trkpt lat="43.04548" lon="0.051">
        <ele>926</ele>
        <time>2021-08-10T06:39:58.000Z</time>
      </trkpt>
      <trkpt lat="43.04544" lon="0.05094">
        <ele>927</ele>
        <time>2021-08-10T06:40:1.000Z</time>
      </trkpt>
      <trkpt lat="43.04541" lon="0.0509">
        <ele>927</ele>
        <time>2021-08-10T06:40:4.000Z</time>
      </trkpt>
      <trkpt lat="43.04537" lon="0.05085">
        <ele>928</ele>
        <time>2021-08-10T06:40:7.000Z</time>
      </trkpt>
      <trkpt lat="43.04533" lon="0.0508">
        <ele>928</ele>
        <time>2021-08-10T06:40:10.000Z</time>
      </trkpt>
      <trkpt lat="43.0453" lon="0.05075">
        <ele>929</ele>
        <time>2021-08-10T06:40:13.000Z</time>
      </trkpt>
      <trkpt lat="43.04526" lon="0.0507">
        <ele>929</ele>
        <time>2021-08-10T06:40:16.000Z</time>
      </trkpt>
      <trkpt lat="43.04522" lon="0.05065">
        <ele>930</ele>
        <time>2021-08-10T06:40:19.000Z</time>
      </trkpt>
      <trkpt lat="43.04519" lon="0.0506">
        <ele>931</ele>
        <time>2021-08-10T06:40:22.000Z</time>
      </trkpt>
      <trkpt lat="43.04516" lon="0.05054">
        <ele>931</ele>
        <time>2021-08-10T06:40:25.000Z</time>
      </trkpt>
      <trkpt lat="43.04513" lon="0.05049">
        <ele>932</ele>
        <time>2021-08-10T06:40:28.000Z</time>
      </trkpt>
      <trkpt lat="43.04509" lon="0.05043">
        <ele>933</ele>
        <time>2021-08-10T06:40:32.000Z</time>
      </trkpt>
      <trkpt lat="43.04506" lon="0.05038">
        <ele>933</ele>
        <time>2021-08-10T06:40:35.000Z</time>
      </trkpt>
      <trkpt lat="43.04503" lon="0.05032">
        <ele>934</ele>
        <time>2021-08-10T06:40:39.000Z</time>
      </trkpt>
      <trkpt lat="43.045" lon="0.05025">
        <ele>935</ele>
        <time>2021-08-10T06:40:43.000Z</time>
      </trkpt>
      <trkpt lat="43.04496" lon="0.0502">
        <ele>936</ele>
        <time>2021-08-10T06:40:47.000Z</time>
      </trkpt>
      <trkpt lat="43.04493" lon="0.05015">
        <ele>937</ele>
        <time>2021-08-10T06:40:50.000Z</time>
      </trkpt>
      <trkpt lat="43.0449" lon="0.0501">
        <ele>938</ele>
        <time>2021-08-10T06:40:54.000Z</time>
      </trkpt>
      <trkpt lat="43.04487" lon="0.05005">
        <ele>938</ele>
        <time>2021-08-10T06:40:57.000Z</time>
      </trkpt>
      <trkpt lat="43.04482" lon="0.04998">
        <ele>939</ele>
        <time>2021-08-10T06:41:1.000Z</time>
      </trkpt>
      <trkpt lat="43.04479" lon="0.04992">
        <ele>940</ele>
        <time>2021-08-10T06:41:5.000Z</time>
      </trkpt>
      <trkpt lat="43.04476" lon="0.04986">
        <ele>940</ele>
        <time>2021-08-10T06:41:8.000Z</time>
      </trkpt>
      <trkpt lat="43.04472" lon="0.0498">
        <ele>941</ele>
        <time>2021-08-10T06:41:12.000Z</time>
      </trkpt>
      <trkpt lat="43.04469" lon="0.04975">
        <ele>942</ele>
        <time>2021-08-10T06:41:15.000Z</time>
      </trkpt>
      <trkpt lat="43.04466" lon="0.04968">
        <ele>943</ele>
        <time>2021-08-10T06:41:19.000Z</time>
      </trkpt>
      <trkpt lat="43.04463" lon="0.04964">
        <ele>944</ele>
        <time>2021-08-10T06:41:22.000Z</time>
      </trkpt>
      <trkpt lat="43.0446" lon="0.04959">
        <ele>944</ele>
        <time>2021-08-10T06:41:25.000Z</time>
      </trkpt>
      <trkpt lat="43.04457" lon="0.04954">
        <ele>945</ele>
        <time>2021-08-10T06:41:28.000Z</time>
      </trkpt>
      <trkpt lat="43.04453" lon="0.0495">
        <ele>945</ele>
        <time>2021-08-10T06:41:31.000Z</time>
      </trkpt>
      <trkpt lat="43.04449" lon="0.04945">
        <ele>946</ele>
        <time>2021-08-10T06:41:34.000Z</time>
      </trkpt>
      <trkpt lat="43.04444" lon="0.0494">
        <ele>946</ele>
        <time>2021-08-10T06:41:37.000Z</time>
      </trkpt>
      <trkpt lat="43.04439" lon="0.04934">
        <ele>946</ele>
        <time>2021-08-10T06:41:40.000Z</time>
      </trkpt>
      <trkpt lat="43.04434" lon="0.04929">
        <ele>946</ele>
        <time>2021-08-10T06:41:43.000Z</time>
      </trkpt>
      <trkpt lat="43.04431" lon="0.04924">
        <ele>946</ele>
        <time>2021-08-10T06:41:45.000Z</time>
      </trkpt>
      <trkpt lat="43.04427" lon="0.04919">
        <ele>947</ele>
        <time>2021-08-10T06:41:47.000Z</time>
      </trkpt>
      <trkpt lat="43.04424" lon="0.04913">
        <ele>947</ele>
        <time>2021-08-10T06:41:49.000Z</time>
      </trkpt>
      <trkpt lat="43.04421" lon="0.04907">
        <ele>947</ele>
        <time>2021-08-10T06:41:51.000Z</time>
      </trkpt>
      <trkpt lat="43.04418" lon="0.049">
        <ele>947</ele>
        <time>2021-08-10T06:41:53.000Z</time>
      </trkpt>
      <trkpt lat="43.04415" lon="0.04894">
        <ele>947</ele>
        <time>2021-08-10T06:41:55.000Z</time>
      </trkpt>
      <trkpt lat="43.04411" lon="0.04888">
        <ele>947</ele>
        <time>2021-08-10T06:41:57.000Z</time>
      </trkpt>
      <trkpt lat="43.04403" lon="0.04881">
        <ele>947</ele>
        <time>2021-08-10T06:41:58.000Z</time>
      </trkpt>
      <trkpt lat="43.04399" lon="0.04877">
        <ele>947</ele>
        <time>2021-08-10T06:41:59.000Z</time>
      </trkpt>
      <trkpt lat="43.04394" lon="0.04873">
        <ele>946</ele>
        <time>2021-08-10T06:42:0.000Z</time>
      </trkpt>
      <trkpt lat="43.0439" lon="0.04869">
        <ele>946</ele>
        <time>2021-08-10T06:42:1.000Z</time>
      </trkpt>
      <trkpt lat="43.04385" lon="0.04864">
        <ele>946</ele>
        <time>2021-08-10T06:42:2.000Z</time>
      </trkpt>
      <trkpt lat="43.0438" lon="0.04861">
        <ele>946</ele>
        <time>2021-08-10T06:42:3.000Z</time>
      </trkpt>
      <trkpt lat="43.04376" lon="0.04857">
        <ele>946</ele>
        <time>2021-08-10T06:42:4.000Z</time>
      </trkpt>
      <trkpt lat="43.04371" lon="0.04853">
        <ele>946</ele>
        <time>2021-08-10T06:42:5.000Z</time>
      </trkpt>
      <trkpt lat="43.04366" lon="0.0485">
        <ele>945</ele>
        <time>2021-08-10T06:42:6.000Z</time>
      </trkpt>
      <trkpt lat="43.04361" lon="0.04847">
        <ele>945</ele>
        <time>2021-08-10T06:42:7.000Z</time>
      </trkpt>
      <trkpt lat="43.04352" lon="0.0484">
        <ele>945</ele>
        <time>2021-08-10T06:42:9.000Z</time>
      </trkpt>
      <trkpt lat="43.04348" lon="0.04838">
        <ele>945</ele>
        <time>2021-08-10T06:42:10.000Z</time>
      </trkpt>
      <trkpt lat="43.04344" lon="0.04835">
        <ele>945</ele>
        <time>2021-08-10T06:42:11.000Z</time>
      </trkpt>
      <trkpt lat="43.04338" lon="0.04831">
        <ele>945</ele>
        <time>2021-08-10T06:42:13.000Z</time>
      </trkpt>
      <trkpt lat="43.04334" lon="0.04827">
        <ele>945</ele>
        <time>2021-08-10T06:42:14.000Z</time>
      </trkpt>
      <trkpt lat="43.04329" lon="0.04819">
        <ele>945</ele>
        <time>2021-08-10T06:42:16.000Z</time>
      </trkpt>
      <trkpt lat="43.04324" lon="0.04811">
        <ele>945</ele>
        <time>2021-08-10T06:42:18.000Z</time>
      </trkpt>
      <trkpt lat="43.0432" lon="0.04803">
        <ele>945</ele>
        <time>2021-08-10T06:42:20.000Z</time>
      </trkpt>
      <trkpt lat="43.04316" lon="0.04795">
        <ele>945</ele>
        <time>2021-08-10T06:42:22.000Z</time>
      </trkpt>
      <trkpt lat="43.04314" lon="0.04786">
        <ele>946</ele>
        <time>2021-08-10T06:42:24.000Z</time>
      </trkpt>
      <trkpt lat="43.04314" lon="0.04777">
        <ele>946</ele>
        <time>2021-08-10T06:42:26.000Z</time>
      </trkpt>
      <trkpt lat="43.04314" lon="0.04768">
        <ele>947</ele>
        <time>2021-08-10T06:42:28.000Z</time>
      </trkpt>
      <trkpt lat="43.04316" lon="0.0476">
        <ele>947</ele>
        <time>2021-08-10T06:42:30.000Z</time>
      </trkpt>
      <trkpt lat="43.04318" lon="0.04752">
        <ele>947</ele>
        <time>2021-08-10T06:42:32.000Z</time>
      </trkpt>
      <trkpt lat="43.04319" lon="0.04744">
        <ele>947</ele>
        <time>2021-08-10T06:42:33.000Z</time>
      </trkpt>
      <trkpt lat="43.0432" lon="0.04735">
        <ele>947</ele>
        <time>2021-08-10T06:42:35.000Z</time>
      </trkpt>
      <trkpt lat="43.04321" lon="0.04725">
        <ele>947</ele>
        <time>2021-08-10T06:42:37.000Z</time>
      </trkpt>
      <trkpt lat="43.04322" lon="0.04716">
        <ele>947</ele>
        <time>2021-08-10T06:42:39.000Z</time>
      </trkpt>
      <trkpt lat="43.04323" lon="0.04706">
        <ele>947</ele>
        <time>2021-08-10T06:42:41.000Z</time>
      </trkpt>
      <trkpt lat="43.04325" lon="0.04697">
        <ele>947</ele>
        <time>2021-08-10T06:42:43.000Z</time>
      </trkpt>
      <trkpt lat="43.04325" lon="0.04691">
        <ele>947</ele>
        <time>2021-08-10T06:42:44.000Z</time>
      </trkpt>
      <trkpt lat="43.04327" lon="0.0468">
        <ele>947</ele>
        <time>2021-08-10T06:42:46.000Z</time>
      </trkpt>
      <trkpt lat="43.04329" lon="0.04668">
        <ele>947</ele>
        <time>2021-08-10T06:42:48.000Z</time>
      </trkpt>
      <trkpt lat="43.0433" lon="0.04657">
        <ele>947</ele>
        <time>2021-08-10T06:42:50.000Z</time>
      </trkpt>
      <trkpt lat="43.04331" lon="0.04647">
        <ele>946</ele>
        <time>2021-08-10T06:42:53.000Z</time>
      </trkpt>
      <trkpt lat="43.04331" lon="0.0464">
        <ele>946</ele>
        <time>2021-08-10T06:42:53.000Z</time>
      </trkpt>
      <trkpt lat="43.04328" lon="0.04629">
        <ele>946</ele>
        <time>2021-08-10T06:42:55.000Z</time>
      </trkpt>
      <trkpt lat="43.04326" lon="0.0462">
        <ele>946</ele>
        <time>2021-08-10T06:42:57.000Z</time>
      </trkpt>
      <trkpt lat="43.04325" lon="0.04611">
        <ele>946</ele>
        <time>2021-08-10T06:42:59.000Z</time>
      </trkpt>
      <trkpt lat="43.04321" lon="0.04601">
        <ele>946</ele>
        <time>2021-08-10T06:43:1.000Z</time>
      </trkpt>
      <trkpt lat="43.04317" lon="0.04592">
        <ele>946</ele>
        <time>2021-08-10T06:43:3.000Z</time>
      </trkpt>
      <trkpt lat="43.04314" lon="0.04583">
        <ele>946</ele>
        <time>2021-08-10T06:43:5.000Z</time>
      </trkpt>
      <trkpt lat="43.04311" lon="0.04573">
        <ele>946</ele>
        <time>2021-08-10T06:43:7.000Z</time>
      </trkpt>
      <trkpt lat="43.04307" lon="0.04563">
        <ele>946</ele>
        <time>2021-08-10T06:43:9.000Z</time>
      </trkpt>
      <trkpt lat="43.04306" lon="0.04558">
        <ele>946</ele>
        <time>2021-08-10T06:43:10.000Z</time>
      </trkpt>
      <trkpt lat="43.04304" lon="0.04552">
        <ele>946</ele>
        <time>2021-08-10T06:43:11.000Z</time>
      </trkpt>
      <trkpt lat="43.043" lon="0.0454">
        <ele>946</ele>
        <time>2021-08-10T06:43:13.000Z</time>
      </trkpt>
      <trkpt lat="43.04298" lon="0.04534">
        <ele>946</ele>
        <time>2021-08-10T06:43:14.000Z</time>
      </trkpt>
      <trkpt lat="43.04296" lon="0.04528">
        <ele>945</ele>
        <time>2021-08-10T06:43:15.000Z</time>
      </trkpt>
      <trkpt lat="43.04292" lon="0.04517">
        <ele>945</ele>
        <time>2021-08-10T06:43:17.000Z</time>
      </trkpt>
      <trkpt lat="43.04289" lon="0.04508">
        <ele>945</ele>
        <time>2021-08-10T06:43:19.000Z</time>
      </trkpt>
      <trkpt lat="43.04287" lon="0.04503">
        <ele>945</ele>
        <time>2021-08-10T06:43:20.000Z</time>
      </trkpt>
      <trkpt lat="43.04281" lon="0.04497">
        <ele>945</ele>
        <time>2021-08-10T06:43:22.000Z</time>
      </trkpt>
      <trkpt lat="43.04277" lon="0.04492">
        <ele>945</ele>
        <time>2021-08-10T06:43:24.000Z</time>
      </trkpt>
      <trkpt lat="43.04274" lon="0.04487">
        <ele>945</ele>
        <time>2021-08-10T06:43:26.000Z</time>
      </trkpt>
      <trkpt lat="43.04271" lon="0.04482">
        <ele>946</ele>
        <time>2021-08-10T06:43:28.000Z</time>
      </trkpt>
      <trkpt lat="43.04267" lon="0.04477">
        <ele>947</ele>
        <time>2021-08-10T06:43:30.000Z</time>
      </trkpt>
      <trkpt lat="43.04264" lon="0.04473">
        <ele>947</ele>
        <time>2021-08-10T06:43:32.000Z</time>
      </trkpt>
      <trkpt lat="43.04259" lon="0.04467">
        <ele>948</ele>
        <time>2021-08-10T06:43:35.000Z</time>
      </trkpt>
      <trkpt lat="43.04255" lon="0.04461">
        <ele>949</ele>
        <time>2021-08-10T06:43:38.000Z</time>
      </trkpt>
      <trkpt lat="43.04251" lon="0.04455">
        <ele>950</ele>
        <time>2021-08-10T06:43:41.000Z</time>
      </trkpt>
      <trkpt lat="43.04247" lon="0.04451">
        <ele>950</ele>
        <time>2021-08-10T06:43:44.000Z</time>
      </trkpt>
      <trkpt lat="43.04243" lon="0.04446">
        <ele>951</ele>
        <time>2021-08-10T06:43:47.000Z</time>
      </trkpt>
      <trkpt lat="43.0424" lon="0.04441">
        <ele>952</ele>
        <time>2021-08-10T06:43:50.000Z</time>
      </trkpt>
      <trkpt lat="43.04236" lon="0.04436">
        <ele>953</ele>
        <time>2021-08-10T06:43:53.000Z</time>
      </trkpt>
      <trkpt lat="43.04231" lon="0.04431">
        <ele>953</ele>
        <time>2021-08-10T06:43:56.000Z</time>
      </trkpt>
      <trkpt lat="43.04227" lon="0.04426">
        <ele>954</ele>
        <time>2021-08-10T06:43:59.000Z</time>
      </trkpt>
      <trkpt lat="43.04223" lon="0.04422">
        <ele>955</ele>
        <time>2021-08-10T06:44:2.000Z</time>
      </trkpt>
      <trkpt lat="43.0422" lon="0.04417">
        <ele>955</ele>
        <time>2021-08-10T06:44:5.000Z</time>
      </trkpt>
      <trkpt lat="43.04215" lon="0.04412">
        <ele>955</ele>
        <time>2021-08-10T06:44:8.000Z</time>
      </trkpt>
      <trkpt lat="43.04211" lon="0.04407">
        <ele>956</ele>
        <time>2021-08-10T06:44:11.000Z</time>
      </trkpt>
      <trkpt lat="43.04208" lon="0.04403">
        <ele>957</ele>
        <time>2021-08-10T06:44:14.000Z</time>
      </trkpt>
      <trkpt lat="43.04204" lon="0.04398">
        <ele>957</ele>
        <time>2021-08-10T06:44:17.000Z</time>
      </trkpt>
      <trkpt lat="43.04199" lon="0.04393">
        <ele>958</ele>
        <time>2021-08-10T06:44:20.000Z</time>
      </trkpt>
      <trkpt lat="43.04195" lon="0.04387">
        <ele>958</ele>
        <time>2021-08-10T06:44:23.000Z</time>
      </trkpt>
      <trkpt lat="43.0419" lon="0.04382">
        <ele>959</ele>
        <time>2021-08-10T06:44:26.000Z</time>
      </trkpt>
      <trkpt lat="43.04186" lon="0.04376">
        <ele>960</ele>
        <time>2021-08-10T06:44:29.000Z</time>
      </trkpt>
      <trkpt lat="43.04181" lon="0.0437">
        <ele>960</ele>
        <time>2021-08-10T06:44:32.000Z</time>
      </trkpt>
      <trkpt lat="43.04177" lon="0.04364">
        <ele>961</ele>
        <time>2021-08-10T06:44:35.000Z</time>
      </trkpt>
      <trkpt lat="43.04173" lon="0.04359">
        <ele>961</ele>
        <time>2021-08-10T06:44:38.000Z</time>
      </trkpt>
      <trkpt lat="43.04168" lon="0.04351">
        <ele>962</ele>
        <time>2021-08-10T06:44:41.000Z</time>
      </trkpt>
      <trkpt lat="43.04165" lon="0.04345">
        <ele>962</ele>
        <time>2021-08-10T06:44:44.000Z</time>
      </trkpt>
      <trkpt lat="43.04162" lon="0.04339">
        <ele>962</ele>
        <time>2021-08-10T06:44:46.000Z</time>
      </trkpt>
      <trkpt lat="43.04158" lon="0.04332">
        <ele>962</ele>
        <time>2021-08-10T06:44:49.000Z</time>
      </trkpt>
      <trkpt lat="43.04155" lon="0.04324">
        <ele>963</ele>
        <time>2021-08-10T06:44:52.000Z</time>
      </trkpt>
      <trkpt lat="43.04152" lon="0.04317">
        <ele>963</ele>
        <time>2021-08-10T06:44:55.000Z</time>
      </trkpt>
      <trkpt lat="43.04149" lon="0.04311">
        <ele>964</ele>
        <time>2021-08-10T06:44:58.000Z</time>
      </trkpt>
      <trkpt lat="43.04146" lon="0.04305">
        <ele>964</ele>
        <time>2021-08-10T06:45:1.000Z</time>
      </trkpt>
      <trkpt lat="43.04142" lon="0.04299">
        <ele>965</ele>
        <time>2021-08-10T06:45:4.000Z</time>
      </trkpt>
      <trkpt lat="43.04136" lon="0.04295">
        <ele>965</ele>
        <time>2021-08-10T06:45:7.000Z</time>
      </trkpt>
      <trkpt lat="43.04132" lon="0.0429">
        <ele>966</ele>
        <time>2021-08-10T06:45:10.000Z</time>
      </trkpt>
      <trkpt lat="43.04127" lon="0.04286">
        <ele>967</ele>
        <time>2021-08-10T06:45:13.000Z</time>
      </trkpt>
      <trkpt lat="43.04122" lon="0.04281">
        <ele>967</ele>
        <time>2021-08-10T06:45:16.000Z</time>
      </trkpt>
      <trkpt lat="43.04117" lon="0.04276">
        <ele>968</ele>
        <time>2021-08-10T06:45:19.000Z</time>
      </trkpt>
      <trkpt lat="43.04113" lon="0.04272">
        <ele>969</ele>
        <time>2021-08-10T06:45:22.000Z</time>
      </trkpt>
      <trkpt lat="43.04108" lon="0.04267">
        <ele>969</ele>
        <time>2021-08-10T06:45:25.000Z</time>
      </trkpt>
      <trkpt lat="43.04103" lon="0.04264">
        <ele>969</ele>
        <time>2021-08-10T06:45:28.000Z</time>
      </trkpt>
      <trkpt lat="43.04098" lon="0.0426">
        <ele>970</ele>
        <time>2021-08-10T06:45:31.000Z</time>
      </trkpt>
      <trkpt lat="43.04093" lon="0.04256">
        <ele>971</ele>
        <time>2021-08-10T06:45:34.000Z</time>
      </trkpt>
      <trkpt lat="43.04089" lon="0.04253">
        <ele>971</ele>
        <time>2021-08-10T06:45:37.000Z</time>
      </trkpt>
      <trkpt lat="43.04084" lon="0.0425">
        <ele>972</ele>
        <time>2021-08-10T06:45:40.000Z</time>
      </trkpt>
      <trkpt lat="43.04079" lon="0.04246">
        <ele>973</ele>
        <time>2021-08-10T06:45:43.000Z</time>
      </trkpt>
      <trkpt lat="43.04075" lon="0.04243">
        <ele>974</ele>
        <time>2021-08-10T06:45:46.000Z</time>
      </trkpt>
      <trkpt lat="43.0407" lon="0.04239">
        <ele>974</ele>
        <time>2021-08-10T06:45:49.000Z</time>
      </trkpt>
      <trkpt lat="43.04066" lon="0.04236">
        <ele>975</ele>
        <time>2021-08-10T06:45:52.000Z</time>
      </trkpt>
      <trkpt lat="43.04062" lon="0.04233">
        <ele>975</ele>
        <time>2021-08-10T06:45:55.000Z</time>
      </trkpt>
      <trkpt lat="43.04057" lon="0.04229">
        <ele>976</ele>
        <time>2021-08-10T06:45:58.000Z</time>
      </trkpt>
      <trkpt lat="43.04053" lon="0.04225">
        <ele>976</ele>
        <time>2021-08-10T06:46:1.000Z</time>
      </trkpt>
      <trkpt lat="43.04049" lon="0.04222">
        <ele>976</ele>
        <time>2021-08-10T06:46:4.000Z</time>
      </trkpt>
      <trkpt lat="43.04045" lon="0.04218">
        <ele>977</ele>
        <time>2021-08-10T06:46:7.000Z</time>
      </trkpt>
      <trkpt lat="43.04039" lon="0.04213">
        <ele>977</ele>
        <time>2021-08-10T06:46:10.000Z</time>
      </trkpt>
      <trkpt lat="43.04034" lon="0.04208">
        <ele>978</ele>
        <time>2021-08-10T06:46:12.000Z</time>
      </trkpt>
      <trkpt lat="43.04029" lon="0.04203">
        <ele>979</ele>
        <time>2021-08-10T06:46:15.000Z</time>
      </trkpt>
      <trkpt lat="43.04025" lon="0.04199">
        <ele>979</ele>
        <time>2021-08-10T06:46:18.000Z</time>
      </trkpt>
      <trkpt lat="43.04021" lon="0.04195">
        <ele>980</ele>
        <time>2021-08-10T06:46:21.000Z</time>
      </trkpt>
      <trkpt lat="43.04017" lon="0.04192">
        <ele>981</ele>
        <time>2021-08-10T06:46:24.000Z</time>
      </trkpt>
      <trkpt lat="43.04013" lon="0.04187">
        <ele>982</ele>
        <time>2021-08-10T06:46:27.000Z</time>
      </trkpt>
      <trkpt lat="43.04009" lon="0.04183">
        <ele>982</ele>
        <time>2021-08-10T06:46:30.000Z</time>
      </trkpt>
      <trkpt lat="43.04006" lon="0.04171">
        <ele>982</ele>
        <time>2021-08-10T06:46:33.000Z</time>
      </trkpt>
      <trkpt lat="43.04002" lon="0.04166">
        <ele>982</ele>
        <time>2021-08-10T06:46:36.000Z</time>
      </trkpt>
      <trkpt lat="43.03999" lon="0.04161">
        <ele>983</ele>
        <time>2021-08-10T06:46:39.000Z</time>
      </trkpt>
      <trkpt lat="43.03996" lon="0.04154">
        <ele>984</ele>
        <time>2021-08-10T06:46:42.000Z</time>
      </trkpt>
      <trkpt lat="43.03994" lon="0.04148">
        <ele>984</ele>
        <time>2021-08-10T06:46:45.000Z</time>
      </trkpt>
      <trkpt lat="43.03991" lon="0.04143">
        <ele>985</ele>
        <time>2021-08-10T06:46:48.000Z</time>
      </trkpt>
      <trkpt lat="43.03989" lon="0.04136">
        <ele>985</ele>
        <time>2021-08-10T06:46:51.000Z</time>
      </trkpt>
      <trkpt lat="43.03987" lon="0.0413">
        <ele>986</ele>
        <time>2021-08-10T06:46:54.000Z</time>
      </trkpt>
      <trkpt lat="43.03984" lon="0.04123">
        <ele>986</ele>
        <time>2021-08-10T06:46:57.000Z</time>
      </trkpt>
      <trkpt lat="43.03979" lon="0.0412">
        <ele>987</ele>
        <time>2021-08-10T06:47:0.000Z</time>
      </trkpt>
      <trkpt lat="43.03975" lon="0.04123">
        <ele>987</ele>
        <time>2021-08-10T06:47:3.000Z</time>
      </trkpt>
      <trkpt lat="43.03973" lon="0.04129">
        <ele>988</ele>
        <time>2021-08-10T06:47:6.000Z</time>
      </trkpt>
      <trkpt lat="43.03975" lon="0.04136">
        <ele>988</ele>
        <time>2021-08-10T06:47:8.000Z</time>
      </trkpt>
      <trkpt lat="43.03978" lon="0.04144">
        <ele>989</ele>
        <time>2021-08-10T06:47:11.000Z</time>
      </trkpt>
      <trkpt lat="43.0398" lon="0.04152">
        <ele>989</ele>
        <time>2021-08-10T06:47:14.000Z</time>
      </trkpt>
      <trkpt lat="43.03981" lon="0.04158">
        <ele>989</ele>
        <time>2021-08-10T06:47:16.000Z</time>
      </trkpt>
      <trkpt lat="43.03983" lon="0.04166">
        <ele>989</ele>
        <time>2021-08-10T06:47:19.000Z</time>
      </trkpt>
      <trkpt lat="43.03984" lon="0.04173">
        <ele>990</ele>
        <time>2021-08-10T06:47:21.000Z</time>
      </trkpt>
      <trkpt lat="43.03984" lon="0.04181">
        <ele>990</ele>
        <time>2021-08-10T06:47:24.000Z</time>
      </trkpt>
      <trkpt lat="43.03985" lon="0.0419">
        <ele>991</ele>
        <time>2021-08-10T06:47:27.000Z</time>
      </trkpt>
      <trkpt lat="43.03985" lon="0.04196">
        <ele>991</ele>
        <time>2021-08-10T06:47:29.000Z</time>
      </trkpt>
      <trkpt lat="43.03986" lon="0.04204">
        <ele>992</ele>
        <time>2021-08-10T06:47:32.000Z</time>
      </trkpt>
      <trkpt lat="43.03986" lon="0.04213">
        <ele>993</ele>
        <time>2021-08-10T06:47:35.000Z</time>
      </trkpt>
      <trkpt lat="43.03987" lon="0.04219">
        <ele>993</ele>
        <time>2021-08-10T06:47:37.000Z</time>
      </trkpt>
      <trkpt lat="43.03988" lon="0.04227">
        <ele>994</ele>
        <time>2021-08-10T06:47:40.000Z</time>
      </trkpt>
      <trkpt lat="43.03989" lon="0.04235">
        <ele>994</ele>
        <time>2021-08-10T06:47:43.000Z</time>
      </trkpt>
      <trkpt lat="43.0399" lon="0.04244">
        <ele>994</ele>
        <time>2021-08-10T06:47:46.000Z</time>
      </trkpt>
      <trkpt lat="43.03992" lon="0.04251">
        <ele>995</ele>
        <time>2021-08-10T06:47:49.000Z</time>
      </trkpt>
      <trkpt lat="43.03994" lon="0.04259">
        <ele>995</ele>
        <time>2021-08-10T06:47:52.000Z</time>
      </trkpt>
      <trkpt lat="43.03996" lon="0.04268">
        <ele>996</ele>
        <time>2021-08-10T06:47:55.000Z</time>
      </trkpt>
      <trkpt lat="43.03997" lon="0.04275">
        <ele>997</ele>
        <time>2021-08-10T06:47:58.000Z</time>
      </trkpt>
      <trkpt lat="43.03999" lon="0.04283">
        <ele>998</ele>
        <time>2021-08-10T06:48:1.000Z</time>
      </trkpt>
      <trkpt lat="43.04001" lon="0.04292">
        <ele>998</ele>
        <time>2021-08-10T06:48:4.000Z</time>
      </trkpt>
      <trkpt lat="43.04002" lon="0.043">
        <ele>999</ele>
        <time>2021-08-10T06:48:7.000Z</time>
      </trkpt>
      <trkpt lat="43.04004" lon="0.04307">
        <ele>1000</ele>
        <time>2021-08-10T06:48:10.000Z</time>
      </trkpt>
      <trkpt lat="43.04005" lon="0.04313">
        <ele>1000</ele>
        <time>2021-08-10T06:48:12.000Z</time>
      </trkpt>
      <trkpt lat="43.04007" lon="0.04321">
        <ele>1001</ele>
        <time>2021-08-10T06:48:15.000Z</time>
      </trkpt>
      <trkpt lat="43.04008" lon="0.04329">
        <ele>1001</ele>
        <time>2021-08-10T06:48:18.000Z</time>
      </trkpt>
      <trkpt lat="43.0401" lon="0.04337">
        <ele>1001</ele>
        <time>2021-08-10T06:48:21.000Z</time>
      </trkpt>
      <trkpt lat="43.04011" lon="0.04343">
        <ele>1002</ele>
        <time>2021-08-10T06:48:24.000Z</time>
      </trkpt>
      <trkpt lat="43.04013" lon="0.04351">
        <ele>1002</ele>
        <time>2021-08-10T06:48:27.000Z</time>
      </trkpt>
      <trkpt lat="43.04015" lon="0.04357">
        <ele>1003</ele>
        <time>2021-08-10T06:48:29.000Z</time>
      </trkpt>
      <trkpt lat="43.04017" lon="0.04365">
        <ele>1003</ele>
        <time>2021-08-10T06:48:32.000Z</time>
      </trkpt>
      <trkpt lat="43.04019" lon="0.04372">
        <ele>1004</ele>
        <time>2021-08-10T06:48:35.000Z</time>
      </trkpt>
      <trkpt lat="43.04021" lon="0.0438">
        <ele>1005</ele>
        <time>2021-08-10T06:48:38.000Z</time>
      </trkpt>
      <trkpt lat="43.04023" lon="0.04388">
        <ele>1005</ele>
        <time>2021-08-10T06:48:41.000Z</time>
      </trkpt>
      <trkpt lat="43.04025" lon="0.04396">
        <ele>1006</ele>
        <time>2021-08-10T06:48:44.000Z</time>
      </trkpt>
      <trkpt lat="43.04027" lon="0.04404">
        <ele>1007</ele>
        <time>2021-08-10T06:48:47.000Z</time>
      </trkpt>
      <trkpt lat="43.04029" lon="0.04412">
        <ele>1008</ele>
        <time>2021-08-10T06:48:50.000Z</time>
      </trkpt>
      <trkpt lat="43.0403" lon="0.0442">
        <ele>1008</ele>
        <time>2021-08-10T06:48:53.000Z</time>
      </trkpt>
      <trkpt lat="43.04032" lon="0.04428">
        <ele>1009</ele>
        <time>2021-08-10T06:48:56.000Z</time>
      </trkpt>
      <trkpt lat="43.04034" lon="0.04435">
        <ele>1010</ele>
        <time>2021-08-10T06:48:59.000Z</time>
      </trkpt>
      <trkpt lat="43.04036" lon="0.04442">
        <ele>1010</ele>
        <time>2021-08-10T06:49:2.000Z</time>
      </trkpt>
      <trkpt lat="43.04038" lon="0.0445">
        <ele>1010</ele>
        <time>2021-08-10T06:49:5.000Z</time>
      </trkpt>
      <trkpt lat="43.04039" lon="0.04457">
        <ele>1011</ele>
        <time>2021-08-10T06:49:8.000Z</time>
      </trkpt>
      <trkpt lat="43.04041" lon="0.04465">
        <ele>1011</ele>
        <time>2021-08-10T06:49:11.000Z</time>
      </trkpt>
      <trkpt lat="43.04044" lon="0.04472">
        <ele>1012</ele>
        <time>2021-08-10T06:49:14.000Z</time>
      </trkpt>
      <trkpt lat="43.04046" lon="0.0448">
        <ele>1013</ele>
        <time>2021-08-10T06:49:17.000Z</time>
      </trkpt>
      <trkpt lat="43.04047" lon="0.04488">
        <ele>1013</ele>
        <time>2021-08-10T06:49:20.000Z</time>
      </trkpt>
      <trkpt lat="43.04049" lon="0.04495">
        <ele>1014</ele>
        <time>2021-08-10T06:49:23.000Z</time>
      </trkpt>
      <trkpt lat="43.0405" lon="0.04503">
        <ele>1015</ele>
        <time>2021-08-10T06:49:26.000Z</time>
      </trkpt>
      <trkpt lat="43.04051" lon="0.0451">
        <ele>1015</ele>
        <time>2021-08-10T06:49:29.000Z</time>
      </trkpt>
      <trkpt lat="43.04052" lon="0.04517">
        <ele>1016</ele>
        <time>2021-08-10T06:49:32.000Z</time>
      </trkpt>
      <trkpt lat="43.04052" lon="0.04525">
        <ele>1017</ele>
        <time>2021-08-10T06:49:35.000Z</time>
      </trkpt>
      <trkpt lat="43.04053" lon="0.04532">
        <ele>1017</ele>
        <time>2021-08-10T06:49:38.000Z</time>
      </trkpt>
      <trkpt lat="43.04054" lon="0.0454">
        <ele>1017</ele>
        <time>2021-08-10T06:49:42.000Z</time>
      </trkpt>
      <trkpt lat="43.04054" lon="0.04547">
        <ele>1018</ele>
        <time>2021-08-10T06:49:44.000Z</time>
      </trkpt>
      <trkpt lat="43.04055" lon="0.04555">
        <ele>1019</ele>
        <time>2021-08-10T06:49:48.000Z</time>
      </trkpt>
      <trkpt lat="43.04055" lon="0.04561">
        <ele>1020</ele>
        <time>2021-08-10T06:49:51.000Z</time>
      </trkpt>
      <trkpt lat="43.04055" lon="0.04567">
        <ele>1021</ele>
        <time>2021-08-10T06:49:54.000Z</time>
      </trkpt>
      <trkpt lat="43.04054" lon="0.04574">
        <ele>1021</ele>
        <time>2021-08-10T06:49:57.000Z</time>
      </trkpt>
      <trkpt lat="43.04038" lon="0.0458">
        <ele>1022</ele>
        <time>2021-08-10T06:50:1.000Z</time>
      </trkpt>
      <trkpt lat="43.04033" lon="0.04586">
        <ele>1023</ele>
        <time>2021-08-10T06:50:3.000Z</time>
      </trkpt>
      <trkpt lat="43.04029" lon="0.04589">
        <ele>1023</ele>
        <time>2021-08-10T06:50:6.000Z</time>
      </trkpt>
      <trkpt lat="43.04024" lon="0.04587">
        <ele>1024</ele>
        <time>2021-08-10T06:50:9.000Z</time>
      </trkpt>
      <trkpt lat="43.04018" lon="0.04582">
        <ele>1024</ele>
        <time>2021-08-10T06:50:12.000Z</time>
      </trkpt>
      <trkpt lat="43.04017" lon="0.04574">
        <ele>1025</ele>
        <time>2021-08-10T06:50:15.000Z</time>
      </trkpt>
      <trkpt lat="43.04017" lon="0.04567">
        <ele>1025</ele>
        <time>2021-08-10T06:50:18.000Z</time>
      </trkpt>
      <trkpt lat="43.04015" lon="0.0456">
        <ele>1025</ele>
        <time>2021-08-10T06:50:21.000Z</time>
      </trkpt>
      <trkpt lat="43.04013" lon="0.04553">
        <ele>1026</ele>
        <time>2021-08-10T06:50:24.000Z</time>
      </trkpt>
      <trkpt lat="43.04011" lon="0.04547">
        <ele>1027</ele>
        <time>2021-08-10T06:50:27.000Z</time>
      </trkpt>
      <trkpt lat="43.04009" lon="0.04542">
        <ele>1027</ele>
        <time>2021-08-10T06:50:29.000Z</time>
      </trkpt>
      <trkpt lat="43.04007" lon="0.04536">
        <ele>1028</ele>
        <time>2021-08-10T06:50:32.000Z</time>
      </trkpt>
      <trkpt lat="43.04004" lon="0.04529">
        <ele>1028</ele>
        <time>2021-08-10T06:50:36.000Z</time>
      </trkpt>
      <trkpt lat="43.04001" lon="0.04523">
        <ele>1029</ele>
        <time>2021-08-10T06:50:39.000Z</time>
      </trkpt>
      <trkpt lat="43.03999" lon="0.04517">
        <ele>1030</ele>
        <time>2021-08-10T06:50:42.000Z</time>
      </trkpt>
      <trkpt lat="43.03996" lon="0.04512">
        <ele>1030</ele>
        <time>2021-08-10T06:50:45.000Z</time>
      </trkpt>
      <trkpt lat="43.03993" lon="0.04508">
        <ele>1031</ele>
        <time>2021-08-10T06:50:49.000Z</time>
      </trkpt>
      <trkpt lat="43.03991" lon="0.04503">
        <ele>1031</ele>
        <time>2021-08-10T06:50:51.000Z</time>
      </trkpt>
      <trkpt lat="43.03988" lon="0.04498">
        <ele>1032</ele>
        <time>2021-08-10T06:50:54.000Z</time>
      </trkpt>
      <trkpt lat="43.03984" lon="0.04492">
        <ele>1033</ele>
        <time>2021-08-10T06:50:58.000Z</time>
      </trkpt>
      <trkpt lat="43.03977" lon="0.04487">
        <ele>1034</ele>
        <time>2021-08-10T06:51:1.000Z</time>
      </trkpt>
      <trkpt lat="43.03973" lon="0.04483">
        <ele>1034</ele>
        <time>2021-08-10T06:51:4.000Z</time>
      </trkpt>
      <trkpt lat="43.03969" lon="0.04478">
        <ele>1034</ele>
        <time>2021-08-10T06:51:7.000Z</time>
      </trkpt>
      <trkpt lat="43.03965" lon="0.04474">
        <ele>1035</ele>
        <time>2021-08-10T06:51:10.000Z</time>
      </trkpt>
      <trkpt lat="43.03961" lon="0.0447">
        <ele>1036</ele>
        <time>2021-08-10T06:51:13.000Z</time>
      </trkpt>
      <trkpt lat="43.03957" lon="0.04466">
        <ele>1036</ele>
        <time>2021-08-10T06:51:16.000Z</time>
      </trkpt>
      <trkpt lat="43.03954" lon="0.04463">
        <ele>1037</ele>
        <time>2021-08-10T06:51:19.000Z</time>
      </trkpt>
      <trkpt lat="43.03949" lon="0.04459">
        <ele>1038</ele>
        <time>2021-08-10T06:51:22.000Z</time>
      </trkpt>
      <trkpt lat="43.03944" lon="0.04456">
        <ele>1039</ele>
        <time>2021-08-10T06:51:26.000Z</time>
      </trkpt>
      <trkpt lat="43.03939" lon="0.04452">
        <ele>1039</ele>
        <time>2021-08-10T06:51:30.000Z</time>
      </trkpt>
      <trkpt lat="43.03935" lon="0.04449">
        <ele>1039</ele>
        <time>2021-08-10T06:51:33.000Z</time>
      </trkpt>
      <trkpt lat="43.0393" lon="0.04447">
        <ele>1040</ele>
        <time>2021-08-10T06:51:36.000Z</time>
      </trkpt>
      <trkpt lat="43.03926" lon="0.04444">
        <ele>1040</ele>
        <time>2021-08-10T06:51:39.000Z</time>
      </trkpt>
      <trkpt lat="43.03921" lon="0.04441">
        <ele>1041</ele>
        <time>2021-08-10T06:51:43.000Z</time>
      </trkpt>
      <trkpt lat="43.03917" lon="0.04438">
        <ele>1042</ele>
        <time>2021-08-10T06:51:46.000Z</time>
      </trkpt>
      <trkpt lat="43.03912" lon="0.04436">
        <ele>1042</ele>
        <time>2021-08-10T06:51:49.000Z</time>
      </trkpt>
      <trkpt lat="43.03907" lon="0.04433">
        <ele>1043</ele>
        <time>2021-08-10T06:51:53.000Z</time>
      </trkpt>
      <trkpt lat="43.03903" lon="0.0443">
        <ele>1043</ele>
        <time>2021-08-10T06:51:56.000Z</time>
      </trkpt>
      <trkpt lat="43.03898" lon="0.04427">
        <ele>1043</ele>
        <time>2021-08-10T06:52:0.000Z</time>
      </trkpt>
      <trkpt lat="43.03894" lon="0.04425">
        <ele>1044</ele>
        <time>2021-08-10T06:52:3.000Z</time>
      </trkpt>
      <trkpt lat="43.03888" lon="0.04422">
        <ele>1045</ele>
        <time>2021-08-10T06:52:6.000Z</time>
      </trkpt>
      <trkpt lat="43.03884" lon="0.0442">
        <ele>1045</ele>
        <time>2021-08-10T06:52:9.000Z</time>
      </trkpt>
      <trkpt lat="43.03879" lon="0.04417">
        <ele>1046</ele>
        <time>2021-08-10T06:52:12.000Z</time>
      </trkpt>
      <trkpt lat="43.03875" lon="0.04414">
        <ele>1046</ele>
        <time>2021-08-10T06:52:15.000Z</time>
      </trkpt>
      <trkpt lat="43.03871" lon="0.04412">
        <ele>1047</ele>
        <time>2021-08-10T06:52:18.000Z</time>
      </trkpt>
      <trkpt lat="43.03866" lon="0.04409">
        <ele>1048</ele>
        <time>2021-08-10T06:52:21.000Z</time>
      </trkpt>
      <trkpt lat="43.03862" lon="0.04407">
        <ele>1048</ele>
        <time>2021-08-10T06:52:24.000Z</time>
      </trkpt>
      <trkpt lat="43.03857" lon="0.04404">
        <ele>1049</ele>
        <time>2021-08-10T06:52:28.000Z</time>
      </trkpt>
      <trkpt lat="43.03853" lon="0.04401">
        <ele>1049</ele>
        <time>2021-08-10T06:52:31.000Z</time>
      </trkpt>
      <trkpt lat="43.03848" lon="0.04398">
        <ele>1050</ele>
        <time>2021-08-10T06:52:35.000Z</time>
      </trkpt>
      <trkpt lat="43.03845" lon="0.04395">
        <ele>1051</ele>
        <time>2021-08-10T06:52:39.000Z</time>
      </trkpt>
      <trkpt lat="43.03841" lon="0.04385">
        <ele>1052</ele>
        <time>2021-08-10T06:52:42.000Z</time>
      </trkpt>
      <trkpt lat="43.03837" lon="0.0438">
        <ele>1052</ele>
        <time>2021-08-10T06:52:46.000Z</time>
      </trkpt>
      <trkpt lat="43.03833" lon="0.04376">
        <ele>1053</ele>
        <time>2021-08-10T06:52:49.000Z</time>
      </trkpt>
      <trkpt lat="43.0383" lon="0.04372">
        <ele>1054</ele>
        <time>2021-08-10T06:52:52.000Z</time>
      </trkpt>
      <trkpt lat="43.03826" lon="0.04368">
        <ele>1054</ele>
        <time>2021-08-10T06:52:56.000Z</time>
      </trkpt>
      <trkpt lat="43.03822" lon="0.04363">
        <ele>1054</ele>
        <time>2021-08-10T06:52:59.000Z</time>
      </trkpt>
      <trkpt lat="43.03817" lon="0.04358">
        <ele>1055</ele>
        <time>2021-08-10T06:53:3.000Z</time>
      </trkpt>
      <trkpt lat="43.03814" lon="0.04354">
        <ele>1056</ele>
        <time>2021-08-10T06:53:6.000Z</time>
      </trkpt>
      <trkpt lat="43.03809" lon="0.04349">
        <ele>1057</ele>
        <time>2021-08-10T06:53:10.000Z</time>
      </trkpt>
      <trkpt lat="43.03804" lon="0.04344">
        <ele>1057</ele>
        <time>2021-08-10T06:53:14.000Z</time>
      </trkpt>
      <trkpt lat="43.038" lon="0.0434">
        <ele>1058</ele>
        <time>2021-08-10T06:53:18.000Z</time>
      </trkpt>
      <trkpt lat="43.03795" lon="0.04338">
        <ele>1059</ele>
        <time>2021-08-10T06:53:21.000Z</time>
      </trkpt>
      <trkpt lat="43.03791" lon="0.04335">
        <ele>1059</ele>
        <time>2021-08-10T06:53:24.000Z</time>
      </trkpt>
      <trkpt lat="43.03787" lon="0.04334">
        <ele>1060</ele>
        <time>2021-08-10T06:53:27.000Z</time>
      </trkpt>
      <trkpt lat="43.03781" lon="0.04331">
        <ele>1061</ele>
        <time>2021-08-10T06:53:31.000Z</time>
      </trkpt>
      <trkpt lat="43.03777" lon="0.04329">
        <ele>1061</ele>
        <time>2021-08-10T06:53:34.000Z</time>
      </trkpt>
      <trkpt lat="43.03772" lon="0.04326">
        <ele>1061</ele>
        <time>2021-08-10T06:53:37.000Z</time>
      </trkpt>
      <trkpt lat="43.03767" lon="0.04321">
        <ele>1062</ele>
        <time>2021-08-10T06:53:41.000Z</time>
      </trkpt>
      <trkpt lat="43.03764" lon="0.04315">
        <ele>1062</ele>
        <time>2021-08-10T06:53:45.000Z</time>
      </trkpt>
      <trkpt lat="43.03761" lon="0.04309">
        <ele>1063</ele>
        <time>2021-08-10T06:53:49.000Z</time>
      </trkpt>
      <trkpt lat="43.03758" lon="0.04304">
        <ele>1064</ele>
        <time>2021-08-10T06:53:52.000Z</time>
      </trkpt>
      <trkpt lat="43.03753" lon="0.043">
        <ele>1064</ele>
        <time>2021-08-10T06:53:55.000Z</time>
      </trkpt>
      <trkpt lat="43.03748" lon="0.04299">
        <ele>1065</ele>
        <time>2021-08-10T06:53:59.000Z</time>
      </trkpt>
      <trkpt lat="43.03743" lon="0.04304">
        <ele>1065</ele>
        <time>2021-08-10T06:54:3.000Z</time>
      </trkpt>
      <trkpt lat="43.03743" lon="0.04312">
        <ele>1066</ele>
        <time>2021-08-10T06:54:7.000Z</time>
      </trkpt>
      <trkpt lat="43.03746" lon="0.04318">
        <ele>1067</ele>
        <time>2021-08-10T06:54:11.000Z</time>
      </trkpt>
      <trkpt lat="43.03752" lon="0.04323">
        <ele>1067</ele>
        <time>2021-08-10T06:54:15.000Z</time>
      </trkpt>
      <trkpt lat="43.03755" lon="0.04328">
        <ele>1067</ele>
        <time>2021-08-10T06:54:19.000Z</time>
      </trkpt>
      <trkpt lat="43.03758" lon="0.04333">
        <ele>1068</ele>
        <time>2021-08-10T06:54:21.000Z</time>
      </trkpt>
      <trkpt lat="43.03761" lon="0.04339">
        <ele>1068</ele>
        <time>2021-08-10T06:54:24.000Z</time>
      </trkpt>
      <trkpt lat="43.03763" lon="0.04346">
        <ele>1069</ele>
        <time>2021-08-10T06:54:28.000Z</time>
      </trkpt>
      <trkpt lat="43.03765" lon="0.04353">
        <ele>1070</ele>
        <time>2021-08-10T06:54:31.000Z</time>
      </trkpt>
      <trkpt lat="43.03767" lon="0.0436">
        <ele>1070</ele>
        <time>2021-08-10T06:54:35.000Z</time>
      </trkpt>
      <trkpt lat="43.0377" lon="0.04367">
        <ele>1071</ele>
        <time>2021-08-10T06:54:39.000Z</time>
      </trkpt>
      <trkpt lat="43.03774" lon="0.04373">
        <ele>1072</ele>
        <time>2021-08-10T06:54:42.000Z</time>
      </trkpt>
      <trkpt lat="43.03776" lon="0.04379">
        <ele>1072</ele>
        <time>2021-08-10T06:54:45.000Z</time>
      </trkpt>
      <trkpt lat="43.03779" lon="0.04384">
        <ele>1072</ele>
        <time>2021-08-10T06:54:48.000Z</time>
      </trkpt>
      <trkpt lat="43.0378" lon="0.0439">
        <ele>1073</ele>
        <time>2021-08-10T06:54:51.000Z</time>
      </trkpt>
      <trkpt lat="43.03782" lon="0.04396">
        <ele>1073</ele>
        <time>2021-08-10T06:54:54.000Z</time>
      </trkpt>
      <trkpt lat="43.03785" lon="0.04403">
        <ele>1074</ele>
        <time>2021-08-10T06:54:58.000Z</time>
      </trkpt>
      <trkpt lat="43.03788" lon="0.04409">
        <ele>1075</ele>
        <time>2021-08-10T06:55:1.000Z</time>
      </trkpt>
      <trkpt lat="43.0379" lon="0.04415">
        <ele>1075</ele>
        <time>2021-08-10T06:55:4.000Z</time>
      </trkpt>
      <trkpt lat="43.03793" lon="0.04422">
        <ele>1076</ele>
        <time>2021-08-10T06:55:8.000Z</time>
      </trkpt>
      <trkpt lat="43.03795" lon="0.04429">
        <ele>1077</ele>
        <time>2021-08-10T06:55:12.000Z</time>
      </trkpt>
      <trkpt lat="43.03797" lon="0.04434">
        <ele>1078</ele>
        <time>2021-08-10T06:55:15.000Z</time>
      </trkpt>
      <trkpt lat="43.03799" lon="0.0444">
        <ele>1078</ele>
        <time>2021-08-10T06:55:18.000Z</time>
      </trkpt>
      <trkpt lat="43.03801" lon="0.04445">
        <ele>1079</ele>
        <time>2021-08-10T06:55:21.000Z</time>
      </trkpt>
      <trkpt lat="43.03803" lon="0.04451">
        <ele>1079</ele>
        <time>2021-08-10T06:55:24.000Z</time>
      </trkpt>
      <trkpt lat="43.03806" lon="0.04458">
        <ele>1079</ele>
        <time>2021-08-10T06:55:28.000Z</time>
      </trkpt>
      <trkpt lat="43.03809" lon="0.04464">
        <ele>1080</ele>
        <time>2021-08-10T06:55:31.000Z</time>
      </trkpt>
      <trkpt lat="43.0381" lon="0.0447">
        <ele>1080</ele>
        <time>2021-08-10T06:55:34.000Z</time>
      </trkpt>
      <trkpt lat="43.03813" lon="0.04478">
        <ele>1081</ele>
        <time>2021-08-10T06:55:38.000Z</time>
      </trkpt>
      <trkpt lat="43.03815" lon="0.04486">
        <ele>1082</ele>
        <time>2021-08-10T06:55:41.000Z</time>
      </trkpt>
      <trkpt lat="43.03816" lon="0.04493">
        <ele>1082</ele>
        <time>2021-08-10T06:55:44.000Z</time>
      </trkpt>
      <trkpt lat="43.03809" lon="0.04501">
        <ele>1083</ele>
        <time>2021-08-10T06:55:47.000Z</time>
      </trkpt>
      <trkpt lat="43.03806" lon="0.04508">
        <ele>1083</ele>
        <time>2021-08-10T06:55:50.000Z</time>
      </trkpt>
      <trkpt lat="43.03805" lon="0.04516">
        <ele>1084</ele>
        <time>2021-08-10T06:55:53.000Z</time>
      </trkpt>
      <trkpt lat="43.03803" lon="0.04523">
        <ele>1084</ele>
        <time>2021-08-10T06:55:56.000Z</time>
      </trkpt>
      <trkpt lat="43.03801" lon="0.0453">
        <ele>1085</ele>
        <time>2021-08-10T06:55:59.000Z</time>
      </trkpt>
      <trkpt lat="43.03799" lon="0.04537">
        <ele>1085</ele>
        <time>2021-08-10T06:56:2.000Z</time>
      </trkpt>
      <trkpt lat="43.03798" lon="0.04546">
        <ele>1085</ele>
        <time>2021-08-10T06:56:5.000Z</time>
      </trkpt>
      <trkpt lat="43.03797" lon="0.04554">
        <ele>1085</ele>
        <time>2021-08-10T06:56:8.000Z</time>
      </trkpt>
      <trkpt lat="43.03795" lon="0.04561">
        <ele>1086</ele>
        <time>2021-08-10T06:56:11.000Z</time>
      </trkpt>
      <trkpt lat="43.03794" lon="0.0457">
        <ele>1086</ele>
        <time>2021-08-10T06:56:14.000Z</time>
      </trkpt>
      <trkpt lat="43.03793" lon="0.04578">
        <ele>1086</ele>
        <time>2021-08-10T06:56:17.000Z</time>
      </trkpt>
      <trkpt lat="43.03791" lon="0.04586">
        <ele>1086</ele>
        <time>2021-08-10T06:56:20.000Z</time>
      </trkpt>
      <trkpt lat="43.0379" lon="0.04594">
        <ele>1086</ele>
        <time>2021-08-10T06:56:23.000Z</time>
      </trkpt>
      <trkpt lat="43.03788" lon="0.046">
        <ele>1087</ele>
        <time>2021-08-10T06:56:26.000Z</time>
      </trkpt>
      <trkpt lat="43.03786" lon="0.04605">
        <ele>1087</ele>
        <time>2021-08-10T06:56:29.000Z</time>
      </trkpt>
      <trkpt lat="43.03784" lon="0.0461">
        <ele>1087</ele>
        <time>2021-08-10T06:56:31.000Z</time>
      </trkpt>
      <trkpt lat="43.03775" lon="0.04615">
        <ele>1088</ele>
        <time>2021-08-10T06:56:34.000Z</time>
      </trkpt>
      <trkpt lat="43.03771" lon="0.04619">
        <ele>1088</ele>
        <time>2021-08-10T06:56:37.000Z</time>
      </trkpt>
      <trkpt lat="43.03767" lon="0.04622">
        <ele>1089</ele>
        <time>2021-08-10T06:56:40.000Z</time>
      </trkpt>
      <trkpt lat="43.03762" lon="0.04626">
        <ele>1089</ele>
        <time>2021-08-10T06:56:43.000Z</time>
      </trkpt>
      <trkpt lat="43.03759" lon="0.04629">
        <ele>1090</ele>
        <time>2021-08-10T06:56:46.000Z</time>
      </trkpt>
      <trkpt lat="43.03755" lon="0.04635">
        <ele>1090</ele>
        <time>2021-08-10T06:56:49.000Z</time>
      </trkpt>
      <trkpt lat="43.03752" lon="0.04639">
        <ele>1090</ele>
        <time>2021-08-10T06:56:52.000Z</time>
      </trkpt>
      <trkpt lat="43.03749" lon="0.04644">
        <ele>1091</ele>
        <time>2021-08-10T06:56:55.000Z</time>
      </trkpt>
      <trkpt lat="43.03745" lon="0.04649">
        <ele>1091</ele>
        <time>2021-08-10T06:56:58.000Z</time>
      </trkpt>
      <trkpt lat="43.03742" lon="0.04653">
        <ele>1092</ele>
        <time>2021-08-10T06:57:1.000Z</time>
      </trkpt>
      <trkpt lat="43.03738" lon="0.04658">
        <ele>1093</ele>
        <time>2021-08-10T06:57:4.000Z</time>
      </trkpt>
      <trkpt lat="43.03735" lon="0.04664">
        <ele>1093</ele>
        <time>2021-08-10T06:57:7.000Z</time>
      </trkpt>
      <trkpt lat="43.03731" lon="0.04669">
        <ele>1094</ele>
        <time>2021-08-10T06:57:11.000Z</time>
      </trkpt>
      <trkpt lat="43.03728" lon="0.04674">
        <ele>1095</ele>
        <time>2021-08-10T06:57:14.000Z</time>
      </trkpt>
      <trkpt lat="43.03725" lon="0.0468">
        <ele>1095</ele>
        <time>2021-08-10T06:57:18.000Z</time>
      </trkpt>
      <trkpt lat="43.03722" lon="0.04685">
        <ele>1096</ele>
        <time>2021-08-10T06:57:21.000Z</time>
      </trkpt>
      <trkpt lat="43.03718" lon="0.0469">
        <ele>1097</ele>
        <time>2021-08-10T06:57:25.000Z</time>
      </trkpt>
      <trkpt lat="43.03714" lon="0.04696">
        <ele>1098</ele>
        <time>2021-08-10T06:57:29.000Z</time>
      </trkpt>
      <trkpt lat="43.0371" lon="0.047">
        <ele>1098</ele>
        <time>2021-08-10T06:57:33.000Z</time>
      </trkpt>
      <trkpt lat="43.03707" lon="0.04704">
        <ele>1099</ele>
        <time>2021-08-10T06:57:37.000Z</time>
      </trkpt>
      <trkpt lat="43.03703" lon="0.04708">
        <ele>1100</ele>
        <time>2021-08-10T06:57:41.000Z</time>
      </trkpt>
      <trkpt lat="43.03698" lon="0.04712">
        <ele>1100</ele>
        <time>2021-08-10T06:57:45.000Z</time>
      </trkpt>
      <trkpt lat="43.03694" lon="0.04716">
        <ele>1101</ele>
        <time>2021-08-10T06:57:49.000Z</time>
      </trkpt>
      <trkpt lat="43.0369" lon="0.04719">
        <ele>1102</ele>
        <time>2021-08-10T06:57:53.000Z</time>
      </trkpt>
      <trkpt lat="43.03685" lon="0.04723">
        <ele>1103</ele>
        <time>2021-08-10T06:57:57.000Z</time>
      </trkpt>
      <trkpt lat="43.0368" lon="0.04726">
        <ele>1104</ele>
        <time>2021-08-10T06:58:1.000Z</time>
      </trkpt>
      <trkpt lat="43.03676" lon="0.04729">
        <ele>1105</ele>
        <time>2021-08-10T06:58:5.000Z</time>
      </trkpt>
      <trkpt lat="43.03671" lon="0.04731">
        <ele>1105</ele>
        <time>2021-08-10T06:58:9.000Z</time>
      </trkpt>
      <trkpt lat="43.03668" lon="0.04737">
        <ele>1106</ele>
        <time>2021-08-10T06:58:13.000Z</time>
      </trkpt>
      <trkpt lat="43.03664" lon="0.04741">
        <ele>1106</ele>
        <time>2021-08-10T06:58:17.000Z</time>
      </trkpt>
      <trkpt lat="43.03659" lon="0.04744">
        <ele>1107</ele>
        <time>2021-08-10T06:58:21.000Z</time>
      </trkpt>
      <trkpt lat="43.03655" lon="0.04748">
        <ele>1108</ele>
        <time>2021-08-10T06:58:25.000Z</time>
      </trkpt>
      <trkpt lat="43.03651" lon="0.04751">
        <ele>1109</ele>
        <time>2021-08-10T06:58:29.000Z</time>
      </trkpt>
      <trkpt lat="43.03647" lon="0.04755">
        <ele>1110</ele>
        <time>2021-08-10T06:58:33.000Z</time>
      </trkpt>
      <trkpt lat="43.03643" lon="0.0476">
        <ele>1111</ele>
        <time>2021-08-10T06:58:38.000Z</time>
      </trkpt>
      <trkpt lat="43.03639" lon="0.04765">
        <ele>1111</ele>
        <time>2021-08-10T06:58:43.000Z</time>
      </trkpt>
      <trkpt lat="43.03634" lon="0.04769">
        <ele>1112</ele>
        <time>2021-08-10T06:58:48.000Z</time>
      </trkpt>
      <trkpt lat="43.0363" lon="0.04773">
        <ele>1113</ele>
        <time>2021-08-10T06:58:53.000Z</time>
      </trkpt>
      <trkpt lat="43.03627" lon="0.04777">
        <ele>1114</ele>
        <time>2021-08-10T06:58:57.000Z</time>
      </trkpt>
      <trkpt lat="43.03623" lon="0.04782">
        <ele>1115</ele>
        <time>2021-08-10T06:59:1.000Z</time>
      </trkpt>
      <trkpt lat="43.03619" lon="0.04787">
        <ele>1116</ele>
        <time>2021-08-10T06:59:5.000Z</time>
      </trkpt>
      <trkpt lat="43.03616" lon="0.04791">
        <ele>1117</ele>
        <time>2021-08-10T06:59:9.000Z</time>
      </trkpt>
      <trkpt lat="43.03613" lon="0.04796">
        <ele>1117</ele>
        <time>2021-08-10T06:59:13.000Z</time>
      </trkpt>
      <trkpt lat="43.0361" lon="0.048">
        <ele>1117</ele>
        <time>2021-08-10T06:59:17.000Z</time>
      </trkpt>
      <trkpt lat="43.03607" lon="0.04807">
        <ele>1118</ele>
        <time>2021-08-10T06:59:21.000Z</time>
      </trkpt>
      <trkpt lat="43.03604" lon="0.04811">
        <ele>1119</ele>
        <time>2021-08-10T06:59:25.000Z</time>
      </trkpt>
      <trkpt lat="43.036" lon="0.04817">
        <ele>1119</ele>
        <time>2021-08-10T06:59:29.000Z</time>
      </trkpt>
      <trkpt lat="43.03595" lon="0.04823">
        <ele>1120</ele>
        <time>2021-08-10T06:59:33.000Z</time>
      </trkpt>
      <trkpt lat="43.03592" lon="0.04827">
        <ele>1121</ele>
        <time>2021-08-10T06:59:37.000Z</time>
      </trkpt>
      <trkpt lat="43.03589" lon="0.04833">
        <ele>1122</ele>
        <time>2021-08-10T06:59:41.000Z</time>
      </trkpt>
      <trkpt lat="43.03585" lon="0.04838">
        <ele>1122</ele>
        <time>2021-08-10T06:59:45.000Z</time>
      </trkpt>
      <trkpt lat="43.03581" lon="0.04843">
        <ele>1123</ele>
        <time>2021-08-10T06:59:49.000Z</time>
      </trkpt>
      <trkpt lat="43.03576" lon="0.04846">
        <ele>1123</ele>
        <time>2021-08-10T06:59:54.000Z</time>
      </trkpt>
      <trkpt lat="43.0357" lon="0.0485">
        <ele>1123</ele>
        <time>2021-08-10T06:59:58.000Z</time>
      </trkpt>
      <trkpt lat="43.03566" lon="0.04854">
        <ele>1124</ele>
        <time>2021-08-10T07:00:1.000Z</time>
      </trkpt>
      <trkpt lat="43.03563" lon="0.04859">
        <ele>1124</ele>
        <time>2021-08-10T07:00:4.000Z</time>
      </trkpt>
      <trkpt lat="43.03559" lon="0.04863">
        <ele>1125</ele>
        <time>2021-08-10T07:00:8.000Z</time>
      </trkpt>
      <trkpt lat="43.03556" lon="0.04869">
        <ele>1125</ele>
        <time>2021-08-10T07:00:15.000Z</time>
      </trkpt>
      <trkpt lat="43.03552" lon="0.04874">
        <ele>1125</ele>
        <time>2021-08-10T07:00:47.000Z</time>
      </trkpt>
      <trkpt lat="43.03546" lon="0.04874">
        <ele>1125</ele>
        <time>2021-08-10T07:00:50.000Z</time>
      </trkpt>
      <trkpt lat="43.0354" lon="0.04876">
        <ele>1125</ele>
        <time>2021-08-10T07:00:53.000Z</time>
      </trkpt>
      <trkpt lat="43.03535" lon="0.0488">
        <ele>1125</ele>
        <time>2021-08-10T07:00:56.000Z</time>
      </trkpt>
      <trkpt lat="43.03529" lon="0.04885">
        <ele>1125</ele>
        <time>2021-08-10T07:00:59.000Z</time>
      </trkpt>
      <trkpt lat="43.03524" lon="0.0489">
        <ele>1125</ele>
        <time>2021-08-10T07:01:2.000Z</time>
      </trkpt>
      <trkpt lat="43.0352" lon="0.04893">
        <ele>1127</ele>
        <time>2021-08-10T07:01:4.000Z</time>
      </trkpt>
      <trkpt lat="43.03516" lon="0.04897">
        <ele>1127</ele>
        <time>2021-08-10T07:01:6.000Z</time>
      </trkpt>
      <trkpt lat="43.03511" lon="0.049">
        <ele>1127</ele>
        <time>2021-08-10T07:01:9.000Z</time>
      </trkpt>
      <trkpt lat="43.03505" lon="0.04904">
        <ele>1128</ele>
        <time>2021-08-10T07:01:12.000Z</time>
      </trkpt>
      <trkpt lat="43.035" lon="0.04909">
        <ele>1128</ele>
        <time>2021-08-10T07:01:15.000Z</time>
      </trkpt>
      <trkpt lat="43.03497" lon="0.04912">
        <ele>1128</ele>
        <time>2021-08-10T07:01:17.000Z</time>
      </trkpt>
      <trkpt lat="43.03492" lon="0.04917">
        <ele>1129</ele>
        <time>2021-08-10T07:01:20.000Z</time>
      </trkpt>
      <trkpt lat="43.03488" lon="0.04926">
        <ele>1129</ele>
        <time>2021-08-10T07:01:23.000Z</time>
      </trkpt>
      <trkpt lat="43.03484" lon="0.04932">
        <ele>1130</ele>
        <time>2021-08-10T07:01:26.000Z</time>
      </trkpt>
      <trkpt lat="43.0348" lon="0.04939">
        <ele>1130</ele>
        <time>2021-08-10T07:01:29.000Z</time>
      </trkpt>
      <trkpt lat="43.03476" lon="0.04945">
        <ele>1131</ele>
        <time>2021-08-10T07:01:32.000Z</time>
      </trkpt>
      <trkpt lat="43.03472" lon="0.0495">
        <ele>1131</ele>
        <time>2021-08-10T07:01:35.000Z</time>
      </trkpt>
      <trkpt lat="43.03468" lon="0.04956">
        <ele>1132</ele>
        <time>2021-08-10T07:01:38.000Z</time>
      </trkpt>
      <trkpt lat="43.03464" lon="0.04963">
        <ele>1132</ele>
        <time>2021-08-10T07:01:41.000Z</time>
      </trkpt>
      <trkpt lat="43.0346" lon="0.04969">
        <ele>1132</ele>
        <time>2021-08-10T07:01:44.000Z</time>
      </trkpt>
      <trkpt lat="43.03456" lon="0.04975">
        <ele>1133</ele>
        <time>2021-08-10T07:01:47.000Z</time>
      </trkpt>
      <trkpt lat="43.03453" lon="0.04982">
        <ele>1133</ele>
        <time>2021-08-10T07:01:50.000Z</time>
      </trkpt>
      <trkpt lat="43.0345" lon="0.0499">
        <ele>1134</ele>
        <time>2021-08-10T07:01:53.000Z</time>
      </trkpt>
      <trkpt lat="43.03447" lon="0.04998">
        <ele>1134</ele>
        <time>2021-08-10T07:01:56.000Z</time>
      </trkpt>
      <trkpt lat="43.03444" lon="0.05005">
        <ele>1135</ele>
        <time>2021-08-10T07:01:59.000Z</time>
      </trkpt>
      <trkpt lat="43.03442" lon="0.05011">
        <ele>1135</ele>
        <time>2021-08-10T07:02:2.000Z</time>
      </trkpt>
      <trkpt lat="43.03441" lon="0.05017">
        <ele>1136</ele>
        <time>2021-08-10T07:02:5.000Z</time>
      </trkpt>
      <trkpt lat="43.03439" lon="0.05023">
        <ele>1136</ele>
        <time>2021-08-10T07:02:8.000Z</time>
      </trkpt>
      <trkpt lat="43.03437" lon="0.05029">
        <ele>1136</ele>
        <time>2021-08-10T07:02:11.000Z</time>
      </trkpt>
      <trkpt lat="43.03435" lon="0.05036">
        <ele>1137</ele>
        <time>2021-08-10T07:02:14.000Z</time>
      </trkpt>
      <trkpt lat="43.03433" lon="0.05043">
        <ele>1137</ele>
        <time>2021-08-10T07:02:18.000Z</time>
      </trkpt>
      <trkpt lat="43.03431" lon="0.05049">
        <ele>1138</ele>
        <time>2021-08-10T07:02:21.000Z</time>
      </trkpt>
      <trkpt lat="43.0343" lon="0.05056">
        <ele>1139</ele>
        <time>2021-08-10T07:02:24.000Z</time>
      </trkpt>
      <trkpt lat="43.03428" lon="0.05062">
        <ele>1139</ele>
        <time>2021-08-10T07:02:27.000Z</time>
      </trkpt>
      <trkpt lat="43.03427" lon="0.05069">
        <ele>1140</ele>
        <time>2021-08-10T07:02:30.000Z</time>
      </trkpt>
      <trkpt lat="43.03425" lon="0.05076">
        <ele>1140</ele>
        <time>2021-08-10T07:02:33.000Z</time>
      </trkpt>
      <trkpt lat="43.0343" lon="0.05083">
        <ele>1141</ele>
        <time>2021-08-10T07:02:36.000Z</time>
      </trkpt>
      <trkpt lat="43.0343" lon="0.05091">
        <ele>1141</ele>
        <time>2021-08-10T07:02:39.000Z</time>
      </trkpt>
      <trkpt lat="43.03429" lon="0.05099">
        <ele>1141</ele>
        <time>2021-08-10T07:02:43.000Z</time>
      </trkpt>
      <trkpt lat="43.03426" lon="0.05107">
        <ele>1142</ele>
        <time>2021-08-10T07:02:47.000Z</time>
      </trkpt>
      <trkpt lat="43.03426" lon="0.05113">
        <ele>1142</ele>
        <time>2021-08-10T07:02:50.000Z</time>
      </trkpt>
      <trkpt lat="43.03423" lon="0.0512">
        <ele>1143</ele>
        <time>2021-08-10T07:02:53.000Z</time>
      </trkpt>
      <trkpt lat="43.03423" lon="0.05127">
        <ele>1143</ele>
        <time>2021-08-10T07:02:56.000Z</time>
      </trkpt>
      <trkpt lat="43.03422" lon="0.05133">
        <ele>1144</ele>
        <time>2021-08-10T07:02:59.000Z</time>
      </trkpt>
      <trkpt lat="43.0342" lon="0.0514">
        <ele>1144</ele>
        <time>2021-08-10T07:03:2.000Z</time>
      </trkpt>
      <trkpt lat="43.0342" lon="0.05149">
        <ele>1145</ele>
        <time>2021-08-10T07:03:6.000Z</time>
      </trkpt>
      <trkpt lat="43.03418" lon="0.05155">
        <ele>1145</ele>
        <time>2021-08-10T07:03:9.000Z</time>
      </trkpt>
      <trkpt lat="43.03417" lon="0.05161">
        <ele>1146</ele>
        <time>2021-08-10T07:03:12.000Z</time>
      </trkpt>
      <trkpt lat="43.03416" lon="0.05169">
        <ele>1146</ele>
        <time>2021-08-10T07:03:15.000Z</time>
      </trkpt>
      <trkpt lat="43.03414" lon="0.05176">
        <ele>1146</ele>
        <time>2021-08-10T07:03:18.000Z</time>
      </trkpt>
      <trkpt lat="43.03413" lon="0.05182">
        <ele>1146</ele>
        <time>2021-08-10T07:03:21.000Z</time>
      </trkpt>
      <trkpt lat="43.0341" lon="0.05189">
        <ele>1147</ele>
        <time>2021-08-10T07:03:24.000Z</time>
      </trkpt>
      <trkpt lat="43.03407" lon="0.05195">
        <ele>1147</ele>
        <time>2021-08-10T07:03:27.000Z</time>
      </trkpt>
      <trkpt lat="43.03405" lon="0.05201">
        <ele>1148</ele>
        <time>2021-08-10T07:03:30.000Z</time>
      </trkpt>
      <trkpt lat="43.03402" lon="0.05206">
        <ele>1148</ele>
        <time>2021-08-10T07:03:33.000Z</time>
      </trkpt>
      <trkpt lat="43.03399" lon="0.05213">
        <ele>1149</ele>
        <time>2021-08-10T07:03:36.000Z</time>
      </trkpt>
      <trkpt lat="43.03397" lon="0.0522">
        <ele>1150</ele>
        <time>2021-08-10T07:03:39.000Z</time>
      </trkpt>
      <trkpt lat="43.03396" lon="0.05226">
        <ele>1150</ele>
        <time>2021-08-10T07:03:42.000Z</time>
      </trkpt>
      <trkpt lat="43.03393" lon="0.05232">
        <ele>1151</ele>
        <time>2021-08-10T07:03:45.000Z</time>
      </trkpt>
      <trkpt lat="43.03391" lon="0.05238">
        <ele>1151</ele>
        <time>2021-08-10T07:03:48.000Z</time>
      </trkpt>
      <trkpt lat="43.03389" lon="0.05244">
        <ele>1151</ele>
        <time>2021-08-10T07:03:51.000Z</time>
      </trkpt>
      <trkpt lat="43.03386" lon="0.0525">
        <ele>1152</ele>
        <time>2021-08-10T07:03:54.000Z</time>
      </trkpt>
      <trkpt lat="43.03384" lon="0.05254">
        <ele>1152</ele>
        <time>2021-08-10T07:03:57.000Z</time>
      </trkpt>
      <trkpt lat="43.03381" lon="0.0526">
        <ele>1153</ele>
        <time>2021-08-10T07:04:0.000Z</time>
      </trkpt>
      <trkpt lat="43.03375" lon="0.05265">
        <ele>1154</ele>
        <time>2021-08-10T07:04:3.000Z</time>
      </trkpt>
      <trkpt lat="43.03372" lon="0.05269">
        <ele>1154</ele>
        <time>2021-08-10T07:04:6.000Z</time>
      </trkpt>
      <trkpt lat="43.03368" lon="0.05274">
        <ele>1155</ele>
        <time>2021-08-10T07:04:9.000Z</time>
      </trkpt>
      <trkpt lat="43.03363" lon="0.05278">
        <ele>1155</ele>
        <time>2021-08-10T07:04:12.000Z</time>
      </trkpt>
      <trkpt lat="43.03359" lon="0.05282">
        <ele>1156</ele>
        <time>2021-08-10T07:04:15.000Z</time>
      </trkpt>
      <trkpt lat="43.03354" lon="0.05285">
        <ele>1156</ele>
        <time>2021-08-10T07:04:18.000Z</time>
      </trkpt>
      <trkpt lat="43.03349" lon="0.05287">
        <ele>1156</ele>
        <time>2021-08-10T07:04:21.000Z</time>
      </trkpt>
      <trkpt lat="43.03344" lon="0.05289">
        <ele>1156</ele>
        <time>2021-08-10T07:04:24.000Z</time>
      </trkpt>
      <trkpt lat="43.03338" lon="0.0529">
        <ele>1157</ele>
        <time>2021-08-10T07:04:28.000Z</time>
      </trkpt>
      <trkpt lat="43.03334" lon="0.05282">
        <ele>1158</ele>
        <time>2021-08-10T07:04:31.000Z</time>
      </trkpt>
      <trkpt lat="43.0333" lon="0.05277">
        <ele>1158</ele>
        <time>2021-08-10T07:04:34.000Z</time>
      </trkpt>
      <trkpt lat="43.03327" lon="0.05271">
        <ele>1159</ele>
        <time>2021-08-10T07:04:37.000Z</time>
      </trkpt>
      <trkpt lat="43.03323" lon="0.05265">
        <ele>1160</ele>
        <time>2021-08-10T07:04:41.000Z</time>
      </trkpt>
      <trkpt lat="43.0332" lon="0.0526">
        <ele>1160</ele>
        <time>2021-08-10T07:04:44.000Z</time>
      </trkpt>
      <trkpt lat="43.03317" lon="0.05256">
        <ele>1161</ele>
        <time>2021-08-10T07:04:47.000Z</time>
      </trkpt>
      <trkpt lat="43.03312" lon="0.05251">
        <ele>1161</ele>
        <time>2021-08-10T07:04:51.000Z</time>
      </trkpt>
      <trkpt lat="43.03307" lon="0.05248">
        <ele>1162</ele>
        <time>2021-08-10T07:04:55.000Z</time>
      </trkpt>
      <trkpt lat="43.03302" lon="0.05245">
        <ele>1162</ele>
        <time>2021-08-10T07:04:58.000Z</time>
      </trkpt>
      <trkpt lat="43.03297" lon="0.05243">
        <ele>1163</ele>
        <time>2021-08-10T07:05:1.000Z</time>
      </trkpt>
      <trkpt lat="43.03292" lon="0.0524">
        <ele>1164</ele>
        <time>2021-08-10T07:05:5.000Z</time>
      </trkpt>
      <trkpt lat="43.03287" lon="0.05239">
        <ele>1164</ele>
        <time>2021-08-10T07:05:8.000Z</time>
      </trkpt>
      <trkpt lat="43.03282" lon="0.05238">
        <ele>1165</ele>
        <time>2021-08-10T07:05:12.000Z</time>
      </trkpt>
      <trkpt lat="43.03277" lon="0.05234">
        <ele>1166</ele>
        <time>2021-08-10T07:05:16.000Z</time>
      </trkpt>
      <trkpt lat="43.03273" lon="0.0523">
        <ele>1166</ele>
        <time>2021-08-10T07:05:19.000Z</time>
      </trkpt>
      <trkpt lat="43.03269" lon="0.05225">
        <ele>1167</ele>
        <time>2021-08-10T07:05:22.000Z</time>
      </trkpt>
      <trkpt lat="43.03266" lon="0.0522">
        <ele>1167</ele>
        <time>2021-08-10T07:05:25.000Z</time>
      </trkpt>
      <trkpt lat="43.03263" lon="0.05214">
        <ele>1167</ele>
        <time>2021-08-10T07:05:29.000Z</time>
      </trkpt>
      <trkpt lat="43.0326" lon="0.05209">
        <ele>1168</ele>
        <time>2021-08-10T07:05:32.000Z</time>
      </trkpt>
      <trkpt lat="43.03256" lon="0.05204">
        <ele>1168</ele>
        <time>2021-08-10T07:05:36.000Z</time>
      </trkpt>
      <trkpt lat="43.03251" lon="0.05199">
        <ele>1169</ele>
        <time>2021-08-10T07:05:40.000Z</time>
      </trkpt>
      <trkpt lat="43.03248" lon="0.05193">
        <ele>1170</ele>
        <time>2021-08-10T07:05:44.000Z</time>
      </trkpt>
      <trkpt lat="43.03244" lon="0.05186">
        <ele>1171</ele>
        <time>2021-08-10T07:05:48.000Z</time>
      </trkpt>
      <trkpt lat="43.03241" lon="0.0518">
        <ele>1172</ele>
        <time>2021-08-10T07:05:52.000Z</time>
      </trkpt>
      <trkpt lat="43.03239" lon="0.05173">
        <ele>1172</ele>
        <time>2021-08-10T07:05:56.000Z</time>
      </trkpt>
      <trkpt lat="43.03237" lon="0.05167">
        <ele>1173</ele>
        <time>2021-08-10T07:06:0.000Z</time>
      </trkpt>
      <trkpt lat="43.03234" lon="0.05161">
        <ele>1173</ele>
        <time>2021-08-10T07:06:4.000Z</time>
      </trkpt>
      <trkpt lat="43.0323" lon="0.05157">
        <ele>1174</ele>
        <time>2021-08-10T07:06:8.000Z</time>
      </trkpt>
      <trkpt lat="43.03227" lon="0.05152">
        <ele>1175</ele>
        <time>2021-08-10T07:06:13.000Z</time>
      </trkpt>
      <trkpt lat="43.03223" lon="0.05146">
        <ele>1175</ele>
        <time>2021-08-10T07:06:16.000Z</time>
      </trkpt>
      <trkpt lat="43.0322" lon="0.0514">
        <ele>1176</ele>
        <time>2021-08-10T07:06:20.000Z</time>
      </trkpt>
      <trkpt lat="43.03217" lon="0.05134">
        <ele>1177</ele>
        <time>2021-08-10T07:06:24.000Z</time>
      </trkpt>
      <trkpt lat="43.03214" lon="0.05128">
        <ele>1178</ele>
        <time>2021-08-10T07:06:28.000Z</time>
      </trkpt>
      <trkpt lat="43.0321" lon="0.05122">
        <ele>1179</ele>
        <time>2021-08-10T07:06:32.000Z</time>
      </trkpt>
      <trkpt lat="43.03208" lon="0.05117">
        <ele>1179</ele>
        <time>2021-08-10T07:06:35.000Z</time>
      </trkpt>
      <trkpt lat="43.03204" lon="0.0511">
        <ele>1179</ele>
        <time>2021-08-10T07:06:39.000Z</time>
      </trkpt>
      <trkpt lat="43.03201" lon="0.05104">
        <ele>1180</ele>
        <time>2021-08-10T07:06:43.000Z</time>
      </trkpt>
      <trkpt lat="43.03199" lon="0.05098">
        <ele>1181</ele>
        <time>2021-08-10T07:06:47.000Z</time>
      </trkpt>
      <trkpt lat="43.03196" lon="0.05092">
        <ele>1182</ele>
        <time>2021-08-10T07:06:51.000Z</time>
      </trkpt>
      <trkpt lat="43.03193" lon="0.05085">
        <ele>1182</ele>
        <time>2021-08-10T07:06:55.000Z</time>
      </trkpt>
      <trkpt lat="43.03193" lon="0.05078">
        <ele>1183</ele>
        <time>2021-08-10T07:06:59.000Z</time>
      </trkpt>
      <trkpt lat="43.0319" lon="0.05071">
        <ele>1184</ele>
        <time>2021-08-10T07:07:3.000Z</time>
      </trkpt>
      <trkpt lat="43.03186" lon="0.05066">
        <ele>1184</ele>
        <time>2021-08-10T07:07:7.000Z</time>
      </trkpt>
      <trkpt lat="43.03183" lon="0.05062">
        <ele>1184</ele>
        <time>2021-08-10T07:07:10.000Z</time>
      </trkpt>
      <trkpt lat="43.03179" lon="0.05058">
        <ele>1184</ele>
        <time>2021-08-10T07:07:14.000Z</time>
      </trkpt>
      <trkpt lat="43.03175" lon="0.05054">
        <ele>1185</ele>
        <time>2021-08-10T07:07:17.000Z</time>
      </trkpt>
      <trkpt lat="43.0317" lon="0.0505">
        <ele>1186</ele>
        <time>2021-08-10T07:07:21.000Z</time>
      </trkpt>
      <trkpt lat="43.03165" lon="0.05046">
        <ele>1186</ele>
        <time>2021-08-10T07:07:24.000Z</time>
      </trkpt>
      <trkpt lat="43.03161" lon="0.05042">
        <ele>1187</ele>
        <time>2021-08-10T07:07:27.000Z</time>
      </trkpt>
      <trkpt lat="43.03156" lon="0.05038">
        <ele>1187</ele>
        <time>2021-08-10T07:07:29.000Z</time>
      </trkpt>
      <trkpt lat="43.03151" lon="0.05034">
        <ele>1188</ele>
        <time>2021-08-10T07:07:32.000Z</time>
      </trkpt>
      <trkpt lat="43.03146" lon="0.05032">
        <ele>1188</ele>
        <time>2021-08-10T07:07:35.000Z</time>
      </trkpt>
      <trkpt lat="43.03141" lon="0.0503">
        <ele>1189</ele>
        <time>2021-08-10T07:07:39.000Z</time>
      </trkpt>
      <trkpt lat="43.03136" lon="0.05028">
        <ele>1189</ele>
        <time>2021-08-10T07:07:42.000Z</time>
      </trkpt>
      <trkpt lat="43.03131" lon="0.05028">
        <ele>1189</ele>
        <time>2021-08-10T07:07:45.000Z</time>
      </trkpt>
      <trkpt lat="43.03126" lon="0.05027">
        <ele>1189</ele>
        <time>2021-08-10T07:07:48.000Z</time>
      </trkpt>
      <trkpt lat="43.0312" lon="0.05028">
        <ele>1190</ele>
        <time>2021-08-10T07:07:52.000Z</time>
      </trkpt>
      <trkpt lat="43.03115" lon="0.05029">
        <ele>1191</ele>
        <time>2021-08-10T07:07:56.000Z</time>
      </trkpt>
      <trkpt lat="43.0311" lon="0.05029">
        <ele>1191</ele>
        <time>2021-08-10T07:07:59.000Z</time>
      </trkpt>
      <trkpt lat="43.03105" lon="0.05029">
        <ele>1192</ele>
        <time>2021-08-10T07:08:2.000Z</time>
      </trkpt>
      <trkpt lat="43.03101" lon="0.05028">
        <ele>1192</ele>
        <time>2021-08-10T07:08:5.000Z</time>
      </trkpt>
      <trkpt lat="43.03095" lon="0.05028">
        <ele>1193</ele>
        <time>2021-08-10T07:08:8.000Z</time>
      </trkpt>
      <trkpt lat="43.0309" lon="0.05025">
        <ele>1193</ele>
        <time>2021-08-10T07:08:12.000Z</time>
      </trkpt>
      <trkpt lat="43.03085" lon="0.05026">
        <ele>1194</ele>
        <time>2021-08-10T07:08:15.000Z</time>
      </trkpt>
      <trkpt lat="43.0308" lon="0.05025">
        <ele>1194</ele>
        <time>2021-08-10T07:08:18.000Z</time>
      </trkpt>
      <trkpt lat="43.03075" lon="0.05025">
        <ele>1194</ele>
        <time>2021-08-10T07:08:21.000Z</time>
      </trkpt>
      <trkpt lat="43.0307" lon="0.05024">
        <ele>1195</ele>
        <time>2021-08-10T07:08:24.000Z</time>
      </trkpt>
      <trkpt lat="43.03065" lon="0.05024">
        <ele>1196</ele>
        <time>2021-08-10T07:08:28.000Z</time>
      </trkpt>
      <trkpt lat="43.03059" lon="0.05026">
        <ele>1196</ele>
        <time>2021-08-10T07:08:32.000Z</time>
      </trkpt>
      <trkpt lat="43.03055" lon="0.05029">
        <ele>1197</ele>
        <time>2021-08-10T07:08:35.000Z</time>
      </trkpt>
      <trkpt lat="43.03052" lon="0.05032">
        <ele>1197</ele>
        <time>2021-08-10T07:08:38.000Z</time>
      </trkpt>
      <trkpt lat="43.03047" lon="0.05038">
        <ele>1198</ele>
        <time>2021-08-10T07:08:42.000Z</time>
      </trkpt>
      <trkpt lat="43.03043" lon="0.05041">
        <ele>1199</ele>
        <time>2021-08-10T07:08:45.000Z</time>
      </trkpt>
      <trkpt lat="43.03041" lon="0.05046">
        <ele>1199</ele>
        <time>2021-08-10T07:08:48.000Z</time>
      </trkpt>
      <trkpt lat="43.03037" lon="0.0505">
        <ele>1200</ele>
        <time>2021-08-10T07:08:51.000Z</time>
      </trkpt>
      <trkpt lat="43.03032" lon="0.05055">
        <ele>1200</ele>
        <time>2021-08-10T07:08:54.000Z</time>
      </trkpt>
      <trkpt lat="43.03029" lon="0.0506">
        <ele>1201</ele>
        <time>2021-08-10T07:08:57.000Z</time>
      </trkpt>
      <trkpt lat="43.03025" lon="0.05064">
        <ele>1201</ele>
        <time>2021-08-10T07:09:0.000Z</time>
      </trkpt>
      <trkpt lat="43.03021" lon="0.05068">
        <ele>1201</ele>
        <time>2021-08-10T07:09:3.000Z</time>
      </trkpt>
      <trkpt lat="43.03016" lon="0.05073">
        <ele>1202</ele>
        <time>2021-08-10T07:09:7.000Z</time>
      </trkpt>
      <trkpt lat="43.03011" lon="0.05078">
        <ele>1202</ele>
        <time>2021-08-10T07:09:11.000Z</time>
      </trkpt>
      <trkpt lat="43.03008" lon="0.05081">
        <ele>1203</ele>
        <time>2021-08-10T07:09:14.000Z</time>
      </trkpt>
      <trkpt lat="43.03003" lon="0.05085">
        <ele>1203</ele>
        <time>2021-08-10T07:09:17.000Z</time>
      </trkpt>
      <trkpt lat="43.02998" lon="0.05084">
        <ele>1204</ele>
        <time>2021-08-10T07:09:20.000Z</time>
      </trkpt>
      <trkpt lat="43.02992" lon="0.05085">
        <ele>1204</ele>
        <time>2021-08-10T07:09:24.000Z</time>
      </trkpt>
      <trkpt lat="43.02987" lon="0.05084">
        <ele>1205</ele>
        <time>2021-08-10T07:09:27.000Z</time>
      </trkpt>
      <trkpt lat="43.02983" lon="0.05083">
        <ele>1205</ele>
        <time>2021-08-10T07:09:30.000Z</time>
      </trkpt>
      <trkpt lat="43.02978" lon="0.05081">
        <ele>1206</ele>
        <time>2021-08-10T07:09:33.000Z</time>
      </trkpt>
      <trkpt lat="43.02974" lon="0.05079">
        <ele>1206</ele>
        <time>2021-08-10T07:09:36.000Z</time>
      </trkpt>
      <trkpt lat="43.0297" lon="0.05077">
        <ele>1207</ele>
        <time>2021-08-10T07:09:39.000Z</time>
      </trkpt>
      <trkpt lat="43.02965" lon="0.05075">
        <ele>1207</ele>
        <time>2021-08-10T07:09:42.000Z</time>
      </trkpt>
      <trkpt lat="43.02961" lon="0.05072">
        <ele>1207</ele>
        <time>2021-08-10T07:09:46.000Z</time>
      </trkpt>
      <trkpt lat="43.02956" lon="0.05067">
        <ele>1208</ele>
        <time>2021-08-10T07:09:50.000Z</time>
      </trkpt>
      <trkpt lat="43.02952" lon="0.05062">
        <ele>1209</ele>
        <time>2021-08-10T07:09:54.000Z</time>
      </trkpt>
      <trkpt lat="43.02947" lon="0.05058">
        <ele>1210</ele>
        <time>2021-08-10T07:09:58.000Z</time>
      </trkpt>
      <trkpt lat="43.02942" lon="0.05055">
        <ele>1210</ele>
        <time>2021-08-10T07:10:2.000Z</time>
      </trkpt>
      <trkpt lat="43.02938" lon="0.05051">
        <ele>1211</ele>
        <time>2021-08-10T07:10:6.000Z</time>
      </trkpt>
      <trkpt lat="43.02933" lon="0.05047">
        <ele>1212</ele>
        <time>2021-08-10T07:10:9.000Z</time>
      </trkpt>
      <trkpt lat="43.02929" lon="0.05044">
        <ele>1212</ele>
        <time>2021-08-10T07:10:12.000Z</time>
      </trkpt>
      <trkpt lat="43.02924" lon="0.05041">
        <ele>1213</ele>
        <time>2021-08-10T07:10:16.000Z</time>
      </trkpt>
      <trkpt lat="43.02919" lon="0.05037">
        <ele>1213</ele>
        <time>2021-08-10T07:10:20.000Z</time>
      </trkpt>
      <trkpt lat="43.02914" lon="0.05033">
        <ele>1213</ele>
        <time>2021-08-10T07:10:24.000Z</time>
      </trkpt>
      <trkpt lat="43.0291" lon="0.0503">
        <ele>1214</ele>
        <time>2021-08-10T07:10:27.000Z</time>
      </trkpt>
      <trkpt lat="43.02905" lon="0.05027">
        <ele>1214</ele>
        <time>2021-08-10T07:10:31.000Z</time>
      </trkpt>
      <trkpt lat="43.029" lon="0.05022">
        <ele>1215</ele>
        <time>2021-08-10T07:10:35.000Z</time>
      </trkpt>
      <trkpt lat="43.02896" lon="0.05018">
        <ele>1216</ele>
        <time>2021-08-10T07:10:38.000Z</time>
      </trkpt>
      <trkpt lat="43.02891" lon="0.05015">
        <ele>1216</ele>
        <time>2021-08-10T07:10:42.000Z</time>
      </trkpt>
      <trkpt lat="43.02886" lon="0.05011">
        <ele>1217</ele>
        <time>2021-08-10T07:10:46.000Z</time>
      </trkpt>
      <trkpt lat="43.02882" lon="0.05008">
        <ele>1217</ele>
        <time>2021-08-10T07:10:49.000Z</time>
      </trkpt>
      <trkpt lat="43.02877" lon="0.05004">
        <ele>1218</ele>
        <time>2021-08-10T07:10:53.000Z</time>
      </trkpt>
      <trkpt lat="43.02871" lon="0.05002">
        <ele>1219</ele>
        <time>2021-08-10T07:10:57.000Z</time>
      </trkpt>
      <trkpt lat="43.02866" lon="0.04997">
        <ele>1219</ele>
        <time>2021-08-10T07:11:0.000Z</time>
      </trkpt>
      <trkpt lat="43.02862" lon="0.04993">
        <ele>1219</ele>
        <time>2021-08-10T07:11:3.000Z</time>
      </trkpt>
      <trkpt lat="43.02858" lon="0.04989">
        <ele>1219</ele>
        <time>2021-08-10T07:11:6.000Z</time>
      </trkpt>
      <trkpt lat="43.02854" lon="0.04984">
        <ele>1220</ele>
        <time>2021-08-10T07:11:10.000Z</time>
      </trkpt>
      <trkpt lat="43.0285" lon="0.04981">
        <ele>1220</ele>
        <time>2021-08-10T07:11:13.000Z</time>
      </trkpt>
      <trkpt lat="43.02847" lon="0.04976">
        <ele>1221</ele>
        <time>2021-08-10T07:11:16.000Z</time>
      </trkpt>
      <trkpt lat="43.02844" lon="0.0497">
        <ele>1221</ele>
        <time>2021-08-10T07:11:19.000Z</time>
      </trkpt>
      <trkpt lat="43.0284" lon="0.04966">
        <ele>1222</ele>
        <time>2021-08-10T07:11:22.000Z</time>
      </trkpt>
      <trkpt lat="43.02837" lon="0.04962">
        <ele>1222</ele>
        <time>2021-08-10T07:11:26.000Z</time>
      </trkpt>
      <trkpt lat="43.02833" lon="0.04958">
        <ele>1223</ele>
        <time>2021-08-10T07:11:28.000Z</time>
      </trkpt>
      <trkpt lat="43.02829" lon="0.04953">
        <ele>1223</ele>
        <time>2021-08-10T07:11:31.000Z</time>
      </trkpt>
      <trkpt lat="43.02826" lon="0.04949">
        <ele>1224</ele>
        <time>2021-08-10T07:11:34.000Z</time>
      </trkpt>
      <trkpt lat="43.02822" lon="0.04945">
        <ele>1224</ele>
        <time>2021-08-10T07:11:37.000Z</time>
      </trkpt>
      <trkpt lat="43.02817" lon="0.0494">
        <ele>1224</ele>
        <time>2021-08-10T07:11:40.000Z</time>
      </trkpt>
      <trkpt lat="43.02813" lon="0.04935">
        <ele>1224</ele>
        <time>2021-08-10T07:11:42.000Z</time>
      </trkpt>
      <trkpt lat="43.02809" lon="0.04931">
        <ele>1224</ele>
        <time>2021-08-10T07:11:45.000Z</time>
      </trkpt>
      <trkpt lat="43.02805" lon="0.04927">
        <ele>1225</ele>
        <time>2021-08-10T07:11:48.000Z</time>
      </trkpt>
      <trkpt lat="43.02802" lon="0.04923">
        <ele>1225</ele>
        <time>2021-08-10T07:11:51.000Z</time>
      </trkpt>
      <trkpt lat="43.02797" lon="0.04919">
        <ele>1226</ele>
        <time>2021-08-10T07:11:54.000Z</time>
      </trkpt>
      <trkpt lat="43.02794" lon="0.04915">
        <ele>1226</ele>
        <time>2021-08-10T07:11:57.000Z</time>
      </trkpt>
      <trkpt lat="43.0279" lon="0.04911">
        <ele>1227</ele>
        <time>2021-08-10T07:12:0.000Z</time>
      </trkpt>
      <trkpt lat="43.02786" lon="0.04906">
        <ele>1227</ele>
        <time>2021-08-10T07:12:3.000Z</time>
      </trkpt>
      <trkpt lat="43.02781" lon="0.04903">
        <ele>1228</ele>
        <time>2021-08-10T07:12:6.000Z</time>
      </trkpt>
      <trkpt lat="43.02777" lon="0.04899">
        <ele>1228</ele>
        <time>2021-08-10T07:12:9.000Z</time>
      </trkpt>
      <trkpt lat="43.02771" lon="0.04894">
        <ele>1229</ele>
        <time>2021-08-10T07:12:13.000Z</time>
      </trkpt>
      <trkpt lat="43.02766" lon="0.0489">
        <ele>1229</ele>
        <time>2021-08-10T07:12:16.000Z</time>
      </trkpt>
      <trkpt lat="43.02762" lon="0.04886">
        <ele>1230</ele>
        <time>2021-08-10T07:12:20.000Z</time>
      </trkpt>
      <trkpt lat="43.02755" lon="0.04883">
        <ele>1230</ele>
        <time>2021-08-10T07:12:23.000Z</time>
      </trkpt>
      <trkpt lat="43.0275" lon="0.0488">
        <ele>1230</ele>
        <time>2021-08-10T07:12:26.000Z</time>
      </trkpt>
      <trkpt lat="43.02744" lon="0.04877">
        <ele>1230</ele>
        <time>2021-08-10T07:12:29.000Z</time>
      </trkpt>
      <trkpt lat="43.02739" lon="0.04875">
        <ele>1231</ele>
        <time>2021-08-10T07:12:33.000Z</time>
      </trkpt>
      <trkpt lat="43.02732" lon="0.04873">
        <ele>1232</ele>
        <time>2021-08-10T07:12:35.000Z</time>
      </trkpt>
      <trkpt lat="43.02727" lon="0.04873">
        <ele>1232</ele>
        <time>2021-08-10T07:12:37.000Z</time>
      </trkpt>
      <trkpt lat="43.02721" lon="0.04872">
        <ele>1233</ele>
        <time>2021-08-10T07:12:40.000Z</time>
      </trkpt>
      <trkpt lat="43.02715" lon="0.04871">
        <ele>1233</ele>
        <time>2021-08-10T07:12:43.000Z</time>
      </trkpt>
      <trkpt lat="43.0271" lon="0.04871">
        <ele>1234</ele>
        <time>2021-08-10T07:12:46.000Z</time>
      </trkpt>
      <trkpt lat="43.02705" lon="0.04873">
        <ele>1235</ele>
        <time>2021-08-10T07:12:49.000Z</time>
      </trkpt>
      <trkpt lat="43.027" lon="0.04874">
        <ele>1235</ele>
        <time>2021-08-10T07:12:52.000Z</time>
      </trkpt>
      <trkpt lat="43.02696" lon="0.04875">
        <ele>1235</ele>
        <time>2021-08-10T07:12:54.000Z</time>
      </trkpt>
      <trkpt lat="43.0269" lon="0.04877">
        <ele>1235</ele>
        <time>2021-08-10T07:12:57.000Z</time>
      </trkpt>
      <trkpt lat="43.02685" lon="0.04879">
        <ele>1235</ele>
        <time>2021-08-10T07:13:0.000Z</time>
      </trkpt>
      <trkpt lat="43.0268" lon="0.04881">
        <ele>1236</ele>
        <time>2021-08-10T07:13:3.000Z</time>
      </trkpt>
      <trkpt lat="43.02676" lon="0.04884">
        <ele>1237</ele>
        <time>2021-08-10T07:13:6.000Z</time>
      </trkpt>
      <trkpt lat="43.02671" lon="0.04886">
        <ele>1237</ele>
        <time>2021-08-10T07:13:9.000Z</time>
      </trkpt>
      <trkpt lat="43.02667" lon="0.04889">
        <ele>1238</ele>
        <time>2021-08-10T07:13:12.000Z</time>
      </trkpt>
      <trkpt lat="43.02662" lon="0.04892">
        <ele>1238</ele>
        <time>2021-08-10T07:13:15.000Z</time>
      </trkpt>
      <trkpt lat="43.02657" lon="0.04895">
        <ele>1239</ele>
        <time>2021-08-10T07:13:18.000Z</time>
      </trkpt>
      <trkpt lat="43.02652" lon="0.04898">
        <ele>1239</ele>
        <time>2021-08-10T07:13:21.000Z</time>
      </trkpt>
      <trkpt lat="43.02647" lon="0.04901">
        <ele>1240</ele>
        <time>2021-08-10T07:13:24.000Z</time>
      </trkpt>
      <trkpt lat="43.02642" lon="0.04904">
        <ele>1240</ele>
        <time>2021-08-10T07:13:27.000Z</time>
      </trkpt>
      <trkpt lat="43.02637" lon="0.04906">
        <ele>1240</ele>
        <time>2021-08-10T07:13:30.000Z</time>
      </trkpt>
      <trkpt lat="43.02633" lon="0.04909">
        <ele>1241</ele>
        <time>2021-08-10T07:13:33.000Z</time>
      </trkpt>
      <trkpt lat="43.02628" lon="0.04912">
        <ele>1241</ele>
        <time>2021-08-10T07:13:36.000Z</time>
      </trkpt>
      <trkpt lat="43.02623" lon="0.04942">
        <ele>1241</ele>
        <time>2021-08-10T07:13:39.000Z</time>
      </trkpt>
      <trkpt lat="43.02619" lon="0.04937">
        <ele>1241</ele>
        <time>2021-08-10T07:13:42.000Z</time>
      </trkpt>
      <trkpt lat="43.02618" lon="0.0493">
        <ele>1241</ele>
        <time>2021-08-10T07:13:45.000Z</time>
      </trkpt>
      <trkpt lat="43.02621" lon="0.04923">
        <ele>1241</ele>
        <time>2021-08-10T07:13:48.000Z</time>
      </trkpt>
      <trkpt lat="43.02626" lon="0.04918">
        <ele>1242</ele>
        <time>2021-08-10T07:13:51.000Z</time>
      </trkpt>
      <trkpt lat="43.02631" lon="0.04916">
        <ele>1242</ele>
        <time>2021-08-10T07:13:53.000Z</time>
      </trkpt>
      <trkpt lat="43.02636" lon="0.04915">
        <ele>1243</ele>
        <time>2021-08-10T07:13:56.000Z</time>
      </trkpt>
      <trkpt lat="43.02642" lon="0.04912">
        <ele>1243</ele>
        <time>2021-08-10T07:13:59.000Z</time>
      </trkpt>
      <trkpt lat="43.02645" lon="0.04909">
        <ele>1244</ele>
        <time>2021-08-10T07:14:2.000Z</time>
      </trkpt>
      <trkpt lat="43.02651" lon="0.04905">
        <ele>1244</ele>
        <time>2021-08-10T07:14:5.000Z</time>
      </trkpt>
      <trkpt lat="43.02656" lon="0.04902">
        <ele>1245</ele>
        <time>2021-08-10T07:14:8.000Z</time>
      </trkpt>
      <trkpt lat="43.0266" lon="0.04898">
        <ele>1245</ele>
        <time>2021-08-10T07:14:11.000Z</time>
      </trkpt>
      <trkpt lat="43.02663" lon="0.04894">
        <ele>1246</ele>
        <time>2021-08-10T07:14:14.000Z</time>
      </trkpt>
      <trkpt lat="43.02667" lon="0.0489">
        <ele>1246</ele>
        <time>2021-08-10T07:14:17.000Z</time>
      </trkpt>
      <trkpt lat="43.0267" lon="0.04885">
        <ele>1246</ele>
        <time>2021-08-10T07:14:20.000Z</time>
      </trkpt>
      <trkpt lat="43.02674" lon="0.04881">
        <ele>1247</ele>
        <time>2021-08-10T07:14:23.000Z</time>
      </trkpt>
      <trkpt lat="43.02678" lon="0.04876">
        <ele>1247</ele>
        <time>2021-08-10T07:14:26.000Z</time>
      </trkpt>
      <trkpt lat="43.02682" lon="0.0487">
        <ele>1248</ele>
        <time>2021-08-10T07:14:30.000Z</time>
      </trkpt>
      <trkpt lat="43.02685" lon="0.04866">
        <ele>1249</ele>
        <time>2021-08-10T07:14:33.000Z</time>
      </trkpt>
      <trkpt lat="43.02689" lon="0.0486">
        <ele>1249</ele>
        <time>2021-08-10T07:14:36.000Z</time>
      </trkpt>
      <trkpt lat="43.02692" lon="0.04853">
        <ele>1250</ele>
        <time>2021-08-10T07:14:39.000Z</time>
      </trkpt>
      <trkpt lat="43.02697" lon="0.04848">
        <ele>1251</ele>
        <time>2021-08-10T07:14:42.000Z</time>
      </trkpt>
      <trkpt lat="43.02701" lon="0.04844">
        <ele>1251</ele>
        <time>2021-08-10T07:14:46.000Z</time>
      </trkpt>
      <trkpt lat="43.02706" lon="0.04839">
        <ele>1251</ele>
        <time>2021-08-10T07:14:48.000Z</time>
      </trkpt>
      <trkpt lat="43.02712" lon="0.04835">
        <ele>1251</ele>
        <time>2021-08-10T07:14:51.000Z</time>
      </trkpt>
      <trkpt lat="43.02718" lon="0.04831">
        <ele>1252</ele>
        <time>2021-08-10T07:14:54.000Z</time>
      </trkpt>
      <trkpt lat="43.02723" lon="0.04828">
        <ele>1253</ele>
        <time>2021-08-10T07:14:57.000Z</time>
      </trkpt>
      <trkpt lat="43.02728" lon="0.04825">
        <ele>1253</ele>
        <time>2021-08-10T07:15:0.000Z</time>
      </trkpt>
      <trkpt lat="43.02733" lon="0.04824">
        <ele>1254</ele>
        <time>2021-08-10T07:15:3.000Z</time>
      </trkpt>
      <trkpt lat="43.02739" lon="0.04822">
        <ele>1254</ele>
        <time>2021-08-10T07:15:6.000Z</time>
      </trkpt>
      <trkpt lat="43.02744" lon="0.04821">
        <ele>1255</ele>
        <time>2021-08-10T07:15:10.000Z</time>
      </trkpt>
      <trkpt lat="43.02749" lon="0.04819">
        <ele>1255</ele>
        <time>2021-08-10T07:15:12.000Z</time>
      </trkpt>
      <trkpt lat="43.02754" lon="0.04817">
        <ele>1256</ele>
        <time>2021-08-10T07:15:15.000Z</time>
      </trkpt>
      <trkpt lat="43.02758" lon="0.04816">
        <ele>1256</ele>
        <time>2021-08-10T07:15:18.000Z</time>
      </trkpt>
      <trkpt lat="43.02765" lon="0.04814">
        <ele>1256</ele>
        <time>2021-08-10T07:15:22.000Z</time>
      </trkpt>
      <trkpt lat="43.0277" lon="0.04819">
        <ele>1257</ele>
        <time>2021-08-10T07:15:26.000Z</time>
      </trkpt>
      <trkpt lat="43.02775" lon="0.0482">
        <ele>1257</ele>
        <time>2021-08-10T07:15:29.000Z</time>
      </trkpt>
      <trkpt lat="43.02781" lon="0.04821">
        <ele>1258</ele>
        <time>2021-08-10T07:15:33.000Z</time>
      </trkpt>
      <trkpt lat="43.02786" lon="0.04822">
        <ele>1258</ele>
        <time>2021-08-10T07:15:36.000Z</time>
      </trkpt>
      <trkpt lat="43.02791" lon="0.04825">
        <ele>1259</ele>
        <time>2021-08-10T07:16:2.000Z</time>
      </trkpt>
      <trkpt lat="43.02795" lon="0.04827">
        <ele>1259</ele>
        <time>2021-08-10T07:16:5.000Z</time>
      </trkpt>
      <trkpt lat="43.028" lon="0.0483">
        <ele>1259</ele>
        <time>2021-08-10T07:16:8.000Z</time>
      </trkpt>
      <trkpt lat="43.02805" lon="0.04833">
        <ele>1260</ele>
        <time>2021-08-10T07:16:11.000Z</time>
      </trkpt>
      <trkpt lat="43.0281" lon="0.04836">
        <ele>1260</ele>
        <time>2021-08-10T07:16:14.000Z</time>
      </trkpt>
      <trkpt lat="43.02815" lon="0.04839">
        <ele>1261</ele>
        <time>2021-08-10T07:16:17.000Z</time>
      </trkpt>
      <trkpt lat="43.0282" lon="0.04843">
        <ele>1262</ele>
        <time>2021-08-10T07:16:20.000Z</time>
      </trkpt>
      <trkpt lat="43.02826" lon="0.04846">
        <ele>1262</ele>
        <time>2021-08-10T07:16:23.000Z</time>
      </trkpt>
      <trkpt lat="43.0283" lon="0.04849">
        <ele>1263</ele>
        <time>2021-08-10T07:16:26.000Z</time>
      </trkpt>
      <trkpt lat="43.02835" lon="0.04852">
        <ele>1264</ele>
        <time>2021-08-10T07:16:30.000Z</time>
      </trkpt>
      <trkpt lat="43.02839" lon="0.04855">
        <ele>1264</ele>
        <time>2021-08-10T07:16:34.000Z</time>
      </trkpt>
      <trkpt lat="43.02844" lon="0.04858">
        <ele>1265</ele>
        <time>2021-08-10T07:16:37.000Z</time>
      </trkpt>
      <trkpt lat="43.02848" lon="0.04862">
        <ele>1265</ele>
        <time>2021-08-10T07:16:40.000Z</time>
      </trkpt>
      <trkpt lat="43.02853" lon="0.04865">
        <ele>1266</ele>
        <time>2021-08-10T07:16:43.000Z</time>
      </trkpt>
      <trkpt lat="43.02858" lon="0.04868">
        <ele>1266</ele>
        <time>2021-08-10T07:16:46.000Z</time>
      </trkpt>
      <trkpt lat="43.02862" lon="0.04871">
        <ele>1266</ele>
        <time>2021-08-10T07:16:49.000Z</time>
      </trkpt>
      <trkpt lat="43.02867" lon="0.04874">
        <ele>1267</ele>
        <time>2021-08-10T07:16:52.000Z</time>
      </trkpt>
      <trkpt lat="43.02871" lon="0.04877">
        <ele>1267</ele>
        <time>2021-08-10T07:16:55.000Z</time>
      </trkpt>
      <trkpt lat="43.02876" lon="0.04881">
        <ele>1268</ele>
        <time>2021-08-10T07:16:58.000Z</time>
      </trkpt>
      <trkpt lat="43.0288" lon="0.04884">
        <ele>1268</ele>
        <time>2021-08-10T07:17:1.000Z</time>
      </trkpt>
      <trkpt lat="43.02885" lon="0.04887">
        <ele>1269</ele>
        <time>2021-08-10T07:17:4.000Z</time>
      </trkpt>
      <trkpt lat="43.0289" lon="0.04891">
        <ele>1269</ele>
        <time>2021-08-10T07:17:7.000Z</time>
      </trkpt>
      <trkpt lat="43.02894" lon="0.04894">
        <ele>1270</ele>
        <time>2021-08-10T07:17:10.000Z</time>
      </trkpt>
      <trkpt lat="43.02899" lon="0.04897">
        <ele>1271</ele>
        <time>2021-08-10T07:17:14.000Z</time>
      </trkpt>
      <trkpt lat="43.02905" lon="0.049">
        <ele>1271</ele>
        <time>2021-08-10T07:17:17.000Z</time>
      </trkpt>
      <trkpt lat="43.0291" lon="0.04902">
        <ele>1271</ele>
        <time>2021-08-10T07:17:20.000Z</time>
      </trkpt>
      <trkpt lat="43.02914" lon="0.04905">
        <ele>1271</ele>
        <time>2021-08-10T07:17:23.000Z</time>
      </trkpt>
      <trkpt lat="43.0292" lon="0.04907">
        <ele>1271</ele>
        <time>2021-08-10T07:17:26.000Z</time>
      </trkpt>
      <trkpt lat="43.02925" lon="0.04909">
        <ele>1272</ele>
        <time>2021-08-10T07:17:29.000Z</time>
      </trkpt>
      <trkpt lat="43.02931" lon="0.04911">
        <ele>1272</ele>
        <time>2021-08-10T07:17:32.000Z</time>
      </trkpt>
      <trkpt lat="43.02935" lon="0.04896">
        <ele>1272</ele>
        <time>2021-08-10T07:17:35.000Z</time>
      </trkpt>
      <trkpt lat="43.02939" lon="0.04892">
        <ele>1272</ele>
        <time>2021-08-10T07:17:38.000Z</time>
      </trkpt>
      <trkpt lat="43.02942" lon="0.04886">
        <ele>1273</ele>
        <time>2021-08-10T07:17:41.000Z</time>
      </trkpt>
      <trkpt lat="43.02942" lon="0.0488">
        <ele>1273</ele>
        <time>2021-08-10T07:17:44.000Z</time>
      </trkpt>
      <trkpt lat="43.02943" lon="0.04873">
        <ele>1273</ele>
        <time>2021-08-10T07:17:47.000Z</time>
      </trkpt>
      <trkpt lat="43.02941" lon="0.04866">
        <ele>1273</ele>
        <time>2021-08-10T07:17:51.000Z</time>
      </trkpt>
      <trkpt lat="43.02941" lon="0.04859">
        <ele>1273</ele>
        <time>2021-08-10T07:18:33.000Z</time>
      </trkpt>
      <trkpt lat="43.0294" lon="0.04852">
        <ele>1273</ele>
        <time>2021-08-10T07:18:58.000Z</time>
      </trkpt>
      <trkpt lat="43.02938" lon="0.04844">
        <ele>1273</ele>
        <time>2021-08-10T07:19:1.000Z</time>
      </trkpt>
      <trkpt lat="43.02937" lon="0.04836">
        <ele>1273</ele>
        <time>2021-08-10T07:19:4.000Z</time>
      </trkpt>
      <trkpt lat="43.02935" lon="0.04829">
        <ele>1273</ele>
        <time>2021-08-10T07:19:6.000Z</time>
      </trkpt>
      <trkpt lat="43.02934" lon="0.04819">
        <ele>1273</ele>
        <time>2021-08-10T07:19:9.000Z</time>
      </trkpt>
      <trkpt lat="43.02932" lon="0.04813">
        <ele>1273</ele>
        <time>2021-08-10T07:19:11.000Z</time>
      </trkpt>
      <trkpt lat="43.02931" lon="0.04807">
        <ele>1273</ele>
        <time>2021-08-10T07:19:13.000Z</time>
      </trkpt>
      <trkpt lat="43.02929" lon="0.04801">
        <ele>1273</ele>
        <time>2021-08-10T07:19:15.000Z</time>
      </trkpt>
      <trkpt lat="43.02928" lon="0.04794">
        <ele>1273</ele>
        <time>2021-08-10T07:19:17.000Z</time>
      </trkpt>
      <trkpt lat="43.02926" lon="0.04787">
        <ele>1273</ele>
        <time>2021-08-10T07:19:19.000Z</time>
      </trkpt>
      <trkpt lat="43.02921" lon="0.04782">
        <ele>1273</ele>
        <time>2021-08-10T07:19:21.000Z</time>
      </trkpt>
      <trkpt lat="43.02917" lon="0.04778">
        <ele>1273</ele>
        <time>2021-08-10T07:19:23.000Z</time>
      </trkpt>
      <trkpt lat="43.02913" lon="0.04774">
        <ele>1273</ele>
        <time>2021-08-10T07:19:25.000Z</time>
      </trkpt>
      <trkpt lat="43.02908" lon="0.0477">
        <ele>1273</ele>
        <time>2021-08-10T07:19:27.000Z</time>
      </trkpt>
      <trkpt lat="43.02903" lon="0.04768">
        <ele>1273</ele>
        <time>2021-08-10T07:19:29.000Z</time>
      </trkpt>
      <trkpt lat="43.02898" lon="0.04766">
        <ele>1273</ele>
        <time>2021-08-10T07:19:31.000Z</time>
      </trkpt>
      <trkpt lat="43.02892" lon="0.04765">
        <ele>1273</ele>
        <time>2021-08-10T07:19:33.000Z</time>
      </trkpt>
      <trkpt lat="43.02887" lon="0.04765">
        <ele>1273</ele>
        <time>2021-08-10T07:19:35.000Z</time>
      </trkpt>
      <trkpt lat="43.02881" lon="0.04765">
        <ele>1273</ele>
        <time>2021-08-10T07:19:37.000Z</time>
      </trkpt>
      <trkpt lat="43.02875" lon="0.04765">
        <ele>1273</ele>
        <time>2021-08-10T07:19:39.000Z</time>
      </trkpt>
      <trkpt lat="43.02869" lon="0.04766">
        <ele>1273</ele>
        <time>2021-08-10T07:19:41.000Z</time>
      </trkpt>
      <trkpt lat="43.02863" lon="0.04767">
        <ele>1274</ele>
        <time>2021-08-10T07:19:43.000Z</time>
      </trkpt>
      <trkpt lat="43.02858" lon="0.04768">
        <ele>1274</ele>
        <time>2021-08-10T07:19:45.000Z</time>
      </trkpt>
      <trkpt lat="43.02852" lon="0.04769">
        <ele>1274</ele>
        <time>2021-08-10T07:19:47.000Z</time>
      </trkpt>
      <trkpt lat="43.02847" lon="0.04771">
        <ele>1274</ele>
        <time>2021-08-10T07:19:49.000Z</time>
      </trkpt>
      <trkpt lat="43.02842" lon="0.04772">
        <ele>1274</ele>
        <time>2021-08-10T07:19:51.000Z</time>
      </trkpt>
      <trkpt lat="43.02837" lon="0.04773">
        <ele>1274</ele>
        <time>2021-08-10T07:19:53.000Z</time>
      </trkpt>
      <trkpt lat="43.02831" lon="0.04774">
        <ele>1274</ele>
        <time>2021-08-10T07:19:55.000Z</time>
      </trkpt>
      <trkpt lat="43.02826" lon="0.04771">
        <ele>1274</ele>
        <time>2021-08-10T07:19:57.000Z</time>
      </trkpt>
      <trkpt lat="43.02821" lon="0.04769">
        <ele>1275</ele>
        <time>2021-08-10T07:19:59.000Z</time>
      </trkpt>
      <trkpt lat="43.02815" lon="0.04767">
        <ele>1275</ele>
        <time>2021-08-10T07:20:2.000Z</time>
      </trkpt>
      <trkpt lat="43.0281" lon="0.04765">
        <ele>1275</ele>
        <time>2021-08-10T07:20:5.000Z</time>
      </trkpt>
      <trkpt lat="43.02805" lon="0.04763">
        <ele>1276</ele>
        <time>2021-08-10T07:20:8.000Z</time>
      </trkpt>
      <trkpt lat="43.028" lon="0.04761">
        <ele>1277</ele>
        <time>2021-08-10T07:20:11.000Z</time>
      </trkpt>
      <trkpt lat="43.02796" lon="0.04759">
        <ele>1278</ele>
        <time>2021-08-10T07:20:13.000Z</time>
      </trkpt>
      <trkpt lat="43.02792" lon="0.04755">
        <ele>1278</ele>
        <time>2021-08-10T07:20:16.000Z</time>
      </trkpt>
      <trkpt lat="43.02787" lon="0.04751">
        <ele>1279</ele>
        <time>2021-08-10T07:20:20.000Z</time>
      </trkpt>
      <trkpt lat="43.02783" lon="0.04746">
        <ele>1279</ele>
        <time>2021-08-10T07:20:24.000Z</time>
      </trkpt>
      <trkpt lat="43.02779" lon="0.04742">
        <ele>1280</ele>
        <time>2021-08-10T07:20:27.000Z</time>
      </trkpt>
      <trkpt lat="43.02775" lon="0.04736">
        <ele>1281</ele>
        <time>2021-08-10T07:20:31.000Z</time>
      </trkpt>
      <trkpt lat="43.02772" lon="0.0473">
        <ele>1281</ele>
        <time>2021-08-10T07:20:34.000Z</time>
      </trkpt>
      <trkpt lat="43.02769" lon="0.04726">
        <ele>1282</ele>
        <time>2021-08-10T07:20:37.000Z</time>
      </trkpt>
      <trkpt lat="43.02766" lon="0.0472">
        <ele>1283</ele>
        <time>2021-08-10T07:20:41.000Z</time>
      </trkpt>
      <trkpt lat="43.02763" lon="0.04714">
        <ele>1283</ele>
        <time>2021-08-10T07:20:44.000Z</time>
      </trkpt>
      <trkpt lat="43.0276" lon="0.04708">
        <ele>1284</ele>
        <time>2021-08-10T07:20:48.000Z</time>
      </trkpt>
      <trkpt lat="43.02757" lon="0.04702">
        <ele>1285</ele>
        <time>2021-08-10T07:20:52.000Z</time>
      </trkpt>
      <trkpt lat="43.02754" lon="0.04697">
        <ele>1285</ele>
        <time>2021-08-10T07:20:55.000Z</time>
      </trkpt>
      <trkpt lat="43.0275" lon="0.0469">
        <ele>1285</ele>
        <time>2021-08-10T07:20:59.000Z</time>
      </trkpt>
      <trkpt lat="43.02747" lon="0.04683">
        <ele>1286</ele>
        <time>2021-08-10T07:21:3.000Z</time>
      </trkpt>
      <trkpt lat="43.02748" lon="0.04677">
        <ele>1286</ele>
        <time>2021-08-10T07:21:6.000Z</time>
      </trkpt>
      <trkpt lat="43.02745" lon="0.04669">
        <ele>1287</ele>
        <time>2021-08-10T07:21:10.000Z</time>
      </trkpt>
      <trkpt lat="43.02745" lon="0.04661">
        <ele>1288</ele>
        <time>2021-08-10T07:21:14.000Z</time>
      </trkpt>
      <trkpt lat="43.02743" lon="0.04655">
        <ele>1288</ele>
        <time>2021-08-10T07:21:17.000Z</time>
      </trkpt>
      <trkpt lat="43.02742" lon="0.04647">
        <ele>1289</ele>
        <time>2021-08-10T07:21:21.000Z</time>
      </trkpt>
      <trkpt lat="43.02741" lon="0.04639">
        <ele>1289</ele>
        <time>2021-08-10T07:21:25.000Z</time>
      </trkpt>
      <trkpt lat="43.02739" lon="0.04633">
        <ele>1290</ele>
        <time>2021-08-10T07:21:28.000Z</time>
      </trkpt>
      <trkpt lat="43.02739" lon="0.04626">
        <ele>1290</ele>
        <time>2021-08-10T07:21:31.000Z</time>
      </trkpt>
      <trkpt lat="43.02738" lon="0.04619">
        <ele>1291</ele>
        <time>2021-08-10T07:21:34.000Z</time>
      </trkpt>
      <trkpt lat="43.02736" lon="0.04613">
        <ele>1292</ele>
        <time>2021-08-10T07:21:37.000Z</time>
      </trkpt>
      <trkpt lat="43.02736" lon="0.04606">
        <ele>1292</ele>
        <time>2021-08-10T07:21:40.000Z</time>
      </trkpt>
      <trkpt lat="43.02734" lon="0.046">
        <ele>1292</ele>
        <time>2021-08-10T07:21:43.000Z</time>
      </trkpt>
      <trkpt lat="43.02733" lon="0.04593">
        <ele>1292</ele>
        <time>2021-08-10T07:21:46.000Z</time>
      </trkpt>
      <trkpt lat="43.02731" lon="0.04586">
        <ele>1293</ele>
        <time>2021-08-10T07:21:49.000Z</time>
      </trkpt>
      <trkpt lat="43.0273" lon="0.04579">
        <ele>1293</ele>
        <time>2021-08-10T07:21:52.000Z</time>
      </trkpt>
      <trkpt lat="43.02728" lon="0.04573">
        <ele>1294</ele>
        <time>2021-08-10T07:21:55.000Z</time>
      </trkpt>
      <trkpt lat="43.02726" lon="0.04568">
        <ele>1294</ele>
        <time>2021-08-10T07:21:58.000Z</time>
      </trkpt>
      <trkpt lat="43.02724" lon="0.04562">
        <ele>1295</ele>
        <time>2021-08-10T07:22:1.000Z</time>
      </trkpt>
      <trkpt lat="43.02722" lon="0.04556">
        <ele>1296</ele>
        <time>2021-08-10T07:22:4.000Z</time>
      </trkpt>
      <trkpt lat="43.0272" lon="0.0455">
        <ele>1296</ele>
        <time>2021-08-10T07:22:8.000Z</time>
      </trkpt>
      <trkpt lat="43.02718" lon="0.04544">
        <ele>1297</ele>
        <time>2021-08-10T07:22:12.000Z</time>
      </trkpt>
      <trkpt lat="43.0271" lon="0.04536">
        <ele>1298</ele>
        <time>2021-08-10T07:22:16.000Z</time>
      </trkpt>
      <trkpt lat="43.02709" lon="0.04528">
        <ele>1298</ele>
        <time>2021-08-10T07:22:20.000Z</time>
      </trkpt>
      <trkpt lat="43.02706" lon="0.04521">
        <ele>1298</ele>
        <time>2021-08-10T07:22:24.000Z</time>
      </trkpt>
      <trkpt lat="43.027" lon="0.04518">
        <ele>1299</ele>
        <time>2021-08-10T07:22:28.000Z</time>
      </trkpt>
      <trkpt lat="43.02696" lon="0.04523">
        <ele>1300</ele>
        <time>2021-08-10T07:22:32.000Z</time>
      </trkpt>
      <trkpt lat="43.02697" lon="0.0453">
        <ele>1300</ele>
        <time>2021-08-10T07:22:36.000Z</time>
      </trkpt>
      <trkpt lat="43.02699" lon="0.04536">
        <ele>1301</ele>
        <time>2021-08-10T07:22:39.000Z</time>
      </trkpt>
      <trkpt lat="43.027" lon="0.04543">
        <ele>1301</ele>
        <time>2021-08-10T07:22:42.000Z</time>
      </trkpt>
      <trkpt lat="43.027" lon="0.04549">
        <ele>1302</ele>
        <time>2021-08-10T07:22:45.000Z</time>
      </trkpt>
      <trkpt lat="43.02699" lon="0.04556">
        <ele>1303</ele>
        <time>2021-08-10T07:22:48.000Z</time>
      </trkpt>
      <trkpt lat="43.02699" lon="0.04563">
        <ele>1303</ele>
        <time>2021-08-10T07:22:51.000Z</time>
      </trkpt>
      <trkpt lat="43.02699" lon="0.0457">
        <ele>1303</ele>
        <time>2021-08-10T07:22:54.000Z</time>
      </trkpt>
      <trkpt lat="43.02698" lon="0.04577">
        <ele>1303</ele>
        <time>2021-08-10T07:22:57.000Z</time>
      </trkpt>
      <trkpt lat="43.02697" lon="0.04585">
        <ele>1304</ele>
        <time>2021-08-10T07:23:0.000Z</time>
      </trkpt>
      <trkpt lat="43.02697" lon="0.04592">
        <ele>1304</ele>
        <time>2021-08-10T07:23:3.000Z</time>
      </trkpt>
      <trkpt lat="43.02696" lon="0.04598">
        <ele>1305</ele>
        <time>2021-08-10T07:23:6.000Z</time>
      </trkpt>
      <trkpt lat="43.02694" lon="0.04605">
        <ele>1306</ele>
        <time>2021-08-10T07:23:9.000Z</time>
      </trkpt>
      <trkpt lat="43.02693" lon="0.04613">
        <ele>1306</ele>
        <time>2021-08-10T07:23:13.000Z</time>
      </trkpt>
      <trkpt lat="43.02692" lon="0.04619">
        <ele>1307</ele>
        <time>2021-08-10T07:23:16.000Z</time>
      </trkpt>
      <trkpt lat="43.0269" lon="0.04626">
        <ele>1308</ele>
        <time>2021-08-10T07:23:19.000Z</time>
      </trkpt>
      <trkpt lat="43.02689" lon="0.04633">
        <ele>1308</ele>
        <time>2021-08-10T07:23:22.000Z</time>
      </trkpt>
      <trkpt lat="43.02688" lon="0.04639">
        <ele>1309</ele>
        <time>2021-08-10T07:23:25.000Z</time>
      </trkpt>
      <trkpt lat="43.02686" lon="0.04646">
        <ele>1309</ele>
        <time>2021-08-10T07:23:28.000Z</time>
      </trkpt>
      <trkpt lat="43.02685" lon="0.04653">
        <ele>1309</ele>
        <time>2021-08-10T07:23:31.000Z</time>
      </trkpt>
      <trkpt lat="43.02683" lon="0.04659">
        <ele>1310</ele>
        <time>2021-08-10T07:23:34.000Z</time>
      </trkpt>
      <trkpt lat="43.02682" lon="0.04665">
        <ele>1310</ele>
        <time>2021-08-10T07:23:37.000Z</time>
      </trkpt>
      <trkpt lat="43.02681" lon="0.04671">
        <ele>1311</ele>
        <time>2021-08-10T07:23:40.000Z</time>
      </trkpt>
      <trkpt lat="43.02679" lon="0.04676">
        <ele>1312</ele>
        <time>2021-08-10T07:23:43.000Z</time>
      </trkpt>
      <trkpt lat="43.0267" lon="0.04682">
        <ele>1313</ele>
        <time>2021-08-10T07:23:47.000Z</time>
      </trkpt>
      <trkpt lat="43.02666" lon="0.04686">
        <ele>1313</ele>
        <time>2021-08-10T07:23:50.000Z</time>
      </trkpt>
      <trkpt lat="43.02661" lon="0.0469">
        <ele>1314</ele>
        <time>2021-08-10T07:23:54.000Z</time>
      </trkpt>
      <trkpt lat="43.02657" lon="0.04689">
        <ele>1314</ele>
        <time>2021-08-10T07:23:57.000Z</time>
      </trkpt>
      <trkpt lat="43.02655" lon="0.04683">
        <ele>1315</ele>
        <time>2021-08-10T07:24:0.000Z</time>
      </trkpt>
      <trkpt lat="43.02657" lon="0.04677">
        <ele>1315</ele>
        <time>2021-08-10T07:24:3.000Z</time>
      </trkpt>
      <trkpt lat="43.02659" lon="0.04671">
        <ele>1316</ele>
        <time>2021-08-10T07:24:6.000Z</time>
      </trkpt>
      <trkpt lat="43.02661" lon="0.04665">
        <ele>1316</ele>
        <time>2021-08-10T07:24:9.000Z</time>
      </trkpt>
      <trkpt lat="43.02662" lon="0.04659">
        <ele>1317</ele>
        <time>2021-08-10T07:24:12.000Z</time>
      </trkpt>
      <trkpt lat="43.02662" lon="0.04652">
        <ele>1318</ele>
        <time>2021-08-10T07:24:15.000Z</time>
      </trkpt>
      <trkpt lat="43.0266" lon="0.04644">
        <ele>1318</ele>
        <time>2021-08-10T07:24:19.000Z</time>
      </trkpt>
      <trkpt lat="43.02659" lon="0.04637">
        <ele>1319</ele>
        <time>2021-08-10T07:24:22.000Z</time>
      </trkpt>
      <trkpt lat="43.02658" lon="0.04631">
        <ele>1319</ele>
        <time>2021-08-10T07:24:25.000Z</time>
      </trkpt>
      <trkpt lat="43.02657" lon="0.04624">
        <ele>1320</ele>
        <time>2021-08-10T07:24:27.000Z</time>
      </trkpt>
      <trkpt lat="43.02655" lon="0.04616">
        <ele>1320</ele>
        <time>2021-08-10T07:24:31.000Z</time>
      </trkpt>
      <trkpt lat="43.02655" lon="0.04609">
        <ele>1321</ele>
        <time>2021-08-10T07:24:34.000Z</time>
      </trkpt>
      <trkpt lat="43.02654" lon="0.04603">
        <ele>1322</ele>
        <time>2021-08-10T07:24:37.000Z</time>
      </trkpt>
      <trkpt lat="43.02652" lon="0.04596">
        <ele>1322</ele>
        <time>2021-08-10T07:24:40.000Z</time>
      </trkpt>
      <trkpt lat="43.02651" lon="0.04589">
        <ele>1323</ele>
        <time>2021-08-10T07:24:43.000Z</time>
      </trkpt>
      <trkpt lat="43.02651" lon="0.04583">
        <ele>1323</ele>
        <time>2021-08-10T07:24:46.000Z</time>
      </trkpt>
      <trkpt lat="43.02649" lon="0.04577">
        <ele>1324</ele>
        <time>2021-08-10T07:24:49.000Z</time>
      </trkpt>
      <trkpt lat="43.02648" lon="0.04569">
        <ele>1325</ele>
        <time>2021-08-10T07:24:53.000Z</time>
      </trkpt>
      <trkpt lat="43.02646" lon="0.04561">
        <ele>1326</ele>
        <time>2021-08-10T07:24:57.000Z</time>
      </trkpt>
      <trkpt lat="43.02645" lon="0.04554">
        <ele>1326</ele>
        <time>2021-08-10T07:25:1.000Z</time>
      </trkpt>
      <trkpt lat="43.02643" lon="0.04548">
        <ele>1327</ele>
        <time>2021-08-10T07:25:4.000Z</time>
      </trkpt>
      <trkpt lat="43.02641" lon="0.04542">
        <ele>1328</ele>
        <time>2021-08-10T07:25:8.000Z</time>
      </trkpt>
      <trkpt lat="43.0264" lon="0.04537">
        <ele>1328</ele>
        <time>2021-08-10T07:25:11.000Z</time>
      </trkpt>
      <trkpt lat="43.02632" lon="0.04533">
        <ele>1328</ele>
        <time>2021-08-10T07:25:15.000Z</time>
      </trkpt>
      <trkpt lat="43.02628" lon="0.04529">
        <ele>1329</ele>
        <time>2021-08-10T07:25:18.000Z</time>
      </trkpt>
      <trkpt lat="43.02623" lon="0.04525">
        <ele>1330</ele>
        <time>2021-08-10T07:25:22.000Z</time>
      </trkpt>
      <trkpt lat="43.02619" lon="0.04521">
        <ele>1331</ele>
        <time>2021-08-10T07:25:26.000Z</time>
      </trkpt>
      <trkpt lat="43.02615" lon="0.04519">
        <ele>1331</ele>
        <time>2021-08-10T07:25:29.000Z</time>
      </trkpt>
      <trkpt lat="43.0261" lon="0.04516">
        <ele>1332</ele>
        <time>2021-08-10T07:25:32.000Z</time>
      </trkpt>
      <trkpt lat="43.02605" lon="0.04514">
        <ele>1332</ele>
        <time>2021-08-10T07:25:35.000Z</time>
      </trkpt>
      <trkpt lat="43.02601" lon="0.04512">
        <ele>1333</ele>
        <time>2021-08-10T07:25:38.000Z</time>
      </trkpt>
      <trkpt lat="43.02596" lon="0.04514">
        <ele>1333</ele>
        <time>2021-08-10T07:25:41.000Z</time>
      </trkpt>
      <trkpt lat="43.02591" lon="0.04513">
        <ele>1334</ele>
        <time>2021-08-10T07:25:44.000Z</time>
      </trkpt>
      <trkpt lat="43.02585" lon="0.04511">
        <ele>1334</ele>
        <time>2021-08-10T07:25:48.000Z</time>
      </trkpt>
      <trkpt lat="43.02581" lon="0.04511">
        <ele>1334</ele>
        <time>2021-08-10T07:25:51.000Z</time>
      </trkpt>
      <trkpt lat="43.02575" lon="0.0451">
        <ele>1335</ele>
        <time>2021-08-10T07:25:55.000Z</time>
      </trkpt>
      <trkpt lat="43.02569" lon="0.04509">
        <ele>1335</ele>
        <time>2021-08-10T07:25:59.000Z</time>
      </trkpt>
      <trkpt lat="43.02564" lon="0.04507">
        <ele>1336</ele>
        <time>2021-08-10T07:26:3.000Z</time>
      </trkpt>
      <trkpt lat="43.02559" lon="0.04507">
        <ele>1337</ele>
        <time>2021-08-10T07:26:6.000Z</time>
      </trkpt>
      <trkpt lat="43.02554" lon="0.04507">
        <ele>1337</ele>
        <time>2021-08-10T07:26:10.000Z</time>
      </trkpt>
      <trkpt lat="43.02549" lon="0.04507">
        <ele>1338</ele>
        <time>2021-08-10T07:26:14.000Z</time>
      </trkpt>
      <trkpt lat="43.02543" lon="0.04507">
        <ele>1339</ele>
        <time>2021-08-10T07:26:18.000Z</time>
      </trkpt>
      <trkpt lat="43.02538" lon="0.04507">
        <ele>1340</ele>
        <time>2021-08-10T07:26:22.000Z</time>
      </trkpt>
      <trkpt lat="43.02533" lon="0.04506">
        <ele>1340</ele>
        <time>2021-08-10T07:26:26.000Z</time>
      </trkpt>
      <trkpt lat="43.02528" lon="0.04503">
        <ele>1340</ele>
        <time>2021-08-10T07:26:30.000Z</time>
      </trkpt>
      <trkpt lat="43.02523" lon="0.04498">
        <ele>1341</ele>
        <time>2021-08-10T07:26:34.000Z</time>
      </trkpt>
      <trkpt lat="43.0252" lon="0.04493">
        <ele>1342</ele>
        <time>2021-08-10T07:26:38.000Z</time>
      </trkpt>
      <trkpt lat="43.02518" lon="0.04486">
        <ele>1343</ele>
        <time>2021-08-10T07:26:42.000Z</time>
      </trkpt>
      <trkpt lat="43.02515" lon="0.0448">
        <ele>1343</ele>
        <time>2021-08-10T07:26:46.000Z</time>
      </trkpt>
      <trkpt lat="43.0251" lon="0.04479">
        <ele>1344</ele>
        <time>2021-08-10T07:26:50.000Z</time>
      </trkpt>
      <trkpt lat="43.02507" lon="0.04484">
        <ele>1345</ele>
        <time>2021-08-10T07:26:54.000Z</time>
      </trkpt>
      <trkpt lat="43.02508" lon="0.0449">
        <ele>1345</ele>
        <time>2021-08-10T07:26:58.000Z</time>
      </trkpt>
      <trkpt lat="43.02511" lon="0.04497">
        <ele>1346</ele>
        <time>2021-08-10T07:27:2.000Z</time>
      </trkpt>
      <trkpt lat="43.02514" lon="0.04504">
        <ele>1346</ele>
        <time>2021-08-10T07:27:6.000Z</time>
      </trkpt>
      <trkpt lat="43.02517" lon="0.04509">
        <ele>1346</ele>
        <time>2021-08-10T07:27:9.000Z</time>
      </trkpt>
      <trkpt lat="43.02521" lon="0.04515">
        <ele>1347</ele>
        <time>2021-08-10T07:27:13.000Z</time>
      </trkpt>
      <trkpt lat="43.02525" lon="0.04521">
        <ele>1347</ele>
        <time>2021-08-10T07:27:17.000Z</time>
      </trkpt>
      <trkpt lat="43.02528" lon="0.04525">
        <ele>1347</ele>
        <time>2021-08-10T07:27:20.000Z</time>
      </trkpt>
      <trkpt lat="43.02534" lon="0.04529">
        <ele>1348</ele>
        <time>2021-08-10T07:27:24.000Z</time>
      </trkpt>
      <trkpt lat="43.02537" lon="0.04533">
        <ele>1349</ele>
        <time>2021-08-10T07:27:27.000Z</time>
      </trkpt>
      <trkpt lat="43.0254" lon="0.04537">
        <ele>1349</ele>
        <time>2021-08-10T07:27:30.000Z</time>
      </trkpt>
      <trkpt lat="43.02544" lon="0.04541">
        <ele>1350</ele>
        <time>2021-08-10T07:27:33.000Z</time>
      </trkpt>
      <trkpt lat="43.02548" lon="0.04546">
        <ele>1350</ele>
        <time>2021-08-10T07:27:36.000Z</time>
      </trkpt>
      <trkpt lat="43.02552" lon="0.04551">
        <ele>1351</ele>
        <time>2021-08-10T07:27:40.000Z</time>
      </trkpt>
      <trkpt lat="43.02556" lon="0.04557">
        <ele>1352</ele>
        <time>2021-08-10T07:27:44.000Z</time>
      </trkpt>
      <trkpt lat="43.02559" lon="0.04562">
        <ele>1352</ele>
        <time>2021-08-10T07:27:47.000Z</time>
      </trkpt>
      <trkpt lat="43.02562" lon="0.04566">
        <ele>1352</ele>
        <time>2021-08-10T07:27:50.000Z</time>
      </trkpt>
      <trkpt lat="43.02564" lon="0.04573">
        <ele>1353</ele>
        <time>2021-08-10T07:27:54.000Z</time>
      </trkpt>
      <trkpt lat="43.02567" lon="0.04581">
        <ele>1353</ele>
        <time>2021-08-10T07:27:58.000Z</time>
      </trkpt>
      <trkpt lat="43.02567" lon="0.04589">
        <ele>1354</ele>
        <time>2021-08-10T07:28:2.000Z</time>
      </trkpt>
      <trkpt lat="43.02568" lon="0.04596">
        <ele>1354</ele>
        <time>2021-08-10T07:28:5.000Z</time>
      </trkpt>
      <trkpt lat="43.02568" lon="0.04604">
        <ele>1355</ele>
        <time>2021-08-10T07:28:9.000Z</time>
      </trkpt>
      <trkpt lat="43.02567" lon="0.04611">
        <ele>1356</ele>
        <time>2021-08-10T07:28:13.000Z</time>
      </trkpt>
      <trkpt lat="43.02564" lon="0.04619">
        <ele>1357</ele>
        <time>2021-08-10T07:28:17.000Z</time>
      </trkpt>
      <trkpt lat="43.02562" lon="0.04626">
        <ele>1357</ele>
        <time>2021-08-10T07:28:20.000Z</time>
      </trkpt>
      <trkpt lat="43.0256" lon="0.04634">
        <ele>1357</ele>
        <time>2021-08-10T07:28:23.000Z</time>
      </trkpt>
      <trkpt lat="43.02558" lon="0.04641">
        <ele>1358</ele>
        <time>2021-08-10T07:28:26.000Z</time>
      </trkpt>
      <trkpt lat="43.02555" lon="0.04648">
        <ele>1358</ele>
        <time>2021-08-10T07:28:29.000Z</time>
      </trkpt>
      <trkpt lat="43.02552" lon="0.04654">
        <ele>1358</ele>
        <time>2021-08-10T07:28:32.000Z</time>
      </trkpt>
      <trkpt lat="43.02549" lon="0.04661">
        <ele>1358</ele>
        <time>2021-08-10T07:28:35.000Z</time>
      </trkpt>
      <trkpt lat="43.02547" lon="0.04667">
        <ele>1359</ele>
        <time>2021-08-10T07:28:38.000Z</time>
      </trkpt>
      <trkpt lat="43.02544" lon="0.04672">
        <ele>1359</ele>
        <time>2021-08-10T07:28:41.000Z</time>
      </trkpt>
      <trkpt lat="43.02542" lon="0.04677">
        <ele>1360</ele>
        <time>2021-08-10T07:28:43.000Z</time>
      </trkpt>
      <trkpt lat="43.02538" lon="0.04684">
        <ele>1361</ele>
        <time>2021-08-10T07:28:47.000Z</time>
      </trkpt>
      <trkpt lat="43.02535" lon="0.04691">
        <ele>1362</ele>
        <time>2021-08-10T07:28:51.000Z</time>
      </trkpt>
      <trkpt lat="43.02531" lon="0.04698">
        <ele>1363</ele>
        <time>2021-08-10T07:28:55.000Z</time>
      </trkpt>
      <trkpt lat="43.02525" lon="0.047">
        <ele>1363</ele>
        <time>2021-08-10T07:28:58.000Z</time>
      </trkpt>
      <trkpt lat="43.0252" lon="0.04698">
        <ele>1364</ele>
        <time>2021-08-10T07:29:1.000Z</time>
      </trkpt>
      <trkpt lat="43.02518" lon="0.0469">
        <ele>1365</ele>
        <time>2021-08-10T07:29:5.000Z</time>
      </trkpt>
      <trkpt lat="43.0252" lon="0.04683">
        <ele>1365</ele>
        <time>2021-08-10T07:29:9.000Z</time>
      </trkpt>
      <trkpt lat="43.02523" lon="0.04676">
        <ele>1366</ele>
        <time>2021-08-10T07:29:13.000Z</time>
      </trkpt>
      <trkpt lat="43.02525" lon="0.04671">
        <ele>1366</ele>
        <time>2021-08-10T07:29:16.000Z</time>
      </trkpt>
      <trkpt lat="43.02527" lon="0.04664">
        <ele>1367</ele>
        <time>2021-08-10T07:29:19.000Z</time>
      </trkpt>
      <trkpt lat="43.02528" lon="0.04658">
        <ele>1368</ele>
        <time>2021-08-10T07:29:22.000Z</time>
      </trkpt>
      <trkpt lat="43.02528" lon="0.04652">
        <ele>1368</ele>
        <time>2021-08-10T07:29:25.000Z</time>
      </trkpt>
      <trkpt lat="43.02528" lon="0.04645">
        <ele>1369</ele>
        <time>2021-08-10T07:29:28.000Z</time>
      </trkpt>
      <trkpt lat="43.02528" lon="0.04637">
        <ele>1369</ele>
        <time>2021-08-10T07:29:32.000Z</time>
      </trkpt>
      <trkpt lat="43.02527" lon="0.04631">
        <ele>1370</ele>
        <time>2021-08-10T07:29:35.000Z</time>
      </trkpt>
      <trkpt lat="43.02525" lon="0.04624">
        <ele>1370</ele>
        <time>2021-08-10T07:29:39.000Z</time>
      </trkpt>
      <trkpt lat="43.02522" lon="0.04617">
        <ele>1371</ele>
        <time>2021-08-10T07:29:43.000Z</time>
      </trkpt>
      <trkpt lat="43.0252" lon="0.04611">
        <ele>1371</ele>
        <time>2021-08-10T07:29:46.000Z</time>
      </trkpt>
      <trkpt lat="43.02517" lon="0.04604">
        <ele>1371</ele>
        <time>2021-08-10T07:29:50.000Z</time>
      </trkpt>
      <trkpt lat="43.02515" lon="0.04597">
        <ele>1372</ele>
        <time>2021-08-10T07:29:54.000Z</time>
      </trkpt>
      <trkpt lat="43.02511" lon="0.04594">
        <ele>1373</ele>
        <time>2021-08-10T07:29:58.000Z</time>
      </trkpt>
      <trkpt lat="43.02507" lon="0.04599">
        <ele>1374</ele>
        <time>2021-08-10T07:30:3.000Z</time>
      </trkpt>
      <trkpt lat="43.02507" lon="0.04605">
        <ele>1374</ele>
        <time>2021-08-10T07:30:7.000Z</time>
      </trkpt>
      <trkpt lat="43.02508" lon="0.04611">
        <ele>1375</ele>
        <time>2021-08-10T07:30:10.000Z</time>
      </trkpt>
      <trkpt lat="43.0251" lon="0.04617">
        <ele>1375</ele>
        <time>2021-08-10T07:30:13.000Z</time>
      </trkpt>
      <trkpt lat="43.02511" lon="0.04625">
        <ele>1376</ele>
        <time>2021-08-10T07:30:16.000Z</time>
      </trkpt>
      <trkpt lat="43.02512" lon="0.04632">
        <ele>1376</ele>
        <time>2021-08-10T07:30:19.000Z</time>
      </trkpt>
      <trkpt lat="43.0251" lon="0.04638">
        <ele>1376</ele>
        <time>2021-08-10T07:30:22.000Z</time>
      </trkpt>
      <trkpt lat="43.02508" lon="0.04644">
        <ele>1376</ele>
        <time>2021-08-10T07:30:25.000Z</time>
      </trkpt>
      <trkpt lat="43.02507" lon="0.04651">
        <ele>1377</ele>
        <time>2021-08-10T07:30:28.000Z</time>
      </trkpt>
      <trkpt lat="43.02504" lon="0.04656">
        <ele>1377</ele>
        <time>2021-08-10T07:30:31.000Z</time>
      </trkpt>
      <trkpt lat="43.02502" lon="0.04662">
        <ele>1378</ele>
        <time>2021-08-10T07:30:34.000Z</time>
      </trkpt>
      <trkpt lat="43.02501" lon="0.04668">
        <ele>1378</ele>
        <time>2021-08-10T07:30:37.000Z</time>
      </trkpt>
      <trkpt lat="43.02498" lon="0.04673">
        <ele>1379</ele>
        <time>2021-08-10T07:30:40.000Z</time>
      </trkpt>
      <trkpt lat="43.02493" lon="0.04678">
        <ele>1380</ele>
        <time>2021-08-10T07:30:44.000Z</time>
      </trkpt>
      <trkpt lat="43.02488" lon="0.04676">
        <ele>1380</ele>
        <time>2021-08-10T07:30:48.000Z</time>
      </trkpt>
      <trkpt lat="43.02486" lon="0.04669">
        <ele>1381</ele>
        <time>2021-08-10T07:30:52.000Z</time>
      </trkpt>
      <trkpt lat="43.02489" lon="0.04664">
        <ele>1382</ele>
        <time>2021-08-10T07:30:56.000Z</time>
      </trkpt>
      <trkpt lat="43.02491" lon="0.04658">
        <ele>1383</ele>
        <time>2021-08-10T07:30:59.000Z</time>
      </trkpt>
      <trkpt lat="43.02492" lon="0.0465">
        <ele>1383</ele>
        <time>2021-08-10T07:31:3.000Z</time>
      </trkpt>
      <trkpt lat="43.02492" lon="0.04642">
        <ele>1383</ele>
        <time>2021-08-10T07:31:7.000Z</time>
      </trkpt>
      <trkpt lat="43.02491" lon="0.04635">
        <ele>1383</ele>
        <time>2021-08-10T07:31:10.000Z</time>
      </trkpt>
      <trkpt lat="43.0249" lon="0.04627">
        <ele>1384</ele>
        <time>2021-08-10T07:31:14.000Z</time>
      </trkpt>
      <trkpt lat="43.0249" lon="0.0462">
        <ele>1385</ele>
        <time>2021-08-10T07:31:18.000Z</time>
      </trkpt>
      <trkpt lat="43.02486" lon="0.04615">
        <ele>1386</ele>
        <time>2021-08-10T07:31:22.000Z</time>
      </trkpt>
      <trkpt lat="43.02482" lon="0.04617">
        <ele>1387</ele>
        <time>2021-08-10T07:31:26.000Z</time>
      </trkpt>
      <trkpt lat="43.02479" lon="0.04624">
        <ele>1388</ele>
        <time>2021-08-10T07:31:31.000Z</time>
      </trkpt>
      <trkpt lat="43.02478" lon="0.04631">
        <ele>1389</ele>
        <time>2021-08-10T07:31:36.000Z</time>
      </trkpt>
      <trkpt lat="43.02477" lon="0.04638">
        <ele>1390</ele>
        <time>2021-08-10T07:31:41.000Z</time>
      </trkpt>
      <trkpt lat="43.02475" lon="0.04645">
        <ele>1390</ele>
        <time>2021-08-10T07:31:46.000Z</time>
      </trkpt>
      <trkpt lat="43.02474" lon="0.04651">
        <ele>1391</ele>
        <time>2021-08-10T07:31:50.000Z</time>
      </trkpt>
      <trkpt lat="43.02472" lon="0.04657">
        <ele>1391</ele>
        <time>2021-08-10T07:31:54.000Z</time>
      </trkpt>
      <trkpt lat="43.0247" lon="0.04664">
        <ele>1392</ele>
        <time>2021-08-10T07:31:59.000Z</time>
      </trkpt>
      <trkpt lat="43.02467" lon="0.0467">
        <ele>1393</ele>
        <time>2021-08-10T07:32:4.000Z</time>
      </trkpt>
      <trkpt lat="43.02462" lon="0.0467">
        <ele>1394</ele>
        <time>2021-08-10T07:32:8.000Z</time>
      </trkpt>
      <trkpt lat="43.02458" lon="0.04665">
        <ele>1395</ele>
        <time>2021-08-10T07:32:13.000Z</time>
      </trkpt>
      <trkpt lat="43.02459" lon="0.04658">
        <ele>1396</ele>
        <time>2021-08-10T07:32:18.000Z</time>
      </trkpt>
      <trkpt lat="43.0246" lon="0.0465">
        <ele>1397</ele>
        <time>2021-08-10T07:32:23.000Z</time>
      </trkpt>
      <trkpt lat="43.02462" lon="0.04643">
        <ele>1397</ele>
        <time>2021-08-10T07:32:28.000Z</time>
      </trkpt>
      <trkpt lat="43.02462" lon="0.04636">
        <ele>1398</ele>
        <time>2021-08-10T07:32:33.000Z</time>
      </trkpt>
      <trkpt lat="43.02462" lon="0.04629">
        <ele>1398</ele>
        <time>2021-08-10T07:32:37.000Z</time>
      </trkpt>
      <trkpt lat="43.02461" lon="0.04623">
        <ele>1399</ele>
        <time>2021-08-10T07:32:41.000Z</time>
      </trkpt>
      <trkpt lat="43.0246" lon="0.04617">
        <ele>1400</ele>
        <time>2021-08-10T07:32:45.000Z</time>
      </trkpt>
      <trkpt lat="43.02459" lon="0.04609">
        <ele>1401</ele>
        <time>2021-08-10T07:32:50.000Z</time>
      </trkpt>
      <trkpt lat="43.02457" lon="0.04604">
        <ele>1401</ele>
        <time>2021-08-10T07:32:54.000Z</time>
      </trkpt>
      <trkpt lat="43.02454" lon="0.04598">
        <ele>1402</ele>
        <time>2021-08-10T07:32:58.000Z</time>
      </trkpt>
      <trkpt lat="43.0245" lon="0.04594">
        <ele>1403</ele>
        <time>2021-08-10T07:33:3.000Z</time>
      </trkpt>
      <trkpt lat="43.02446" lon="0.0459">
        <ele>1403</ele>
        <time>2021-08-10T07:33:7.000Z</time>
      </trkpt>
      <trkpt lat="43.02444" lon="0.04585">
        <ele>1404</ele>
        <time>2021-08-10T07:33:11.000Z</time>
      </trkpt>
      <trkpt lat="43.0244" lon="0.04579">
        <ele>1405</ele>
        <time>2021-08-10T07:33:15.000Z</time>
      </trkpt>
      <trkpt lat="43.02437" lon="0.04573">
        <ele>1405</ele>
        <time>2021-08-10T07:33:20.000Z</time>
      </trkpt>
      <trkpt lat="43.02436" lon="0.04566">
        <ele>1406</ele>
        <time>2021-08-10T07:33:25.000Z</time>
      </trkpt>
      <trkpt lat="43.02434" lon="0.0456">
        <ele>1407</ele>
        <time>2021-08-10T07:33:29.000Z</time>
      </trkpt>
      <trkpt lat="43.02431" lon="0.04554">
        <ele>1407</ele>
        <time>2021-08-10T07:33:33.000Z</time>
      </trkpt>
      <trkpt lat="43.02429" lon="0.04547">
        <ele>1408</ele>
        <time>2021-08-10T07:33:38.000Z</time>
      </trkpt>
      <trkpt lat="43.02426" lon="0.0454">
        <ele>1409</ele>
        <time>2021-08-10T07:33:43.000Z</time>
      </trkpt>
      <trkpt lat="43.02424" lon="0.04534">
        <ele>1410</ele>
        <time>2021-08-10T07:33:48.000Z</time>
      </trkpt>
      <trkpt lat="43.02419" lon="0.0453">
        <ele>1410</ele>
        <time>2021-08-10T07:33:53.000Z</time>
      </trkpt>
      <trkpt lat="43.02414" lon="0.04533">
        <ele>1411</ele>
        <time>2021-08-10T07:33:59.000Z</time>
      </trkpt>
      <trkpt lat="43.02413" lon="0.04539">
        <ele>1412</ele>
        <time>2021-08-10T07:34:4.000Z</time>
      </trkpt>
      <trkpt lat="43.02416" lon="0.04546">
        <ele>1412</ele>
        <time>2021-08-10T07:34:9.000Z</time>
      </trkpt>
      <trkpt lat="43.02419" lon="0.0455">
        <ele>1413</ele>
        <time>2021-08-10T07:34:13.000Z</time>
      </trkpt>
      <trkpt lat="43.02421" lon="0.04556">
        <ele>1414</ele>
        <time>2021-08-10T07:34:17.000Z</time>
      </trkpt>
      <trkpt lat="43.02423" lon="0.04563">
        <ele>1414</ele>
        <time>2021-08-10T07:34:21.000Z</time>
      </trkpt>
      <trkpt lat="43.02424" lon="0.04569">
        <ele>1415</ele>
        <time>2021-08-10T07:34:25.000Z</time>
      </trkpt>
      <trkpt lat="43.02424" lon="0.04576">
        <ele>1415</ele>
        <time>2021-08-10T07:34:29.000Z</time>
      </trkpt>
      <trkpt lat="43.02425" lon="0.04582">
        <ele>1415</ele>
        <time>2021-08-10T07:34:33.000Z</time>
      </trkpt>
      <trkpt lat="43.02425" lon="0.04588">
        <ele>1415</ele>
        <time>2021-08-10T07:34:37.000Z</time>
      </trkpt>
      <trkpt lat="43.02425" lon="0.04594">
        <ele>1416</ele>
        <time>2021-08-10T07:34:40.000Z</time>
      </trkpt>
      <trkpt lat="43.02423" lon="0.04602">
        <ele>1417</ele>
        <time>2021-08-10T07:34:44.000Z</time>
      </trkpt>
      <trkpt lat="43.02422" lon="0.04608">
        <ele>1417</ele>
        <time>2021-08-10T07:34:48.000Z</time>
      </trkpt>
      <trkpt lat="43.02422" lon="0.04615">
        <ele>1418</ele>
        <time>2021-08-10T07:34:52.000Z</time>
      </trkpt>
      <trkpt lat="43.0242" lon="0.04622">
        <ele>1418</ele>
        <time>2021-08-10T07:34:56.000Z</time>
      </trkpt>
      <trkpt lat="43.02419" lon="0.04629">
        <ele>1419</ele>
        <time>2021-08-10T07:35:0.000Z</time>
      </trkpt>
      <trkpt lat="43.02419" lon="0.04636">
        <ele>1420</ele>
        <time>2021-08-10T07:35:4.000Z</time>
      </trkpt>
      <trkpt lat="43.02417" lon="0.04642">
        <ele>1420</ele>
        <time>2021-08-10T07:35:8.000Z</time>
      </trkpt>
      <trkpt lat="43.02416" lon="0.04649">
        <ele>1421</ele>
        <time>2021-08-10T07:35:12.000Z</time>
      </trkpt>
      <trkpt lat="43.02412" lon="0.04653">
        <ele>1421</ele>
        <time>2021-08-10T07:35:16.000Z</time>
      </trkpt>
      <trkpt lat="43.02407" lon="0.04652">
        <ele>1421</ele>
        <time>2021-08-10T07:35:20.000Z</time>
      </trkpt>
      <trkpt lat="43.02404" lon="0.04647">
        <ele>1422</ele>
        <time>2021-08-10T07:35:24.000Z</time>
      </trkpt>
      <trkpt lat="43.02405" lon="0.0464">
        <ele>1423</ele>
        <time>2021-08-10T07:35:28.000Z</time>
      </trkpt>
      <trkpt lat="43.02406" lon="0.04634">
        <ele>1424</ele>
        <time>2021-08-10T07:35:32.000Z</time>
      </trkpt>
      <trkpt lat="43.02405" lon="0.04627">
        <ele>1425</ele>
        <time>2021-08-10T07:35:36.000Z</time>
      </trkpt>
      <trkpt lat="43.02404" lon="0.0462">
        <ele>1426</ele>
        <time>2021-08-10T07:35:40.000Z</time>
      </trkpt>
      <trkpt lat="43.02402" lon="0.04614">
        <ele>1426</ele>
        <time>2021-08-10T07:35:44.000Z</time>
      </trkpt>
      <trkpt lat="43.02401" lon="0.04607">
        <ele>1426</ele>
        <time>2021-08-10T07:35:48.000Z</time>
      </trkpt>
      <trkpt lat="43.024" lon="0.04599">
        <ele>1428</ele>
        <time>2021-08-10T07:35:53.000Z</time>
      </trkpt>
      <trkpt lat="43.02398" lon="0.04593">
        <ele>1428</ele>
        <time>2021-08-10T07:35:57.000Z</time>
      </trkpt>
      <trkpt lat="43.02396" lon="0.04586">
        <ele>1429</ele>
        <time>2021-08-10T07:36:2.000Z</time>
      </trkpt>
      <trkpt lat="43.02393" lon="0.0458">
        <ele>1430</ele>
        <time>2021-08-10T07:36:7.000Z</time>
      </trkpt>
      <trkpt lat="43.02388" lon="0.04583">
        <ele>1431</ele>
        <time>2021-08-10T07:36:12.000Z</time>
      </trkpt>
      <trkpt lat="43.02388" lon="0.04591">
        <ele>1432</ele>
        <time>2021-08-10T07:36:18.000Z</time>
      </trkpt>
      <trkpt lat="43.02389" lon="0.04598">
        <ele>1433</ele>
        <time>2021-08-10T07:36:58.000Z</time>
      </trkpt>
      <trkpt lat="43.0239" lon="0.04605">
        <ele>1433</ele>
        <time>2021-08-10T07:37:3.000Z</time>
      </trkpt>
      <trkpt lat="43.02389" lon="0.04612">
        <ele>1435</ele>
        <time>2021-08-10T07:37:8.000Z</time>
      </trkpt>
      <trkpt lat="43.02388" lon="0.04618">
        <ele>1435</ele>
        <time>2021-08-10T07:37:12.000Z</time>
      </trkpt>
      <trkpt lat="43.02383" lon="0.04621">
        <ele>1435</ele>
        <time>2021-08-10T07:37:16.000Z</time>
      </trkpt>
      <trkpt lat="43.02379" lon="0.04618">
        <ele>1436</ele>
        <time>2021-08-10T07:37:20.000Z</time>
      </trkpt>
      <trkpt lat="43.02377" lon="0.04613">
        <ele>1437</ele>
        <time>2021-08-10T07:37:24.000Z</time>
      </trkpt>
      <trkpt lat="43.02375" lon="0.04607">
        <ele>1437</ele>
        <time>2021-08-10T07:37:28.000Z</time>
      </trkpt>
      <trkpt lat="43.02375" lon="0.046">
        <ele>1438</ele>
        <time>2021-08-10T07:37:32.000Z</time>
      </trkpt>
      <trkpt lat="43.02374" lon="0.04593">
        <ele>1439</ele>
        <time>2021-08-10T07:37:36.000Z</time>
      </trkpt>
      <trkpt lat="43.02373" lon="0.04587">
        <ele>1440</ele>
        <time>2021-08-10T07:37:40.000Z</time>
      </trkpt>
      <trkpt lat="43.02371" lon="0.04581">
        <ele>1440</ele>
        <time>2021-08-10T07:37:43.000Z</time>
      </trkpt>
      <trkpt lat="43.02368" lon="0.04576">
        <ele>1441</ele>
        <time>2021-08-10T07:37:46.000Z</time>
      </trkpt>
      <trkpt lat="43.02365" lon="0.04569">
        <ele>1442</ele>
        <time>2021-08-10T07:37:50.000Z</time>
      </trkpt>
      <trkpt lat="43.02362" lon="0.04564">
        <ele>1443</ele>
        <time>2021-08-10T07:37:54.000Z</time>
      </trkpt>
      <trkpt lat="43.02359" lon="0.04558">
        <ele>1444</ele>
        <time>2021-08-10T07:37:59.000Z</time>
      </trkpt>
      <trkpt lat="43.02354" lon="0.04554">
        <ele>1445</ele>
        <time>2021-08-10T07:38:3.000Z</time>
      </trkpt>
      <trkpt lat="43.02351" lon="0.04549">
        <ele>1445</ele>
        <time>2021-08-10T07:38:7.000Z</time>
      </trkpt>
      <trkpt lat="43.02348" lon="0.04542">
        <ele>1445</ele>
        <time>2021-08-10T07:38:12.000Z</time>
      </trkpt>
      <trkpt lat="43.02345" lon="0.04535">
        <ele>1447</ele>
        <time>2021-08-10T07:38:17.000Z</time>
      </trkpt>
      <trkpt lat="43.02343" lon="0.04529">
        <ele>1448</ele>
        <time>2021-08-10T07:38:22.000Z</time>
      </trkpt>
      <trkpt lat="43.02343" lon="0.04522">
        <ele>1449</ele>
        <time>2021-08-10T07:38:26.000Z</time>
      </trkpt>
      <trkpt lat="43.02342" lon="0.04516">
        <ele>1449</ele>
        <time>2021-08-10T07:38:30.000Z</time>
      </trkpt>
      <trkpt lat="43.02342" lon="0.04509">
        <ele>1450</ele>
        <time>2021-08-10T07:38:34.000Z</time>
      </trkpt>
      <trkpt lat="43.02342" lon="0.04502">
        <ele>1451</ele>
        <time>2021-08-10T07:38:38.000Z</time>
      </trkpt>
      <trkpt lat="43.02342" lon="0.04495">
        <ele>1451</ele>
        <time>2021-08-10T07:38:42.000Z</time>
      </trkpt>
      <trkpt lat="43.02342" lon="0.04488">
        <ele>1451</ele>
        <time>2021-08-10T07:38:47.000Z</time>
      </trkpt>
      <trkpt lat="43.02346" lon="0.04483">
        <ele>1451</ele>
        <time>2021-08-10T07:38:54.000Z</time>
      </trkpt>
      <trkpt lat="43.02311" lon="0.0448">
        <ele>1452</ele>
        <time>2021-08-10T07:40:55.000Z</time>
      </trkpt>
      <trkpt lat="43.02306" lon="0.04482">
        <ele>1452</ele>
        <time>2021-08-10T07:41:3.000Z</time>
      </trkpt>
      <trkpt lat="43.02301" lon="0.04485">
        <ele>1452</ele>
        <time>2021-08-10T07:41:7.000Z</time>
      </trkpt>
      <trkpt lat="43.02296" lon="0.04489">
        <ele>1457</ele>
        <time>2021-08-10T07:41:11.000Z</time>
      </trkpt>
      <trkpt lat="43.02292" lon="0.04493">
        <ele>1457</ele>
        <time>2021-08-10T07:41:15.000Z</time>
      </trkpt>
      <trkpt lat="43.02287" lon="0.04496">
        <ele>1457</ele>
        <time>2021-08-10T07:41:19.000Z</time>
      </trkpt>
      <trkpt lat="43.02282" lon="0.04498">
        <ele>1457</ele>
        <time>2021-08-10T07:41:23.000Z</time>
      </trkpt>
      <trkpt lat="43.02278" lon="0.04501">
        <ele>1457</ele>
        <time>2021-08-10T07:41:27.000Z</time>
      </trkpt>
      <trkpt lat="43.02273" lon="0.04503">
        <ele>1458</ele>
        <time>2021-08-10T07:41:30.000Z</time>
      </trkpt>
      <trkpt lat="43.02269" lon="0.04505">
        <ele>1458</ele>
        <time>2021-08-10T07:41:34.000Z</time>
      </trkpt>
      <trkpt lat="43.02263" lon="0.04507">
        <ele>1459</ele>
        <time>2021-08-10T07:41:38.000Z</time>
      </trkpt>
      <trkpt lat="43.02258" lon="0.04508">
        <ele>1460</ele>
        <time>2021-08-10T07:41:42.000Z</time>
      </trkpt>
      <trkpt lat="43.02253" lon="0.0451">
        <ele>1461</ele>
        <time>2021-08-10T07:41:47.000Z</time>
      </trkpt>
      <trkpt lat="43.02248" lon="0.04511">
        <ele>1461</ele>
        <time>2021-08-10T07:41:51.000Z</time>
      </trkpt>
      <trkpt lat="43.02243" lon="0.04512">
        <ele>1462</ele>
        <time>2021-08-10T07:41:55.000Z</time>
      </trkpt>
      <trkpt lat="43.02239" lon="0.04512">
        <ele>1462</ele>
        <time>2021-08-10T07:41:59.000Z</time>
      </trkpt>
      <trkpt lat="43.02234" lon="0.04513">
        <ele>1463</ele>
        <time>2021-08-10T07:42:3.000Z</time>
      </trkpt>
      <trkpt lat="43.02229" lon="0.04514">
        <ele>1463</ele>
        <time>2021-08-10T07:42:7.000Z</time>
      </trkpt>
      <trkpt lat="43.02224" lon="0.04515">
        <ele>1464</ele>
        <time>2021-08-10T07:42:11.000Z</time>
      </trkpt>
      <trkpt lat="43.0222" lon="0.04516">
        <ele>1465</ele>
        <time>2021-08-10T07:42:15.000Z</time>
      </trkpt>
      <trkpt lat="43.02215" lon="0.04521">
        <ele>1465</ele>
        <time>2021-08-10T07:42:19.000Z</time>
      </trkpt>
      <trkpt lat="43.02211" lon="0.04523">
        <ele>1465</ele>
        <time>2021-08-10T07:42:23.000Z</time>
      </trkpt>
      <trkpt lat="43.02206" lon="0.04526">
        <ele>1466</ele>
        <time>2021-08-10T07:42:27.000Z</time>
      </trkpt>
      <trkpt lat="43.02202" lon="0.04529">
        <ele>1466</ele>
        <time>2021-08-10T07:42:31.000Z</time>
      </trkpt>
      <trkpt lat="43.02198" lon="0.04532">
        <ele>1467</ele>
        <time>2021-08-10T07:42:35.000Z</time>
      </trkpt>
      <trkpt lat="43.02194" lon="0.04537">
        <ele>1468</ele>
        <time>2021-08-10T07:42:40.000Z</time>
      </trkpt>
      <trkpt lat="43.0219" lon="0.04541">
        <ele>1469</ele>
        <time>2021-08-10T07:42:44.000Z</time>
      </trkpt>
      <trkpt lat="43.02187" lon="0.04545">
        <ele>1469</ele>
        <time>2021-08-10T07:42:48.000Z</time>
      </trkpt>
      <trkpt lat="43.02184" lon="0.04552">
        <ele>1469</ele>
        <time>2021-08-10T07:42:52.000Z</time>
      </trkpt>
      <trkpt lat="43.02182" lon="0.04559">
        <ele>1470</ele>
        <time>2021-08-10T07:42:56.000Z</time>
      </trkpt>
      <trkpt lat="43.02181" lon="0.04566">
        <ele>1470</ele>
        <time>2021-08-10T07:43:1.000Z</time>
      </trkpt>
      <trkpt lat="43.02178" lon="0.04572">
        <ele>1470</ele>
        <time>2021-08-10T07:43:5.000Z</time>
      </trkpt>
      <trkpt lat="43.02177" lon="0.04579">
        <ele>1471</ele>
        <time>2021-08-10T07:43:12.000Z</time>
      </trkpt>
      <trkpt lat="43.0216" lon="0.04673">
        <ele>1503.4</ele>
        <time>2021-08-10T07:43:19.735Z</time>
      </trkpt>
      <trkpt lat="43.02144" lon="0.04725">
        <ele>1490.7</ele>
        <time>2021-08-10T07:43:24.025Z</time>
      </trkpt>
      <trkpt lat="43.02071" lon="0.0481">
        <ele>1501.3</ele>
        <time>2021-08-10T07:43:33.722Z</time>
      </trkpt>
      <trkpt lat="43.02013" lon="0.04864">
        <ele>1522.9</ele>
        <time>2021-08-10T07:43:41.094Z</time>
      </trkpt>
      <trkpt lat="43.01924" lon="0.04908">
        <ele>1550.5</ele>
        <time>2021-08-10T07:43:51.020Z</time>
      </trkpt>
      <trkpt lat="43.01834" lon="0.0493">
        <ele>1561.6</ele>
        <time>2021-08-10T07:44:0.250Z</time>
      </trkpt>
      <trkpt lat="43.01783" lon="0.04954">
        <ele>1568.6</ele>
        <time>2021-08-10T07:44:5.709Z</time>
      </trkpt>
      <trkpt lat="43.01708" lon="0.04937">
        <ele>1562.8</ele>
        <time>2021-08-10T07:44:13.369Z</time>
      </trkpt>
      <trkpt lat="43.01643" lon="0.04916">
        <ele>1558.5</ele>
        <time>2021-08-10T07:44:20.181Z</time>
      </trkpt>
      <trkpt lat="43.01553" lon="0.04887">
        <ele>1563.5</ele>
        <time>2021-08-10T07:44:29.479Z</time>
      </trkpt>
      <trkpt lat="43.01513" lon="0.0487">
        <ele>1565.6</ele>
        <time>2021-08-10T07:44:33.668Z</time>
      </trkpt>
      <trkpt lat="43.01446" lon="0.04851">
        <ele>1540</ele>
        <time>2021-08-10T07:44:41.000Z</time>
      </trkpt>
      <trkpt lat="43.0145" lon="0.04846">
        <ele>1540</ele>
        <time>2021-08-10T07:44:46.000Z</time>
      </trkpt>
      <trkpt lat="43.01453" lon="0.04852">
        <ele>1540</ele>
        <time>2021-08-10T07:44:55.000Z</time>
      </trkpt>
      <trkpt lat="43.01454" lon="0.04858">
        <ele>1543</ele>
        <time>2021-08-10T07:45:3.000Z</time>
      </trkpt>
      <trkpt lat="43.01454" lon="0.04866">
        <ele>1543</ele>
        <time>2021-08-10T07:45:8.000Z</time>
      </trkpt>
      <trkpt lat="43.01455" lon="0.04873">
        <ele>1543</ele>
        <time>2021-08-10T07:45:14.000Z</time>
      </trkpt>
      <trkpt lat="43.01456" lon="0.0488">
        <ele>1544</ele>
        <time>2021-08-10T07:45:20.000Z</time>
      </trkpt>
      <trkpt lat="43.01457" lon="0.04887">
        <ele>1544</ele>
        <time>2021-08-10T07:45:23.000Z</time>
      </trkpt>
      <trkpt lat="43.01457" lon="0.04895">
        <ele>1544</ele>
        <time>2021-08-10T07:45:26.000Z</time>
      </trkpt>
      <trkpt lat="43.01458" lon="0.04901">
        <ele>1544</ele>
        <time>2021-08-10T07:45:28.000Z</time>
      </trkpt>
      <trkpt lat="43.01458" lon="0.04909">
        <ele>1544</ele>
        <time>2021-08-10T07:45:31.000Z</time>
      </trkpt>
      <trkpt lat="43.0146" lon="0.04917">
        <ele>1544</ele>
        <time>2021-08-10T07:45:34.000Z</time>
      </trkpt>
      <trkpt lat="43.01461" lon="0.04925">
        <ele>1545</ele>
        <time>2021-08-10T07:45:38.000Z</time>
      </trkpt>
      <trkpt lat="43.0146" lon="0.04933">
        <ele>1545</ele>
        <time>2021-08-10T07:45:42.000Z</time>
      </trkpt>
      <trkpt lat="43.01458" lon="0.04941">
        <ele>1546</ele>
        <time>2021-08-10T07:45:46.000Z</time>
      </trkpt>
      <trkpt lat="43.01458" lon="0.04948">
        <ele>1546</ele>
        <time>2021-08-10T07:45:50.000Z</time>
      </trkpt>
      <trkpt lat="43.0146" lon="0.04955">
        <ele>1546</ele>
        <time>2021-08-10T07:45:54.000Z</time>
      </trkpt>
      <trkpt lat="43.01461" lon="0.04962">
        <ele>1546</ele>
        <time>2021-08-10T07:45:57.000Z</time>
      </trkpt>
      <trkpt lat="43.01462" lon="0.04969">
        <ele>1546</ele>
        <time>2021-08-10T07:46:0.000Z</time>
      </trkpt>
      <trkpt lat="43.01463" lon="0.04975">
        <ele>1546</ele>
        <time>2021-08-10T07:46:3.000Z</time>
      </trkpt>
      <trkpt lat="43.01465" lon="0.04981">
        <ele>1547</ele>
        <time>2021-08-10T07:46:9.000Z</time>
      </trkpt>
      <trkpt lat="43.01465" lon="0.04987">
        <ele>1547</ele>
        <time>2021-08-10T07:46:15.000Z</time>
      </trkpt>
      <trkpt lat="43.01465" lon="0.04994">
        <ele>1548</ele>
        <time>2021-08-10T07:46:19.000Z</time>
      </trkpt>
      <trkpt lat="43.01465" lon="0.05">
        <ele>1548</ele>
        <time>2021-08-10T07:46:22.000Z</time>
      </trkpt>
      <trkpt lat="43.01465" lon="0.05007">
        <ele>1548</ele>
        <time>2021-08-10T07:46:25.000Z</time>
      </trkpt>
      <trkpt lat="43.01465" lon="0.05014">
        <ele>1548</ele>
        <time>2021-08-10T07:46:28.000Z</time>
      </trkpt>
      <trkpt lat="43.01464" lon="0.0502">
        <ele>1548</ele>
        <time>2021-08-10T07:46:31.000Z</time>
      </trkpt>
      <trkpt lat="43.01463" lon="0.05029">
        <ele>1548</ele>
        <time>2021-08-10T07:46:34.000Z</time>
      </trkpt>
      <trkpt lat="43.01463" lon="0.05036">
        <ele>1548</ele>
        <time>2021-08-10T07:46:38.000Z</time>
      </trkpt>
      <trkpt lat="43.01461" lon="0.05043">
        <ele>1548</ele>
        <time>2021-08-10T07:46:43.000Z</time>
      </trkpt>
      <trkpt lat="43.01459" lon="0.05052">
        <ele>1549</ele>
        <time>2021-08-10T07:46:47.000Z</time>
      </trkpt>
      <trkpt lat="43.01457" lon="0.05059">
        <ele>1549</ele>
        <time>2021-08-10T07:46:51.000Z</time>
      </trkpt>
      <trkpt lat="43.01454" lon="0.05065">
        <ele>1549</ele>
        <time>2021-08-10T07:46:54.000Z</time>
      </trkpt>
      <trkpt lat="43.01451" lon="0.05072">
        <ele>1549</ele>
        <time>2021-08-10T07:46:57.000Z</time>
      </trkpt>
      <trkpt lat="43.01447" lon="0.05079">
        <ele>1549</ele>
        <time>2021-08-10T07:47:0.000Z</time>
      </trkpt>
      <trkpt lat="43.01445" lon="0.05085">
        <ele>1550</ele>
        <time>2021-08-10T07:47:3.000Z</time>
      </trkpt>
      <trkpt lat="43.01441" lon="0.05091">
        <ele>1550</ele>
        <time>2021-08-10T07:47:6.000Z</time>
      </trkpt>
      <trkpt lat="43.01437" lon="0.05096">
        <ele>1550</ele>
        <time>2021-08-10T07:47:9.000Z</time>
      </trkpt>
      <trkpt lat="43.01433" lon="0.05102">
        <ele>1550</ele>
        <time>2021-08-10T07:47:12.000Z</time>
      </trkpt>
      <trkpt lat="43.01429" lon="0.05109">
        <ele>1550</ele>
        <time>2021-08-10T07:47:15.000Z</time>
      </trkpt>
      <trkpt lat="43.01424" lon="0.05116">
        <ele>1550</ele>
        <time>2021-08-10T07:47:18.000Z</time>
      </trkpt>
      <trkpt lat="43.01421" lon="0.05121">
        <ele>1550</ele>
        <time>2021-08-10T07:47:20.000Z</time>
      </trkpt>
      <trkpt lat="43.01418" lon="0.05128">
        <ele>1550</ele>
        <time>2021-08-10T07:47:23.000Z</time>
      </trkpt>
      <trkpt lat="43.01415" lon="0.05134">
        <ele>1550</ele>
        <time>2021-08-10T07:47:25.000Z</time>
      </trkpt>
      <trkpt lat="43.01411" lon="0.0514">
        <ele>1550</ele>
        <time>2021-08-10T07:47:27.000Z</time>
      </trkpt>
      <trkpt lat="43.01406" lon="0.0515">
        <ele>1550</ele>
        <time>2021-08-10T07:47:29.000Z</time>
      </trkpt>
      <trkpt lat="43.01401" lon="0.05158">
        <ele>1550</ele>
        <time>2021-08-10T07:47:31.000Z</time>
      </trkpt>
      <trkpt lat="43.01398" lon="0.05165">
        <ele>1550</ele>
        <time>2021-08-10T07:47:33.000Z</time>
      </trkpt>
      <trkpt lat="43.01394" lon="0.05172">
        <ele>1550</ele>
        <time>2021-08-10T07:47:35.000Z</time>
      </trkpt>
      <trkpt lat="43.01391" lon="0.0518">
        <ele>1549</ele>
        <time>2021-08-10T07:47:37.000Z</time>
      </trkpt>
      <trkpt lat="43.01387" lon="0.05189">
        <ele>1549</ele>
        <time>2021-08-10T07:47:39.000Z</time>
      </trkpt>
      <trkpt lat="43.01384" lon="0.05199">
        <ele>1549</ele>
        <time>2021-08-10T07:47:41.000Z</time>
      </trkpt>
      <trkpt lat="43.01382" lon="0.05205">
        <ele>1548</ele>
        <time>2021-08-10T07:47:42.000Z</time>
      </trkpt>
      <trkpt lat="43.01379" lon="0.05214">
        <ele>1548</ele>
        <time>2021-08-10T07:47:44.000Z</time>
      </trkpt>
      <trkpt lat="43.01376" lon="0.05219">
        <ele>1548</ele>
        <time>2021-08-10T07:47:45.000Z</time>
      </trkpt>
      <trkpt lat="43.01373" lon="0.05229">
        <ele>1547</ele>
        <time>2021-08-10T07:47:47.000Z</time>
      </trkpt>
      <trkpt lat="43.0137" lon="0.05237">
        <ele>1547</ele>
        <time>2021-08-10T07:47:49.000Z</time>
      </trkpt>
      <trkpt lat="43.01368" lon="0.05244">
        <ele>1547</ele>
        <time>2021-08-10T07:47:51.000Z</time>
      </trkpt>
      <trkpt lat="43.01365" lon="0.0525">
        <ele>1547</ele>
        <time>2021-08-10T07:47:53.000Z</time>
      </trkpt>
      <trkpt lat="43.01362" lon="0.05259">
        <ele>1547</ele>
        <time>2021-08-10T07:47:55.000Z</time>
      </trkpt>
      <trkpt lat="43.01359" lon="0.05267">
        <ele>1546</ele>
        <time>2021-08-10T07:47:57.000Z</time>
      </trkpt>
      <trkpt lat="43.01355" lon="0.05275">
        <ele>1546</ele>
        <time>2021-08-10T07:47:59.000Z</time>
      </trkpt>
      <trkpt lat="43.01354" lon="0.05281">
        <ele>1546</ele>
        <time>2021-08-10T07:48:1.000Z</time>
      </trkpt>
      <trkpt lat="43.01351" lon="0.05287">
        <ele>1546</ele>
        <time>2021-08-10T07:48:3.000Z</time>
      </trkpt>
      <trkpt lat="43.01348" lon="0.05294">
        <ele>1546</ele>
        <time>2021-08-10T07:48:5.000Z</time>
      </trkpt>
      <trkpt lat="43.01346" lon="0.053">
        <ele>1546</ele>
        <time>2021-08-10T07:48:7.000Z</time>
      </trkpt>
      <trkpt lat="43.01343" lon="0.05306">
        <ele>1546</ele>
        <time>2021-08-10T07:48:9.000Z</time>
      </trkpt>
      <trkpt lat="43.0134" lon="0.05314">
        <ele>1546</ele>
        <time>2021-08-10T07:48:12.000Z</time>
      </trkpt>
      <trkpt lat="43.01337" lon="0.0532">
        <ele>1546</ele>
        <time>2021-08-10T07:48:14.000Z</time>
      </trkpt>
      <trkpt lat="43.01335" lon="0.05328">
        <ele>1546</ele>
        <time>2021-08-10T07:48:16.000Z</time>
      </trkpt>
      <trkpt lat="43.01333" lon="0.05336">
        <ele>1546</ele>
        <time>2021-08-10T07:48:18.000Z</time>
      </trkpt>
      <trkpt lat="43.0133" lon="0.05343">
        <ele>1545</ele>
        <time>2021-08-10T07:48:20.000Z</time>
      </trkpt>
      <trkpt lat="43.01326" lon="0.05354">
        <ele>1545</ele>
        <time>2021-08-10T07:48:22.000Z</time>
      </trkpt>
      <trkpt lat="43.01324" lon="0.05364">
        <ele>1545</ele>
        <time>2021-08-10T07:48:24.000Z</time>
      </trkpt>
      <trkpt lat="43.01321" lon="0.05373">
        <ele>1545</ele>
        <time>2021-08-10T07:48:26.000Z</time>
      </trkpt>
      <trkpt lat="43.01319" lon="0.05382">
        <ele>1545</ele>
        <time>2021-08-10T07:48:28.000Z</time>
      </trkpt>
      <trkpt lat="43.01318" lon="0.05388">
        <ele>1545</ele>
        <time>2021-08-10T07:48:29.000Z</time>
      </trkpt>
      <trkpt lat="43.01316" lon="0.054">
        <ele>1544</ele>
        <time>2021-08-10T07:48:31.000Z</time>
      </trkpt>
      <trkpt lat="43.01313" lon="0.05411">
        <ele>1544</ele>
        <time>2021-08-10T07:48:33.000Z</time>
      </trkpt>
      <trkpt lat="43.01311" lon="0.05421">
        <ele>1544</ele>
        <time>2021-08-10T07:48:35.000Z</time>
      </trkpt>
      <trkpt lat="43.0131" lon="0.05428">
        <ele>1544</ele>
        <time>2021-08-10T07:48:37.000Z</time>
      </trkpt>
      <trkpt lat="43.0131" lon="0.05437">
        <ele>1544</ele>
        <time>2021-08-10T07:48:39.000Z</time>
      </trkpt>
      <trkpt lat="43.01308" lon="0.05448">
        <ele>1543</ele>
        <time>2021-08-10T07:48:41.000Z</time>
      </trkpt>
      <trkpt lat="43.01308" lon="0.05457">
        <ele>1543</ele>
        <time>2021-08-10T07:48:43.000Z</time>
      </trkpt>
      <trkpt lat="43.01309" lon="0.05464">
        <ele>1543</ele>
        <time>2021-08-10T07:48:45.000Z</time>
      </trkpt>
      <trkpt lat="43.0131" lon="0.05471">
        <ele>1543</ele>
        <time>2021-08-10T07:48:49.000Z</time>
      </trkpt>
      <trkpt lat="43.01332" lon="0.05479">
        <ele>1543</ele>
        <time>2021-08-10T07:49:4.000Z</time>
      </trkpt>
      <trkpt lat="43.01333" lon="0.05485">
        <ele>1543</ele>
        <time>2021-08-10T07:49:7.000Z</time>
      </trkpt>
      <trkpt lat="43.01333" lon="0.05492">
        <ele>1543</ele>
        <time>2021-08-10T07:49:12.000Z</time>
      </trkpt>
      <trkpt lat="43.01333" lon="0.05499">
        <ele>1543</ele>
        <time>2021-08-10T07:49:18.000Z</time>
      </trkpt>
      <trkpt lat="43.01334" lon="0.05506">
        <ele>1543</ele>
        <time>2021-08-10T07:49:22.000Z</time>
      </trkpt>
      <trkpt lat="43.01333" lon="0.05514">
        <ele>1542</ele>
        <time>2021-08-10T07:49:25.000Z</time>
      </trkpt>
      <trkpt lat="43.01333" lon="0.05522">
        <ele>1542</ele>
        <time>2021-08-10T07:49:27.000Z</time>
      </trkpt>
      <trkpt lat="43.01333" lon="0.0553">
        <ele>1542</ele>
        <time>2021-08-10T07:49:29.000Z</time>
      </trkpt>
      <trkpt lat="43.01333" lon="0.05539">
        <ele>1541</ele>
        <time>2021-08-10T07:49:31.000Z</time>
      </trkpt>
      <trkpt lat="43.01333" lon="0.05547">
        <ele>1541</ele>
        <time>2021-08-10T07:49:33.000Z</time>
      </trkpt>
      <trkpt lat="43.01332" lon="0.05555">
        <ele>1541</ele>
        <time>2021-08-10T07:49:35.000Z</time>
      </trkpt>
      <trkpt lat="43.01331" lon="0.05562">
        <ele>1540</ele>
        <time>2021-08-10T07:49:37.000Z</time>
      </trkpt>
      <trkpt lat="43.0133" lon="0.05572">
        <ele>1540</ele>
        <time>2021-08-10T07:49:40.000Z</time>
      </trkpt>
      <trkpt lat="43.01329" lon="0.0558">
        <ele>1539</ele>
        <time>2021-08-10T07:49:42.000Z</time>
      </trkpt>
      <trkpt lat="43.01328" lon="0.05588">
        <ele>1539</ele>
        <time>2021-08-10T07:49:44.000Z</time>
      </trkpt>
      <trkpt lat="43.01326" lon="0.05596">
        <ele>1539</ele>
        <time>2021-08-10T07:49:46.000Z</time>
      </trkpt>
      <trkpt lat="43.01325" lon="0.05605">
        <ele>1539</ele>
        <time>2021-08-10T07:49:49.000Z</time>
      </trkpt>
      <trkpt lat="43.01325" lon="0.05613">
        <ele>1539</ele>
        <time>2021-08-10T07:49:52.000Z</time>
      </trkpt>
      <trkpt lat="43.01323" lon="0.05619">
        <ele>1539</ele>
        <time>2021-08-10T07:49:55.000Z</time>
      </trkpt>
      <trkpt lat="43.01317" lon="0.05625">
        <ele>1539</ele>
        <time>2021-08-10T07:49:58.000Z</time>
      </trkpt>
      <trkpt lat="43.01308" lon="0.05621">
        <ele>1539</ele>
        <time>2021-08-10T07:52:44.000Z</time>
      </trkpt>
      <trkpt lat="43.01304" lon="0.05622">
        <ele>1539</ele>
        <time>2021-08-10T07:52:51.000Z</time>
      </trkpt>
      <trkpt lat="43.01298" lon="0.05626">
        <ele>1539</ele>
        <time>2021-08-10T07:52:55.000Z</time>
      </trkpt>
      <trkpt lat="43.01293" lon="0.05626">
        <ele>1539</ele>
        <time>2021-08-10T07:52:57.000Z</time>
      </trkpt>
      <trkpt lat="43.01289" lon="0.05623">
        <ele>1539</ele>
        <time>2021-08-10T07:52:59.000Z</time>
      </trkpt>
      <trkpt lat="43.01283" lon="0.05619">
        <ele>1539</ele>
        <time>2021-08-10T07:53:2.000Z</time>
      </trkpt>
      <trkpt lat="43.01278" lon="0.05615">
        <ele>1537</ele>
        <time>2021-08-10T07:53:5.000Z</time>
      </trkpt>
      <trkpt lat="43.01273" lon="0.05613">
        <ele>1537</ele>
        <time>2021-08-10T07:53:9.000Z</time>
      </trkpt>
      <trkpt lat="43.01267" lon="0.05612">
        <ele>1538</ele>
        <time>2021-08-10T07:53:13.000Z</time>
      </trkpt>
      <trkpt lat="43.01261" lon="0.0561">
        <ele>1539</ele>
        <time>2021-08-10T07:53:17.000Z</time>
      </trkpt>
      <trkpt lat="43.01256" lon="0.05608">
        <ele>1540</ele>
        <time>2021-08-10T07:53:21.000Z</time>
      </trkpt>
      <trkpt lat="43.01251" lon="0.05606">
        <ele>1540</ele>
        <time>2021-08-10T07:53:25.000Z</time>
      </trkpt>
      <trkpt lat="43.01246" lon="0.05604">
        <ele>1541</ele>
        <time>2021-08-10T07:53:29.000Z</time>
      </trkpt>
      <trkpt lat="43.0124" lon="0.05602">
        <ele>1541</ele>
        <time>2021-08-10T07:53:33.000Z</time>
      </trkpt>
      <trkpt lat="43.01236" lon="0.056">
        <ele>1542</ele>
        <time>2021-08-10T07:53:37.000Z</time>
      </trkpt>
      <trkpt lat="43.01231" lon="0.05599">
        <ele>1542</ele>
        <time>2021-08-10T07:53:41.000Z</time>
      </trkpt>
      <trkpt lat="43.01226" lon="0.05597">
        <ele>1542</ele>
        <time>2021-08-10T07:53:45.000Z</time>
      </trkpt>
      <trkpt lat="43.01221" lon="0.05596">
        <ele>1543</ele>
        <time>2021-08-10T07:53:49.000Z</time>
      </trkpt>
      <trkpt lat="43.01217" lon="0.05593">
        <ele>1543</ele>
        <time>2021-08-10T07:53:53.000Z</time>
      </trkpt>
      <trkpt lat="43.01212" lon="0.05591">
        <ele>1544</ele>
        <time>2021-08-10T07:53:57.000Z</time>
      </trkpt>
      <trkpt lat="43.01208" lon="0.0559">
        <ele>1545</ele>
        <time>2021-08-10T07:54:1.000Z</time>
      </trkpt>
      <trkpt lat="43.01203" lon="0.0559">
        <ele>1545</ele>
        <time>2021-08-10T07:54:4.000Z</time>
      </trkpt>
      <trkpt lat="43.01198" lon="0.05589">
        <ele>1546</ele>
        <time>2021-08-10T07:54:8.000Z</time>
      </trkpt>
      <trkpt lat="43.01193" lon="0.05588">
        <ele>1547</ele>
        <time>2021-08-10T07:54:12.000Z</time>
      </trkpt>
      <trkpt lat="43.01189" lon="0.05586">
        <ele>1548</ele>
        <time>2021-08-10T07:54:16.000Z</time>
      </trkpt>
      <trkpt lat="43.01184" lon="0.05585">
        <ele>1549</ele>
        <time>2021-08-10T07:54:21.000Z</time>
      </trkpt>
      <trkpt lat="43.01178" lon="0.05584">
        <ele>1550</ele>
        <time>2021-08-10T07:54:27.000Z</time>
      </trkpt>
      <trkpt lat="43.01173" lon="0.05584">
        <ele>1551</ele>
        <time>2021-08-10T07:54:31.000Z</time>
      </trkpt>
      <trkpt lat="43.01168" lon="0.05586">
        <ele>1552</ele>
        <time>2021-08-10T07:54:36.000Z</time>
      </trkpt>
      <trkpt lat="43.01164" lon="0.05587">
        <ele>1552</ele>
        <time>2021-08-10T07:54:41.000Z</time>
      </trkpt>
      <trkpt lat="43.01159" lon="0.05588">
        <ele>1553</ele>
        <time>2021-08-10T07:56:14.000Z</time>
      </trkpt>
      <trkpt lat="43.01154" lon="0.0559">
        <ele>1553</ele>
        <time>2021-08-10T07:56:19.000Z</time>
      </trkpt>
      <trkpt lat="43.01149" lon="0.05591">
        <ele>1553</ele>
        <time>2021-08-10T07:56:24.000Z</time>
      </trkpt>
      <trkpt lat="43.01144" lon="0.05593">
        <ele>1553</ele>
        <time>2021-08-10T07:56:30.000Z</time>
      </trkpt>
      <trkpt lat="43.01139" lon="0.05596">
        <ele>1558</ele>
        <time>2021-08-10T07:56:37.000Z</time>
      </trkpt>
      <trkpt lat="43.01135" lon="0.05598">
        <ele>1558</ele>
        <time>2021-08-10T07:56:42.000Z</time>
      </trkpt>
      <trkpt lat="43.01129" lon="0.05599">
        <ele>1560</ele>
        <time>2021-08-10T07:56:56.000Z</time>
      </trkpt>
      <trkpt lat="43.01125" lon="0.05601">
        <ele>1561</ele>
        <time>2021-08-10T07:57:1.000Z</time>
      </trkpt>
      <trkpt lat="43.0112" lon="0.05603">
        <ele>1562</ele>
        <time>2021-08-10T07:57:7.000Z</time>
      </trkpt>
      <trkpt lat="43.01116" lon="0.05605">
        <ele>1563</ele>
        <time>2021-08-10T07:57:13.000Z</time>
      </trkpt>
      <trkpt lat="43.01111" lon="0.05607">
        <ele>1565</ele>
        <time>2021-08-10T07:57:19.000Z</time>
      </trkpt>
      <trkpt lat="43.01106" lon="0.05609">
        <ele>1566</ele>
        <time>2021-08-10T07:57:25.000Z</time>
      </trkpt>
      <trkpt lat="43.01102" lon="0.05612">
        <ele>1567</ele>
        <time>2021-08-10T07:57:32.000Z</time>
      </trkpt>
      <trkpt lat="43.01097" lon="0.05614">
        <ele>1568</ele>
        <time>2021-08-10T07:57:39.000Z</time>
      </trkpt>
      <trkpt lat="43.01093" lon="0.05617">
        <ele>1569</ele>
        <time>2021-08-10T07:57:45.000Z</time>
      </trkpt>
      <trkpt lat="43.01088" lon="0.0562">
        <ele>1570</ele>
        <time>2021-08-10T07:57:51.000Z</time>
      </trkpt>
      <trkpt lat="43.01083" lon="0.05622">
        <ele>1571</ele>
        <time>2021-08-10T07:57:57.000Z</time>
      </trkpt>
      <trkpt lat="43.01078" lon="0.05625">
        <ele>1572</ele>
        <time>2021-08-10T07:58:6.000Z</time>
      </trkpt>
      <trkpt lat="43.01072" lon="0.05625">
        <ele>1573</ele>
        <time>2021-08-10T07:58:11.000Z</time>
      </trkpt>
      <trkpt lat="43.01068" lon="0.05626">
        <ele>1573</ele>
        <time>2021-08-10T07:58:15.000Z</time>
      </trkpt>
      <trkpt lat="43.01063" lon="0.0563">
        <ele>1574</ele>
        <time>2021-08-10T07:58:20.000Z</time>
      </trkpt>
      <trkpt lat="43.01059" lon="0.05634">
        <ele>1575</ele>
        <time>2021-08-10T07:58:24.000Z</time>
      </trkpt>
      <trkpt lat="43.01056" lon="0.05638">
        <ele>1576</ele>
        <time>2021-08-10T07:58:27.000Z</time>
      </trkpt>
      <trkpt lat="43.01051" lon="0.05641">
        <ele>1577</ele>
        <time>2021-08-10T07:58:32.000Z</time>
      </trkpt>
      <trkpt lat="43.01048" lon="0.05647">
        <ele>1578</ele>
        <time>2021-08-10T07:58:37.000Z</time>
      </trkpt>
      <trkpt lat="43.01045" lon="0.05654">
        <ele>1578</ele>
        <time>2021-08-10T07:58:42.000Z</time>
      </trkpt>
      <trkpt lat="43.01043" lon="0.05659">
        <ele>1579</ele>
        <time>2021-08-10T07:58:47.000Z</time>
      </trkpt>
      <trkpt lat="43.01041" lon="0.05665">
        <ele>1580</ele>
        <time>2021-08-10T07:58:51.000Z</time>
      </trkpt>
      <trkpt lat="43.01039" lon="0.0567">
        <ele>1580</ele>
        <time>2021-08-10T07:58:55.000Z</time>
      </trkpt>
      <trkpt lat="43.01037" lon="0.05677">
        <ele>1580</ele>
        <time>2021-08-10T07:59:0.000Z</time>
      </trkpt>
      <trkpt lat="43.01034" lon="0.05683">
        <ele>1581</ele>
        <time>2021-08-10T07:59:4.000Z</time>
      </trkpt>
      <trkpt lat="43.01031" lon="0.05689">
        <ele>1581</ele>
        <time>2021-08-10T07:59:7.000Z</time>
      </trkpt>
      <trkpt lat="43.01028" lon="0.05694">
        <ele>1581</ele>
        <time>2021-08-10T07:59:10.000Z</time>
      </trkpt>
      <trkpt lat="43.01025" lon="0.057">
        <ele>1582</ele>
        <time>2021-08-10T07:59:13.000Z</time>
      </trkpt>
      <trkpt lat="43.01023" lon="0.05706">
        <ele>1582</ele>
        <time>2021-08-10T07:59:16.000Z</time>
      </trkpt>
      <trkpt lat="43.0102" lon="0.05712">
        <ele>1583</ele>
        <time>2021-08-10T07:59:19.000Z</time>
      </trkpt>
      <trkpt lat="43.01017" lon="0.05717">
        <ele>1583</ele>
        <time>2021-08-10T07:59:22.000Z</time>
      </trkpt>
      <trkpt lat="43.01014" lon="0.05722">
        <ele>1583</ele>
        <time>2021-08-10T07:59:25.000Z</time>
      </trkpt>
      <trkpt lat="43.01011" lon="0.05728">
        <ele>1584</ele>
        <time>2021-08-10T07:59:28.000Z</time>
      </trkpt>
      <trkpt lat="43.01008" lon="0.05734">
        <ele>1584</ele>
        <time>2021-08-10T07:59:31.000Z</time>
      </trkpt>
      <trkpt lat="43.01004" lon="0.0574">
        <ele>1584</ele>
        <time>2021-08-10T07:59:34.000Z</time>
      </trkpt>
      <trkpt lat="43.01001" lon="0.05747">
        <ele>1584</ele>
        <time>2021-08-10T07:59:37.000Z</time>
      </trkpt>
      <trkpt lat="43.00998" lon="0.05753">
        <ele>1584</ele>
        <time>2021-08-10T07:59:41.000Z</time>
      </trkpt>
      <trkpt lat="43.00995" lon="0.05757">
        <ele>1585</ele>
        <time>2021-08-10T08:01:6.000Z</time>
      </trkpt>
      <trkpt lat="43.00991" lon="0.05762">
        <ele>1585</ele>
        <time>2021-08-10T08:01:8.000Z</time>
      </trkpt>
      <trkpt lat="43.00988" lon="0.0577">
        <ele>1585</ele>
        <time>2021-08-10T08:01:11.000Z</time>
      </trkpt>
      <trkpt lat="43.00985" lon="0.05775">
        <ele>1585</ele>
        <time>2021-08-10T08:01:13.000Z</time>
      </trkpt>
      <trkpt lat="43.00982" lon="0.05781">
        <ele>1585</ele>
        <time>2021-08-10T08:01:15.000Z</time>
      </trkpt>
      <trkpt lat="43.00979" lon="0.05786">
        <ele>1585</ele>
        <time>2021-08-10T08:01:17.000Z</time>
      </trkpt>
      <trkpt lat="43.00976" lon="0.05794">
        <ele>1585</ele>
        <time>2021-08-10T08:01:19.000Z</time>
      </trkpt>
      <trkpt lat="43.00972" lon="0.058">
        <ele>1585</ele>
        <time>2021-08-10T08:01:21.000Z</time>
      </trkpt>
      <trkpt lat="43.00969" lon="0.05806">
        <ele>1587</ele>
        <time>2021-08-10T08:01:23.000Z</time>
      </trkpt>
      <trkpt lat="43.00966" lon="0.05812">
        <ele>1587</ele>
        <time>2021-08-10T08:01:25.000Z</time>
      </trkpt>
      <trkpt lat="43.00962" lon="0.05818">
        <ele>1587</ele>
        <time>2021-08-10T08:01:27.000Z</time>
      </trkpt>
      <trkpt lat="43.00958" lon="0.05825">
        <ele>1587</ele>
        <time>2021-08-10T08:01:29.000Z</time>
      </trkpt>
      <trkpt lat="43.00953" lon="0.05832">
        <ele>1587</ele>
        <time>2021-08-10T08:01:32.000Z</time>
      </trkpt>
      <trkpt lat="43.0095" lon="0.05838">
        <ele>1588</ele>
        <time>2021-08-10T08:01:34.000Z</time>
      </trkpt>
      <trkpt lat="43.00946" lon="0.05842">
        <ele>1588</ele>
        <time>2021-08-10T08:01:36.000Z</time>
      </trkpt>
      <trkpt lat="43.00942" lon="0.05848">
        <ele>1588</ele>
        <time>2021-08-10T08:01:38.000Z</time>
      </trkpt>
      <trkpt lat="43.00939" lon="0.05853">
        <ele>1588</ele>
        <time>2021-08-10T08:01:40.000Z</time>
      </trkpt>
      <trkpt lat="43.00936" lon="0.05858">
        <ele>1588</ele>
        <time>2021-08-10T08:01:42.000Z</time>
      </trkpt>
      <trkpt lat="43.00932" lon="0.05864">
        <ele>1588</ele>
        <time>2021-08-10T08:01:44.000Z</time>
      </trkpt>
      <trkpt lat="43.00928" lon="0.05869">
        <ele>1588</ele>
        <time>2021-08-10T08:01:46.000Z</time>
      </trkpt>
      <trkpt lat="43.00924" lon="0.05875">
        <ele>1589</ele>
        <time>2021-08-10T08:01:48.000Z</time>
      </trkpt>
      <trkpt lat="43.00921" lon="0.0588">
        <ele>1589</ele>
        <time>2021-08-10T08:01:50.000Z</time>
      </trkpt>
      <trkpt lat="43.00917" lon="0.05887">
        <ele>1590</ele>
        <time>2021-08-10T08:01:53.000Z</time>
      </trkpt>
      <trkpt lat="43.00913" lon="0.05893">
        <ele>1591</ele>
        <time>2021-08-10T08:01:56.000Z</time>
      </trkpt>
      <trkpt lat="43.00909" lon="0.05899">
        <ele>1592</ele>
        <time>2021-08-10T08:01:59.000Z</time>
      </trkpt>
      <trkpt lat="43.00903" lon="0.05905">
        <ele>1592</ele>
        <time>2021-08-10T08:02:2.000Z</time>
      </trkpt>
      <trkpt lat="43.00898" lon="0.05909">
        <ele>1592</ele>
        <time>2021-08-10T08:02:5.000Z</time>
      </trkpt>
      <trkpt lat="43.00893" lon="0.05913">
        <ele>1593</ele>
        <time>2021-08-10T08:02:8.000Z</time>
      </trkpt>
      <trkpt lat="43.00888" lon="0.05917">
        <ele>1593</ele>
        <time>2021-08-10T08:02:10.000Z</time>
      </trkpt>
      <trkpt lat="43.00885" lon="0.0592">
        <ele>1593</ele>
        <time>2021-08-10T08:02:12.000Z</time>
      </trkpt>
      <trkpt lat="43.00879" lon="0.05923">
        <ele>1594</ele>
        <time>2021-08-10T08:02:15.000Z</time>
      </trkpt>
      <trkpt lat="43.00874" lon="0.05926">
        <ele>1594</ele>
        <time>2021-08-10T08:02:18.000Z</time>
      </trkpt>
      <trkpt lat="43.00869" lon="0.05929">
        <ele>1594</ele>
        <time>2021-08-10T08:02:21.000Z</time>
      </trkpt>
      <trkpt lat="43.00864" lon="0.05931">
        <ele>1595</ele>
        <time>2021-08-10T08:02:23.000Z</time>
      </trkpt>
      <trkpt lat="43.00858" lon="0.05934">
        <ele>1595</ele>
        <time>2021-08-10T08:02:26.000Z</time>
      </trkpt>
      <trkpt lat="43.00853" lon="0.05935">
        <ele>1595</ele>
        <time>2021-08-10T08:02:28.000Z</time>
      </trkpt>
      <trkpt lat="43.00846" lon="0.05937">
        <ele>1595</ele>
        <time>2021-08-10T08:02:31.000Z</time>
      </trkpt>
      <trkpt lat="43.00839" lon="0.05937">
        <ele>1595</ele>
        <time>2021-08-10T08:02:34.000Z</time>
      </trkpt>
      <trkpt lat="43.00834" lon="0.05936">
        <ele>1595</ele>
        <time>2021-08-10T08:02:36.000Z</time>
      </trkpt>
      <trkpt lat="43.00828" lon="0.05935">
        <ele>1595</ele>
        <time>2021-08-10T08:02:39.000Z</time>
      </trkpt>
      <trkpt lat="43.00821" lon="0.05934">
        <ele>1595</ele>
        <time>2021-08-10T08:02:42.000Z</time>
      </trkpt>
      <trkpt lat="43.00814" lon="0.05932">
        <ele>1595</ele>
        <time>2021-08-10T08:02:44.000Z</time>
      </trkpt>
      <trkpt lat="43.00807" lon="0.05931">
        <ele>1596</ele>
        <time>2021-08-10T08:02:47.000Z</time>
      </trkpt>
      <trkpt lat="43.00803" lon="0.05929">
        <ele>1596</ele>
        <time>2021-08-10T08:02:49.000Z</time>
      </trkpt>
      <trkpt lat="43.00797" lon="0.05928">
        <ele>1596</ele>
        <time>2021-08-10T08:02:51.000Z</time>
      </trkpt>
      <trkpt lat="43.00791" lon="0.05927">
        <ele>1596</ele>
        <time>2021-08-10T08:02:53.000Z</time>
      </trkpt>
      <trkpt lat="43.00786" lon="0.05926">
        <ele>1596</ele>
        <time>2021-08-10T08:02:55.000Z</time>
      </trkpt>
      <trkpt lat="43.0078" lon="0.05925">
        <ele>1596</ele>
        <time>2021-08-10T08:02:57.000Z</time>
      </trkpt>
      <trkpt lat="43.00774" lon="0.05924">
        <ele>1596</ele>
        <time>2021-08-10T08:02:59.000Z</time>
      </trkpt>
      <trkpt lat="43.00769" lon="0.05923">
        <ele>1596</ele>
        <time>2021-08-10T08:03:1.000Z</time>
      </trkpt>
      <trkpt lat="43.00764" lon="0.05923">
        <ele>1596</ele>
        <time>2021-08-10T08:03:3.000Z</time>
      </trkpt>
      <trkpt lat="43.00757" lon="0.05922">
        <ele>1596</ele>
        <time>2021-08-10T08:03:5.000Z</time>
      </trkpt>
      <trkpt lat="43.00751" lon="0.05921">
        <ele>1596</ele>
        <time>2021-08-10T08:03:7.000Z</time>
      </trkpt>
      <trkpt lat="43.00746" lon="0.05921">
        <ele>1596</ele>
        <time>2021-08-10T08:03:8.000Z</time>
      </trkpt>
      <trkpt lat="43.00739" lon="0.0592">
        <ele>1596</ele>
        <time>2021-08-10T08:03:10.000Z</time>
      </trkpt>
      <trkpt lat="43.00732" lon="0.05919">
        <ele>1596</ele>
        <time>2021-08-10T08:03:12.000Z</time>
      </trkpt>
      <trkpt lat="43.00725" lon="0.05919">
        <ele>1596</ele>
        <time>2021-08-10T08:03:14.000Z</time>
      </trkpt>
      <trkpt lat="43.0072" lon="0.05919">
        <ele>1596</ele>
        <time>2021-08-10T08:03:16.000Z</time>
      </trkpt>
      <trkpt lat="43.00716" lon="0.05922">
        <ele>1596</ele>
        <time>2021-08-10T08:03:18.000Z</time>
      </trkpt>
      <trkpt lat="43.00711" lon="0.05925">
        <ele>1596</ele>
        <time>2021-08-10T08:03:20.000Z</time>
      </trkpt>
      <trkpt lat="43.00707" lon="0.05929">
        <ele>1596</ele>
        <time>2021-08-10T08:03:22.000Z</time>
      </trkpt>
      <trkpt lat="43.00702" lon="0.05932">
        <ele>1596</ele>
        <time>2021-08-10T08:03:24.000Z</time>
      </trkpt>
      <trkpt lat="43.00697" lon="0.05939">
        <ele>1596</ele>
        <time>2021-08-10T08:03:27.000Z</time>
      </trkpt>
      <trkpt lat="43.00692" lon="0.05943">
        <ele>1596</ele>
        <time>2021-08-10T08:03:29.000Z</time>
      </trkpt>
      <trkpt lat="43.00689" lon="0.05948">
        <ele>1596</ele>
        <time>2021-08-10T08:03:31.000Z</time>
      </trkpt>
      <trkpt lat="43.00686" lon="0.05952">
        <ele>1596</ele>
        <time>2021-08-10T08:03:33.000Z</time>
      </trkpt>
      <trkpt lat="43.00681" lon="0.05957">
        <ele>1596</ele>
        <time>2021-08-10T08:03:35.000Z</time>
      </trkpt>
      <trkpt lat="43.00678" lon="0.05962">
        <ele>1596</ele>
        <time>2021-08-10T08:03:37.000Z</time>
      </trkpt>
      <trkpt lat="43.00674" lon="0.05968">
        <ele>1596</ele>
        <time>2021-08-10T08:03:39.000Z</time>
      </trkpt>
      <trkpt lat="43.00671" lon="0.05973">
        <ele>1597</ele>
        <time>2021-08-10T08:03:42.000Z</time>
      </trkpt>
      <trkpt lat="43.00665" lon="0.05977">
        <ele>1597</ele>
        <time>2021-08-10T08:05:19.000Z</time>
      </trkpt>
      <trkpt lat="43.0066" lon="0.05981">
        <ele>1597</ele>
        <time>2021-08-10T08:05:21.000Z</time>
      </trkpt>
      <trkpt lat="43.00654" lon="0.05984">
        <ele>1597</ele>
        <time>2021-08-10T08:05:23.000Z</time>
      </trkpt>
      <trkpt lat="43.00647" lon="0.05988">
        <ele>1597</ele>
        <time>2021-08-10T08:05:25.000Z</time>
      </trkpt>
      <trkpt lat="43.0064" lon="0.05992">
        <ele>1597</ele>
        <time>2021-08-10T08:05:27.000Z</time>
      </trkpt>
      <trkpt lat="43.00636" lon="0.05995">
        <ele>1597</ele>
        <time>2021-08-10T08:05:29.000Z</time>
      </trkpt>
      <trkpt lat="43.00632" lon="0.05999">
        <ele>1596</ele>
        <time>2021-08-10T08:05:32.000Z</time>
      </trkpt>
      <trkpt lat="43.00628" lon="0.06005">
        <ele>1596</ele>
        <time>2021-08-10T08:05:35.000Z</time>
      </trkpt>
      <trkpt lat="43.00624" lon="0.06011">
        <ele>1597</ele>
        <time>2021-08-10T08:05:38.000Z</time>
      </trkpt>
      <trkpt lat="43.00622" lon="0.06016">
        <ele>1598</ele>
        <time>2021-08-10T08:05:41.000Z</time>
      </trkpt>
      <trkpt lat="43.00618" lon="0.0602">
        <ele>1599</ele>
        <time>2021-08-10T08:05:44.000Z</time>
      </trkpt>
      <trkpt lat="43.00614" lon="0.06024">
        <ele>1599</ele>
        <time>2021-08-10T08:05:47.000Z</time>
      </trkpt>
      <trkpt lat="43.0061" lon="0.06028">
        <ele>1599</ele>
        <time>2021-08-10T08:05:51.000Z</time>
      </trkpt>
      <trkpt lat="43.00606" lon="0.06032">
        <ele>1599</ele>
        <time>2021-08-10T08:05:54.000Z</time>
      </trkpt>
      <trkpt lat="43.00601" lon="0.06036">
        <ele>1599</ele>
        <time>2021-08-10T08:05:56.000Z</time>
      </trkpt>
      <trkpt lat="43.00596" lon="0.06036">
        <ele>1599</ele>
        <time>2021-08-10T08:05:58.000Z</time>
      </trkpt>
      <trkpt lat="43.00591" lon="0.06035">
        <ele>1599</ele>
        <time>2021-08-10T08:06:3.000Z</time>
      </trkpt>
      <trkpt lat="43.00586" lon="0.06034">
        <ele>1600</ele>
        <time>2021-08-10T08:06:10.000Z</time>
      </trkpt>
      <trkpt lat="43.00581" lon="0.06036">
        <ele>1601</ele>
        <time>2021-08-10T08:06:16.000Z</time>
      </trkpt>
      <trkpt lat="43.00578" lon="0.0604">
        <ele>1603</ele>
        <time>2021-08-10T08:06:24.000Z</time>
      </trkpt>
      <trkpt lat="43.00574" lon="0.06044">
        <ele>1604</ele>
        <time>2021-08-10T08:06:30.000Z</time>
      </trkpt>
      <trkpt lat="43.00559" lon="0.0606">
        <ele>1608</ele>
        <time>2021-08-10T08:07:16.000Z</time>
      </trkpt>
      <trkpt lat="43.00557" lon="0.06066">
        <ele>1623</ele>
        <time>2021-08-10T08:09:36.000Z</time>
      </trkpt>
      <trkpt lat="43.00542" lon="0.0613">
        <ele>1628</ele>
        <time>2021-08-10T08:10:29.000Z</time>
      </trkpt>
      <trkpt lat="43.00541" lon="0.06136">
        <ele>1629</ele>
        <time>2021-08-10T08:10:35.000Z</time>
      </trkpt>
      <trkpt lat="43.00541" lon="0.06142">
        <ele>1630</ele>
        <time>2021-08-10T08:10:50.000Z</time>
      </trkpt>
      <trkpt lat="43.00532" lon="0.06191">
        <ele>1642</ele>
        <time>2021-08-10T08:13:1.000Z</time>
      </trkpt>
      <trkpt lat="43.00532" lon="0.06197">
        <ele>1643</ele>
        <time>2021-08-10T08:13:8.000Z</time>
      </trkpt>
      <trkpt lat="43.00532" lon="0.06203">
        <ele>1644</ele>
        <time>2021-08-10T08:13:14.000Z</time>
      </trkpt>
      <trkpt lat="43.00526" lon="0.0623">
        <ele>1650</ele>
        <time>2021-08-10T08:14:4.000Z</time>
      </trkpt>
      <trkpt lat="43.00523" lon="0.06249">
        <ele>1654</ele>
        <time>2021-08-10T08:14:59.000Z</time>
      </trkpt>
      <trkpt lat="43.0052" lon="0.06256">
        <ele>1655</ele>
        <time>2021-08-10T08:15:6.000Z</time>
      </trkpt>
      <trkpt lat="43.00518" lon="0.06261">
        <ele>1656</ele>
        <time>2021-08-10T08:15:17.000Z</time>
      </trkpt>
      <trkpt lat="43.00517" lon="0.06268">
        <ele>1658</ele>
        <time>2021-08-10T08:15:24.000Z</time>
      </trkpt>
      <trkpt lat="43.00515" lon="0.06282">
        <ele>1660</ele>
        <time>2021-08-10T08:15:54.000Z</time>
      </trkpt>
      <trkpt lat="43.00512" lon="0.06295">
        <ele>1662</ele>
        <time>2021-08-10T08:16:33.000Z</time>
      </trkpt>
      <trkpt lat="43.00511" lon="0.06301">
        <ele>1664</ele>
        <time>2021-08-10T08:16:40.000Z</time>
      </trkpt>
      <trkpt lat="43.00511" lon="0.06308">
        <ele>1665</ele>
        <time>2021-08-10T08:16:47.000Z</time>
      </trkpt>
      <trkpt lat="43.0051" lon="0.06314">
        <ele>1667</ele>
        <time>2021-08-10T08:16:54.000Z</time>
      </trkpt>
      <trkpt lat="43.00509" lon="0.0632">
        <ele>1668</ele>
        <time>2021-08-10T08:17:11.000Z</time>
      </trkpt>
      <trkpt lat="43.00502" lon="0.06405">
        <ele>1687</ele>
        <time>2021-08-10T08:20:40.000Z</time>
      </trkpt>
      <trkpt lat="43.005" lon="0.0641">
        <ele>1687</ele>
        <time>2021-08-10T08:20:44.000Z</time>
      </trkpt>
      <trkpt lat="43.00497" lon="0.06416">
        <ele>1688</ele>
        <time>2021-08-10T08:21:0.000Z</time>
      </trkpt>
      <trkpt lat="43.00494" lon="0.06421">
        <ele>1689</ele>
        <time>2021-08-10T08:21:5.000Z</time>
      </trkpt>
      <trkpt lat="43.00491" lon="0.06426">
        <ele>1689</ele>
        <time>2021-08-10T08:21:10.000Z</time>
      </trkpt>
      <trkpt lat="43.00488" lon="0.0643">
        <ele>1689</ele>
        <time>2021-08-10T08:21:15.000Z</time>
      </trkpt>
      <trkpt lat="43.00484" lon="0.06435">
        <ele>1690</ele>
        <time>2021-08-10T08:21:20.000Z</time>
      </trkpt>
      <trkpt lat="43.0048" lon="0.06439">
        <ele>1691</ele>
        <time>2021-08-10T08:21:24.000Z</time>
      </trkpt>
      <trkpt lat="43.00477" lon="0.06444">
        <ele>1692</ele>
        <time>2021-08-10T08:21:29.000Z</time>
      </trkpt>
      <trkpt lat="43.00473" lon="0.06448">
        <ele>1692</ele>
        <time>2021-08-10T08:21:34.000Z</time>
      </trkpt>
      <trkpt lat="43.00469" lon="0.06453">
        <ele>1693</ele>
        <time>2021-08-10T08:21:41.000Z</time>
      </trkpt>
      <trkpt lat="43.00466" lon="0.06458">
        <ele>1694</ele>
        <time>2021-08-10T08:21:48.000Z</time>
      </trkpt>
      <trkpt lat="43.00463" lon="0.06462">
        <ele>1694</ele>
        <time>2021-08-10T08:21:53.000Z</time>
      </trkpt>
      <trkpt lat="43.0046" lon="0.06468">
        <ele>1695</ele>
        <time>2021-08-10T08:22:7.000Z</time>
      </trkpt>
      <trkpt lat="43.00456" lon="0.06474">
        <ele>1696</ele>
        <time>2021-08-10T08:22:14.000Z</time>
      </trkpt>
      <trkpt lat="43.00452" lon="0.06478">
        <ele>1697</ele>
        <time>2021-08-10T08:22:24.000Z</time>
      </trkpt>
      <trkpt lat="43.00448" lon="0.06482">
        <ele>1698</ele>
        <time>2021-08-10T08:22:31.000Z</time>
      </trkpt>
      <trkpt lat="43.00445" lon="0.06488">
        <ele>1699</ele>
        <time>2021-08-10T08:23:21.000Z</time>
      </trkpt>
      <trkpt lat="43.00443" lon="0.06494">
        <ele>1699</ele>
        <time>2021-08-10T08:23:28.000Z</time>
      </trkpt>
      <trkpt lat="43.00441" lon="0.065">
        <ele>1702</ele>
        <time>2021-08-10T08:23:34.000Z</time>
      </trkpt>
      <trkpt lat="43.00439" lon="0.06506">
        <ele>1703</ele>
        <time>2021-08-10T08:23:40.000Z</time>
      </trkpt>
      <trkpt lat="43.00436" lon="0.0651">
        <ele>1704</ele>
        <time>2021-08-10T08:23:45.000Z</time>
      </trkpt>
      <trkpt lat="43.00431" lon="0.06512">
        <ele>1704</ele>
        <time>2021-08-10T08:23:54.000Z</time>
      </trkpt>
      <trkpt lat="43.00426" lon="0.06516">
        <ele>1704</ele>
        <time>2021-08-10T08:24:50.000Z</time>
      </trkpt>
      <trkpt lat="43.00422" lon="0.06521">
        <ele>1704</ele>
        <time>2021-08-10T08:24:55.000Z</time>
      </trkpt>
      <trkpt lat="43.0042" lon="0.06528">
        <ele>1704</ele>
        <time>2021-08-10T08:25:0.000Z</time>
      </trkpt>
      <trkpt lat="43.00418" lon="0.06535">
        <ele>1704</ele>
        <time>2021-08-10T08:25:6.000Z</time>
      </trkpt>
      <trkpt lat="43.00417" lon="0.06541">
        <ele>1704</ele>
        <time>2021-08-10T08:25:18.000Z</time>
      </trkpt>
      <trkpt lat="43.00415" lon="0.06547">
        <ele>1708</ele>
        <time>2021-08-10T08:25:25.000Z</time>
      </trkpt>
      <trkpt lat="43.00414" lon="0.06554">
        <ele>1710</ele>
        <time>2021-08-10T08:25:32.000Z</time>
      </trkpt>
      <trkpt lat="43.00411" lon="0.06563">
        <ele>1711</ele>
        <time>2021-08-10T08:27:37.000Z</time>
      </trkpt>
      <trkpt lat="43.00406" lon="0.06568">
        <ele>1711</ele>
        <time>2021-08-10T08:27:43.000Z</time>
      </trkpt>
      <trkpt lat="43.00403" lon="0.06573">
        <ele>1711</ele>
        <time>2021-08-10T08:27:51.000Z</time>
      </trkpt>
      <trkpt lat="43.004" lon="0.06577">
        <ele>1711</ele>
        <time>2021-08-10T08:28:1.000Z</time>
      </trkpt>
      <trkpt lat="43.00397" lon="0.06582">
        <ele>1711</ele>
        <time>2021-08-10T08:28:7.000Z</time>
      </trkpt>
      <trkpt lat="43.00393" lon="0.06587">
        <ele>1718</ele>
        <time>2021-08-10T08:28:12.000Z</time>
      </trkpt>
      <trkpt lat="43.0039" lon="0.06591">
        <ele>1718</ele>
        <time>2021-08-10T08:28:20.000Z</time>
      </trkpt>
      <trkpt lat="43.00386" lon="0.06596">
        <ele>1720</ele>
        <time>2021-08-10T08:28:27.000Z</time>
      </trkpt>
      <trkpt lat="43.00356" lon="0.06617">
        <ele>1730</ele>
        <time>2021-08-10T08:29:53.000Z</time>
      </trkpt>
      <trkpt lat="43.00353" lon="0.06622">
        <ele>1730</ele>
        <time>2021-08-10T08:30:1.000Z</time>
      </trkpt>
      <trkpt lat="43.00351" lon="0.06629">
        <ele>1731</ele>
        <time>2021-08-10T08:30:15.000Z</time>
      </trkpt>
      <trkpt lat="43.00348" lon="0.06634">
        <ele>1732</ele>
        <time>2021-08-10T08:30:23.000Z</time>
      </trkpt>
      <trkpt lat="43.00347" lon="0.06641">
        <ele>1733</ele>
        <time>2021-08-10T08:31:15.000Z</time>
      </trkpt>
      <trkpt lat="43.00346" lon="0.06648">
        <ele>1733</ele>
        <time>2021-08-10T08:31:21.000Z</time>
      </trkpt>
      <trkpt lat="43.00347" lon="0.06654">
        <ele>1733</ele>
        <time>2021-08-10T08:31:27.000Z</time>
      </trkpt>
      <trkpt lat="43.00351" lon="0.0666">
        <ele>1735</ele>
        <time>2021-08-10T08:31:33.000Z</time>
      </trkpt>
      <trkpt lat="43.00165" lon="0.06749">
        <ele>1751</ele>
        <time>2021-08-10T08:34:4.000Z</time>
      </trkpt>
      <trkpt lat="43.0016" lon="0.06748">
        <ele>1751</ele>
        <time>2021-08-10T08:34:9.000Z</time>
      </trkpt>
      <trkpt lat="43.00155" lon="0.06747">
        <ele>1752</ele>
        <time>2021-08-10T08:34:12.000Z</time>
      </trkpt>
      <trkpt lat="43.0015" lon="0.06746">
        <ele>1752</ele>
        <time>2021-08-10T08:34:15.000Z</time>
      </trkpt>
      <trkpt lat="43.00144" lon="0.06745">
        <ele>1752</ele>
        <time>2021-08-10T08:34:19.000Z</time>
      </trkpt>
      <trkpt lat="43.0014" lon="0.06744">
        <ele>1752</ele>
        <time>2021-08-10T08:34:22.000Z</time>
      </trkpt>
      <trkpt lat="43.00135" lon="0.06742">
        <ele>1753</ele>
        <time>2021-08-10T08:34:25.000Z</time>
      </trkpt>
      <trkpt lat="43.00131" lon="0.06741">
        <ele>1753</ele>
        <time>2021-08-10T08:34:28.000Z</time>
      </trkpt>
      <trkpt lat="43.00125" lon="0.06738">
        <ele>1753</ele>
        <time>2021-08-10T08:34:32.000Z</time>
      </trkpt>
      <trkpt lat="43.00119" lon="0.06735">
        <ele>1753</ele>
        <time>2021-08-10T08:34:35.000Z</time>
      </trkpt>
      <trkpt lat="43.00114" lon="0.06733">
        <ele>1753</ele>
        <time>2021-08-10T08:34:38.000Z</time>
      </trkpt>
      <trkpt lat="43.00108" lon="0.06729">
        <ele>1753</ele>
        <time>2021-08-10T08:34:41.000Z</time>
      </trkpt>
      <trkpt lat="43.00102" lon="0.06726">
        <ele>1753</ele>
        <time>2021-08-10T08:34:44.000Z</time>
      </trkpt>
      <trkpt lat="43.00098" lon="0.06724">
        <ele>1753</ele>
        <time>2021-08-10T08:34:46.000Z</time>
      </trkpt>
      <trkpt lat="43.00094" lon="0.06722">
        <ele>1753</ele>
        <time>2021-08-10T08:34:48.000Z</time>
      </trkpt>
      <trkpt lat="43.00088" lon="0.06719">
        <ele>1753</ele>
        <time>2021-08-10T08:34:51.000Z</time>
      </trkpt>
      <trkpt lat="43.00083" lon="0.06717">
        <ele>1753</ele>
        <time>2021-08-10T08:34:54.000Z</time>
      </trkpt>
      <trkpt lat="43.00077" lon="0.06718">
        <ele>1753</ele>
        <time>2021-08-10T08:34:58.000Z</time>
      </trkpt>
      <trkpt lat="43.00072" lon="0.06721">
        <ele>1754</ele>
        <time>2021-08-10T08:35:3.000Z</time>
      </trkpt>
      <trkpt lat="43.00066" lon="0.06722">
        <ele>1755</ele>
        <time>2021-08-10T08:35:8.000Z</time>
      </trkpt>
      <trkpt lat="43.00062" lon="0.06722">
        <ele>1756</ele>
        <time>2021-08-10T08:35:12.000Z</time>
      </trkpt>
      <trkpt lat="43.00057" lon="0.06722">
        <ele>1756</ele>
        <time>2021-08-10T08:35:17.000Z</time>
      </trkpt>
      <trkpt lat="43.00052" lon="0.06722">
        <ele>1757</ele>
        <time>2021-08-10T08:35:22.000Z</time>
      </trkpt>
      <trkpt lat="43.00047" lon="0.06723">
        <ele>1757</ele>
        <time>2021-08-10T08:35:26.000Z</time>
      </trkpt>
      <trkpt lat="43.00043" lon="0.06723">
        <ele>1757</ele>
        <time>2021-08-10T08:35:34.000Z</time>
      </trkpt>
      <trkpt lat="43.00041" lon="0.06729">
        <ele>1757</ele>
        <time>2021-08-10T08:35:43.000Z</time>
      </trkpt>
      <trkpt lat="43.00038" lon="0.06735">
        <ele>1758</ele>
        <time>2021-08-10T08:35:49.000Z</time>
      </trkpt>
      <trkpt lat="43.00035" lon="0.0674">
        <ele>1759</ele>
        <time>2021-08-10T08:36:4.000Z</time>
      </trkpt>
      <trkpt lat="43.00031" lon="0.06745">
        <ele>1759</ele>
        <time>2021-08-10T08:36:11.000Z</time>
      </trkpt>
      <trkpt lat="43.00026" lon="0.06747">
        <ele>1759</ele>
        <time>2021-08-10T08:36:13.000Z</time>
      </trkpt>
      <trkpt lat="43.00021" lon="0.06749">
        <ele>1759</ele>
        <time>2021-08-10T08:36:16.000Z</time>
      </trkpt>
      <trkpt lat="43.00018" lon="0.06753">
        <ele>1759</ele>
        <time>2021-08-10T08:36:19.000Z</time>
      </trkpt>
      <trkpt lat="43.00014" lon="0.06758">
        <ele>1759</ele>
        <time>2021-08-10T08:36:23.000Z</time>
      </trkpt>
      <trkpt lat="43.00011" lon="0.06763">
        <ele>1759</ele>
        <time>2021-08-10T08:36:29.000Z</time>
      </trkpt>
      <trkpt lat="43.00015" lon="0.06754">
        <ele>1759</ele>
        <time>2021-08-10T08:38:31.000Z</time>
      </trkpt>
      <trkpt lat="43.0002" lon="0.06751">
        <ele>1759</ele>
        <time>2021-08-10T08:38:37.000Z</time>
      </trkpt>
      <trkpt lat="43.00024" lon="0.06747">
        <ele>1759</ele>
        <time>2021-08-10T08:38:41.000Z</time>
      </trkpt>
      <trkpt lat="43.00029" lon="0.06744">
        <ele>1759</ele>
        <time>2021-08-10T08:38:45.000Z</time>
      </trkpt>
      <trkpt lat="43.00034" lon="0.06743">
        <ele>1759</ele>
        <time>2021-08-10T08:38:50.000Z</time>
      </trkpt>
      <trkpt lat="43.00038" lon="0.06745">
        <ele>1759</ele>
        <time>2021-08-10T08:38:55.000Z</time>
      </trkpt>
      <trkpt lat="43.00042" lon="0.0675">
        <ele>1759</ele>
        <time>2021-08-10T08:39:1.000Z</time>
      </trkpt>
      <trkpt lat="43.00046" lon="0.06755">
        <ele>1759</ele>
        <time>2021-08-10T08:39:6.000Z</time>
      </trkpt>
      <trkpt lat="43.00049" lon="0.06759">
        <ele>1759</ele>
        <time>2021-08-10T08:39:11.000Z</time>
      </trkpt>
      <trkpt lat="43.00051" lon="0.06766">
        <ele>1759</ele>
        <time>2021-08-10T08:39:18.000Z</time>
      </trkpt>
      <trkpt lat="43.00056" lon="0.0677">
        <ele>1759</ele>
        <time>2021-08-10T08:39:42.000Z</time>
      </trkpt>
      <trkpt lat="43.0006" lon="0.06775">
        <ele>1759</ele>
        <time>2021-08-10T08:39:47.000Z</time>
      </trkpt>
      <trkpt lat="43.00063" lon="0.06781">
        <ele>1759</ele>
        <time>2021-08-10T08:39:51.000Z</time>
      </trkpt>
      <trkpt lat="43.00065" lon="0.06787">
        <ele>1764</ele>
        <time>2021-08-10T08:39:54.000Z</time>
      </trkpt>
      <trkpt lat="43.00067" lon="0.06793">
        <ele>1764</ele>
        <time>2021-08-10T08:39:58.000Z</time>
      </trkpt>
      <trkpt lat="43.00069" lon="0.06799">
        <ele>1764</ele>
        <time>2021-08-10T08:40:3.000Z</time>
      </trkpt>
      <trkpt lat="43.00071" lon="0.06805">
        <ele>1764</ele>
        <time>2021-08-10T08:40:18.000Z</time>
      </trkpt>
      <trkpt lat="43.00073" lon="0.06812">
        <ele>1764</ele>
        <time>2021-08-10T08:40:57.000Z</time>
      </trkpt>
      <trkpt lat="43.00074" lon="0.0682">
        <ele>1764</ele>
        <time>2021-08-10T08:40:59.000Z</time>
      </trkpt>
      <trkpt lat="43.00076" lon="0.06828">
        <ele>1764</ele>
        <time>2021-08-10T08:41:2.000Z</time>
      </trkpt>
      <trkpt lat="43.00076" lon="0.06835">
        <ele>1764</ele>
        <time>2021-08-10T08:41:5.000Z</time>
      </trkpt>
      <trkpt lat="43.00077" lon="0.06843">
        <ele>1764</ele>
        <time>2021-08-10T08:41:9.000Z</time>
      </trkpt>
      <trkpt lat="43.00079" lon="0.0685">
        <ele>1764</ele>
        <time>2021-08-10T08:41:59.000Z</time>
      </trkpt>
      <trkpt lat="43.0008" lon="0.06858">
        <ele>1763</ele>
        <time>2021-08-10T08:42:2.000Z</time>
      </trkpt>
      <trkpt lat="43.00081" lon="0.06864">
        <ele>1763</ele>
        <time>2021-08-10T08:42:5.000Z</time>
      </trkpt>
      <trkpt lat="43.00081" lon="0.06872">
        <ele>1762</ele>
        <time>2021-08-10T08:42:8.000Z</time>
      </trkpt>
      <trkpt lat="43.00081" lon="0.06879">
        <ele>1761</ele>
        <time>2021-08-10T08:42:11.000Z</time>
      </trkpt>
      <trkpt lat="43.00082" lon="0.06888">
        <ele>1760</ele>
        <time>2021-08-10T08:42:14.000Z</time>
      </trkpt>
      <trkpt lat="43.00083" lon="0.06897">
        <ele>1759</ele>
        <time>2021-08-10T08:42:17.000Z</time>
      </trkpt>
      <trkpt lat="43.00085" lon="0.06904">
        <ele>1757</ele>
        <time>2021-08-10T08:42:29.000Z</time>
      </trkpt>
      <trkpt lat="43.00085" lon="0.06911">
        <ele>1756</ele>
        <time>2021-08-10T08:42:38.000Z</time>
      </trkpt>
      <trkpt lat="43.00086" lon="0.06917">
        <ele>1756</ele>
        <time>2021-08-10T08:43:19.000Z</time>
      </trkpt>
      <trkpt lat="43.00087" lon="0.06923">
        <ele>1754</ele>
        <time>2021-08-10T08:43:23.000Z</time>
      </trkpt>
      <trkpt lat="43.00087" lon="0.0693">
        <ele>1753</ele>
        <time>2021-08-10T08:43:31.000Z</time>
      </trkpt>
      <trkpt lat="43.00089" lon="0.06937">
        <ele>1751</ele>
        <time>2021-08-10T08:43:40.000Z</time>
      </trkpt>
      <trkpt lat="43.00088" lon="0.06943">
        <ele>1749</ele>
        <time>2021-08-10T08:43:50.000Z</time>
      </trkpt>
      <trkpt lat="43.00089" lon="0.06949">
        <ele>1748</ele>
        <time>2021-08-10T08:43:56.000Z</time>
      </trkpt>
      <trkpt lat="43.00089" lon="0.06956">
        <ele>1747</ele>
        <time>2021-08-10T08:44:6.000Z</time>
      </trkpt>
      <trkpt lat="43.00089" lon="0.06963">
        <ele>1745</ele>
        <time>2021-08-10T08:44:15.000Z</time>
      </trkpt>
      <trkpt lat="43.0009" lon="0.0697">
        <ele>1743</ele>
        <time>2021-08-10T08:44:26.000Z</time>
      </trkpt>
      <trkpt lat="43.0009" lon="0.06976">
        <ele>1742</ele>
        <time>2021-08-10T08:44:43.000Z</time>
      </trkpt>
      <trkpt lat="43.00086" lon="0.06973">
        <ele>1740</ele>
        <time>2021-08-10T08:45:0.000Z</time>
      </trkpt>
      <trkpt lat="43.00082" lon="0.06969">
        <ele>1739</ele>
        <time>2021-08-10T08:45:5.000Z</time>
      </trkpt>
      <trkpt lat="43.00077" lon="0.06971">
        <ele>1736</ele>
        <time>2021-08-10T08:45:13.000Z</time>
      </trkpt>
      <trkpt lat="43.00077" lon="0.06977">
        <ele>1735</ele>
        <time>2021-08-10T08:45:19.000Z</time>
      </trkpt>
      <trkpt lat="43.00079" lon="0.06983">
        <ele>1734</ele>
        <time>2021-08-10T08:45:41.000Z</time>
      </trkpt>
      <trkpt lat="43.00082" lon="0.06988">
        <ele>1733</ele>
        <time>2021-08-10T08:45:47.000Z</time>
      </trkpt>
      <trkpt lat="43.00085" lon="0.06992">
        <ele>1731</ele>
        <time>2021-08-10T08:45:57.000Z</time>
      </trkpt>
      <trkpt lat="43.0009" lon="0.06996">
        <ele>1729</ele>
        <time>2021-08-10T08:46:9.000Z</time>
      </trkpt>
      <trkpt lat="43.00095" lon="0.06998">
        <ele>1728</ele>
        <time>2021-08-10T08:46:15.000Z</time>
      </trkpt>
      <trkpt lat="43.00098" lon="0.07002">
        <ele>1726</ele>
        <time>2021-08-10T08:46:23.000Z</time>
      </trkpt>
      <trkpt lat="43.00103" lon="0.07002">
        <ele>1725</ele>
        <time>2021-08-10T08:46:28.000Z</time>
      </trkpt>
      <trkpt lat="43.00108" lon="0.07003">
        <ele>1723</ele>
        <time>2021-08-10T08:46:37.000Z</time>
      </trkpt>
      <trkpt lat="43.00114" lon="0.07004">
        <ele>1723</ele>
        <time>2021-08-10T08:46:46.000Z</time>
      </trkpt>
      <trkpt lat="43.00121" lon="0.07005">
        <ele>1723</ele>
        <time>2021-08-10T08:46:48.000Z</time>
      </trkpt>
      <trkpt lat="43.00126" lon="0.07009">
        <ele>1722</ele>
        <time>2021-08-10T08:46:50.000Z</time>
      </trkpt>
      <trkpt lat="43.00129" lon="0.07014">
        <ele>1722</ele>
        <time>2021-08-10T08:47:5.000Z</time>
      </trkpt>
      <trkpt lat="43.00137" lon="0.07021">
        <ele>1723</ele>
        <time>2021-08-10T08:48:29.000Z</time>
      </trkpt>
      <trkpt lat="43.00142" lon="0.07023">
        <ele>1723</ele>
        <time>2021-08-10T08:48:34.000Z</time>
      </trkpt>
      <trkpt lat="43.00147" lon="0.07026">
        <ele>1723</ele>
        <time>2021-08-10T08:48:42.000Z</time>
      </trkpt>
      <trkpt lat="43.00151" lon="0.07029">
        <ele>1723</ele>
        <time>2021-08-10T08:48:44.000Z</time>
      </trkpt>
      <trkpt lat="43.00158" lon="0.07033">
        <ele>1723</ele>
        <time>2021-08-10T08:48:46.000Z</time>
      </trkpt>
      <trkpt lat="43.00163" lon="0.07035">
        <ele>1723</ele>
        <time>2021-08-10T08:48:47.000Z</time>
      </trkpt>
      <trkpt lat="43.00167" lon="0.07037">
        <ele>1723</ele>
        <time>2021-08-10T08:48:48.000Z</time>
      </trkpt>
      <trkpt lat="43.00173" lon="0.0704">
        <ele>1719</ele>
        <time>2021-08-10T08:48:50.000Z</time>
      </trkpt>
      <trkpt lat="43.00179" lon="0.07043">
        <ele>1719</ele>
        <time>2021-08-10T08:48:52.000Z</time>
      </trkpt>
      <trkpt lat="43.00186" lon="0.07049">
        <ele>1718</ele>
        <time>2021-08-10T08:48:54.000Z</time>
      </trkpt>
      <trkpt lat="43.0019" lon="0.0706">
        <ele>1717</ele>
        <time>2021-08-10T08:48:56.000Z</time>
      </trkpt>
      <trkpt lat="43.00192" lon="0.07065">
        <ele>1716</ele>
        <time>2021-08-10T08:48:57.000Z</time>
      </trkpt>
      <trkpt lat="43.00195" lon="0.07074">
        <ele>1716</ele>
        <time>2021-08-10T08:48:59.000Z</time>
      </trkpt>
      <trkpt lat="43.00199" lon="0.07081">
        <ele>1715</ele>
        <time>2021-08-10T08:49:1.000Z</time>
      </trkpt>
      <trkpt lat="43.00203" lon="0.07088">
        <ele>1714</ele>
        <time>2021-08-10T08:49:3.000Z</time>
      </trkpt>
      <trkpt lat="43.00206" lon="0.07097">
        <ele>1714</ele>
        <time>2021-08-10T08:49:5.000Z</time>
      </trkpt>
      <trkpt lat="43.00208" lon="0.07108">
        <ele>1713</ele>
        <time>2021-08-10T08:49:7.000Z</time>
      </trkpt>
      <trkpt lat="43.00208" lon="0.07117">
        <ele>1712</ele>
        <time>2021-08-10T08:49:9.000Z</time>
      </trkpt>
      <trkpt lat="43.00208" lon="0.07125">
        <ele>1712</ele>
        <time>2021-08-10T08:49:11.000Z</time>
      </trkpt>
      <trkpt lat="43.00208" lon="0.07131">
        <ele>1711</ele>
        <time>2021-08-10T08:49:13.000Z</time>
      </trkpt>
      <trkpt lat="43.00207" lon="0.0714">
        <ele>1710</ele>
        <time>2021-08-10T08:49:16.000Z</time>
      </trkpt>
      <trkpt lat="43.00207" lon="0.07147">
        <ele>1710</ele>
        <time>2021-08-10T08:49:17.000Z</time>
      </trkpt>
      <trkpt lat="43.00205" lon="0.07155">
        <ele>1709</ele>
        <time>2021-08-10T08:49:19.000Z</time>
      </trkpt>
      <trkpt lat="43.00203" lon="0.07162">
        <ele>1708</ele>
        <time>2021-08-10T08:49:22.000Z</time>
      </trkpt>
      <trkpt lat="43.002" lon="0.0717">
        <ele>1707</ele>
        <time>2021-08-10T08:49:24.000Z</time>
      </trkpt>
      <trkpt lat="43.00197" lon="0.07179">
        <ele>1706</ele>
        <time>2021-08-10T08:49:26.000Z</time>
      </trkpt>
      <trkpt lat="43.00195" lon="0.07187">
        <ele>1706</ele>
        <time>2021-08-10T08:49:27.000Z</time>
      </trkpt>
      <trkpt lat="43.00193" lon="0.07193">
        <ele>1705</ele>
        <time>2021-08-10T08:49:27.000Z</time>
      </trkpt>
      <trkpt lat="43.00191" lon="0.07199">
        <ele>1705</ele>
        <time>2021-08-10T08:49:28.000Z</time>
      </trkpt>
      <trkpt lat="43.00187" lon="0.07207">
        <ele>1704</ele>
        <time>2021-08-10T08:49:30.000Z</time>
      </trkpt>
      <trkpt lat="43.00185" lon="0.07213">
        <ele>1703</ele>
        <time>2021-08-10T08:49:31.000Z</time>
      </trkpt>
      <trkpt lat="43.00182" lon="0.07219">
        <ele>1703</ele>
        <time>2021-08-10T08:49:32.000Z</time>
      </trkpt>
      <trkpt lat="43.00179" lon="0.07225">
        <ele>1702</ele>
        <time>2021-08-10T08:49:33.000Z</time>
      </trkpt>
      <trkpt lat="43.00177" lon="0.07231">
        <ele>1702</ele>
        <time>2021-08-10T08:49:34.000Z</time>
      </trkpt>
      <trkpt lat="43.00172" lon="0.07244">
        <ele>1701</ele>
        <time>2021-08-10T08:49:36.000Z</time>
      </trkpt>
      <trkpt lat="43.0017" lon="0.0725">
        <ele>1700</ele>
        <time>2021-08-10T08:49:37.000Z</time>
      </trkpt>
      <trkpt lat="43.00166" lon="0.07261">
        <ele>1699</ele>
        <time>2021-08-10T08:49:39.000Z</time>
      </trkpt>
      <trkpt lat="43.00164" lon="0.07267">
        <ele>1699</ele>
        <time>2021-08-10T08:49:40.000Z</time>
      </trkpt>
      <trkpt lat="43.0016" lon="0.0728">
        <ele>1698</ele>
        <time>2021-08-10T08:49:42.000Z</time>
      </trkpt>
      <trkpt lat="43.00158" lon="0.07287">
        <ele>1697</ele>
        <time>2021-08-10T08:49:43.000Z</time>
      </trkpt>
      <trkpt lat="43.00156" lon="0.07294">
        <ele>1697</ele>
        <time>2021-08-10T08:49:44.000Z</time>
      </trkpt>
      <trkpt lat="43.00152" lon="0.07307">
        <ele>1696</ele>
        <time>2021-08-10T08:49:46.000Z</time>
      </trkpt>
      <trkpt lat="43.0015" lon="0.07314">
        <ele>1696</ele>
        <time>2021-08-10T08:49:47.000Z</time>
      </trkpt>
      <trkpt lat="43.00149" lon="0.0732">
        <ele>1695</ele>
        <time>2021-08-10T08:49:48.000Z</time>
      </trkpt>
      <trkpt lat="43.00146" lon="0.07328">
        <ele>1695</ele>
        <time>2021-08-10T08:49:49.000Z</time>
      </trkpt>
      <trkpt lat="43.00144" lon="0.07334">
        <ele>1694</ele>
        <time>2021-08-10T08:49:50.000Z</time>
      </trkpt>
      <trkpt lat="43.00142" lon="0.07342">
        <ele>1694</ele>
        <time>2021-08-10T08:49:52.000Z</time>
      </trkpt>
      <trkpt lat="43.0014" lon="0.07351">
        <ele>1693</ele>
        <time>2021-08-10T08:49:54.000Z</time>
      </trkpt>
      <trkpt lat="43.00141" lon="0.07359">
        <ele>1692</ele>
        <time>2021-08-10T08:49:56.000Z</time>
      </trkpt>
      <trkpt lat="43.0014" lon="0.07368">
        <ele>1691</ele>
        <time>2021-08-10T08:49:58.000Z</time>
      </trkpt>
      <trkpt lat="43.00139" lon="0.07378">
        <ele>1689</ele>
        <time>2021-08-10T08:50:0.000Z</time>
      </trkpt>
      <trkpt lat="43.00138" lon="0.07387">
        <ele>1688</ele>
        <time>2021-08-10T08:50:2.000Z</time>
      </trkpt>
      <trkpt lat="43.00139" lon="0.07396">
        <ele>1686</ele>
        <time>2021-08-10T08:52:11.000Z</time>
      </trkpt>
      <trkpt lat="43.0014" lon="0.07402">
        <ele>1686</ele>
        <time>2021-08-10T08:52:17.000Z</time>
      </trkpt>
      <trkpt lat="43.00145" lon="0.07408">
        <ele>1681</ele>
        <time>2021-08-10T08:52:23.000Z</time>
      </trkpt>
      <trkpt lat="43.0015" lon="0.07415">
        <ele>1678</ele>
        <time>2021-08-10T08:52:26.000Z</time>
      </trkpt>
      <trkpt lat="43.00154" lon="0.0742">
        <ele>1677</ele>
        <time>2021-08-10T08:52:28.000Z</time>
      </trkpt>
      <trkpt lat="43.00157" lon="0.07426">
        <ele>1676</ele>
        <time>2021-08-10T08:52:31.000Z</time>
      </trkpt>
      <trkpt lat="43.0016" lon="0.07434">
        <ele>1674</ele>
        <time>2021-08-10T08:52:34.000Z</time>
      </trkpt>
      <trkpt lat="43.00164" lon="0.07442">
        <ele>1674</ele>
        <time>2021-08-10T08:52:37.000Z</time>
      </trkpt>
      <trkpt lat="43.00168" lon="0.0745">
        <ele>1673</ele>
        <time>2021-08-10T08:52:39.000Z</time>
      </trkpt>
      <trkpt lat="43.00171" lon="0.07454">
        <ele>1671</ele>
        <time>2021-08-10T08:52:40.000Z</time>
      </trkpt>
      <trkpt lat="43.00176" lon="0.07463">
        <ele>1670</ele>
        <time>2021-08-10T08:52:42.000Z</time>
      </trkpt>
      <trkpt lat="43.00182" lon="0.07473">
        <ele>1670</ele>
        <time>2021-08-10T08:52:44.000Z</time>
      </trkpt>
      <trkpt lat="43.00186" lon="0.07479">
        <ele>1670</ele>
        <time>2021-08-10T08:52:46.000Z</time>
      </trkpt>
      <trkpt lat="43.00191" lon="0.07483">
        <ele>1669</ele>
        <time>2021-08-10T08:52:48.000Z</time>
      </trkpt>
      <trkpt lat="43.00196" lon="0.07488">
        <ele>1669</ele>
        <time>2021-08-10T08:52:51.000Z</time>
      </trkpt>
      <trkpt lat="43.00201" lon="0.07492">
        <ele>1668</ele>
        <time>2021-08-10T08:52:54.000Z</time>
      </trkpt>
      <trkpt lat="43.00205" lon="0.07496">
        <ele>1668</ele>
        <time>2021-08-10T08:52:57.000Z</time>
      </trkpt>
      <trkpt lat="43.00209" lon="0.07501">
        <ele>1668</ele>
        <time>2021-08-10T08:53:0.000Z</time>
      </trkpt>
      <trkpt lat="43.00213" lon="0.07505">
        <ele>1668</ele>
        <time>2021-08-10T08:53:3.000Z</time>
      </trkpt>
      <trkpt lat="43.00217" lon="0.07511">
        <ele>1668</ele>
        <time>2021-08-10T08:53:7.000Z</time>
      </trkpt>
      <trkpt lat="43.0022" lon="0.07517">
        <ele>1669</ele>
        <time>2021-08-10T08:53:13.000Z</time>
      </trkpt>
      <trkpt lat="43.00221" lon="0.07523">
        <ele>1669</ele>
        <time>2021-08-10T08:53:21.000Z</time>
      </trkpt>
      <trkpt lat="43.00224" lon="0.07529">
        <ele>1669</ele>
        <time>2021-08-10T08:53:24.000Z</time>
      </trkpt>
      <trkpt lat="43.00226" lon="0.07534">
        <ele>1670</ele>
        <time>2021-08-10T08:53:27.000Z</time>
      </trkpt>
      <trkpt lat="43.00228" lon="0.0754">
        <ele>1671</ele>
        <time>2021-08-10T08:53:41.000Z</time>
      </trkpt>
      <trkpt lat="43.00231" lon="0.07546">
        <ele>1672</ele>
        <time>2021-08-10T08:53:45.000Z</time>
      </trkpt>
      <trkpt lat="43.00233" lon="0.07552">
        <ele>1673</ele>
        <time>2021-08-10T08:53:50.000Z</time>
      </trkpt>
      <trkpt lat="43.00236" lon="0.07557">
        <ele>1673</ele>
        <time>2021-08-10T08:53:55.000Z</time>
      </trkpt>
      <trkpt lat="43.00239" lon="0.07563">
        <ele>1674</ele>
        <time>2021-08-10T08:54:6.000Z</time>
      </trkpt>
      <trkpt lat="43.00238" lon="0.0757">
        <ele>1674</ele>
        <time>2021-08-10T08:54:11.000Z</time>
      </trkpt>
      <trkpt lat="43.00238" lon="0.07576">
        <ele>1674</ele>
        <time>2021-08-10T08:54:17.000Z</time>
      </trkpt>
      <trkpt lat="43.00243" lon="0.07569">
        <ele>1674</ele>
        <time>2021-08-10T08:54:46.000Z</time>
      </trkpt>
      <trkpt lat="43.00248" lon="0.07569">
        <ele>1674</ele>
        <time>2021-08-10T08:54:52.000Z</time>
      </trkpt>
      <trkpt lat="43.00252" lon="0.07572">
        <ele>1674</ele>
        <time>2021-08-10T08:54:57.000Z</time>
      </trkpt>
      <trkpt lat="43.00256" lon="0.07573">
        <ele>1674</ele>
        <time>2021-08-10T08:55:0.000Z</time>
      </trkpt>
      <trkpt lat="43.00261" lon="0.07578">
        <ele>1674</ele>
        <time>2021-08-10T08:55:46.000Z</time>
      </trkpt>
      <trkpt lat="43.00266" lon="0.07584">
        <ele>1674</ele>
        <time>2021-08-10T08:55:50.000Z</time>
      </trkpt>
      <trkpt lat="43.00261" lon="0.07582">
        <ele>1674</ele>
        <time>2021-08-10T08:56:5.000Z</time>
      </trkpt>
      <trkpt lat="43.00257" lon="0.07586">
        <ele>1674</ele>
        <time>2021-08-10T08:56:13.000Z</time>
      </trkpt>
      <trkpt lat="43.00259" lon="0.07593">
        <ele>1674</ele>
        <time>2021-08-10T08:56:19.000Z</time>
      </trkpt>
      <trkpt lat="43.0026" lon="0.07599">
        <ele>1674</ele>
        <time>2021-08-10T08:56:24.000Z</time>
      </trkpt>
      <trkpt lat="43.0026" lon="0.07606">
        <ele>1674</ele>
        <time>2021-08-10T08:56:29.000Z</time>
      </trkpt>
      <trkpt lat="43.00259" lon="0.07612">
        <ele>1674</ele>
        <time>2021-08-10T08:56:33.000Z</time>
      </trkpt>
      <trkpt lat="43.00259" lon="0.0762">
        <ele>1674</ele>
        <time>2021-08-10T08:56:37.000Z</time>
      </trkpt>
      <trkpt lat="43.00257" lon="0.07626">
        <ele>1669</ele>
        <time>2021-08-10T08:56:41.000Z</time>
      </trkpt>
      <trkpt lat="43.00256" lon="0.07633">
        <ele>1669</ele>
        <time>2021-08-10T08:56:45.000Z</time>
      </trkpt>
      <trkpt lat="43.00255" lon="0.0764">
        <ele>1669</ele>
        <time>2021-08-10T08:56:49.000Z</time>
      </trkpt>
      <trkpt lat="43.00254" lon="0.07647">
        <ele>1669</ele>
        <time>2021-08-10T08:56:53.000Z</time>
      </trkpt>
      <trkpt lat="43.00253" lon="0.07654">
        <ele>1669</ele>
        <time>2021-08-10T08:56:57.000Z</time>
      </trkpt>
      <trkpt lat="43.00254" lon="0.0766">
        <ele>1669</ele>
        <time>2021-08-10T08:57:2.000Z</time>
      </trkpt>
      <trkpt lat="43.00254" lon="0.07667">
        <ele>1670</ele>
        <time>2021-08-10T08:57:8.000Z</time>
      </trkpt>
      <trkpt lat="43.00259" lon="0.07668">
        <ele>1672</ele>
        <time>2021-08-10T08:57:28.000Z</time>
      </trkpt>
      <trkpt lat="43.00261" lon="0.07673">
        <ele>1673</ele>
        <time>2021-08-10T08:57:33.000Z</time>
      </trkpt>
      <trkpt lat="43.0026" lon="0.0768">
        <ele>1674</ele>
        <time>2021-08-10T08:57:49.000Z</time>
      </trkpt>
      <trkpt lat="43.00259" lon="0.07688">
        <ele>1674</ele>
        <time>2021-08-10T08:57:55.000Z</time>
      </trkpt>
      <trkpt lat="43.00258" lon="0.07694">
        <ele>1674</ele>
        <time>2021-08-10T08:57:58.000Z</time>
      </trkpt>
      <trkpt lat="43.00259" lon="0.07701">
        <ele>1674</ele>
        <time>2021-08-10T08:58:48.000Z</time>
      </trkpt>
      <trkpt lat="43.00261" lon="0.07707">
        <ele>1674</ele>
        <time>2021-08-10T08:58:53.000Z</time>
      </trkpt>
      <trkpt lat="43.00262" lon="0.07714">
        <ele>1674</ele>
        <time>2021-08-10T08:58:58.000Z</time>
      </trkpt>
      <trkpt lat="43.00264" lon="0.0772">
        <ele>1674</ele>
        <time>2021-08-10T08:59:3.000Z</time>
      </trkpt>
      <trkpt lat="43.00265" lon="0.07727">
        <ele>1674</ele>
        <time>2021-08-10T08:59:9.000Z</time>
      </trkpt>
      <trkpt lat="43.00267" lon="0.07734">
        <ele>1678</ele>
        <time>2021-08-10T08:59:15.000Z</time>
      </trkpt>
      <trkpt lat="43.00269" lon="0.07739">
        <ele>1680</ele>
        <time>2021-08-10T08:59:23.000Z</time>
      </trkpt>
      <trkpt lat="43.00271" lon="0.07745">
        <ele>1681</ele>
        <time>2021-08-10T08:59:29.000Z</time>
      </trkpt>
      <trkpt lat="43.00276" lon="0.07756">
        <ele>1687</ele>
        <time>2021-08-10T09:00:47.000Z</time>
      </trkpt>
      <trkpt lat="43.00277" lon="0.07762">
        <ele>1687</ele>
        <time>2021-08-10T09:00:57.000Z</time>
      </trkpt>
      <trkpt lat="43.00278" lon="0.07768">
        <ele>1688</ele>
        <time>2021-08-10T09:01:3.000Z</time>
      </trkpt>
      <trkpt lat="43.0028" lon="0.07775">
        <ele>1690</ele>
        <time>2021-08-10T09:01:16.000Z</time>
      </trkpt>
      <trkpt lat="43.00282" lon="0.07781">
        <ele>1691</ele>
        <time>2021-08-10T09:01:21.000Z</time>
      </trkpt>
      <trkpt lat="43.00306" lon="0.07795">
        <ele>1703</ele>
        <time>2021-08-10T09:03:38.000Z</time>
      </trkpt>
      <trkpt lat="43.00309" lon="0.078">
        <ele>1703</ele>
        <time>2021-08-10T09:03:44.000Z</time>
      </trkpt>
      <trkpt lat="43.00312" lon="0.07806">
        <ele>1703</ele>
        <time>2021-08-10T09:03:50.000Z</time>
      </trkpt>
      <trkpt lat="43.00314" lon="0.07812">
        <ele>1703</ele>
        <time>2021-08-10T09:03:55.000Z</time>
      </trkpt>
      <trkpt lat="43.00316" lon="0.07817">
        <ele>1703</ele>
        <time>2021-08-10T09:04:0.000Z</time>
      </trkpt>
      <trkpt lat="43.00318" lon="0.07824">
        <ele>1704</ele>
        <time>2021-08-10T09:04:6.000Z</time>
      </trkpt>
      <trkpt lat="43.00319" lon="0.07831">
        <ele>1704</ele>
        <time>2021-08-10T09:04:12.000Z</time>
      </trkpt>
      <trkpt lat="43.0032" lon="0.07838">
        <ele>1705</ele>
        <time>2021-08-10T09:04:18.000Z</time>
      </trkpt>
      <trkpt lat="43.00322" lon="0.07845">
        <ele>1706</ele>
        <time>2021-08-10T09:04:23.000Z</time>
      </trkpt>
      <trkpt lat="43.00324" lon="0.07851">
        <ele>1706</ele>
        <time>2021-08-10T09:04:28.000Z</time>
      </trkpt>
      <trkpt lat="43.00324" lon="0.07857">
        <ele>1707</ele>
        <time>2021-08-10T09:04:34.000Z</time>
      </trkpt>
      <trkpt lat="43.00326" lon="0.07862">
        <ele>1708</ele>
        <time>2021-08-10T09:04:40.000Z</time>
      </trkpt>
      <trkpt lat="43.00327" lon="0.07869">
        <ele>1709</ele>
        <time>2021-08-10T09:04:46.000Z</time>
      </trkpt>
      <trkpt lat="43.00329" lon="0.07875">
        <ele>1710</ele>
        <time>2021-08-10T09:04:51.000Z</time>
      </trkpt>
      <trkpt lat="43.00331" lon="0.07881">
        <ele>1711</ele>
        <time>2021-08-10T09:04:57.000Z</time>
      </trkpt>
      <trkpt lat="43.00332" lon="0.07887">
        <ele>1711</ele>
        <time>2021-08-10T09:05:3.000Z</time>
      </trkpt>
      <trkpt lat="43.00331" lon="0.07894">
        <ele>1713</ele>
        <time>2021-08-10T09:05:19.000Z</time>
      </trkpt>
      <trkpt lat="43.00331" lon="0.07901">
        <ele>1714</ele>
        <time>2021-08-10T09:05:26.000Z</time>
      </trkpt>
      <trkpt lat="43.00332" lon="0.07908">
        <ele>1715</ele>
        <time>2021-08-10T09:05:32.000Z</time>
      </trkpt>
      <trkpt lat="43.00332" lon="0.07914">
        <ele>1716</ele>
        <time>2021-08-10T09:05:38.000Z</time>
      </trkpt>
      <trkpt lat="43.00332" lon="0.07921">
        <ele>1716</ele>
        <time>2021-08-10T09:05:44.000Z</time>
      </trkpt>
      <trkpt lat="43.00332" lon="0.07928">
        <ele>1717</ele>
        <time>2021-08-10T09:05:50.000Z</time>
      </trkpt>
      <trkpt lat="43.00332" lon="0.07935">
        <ele>1718</ele>
        <time>2021-08-10T09:05:56.000Z</time>
      </trkpt>
      <trkpt lat="43.00332" lon="0.07942">
        <ele>1719</ele>
        <time>2021-08-10T09:06:8.000Z</time>
      </trkpt>
      <trkpt lat="43.00331" lon="0.07948">
        <ele>1720</ele>
        <time>2021-08-10T09:06:14.000Z</time>
      </trkpt>
      <trkpt lat="43.00332" lon="0.07955">
        <ele>1721</ele>
        <time>2021-08-10T09:06:25.000Z</time>
      </trkpt>
      <trkpt lat="43.00333" lon="0.07961">
        <ele>1721</ele>
        <time>2021-08-10T09:06:30.000Z</time>
      </trkpt>
      <trkpt lat="43.00333" lon="0.07968">
        <ele>1721</ele>
        <time>2021-08-10T09:06:38.000Z</time>
      </trkpt>
      <trkpt lat="43.00336" lon="0.07973">
        <ele>1722</ele>
        <time>2021-08-10T09:06:44.000Z</time>
      </trkpt>
      <trkpt lat="43.00336" lon="0.07979">
        <ele>1723</ele>
        <time>2021-08-10T09:09:53.000Z</time>
      </trkpt>
      <trkpt lat="43.00334" lon="0.07987">
        <ele>1723</ele>
        <time>2021-08-10T09:09:56.000Z</time>
      </trkpt>
      <trkpt lat="43.00333" lon="0.07993">
        <ele>1723</ele>
        <time>2021-08-10T09:10:0.000Z</time>
      </trkpt>
      <trkpt lat="43.00333" lon="0.07999">
        <ele>1723</ele>
        <time>2021-08-10T09:10:5.000Z</time>
      </trkpt>
      <trkpt lat="43.00335" lon="0.08006">
        <ele>1723</ele>
        <time>2021-08-10T09:10:11.000Z</time>
      </trkpt>
      <trkpt lat="43.00334" lon="0.08012">
        <ele>1723</ele>
        <time>2021-08-10T09:10:20.000Z</time>
      </trkpt>
      <trkpt lat="43.00333" lon="0.0802">
        <ele>1723</ele>
        <time>2021-08-10T09:10:23.000Z</time>
      </trkpt>
      <trkpt lat="43.00333" lon="0.08029">
        <ele>1723</ele>
        <time>2021-08-10T09:10:26.000Z</time>
      </trkpt>
      <trkpt lat="43.00331" lon="0.08038">
        <ele>1720</ele>
        <time>2021-08-10T09:10:29.000Z</time>
      </trkpt>
      <trkpt lat="43.0033" lon="0.08045">
        <ele>1720</ele>
        <time>2021-08-10T09:10:30.000Z</time>
      </trkpt>
      <trkpt lat="43.00328" lon="0.08053">
        <ele>1719</ele>
        <time>2021-08-10T09:10:32.000Z</time>
      </trkpt>
      <trkpt lat="43.00328" lon="0.08059">
        <ele>1719</ele>
        <time>2021-08-10T09:10:34.000Z</time>
      </trkpt>
      <trkpt lat="43.00327" lon="0.08065">
        <ele>1717</ele>
        <time>2021-08-10T09:10:51.000Z</time>
      </trkpt>
      <trkpt lat="43.00324" lon="0.08072">
        <ele>1716</ele>
        <time>2021-08-10T09:10:59.000Z</time>
      </trkpt>
      <trkpt lat="43.00322" lon="0.08077">
        <ele>1715</ele>
        <time>2021-08-10T09:11:9.000Z</time>
      </trkpt>
      <trkpt lat="43.00318" lon="0.08074">
        <ele>1713</ele>
        <time>2021-08-10T09:11:18.000Z</time>
      </trkpt>
      <trkpt lat="43.00315" lon="0.08079">
        <ele>1710</ele>
        <time>2021-08-10T09:11:25.000Z</time>
      </trkpt>
      <trkpt lat="43.00315" lon="0.08086">
        <ele>1710</ele>
        <time>2021-08-10T09:11:27.000Z</time>
      </trkpt>
      <trkpt lat="43.00315" lon="0.08092">
        <ele>1709</ele>
        <time>2021-08-10T09:11:29.000Z</time>
      </trkpt>
      <trkpt lat="43.00314" lon="0.08101">
        <ele>1709</ele>
        <time>2021-08-10T09:11:33.000Z</time>
      </trkpt>
      <trkpt lat="43.00312" lon="0.08108">
        <ele>1709</ele>
        <time>2021-08-10T09:11:34.000Z</time>
      </trkpt>
      <trkpt lat="43.00311" lon="0.08115">
        <ele>1708</ele>
        <time>2021-08-10T09:11:37.000Z</time>
      </trkpt>
      <trkpt lat="43.00309" lon="0.08121">
        <ele>1708</ele>
        <time>2021-08-10T09:11:39.000Z</time>
      </trkpt>
      <trkpt lat="43.00307" lon="0.08132">
        <ele>1707</ele>
        <time>2021-08-10T09:11:41.000Z</time>
      </trkpt>
      <trkpt lat="43.00306" lon="0.08138">
        <ele>1707</ele>
        <time>2021-08-10T09:11:42.000Z</time>
      </trkpt>
      <trkpt lat="43.00304" lon="0.08149">
        <ele>1706</ele>
        <time>2021-08-10T09:11:44.000Z</time>
      </trkpt>
      <trkpt lat="43.00302" lon="0.08158">
        <ele>1706</ele>
        <time>2021-08-10T09:11:46.000Z</time>
      </trkpt>
      <trkpt lat="43.00301" lon="0.08168">
        <ele>1706</ele>
        <time>2021-08-10T09:11:48.000Z</time>
      </trkpt>
      <trkpt lat="43.00299" lon="0.08178">
        <ele>1705</ele>
        <time>2021-08-10T09:11:50.000Z</time>
      </trkpt>
      <trkpt lat="43.00296" lon="0.0819">
        <ele>1705</ele>
        <time>2021-08-10T09:11:52.000Z</time>
      </trkpt>
      <trkpt lat="43.00295" lon="0.08196">
        <ele>1704</ele>
        <time>2021-08-10T09:11:53.000Z</time>
      </trkpt>
      <trkpt lat="43.00293" lon="0.08203">
        <ele>1704</ele>
        <time>2021-08-10T09:11:54.000Z</time>
      </trkpt>
      <trkpt lat="43.00291" lon="0.08213">
        <ele>1704</ele>
        <time>2021-08-10T09:11:57.000Z</time>
      </trkpt>
      <trkpt lat="43.00288" lon="0.08222">
        <ele>1703</ele>
        <time>2021-08-10T09:11:58.000Z</time>
      </trkpt>
      <trkpt lat="43.00285" lon="0.08232">
        <ele>1703</ele>
        <time>2021-08-10T09:12:0.000Z</time>
      </trkpt>
      <trkpt lat="43.00282" lon="0.08242">
        <ele>1703</ele>
        <time>2021-08-10T09:12:2.000Z</time>
      </trkpt>
      <trkpt lat="43.00282" lon="0.08248">
        <ele>1703</ele>
        <time>2021-08-10T09:12:4.000Z</time>
      </trkpt>
      <trkpt lat="43.0028" lon="0.08255">
        <ele>1703</ele>
        <time>2021-08-10T09:12:6.000Z</time>
      </trkpt>
      <trkpt lat="43.00278" lon="0.08263">
        <ele>1703</ele>
        <time>2021-08-10T09:12:9.000Z</time>
      </trkpt>
      <trkpt lat="43.00277" lon="0.08272">
        <ele>1703</ele>
        <time>2021-08-10T09:12:12.000Z</time>
      </trkpt>
      <trkpt lat="43.00275" lon="0.08281">
        <ele>1703</ele>
        <time>2021-08-10T09:12:15.000Z</time>
      </trkpt>
      <trkpt lat="43.00273" lon="0.08289">
        <ele>1704</ele>
        <time>2021-08-10T09:12:18.000Z</time>
      </trkpt>
      <trkpt lat="43.00272" lon="0.08296">
        <ele>1704</ele>
        <time>2021-08-10T09:12:21.000Z</time>
      </trkpt>
      <trkpt lat="43.00271" lon="0.08302">
        <ele>1704</ele>
        <time>2021-08-10T09:12:22.000Z</time>
      </trkpt>
      <trkpt lat="43.0027" lon="0.08309">
        <ele>1704</ele>
        <time>2021-08-10T09:12:24.000Z</time>
      </trkpt>
      <trkpt lat="43.00269" lon="0.08315">
        <ele>1704</ele>
        <time>2021-08-10T09:12:26.000Z</time>
      </trkpt>
      <trkpt lat="43.00269" lon="0.08322">
        <ele>1704</ele>
        <time>2021-08-10T09:12:28.000Z</time>
      </trkpt>
      <trkpt lat="43.00268" lon="0.08329">
        <ele>1704</ele>
        <time>2021-08-10T09:12:30.000Z</time>
      </trkpt>
      <trkpt lat="43.00267" lon="0.08335">
        <ele>1705</ele>
        <time>2021-08-10T09:12:32.000Z</time>
      </trkpt>
      <trkpt lat="43.00267" lon="0.08343">
        <ele>1705</ele>
        <time>2021-08-10T09:12:35.000Z</time>
      </trkpt>
      <trkpt lat="43.00278" lon="0.0835">
        <ele>1705</ele>
        <time>2021-08-10T09:12:38.000Z</time>
      </trkpt>
      <trkpt lat="43.00282" lon="0.08353">
        <ele>1705</ele>
        <time>2021-08-10T09:12:42.000Z</time>
      </trkpt>
      <trkpt lat="43.00284" lon="0.08359">
        <ele>1705</ele>
        <time>2021-08-10T09:12:44.000Z</time>
      </trkpt>
      <trkpt lat="43.00285" lon="0.08368">
        <ele>1705</ele>
        <time>2021-08-10T09:12:46.000Z</time>
      </trkpt>
      <trkpt lat="43.00287" lon="0.08378">
        <ele>1704</ele>
        <time>2021-08-10T09:12:48.000Z</time>
      </trkpt>
      <trkpt lat="43.00288" lon="0.08385">
        <ele>1704</ele>
        <time>2021-08-10T09:12:50.000Z</time>
      </trkpt>
      <trkpt lat="43.0029" lon="0.08391">
        <ele>1703</ele>
        <time>2021-08-10T09:12:52.000Z</time>
      </trkpt>
      <trkpt lat="43.00293" lon="0.08395">
        <ele>1702</ele>
        <time>2021-08-10T09:12:54.000Z</time>
      </trkpt>
      <trkpt lat="43.00297" lon="0.08401">
        <ele>1701</ele>
        <time>2021-08-10T09:12:56.000Z</time>
      </trkpt>
      <trkpt lat="43.00301" lon="0.08408">
        <ele>1700</ele>
        <time>2021-08-10T09:12:58.000Z</time>
      </trkpt>
      <trkpt lat="43.00306" lon="0.08416">
        <ele>1699</ele>
        <time>2021-08-10T09:13:0.000Z</time>
      </trkpt>
      <trkpt lat="43.00309" lon="0.08423">
        <ele>1698</ele>
        <time>2021-08-10T09:13:2.000Z</time>
      </trkpt>
      <trkpt lat="43.00312" lon="0.08429">
        <ele>1697</ele>
        <time>2021-08-10T09:13:4.000Z</time>
      </trkpt>
      <trkpt lat="43.00316" lon="0.08434">
        <ele>1697</ele>
        <time>2021-08-10T09:13:6.000Z</time>
      </trkpt>
      <trkpt lat="43.00319" lon="0.0844">
        <ele>1696</ele>
        <time>2021-08-10T09:13:8.000Z</time>
      </trkpt>
      <trkpt lat="43.00324" lon="0.08444">
        <ele>1696</ele>
        <time>2021-08-10T09:13:10.000Z</time>
      </trkpt>
      <trkpt lat="43.00327" lon="0.08449">
        <ele>1695</ele>
        <time>2021-08-10T09:13:13.000Z</time>
      </trkpt>
      <trkpt lat="43.00331" lon="0.08457">
        <ele>1694</ele>
        <time>2021-08-10T09:13:14.000Z</time>
      </trkpt>
      <trkpt lat="43.00336" lon="0.08467">
        <ele>1693</ele>
        <time>2021-08-10T09:13:16.000Z</time>
      </trkpt>
      <trkpt lat="43.00339" lon="0.08474">
        <ele>1692</ele>
        <time>2021-08-10T09:13:17.000Z</time>
      </trkpt>
      <trkpt lat="43.00342" lon="0.08479">
        <ele>1692</ele>
        <time>2021-08-10T09:13:18.000Z</time>
      </trkpt>
      <trkpt lat="43.00345" lon="0.08484">
        <ele>1692</ele>
        <time>2021-08-10T09:13:19.000Z</time>
      </trkpt>
      <trkpt lat="43.0035" lon="0.08488">
        <ele>1691</ele>
        <time>2021-08-10T09:13:20.000Z</time>
      </trkpt>
      <trkpt lat="43.00354" lon="0.08492">
        <ele>1691</ele>
        <time>2021-08-10T09:13:21.000Z</time>
      </trkpt>
      <trkpt lat="43.00358" lon="0.08496">
        <ele>1691</ele>
        <time>2021-08-10T09:13:22.000Z</time>
      </trkpt>
      <trkpt lat="43.00362" lon="0.08501">
        <ele>1690</ele>
        <time>2021-08-10T09:13:23.000Z</time>
      </trkpt>
      <trkpt lat="43.00365" lon="0.08506">
        <ele>1690</ele>
        <time>2021-08-10T09:13:24.000Z</time>
      </trkpt>
      <trkpt lat="43.00369" lon="0.08511">
        <ele>1690</ele>
        <time>2021-08-10T09:13:26.000Z</time>
      </trkpt>
      <trkpt lat="43.00372" lon="0.08516">
        <ele>1690</ele>
        <time>2021-08-10T09:13:26.000Z</time>
      </trkpt>
      <trkpt lat="43.00377" lon="0.08525">
        <ele>1689</ele>
        <time>2021-08-10T09:13:28.000Z</time>
      </trkpt>
      <trkpt lat="43.00383" lon="0.08533">
        <ele>1689</ele>
        <time>2021-08-10T09:13:30.000Z</time>
      </trkpt>
      <trkpt lat="43.00394" lon="0.08546">
        <ele>1688</ele>
        <time>2021-08-10T09:13:34.000Z</time>
      </trkpt>
      <trkpt lat="43.00398" lon="0.08553">
        <ele>1688</ele>
        <time>2021-08-10T09:13:36.000Z</time>
      </trkpt>
      <trkpt lat="43.00396" lon="0.08547">
        <ele>1687</ele>
        <time>2021-08-10T09:13:51.000Z</time>
      </trkpt>
      <trkpt lat="43.00393" lon="0.08543">
        <ele>1688</ele>
        <time>2021-08-10T09:13:59.000Z</time>
      </trkpt>
      <trkpt lat="43.00389" lon="0.08538">
        <ele>1688</ele>
        <time>2021-08-10T09:14:33.000Z</time>
      </trkpt>
      <trkpt lat="43.0039" lon="0.08546">
        <ele>1688</ele>
        <time>2021-08-10T09:14:58.000Z</time>
      </trkpt>
      <trkpt lat="43.00393" lon="0.08553">
        <ele>1688</ele>
        <time>2021-08-10T09:15:5.000Z</time>
      </trkpt>
      <trkpt lat="43.00396" lon="0.08558">
        <ele>1688</ele>
        <time>2021-08-10T09:15:7.000Z</time>
      </trkpt>
      <trkpt lat="43.00399" lon="0.08565">
        <ele>1688</ele>
        <time>2021-08-10T09:15:9.000Z</time>
      </trkpt>
      <trkpt lat="43.00402" lon="0.08572">
        <ele>1688</ele>
        <time>2021-08-10T09:15:11.000Z</time>
      </trkpt>
      <trkpt lat="43.00405" lon="0.08582">
        <ele>1688</ele>
        <time>2021-08-10T09:15:13.000Z</time>
      </trkpt>
      <trkpt lat="43.00409" lon="0.08592">
        <ele>1688</ele>
        <time>2021-08-10T09:15:15.000Z</time>
      </trkpt>
      <trkpt lat="43.00411" lon="0.08597">
        <ele>1688</ele>
        <time>2021-08-10T09:15:16.000Z</time>
      </trkpt>
      <trkpt lat="43.00413" lon="0.08603">
        <ele>1685</ele>
        <time>2021-08-10T09:15:17.000Z</time>
      </trkpt>
      <trkpt lat="43.00415" lon="0.08609">
        <ele>1685</ele>
        <time>2021-08-10T09:15:18.000Z</time>
      </trkpt>
      <trkpt lat="43.00419" lon="0.08615">
        <ele>1685</ele>
        <time>2021-08-10T09:15:19.000Z</time>
      </trkpt>
      <trkpt lat="43.00421" lon="0.08621">
        <ele>1684</ele>
        <time>2021-08-10T09:15:20.000Z</time>
      </trkpt>
      <trkpt lat="43.00424" lon="0.08626">
        <ele>1684</ele>
        <time>2021-08-10T09:15:21.000Z</time>
      </trkpt>
      <trkpt lat="43.00428" lon="0.08631">
        <ele>1684</ele>
        <time>2021-08-10T09:15:22.000Z</time>
      </trkpt>
      <trkpt lat="43.00435" lon="0.08635">
        <ele>1684</ele>
        <time>2021-08-10T09:15:23.000Z</time>
      </trkpt>
      <trkpt lat="43.00442" lon="0.08641">
        <ele>1684</ele>
        <time>2021-08-10T09:15:25.000Z</time>
      </trkpt>
      <trkpt lat="43.00446" lon="0.08645">
        <ele>1684</ele>
        <time>2021-08-10T09:15:27.000Z</time>
      </trkpt>
      <trkpt lat="43.0045" lon="0.08648">
        <ele>1684</ele>
        <time>2021-08-10T09:15:30.000Z</time>
      </trkpt>
      <trkpt lat="43.00456" lon="0.08651">
        <ele>1684</ele>
        <time>2021-08-10T09:15:33.000Z</time>
      </trkpt>
      <trkpt lat="43.0046" lon="0.0865">
        <ele>1684</ele>
        <time>2021-08-10T09:15:36.000Z</time>
      </trkpt>
      <trkpt lat="43.00466" lon="0.0865">
        <ele>1684</ele>
        <time>2021-08-10T09:15:39.000Z</time>
      </trkpt>
      <trkpt lat="43.0047" lon="0.08651">
        <ele>1684</ele>
        <time>2021-08-10T09:15:42.000Z</time>
      </trkpt>
      <trkpt lat="43.00475" lon="0.08652">
        <ele>1685</ele>
        <time>2021-08-10T09:15:45.000Z</time>
      </trkpt>
      <trkpt lat="43.00481" lon="0.08654">
        <ele>1685</ele>
        <time>2021-08-10T09:15:48.000Z</time>
      </trkpt>
      <trkpt lat="43.00487" lon="0.08655">
        <ele>1685</ele>
        <time>2021-08-10T09:15:51.000Z</time>
      </trkpt>
      <trkpt lat="43.00493" lon="0.08657">
        <ele>1685</ele>
        <time>2021-08-10T09:15:54.000Z</time>
      </trkpt>
      <trkpt lat="43.00497" lon="0.08659">
        <ele>1685</ele>
        <time>2021-08-10T09:15:56.000Z</time>
      </trkpt>
      <trkpt lat="43.00502" lon="0.08661">
        <ele>1685</ele>
        <time>2021-08-10T09:15:59.000Z</time>
      </trkpt>
      <trkpt lat="43.00508" lon="0.08665">
        <ele>1685</ele>
        <time>2021-08-10T09:16:2.000Z</time>
      </trkpt>
      <trkpt lat="43.00512" lon="0.08667">
        <ele>1685</ele>
        <time>2021-08-10T09:16:4.000Z</time>
      </trkpt>
      <trkpt lat="43.00517" lon="0.0867">
        <ele>1685</ele>
        <time>2021-08-10T09:16:6.000Z</time>
      </trkpt>
      <trkpt lat="43.0052" lon="0.08672">
        <ele>1685</ele>
        <time>2021-08-10T09:16:8.000Z</time>
      </trkpt>
      <trkpt lat="43.00526" lon="0.08676">
        <ele>1685</ele>
        <time>2021-08-10T09:16:11.000Z</time>
      </trkpt>
      <trkpt lat="43.0053" lon="0.08679">
        <ele>1685</ele>
        <time>2021-08-10T09:16:13.000Z</time>
      </trkpt>
      <trkpt lat="43.00534" lon="0.08683">
        <ele>1685</ele>
        <time>2021-08-10T09:16:16.000Z</time>
      </trkpt>
      <trkpt lat="43.00538" lon="0.08687">
        <ele>1686</ele>
        <time>2021-08-10T09:16:19.000Z</time>
      </trkpt>
      <trkpt lat="43.00541" lon="0.08691">
        <ele>1686</ele>
        <time>2021-08-10T09:16:22.000Z</time>
      </trkpt>
      <trkpt lat="43.00547" lon="0.08696">
        <ele>1686</ele>
        <time>2021-08-10T09:16:25.000Z</time>
      </trkpt>
      <trkpt lat="43.00552" lon="0.08701">
        <ele>1686</ele>
        <time>2021-08-10T09:16:28.000Z</time>
      </trkpt>
      <trkpt lat="43.00555" lon="0.08705">
        <ele>1686</ele>
        <time>2021-08-10T09:16:30.000Z</time>
      </trkpt>
      <trkpt lat="43.0056" lon="0.0871">
        <ele>1686</ele>
        <time>2021-08-10T09:16:33.000Z</time>
      </trkpt>
      <trkpt lat="43.00564" lon="0.08714">
        <ele>1686</ele>
        <time>2021-08-10T09:16:36.000Z</time>
      </trkpt>
      <trkpt lat="43.00567" lon="0.0873">
        <ele>1687</ele>
        <time>2021-08-10T09:16:39.000Z</time>
      </trkpt>
      <trkpt lat="43.00571" lon="0.08736">
        <ele>1687</ele>
        <time>2021-08-10T09:16:42.000Z</time>
      </trkpt>
      <trkpt lat="43.00574" lon="0.08742">
        <ele>1687</ele>
        <time>2021-08-10T09:16:45.000Z</time>
      </trkpt>
      <trkpt lat="43.00577" lon="0.08747">
        <ele>1687</ele>
        <time>2021-08-10T09:16:48.000Z</time>
      </trkpt>
      <trkpt lat="43.00581" lon="0.08753">
        <ele>1687</ele>
        <time>2021-08-10T09:16:51.000Z</time>
      </trkpt>
      <trkpt lat="43.00586" lon="0.08759">
        <ele>1687</ele>
        <time>2021-08-10T09:16:54.000Z</time>
      </trkpt>
      <trkpt lat="43.00588" lon="0.08764">
        <ele>1687</ele>
        <time>2021-08-10T09:16:56.000Z</time>
      </trkpt>
      <trkpt lat="43.00592" lon="0.0877">
        <ele>1687</ele>
        <time>2021-08-10T09:16:59.000Z</time>
      </trkpt>
      <trkpt lat="43.00596" lon="0.08776">
        <ele>1687</ele>
        <time>2021-08-10T09:17:2.000Z</time>
      </trkpt>
      <trkpt lat="43.006" lon="0.08782">
        <ele>1687</ele>
        <time>2021-08-10T09:17:5.000Z</time>
      </trkpt>
      <trkpt lat="43.00604" lon="0.08788">
        <ele>1687</ele>
        <time>2021-08-10T09:17:8.000Z</time>
      </trkpt>
      <trkpt lat="43.00608" lon="0.08794">
        <ele>1688</ele>
        <time>2021-08-10T09:17:11.000Z</time>
      </trkpt>
      <trkpt lat="43.00612" lon="0.088">
        <ele>1688</ele>
        <time>2021-08-10T09:17:14.000Z</time>
      </trkpt>
      <trkpt lat="43.00616" lon="0.08806">
        <ele>1688</ele>
        <time>2021-08-10T09:17:17.000Z</time>
      </trkpt>
      <trkpt lat="43.00618" lon="0.08811">
        <ele>1689</ele>
        <time>2021-08-10T09:17:20.000Z</time>
      </trkpt>
      <trkpt lat="43.00622" lon="0.08817">
        <ele>1689</ele>
        <time>2021-08-10T09:17:23.000Z</time>
      </trkpt>
      <trkpt lat="43.00626" lon="0.08823">
        <ele>1689</ele>
        <time>2021-08-10T09:17:26.000Z</time>
      </trkpt>
      <trkpt lat="43.00629" lon="0.08829">
        <ele>1690</ele>
        <time>2021-08-10T09:17:29.000Z</time>
      </trkpt>
      <trkpt lat="43.00633" lon="0.08834">
        <ele>1690</ele>
        <time>2021-08-10T09:17:32.000Z</time>
      </trkpt>
      <trkpt lat="43.00636" lon="0.08839">
        <ele>1690</ele>
        <time>2021-08-10T09:17:37.000Z</time>
      </trkpt>
      <trkpt lat="43.0064" lon="0.08843">
        <ele>1690</ele>
        <time>2021-08-10T09:17:40.000Z</time>
      </trkpt>
      <trkpt lat="43.00645" lon="0.08847">
        <ele>1690</ele>
        <time>2021-08-10T09:17:43.000Z</time>
      </trkpt>
      <trkpt lat="43.0065" lon="0.08853">
        <ele>1690</ele>
        <time>2021-08-10T09:17:46.000Z</time>
      </trkpt>
      <trkpt lat="43.00653" lon="0.08857">
        <ele>1690</ele>
        <time>2021-08-10T09:17:48.000Z</time>
      </trkpt>
      <trkpt lat="43.00659" lon="0.08863">
        <ele>1690</ele>
        <time>2021-08-10T09:17:51.000Z</time>
      </trkpt>
      <trkpt lat="43.00663" lon="0.08866">
        <ele>1690</ele>
        <time>2021-08-10T09:17:53.000Z</time>
      </trkpt>
      <trkpt lat="43.00668" lon="0.08871">
        <ele>1690</ele>
        <time>2021-08-10T09:17:56.000Z</time>
      </trkpt>
      <trkpt lat="43.00672" lon="0.08876">
        <ele>1690</ele>
        <time>2021-08-10T09:17:59.000Z</time>
      </trkpt>
      <trkpt lat="43.00677" lon="0.08881">
        <ele>1690</ele>
        <time>2021-08-10T09:18:2.000Z</time>
      </trkpt>
      <trkpt lat="43.00682" lon="0.08887">
        <ele>1690</ele>
        <time>2021-08-10T09:18:5.000Z</time>
      </trkpt>
      <trkpt lat="43.00686" lon="0.08892">
        <ele>1691</ele>
        <time>2021-08-10T09:18:8.000Z</time>
      </trkpt>
      <trkpt lat="43.00689" lon="0.08899">
        <ele>1691</ele>
        <time>2021-08-10T09:18:17.000Z</time>
      </trkpt>
      <trkpt lat="43.00693" lon="0.08902">
        <ele>1691</ele>
        <time>2021-08-10T09:18:20.000Z</time>
      </trkpt>
      <trkpt lat="43.00698" lon="0.08906">
        <ele>1691</ele>
        <time>2021-08-10T09:18:23.000Z</time>
      </trkpt>
      <trkpt lat="43.00703" lon="0.08911">
        <ele>1691</ele>
        <time>2021-08-10T09:18:26.000Z</time>
      </trkpt>
      <trkpt lat="43.00707" lon="0.08916">
        <ele>1691</ele>
        <time>2021-08-10T09:18:29.000Z</time>
      </trkpt>
      <trkpt lat="43.0071" lon="0.08921">
        <ele>1691</ele>
        <time>2021-08-10T09:18:31.000Z</time>
      </trkpt>
      <trkpt lat="43.00713" lon="0.08925">
        <ele>1691</ele>
        <time>2021-08-10T09:18:33.000Z</time>
      </trkpt>
      <trkpt lat="43.00718" lon="0.08931">
        <ele>1691</ele>
        <time>2021-08-10T09:18:36.000Z</time>
      </trkpt>
      <trkpt lat="43.00722" lon="0.08936">
        <ele>1691</ele>
        <time>2021-08-10T09:18:38.000Z</time>
      </trkpt>
      <trkpt lat="43.00726" lon="0.0894">
        <ele>1691</ele>
        <time>2021-08-10T09:18:40.000Z</time>
      </trkpt>
      <trkpt lat="43.00731" lon="0.08945">
        <ele>1691</ele>
        <time>2021-08-10T09:18:42.000Z</time>
      </trkpt>
      <trkpt lat="43.00737" lon="0.08951">
        <ele>1691</ele>
        <time>2021-08-10T09:18:44.000Z</time>
      </trkpt>
      <trkpt lat="43.00742" lon="0.08955">
        <ele>1691</ele>
        <time>2021-08-10T09:18:46.000Z</time>
      </trkpt>
      <trkpt lat="43.00746" lon="0.08959">
        <ele>1691</ele>
        <time>2021-08-10T09:18:48.000Z</time>
      </trkpt>
      <trkpt lat="43.00749" lon="0.08964">
        <ele>1691</ele>
        <time>2021-08-10T09:18:50.000Z</time>
      </trkpt>
      <trkpt lat="43.00753" lon="0.08967">
        <ele>1691</ele>
        <time>2021-08-10T09:18:52.000Z</time>
      </trkpt>
      <trkpt lat="43.00757" lon="0.08971">
        <ele>1691</ele>
        <time>2021-08-10T09:18:54.000Z</time>
      </trkpt>
      <trkpt lat="43.00761" lon="0.08976">
        <ele>1690</ele>
        <time>2021-08-10T09:18:56.000Z</time>
      </trkpt>
      <trkpt lat="43.00767" lon="0.08982">
        <ele>1690</ele>
        <time>2021-08-10T09:18:58.000Z</time>
      </trkpt>
      <trkpt lat="43.00771" lon="0.0899">
        <ele>1690</ele>
        <time>2021-08-10T09:19:0.000Z</time>
      </trkpt>
      <trkpt lat="43.00776" lon="0.08996">
        <ele>1690</ele>
        <time>2021-08-10T09:19:2.000Z</time>
      </trkpt>
      <trkpt lat="43.00779" lon="0.09003">
        <ele>1690</ele>
        <time>2021-08-10T09:19:4.000Z</time>
      </trkpt>
      <trkpt lat="43.00784" lon="0.09009">
        <ele>1690</ele>
        <time>2021-08-10T09:19:6.000Z</time>
      </trkpt>
      <trkpt lat="43.00788" lon="0.09015">
        <ele>1690</ele>
        <time>2021-08-10T09:19:8.000Z</time>
      </trkpt>
      <trkpt lat="43.00792" lon="0.0902">
        <ele>1689</ele>
        <time>2021-08-10T09:19:10.000Z</time>
      </trkpt>
      <trkpt lat="43.00798" lon="0.09027">
        <ele>1689</ele>
        <time>2021-08-10T09:19:12.000Z</time>
      </trkpt>
      <trkpt lat="43.00802" lon="0.09034">
        <ele>1689</ele>
        <time>2021-08-10T09:19:13.000Z</time>
      </trkpt>
      <trkpt lat="43.00807" lon="0.0904">
        <ele>1689</ele>
        <time>2021-08-10T09:19:15.000Z</time>
      </trkpt>
      <trkpt lat="43.00811" lon="0.09047">
        <ele>1688</ele>
        <time>2021-08-10T09:19:17.000Z</time>
      </trkpt>
      <trkpt lat="43.00816" lon="0.09055">
        <ele>1688</ele>
        <time>2021-08-10T09:19:19.000Z</time>
      </trkpt>
      <trkpt lat="43.00822" lon="0.09063">
        <ele>1687</ele>
        <time>2021-08-10T09:19:21.000Z</time>
      </trkpt>
      <trkpt lat="43.00828" lon="0.09071">
        <ele>1687</ele>
        <time>2021-08-10T09:19:23.000Z</time>
      </trkpt>
      <trkpt lat="43.00833" lon="0.09077">
        <ele>1687</ele>
        <time>2021-08-10T09:19:26.000Z</time>
      </trkpt>
      <trkpt lat="43.00837" lon="0.09082">
        <ele>1687</ele>
        <time>2021-08-10T09:19:27.000Z</time>
      </trkpt>
      <trkpt lat="43.0084" lon="0.09087">
        <ele>1687</ele>
        <time>2021-08-10T09:19:29.000Z</time>
      </trkpt>
      <trkpt lat="43.00843" lon="0.09092">
        <ele>1687</ele>
        <time>2021-08-10T09:19:31.000Z</time>
      </trkpt>
      <trkpt lat="43.00847" lon="0.09098">
        <ele>1687</ele>
        <time>2021-08-10T09:19:34.000Z</time>
      </trkpt>
      <trkpt lat="43.00851" lon="0.09104">
        <ele>1687</ele>
        <time>2021-08-10T09:19:37.000Z</time>
      </trkpt>
      <trkpt lat="43.00855" lon="0.0911">
        <ele>1686</ele>
        <time>2021-08-10T09:19:39.000Z</time>
      </trkpt>
      <trkpt lat="43.00859" lon="0.09116">
        <ele>1686</ele>
        <time>2021-08-10T09:19:41.000Z</time>
      </trkpt>
      <trkpt lat="43.00863" lon="0.09124">
        <ele>1685</ele>
        <time>2021-08-10T09:19:43.000Z</time>
      </trkpt>
      <trkpt lat="43.00868" lon="0.09132">
        <ele>1685</ele>
        <time>2021-08-10T09:19:45.000Z</time>
      </trkpt>
      <trkpt lat="43.00872" lon="0.09141">
        <ele>1685</ele>
        <time>2021-08-10T09:19:47.000Z</time>
      </trkpt>
      <trkpt lat="43.00877" lon="0.0915">
        <ele>1685</ele>
        <time>2021-08-10T09:19:49.000Z</time>
      </trkpt>
      <trkpt lat="43.00881" lon="0.09157">
        <ele>1685</ele>
        <time>2021-08-10T09:19:51.000Z</time>
      </trkpt>
      <trkpt lat="43.00884" lon="0.09164">
        <ele>1684</ele>
        <time>2021-08-10T09:19:53.000Z</time>
      </trkpt>
      <trkpt lat="43.00887" lon="0.09169">
        <ele>1684</ele>
        <time>2021-08-10T09:19:55.000Z</time>
      </trkpt>
      <trkpt lat="43.00891" lon="0.09175">
        <ele>1684</ele>
        <time>2021-08-10T09:19:57.000Z</time>
      </trkpt>
      <trkpt lat="43.00895" lon="0.09181">
        <ele>1683</ele>
        <time>2021-08-10T09:19:59.000Z</time>
      </trkpt>
      <trkpt lat="43.00901" lon="0.09186">
        <ele>1683</ele>
        <time>2021-08-10T09:20:1.000Z</time>
      </trkpt>
      <trkpt lat="43.00906" lon="0.09191">
        <ele>1683</ele>
        <time>2021-08-10T09:20:4.000Z</time>
      </trkpt>
      <trkpt lat="43.00912" lon="0.09194">
        <ele>1682</ele>
        <time>2021-08-10T09:20:6.000Z</time>
      </trkpt>
      <trkpt lat="43.00917" lon="0.09199">
        <ele>1682</ele>
        <time>2021-08-10T09:20:8.000Z</time>
      </trkpt>
      <trkpt lat="43.00923" lon="0.09204">
        <ele>1681</ele>
        <time>2021-08-10T09:20:10.000Z</time>
      </trkpt>
      <trkpt lat="43.00928" lon="0.09209">
        <ele>1681</ele>
        <time>2021-08-10T09:20:13.000Z</time>
      </trkpt>
      <trkpt lat="43.00933" lon="0.09215">
        <ele>1680</ele>
        <time>2021-08-10T09:20:14.000Z</time>
      </trkpt>
      <trkpt lat="43.00939" lon="0.09221">
        <ele>1679</ele>
        <time>2021-08-10T09:20:16.000Z</time>
      </trkpt>
      <trkpt lat="43.00945" lon="0.09227">
        <ele>1679</ele>
        <time>2021-08-10T09:20:18.000Z</time>
      </trkpt>
      <trkpt lat="43.00948" lon="0.09233">
        <ele>1678</ele>
        <time>2021-08-10T09:20:33.000Z</time>
      </trkpt>
      <trkpt lat="43.0095" lon="0.09238">
        <ele>1678</ele>
        <time>2021-08-10T09:20:37.000Z</time>
      </trkpt>
      <trkpt lat="43.00954" lon="0.09242">
        <ele>1678</ele>
        <time>2021-08-10T09:20:39.000Z</time>
      </trkpt>
      <trkpt lat="43.00958" lon="0.09247">
        <ele>1678</ele>
        <time>2021-08-10T09:20:41.000Z</time>
      </trkpt>
      <trkpt lat="43.00962" lon="0.0925">
        <ele>1677</ele>
        <time>2021-08-10T09:20:43.000Z</time>
      </trkpt>
      <trkpt lat="43.00966" lon="0.09255">
        <ele>1677</ele>
        <time>2021-08-10T09:20:45.000Z</time>
      </trkpt>
      <trkpt lat="43.0097" lon="0.09261">
        <ele>1676</ele>
        <time>2021-08-10T09:20:48.000Z</time>
      </trkpt>
      <trkpt lat="43.00974" lon="0.09265">
        <ele>1676</ele>
        <time>2021-08-10T09:20:51.000Z</time>
      </trkpt>
      <trkpt lat="43.00977" lon="0.09271">
        <ele>1675</ele>
        <time>2021-08-10T09:20:55.000Z</time>
      </trkpt>
      <trkpt lat="43.0098" lon="0.09275">
        <ele>1675</ele>
        <time>2021-08-10T09:20:57.000Z</time>
      </trkpt>
      <trkpt lat="43.00985" lon="0.09279">
        <ele>1675</ele>
        <time>2021-08-10T09:20:59.000Z</time>
      </trkpt>
      <trkpt lat="43.0099" lon="0.09284">
        <ele>1674</ele>
        <time>2021-08-10T09:21:1.000Z</time>
      </trkpt>
      <trkpt lat="43.00996" lon="0.0929">
        <ele>1674</ele>
        <time>2021-08-10T09:21:3.000Z</time>
      </trkpt>
      <trkpt lat="43.00999" lon="0.09295">
        <ele>1674</ele>
        <time>2021-08-10T09:21:5.000Z</time>
      </trkpt>
      <trkpt lat="43.01001" lon="0.09303">
        <ele>1674</ele>
        <time>2021-08-10T09:21:8.000Z</time>
      </trkpt>
      <trkpt lat="43.01003" lon="0.0931">
        <ele>1674</ele>
        <time>2021-08-10T09:21:12.000Z</time>
      </trkpt>
      <trkpt lat="43.01008" lon="0.0931">
        <ele>1674</ele>
        <time>2021-08-10T09:23:40.000Z</time>
      </trkpt>
      <trkpt lat="43.01015" lon="0.09309">
        <ele>1674</ele>
        <time>2021-08-10T09:23:42.000Z</time>
      </trkpt>
      <trkpt lat="43.01021" lon="0.0931">
        <ele>1674</ele>
        <time>2021-08-10T09:23:44.000Z</time>
      </trkpt>
      <trkpt lat="43.01026" lon="0.09312">
        <ele>1674</ele>
        <time>2021-08-10T09:23:46.000Z</time>
      </trkpt>
      <trkpt lat="43.01032" lon="0.09314">
        <ele>1673</ele>
        <time>2021-08-10T09:23:48.000Z</time>
      </trkpt>
      <trkpt lat="43.01037" lon="0.09317">
        <ele>1673</ele>
        <time>2021-08-10T09:23:50.000Z</time>
      </trkpt>
      <trkpt lat="43.01043" lon="0.09319">
        <ele>1672</ele>
        <time>2021-08-10T09:23:53.000Z</time>
      </trkpt>
      <trkpt lat="43.01049" lon="0.09322">
        <ele>1672</ele>
        <time>2021-08-10T09:23:54.000Z</time>
      </trkpt>
      <trkpt lat="43.01056" lon="0.09325">
        <ele>1671</ele>
        <time>2021-08-10T09:23:56.000Z</time>
      </trkpt>
      <trkpt lat="43.01062" lon="0.0933">
        <ele>1671</ele>
        <time>2021-08-10T09:23:58.000Z</time>
      </trkpt>
      <trkpt lat="43.01067" lon="0.09335">
        <ele>1671</ele>
        <time>2021-08-10T09:24:0.000Z</time>
      </trkpt>
      <trkpt lat="43.01072" lon="0.09339">
        <ele>1671</ele>
        <time>2021-08-10T09:24:2.000Z</time>
      </trkpt>
      <trkpt lat="43.01076" lon="0.09343">
        <ele>1670</ele>
        <time>2021-08-10T09:24:4.000Z</time>
      </trkpt>
      <trkpt lat="43.0108" lon="0.09348">
        <ele>1670</ele>
        <time>2021-08-10T09:24:6.000Z</time>
      </trkpt>
      <trkpt lat="43.01084" lon="0.09355">
        <ele>1669</ele>
        <time>2021-08-10T09:24:8.000Z</time>
      </trkpt>
      <trkpt lat="43.01087" lon="0.09362">
        <ele>1669</ele>
        <time>2021-08-10T09:24:10.000Z</time>
      </trkpt>
      <trkpt lat="43.01091" lon="0.09369">
        <ele>1668</ele>
        <time>2021-08-10T09:24:12.000Z</time>
      </trkpt>
      <trkpt lat="43.01096" lon="0.09376">
        <ele>1667</ele>
        <time>2021-08-10T09:24:14.000Z</time>
      </trkpt>
      <trkpt lat="43.01102" lon="0.09382">
        <ele>1666</ele>
        <time>2021-08-10T09:24:16.000Z</time>
      </trkpt>
      <trkpt lat="43.01106" lon="0.09388">
        <ele>1665</ele>
        <time>2021-08-10T09:24:18.000Z</time>
      </trkpt>
      <trkpt lat="43.01111" lon="0.09393">
        <ele>1664</ele>
        <time>2021-08-10T09:24:20.000Z</time>
      </trkpt>
      <trkpt lat="43.01117" lon="0.09398">
        <ele>1661</ele>
        <time>2021-08-10T09:24:23.000Z</time>
      </trkpt>
      <trkpt lat="43.01121" lon="0.09399">
        <ele>1660</ele>
        <time>2021-08-10T09:24:25.000Z</time>
      </trkpt>
      <trkpt lat="43.01123" lon="0.09405">
        <ele>1657</ele>
        <time>2021-08-10T09:24:33.000Z</time>
      </trkpt>
      <trkpt lat="43.0112" lon="0.0941">
        <ele>1657</ele>
        <time>2021-08-10T09:24:38.000Z</time>
      </trkpt>
      <trkpt lat="43.01117" lon="0.09415">
        <ele>1657</ele>
        <time>2021-08-10T09:24:49.000Z</time>
      </trkpt>
      <trkpt lat="43.01117" lon="0.09409">
        <ele>1657</ele>
        <time>2021-08-10T09:25:47.000Z</time>
      </trkpt>
      <trkpt lat="43.01119" lon="0.09403">
        <ele>1657</ele>
        <time>2021-08-10T09:25:53.000Z</time>
      </trkpt>
      <trkpt lat="43.01124" lon="0.09401">
        <ele>1657</ele>
        <time>2021-08-10T09:26:4.000Z</time>
      </trkpt>
      <trkpt lat="43.0113" lon="0.09403">
        <ele>1657</ele>
        <time>2021-08-10T09:26:7.000Z</time>
      </trkpt>
      <trkpt lat="43.01135" lon="0.09405">
        <ele>1657</ele>
        <time>2021-08-10T09:26:9.000Z</time>
      </trkpt>
      <trkpt lat="43.0114" lon="0.09406">
        <ele>1657</ele>
        <time>2021-08-10T09:26:11.000Z</time>
      </trkpt>
      <trkpt lat="43.01145" lon="0.09408">
        <ele>1653</ele>
        <time>2021-08-10T09:26:13.000Z</time>
      </trkpt>
      <trkpt lat="43.01152" lon="0.0941">
        <ele>1652</ele>
        <time>2021-08-10T09:26:16.000Z</time>
      </trkpt>
      <trkpt lat="43.01154" lon="0.09403">
        <ele>1651</ele>
        <time>2021-08-10T09:26:36.000Z</time>
      </trkpt>
      <trkpt lat="43.01154" lon="0.09395">
        <ele>1650</ele>
        <time>2021-08-10T09:26:39.000Z</time>
      </trkpt>
      <trkpt lat="43.01153" lon="0.09386">
        <ele>1650</ele>
        <time>2021-08-10T09:26:42.000Z</time>
      </trkpt>
      <trkpt lat="43.01153" lon="0.09379">
        <ele>1649</ele>
        <time>2021-08-10T09:26:45.000Z</time>
      </trkpt>
      <trkpt lat="43.01153" lon="0.09372">
        <ele>1648</ele>
        <time>2021-08-10T09:26:48.000Z</time>
      </trkpt>
      <trkpt lat="43.01153" lon="0.09366">
        <ele>1647</ele>
        <time>2021-08-10T09:26:51.000Z</time>
      </trkpt>
      <trkpt lat="43.01152" lon="0.09359">
        <ele>1646</ele>
        <time>2021-08-10T09:26:55.000Z</time>
      </trkpt>
      <trkpt lat="43.01156" lon="0.09358">
        <ele>1645</ele>
        <time>2021-08-10T09:27:1.000Z</time>
      </trkpt>
      <trkpt lat="43.01161" lon="0.0936">
        <ele>1643</ele>
        <time>2021-08-10T09:27:6.000Z</time>
      </trkpt>
      <trkpt lat="43.01166" lon="0.09362">
        <ele>1641</ele>
        <time>2021-08-10T09:27:12.000Z</time>
      </trkpt>
      <trkpt lat="43.0117" lon="0.09365">
        <ele>1639</ele>
        <time>2021-08-10T09:27:21.000Z</time>
      </trkpt>
      <trkpt lat="43.01174" lon="0.09369">
        <ele>1637</ele>
        <time>2021-08-10T09:27:26.000Z</time>
      </trkpt>
      <trkpt lat="43.01178" lon="0.09372">
        <ele>1637</ele>
        <time>2021-08-10T09:27:30.000Z</time>
      </trkpt>
      <trkpt lat="43.01183" lon="0.09376">
        <ele>1636</ele>
        <time>2021-08-10T09:27:34.000Z</time>
      </trkpt>
      <trkpt lat="43.01186" lon="0.09381">
        <ele>1634</ele>
        <time>2021-08-10T09:27:42.000Z</time>
      </trkpt>
      <trkpt lat="43.0119" lon="0.09384">
        <ele>1633</ele>
        <time>2021-08-10T09:27:46.000Z</time>
      </trkpt>
      <trkpt lat="43.01195" lon="0.0939">
        <ele>1631</ele>
        <time>2021-08-10T09:27:51.000Z</time>
      </trkpt>
      <trkpt lat="43.01199" lon="0.09397">
        <ele>1630</ele>
        <time>2021-08-10T09:27:53.000Z</time>
      </trkpt>
      <trkpt lat="43.01202" lon="0.09403">
        <ele>1629</ele>
        <time>2021-08-10T09:27:55.000Z</time>
      </trkpt>
      <trkpt lat="43.01206" lon="0.09409">
        <ele>1628</ele>
        <time>2021-08-10T09:27:58.000Z</time>
      </trkpt>
      <trkpt lat="43.01209" lon="0.09413">
        <ele>1627</ele>
        <time>2021-08-10T09:28:0.000Z</time>
      </trkpt>
      <trkpt lat="43.01214" lon="0.09419">
        <ele>1626</ele>
        <time>2021-08-10T09:28:2.000Z</time>
      </trkpt>
      <trkpt lat="43.01218" lon="0.09424">
        <ele>1625</ele>
        <time>2021-08-10T09:28:4.000Z</time>
      </trkpt>
      <trkpt lat="43.01224" lon="0.09429">
        <ele>1624</ele>
        <time>2021-08-10T09:28:7.000Z</time>
      </trkpt>
      <trkpt lat="43.01229" lon="0.0943">
        <ele>1622</ele>
        <time>2021-08-10T09:28:10.000Z</time>
      </trkpt>
      <trkpt lat="43.01234" lon="0.09425">
        <ele>1621</ele>
        <time>2021-08-10T09:28:13.000Z</time>
      </trkpt>
      <trkpt lat="43.01239" lon="0.09422">
        <ele>1619</ele>
        <time>2021-08-10T09:28:16.000Z</time>
      </trkpt>
      <trkpt lat="43.01243" lon="0.09419">
        <ele>1617</ele>
        <time>2021-08-10T09:28:18.000Z</time>
      </trkpt>
      <trkpt lat="43.01247" lon="0.09415">
        <ele>1616</ele>
        <time>2021-08-10T09:28:20.000Z</time>
      </trkpt>
      <trkpt lat="43.01252" lon="0.09412">
        <ele>1614</ele>
        <time>2021-08-10T09:28:22.000Z</time>
      </trkpt>
      <trkpt lat="43.01255" lon="0.09408">
        <ele>1613</ele>
        <time>2021-08-10T09:28:24.000Z</time>
      </trkpt>
      <trkpt lat="43.01257" lon="0.09401">
        <ele>1612</ele>
        <time>2021-08-10T09:28:26.000Z</time>
      </trkpt>
      <trkpt lat="43.01258" lon="0.09394">
        <ele>1610</ele>
        <time>2021-08-10T09:28:28.000Z</time>
      </trkpt>
      <trkpt lat="43.01259" lon="0.09387">
        <ele>1608</ele>
        <time>2021-08-10T09:28:31.000Z</time>
      </trkpt>
      <trkpt lat="43.0126" lon="0.09381">
        <ele>1606</ele>
        <time>2021-08-10T09:28:33.000Z</time>
      </trkpt>
      <trkpt lat="43.01261" lon="0.09374">
        <ele>1605</ele>
        <time>2021-08-10T09:28:35.000Z</time>
      </trkpt>
      <trkpt lat="43.01261" lon="0.09366">
        <ele>1604</ele>
        <time>2021-08-10T09:28:37.000Z</time>
      </trkpt>
      <trkpt lat="43.01261" lon="0.09357">
        <ele>1601</ele>
        <time>2021-08-10T09:28:40.000Z</time>
      </trkpt>
      <trkpt lat="43.01259" lon="0.0935">
        <ele>1600</ele>
        <time>2021-08-10T09:28:42.000Z</time>
      </trkpt>
      <trkpt lat="43.01257" lon="0.09344">
        <ele>1598</ele>
        <time>2021-08-10T09:28:50.000Z</time>
      </trkpt>
      <trkpt lat="43.01257" lon="0.09338">
        <ele>1597</ele>
        <time>2021-08-10T09:28:52.000Z</time>
      </trkpt>
      <trkpt lat="43.01256" lon="0.09329">
        <ele>1596</ele>
        <time>2021-08-10T09:28:54.000Z</time>
      </trkpt>
      <trkpt lat="43.01256" lon="0.0932">
        <ele>1594</ele>
        <time>2021-08-10T09:28:56.000Z</time>
      </trkpt>
      <trkpt lat="43.01254" lon="0.0931">
        <ele>1592</ele>
        <time>2021-08-10T09:28:58.000Z</time>
      </trkpt>
      <trkpt lat="43.01251" lon="0.093">
        <ele>1591</ele>
        <time>2021-08-10T09:29:0.000Z</time>
      </trkpt>
      <trkpt lat="43.01251" lon="0.09293">
        <ele>1590</ele>
        <time>2021-08-10T09:29:3.000Z</time>
      </trkpt>
      <trkpt lat="43.01256" lon="0.09295">
        <ele>1588</ele>
        <time>2021-08-10T09:29:10.000Z</time>
      </trkpt>
      <trkpt lat="43.01262" lon="0.09298">
        <ele>1587</ele>
        <time>2021-08-10T09:29:12.000Z</time>
      </trkpt>
      <trkpt lat="43.01268" lon="0.09301">
        <ele>1587</ele>
        <time>2021-08-10T09:29:14.000Z</time>
      </trkpt>
      <trkpt lat="43.01275" lon="0.09305">
        <ele>1585</ele>
        <time>2021-08-10T09:29:16.000Z</time>
      </trkpt>
      <trkpt lat="43.01281" lon="0.09309">
        <ele>1584</ele>
        <time>2021-08-10T09:29:18.000Z</time>
      </trkpt>
      <trkpt lat="43.01288" lon="0.09315">
        <ele>1583</ele>
        <time>2021-08-10T09:29:20.000Z</time>
      </trkpt>
      <trkpt lat="43.01292" lon="0.0932">
        <ele>1582</ele>
        <time>2021-08-10T09:29:21.000Z</time>
      </trkpt>
      <trkpt lat="43.01297" lon="0.09327">
        <ele>1581</ele>
        <time>2021-08-10T09:29:23.000Z</time>
      </trkpt>
      <trkpt lat="43.01303" lon="0.0933">
        <ele>1580</ele>
        <time>2021-08-10T09:29:25.000Z</time>
      </trkpt>
      <trkpt lat="43.01308" lon="0.09332">
        <ele>1579</ele>
        <time>2021-08-10T09:29:27.000Z</time>
      </trkpt>
      <trkpt lat="43.01315" lon="0.09335">
        <ele>1577</ele>
        <time>2021-08-10T09:29:29.000Z</time>
      </trkpt>
      <trkpt lat="43.01321" lon="0.09337">
        <ele>1575</ele>
        <time>2021-08-10T09:29:31.000Z</time>
      </trkpt>
      <trkpt lat="43.01328" lon="0.09339">
        <ele>1574</ele>
        <time>2021-08-10T09:29:33.000Z</time>
      </trkpt>
      <trkpt lat="43.01334" lon="0.09341">
        <ele>1572</ele>
        <time>2021-08-10T09:29:35.000Z</time>
      </trkpt>
      <trkpt lat="43.01341" lon="0.09344">
        <ele>1570</ele>
        <time>2021-08-10T09:29:37.000Z</time>
      </trkpt>
      <trkpt lat="43.01347" lon="0.09347">
        <ele>1569</ele>
        <time>2021-08-10T09:29:39.000Z</time>
      </trkpt>
      <trkpt lat="43.01354" lon="0.09351">
        <ele>1567</ele>
        <time>2021-08-10T09:29:41.000Z</time>
      </trkpt>
      <trkpt lat="43.01358" lon="0.09353">
        <ele>1566</ele>
        <time>2021-08-10T09:29:42.000Z</time>
      </trkpt>
      <trkpt lat="43.01366" lon="0.09357">
        <ele>1564</ele>
        <time>2021-08-10T09:29:44.000Z</time>
      </trkpt>
      <trkpt lat="43.01372" lon="0.0936">
        <ele>1562</ele>
        <time>2021-08-10T09:29:46.000Z</time>
      </trkpt>
      <trkpt lat="43.01377" lon="0.09363">
        <ele>1561</ele>
        <time>2021-08-10T09:29:48.000Z</time>
      </trkpt>
      <trkpt lat="43.01383" lon="0.09365">
        <ele>1559</ele>
        <time>2021-08-10T09:29:50.000Z</time>
      </trkpt>
      <trkpt lat="43.01389" lon="0.09368">
        <ele>1557</ele>
        <time>2021-08-10T09:29:52.000Z</time>
      </trkpt>
      <trkpt lat="43.01395" lon="0.09371">
        <ele>1555</ele>
        <time>2021-08-10T09:29:54.000Z</time>
      </trkpt>
      <trkpt lat="43.01401" lon="0.09375">
        <ele>1553</ele>
        <time>2021-08-10T09:29:56.000Z</time>
      </trkpt>
      <trkpt lat="43.01406" lon="0.09377">
        <ele>1552</ele>
        <time>2021-08-10T09:30:0.000Z</time>
      </trkpt>
      <trkpt lat="43.01413" lon="0.09375">
        <ele>1549</ele>
        <time>2021-08-10T09:30:11.000Z</time>
      </trkpt>
      <trkpt lat="43.01419" lon="0.09373">
        <ele>1546</ele>
        <time>2021-08-10T09:30:13.000Z</time>
      </trkpt>
      <trkpt lat="43.01427" lon="0.09371">
        <ele>1545</ele>
        <time>2021-08-10T09:30:15.000Z</time>
      </trkpt>
      <trkpt lat="43.01432" lon="0.09369">
        <ele>1544</ele>
        <time>2021-08-10T09:30:17.000Z</time>
      </trkpt>
      <trkpt lat="43.01438" lon="0.09366">
        <ele>1541</ele>
        <time>2021-08-10T09:30:20.000Z</time>
      </trkpt>
      <trkpt lat="43.01444" lon="0.09358">
        <ele>1539</ele>
        <time>2021-08-10T09:30:22.000Z</time>
      </trkpt>
      <trkpt lat="43.0145" lon="0.09351">
        <ele>1537</ele>
        <time>2021-08-10T09:30:24.000Z</time>
      </trkpt>
      <trkpt lat="43.01458" lon="0.09344">
        <ele>1535</ele>
        <time>2021-08-10T09:30:26.000Z</time>
      </trkpt>
      <trkpt lat="43.01462" lon="0.09341">
        <ele>1533</ele>
        <time>2021-08-10T09:30:27.000Z</time>
      </trkpt>
      <trkpt lat="43.0147" lon="0.09338">
        <ele>1531</ele>
        <time>2021-08-10T09:30:29.000Z</time>
      </trkpt>
      <trkpt lat="43.01479" lon="0.09335">
        <ele>1528</ele>
        <time>2021-08-10T09:30:31.000Z</time>
      </trkpt>
      <trkpt lat="43.01483" lon="0.09335">
        <ele>1527</ele>
        <time>2021-08-10T09:30:32.000Z</time>
      </trkpt>
      <trkpt lat="43.01492" lon="0.09336">
        <ele>1525</ele>
        <time>2021-08-10T09:30:34.000Z</time>
      </trkpt>
      <trkpt lat="43.015" lon="0.09338">
        <ele>1523</ele>
        <time>2021-08-10T09:30:36.000Z</time>
      </trkpt>
      <trkpt lat="43.01506" lon="0.09339">
        <ele>1521</ele>
        <time>2021-08-10T09:30:37.000Z</time>
      </trkpt>
      <trkpt lat="43.01511" lon="0.09341">
        <ele>1520</ele>
        <time>2021-08-10T09:30:38.000Z</time>
      </trkpt>
      <trkpt lat="43.01516" lon="0.09342">
        <ele>1519</ele>
        <time>2021-08-10T09:30:39.000Z</time>
      </trkpt>
      <trkpt lat="43.01521" lon="0.09343">
        <ele>1518</ele>
        <time>2021-08-10T09:30:40.000Z</time>
      </trkpt>
      <trkpt lat="43.01527" lon="0.09345">
        <ele>1517</ele>
        <time>2021-08-10T09:30:41.000Z</time>
      </trkpt>
      <trkpt lat="43.01532" lon="0.09346">
        <ele>1516</ele>
        <time>2021-08-10T09:30:42.000Z</time>
      </trkpt>
      <trkpt lat="43.01537" lon="0.09347">
        <ele>1515</ele>
        <time>2021-08-10T09:30:43.000Z</time>
      </trkpt>
      <trkpt lat="43.01542" lon="0.09349">
        <ele>1515</ele>
        <time>2021-08-10T09:30:44.000Z</time>
      </trkpt>
      <trkpt lat="43.01548" lon="0.09352">
        <ele>1514</ele>
        <time>2021-08-10T09:30:46.000Z</time>
      </trkpt>
      <trkpt lat="43.01553" lon="0.09354">
        <ele>1513</ele>
        <time>2021-08-10T09:30:50.000Z</time>
      </trkpt>
      <trkpt lat="43.01551" lon="0.0935">
        <ele>1512</ele>
        <time>2021-08-10T09:31:46.000Z</time>
      </trkpt>
      <trkpt lat="43.01551" lon="0.09357">
        <ele>1512</ele>
        <time>2021-08-10T09:32:3.000Z</time>
      </trkpt>
      <trkpt lat="43.01549" lon="0.09363">
        <ele>1512</ele>
        <time>2021-08-10T09:32:8.000Z</time>
      </trkpt>
      <trkpt lat="43.0155" lon="0.09353">
        <ele>1512</ele>
        <time>2021-08-10T09:32:47.000Z</time>
      </trkpt>
      <trkpt lat="43.0155" lon="0.09346">
        <ele>1512</ele>
        <time>2021-08-10T09:32:51.000Z</time>
      </trkpt>
      <trkpt lat="43.0155" lon="0.09338">
        <ele>1512</ele>
        <time>2021-08-10T09:32:54.000Z</time>
      </trkpt>
      <trkpt lat="43.0155" lon="0.0933">
        <ele>1512</ele>
        <time>2021-08-10T09:32:56.000Z</time>
      </trkpt>
      <trkpt lat="43.01551" lon="0.09322">
        <ele>1512</ele>
        <time>2021-08-10T09:32:58.000Z</time>
      </trkpt>
      <trkpt lat="43.01552" lon="0.09314">
        <ele>1512</ele>
        <time>2021-08-10T09:33:0.000Z</time>
      </trkpt>
      <trkpt lat="43.01555" lon="0.09306">
        <ele>1512</ele>
        <time>2021-08-10T09:33:2.000Z</time>
      </trkpt>
      <trkpt lat="43.01559" lon="0.09298">
        <ele>1505</ele>
        <time>2021-08-10T09:33:4.000Z</time>
      </trkpt>
      <trkpt lat="43.01563" lon="0.0929">
        <ele>1504</ele>
        <time>2021-08-10T09:33:6.000Z</time>
      </trkpt>
      <trkpt lat="43.01566" lon="0.09283">
        <ele>1502</ele>
        <time>2021-08-10T09:33:8.000Z</time>
      </trkpt>
      <trkpt lat="43.01571" lon="0.09278">
        <ele>1500</ele>
        <time>2021-08-10T09:33:10.000Z</time>
      </trkpt>
      <trkpt lat="43.01576" lon="0.09273">
        <ele>1499</ele>
        <time>2021-08-10T09:33:12.000Z</time>
      </trkpt>
      <trkpt lat="43.01579" lon="0.09264">
        <ele>1498</ele>
        <time>2021-08-10T09:33:14.000Z</time>
      </trkpt>
      <trkpt lat="43.01582" lon="0.09256">
        <ele>1497</ele>
        <time>2021-08-10T09:33:16.000Z</time>
      </trkpt>
      <trkpt lat="43.01584" lon="0.09248">
        <ele>1495</ele>
        <time>2021-08-10T09:33:18.000Z</time>
      </trkpt>
      <trkpt lat="43.01586" lon="0.09241">
        <ele>1494</ele>
        <time>2021-08-10T09:33:20.000Z</time>
      </trkpt>
      <trkpt lat="43.01589" lon="0.09234">
        <ele>1493</ele>
        <time>2021-08-10T09:33:22.000Z</time>
      </trkpt>
      <trkpt lat="43.01593" lon="0.09226">
        <ele>1490</ele>
        <time>2021-08-10T09:33:24.000Z</time>
      </trkpt>
      <trkpt lat="43.01596" lon="0.09215">
        <ele>1488</ele>
        <time>2021-08-10T09:33:26.000Z</time>
      </trkpt>
      <trkpt lat="43.016" lon="0.09206">
        <ele>1486</ele>
        <time>2021-08-10T09:33:28.000Z</time>
      </trkpt>
      <trkpt lat="43.01606" lon="0.09199">
        <ele>1484</ele>
        <time>2021-08-10T09:33:30.000Z</time>
      </trkpt>
      <trkpt lat="43.01612" lon="0.09191">
        <ele>1482</ele>
        <time>2021-08-10T09:33:32.000Z</time>
      </trkpt>
      <trkpt lat="43.01617" lon="0.09183">
        <ele>1480</ele>
        <time>2021-08-10T09:33:34.000Z</time>
      </trkpt>
      <trkpt lat="43.01624" lon="0.09178">
        <ele>1479</ele>
        <time>2021-08-10T09:33:36.000Z</time>
      </trkpt>
      <trkpt lat="43.01629" lon="0.09179">
        <ele>1478</ele>
        <time>2021-08-10T09:33:38.000Z</time>
      </trkpt>
      <trkpt lat="43.01631" lon="0.09185">
        <ele>1477</ele>
        <time>2021-08-10T09:33:41.000Z</time>
      </trkpt>
      <trkpt lat="43.01632" lon="0.09193">
        <ele>1476</ele>
        <time>2021-08-10T09:33:44.000Z</time>
      </trkpt>
      <trkpt lat="43.01634" lon="0.09199">
        <ele>1475</ele>
        <time>2021-08-10T09:33:46.000Z</time>
      </trkpt>
      <trkpt lat="43.01634" lon="0.09206">
        <ele>1475</ele>
        <time>2021-08-10T09:33:54.000Z</time>
      </trkpt>
      <trkpt lat="43.01633" lon="0.09212">
        <ele>1475</ele>
        <time>2021-08-10T09:34:0.000Z</time>
      </trkpt>
      <trkpt lat="43.01633" lon="0.0922">
        <ele>1475</ele>
        <time>2021-08-10T09:34:4.000Z</time>
      </trkpt>
      <trkpt lat="43.01633" lon="0.09226">
        <ele>1475</ele>
        <time>2021-08-10T09:34:7.000Z</time>
      </trkpt>
      <trkpt lat="43.01632" lon="0.09233">
        <ele>1475</ele>
        <time>2021-08-10T09:34:11.000Z</time>
      </trkpt>
      <trkpt lat="43.0163" lon="0.0924">
        <ele>1475</ele>
        <time>2021-08-10T09:34:15.000Z</time>
      </trkpt>
      <trkpt lat="43.0163" lon="0.09249">
        <ele>1474</ele>
        <time>2021-08-10T09:34:18.000Z</time>
      </trkpt>
      <trkpt lat="43.01629" lon="0.09256">
        <ele>1474</ele>
        <time>2021-08-10T09:34:21.000Z</time>
      </trkpt>
      <trkpt lat="43.01628" lon="0.09263">
        <ele>1474</ele>
        <time>2021-08-10T09:34:24.000Z</time>
      </trkpt>
      <trkpt lat="43.01628" lon="0.09273">
        <ele>1473</ele>
        <time>2021-08-10T09:34:26.000Z</time>
      </trkpt>
      <trkpt lat="43.01628" lon="0.09279">
        <ele>1473</ele>
        <time>2021-08-10T09:34:27.000Z</time>
      </trkpt>
      <trkpt lat="43.01628" lon="0.09286">
        <ele>1472</ele>
        <time>2021-08-10T09:34:28.000Z</time>
      </trkpt>
      <trkpt lat="43.01627" lon="0.09297">
        <ele>1472</ele>
        <time>2021-08-10T09:34:30.000Z</time>
      </trkpt>
      <trkpt lat="43.01628" lon="0.09306">
        <ele>1472</ele>
        <time>2021-08-10T09:34:32.000Z</time>
      </trkpt>
      <trkpt lat="43.01629" lon="0.09313">
        <ele>1471</ele>
        <time>2021-08-10T09:34:34.000Z</time>
      </trkpt>
      <trkpt lat="43.01629" lon="0.09323">
        <ele>1471</ele>
        <time>2021-08-10T09:34:36.000Z</time>
      </trkpt>
      <trkpt lat="43.0163" lon="0.09332">
        <ele>1471</ele>
        <time>2021-08-10T09:34:38.000Z</time>
      </trkpt>
      <trkpt lat="43.0163" lon="0.09341">
        <ele>1471</ele>
        <time>2021-08-10T09:34:40.000Z</time>
      </trkpt>
      <trkpt lat="43.01631" lon="0.0935">
        <ele>1471</ele>
        <time>2021-08-10T09:34:42.000Z</time>
      </trkpt>
      <trkpt lat="43.01632" lon="0.09357">
        <ele>1471</ele>
        <time>2021-08-10T09:34:44.000Z</time>
      </trkpt>
      <trkpt lat="43.01632" lon="0.09365">
        <ele>1471</ele>
        <time>2021-08-10T09:34:47.000Z</time>
      </trkpt>
      <trkpt lat="43.01632" lon="0.09373">
        <ele>1471</ele>
        <time>2021-08-10T09:34:48.000Z</time>
      </trkpt>
      <trkpt lat="43.01632" lon="0.0938">
        <ele>1471</ele>
        <time>2021-08-10T09:34:50.000Z</time>
      </trkpt>
      <trkpt lat="43.01632" lon="0.09387">
        <ele>1471</ele>
        <time>2021-08-10T09:34:52.000Z</time>
      </trkpt>
      <trkpt lat="43.01633" lon="0.09396">
        <ele>1472</ele>
        <time>2021-08-10T09:34:55.000Z</time>
      </trkpt>
      <trkpt lat="43.01633" lon="0.09404">
        <ele>1472</ele>
        <time>2021-08-10T09:34:57.000Z</time>
      </trkpt>
      <trkpt lat="43.01633" lon="0.09412">
        <ele>1472</ele>
        <time>2021-08-10T09:34:59.000Z</time>
      </trkpt>
      <trkpt lat="43.01634" lon="0.09421">
        <ele>1471</ele>
        <time>2021-08-10T09:35:1.000Z</time>
      </trkpt>
      <trkpt lat="43.01634" lon="0.09432">
        <ele>1470</ele>
        <time>2021-08-10T09:35:3.000Z</time>
      </trkpt>
      <trkpt lat="43.0164" lon="0.09443">
        <ele>1470</ele>
        <time>2021-08-10T09:35:5.000Z</time>
      </trkpt>
      <trkpt lat="43.01641" lon="0.09451">
        <ele>1469</ele>
        <time>2021-08-10T09:35:7.000Z</time>
      </trkpt>
      <trkpt lat="43.0164" lon="0.09459">
        <ele>1468</ele>
        <time>2021-08-10T09:35:9.000Z</time>
      </trkpt>
      <trkpt lat="43.01639" lon="0.09466">
        <ele>1467</ele>
        <time>2021-08-10T09:35:11.000Z</time>
      </trkpt>
      <trkpt lat="43.01639" lon="0.09475">
        <ele>1466</ele>
        <time>2021-08-10T09:35:13.000Z</time>
      </trkpt>
      <trkpt lat="43.01639" lon="0.09484">
        <ele>1465</ele>
        <time>2021-08-10T09:35:15.000Z</time>
      </trkpt>
      <trkpt lat="43.0164" lon="0.09493">
        <ele>1464</ele>
        <time>2021-08-10T09:35:17.000Z</time>
      </trkpt>
      <trkpt lat="43.01642" lon="0.09502">
        <ele>1462</ele>
        <time>2021-08-10T09:35:19.000Z</time>
      </trkpt>
      <trkpt lat="43.01643" lon="0.09511">
        <ele>1460</ele>
        <time>2021-08-10T09:35:21.000Z</time>
      </trkpt>
      <trkpt lat="43.01645" lon="0.0952">
        <ele>1459</ele>
        <time>2021-08-10T09:35:23.000Z</time>
      </trkpt>
      <trkpt lat="43.01647" lon="0.0953">
        <ele>1457</ele>
        <time>2021-08-10T09:35:25.000Z</time>
      </trkpt>
      <trkpt lat="43.01651" lon="0.0954">
        <ele>1455</ele>
        <time>2021-08-10T09:35:27.000Z</time>
      </trkpt>
      <trkpt lat="43.01655" lon="0.0955">
        <ele>1453</ele>
        <time>2021-08-10T09:35:29.000Z</time>
      </trkpt>
      <trkpt lat="43.01658" lon="0.09559">
        <ele>1451</ele>
        <time>2021-08-10T09:35:31.000Z</time>
      </trkpt>
      <trkpt lat="43.01661" lon="0.09565">
        <ele>1450</ele>
        <time>2021-08-10T09:35:33.000Z</time>
      </trkpt>
      <trkpt lat="43.01664" lon="0.0957">
        <ele>1449</ele>
        <time>2021-08-10T09:35:35.000Z</time>
      </trkpt>
      <trkpt lat="43.01671" lon="0.09577">
        <ele>1447</ele>
        <time>2021-08-10T09:35:37.000Z</time>
      </trkpt>
      <trkpt lat="43.01678" lon="0.09585">
        <ele>1445</ele>
        <time>2021-08-10T09:35:39.000Z</time>
      </trkpt>
      <trkpt lat="43.01683" lon="0.0959">
        <ele>1445</ele>
        <time>2021-08-10T09:35:40.000Z</time>
      </trkpt>
      <trkpt lat="43.01687" lon="0.09594">
        <ele>1444</ele>
        <time>2021-08-10T09:35:41.000Z</time>
      </trkpt>
      <trkpt lat="43.01691" lon="0.09598">
        <ele>1444</ele>
        <time>2021-08-10T09:35:42.000Z</time>
      </trkpt>
      <trkpt lat="43.01695" lon="0.09602">
        <ele>1443</ele>
        <time>2021-08-10T09:35:43.000Z</time>
      </trkpt>
      <trkpt lat="43.01701" lon="0.09609">
        <ele>1442</ele>
        <time>2021-08-10T09:35:45.000Z</time>
      </trkpt>
      <trkpt lat="43.01705" lon="0.09618">
        <ele>1441</ele>
        <time>2021-08-10T09:35:47.000Z</time>
      </trkpt>
      <trkpt lat="43.01711" lon="0.09625">
        <ele>1440</ele>
        <time>2021-08-10T09:35:49.000Z</time>
      </trkpt>
      <trkpt lat="43.01717" lon="0.09632">
        <ele>1439</ele>
        <time>2021-08-10T09:35:51.000Z</time>
      </trkpt>
      <trkpt lat="43.01721" lon="0.09638">
        <ele>1439</ele>
        <time>2021-08-10T09:35:53.000Z</time>
      </trkpt>
      <trkpt lat="43.01725" lon="0.09644">
        <ele>1438</ele>
        <time>2021-08-10T09:35:55.000Z</time>
      </trkpt>
      <trkpt lat="43.01727" lon="0.09649">
        <ele>1437</ele>
        <time>2021-08-10T09:35:57.000Z</time>
      </trkpt>
      <trkpt lat="43.01728" lon="0.09655">
        <ele>1436</ele>
        <time>2021-08-10T09:35:59.000Z</time>
      </trkpt>
      <trkpt lat="43.01731" lon="0.09661">
        <ele>1436</ele>
        <time>2021-08-10T09:36:1.000Z</time>
      </trkpt>
      <trkpt lat="43.01735" lon="0.09667">
        <ele>1435</ele>
        <time>2021-08-10T09:36:4.000Z</time>
      </trkpt>
      <trkpt lat="43.01738" lon="0.09672">
        <ele>1434</ele>
        <time>2021-08-10T09:36:6.000Z</time>
      </trkpt>
      <trkpt lat="43.01743" lon="0.09677">
        <ele>1432</ele>
        <time>2021-08-10T09:36:8.000Z</time>
      </trkpt>
      <trkpt lat="43.01748" lon="0.09681">
        <ele>1431</ele>
        <time>2021-08-10T09:36:10.000Z</time>
      </trkpt>
      <trkpt lat="43.0175" lon="0.09687">
        <ele>1430</ele>
        <time>2021-08-10T09:36:12.000Z</time>
      </trkpt>
      <trkpt lat="43.01753" lon="0.09694">
        <ele>1429</ele>
        <time>2021-08-10T09:36:13.000Z</time>
      </trkpt>
      <trkpt lat="43.01756" lon="0.097">
        <ele>1427</ele>
        <time>2021-08-10T09:36:15.000Z</time>
      </trkpt>
      <trkpt lat="43.01759" lon="0.09705">
        <ele>1426</ele>
        <time>2021-08-10T09:36:17.000Z</time>
      </trkpt>
      <trkpt lat="43.01765" lon="0.09708">
        <ele>1423</ele>
        <time>2021-08-10T09:37:30.000Z</time>
      </trkpt>
      <trkpt lat="43.0177" lon="0.09708">
        <ele>1423</ele>
        <time>2021-08-10T09:37:32.000Z</time>
      </trkpt>
      <trkpt lat="43.01775" lon="0.09706">
        <ele>1423</ele>
        <time>2021-08-10T09:37:34.000Z</time>
      </trkpt>
      <trkpt lat="43.0178" lon="0.09704">
        <ele>1423</ele>
        <time>2021-08-10T09:37:36.000Z</time>
      </trkpt>
      <trkpt lat="43.01786" lon="0.09702">
        <ele>1420</ele>
        <time>2021-08-10T09:37:38.000Z</time>
      </trkpt>
      <trkpt lat="43.01792" lon="0.09701">
        <ele>1419</ele>
        <time>2021-08-10T09:37:40.000Z</time>
      </trkpt>
      <trkpt lat="43.01799" lon="0.09701">
        <ele>1418</ele>
        <time>2021-08-10T09:37:42.000Z</time>
      </trkpt>
      <trkpt lat="43.01804" lon="0.09704">
        <ele>1417</ele>
        <time>2021-08-10T09:37:44.000Z</time>
      </trkpt>
      <trkpt lat="43.01807" lon="0.09709">
        <ele>1416</ele>
        <time>2021-08-10T09:37:46.000Z</time>
      </trkpt>
      <trkpt lat="43.01809" lon="0.09715">
        <ele>1415</ele>
        <time>2021-08-10T09:37:48.000Z</time>
      </trkpt>
      <trkpt lat="43.01811" lon="0.09722">
        <ele>1414</ele>
        <time>2021-08-10T09:37:50.000Z</time>
      </trkpt>
      <trkpt lat="43.01811" lon="0.0973">
        <ele>1412</ele>
        <time>2021-08-10T09:37:52.000Z</time>
      </trkpt>
      <trkpt lat="43.01811" lon="0.09738">
        <ele>1411</ele>
        <time>2021-08-10T09:37:54.000Z</time>
      </trkpt>
      <trkpt lat="43.01811" lon="0.09745">
        <ele>1409</ele>
        <time>2021-08-10T09:37:56.000Z</time>
      </trkpt>
      <trkpt lat="43.01811" lon="0.09751">
        <ele>1408</ele>
        <time>2021-08-10T09:37:58.000Z</time>
      </trkpt>
      <trkpt lat="43.01809" lon="0.09759">
        <ele>1407</ele>
        <time>2021-08-10T09:38:1.000Z</time>
      </trkpt>
      <trkpt lat="43.01811" lon="0.09765">
        <ele>1406</ele>
        <time>2021-08-10T09:38:6.000Z</time>
      </trkpt>
      <trkpt lat="43.01814" lon="0.09771">
        <ele>1404</ele>
        <time>2021-08-10T09:38:10.000Z</time>
      </trkpt>
      <trkpt lat="43.01819" lon="0.09776">
        <ele>1403</ele>
        <time>2021-08-10T09:38:13.000Z</time>
      </trkpt>
      <trkpt lat="43.01825" lon="0.0978">
        <ele>1401</ele>
        <time>2021-08-10T09:38:16.000Z</time>
      </trkpt>
      <trkpt lat="43.0183" lon="0.09783">
        <ele>1400</ele>
        <time>2021-08-10T09:38:18.000Z</time>
      </trkpt>
      <trkpt lat="43.01836" lon="0.09784">
        <ele>1400</ele>
        <time>2021-08-10T09:38:20.000Z</time>
      </trkpt>
      <trkpt lat="43.01841" lon="0.09786">
        <ele>1399</ele>
        <time>2021-08-10T09:38:23.000Z</time>
      </trkpt>
      <trkpt lat="43.01848" lon="0.09789">
        <ele>1398</ele>
        <time>2021-08-10T09:38:26.000Z</time>
      </trkpt>
      <trkpt lat="43.01853" lon="0.09792">
        <ele>1397</ele>
        <time>2021-08-10T09:38:28.000Z</time>
      </trkpt>
      <trkpt lat="43.01858" lon="0.09795">
        <ele>1396</ele>
        <time>2021-08-10T09:38:30.000Z</time>
      </trkpt>
      <trkpt lat="43.01862" lon="0.09797">
        <ele>1396</ele>
        <time>2021-08-10T09:38:32.000Z</time>
      </trkpt>
      <trkpt lat="43.01862" lon="0.09804">
        <ele>1393</ele>
        <time>2021-08-10T09:38:49.000Z</time>
      </trkpt>
      <trkpt lat="43.01858" lon="0.09808">
        <ele>1391</ele>
        <time>2021-08-10T09:38:53.000Z</time>
      </trkpt>
      <trkpt lat="43.01853" lon="0.09809">
        <ele>1390</ele>
        <time>2021-08-10T09:38:56.000Z</time>
      </trkpt>
      <trkpt lat="43.01847" lon="0.09811">
        <ele>1389</ele>
        <time>2021-08-10T09:39:0.000Z</time>
      </trkpt>
      <trkpt lat="43.01842" lon="0.09814">
        <ele>1388</ele>
        <time>2021-08-10T09:39:2.000Z</time>
      </trkpt>
      <trkpt lat="43.01837" lon="0.09817">
        <ele>1387</ele>
        <time>2021-08-10T09:39:4.000Z</time>
      </trkpt>
      <trkpt lat="43.01831" lon="0.0982">
        <ele>1386</ele>
        <time>2021-08-10T09:39:6.000Z</time>
      </trkpt>
      <trkpt lat="43.01826" lon="0.09822">
        <ele>1385</ele>
        <time>2021-08-10T09:39:8.000Z</time>
      </trkpt>
      <trkpt lat="43.01822" lon="0.09825">
        <ele>1384</ele>
        <time>2021-08-10T09:39:10.000Z</time>
      </trkpt>
      <trkpt lat="43.01818" lon="0.09827">
        <ele>1383</ele>
        <time>2021-08-10T09:39:13.000Z</time>
      </trkpt>
      <trkpt lat="43.01813" lon="0.0983">
        <ele>1382</ele>
        <time>2021-08-10T09:39:16.000Z</time>
      </trkpt>
      <trkpt lat="43.01809" lon="0.09833">
        <ele>1381</ele>
        <time>2021-08-10T09:39:20.000Z</time>
      </trkpt>
      <trkpt lat="43.01802" lon="0.09836">
        <ele>1380</ele>
        <time>2021-08-10T09:39:24.000Z</time>
      </trkpt>
      <trkpt lat="43.01798" lon="0.09838">
        <ele>1379</ele>
        <time>2021-08-10T09:39:26.000Z</time>
      </trkpt>
      <trkpt lat="43.01792" lon="0.09841">
        <ele>1379</ele>
        <time>2021-08-10T09:39:28.000Z</time>
      </trkpt>
      <trkpt lat="43.01787" lon="0.09843">
        <ele>1378</ele>
        <time>2021-08-10T09:39:30.000Z</time>
      </trkpt>
      <trkpt lat="43.01781" lon="0.09846">
        <ele>1377</ele>
        <time>2021-08-10T09:39:32.000Z</time>
      </trkpt>
      <trkpt lat="43.01777" lon="0.09849">
        <ele>1376</ele>
        <time>2021-08-10T09:39:34.000Z</time>
      </trkpt>
      <trkpt lat="43.0178" lon="0.09853">
        <ele>1374</ele>
        <time>2021-08-10T09:39:47.000Z</time>
      </trkpt>
      <trkpt lat="43.01786" lon="0.09857">
        <ele>1374</ele>
        <time>2021-08-10T09:39:49.000Z</time>
      </trkpt>
      <trkpt lat="43.01792" lon="0.0986">
        <ele>1372</ele>
        <time>2021-08-10T09:39:51.000Z</time>
      </trkpt>
      <trkpt lat="43.01798" lon="0.09863">
        <ele>1371</ele>
        <time>2021-08-10T09:39:53.000Z</time>
      </trkpt>
      <trkpt lat="43.01804" lon="0.09867">
        <ele>1370</ele>
        <time>2021-08-10T09:39:55.000Z</time>
      </trkpt>
      <trkpt lat="43.01809" lon="0.0987">
        <ele>1369</ele>
        <time>2021-08-10T09:39:57.000Z</time>
      </trkpt>
      <trkpt lat="43.01815" lon="0.09873">
        <ele>1368</ele>
        <time>2021-08-10T09:39:59.000Z</time>
      </trkpt>
      <trkpt lat="43.0182" lon="0.09875">
        <ele>1367</ele>
        <time>2021-08-10T09:40:1.000Z</time>
      </trkpt>
      <trkpt lat="43.01826" lon="0.09877">
        <ele>1366</ele>
        <time>2021-08-10T09:40:3.000Z</time>
      </trkpt>
      <trkpt lat="43.01831" lon="0.09879">
        <ele>1365</ele>
        <time>2021-08-10T09:40:6.000Z</time>
      </trkpt>
      <trkpt lat="43.01838" lon="0.09881">
        <ele>1364</ele>
        <time>2021-08-10T09:40:9.000Z</time>
      </trkpt>
      <trkpt lat="43.01844" lon="0.09884">
        <ele>1364</ele>
        <time>2021-08-10T09:40:11.000Z</time>
      </trkpt>
      <trkpt lat="43.01851" lon="0.09886">
        <ele>1363</ele>
        <time>2021-08-10T09:40:13.000Z</time>
      </trkpt>
      <trkpt lat="43.01857" lon="0.09888">
        <ele>1362</ele>
        <time>2021-08-10T09:40:15.000Z</time>
      </trkpt>
      <trkpt lat="43.01863" lon="0.0989">
        <ele>1361</ele>
        <time>2021-08-10T09:40:17.000Z</time>
      </trkpt>
      <trkpt lat="43.0187" lon="0.09894">
        <ele>1360</ele>
        <time>2021-08-10T09:40:19.000Z</time>
      </trkpt>
      <trkpt lat="43.01877" lon="0.09901">
        <ele>1359</ele>
        <time>2021-08-10T09:40:21.000Z</time>
      </trkpt>
      <trkpt lat="43.0188" lon="0.09905">
        <ele>1357</ele>
        <time>2021-08-10T09:40:22.000Z</time>
      </trkpt>
      <trkpt lat="43.01885" lon="0.09909">
        <ele>1357</ele>
        <time>2021-08-10T09:40:23.000Z</time>
      </trkpt>
      <trkpt lat="43.01888" lon="0.09913">
        <ele>1356</ele>
        <time>2021-08-10T09:40:24.000Z</time>
      </trkpt>
      <trkpt lat="43.01892" lon="0.09917">
        <ele>1355</ele>
        <time>2021-08-10T09:40:25.000Z</time>
      </trkpt>
      <trkpt lat="43.01896" lon="0.09921">
        <ele>1355</ele>
        <time>2021-08-10T09:40:26.000Z</time>
      </trkpt>
      <trkpt lat="43.01899" lon="0.09926">
        <ele>1354</ele>
        <time>2021-08-10T09:40:27.000Z</time>
      </trkpt>
      <trkpt lat="43.01905" lon="0.09934">
        <ele>1352</ele>
        <time>2021-08-10T09:40:28.000Z</time>
      </trkpt>
      <trkpt lat="43.01909" lon="0.0994">
        <ele>1351</ele>
        <time>2021-08-10T09:40:29.000Z</time>
      </trkpt>
      <trkpt lat="43.01915" lon="0.09947">
        <ele>1350</ele>
        <time>2021-08-10T09:40:31.000Z</time>
      </trkpt>
      <trkpt lat="43.0192" lon="0.09952">
        <ele>1349</ele>
        <time>2021-08-10T09:40:33.000Z</time>
      </trkpt>
      <trkpt lat="43.01925" lon="0.09955">
        <ele>1349</ele>
        <time>2021-08-10T09:40:35.000Z</time>
      </trkpt>
      <trkpt lat="43.01931" lon="0.09954">
        <ele>1348</ele>
        <time>2021-08-10T09:41:39.000Z</time>
      </trkpt>
      <trkpt lat="43.01935" lon="0.09954">
        <ele>1348</ele>
        <time>2021-08-10T09:41:41.000Z</time>
      </trkpt>
      <trkpt lat="43.01941" lon="0.09955">
        <ele>1348</ele>
        <time>2021-08-10T09:41:43.000Z</time>
      </trkpt>
      <trkpt lat="43.01948" lon="0.09956">
        <ele>1348</ele>
        <time>2021-08-10T09:41:45.000Z</time>
      </trkpt>
      <trkpt lat="43.01955" lon="0.09961">
        <ele>1348</ele>
        <time>2021-08-10T09:41:47.000Z</time>
      </trkpt>
      <trkpt lat="43.01961" lon="0.09966">
        <ele>1345</ele>
        <time>2021-08-10T09:41:49.000Z</time>
      </trkpt>
      <trkpt lat="43.01968" lon="0.0997">
        <ele>1344</ele>
        <time>2021-08-10T09:41:51.000Z</time>
      </trkpt>
      <trkpt lat="43.01976" lon="0.09973">
        <ele>1343</ele>
        <time>2021-08-10T09:41:53.000Z</time>
      </trkpt>
      <trkpt lat="43.01983" lon="0.09977">
        <ele>1342</ele>
        <time>2021-08-10T09:41:55.000Z</time>
      </trkpt>
      <trkpt lat="43.01991" lon="0.0998">
        <ele>1340</ele>
        <time>2021-08-10T09:41:57.000Z</time>
      </trkpt>
      <trkpt lat="43.01995" lon="0.09981">
        <ele>1339</ele>
        <time>2021-08-10T09:41:58.000Z</time>
      </trkpt>
      <trkpt lat="43.02001" lon="0.09981">
        <ele>1337</ele>
        <time>2021-08-10T09:42:0.000Z</time>
      </trkpt>
      <trkpt lat="43.02007" lon="0.09983">
        <ele>1336</ele>
        <time>2021-08-10T09:42:2.000Z</time>
      </trkpt>
      <trkpt lat="43.02012" lon="0.09986">
        <ele>1333</ele>
        <time>2021-08-10T09:42:5.000Z</time>
      </trkpt>
      <trkpt lat="43.02016" lon="0.09989">
        <ele>1331</ele>
        <time>2021-08-10T09:42:9.000Z</time>
      </trkpt>
      <trkpt lat="43.02021" lon="0.09988">
        <ele>1330</ele>
        <time>2021-08-10T09:42:12.000Z</time>
      </trkpt>
      <trkpt lat="43.02027" lon="0.09988">
        <ele>1327</ele>
        <time>2021-08-10T09:42:15.000Z</time>
      </trkpt>
      <trkpt lat="43.02033" lon="0.09988">
        <ele>1325</ele>
        <time>2021-08-10T09:42:17.000Z</time>
      </trkpt>
      <trkpt lat="43.02038" lon="0.09987">
        <ele>1322</ele>
        <time>2021-08-10T09:42:20.000Z</time>
      </trkpt>
      <trkpt lat="43.02043" lon="0.09985">
        <ele>1320</ele>
        <time>2021-08-10T09:42:24.000Z</time>
      </trkpt>
      <trkpt lat="43.02046" lon="0.09989">
        <ele>1318</ele>
        <time>2021-08-10T09:42:27.000Z</time>
      </trkpt>
      <trkpt lat="43.02051" lon="0.09994">
        <ele>1316</ele>
        <time>2021-08-10T09:42:30.000Z</time>
      </trkpt>
      <trkpt lat="43.02055" lon="0.09997">
        <ele>1313</ele>
        <time>2021-08-10T09:42:33.000Z</time>
      </trkpt>
      <trkpt lat="43.0206" lon="0.10003">
        <ele>1312</ele>
        <time>2021-08-10T09:42:36.000Z</time>
      </trkpt>
      <trkpt lat="43.02064" lon="0.10008">
        <ele>1310</ele>
        <time>2021-08-10T09:42:38.000Z</time>
      </trkpt>
      <trkpt lat="43.02068" lon="0.10015">
        <ele>1308</ele>
        <time>2021-08-10T09:42:40.000Z</time>
      </trkpt>
      <trkpt lat="43.02073" lon="0.10023">
        <ele>1306</ele>
        <time>2021-08-10T09:42:42.000Z</time>
      </trkpt>
      <trkpt lat="43.02078" lon="0.10032">
        <ele>1304</ele>
        <time>2021-08-10T09:42:44.000Z</time>
      </trkpt>
      <trkpt lat="43.02083" lon="0.10044">
        <ele>1302</ele>
        <time>2021-08-10T09:42:46.000Z</time>
      </trkpt>
      <trkpt lat="43.02086" lon="0.10051">
        <ele>1301</ele>
        <time>2021-08-10T09:42:47.000Z</time>
      </trkpt>
      <trkpt lat="43.02088" lon="0.10056">
        <ele>1300</ele>
        <time>2021-08-10T09:42:48.000Z</time>
      </trkpt>
      <trkpt lat="43.0209" lon="0.10061">
        <ele>1299</ele>
        <time>2021-08-10T09:42:49.000Z</time>
      </trkpt>
      <trkpt lat="43.02093" lon="0.10066">
        <ele>1297</ele>
        <time>2021-08-10T09:42:50.000Z</time>
      </trkpt>
      <trkpt lat="43.02096" lon="0.10071">
        <ele>1296</ele>
        <time>2021-08-10T09:42:51.000Z</time>
      </trkpt>
      <trkpt lat="43.021" lon="0.10077">
        <ele>1295</ele>
        <time>2021-08-10T09:42:52.000Z</time>
      </trkpt>
      <trkpt lat="43.02103" lon="0.10083">
        <ele>1294</ele>
        <time>2021-08-10T09:42:53.000Z</time>
      </trkpt>
      <trkpt lat="43.02106" lon="0.1009">
        <ele>1293</ele>
        <time>2021-08-10T09:42:54.000Z</time>
      </trkpt>
      <trkpt lat="43.02109" lon="0.10097">
        <ele>1291</ele>
        <time>2021-08-10T09:42:55.000Z</time>
      </trkpt>
      <trkpt lat="43.02113" lon="0.10104">
        <ele>1290</ele>
        <time>2021-08-10T09:42:56.000Z</time>
      </trkpt>
      <trkpt lat="43.02116" lon="0.1011">
        <ele>1289</ele>
        <time>2021-08-10T09:42:57.000Z</time>
      </trkpt>
      <trkpt lat="43.02119" lon="0.10115">
        <ele>1287</ele>
        <time>2021-08-10T09:42:58.000Z</time>
      </trkpt>
      <trkpt lat="43.02124" lon="0.10125">
        <ele>1285</ele>
        <time>2021-08-10T09:43:0.000Z</time>
      </trkpt>
      <trkpt lat="43.02127" lon="0.1013">
        <ele>1284</ele>
        <time>2021-08-10T09:43:1.000Z</time>
      </trkpt>
      <trkpt lat="43.02131" lon="0.10136">
        <ele>1282</ele>
        <time>2021-08-10T09:43:2.000Z</time>
      </trkpt>
      <trkpt lat="43.02134" lon="0.10143">
        <ele>1281</ele>
        <time>2021-08-10T09:43:3.000Z</time>
      </trkpt>
      <trkpt lat="43.02138" lon="0.1015">
        <ele>1280</ele>
        <time>2021-08-10T09:43:4.000Z</time>
      </trkpt>
      <trkpt lat="43.02142" lon="0.10157">
        <ele>1279</ele>
        <time>2021-08-10T09:43:5.000Z</time>
      </trkpt>
      <trkpt lat="43.02145" lon="0.10164">
        <ele>1278</ele>
        <time>2021-08-10T09:43:6.000Z</time>
      </trkpt>
      <trkpt lat="43.02148" lon="0.1017">
        <ele>1276</ele>
        <time>2021-08-10T09:43:7.000Z</time>
      </trkpt>
      <trkpt lat="43.02151" lon="0.10177">
        <ele>1275</ele>
        <time>2021-08-10T09:43:8.000Z</time>
      </trkpt>
      <trkpt lat="43.02153" lon="0.10183">
        <ele>1274</ele>
        <time>2021-08-10T09:43:9.000Z</time>
      </trkpt>
      <trkpt lat="43.02156" lon="0.1019">
        <ele>1273</ele>
        <time>2021-08-10T09:43:10.000Z</time>
      </trkpt>
      <trkpt lat="43.02162" lon="0.10198">
        <ele>1271</ele>
        <time>2021-08-10T09:43:11.000Z</time>
      </trkpt>
      <trkpt lat="43.02168" lon="0.10205">
        <ele>1270</ele>
        <time>2021-08-10T09:43:12.000Z</time>
      </trkpt>
      <trkpt lat="43.02173" lon="0.10212">
        <ele>1269</ele>
        <time>2021-08-10T09:43:13.000Z</time>
      </trkpt>
      <trkpt lat="43.0218" lon="0.10219">
        <ele>1268</ele>
        <time>2021-08-10T09:43:14.000Z</time>
      </trkpt>
      <trkpt lat="43.02185" lon="0.10225">
        <ele>1267</ele>
        <time>2021-08-10T09:43:15.000Z</time>
      </trkpt>
      <trkpt lat="43.0219" lon="0.1023">
        <ele>1266</ele>
        <time>2021-08-10T09:43:16.000Z</time>
      </trkpt>
      <trkpt lat="43.02195" lon="0.10235">
        <ele>1265</ele>
        <time>2021-08-10T09:43:17.000Z</time>
      </trkpt>
      <trkpt lat="43.02199" lon="0.10238">
        <ele>1264</ele>
        <time>2021-08-10T09:43:18.000Z</time>
      </trkpt>
      <trkpt lat="43.02205" lon="0.10242">
        <ele>1263</ele>
        <time>2021-08-10T09:43:19.000Z</time>
      </trkpt>
      <trkpt lat="43.02212" lon="0.10244">
        <ele>1262</ele>
        <time>2021-08-10T09:43:20.000Z</time>
      </trkpt>
      <trkpt lat="43.0222" lon="0.10249">
        <ele>1260</ele>
        <time>2021-08-10T09:43:21.000Z</time>
      </trkpt>
      <trkpt lat="43.02227" lon="0.10253">
        <ele>1259</ele>
        <time>2021-08-10T09:43:22.000Z</time>
      </trkpt>
      <trkpt lat="43.02233" lon="0.10256">
        <ele>1258</ele>
        <time>2021-08-10T09:43:23.000Z</time>
      </trkpt>
      <trkpt lat="43.0224" lon="0.1026">
        <ele>1257</ele>
        <time>2021-08-10T09:43:24.000Z</time>
      </trkpt>
      <trkpt lat="43.02247" lon="0.10264">
        <ele>1256</ele>
        <time>2021-08-10T09:43:25.000Z</time>
      </trkpt>
      <trkpt lat="43.02255" lon="0.10267">
        <ele>1254</ele>
        <time>2021-08-10T09:43:26.000Z</time>
      </trkpt>
      <trkpt lat="43.02263" lon="0.10271">
        <ele>1253</ele>
        <time>2021-08-10T09:43:27.000Z</time>
      </trkpt>
      <trkpt lat="43.0227" lon="0.10274">
        <ele>1252</ele>
        <time>2021-08-10T09:43:28.000Z</time>
      </trkpt>
      <trkpt lat="43.02276" lon="0.10277">
        <ele>1251</ele>
        <time>2021-08-10T09:43:29.000Z</time>
      </trkpt>
      <trkpt lat="43.0228" lon="0.10279">
        <ele>1250</ele>
        <time>2021-08-10T09:43:30.000Z</time>
      </trkpt>
      <trkpt lat="43.02286" lon="0.10282">
        <ele>1248</ele>
        <time>2021-08-10T09:43:31.000Z</time>
      </trkpt>
      <trkpt lat="43.02292" lon="0.10285">
        <ele>1247</ele>
        <time>2021-08-10T09:43:32.000Z</time>
      </trkpt>
      <trkpt lat="43.02297" lon="0.10288">
        <ele>1246</ele>
        <time>2021-08-10T09:43:33.000Z</time>
      </trkpt>
      <trkpt lat="43.02304" lon="0.10292">
        <ele>1245</ele>
        <time>2021-08-10T09:43:34.000Z</time>
      </trkpt>
      <trkpt lat="43.02309" lon="0.10294">
        <ele>1243</ele>
        <time>2021-08-10T09:43:35.000Z</time>
      </trkpt>
      <trkpt lat="43.02315" lon="0.10297">
        <ele>1242</ele>
        <time>2021-08-10T09:43:36.000Z</time>
      </trkpt>
      <trkpt lat="43.02321" lon="0.103">
        <ele>1241</ele>
        <time>2021-08-10T09:43:37.000Z</time>
      </trkpt>
      <trkpt lat="43.02327" lon="0.10304">
        <ele>1239</ele>
        <time>2021-08-10T09:43:38.000Z</time>
      </trkpt>
      <trkpt lat="43.02334" lon="0.10308">
        <ele>1238</ele>
        <time>2021-08-10T09:43:39.000Z</time>
      </trkpt>
      <trkpt lat="43.02339" lon="0.10319">
        <ele>1236</ele>
        <time>2021-08-10T09:43:40.000Z</time>
      </trkpt>
      <trkpt lat="43.02345" lon="0.10326">
        <ele>1235</ele>
        <time>2021-08-10T09:43:41.000Z</time>
      </trkpt>
      <trkpt lat="43.0235" lon="0.10331">
        <ele>1233</ele>
        <time>2021-08-10T09:43:42.000Z</time>
      </trkpt>
      <trkpt lat="43.02354" lon="0.10337">
        <ele>1232</ele>
        <time>2021-08-10T09:43:43.000Z</time>
      </trkpt>
      <trkpt lat="43.02361" lon="0.10344">
        <ele>1230</ele>
        <time>2021-08-10T09:43:44.000Z</time>
      </trkpt>
      <trkpt lat="43.02366" lon="0.1035">
        <ele>1228</ele>
        <time>2021-08-10T09:43:45.000Z</time>
      </trkpt>
      <trkpt lat="43.02371" lon="0.10355">
        <ele>1227</ele>
        <time>2021-08-10T09:43:46.000Z</time>
      </trkpt>
      <trkpt lat="43.02375" lon="0.10359">
        <ele>1225</ele>
        <time>2021-08-10T09:43:47.000Z</time>
      </trkpt>
      <trkpt lat="43.0238" lon="0.10365">
        <ele>1223</ele>
        <time>2021-08-10T09:43:48.000Z</time>
      </trkpt>
      <trkpt lat="43.02387" lon="0.10372">
        <ele>1222</ele>
        <time>2021-08-10T09:43:49.000Z</time>
      </trkpt>
      <trkpt lat="43.02391" lon="0.10377">
        <ele>1220</ele>
        <time>2021-08-10T09:43:50.000Z</time>
      </trkpt>
      <trkpt lat="43.02396" lon="0.10382">
        <ele>1219</ele>
        <time>2021-08-10T09:43:51.000Z</time>
      </trkpt>
      <trkpt lat="43.02401" lon="0.10387">
        <ele>1217</ele>
        <time>2021-08-10T09:43:52.000Z</time>
      </trkpt>
      <trkpt lat="43.02406" lon="0.10392">
        <ele>1216</ele>
        <time>2021-08-10T09:43:53.000Z</time>
      </trkpt>
      <trkpt lat="43.02411" lon="0.10398">
        <ele>1214</ele>
        <time>2021-08-10T09:43:54.000Z</time>
      </trkpt>
      <trkpt lat="43.02416" lon="0.10403">
        <ele>1213</ele>
        <time>2021-08-10T09:43:55.000Z</time>
      </trkpt>
      <trkpt lat="43.0242" lon="0.10408">
        <ele>1212</ele>
        <time>2021-08-10T09:43:56.000Z</time>
      </trkpt>
      <trkpt lat="43.02424" lon="0.10413">
        <ele>1210</ele>
        <time>2021-08-10T09:43:57.000Z</time>
      </trkpt>
      <trkpt lat="43.02428" lon="0.10421">
        <ele>1209</ele>
        <time>2021-08-10T09:43:58.000Z</time>
      </trkpt>
      <trkpt lat="43.02432" lon="0.10428">
        <ele>1207</ele>
        <time>2021-08-10T09:43:59.000Z</time>
      </trkpt>
      <trkpt lat="43.02437" lon="0.10435">
        <ele>1205</ele>
        <time>2021-08-10T09:44:0.000Z</time>
      </trkpt>
      <trkpt lat="43.02441" lon="0.10442">
        <ele>1204</ele>
        <time>2021-08-10T09:44:1.000Z</time>
      </trkpt>
      <trkpt lat="43.02446" lon="0.10448">
        <ele>1202</ele>
        <time>2021-08-10T09:44:2.000Z</time>
      </trkpt>
      <trkpt lat="43.0245" lon="0.10453">
        <ele>1201</ele>
        <time>2021-08-10T09:44:3.000Z</time>
      </trkpt>
      <trkpt lat="43.02454" lon="0.10459">
        <ele>1200</ele>
        <time>2021-08-10T09:44:4.000Z</time>
      </trkpt>
      <trkpt lat="43.02458" lon="0.10464">
        <ele>1198</ele>
        <time>2021-08-10T09:44:5.000Z</time>
      </trkpt>
      <trkpt lat="43.02462" lon="0.10468">
        <ele>1197</ele>
        <time>2021-08-10T09:44:6.000Z</time>
      </trkpt>
      <trkpt lat="43.02465" lon="0.10472">
        <ele>1196</ele>
        <time>2021-08-10T09:44:7.000Z</time>
      </trkpt>
      <trkpt lat="43.02474" lon="0.10481">
        <ele>1194</ele>
        <time>2021-08-10T09:44:9.000Z</time>
      </trkpt>
      <trkpt lat="43.02478" lon="0.10486">
        <ele>1193</ele>
        <time>2021-08-10T09:44:10.000Z</time>
      </trkpt>
      <trkpt lat="43.02483" lon="0.1049">
        <ele>1192</ele>
        <time>2021-08-10T09:44:11.000Z</time>
      </trkpt>
      <trkpt lat="43.02488" lon="0.10491">
        <ele>1191</ele>
        <time>2021-08-10T09:44:12.000Z</time>
      </trkpt>
      <trkpt lat="43.02493" lon="0.10494">
        <ele>1190</ele>
        <time>2021-08-10T09:44:13.000Z</time>
      </trkpt>
      <trkpt lat="43.02497" lon="0.10497">
        <ele>1189</ele>
        <time>2021-08-10T09:44:14.000Z</time>
      </trkpt>
      <trkpt lat="43.02501" lon="0.105">
        <ele>1188</ele>
        <time>2021-08-10T09:44:15.000Z</time>
      </trkpt>
      <trkpt lat="43.02506" lon="0.10503">
        <ele>1187</ele>
        <time>2021-08-10T09:44:16.000Z</time>
      </trkpt>
      <trkpt lat="43.02514" lon="0.1051">
        <ele>1186</ele>
        <time>2021-08-10T09:44:18.000Z</time>
      </trkpt>
      <trkpt lat="43.02522" lon="0.10518">
        <ele>1185</ele>
        <time>2021-08-10T09:44:20.000Z</time>
      </trkpt>
      <trkpt lat="43.02528" lon="0.10525">
        <ele>1184</ele>
        <time>2021-08-10T09:44:22.000Z</time>
      </trkpt>
      <trkpt lat="43.02532" lon="0.10529">
        <ele>1183</ele>
        <time>2021-08-10T09:44:23.000Z</time>
      </trkpt>
      <trkpt lat="43.02536" lon="0.10538">
        <ele>1182</ele>
        <time>2021-08-10T09:44:25.000Z</time>
      </trkpt>
      <trkpt lat="43.02538" lon="0.10544">
        <ele>1182</ele>
        <time>2021-08-10T09:44:27.000Z</time>
      </trkpt>
      <trkpt lat="43.02535" lon="0.10549">
        <ele>1182</ele>
        <time>2021-08-10T09:44:30.000Z</time>
      </trkpt>
      <trkpt lat="43.02534" lon="0.10556">
        <ele>1181</ele>
        <time>2021-08-10T09:44:35.000Z</time>
      </trkpt>
      <trkpt lat="43.02539" lon="0.10553">
        <ele>1181</ele>
        <time>2021-08-10T09:44:39.000Z</time>
      </trkpt>
      <trkpt lat="43.02537" lon="0.10548">
        <ele>1181</ele>
        <time>2021-08-10T09:44:59.000Z</time>
      </trkpt>
      <trkpt lat="43.02532" lon="0.10553">
        <ele>1181</ele>
        <time>2021-08-10T09:45:2.000Z</time>
      </trkpt>
      <trkpt lat="43.02528" lon="0.1056">
        <ele>1181</ele>
        <time>2021-08-10T09:45:4.000Z</time>
      </trkpt>
      <trkpt lat="43.02524" lon="0.10567">
        <ele>1181</ele>
        <time>2021-08-10T09:45:6.000Z</time>
      </trkpt>
      <trkpt lat="43.02518" lon="0.10571">
        <ele>1181</ele>
        <time>2021-08-10T09:45:8.000Z</time>
      </trkpt>
      <trkpt lat="43.02514" lon="0.10575">
        <ele>1181</ele>
        <time>2021-08-10T09:45:10.000Z</time>
      </trkpt>
      <trkpt lat="43.02526" lon="0.10572">
        <ele>1181</ele>
        <time>2021-08-10T09:46:13.000Z</time>
      </trkpt>
      <trkpt lat="43.02529" lon="0.10567">
        <ele>1181</ele>
        <time>2021-08-10T09:46:15.000Z</time>
      </trkpt>
      <trkpt lat="43.02533" lon="0.1056">
        <ele>1181</ele>
        <time>2021-08-10T09:46:17.000Z</time>
      </trkpt>
      <trkpt lat="43.02537" lon="0.10551">
        <ele>1181</ele>
        <time>2021-08-10T09:46:19.000Z</time>
      </trkpt>
      <trkpt lat="43.02541" lon="0.10541">
        <ele>1181</ele>
        <time>2021-08-10T09:46:21.000Z</time>
      </trkpt>
      <trkpt lat="43.02543" lon="0.10536">
        <ele>1181</ele>
        <time>2021-08-10T09:46:22.000Z</time>
      </trkpt>
      <trkpt lat="43.02546" lon="0.10532">
        <ele>1181</ele>
        <time>2021-08-10T09:46:23.000Z</time>
      </trkpt>
      <trkpt lat="43.02552" lon="0.10532">
        <ele>1181</ele>
        <time>2021-08-10T09:46:24.000Z</time>
      </trkpt>
      <trkpt lat="43.02556" lon="0.10534">
        <ele>1181</ele>
        <time>2021-08-10T09:46:25.000Z</time>
      </trkpt>
      <trkpt lat="43.02559" lon="0.1054">
        <ele>1181</ele>
        <time>2021-08-10T09:46:26.000Z</time>
      </trkpt>
      <trkpt lat="43.0256" lon="0.10547">
        <ele>1181</ele>
        <time>2021-08-10T09:46:27.000Z</time>
      </trkpt>
      <trkpt lat="43.02558" lon="0.10553">
        <ele>1181</ele>
        <time>2021-08-10T09:46:28.000Z</time>
      </trkpt>
      <trkpt lat="43.02556" lon="0.1056">
        <ele>1181</ele>
        <time>2021-08-10T09:46:29.000Z</time>
      </trkpt>
      <trkpt lat="43.02551" lon="0.10566">
        <ele>1181</ele>
        <time>2021-08-10T09:46:30.000Z</time>
      </trkpt>
      <trkpt lat="43.02546" lon="0.10571">
        <ele>1181</ele>
        <time>2021-08-10T09:46:31.000Z</time>
      </trkpt>
      <trkpt lat="43.02532" lon="0.10578">
        <ele>1181</ele>
        <time>2021-08-10T09:46:32.000Z</time>
      </trkpt>
      <trkpt lat="43.02525" lon="0.10585">
        <ele>1181</ele>
        <time>2021-08-10T09:46:33.000Z</time>
      </trkpt>
      <trkpt lat="43.02517" lon="0.10593">
        <ele>1181</ele>
        <time>2021-08-10T09:46:34.000Z</time>
      </trkpt>
      <trkpt lat="43.02511" lon="0.106">
        <ele>1176</ele>
        <time>2021-08-10T09:46:35.000Z</time>
      </trkpt>
      <trkpt lat="43.02504" lon="0.10607">
        <ele>1175</ele>
        <time>2021-08-10T09:46:36.000Z</time>
      </trkpt>
      <trkpt lat="43.02497" lon="0.10613">
        <ele>1174</ele>
        <time>2021-08-10T09:46:37.000Z</time>
      </trkpt>
      <trkpt lat="43.02491" lon="0.1062">
        <ele>1173</ele>
        <time>2021-08-10T09:46:38.000Z</time>
      </trkpt>
      <trkpt lat="43.02485" lon="0.10625">
        <ele>1172</ele>
        <time>2021-08-10T09:46:39.000Z</time>
      </trkpt>
      <trkpt lat="43.02481" lon="0.10629">
        <ele>1172</ele>
        <time>2021-08-10T09:46:40.000Z</time>
      </trkpt>
      <trkpt lat="43.02477" lon="0.10633">
        <ele>1171</ele>
        <time>2021-08-10T09:46:41.000Z</time>
      </trkpt>
      <trkpt lat="43.0247" lon="0.10641">
        <ele>1170</ele>
        <time>2021-08-10T09:46:43.000Z</time>
      </trkpt>
      <trkpt lat="43.02465" lon="0.10647">
        <ele>1170</ele>
        <time>2021-08-10T09:46:44.000Z</time>
      </trkpt>
      <trkpt lat="43.02459" lon="0.10655">
        <ele>1168</ele>
        <time>2021-08-10T09:46:45.000Z</time>
      </trkpt>
      <trkpt lat="43.02453" lon="0.10661">
        <ele>1167</ele>
        <time>2021-08-10T09:46:46.000Z</time>
      </trkpt>
      <trkpt lat="43.02449" lon="0.1067">
        <ele>1167</ele>
        <time>2021-08-10T09:46:47.000Z</time>
      </trkpt>
      <trkpt lat="43.02445" lon="0.10678">
        <ele>1167</ele>
        <time>2021-08-10T09:46:48.000Z</time>
      </trkpt>
      <trkpt lat="43.02443" lon="0.10685">
        <ele>1165</ele>
        <time>2021-08-10T09:46:49.000Z</time>
      </trkpt>
      <trkpt lat="43.0244" lon="0.10691">
        <ele>1165</ele>
        <time>2021-08-10T09:46:50.000Z</time>
      </trkpt>
      <trkpt lat="43.02436" lon="0.10699">
        <ele>1164</ele>
        <time>2021-08-10T09:46:51.000Z</time>
      </trkpt>
      <trkpt lat="43.02433" lon="0.10708">
        <ele>1163</ele>
        <time>2021-08-10T09:46:52.000Z</time>
      </trkpt>
      <trkpt lat="43.02431" lon="0.10714">
        <ele>1162</ele>
        <time>2021-08-10T09:46:53.000Z</time>
      </trkpt>
      <trkpt lat="43.02428" lon="0.10726">
        <ele>1162</ele>
        <time>2021-08-10T09:46:54.000Z</time>
      </trkpt>
      <trkpt lat="43.02425" lon="0.10737">
        <ele>1160</ele>
        <time>2021-08-10T09:46:55.000Z</time>
      </trkpt>
      <trkpt lat="43.0242" lon="0.10749">
        <ele>1160</ele>
        <time>2021-08-10T09:46:56.000Z</time>
      </trkpt>
      <trkpt lat="43.02416" lon="0.10759">
        <ele>1159</ele>
        <time>2021-08-10T09:46:57.000Z</time>
      </trkpt>
      <trkpt lat="43.02411" lon="0.1077">
        <ele>1159</ele>
        <time>2021-08-10T09:46:58.000Z</time>
      </trkpt>
      <trkpt lat="43.02407" lon="0.1078">
        <ele>1157</ele>
        <time>2021-08-10T09:46:59.000Z</time>
      </trkpt>
      <trkpt lat="43.02404" lon="0.10787">
        <ele>1157</ele>
        <time>2021-08-10T09:47:0.000Z</time>
      </trkpt>
      <trkpt lat="43.02406" lon="0.10798">
        <ele>1156</ele>
        <time>2021-08-10T09:47:2.000Z</time>
      </trkpt>
      <trkpt lat="43.02412" lon="0.10789">
        <ele>1155</ele>
        <time>2021-08-10T09:47:3.000Z</time>
      </trkpt>
      <trkpt lat="43.02418" lon="0.10785">
        <ele>1153</ele>
        <time>2021-08-10T09:47:5.000Z</time>
      </trkpt>
      <trkpt lat="43.02424" lon="0.1078">
        <ele>1153</ele>
        <time>2021-08-10T09:47:6.000Z</time>
      </trkpt>
      <trkpt lat="43.02427" lon="0.10774">
        <ele>1152</ele>
        <time>2021-08-10T09:47:7.000Z</time>
      </trkpt>
      <trkpt lat="43.02431" lon="0.10767">
        <ele>1152</ele>
        <time>2021-08-10T09:47:8.000Z</time>
      </trkpt>
      <trkpt lat="43.02438" lon="0.1076">
        <ele>1151</ele>
        <time>2021-08-10T09:47:9.000Z</time>
      </trkpt>
      <trkpt lat="43.02445" lon="0.10755">
        <ele>1151</ele>
        <time>2021-08-10T09:47:10.000Z</time>
      </trkpt>
      <trkpt lat="43.02452" lon="0.10748">
        <ele>1149</ele>
        <time>2021-08-10T09:47:11.000Z</time>
      </trkpt>
      <trkpt lat="43.0246" lon="0.10742">
        <ele>1148</ele>
        <time>2021-08-10T09:47:12.000Z</time>
      </trkpt>
      <trkpt lat="43.02467" lon="0.10735">
        <ele>1148</ele>
        <time>2021-08-10T09:47:13.000Z</time>
      </trkpt>
      <trkpt lat="43.02473" lon="0.10727">
        <ele>1147</ele>
        <time>2021-08-10T09:47:14.000Z</time>
      </trkpt>
      <trkpt lat="43.02479" lon="0.10719">
        <ele>1145</ele>
        <time>2021-08-10T09:47:15.000Z</time>
      </trkpt>
      <trkpt lat="43.02486" lon="0.1071">
        <ele>1144</ele>
        <time>2021-08-10T09:47:16.000Z</time>
      </trkpt>
      <trkpt lat="43.02494" lon="0.10702">
        <ele>1144</ele>
        <time>2021-08-10T09:47:17.000Z</time>
      </trkpt>
      <trkpt lat="43.02501" lon="0.10696">
        <ele>1143</ele>
        <time>2021-08-10T09:47:18.000Z</time>
      </trkpt>
      <trkpt lat="43.02508" lon="0.1069">
        <ele>1143</ele>
        <time>2021-08-10T09:47:19.000Z</time>
      </trkpt>
      <trkpt lat="43.02515" lon="0.10694">
        <ele>1141</ele>
        <time>2021-08-10T09:47:20.000Z</time>
      </trkpt>
      <trkpt lat="43.02521" lon="0.10698">
        <ele>1141</ele>
        <time>2021-08-10T09:47:21.000Z</time>
      </trkpt>
      <trkpt lat="43.02525" lon="0.10704">
        <ele>1140</ele>
        <time>2021-08-10T09:47:22.000Z</time>
      </trkpt>
      <trkpt lat="43.02528" lon="0.10713">
        <ele>1139</ele>
        <time>2021-08-10T09:47:23.000Z</time>
      </trkpt>
      <trkpt lat="43.02531" lon="0.10723">
        <ele>1138</ele>
        <time>2021-08-10T09:47:24.000Z</time>
      </trkpt>
      <trkpt lat="43.02534" lon="0.10736">
        <ele>1137</ele>
        <time>2021-08-10T09:47:25.000Z</time>
      </trkpt>
      <trkpt lat="43.02538" lon="0.10748">
        <ele>1136</ele>
        <time>2021-08-10T09:47:26.000Z</time>
      </trkpt>
      <trkpt lat="43.02541" lon="0.10762">
        <ele>1135</ele>
        <time>2021-08-10T09:47:27.000Z</time>
      </trkpt>
      <trkpt lat="43.02545" lon="0.10776">
        <ele>1134</ele>
        <time>2021-08-10T09:47:28.000Z</time>
      </trkpt>
      <trkpt lat="43.02549" lon="0.10792">
        <ele>1132</ele>
        <time>2021-08-10T09:47:29.000Z</time>
      </trkpt>
      <trkpt lat="43.02552" lon="0.10808">
        <ele>1131</ele>
        <time>2021-08-10T09:47:30.000Z</time>
      </trkpt>
      <trkpt lat="43.02556" lon="0.10824">
        <ele>1130</ele>
        <time>2021-08-10T09:47:31.000Z</time>
      </trkpt>
      <trkpt lat="43.02559" lon="0.1084">
        <ele>1128</ele>
        <time>2021-08-10T09:47:32.000Z</time>
      </trkpt>
      <trkpt lat="43.02562" lon="0.10855">
        <ele>1127</ele>
        <time>2021-08-10T09:47:33.000Z</time>
      </trkpt>
      <trkpt lat="43.02565" lon="0.10868">
        <ele>1126</ele>
        <time>2021-08-10T09:47:34.000Z</time>
      </trkpt>
      <trkpt lat="43.02568" lon="0.1088">
        <ele>1125</ele>
        <time>2021-08-10T09:47:35.000Z</time>
      </trkpt>
      <trkpt lat="43.02571" lon="0.10889">
        <ele>1124</ele>
        <time>2021-08-10T09:47:36.000Z</time>
      </trkpt>
      <trkpt lat="43.02574" lon="0.10896">
        <ele>1123</ele>
        <time>2021-08-10T09:47:37.000Z</time>
      </trkpt>
      <trkpt lat="43.02577" lon="0.10902">
        <ele>1122</ele>
        <time>2021-08-10T09:47:38.000Z</time>
      </trkpt>
      <trkpt lat="43.02589" lon="0.10905">
        <ele>1121</ele>
        <time>2021-08-10T09:47:39.000Z</time>
      </trkpt>
      <trkpt lat="43.02597" lon="0.10908">
        <ele>1120</ele>
        <time>2021-08-10T09:47:40.000Z</time>
      </trkpt>
      <trkpt lat="43.02604" lon="0.10912">
        <ele>1119</ele>
        <time>2021-08-10T09:47:41.000Z</time>
      </trkpt>
      <trkpt lat="43.02612" lon="0.10918">
        <ele>1118</ele>
        <time>2021-08-10T09:47:42.000Z</time>
      </trkpt>
      <trkpt lat="43.02617" lon="0.10924">
        <ele>1117</ele>
        <time>2021-08-10T09:47:43.000Z</time>
      </trkpt>
      <trkpt lat="43.0262" lon="0.10935">
        <ele>1116</ele>
        <time>2021-08-10T09:47:44.000Z</time>
      </trkpt>
      <trkpt lat="43.02622" lon="0.10945">
        <ele>1114</ele>
        <time>2021-08-10T09:47:45.000Z</time>
      </trkpt>
      <trkpt lat="43.02624" lon="0.10958">
        <ele>1113</ele>
        <time>2021-08-10T09:47:46.000Z</time>
      </trkpt>
      <trkpt lat="43.02625" lon="0.10972">
        <ele>1112</ele>
        <time>2021-08-10T09:47:47.000Z</time>
      </trkpt>
      <trkpt lat="43.02626" lon="0.10988">
        <ele>1110</ele>
        <time>2021-08-10T09:47:48.000Z</time>
      </trkpt>
      <trkpt lat="43.02625" lon="0.11005">
        <ele>1108</ele>
        <time>2021-08-10T09:47:49.000Z</time>
      </trkpt>
      <trkpt lat="43.02623" lon="0.11021">
        <ele>1107</ele>
        <time>2021-08-10T09:47:50.000Z</time>
      </trkpt>
      <trkpt lat="43.02622" lon="0.11036">
        <ele>1106</ele>
        <time>2021-08-10T09:47:51.000Z</time>
      </trkpt>
      <trkpt lat="43.02622" lon="0.11084">
        <ele>1103</ele>
        <time>2021-08-10T09:47:53.000Z</time>
      </trkpt>
      <trkpt lat="43.02625" lon="0.11095">
        <ele>1102</ele>
        <time>2021-08-10T09:47:54.000Z</time>
      </trkpt>
      <trkpt lat="43.02627" lon="0.11105">
        <ele>1101</ele>
        <time>2021-08-10T09:47:55.000Z</time>
      </trkpt>
      <trkpt lat="43.02631" lon="0.11113">
        <ele>1100</ele>
        <time>2021-08-10T09:47:56.000Z</time>
      </trkpt>
      <trkpt lat="43.02634" lon="0.11121">
        <ele>1099</ele>
        <time>2021-08-10T09:47:57.000Z</time>
      </trkpt>
      <trkpt lat="43.02639" lon="0.11126">
        <ele>1098</ele>
        <time>2021-08-10T09:47:58.000Z</time>
      </trkpt>
      <trkpt lat="43.02644" lon="0.11127">
        <ele>1097</ele>
        <time>2021-08-10T09:47:59.000Z</time>
      </trkpt>
      <trkpt lat="43.02649" lon="0.11128">
        <ele>1096</ele>
        <time>2021-08-10T09:48:0.000Z</time>
      </trkpt>
      <trkpt lat="43.02655" lon="0.11126">
        <ele>1095</ele>
        <time>2021-08-10T09:48:1.000Z</time>
      </trkpt>
      <trkpt lat="43.02661" lon="0.11124">
        <ele>1094</ele>
        <time>2021-08-10T09:48:2.000Z</time>
      </trkpt>
      <trkpt lat="43.02667" lon="0.11122">
        <ele>1093</ele>
        <time>2021-08-10T09:48:3.000Z</time>
      </trkpt>
      <trkpt lat="43.02673" lon="0.11118">
        <ele>1092</ele>
        <time>2021-08-10T09:48:4.000Z</time>
      </trkpt>
      <trkpt lat="43.02681" lon="0.11114">
        <ele>1090</ele>
        <time>2021-08-10T09:48:5.000Z</time>
      </trkpt>
      <trkpt lat="43.02691" lon="0.11108">
        <ele>1089</ele>
        <time>2021-08-10T09:48:6.000Z</time>
      </trkpt>
      <trkpt lat="43.02699" lon="0.11104">
        <ele>1088</ele>
        <time>2021-08-10T09:48:7.000Z</time>
      </trkpt>
      <trkpt lat="43.02706" lon="0.111">
        <ele>1087</ele>
        <time>2021-08-10T09:48:8.000Z</time>
      </trkpt>
      <trkpt lat="43.02713" lon="0.11097">
        <ele>1086</ele>
        <time>2021-08-10T09:48:9.000Z</time>
      </trkpt>
      <trkpt lat="43.0272" lon="0.11095">
        <ele>1086</ele>
        <time>2021-08-10T09:48:10.000Z</time>
      </trkpt>
      <trkpt lat="43.02726" lon="0.11095">
        <ele>1085</ele>
        <time>2021-08-10T09:48:11.000Z</time>
      </trkpt>
      <trkpt lat="43.0273" lon="0.11105">
        <ele>1085</ele>
        <time>2021-08-10T09:48:12.000Z</time>
      </trkpt>
      <trkpt lat="43.02734" lon="0.11112">
        <ele>1083</ele>
        <time>2021-08-10T09:48:13.000Z</time>
      </trkpt>
      <trkpt lat="43.02738" lon="0.1112">
        <ele>1083</ele>
        <time>2021-08-10T09:48:14.000Z</time>
      </trkpt>
      <trkpt lat="43.02742" lon="0.11129">
        <ele>1082</ele>
        <time>2021-08-10T09:48:15.000Z</time>
      </trkpt>
      <trkpt lat="43.02745" lon="0.11138">
        <ele>1081</ele>
        <time>2021-08-10T09:48:16.000Z</time>
      </trkpt>
      <trkpt lat="43.02748" lon="0.11151">
        <ele>1079</ele>
        <time>2021-08-10T09:48:17.000Z</time>
      </trkpt>
      <trkpt lat="43.02751" lon="0.11163">
        <ele>1078</ele>
        <time>2021-08-10T09:48:18.000Z</time>
      </trkpt>
      <trkpt lat="43.02754" lon="0.11176">
        <ele>1077</ele>
        <time>2021-08-10T09:48:19.000Z</time>
      </trkpt>
      <trkpt lat="43.02758" lon="0.11189">
        <ele>1076</ele>
        <time>2021-08-10T09:48:20.000Z</time>
      </trkpt>
      <trkpt lat="43.02762" lon="0.11203">
        <ele>1074</ele>
        <time>2021-08-10T09:48:21.000Z</time>
      </trkpt>
      <trkpt lat="43.02765" lon="0.11217">
        <ele>1073</ele>
        <time>2021-08-10T09:48:22.000Z</time>
      </trkpt>
      <trkpt lat="43.02767" lon="0.11233">
        <ele>1072</ele>
        <time>2021-08-10T09:48:23.000Z</time>
      </trkpt>
      <trkpt lat="43.02769" lon="0.11249">
        <ele>1070</ele>
        <time>2021-08-10T09:48:24.000Z</time>
      </trkpt>
      <trkpt lat="43.02771" lon="0.11264">
        <ele>1069</ele>
        <time>2021-08-10T09:48:25.000Z</time>
      </trkpt>
      <trkpt lat="43.02773" lon="0.1128">
        <ele>1068</ele>
        <time>2021-08-10T09:48:26.000Z</time>
      </trkpt>
      <trkpt lat="43.02774" lon="0.11296">
        <ele>1066</ele>
        <time>2021-08-10T09:48:27.000Z</time>
      </trkpt>
      <trkpt lat="43.02775" lon="0.11313">
        <ele>1065</ele>
        <time>2021-08-10T09:48:28.000Z</time>
      </trkpt>
      <trkpt lat="43.02775" lon="0.1133">
        <ele>1064</ele>
        <time>2021-08-10T09:48:29.000Z</time>
      </trkpt>
      <trkpt lat="43.02775" lon="0.11347">
        <ele>1062</ele>
        <time>2021-08-10T09:48:30.000Z</time>
      </trkpt>
      <trkpt lat="43.02775" lon="0.11364">
        <ele>1061</ele>
        <time>2021-08-10T09:48:31.000Z</time>
      </trkpt>
      <trkpt lat="43.02775" lon="0.11382">
        <ele>1060</ele>
        <time>2021-08-10T09:48:32.000Z</time>
      </trkpt>
      <trkpt lat="43.02776" lon="0.114">
        <ele>1058</ele>
        <time>2021-08-10T09:48:33.000Z</time>
      </trkpt>
      <trkpt lat="43.02776" lon="0.11418">
        <ele>1057</ele>
        <time>2021-08-10T09:48:34.000Z</time>
      </trkpt>
      <trkpt lat="43.02778" lon="0.11435">
        <ele>1056</ele>
        <time>2021-08-10T09:48:35.000Z</time>
      </trkpt>
      <trkpt lat="43.02778" lon="0.1145">
        <ele>1055</ele>
        <time>2021-08-10T09:48:36.000Z</time>
      </trkpt>
      <trkpt lat="43.02779" lon="0.11464">
        <ele>1055</ele>
        <time>2021-08-10T09:48:37.000Z</time>
      </trkpt>
      <trkpt lat="43.02779" lon="0.11476">
        <ele>1054</ele>
        <time>2021-08-10T09:48:38.000Z</time>
      </trkpt>
      <trkpt lat="43.02781" lon="0.11487">
        <ele>1054</ele>
        <time>2021-08-10T09:48:39.000Z</time>
      </trkpt>
      <trkpt lat="43.02781" lon="0.11498">
        <ele>1053</ele>
        <time>2021-08-10T09:48:40.000Z</time>
      </trkpt>
      <trkpt lat="43.02793" lon="0.11487">
        <ele>1053</ele>
        <time>2021-08-10T09:48:41.000Z</time>
      </trkpt>
      <trkpt lat="43.02797" lon="0.11498">
        <ele>1053</ele>
        <time>2021-08-10T09:48:42.000Z</time>
      </trkpt>
      <trkpt lat="43.028" lon="0.11508">
        <ele>1052</ele>
        <time>2021-08-10T09:48:43.000Z</time>
      </trkpt>
      <trkpt lat="43.02803" lon="0.11514">
        <ele>1052</ele>
        <time>2021-08-10T09:48:44.000Z</time>
      </trkpt>
      <trkpt lat="43.02809" lon="0.11515">
        <ele>1052</ele>
        <time>2021-08-10T09:48:45.000Z</time>
      </trkpt>
      <trkpt lat="43.02819" lon="0.11497">
        <ele>1051</ele>
        <time>2021-08-10T09:48:46.000Z</time>
      </trkpt>
      <trkpt lat="43.02828" lon="0.11493">
        <ele>1051</ele>
        <time>2021-08-10T09:48:47.000Z</time>
      </trkpt>
      <trkpt lat="43.02832" lon="0.11478">
        <ele>1050</ele>
        <time>2021-08-10T09:48:49.000Z</time>
      </trkpt>
      <trkpt lat="43.02834" lon="0.11471">
        <ele>1050</ele>
        <time>2021-08-10T09:48:50.000Z</time>
      </trkpt>
      <trkpt lat="43.02836" lon="0.11462">
        <ele>1050</ele>
        <time>2021-08-10T09:48:51.000Z</time>
      </trkpt>
      <trkpt lat="43.0284" lon="0.11453">
        <ele>1050</ele>
        <time>2021-08-10T09:48:52.000Z</time>
      </trkpt>
      <trkpt lat="43.02845" lon="0.11444">
        <ele>1049</ele>
        <time>2021-08-10T09:48:53.000Z</time>
      </trkpt>
      <trkpt lat="43.02852" lon="0.11435">
        <ele>1049</ele>
        <time>2021-08-10T09:48:54.000Z</time>
      </trkpt>
      <trkpt lat="43.02859" lon="0.11425">
        <ele>1048</ele>
        <time>2021-08-10T09:48:55.000Z</time>
      </trkpt>
      <trkpt lat="43.02866" lon="0.11415">
        <ele>1048</ele>
        <time>2021-08-10T09:48:56.000Z</time>
      </trkpt>
      <trkpt lat="43.02873" lon="0.11406">
        <ele>1046</ele>
        <time>2021-08-10T09:48:57.000Z</time>
      </trkpt>
      <trkpt lat="43.02879" lon="0.11396">
        <ele>1046</ele>
        <time>2021-08-10T09:48:57.000Z</time>
      </trkpt>
      <trkpt lat="43.02886" lon="0.11386">
        <ele>1045</ele>
        <time>2021-08-10T09:48:58.000Z</time>
      </trkpt>
      <trkpt lat="43.02893" lon="0.11375">
        <ele>1044</ele>
        <time>2021-08-10T09:48:59.000Z</time>
      </trkpt>
      <trkpt lat="43.02902" lon="0.11366">
        <ele>1043</ele>
        <time>2021-08-10T09:49:0.000Z</time>
      </trkpt>
      <trkpt lat="43.0291" lon="0.11357">
        <ele>1042</ele>
        <time>2021-08-10T09:49:1.000Z</time>
      </trkpt>
      <trkpt lat="43.0292" lon="0.11348">
        <ele>1041</ele>
        <time>2021-08-10T09:49:2.000Z</time>
      </trkpt>
      <trkpt lat="43.02931" lon="0.11339">
        <ele>1040</ele>
        <time>2021-08-10T09:49:3.000Z</time>
      </trkpt>
      <trkpt lat="43.0294" lon="0.1133">
        <ele>1039</ele>
        <time>2021-08-10T09:49:4.000Z</time>
      </trkpt>
      <trkpt lat="43.0295" lon="0.1132">
        <ele>1038</ele>
        <time>2021-08-10T09:49:5.000Z</time>
      </trkpt>
      <trkpt lat="43.02959" lon="0.1131">
        <ele>1036</ele>
        <time>2021-08-10T09:49:6.000Z</time>
      </trkpt>
      <trkpt lat="43.02969" lon="0.113">
        <ele>1035</ele>
        <time>2021-08-10T09:49:7.000Z</time>
      </trkpt>
      <trkpt lat="43.02979" lon="0.1129">
        <ele>1034</ele>
        <time>2021-08-10T09:49:8.000Z</time>
      </trkpt>
      <trkpt lat="43.02988" lon="0.11282">
        <ele>1033</ele>
        <time>2021-08-10T09:49:9.000Z</time>
      </trkpt>
      <trkpt lat="43.02998" lon="0.11273">
        <ele>1032</ele>
        <time>2021-08-10T09:49:10.000Z</time>
      </trkpt>
      <trkpt lat="43.03007" lon="0.11264">
        <ele>1032</ele>
        <time>2021-08-10T09:49:11.000Z</time>
      </trkpt>
      <trkpt lat="43.03015" lon="0.11256">
        <ele>1031</ele>
        <time>2021-08-10T09:49:12.000Z</time>
      </trkpt>
      <trkpt lat="43.03022" lon="0.11248">
        <ele>1031</ele>
        <time>2021-08-10T09:49:13.000Z</time>
      </trkpt>
      <trkpt lat="43.03028" lon="0.1124">
        <ele>1031</ele>
        <time>2021-08-10T09:49:14.000Z</time>
      </trkpt>
      <trkpt lat="43.03034" lon="0.11224">
        <ele>1030</ele>
        <time>2021-08-10T09:49:15.000Z</time>
      </trkpt>
      <trkpt lat="43.0304" lon="0.11215">
        <ele>1030</ele>
        <time>2021-08-10T09:49:16.000Z</time>
      </trkpt>
      <trkpt lat="43.03046" lon="0.11206">
        <ele>1030</ele>
        <time>2021-08-10T09:49:17.000Z</time>
      </trkpt>
      <trkpt lat="43.03052" lon="0.11197">
        <ele>1030</ele>
        <time>2021-08-10T09:49:18.000Z</time>
      </trkpt>
      <trkpt lat="43.03055" lon="0.1119">
        <ele>1030</ele>
        <time>2021-08-10T09:49:19.000Z</time>
      </trkpt>
      <trkpt lat="43.03061" lon="0.11185">
        <ele>1030</ele>
        <time>2021-08-10T09:49:20.000Z</time>
      </trkpt>
      <trkpt lat="43.03067" lon="0.11181">
        <ele>1030</ele>
        <time>2021-08-10T09:49:21.000Z</time>
      </trkpt>
      <trkpt lat="43.03076" lon="0.11179">
        <ele>1030</ele>
        <time>2021-08-10T09:49:22.000Z</time>
      </trkpt>
      <trkpt lat="43.03086" lon="0.11176">
        <ele>1030</ele>
        <time>2021-08-10T09:49:23.000Z</time>
      </trkpt>
      <trkpt lat="43.03095" lon="0.11173">
        <ele>1030</ele>
        <time>2021-08-10T09:49:24.000Z</time>
      </trkpt>
      <trkpt lat="43.03102" lon="0.11169">
        <ele>1030</ele>
        <time>2021-08-10T09:49:25.000Z</time>
      </trkpt>
      <trkpt lat="43.03108" lon="0.11165">
        <ele>1030</ele>
        <time>2021-08-10T09:49:26.000Z</time>
      </trkpt>
      <trkpt lat="43.03114" lon="0.11159">
        <ele>1030</ele>
        <time>2021-08-10T09:49:27.000Z</time>
      </trkpt>
      <trkpt lat="43.0312" lon="0.11151">
        <ele>1030</ele>
        <time>2021-08-10T09:49:28.000Z</time>
      </trkpt>
      <trkpt lat="43.03127" lon="0.11143">
        <ele>1031</ele>
        <time>2021-08-10T09:49:29.000Z</time>
      </trkpt>
      <trkpt lat="43.03133" lon="0.11135">
        <ele>1031</ele>
        <time>2021-08-10T09:49:30.000Z</time>
      </trkpt>
      <trkpt lat="43.0314" lon="0.11128">
        <ele>1031</ele>
        <time>2021-08-10T09:49:31.000Z</time>
      </trkpt>
      <trkpt lat="43.03146" lon="0.1112">
        <ele>1031</ele>
        <time>2021-08-10T09:49:32.000Z</time>
      </trkpt>
      <trkpt lat="43.03153" lon="0.11113">
        <ele>1031</ele>
        <time>2021-08-10T09:49:33.000Z</time>
      </trkpt>
      <trkpt lat="43.03158" lon="0.11106">
        <ele>1031</ele>
        <time>2021-08-10T09:49:34.000Z</time>
      </trkpt>
      <trkpt lat="43.03164" lon="0.11099">
        <ele>1031</ele>
        <time>2021-08-10T09:49:35.000Z</time>
      </trkpt>
      <trkpt lat="43.03169" lon="0.11092">
        <ele>1031</ele>
        <time>2021-08-10T09:49:36.000Z</time>
      </trkpt>
      <trkpt lat="43.03175" lon="0.1108">
        <ele>1031</ele>
        <time>2021-08-10T09:49:37.000Z</time>
      </trkpt>
      <trkpt lat="43.0318" lon="0.11072">
        <ele>1031</ele>
        <time>2021-08-10T09:49:38.000Z</time>
      </trkpt>
      <trkpt lat="43.03185" lon="0.11065">
        <ele>1031</ele>
        <time>2021-08-10T09:49:39.000Z</time>
      </trkpt>
      <trkpt lat="43.0319" lon="0.11057">
        <ele>1031</ele>
        <time>2021-08-10T09:49:40.000Z</time>
      </trkpt>
      <trkpt lat="43.03195" lon="0.11049">
        <ele>1031</ele>
        <time>2021-08-10T09:49:41.000Z</time>
      </trkpt>
      <trkpt lat="43.03199" lon="0.11042">
        <ele>1031</ele>
        <time>2021-08-10T09:49:42.000Z</time>
      </trkpt>
      <trkpt lat="43.03203" lon="0.11035">
        <ele>1031</ele>
        <time>2021-08-10T09:49:43.000Z</time>
      </trkpt>
      <trkpt lat="43.03208" lon="0.11028">
        <ele>1031</ele>
        <time>2021-08-10T09:49:44.000Z</time>
      </trkpt>
      <trkpt lat="43.03214" lon="0.11021">
        <ele>1031</ele>
        <time>2021-08-10T09:49:45.000Z</time>
      </trkpt>
      <trkpt lat="43.0322" lon="0.11016">
        <ele>1031</ele>
        <time>2021-08-10T09:49:46.000Z</time>
      </trkpt>
      <trkpt lat="43.03225" lon="0.11009">
        <ele>1031</ele>
        <time>2021-08-10T09:49:47.000Z</time>
      </trkpt>
      <trkpt lat="43.0323" lon="0.11003">
        <ele>1031</ele>
        <time>2021-08-10T09:49:48.000Z</time>
      </trkpt>
      <trkpt lat="43.03235" lon="0.10997">
        <ele>1031</ele>
        <time>2021-08-10T09:49:49.000Z</time>
      </trkpt>
      <trkpt lat="43.0324" lon="0.1099">
        <ele>1031</ele>
        <time>2021-08-10T09:49:50.000Z</time>
      </trkpt>
      <trkpt lat="43.03244" lon="0.10984">
        <ele>1031</ele>
        <time>2021-08-10T09:49:51.000Z</time>
      </trkpt>
      <trkpt lat="43.03249" lon="0.10978">
        <ele>1031</ele>
        <time>2021-08-10T09:49:52.000Z</time>
      </trkpt>
      <trkpt lat="43.03252" lon="0.1097">
        <ele>1031</ele>
        <time>2021-08-10T09:49:53.000Z</time>
      </trkpt>
      <trkpt lat="43.03256" lon="0.10963">
        <ele>1031</ele>
        <time>2021-08-10T09:49:54.000Z</time>
      </trkpt>
      <trkpt lat="43.03259" lon="0.10956">
        <ele>1031</ele>
        <time>2021-08-10T09:49:55.000Z</time>
      </trkpt>
      <trkpt lat="43.03263" lon="0.10948">
        <ele>1031</ele>
        <time>2021-08-10T09:49:56.000Z</time>
      </trkpt>
      <trkpt lat="43.03266" lon="0.10941">
        <ele>1031</ele>
        <time>2021-08-10T09:49:57.000Z</time>
      </trkpt>
      <trkpt lat="43.0327" lon="0.10934">
        <ele>1031</ele>
        <time>2021-08-10T09:49:58.000Z</time>
      </trkpt>
      <trkpt lat="43.03274" lon="0.10928">
        <ele>1031</ele>
        <time>2021-08-10T09:49:59.000Z</time>
      </trkpt>
      <trkpt lat="43.0328" lon="0.10922">
        <ele>1031</ele>
        <time>2021-08-10T09:50:0.000Z</time>
      </trkpt>
      <trkpt lat="43.03285" lon="0.10918">
        <ele>1031</ele>
        <time>2021-08-10T09:50:1.000Z</time>
      </trkpt>
      <trkpt lat="43.03291" lon="0.10913">
        <ele>1031</ele>
        <time>2021-08-10T09:50:2.000Z</time>
      </trkpt>
      <trkpt lat="43.03297" lon="0.1091">
        <ele>1031</ele>
        <time>2021-08-10T09:50:3.000Z</time>
      </trkpt>
      <trkpt lat="43.03303" lon="0.10907">
        <ele>1031</ele>
        <time>2021-08-10T09:50:4.000Z</time>
      </trkpt>
      <trkpt lat="43.03309" lon="0.10906">
        <ele>1031</ele>
        <time>2021-08-10T09:50:5.000Z</time>
      </trkpt>
      <trkpt lat="43.03316" lon="0.10906">
        <ele>1031</ele>
        <time>2021-08-10T09:50:6.000Z</time>
      </trkpt>
      <trkpt lat="43.03322" lon="0.10906">
        <ele>1031</ele>
        <time>2021-08-10T09:50:7.000Z</time>
      </trkpt>
      <trkpt lat="43.03328" lon="0.10904">
        <ele>1031</ele>
        <time>2021-08-10T09:50:8.000Z</time>
      </trkpt>
      <trkpt lat="43.03335" lon="0.10902">
        <ele>1031</ele>
        <time>2021-08-10T09:50:9.000Z</time>
      </trkpt>
      <trkpt lat="43.03341" lon="0.109">
        <ele>1031</ele>
        <time>2021-08-10T09:50:10.000Z</time>
      </trkpt>
      <trkpt lat="43.03346" lon="0.10898">
        <ele>1031</ele>
        <time>2021-08-10T09:50:11.000Z</time>
      </trkpt>
      <trkpt lat="43.03352" lon="0.10895">
        <ele>1030</ele>
        <time>2021-08-10T09:50:12.000Z</time>
      </trkpt>
      <trkpt lat="43.03357" lon="0.10891">
        <ele>1030</ele>
        <time>2021-08-10T09:50:13.000Z</time>
      </trkpt>
      <trkpt lat="43.03362" lon="0.10887">
        <ele>1030</ele>
        <time>2021-08-10T09:50:14.000Z</time>
      </trkpt>
      <trkpt lat="43.03368" lon="0.10883">
        <ele>1030</ele>
        <time>2021-08-10T09:50:15.000Z</time>
      </trkpt>
      <trkpt lat="43.03374" lon="0.10878">
        <ele>1030</ele>
        <time>2021-08-10T09:50:16.000Z</time>
      </trkpt>
      <trkpt lat="43.03379" lon="0.10873">
        <ele>1030</ele>
        <time>2021-08-10T09:50:17.000Z</time>
      </trkpt>
      <trkpt lat="43.03384" lon="0.10868">
        <ele>1029</ele>
        <time>2021-08-10T09:50:18.000Z</time>
      </trkpt>
      <trkpt lat="43.0339" lon="0.10863">
        <ele>1029</ele>
        <time>2021-08-10T09:50:19.000Z</time>
      </trkpt>
      <trkpt lat="43.03395" lon="0.10857">
        <ele>1029</ele>
        <time>2021-08-10T09:50:20.000Z</time>
      </trkpt>
      <trkpt lat="43.034" lon="0.10851">
        <ele>1029</ele>
        <time>2021-08-10T09:50:21.000Z</time>
      </trkpt>
      <trkpt lat="43.03406" lon="0.10845">
        <ele>1029</ele>
        <time>2021-08-10T09:50:22.000Z</time>
      </trkpt>
      <trkpt lat="43.03412" lon="0.10839">
        <ele>1028</ele>
        <time>2021-08-10T09:50:23.000Z</time>
      </trkpt>
      <trkpt lat="43.03419" lon="0.10834">
        <ele>1028</ele>
        <time>2021-08-10T09:50:24.000Z</time>
      </trkpt>
      <trkpt lat="43.03425" lon="0.1084">
        <ele>1028</ele>
        <time>2021-08-10T09:50:25.000Z</time>
      </trkpt>
      <trkpt lat="43.03428" lon="0.10846">
        <ele>1028</ele>
        <time>2021-08-10T09:50:26.000Z</time>
      </trkpt>
      <trkpt lat="43.0343" lon="0.10852">
        <ele>1028</ele>
        <time>2021-08-10T09:50:27.000Z</time>
      </trkpt>
      <trkpt lat="43.03431" lon="0.10858">
        <ele>1028</ele>
        <time>2021-08-10T09:50:28.000Z</time>
      </trkpt>
      <trkpt lat="43.03432" lon="0.10866">
        <ele>1028</ele>
        <time>2021-08-10T09:50:29.000Z</time>
      </trkpt>
      <trkpt lat="43.03434" lon="0.10873">
        <ele>1028</ele>
        <time>2021-08-10T09:50:30.000Z</time>
      </trkpt>
      <trkpt lat="43.03437" lon="0.10881">
        <ele>1028</ele>
        <time>2021-08-10T09:50:31.000Z</time>
      </trkpt>
      <trkpt lat="43.03441" lon="0.10889">
        <ele>1027</ele>
        <time>2021-08-10T09:50:32.000Z</time>
      </trkpt>
      <trkpt lat="43.03445" lon="0.10897">
        <ele>1027</ele>
        <time>2021-08-10T09:50:33.000Z</time>
      </trkpt>
      <trkpt lat="43.03449" lon="0.10905">
        <ele>1027</ele>
        <time>2021-08-10T09:50:34.000Z</time>
      </trkpt>
      <trkpt lat="43.03453" lon="0.10914">
        <ele>1027</ele>
        <time>2021-08-10T09:50:35.000Z</time>
      </trkpt>
      <trkpt lat="43.03457" lon="0.10924">
        <ele>1027</ele>
        <time>2021-08-10T09:50:36.000Z</time>
      </trkpt>
      <trkpt lat="43.0346" lon="0.10933">
        <ele>1026</ele>
        <time>2021-08-10T09:50:37.000Z</time>
      </trkpt>
      <trkpt lat="43.03462" lon="0.10943">
        <ele>1026</ele>
        <time>2021-08-10T09:50:38.000Z</time>
      </trkpt>
      <trkpt lat="43.03463" lon="0.10953">
        <ele>1026</ele>
        <time>2021-08-10T09:50:39.000Z</time>
      </trkpt>
      <trkpt lat="43.03469" lon="0.10969">
        <ele>1026</ele>
        <time>2021-08-10T09:50:40.000Z</time>
      </trkpt>
      <trkpt lat="43.03469" lon="0.10983">
        <ele>1026</ele>
        <time>2021-08-10T09:50:41.000Z</time>
      </trkpt>
      <trkpt lat="43.03469" lon="0.10996">
        <ele>1026</ele>
        <time>2021-08-10T09:50:42.000Z</time>
      </trkpt>
      <trkpt lat="43.03469" lon="0.11006">
        <ele>1026</ele>
        <time>2021-08-10T09:50:43.000Z</time>
      </trkpt>
      <trkpt lat="43.0347" lon="0.11016">
        <ele>1026</ele>
        <time>2021-08-10T09:50:44.000Z</time>
      </trkpt>
      <trkpt lat="43.03472" lon="0.11026">
        <ele>1026</ele>
        <time>2021-08-10T09:50:45.000Z</time>
      </trkpt>
      <trkpt lat="43.03475" lon="0.11035">
        <ele>1025</ele>
        <time>2021-08-10T09:50:46.000Z</time>
      </trkpt>
      <trkpt lat="43.03478" lon="0.11045">
        <ele>1025</ele>
        <time>2021-08-10T09:50:47.000Z</time>
      </trkpt>
      <trkpt lat="43.03482" lon="0.11053">
        <ele>1025</ele>
        <time>2021-08-10T09:50:48.000Z</time>
      </trkpt>
      <trkpt lat="43.03486" lon="0.11061">
        <ele>1025</ele>
        <time>2021-08-10T09:50:49.000Z</time>
      </trkpt>
      <trkpt lat="43.03488" lon="0.1107">
        <ele>1025</ele>
        <time>2021-08-10T09:50:50.000Z</time>
      </trkpt>
      <trkpt lat="43.0349" lon="0.11074">
        <ele>1024</ele>
        <time>2021-08-10T09:50:51.000Z</time>
      </trkpt>
      <trkpt lat="43.03494" lon="0.11079">
        <ele>1024</ele>
        <time>2021-08-10T09:50:52.000Z</time>
      </trkpt>
      <trkpt lat="43.03497" lon="0.11085">
        <ele>1024</ele>
        <time>2021-08-10T09:50:53.000Z</time>
      </trkpt>
      <trkpt lat="43.0351" lon="0.11091">
        <ele>1024</ele>
        <time>2021-08-10T09:50:54.000Z</time>
      </trkpt>
      <trkpt lat="43.03515" lon="0.11096">
        <ele>1024</ele>
        <time>2021-08-10T09:50:55.000Z</time>
      </trkpt>
      <trkpt lat="43.03522" lon="0.11103">
        <ele>1024</ele>
        <time>2021-08-10T09:50:56.000Z</time>
      </trkpt>
      <trkpt lat="43.03527" lon="0.11107">
        <ele>1023</ele>
        <time>2021-08-10T09:50:57.000Z</time>
      </trkpt>
      <trkpt lat="43.03533" lon="0.11113">
        <ele>1023</ele>
        <time>2021-08-10T09:50:58.000Z</time>
      </trkpt>
      <trkpt lat="43.03538" lon="0.11117">
        <ele>1023</ele>
        <time>2021-08-10T09:50:59.000Z</time>
      </trkpt>
      <trkpt lat="43.03545" lon="0.11123">
        <ele>1023</ele>
        <time>2021-08-10T09:51:0.000Z</time>
      </trkpt>
      <trkpt lat="43.03551" lon="0.11128">
        <ele>1023</ele>
        <time>2021-08-10T09:51:1.000Z</time>
      </trkpt>
      <trkpt lat="43.03557" lon="0.11132">
        <ele>1022</ele>
        <time>2021-08-10T09:51:2.000Z</time>
      </trkpt>
      <trkpt lat="43.03563" lon="0.11137">
        <ele>1022</ele>
        <time>2021-08-10T09:51:3.000Z</time>
      </trkpt>
      <trkpt lat="43.0357" lon="0.11141">
        <ele>1022</ele>
        <time>2021-08-10T09:51:4.000Z</time>
      </trkpt>
      <trkpt lat="43.03576" lon="0.11146">
        <ele>1022</ele>
        <time>2021-08-10T09:51:5.000Z</time>
      </trkpt>
      <trkpt lat="43.03582" lon="0.1115">
        <ele>1022</ele>
        <time>2021-08-10T09:51:6.000Z</time>
      </trkpt>
      <trkpt lat="43.03589" lon="0.11154">
        <ele>1022</ele>
        <time>2021-08-10T09:51:7.000Z</time>
      </trkpt>
      <trkpt lat="43.03594" lon="0.11158">
        <ele>1022</ele>
        <time>2021-08-10T09:51:8.000Z</time>
      </trkpt>
      <trkpt lat="43.036" lon="0.11162">
        <ele>1022</ele>
        <time>2021-08-10T09:51:9.000Z</time>
      </trkpt>
      <trkpt lat="43.03605" lon="0.11166">
        <ele>1022</ele>
        <time>2021-08-10T09:51:10.000Z</time>
      </trkpt>
      <trkpt lat="43.0361" lon="0.1117">
        <ele>1022</ele>
        <time>2021-08-10T09:51:11.000Z</time>
      </trkpt>
      <trkpt lat="43.03616" lon="0.11174">
        <ele>1022</ele>
        <time>2021-08-10T09:51:12.000Z</time>
      </trkpt>
      <trkpt lat="43.03621" lon="0.11178">
        <ele>1022</ele>
        <time>2021-08-10T09:51:13.000Z</time>
      </trkpt>
      <trkpt lat="43.03626" lon="0.11182">
        <ele>1022</ele>
        <time>2021-08-10T09:51:14.000Z</time>
      </trkpt>
      <trkpt lat="43.03632" lon="0.11186">
        <ele>1022</ele>
        <time>2021-08-10T09:51:15.000Z</time>
      </trkpt>
      <trkpt lat="43.03639" lon="0.1119">
        <ele>1022</ele>
        <time>2021-08-10T09:51:16.000Z</time>
      </trkpt>
      <trkpt lat="43.03644" lon="0.11193">
        <ele>1022</ele>
        <time>2021-08-10T09:51:17.000Z</time>
      </trkpt>
      <trkpt lat="43.0365" lon="0.11195">
        <ele>1022</ele>
        <time>2021-08-10T09:51:18.000Z</time>
      </trkpt>
      <trkpt lat="43.03655" lon="0.11198">
        <ele>1022</ele>
        <time>2021-08-10T09:51:19.000Z</time>
      </trkpt>
      <trkpt lat="43.03659" lon="0.11199">
        <ele>1022</ele>
        <time>2021-08-10T09:51:20.000Z</time>
      </trkpt>
      <trkpt lat="43.03664" lon="0.11201">
        <ele>1022</ele>
        <time>2021-08-10T09:51:21.000Z</time>
      </trkpt>
      <trkpt lat="43.0367" lon="0.11203">
        <ele>1022</ele>
        <time>2021-08-10T09:51:22.000Z</time>
      </trkpt>
      <trkpt lat="43.03675" lon="0.11205">
        <ele>1023</ele>
        <time>2021-08-10T09:51:23.000Z</time>
      </trkpt>
      <trkpt lat="43.0368" lon="0.11206">
        <ele>1023</ele>
        <time>2021-08-10T09:51:24.000Z</time>
      </trkpt>
      <trkpt lat="43.03686" lon="0.11208">
        <ele>1023</ele>
        <time>2021-08-10T09:51:25.000Z</time>
      </trkpt>
      <trkpt lat="43.03691" lon="0.11209">
        <ele>1023</ele>
        <time>2021-08-10T09:51:26.000Z</time>
      </trkpt>
      <trkpt lat="43.03696" lon="0.11211">
        <ele>1023</ele>
        <time>2021-08-10T09:51:27.000Z</time>
      </trkpt>
      <trkpt lat="43.03701" lon="0.11203">
        <ele>1024</ele>
        <time>2021-08-10T09:51:28.000Z</time>
      </trkpt>
      <trkpt lat="43.03706" lon="0.11206">
        <ele>1024</ele>
        <time>2021-08-10T09:51:29.000Z</time>
      </trkpt>
      <trkpt lat="43.03711" lon="0.1121">
        <ele>1024</ele>
        <time>2021-08-10T09:51:30.000Z</time>
      </trkpt>
      <trkpt lat="43.03716" lon="0.11214">
        <ele>1024</ele>
        <time>2021-08-10T09:51:31.000Z</time>
      </trkpt>
      <trkpt lat="43.03719" lon="0.11218">
        <ele>1024</ele>
        <time>2021-08-10T09:51:32.000Z</time>
      </trkpt>
      <trkpt lat="43.03724" lon="0.11223">
        <ele>1024</ele>
        <time>2021-08-10T09:51:33.000Z</time>
      </trkpt>
      <trkpt lat="43.03728" lon="0.11228">
        <ele>1024</ele>
        <time>2021-08-10T09:51:34.000Z</time>
      </trkpt>
      <trkpt lat="43.03733" lon="0.11233">
        <ele>1024</ele>
        <time>2021-08-10T09:51:35.000Z</time>
      </trkpt>
      <trkpt lat="43.03737" lon="0.11239">
        <ele>1024</ele>
        <time>2021-08-10T09:51:36.000Z</time>
      </trkpt>
      <trkpt lat="43.03742" lon="0.11244">
        <ele>1024</ele>
        <time>2021-08-10T09:51:37.000Z</time>
      </trkpt>
      <trkpt lat="43.03746" lon="0.1125">
        <ele>1024</ele>
        <time>2021-08-10T09:51:38.000Z</time>
      </trkpt>
      <trkpt lat="43.0375" lon="0.11257">
        <ele>1024</ele>
        <time>2021-08-10T09:51:39.000Z</time>
      </trkpt>
      <trkpt lat="43.03753" lon="0.11264">
        <ele>1024</ele>
        <time>2021-08-10T09:51:40.000Z</time>
      </trkpt>
      <trkpt lat="43.03755" lon="0.1127">
        <ele>1024</ele>
        <time>2021-08-10T09:51:41.000Z</time>
      </trkpt>
      <trkpt lat="43.03756" lon="0.11278">
        <ele>1023</ele>
        <time>2021-08-10T09:51:42.000Z</time>
      </trkpt>
      <trkpt lat="43.03758" lon="0.11286">
        <ele>1023</ele>
        <time>2021-08-10T09:51:43.000Z</time>
      </trkpt>
      <trkpt lat="43.03758" lon="0.11294">
        <ele>1022</ele>
        <time>2021-08-10T09:51:44.000Z</time>
      </trkpt>
      <trkpt lat="43.03759" lon="0.11303">
        <ele>1022</ele>
        <time>2021-08-10T09:51:45.000Z</time>
      </trkpt>
      <trkpt lat="43.03761" lon="0.11313">
        <ele>1021</ele>
        <time>2021-08-10T09:51:46.000Z</time>
      </trkpt>
      <trkpt lat="43.03762" lon="0.11325">
        <ele>1021</ele>
        <time>2021-08-10T09:51:47.000Z</time>
      </trkpt>
      <trkpt lat="43.03765" lon="0.11335">
        <ele>1020</ele>
        <time>2021-08-10T09:51:48.000Z</time>
      </trkpt>
      <trkpt lat="43.03768" lon="0.11346">
        <ele>1020</ele>
        <time>2021-08-10T09:51:49.000Z</time>
      </trkpt>
      <trkpt lat="43.03773" lon="0.11357">
        <ele>1019</ele>
        <time>2021-08-10T09:51:50.000Z</time>
      </trkpt>
      <trkpt lat="43.03777" lon="0.11368">
        <ele>1019</ele>
        <time>2021-08-10T09:51:51.000Z</time>
      </trkpt>
      <trkpt lat="43.03781" lon="0.11378">
        <ele>1018</ele>
        <time>2021-08-10T09:51:52.000Z</time>
      </trkpt>
      <trkpt lat="43.03786" lon="0.11388">
        <ele>1018</ele>
        <time>2021-08-10T09:51:53.000Z</time>
      </trkpt>
      <trkpt lat="43.03791" lon="0.11396">
        <ele>1017</ele>
        <time>2021-08-10T09:51:54.000Z</time>
      </trkpt>
      <trkpt lat="43.03798" lon="0.11403">
        <ele>1017</ele>
        <time>2021-08-10T09:51:55.000Z</time>
      </trkpt>
      <trkpt lat="43.03803" lon="0.11408">
        <ele>1016</ele>
        <time>2021-08-10T09:51:56.000Z</time>
      </trkpt>
      <trkpt lat="43.03809" lon="0.11412">
        <ele>1016</ele>
        <time>2021-08-10T09:51:57.000Z</time>
      </trkpt>
      <trkpt lat="43.03816" lon="0.11415">
        <ele>1014</ele>
        <time>2021-08-10T09:51:58.000Z</time>
      </trkpt>
      <trkpt lat="43.03822" lon="0.11417">
        <ele>1014</ele>
        <time>2021-08-10T09:51:59.000Z</time>
      </trkpt>
      <trkpt lat="43.03828" lon="0.11416">
        <ele>1013</ele>
        <time>2021-08-10T09:52:0.000Z</time>
      </trkpt>
      <trkpt lat="43.03835" lon="0.11413">
        <ele>1013</ele>
        <time>2021-08-10T09:52:1.000Z</time>
      </trkpt>
      <trkpt lat="43.03842" lon="0.11408">
        <ele>1011</ele>
        <time>2021-08-10T09:52:2.000Z</time>
      </trkpt>
      <trkpt lat="43.0385" lon="0.11403">
        <ele>1011</ele>
        <time>2021-08-10T09:52:3.000Z</time>
      </trkpt>
      <trkpt lat="43.03859" lon="0.11398">
        <ele>1010</ele>
        <time>2021-08-10T09:52:4.000Z</time>
      </trkpt>
      <trkpt lat="43.03869" lon="0.11393">
        <ele>1009</ele>
        <time>2021-08-10T09:52:5.000Z</time>
      </trkpt>
      <trkpt lat="43.03878" lon="0.11388">
        <ele>1008</ele>
        <time>2021-08-10T09:52:6.000Z</time>
      </trkpt>
      <trkpt lat="43.03888" lon="0.11384">
        <ele>1007</ele>
        <time>2021-08-10T09:52:7.000Z</time>
      </trkpt>
      <trkpt lat="43.03899" lon="0.1138">
        <ele>1006</ele>
        <time>2021-08-10T09:52:8.000Z</time>
      </trkpt>
      <trkpt lat="43.0391" lon="0.11376">
        <ele>1005</ele>
        <time>2021-08-10T09:52:9.000Z</time>
      </trkpt>
      <trkpt lat="43.03921" lon="0.11372">
        <ele>1005</ele>
        <time>2021-08-10T09:52:10.000Z</time>
      </trkpt>
      <trkpt lat="43.03931" lon="0.11369">
        <ele>1005</ele>
        <time>2021-08-10T09:52:11.000Z</time>
      </trkpt>
      <trkpt lat="43.03941" lon="0.11366">
        <ele>1003</ele>
        <time>2021-08-10T09:52:12.000Z</time>
      </trkpt>
      <trkpt lat="43.03951" lon="0.11363">
        <ele>1003</ele>
        <time>2021-08-10T09:52:13.000Z</time>
      </trkpt>
      <trkpt lat="43.03959" lon="0.11361">
        <ele>1002</ele>
        <time>2021-08-10T09:52:14.000Z</time>
      </trkpt>
      <trkpt lat="43.03968" lon="0.11359">
        <ele>1002</ele>
        <time>2021-08-10T09:52:15.000Z</time>
      </trkpt>
      <trkpt lat="43.03976" lon="0.11358">
        <ele>1001</ele>
        <time>2021-08-10T09:52:16.000Z</time>
      </trkpt>
      <trkpt lat="43.03985" lon="0.11358">
        <ele>1001</ele>
        <time>2021-08-10T09:52:17.000Z</time>
      </trkpt>
      <trkpt lat="43.03992" lon="0.11372">
        <ele>1000</ele>
        <time>2021-08-10T09:52:18.000Z</time>
      </trkpt>
      <trkpt lat="43.03996" lon="0.11378">
        <ele>1000</ele>
        <time>2021-08-10T09:52:19.000Z</time>
      </trkpt>
      <trkpt lat="43.04" lon="0.11385">
        <ele>999</ele>
        <time>2021-08-10T09:52:20.000Z</time>
      </trkpt>
      <trkpt lat="43.04002" lon="0.11394">
        <ele>999</ele>
        <time>2021-08-10T09:52:21.000Z</time>
      </trkpt>
      <trkpt lat="43.04004" lon="0.11403">
        <ele>998</ele>
        <time>2021-08-10T09:52:22.000Z</time>
      </trkpt>
      <trkpt lat="43.04005" lon="0.11413">
        <ele>998</ele>
        <time>2021-08-10T09:52:23.000Z</time>
      </trkpt>
      <trkpt lat="43.04007" lon="0.11422">
        <ele>997</ele>
        <time>2021-08-10T09:52:24.000Z</time>
      </trkpt>
      <trkpt lat="43.04008" lon="0.1143">
        <ele>997</ele>
        <time>2021-08-10T09:52:25.000Z</time>
      </trkpt>
      <trkpt lat="43.04006" lon="0.11441">
        <ele>996</ele>
        <time>2021-08-10T09:52:26.000Z</time>
      </trkpt>
      <trkpt lat="43.04008" lon="0.11452">
        <ele>996</ele>
        <time>2021-08-10T09:52:27.000Z</time>
      </trkpt>
      <trkpt lat="43.0401" lon="0.11463">
        <ele>995</ele>
        <time>2021-08-10T09:52:28.000Z</time>
      </trkpt>
      <trkpt lat="43.04011" lon="0.11474">
        <ele>995</ele>
        <time>2021-08-10T09:52:29.000Z</time>
      </trkpt>
      <trkpt lat="43.04012" lon="0.11483">
        <ele>994</ele>
        <time>2021-08-10T09:52:30.000Z</time>
      </trkpt>
      <trkpt lat="43.04014" lon="0.1149">
        <ele>994</ele>
        <time>2021-08-10T09:52:31.000Z</time>
      </trkpt>
      <trkpt lat="43.04017" lon="0.11497">
        <ele>993</ele>
        <time>2021-08-10T09:52:32.000Z</time>
      </trkpt>
      <trkpt lat="43.04025" lon="0.11499">
        <ele>993</ele>
        <time>2021-08-10T09:52:34.000Z</time>
      </trkpt>
      <trkpt lat="43.04034" lon="0.11494">
        <ele>992</ele>
        <time>2021-08-10T09:52:36.000Z</time>
      </trkpt>
      <trkpt lat="43.04038" lon="0.1149">
        <ele>992</ele>
        <time>2021-08-10T09:52:37.000Z</time>
      </trkpt>
      <trkpt lat="43.04043" lon="0.11487">
        <ele>992</ele>
        <time>2021-08-10T09:52:38.000Z</time>
      </trkpt>
      <trkpt lat="43.04049" lon="0.11484">
        <ele>991</ele>
        <time>2021-08-10T09:52:39.000Z</time>
      </trkpt>
      <trkpt lat="43.04054" lon="0.11481">
        <ele>991</ele>
        <time>2021-08-10T09:52:40.000Z</time>
      </trkpt>
      <trkpt lat="43.0406" lon="0.11479">
        <ele>990</ele>
        <time>2021-08-10T09:52:41.000Z</time>
      </trkpt>
      <trkpt lat="43.04067" lon="0.11478">
        <ele>990</ele>
        <time>2021-08-10T09:52:42.000Z</time>
      </trkpt>
      <trkpt lat="43.04074" lon="0.11477">
        <ele>989</ele>
        <time>2021-08-10T09:52:43.000Z</time>
      </trkpt>
      <trkpt lat="43.04081" lon="0.11477">
        <ele>989</ele>
        <time>2021-08-10T09:52:44.000Z</time>
      </trkpt>
      <trkpt lat="43.04089" lon="0.11478">
        <ele>989</ele>
        <time>2021-08-10T09:52:45.000Z</time>
      </trkpt>
      <trkpt lat="43.04097" lon="0.11481">
        <ele>989</ele>
        <time>2021-08-10T09:52:46.000Z</time>
      </trkpt>
      <trkpt lat="43.04105" lon="0.11484">
        <ele>987</ele>
        <time>2021-08-10T09:52:47.000Z</time>
      </trkpt>
      <trkpt lat="43.04113" lon="0.11489">
        <ele>987</ele>
        <time>2021-08-10T09:52:48.000Z</time>
      </trkpt>
      <trkpt lat="43.04119" lon="0.11496">
        <ele>986</ele>
        <time>2021-08-10T09:52:49.000Z</time>
      </trkpt>
      <trkpt lat="43.04126" lon="0.11503">
        <ele>986</ele>
        <time>2021-08-10T09:52:50.000Z</time>
      </trkpt>
      <trkpt lat="43.04133" lon="0.1151">
        <ele>985</ele>
        <time>2021-08-10T09:52:51.000Z</time>
      </trkpt>
      <trkpt lat="43.0414" lon="0.11518">
        <ele>985</ele>
        <time>2021-08-10T09:52:52.000Z</time>
      </trkpt>
      <trkpt lat="43.04147" lon="0.11526">
        <ele>984</ele>
        <time>2021-08-10T09:52:53.000Z</time>
      </trkpt>
      <trkpt lat="43.04154" lon="0.11535">
        <ele>984</ele>
        <time>2021-08-10T09:52:54.000Z</time>
      </trkpt>
      <trkpt lat="43.04162" lon="0.11543">
        <ele>982</ele>
        <time>2021-08-10T09:52:55.000Z</time>
      </trkpt>
      <trkpt lat="43.0417" lon="0.11551">
        <ele>982</ele>
        <time>2021-08-10T09:52:56.000Z</time>
      </trkpt>
      <trkpt lat="43.04177" lon="0.1156">
        <ele>981</ele>
        <time>2021-08-10T09:52:57.000Z</time>
      </trkpt>
      <trkpt lat="43.04186" lon="0.11568">
        <ele>981</ele>
        <time>2021-08-10T09:52:58.000Z</time>
      </trkpt>
      <trkpt lat="43.04194" lon="0.11575">
        <ele>980</ele>
        <time>2021-08-10T09:52:59.000Z</time>
      </trkpt>
      <trkpt lat="43.04202" lon="0.11583">
        <ele>980</ele>
        <time>2021-08-10T09:53:0.000Z</time>
      </trkpt>
      <trkpt lat="43.0421" lon="0.11591">
        <ele>978</ele>
        <time>2021-08-10T09:53:1.000Z</time>
      </trkpt>
      <trkpt lat="43.04218" lon="0.11599">
        <ele>978</ele>
        <time>2021-08-10T09:53:2.000Z</time>
      </trkpt>
      <trkpt lat="43.04227" lon="0.11607">
        <ele>977</ele>
        <time>2021-08-10T09:53:3.000Z</time>
      </trkpt>
      <trkpt lat="43.04237" lon="0.11615">
        <ele>977</ele>
        <time>2021-08-10T09:53:4.000Z</time>
      </trkpt>
      <trkpt lat="43.04245" lon="0.11622">
        <ele>976</ele>
        <time>2021-08-10T09:53:5.000Z</time>
      </trkpt>
      <trkpt lat="43.04254" lon="0.1163">
        <ele>976</ele>
        <time>2021-08-10T09:53:6.000Z</time>
      </trkpt>
      <trkpt lat="43.04262" lon="0.11637">
        <ele>974</ele>
        <time>2021-08-10T09:53:7.000Z</time>
      </trkpt>
      <trkpt lat="43.0427" lon="0.11645">
        <ele>974</ele>
        <time>2021-08-10T09:53:8.000Z</time>
      </trkpt>
      <trkpt lat="43.04278" lon="0.11653">
        <ele>973</ele>
        <time>2021-08-10T09:53:9.000Z</time>
      </trkpt>
      <trkpt lat="43.04286" lon="0.11661">
        <ele>973</ele>
        <time>2021-08-10T09:53:10.000Z</time>
      </trkpt>
      <trkpt lat="43.04294" lon="0.1167">
        <ele>971</ele>
        <time>2021-08-10T09:53:11.000Z</time>
      </trkpt>
      <trkpt lat="43.04301" lon="0.11687">
        <ele>971</ele>
        <time>2021-08-10T09:53:12.000Z</time>
      </trkpt>
      <trkpt lat="43.04307" lon="0.11699">
        <ele>970</ele>
        <time>2021-08-10T09:53:12.000Z</time>
      </trkpt>
      <trkpt lat="43.04313" lon="0.11711">
        <ele>970</ele>
        <time>2021-08-10T09:53:13.000Z</time>
      </trkpt>
      <trkpt lat="43.04319" lon="0.11724">
        <ele>969</ele>
        <time>2021-08-10T09:53:14.000Z</time>
      </trkpt>
      <trkpt lat="43.04324" lon="0.11737">
        <ele>969</ele>
        <time>2021-08-10T09:53:15.000Z</time>
      </trkpt>
      <trkpt lat="43.04324" lon="0.11755">
        <ele>967</ele>
        <time>2021-08-10T09:53:16.000Z</time>
      </trkpt>
      <trkpt lat="43.04329" lon="0.11767">
        <ele>967</ele>
        <time>2021-08-10T09:53:17.000Z</time>
      </trkpt>
      <trkpt lat="43.04334" lon="0.1178">
        <ele>966</ele>
        <time>2021-08-10T09:53:18.000Z</time>
      </trkpt>
      <trkpt lat="43.04339" lon="0.11794">
        <ele>966</ele>
        <time>2021-08-10T09:53:19.000Z</time>
      </trkpt>
      <trkpt lat="43.04343" lon="0.11808">
        <ele>965</ele>
        <time>2021-08-10T09:53:20.000Z</time>
      </trkpt>
      <trkpt lat="43.04348" lon="0.11821">
        <ele>965</ele>
        <time>2021-08-10T09:53:21.000Z</time>
      </trkpt>
      <trkpt lat="43.04352" lon="0.11835">
        <ele>963</ele>
        <time>2021-08-10T09:53:22.000Z</time>
      </trkpt>
      <trkpt lat="43.04356" lon="0.1185">
        <ele>963</ele>
        <time>2021-08-10T09:53:23.000Z</time>
      </trkpt>
      <trkpt lat="43.0436" lon="0.11864">
        <ele>962</ele>
        <time>2021-08-10T09:53:24.000Z</time>
      </trkpt>
      <trkpt lat="43.04364" lon="0.1188">
        <ele>961</ele>
        <time>2021-08-10T09:53:25.000Z</time>
      </trkpt>
      <trkpt lat="43.04369" lon="0.11894">
        <ele>960</ele>
        <time>2021-08-10T09:53:26.000Z</time>
      </trkpt>
      <trkpt lat="43.04374" lon="0.11911">
        <ele>959</ele>
        <time>2021-08-10T09:53:27.000Z</time>
      </trkpt>
      <trkpt lat="43.04379" lon="0.11922">
        <ele>959</ele>
        <time>2021-08-10T09:53:28.000Z</time>
      </trkpt>
      <trkpt lat="43.04384" lon="0.11935">
        <ele>958</ele>
        <time>2021-08-10T09:53:29.000Z</time>
      </trkpt>
      <trkpt lat="43.04388" lon="0.11946">
        <ele>958</ele>
        <time>2021-08-10T09:53:30.000Z</time>
      </trkpt>
      <trkpt lat="43.04393" lon="0.11957">
        <ele>957</ele>
        <time>2021-08-10T09:53:31.000Z</time>
      </trkpt>
      <trkpt lat="43.04398" lon="0.11965">
        <ele>957</ele>
        <time>2021-08-10T09:53:32.000Z</time>
      </trkpt>
      <trkpt lat="43.04413" lon="0.11972">
        <ele>955</ele>
        <time>2021-08-10T09:53:33.000Z</time>
      </trkpt>
      <trkpt lat="43.04419" lon="0.11974">
        <ele>955</ele>
        <time>2021-08-10T09:53:34.000Z</time>
      </trkpt>
      <trkpt lat="43.04424" lon="0.11974">
        <ele>954</ele>
        <time>2021-08-10T09:53:35.000Z</time>
      </trkpt>
      <trkpt lat="43.04431" lon="0.11969">
        <ele>954</ele>
        <time>2021-08-10T09:53:36.000Z</time>
      </trkpt>
      <trkpt lat="43.0444" lon="0.11961">
        <ele>953</ele>
        <time>2021-08-10T09:53:37.000Z</time>
      </trkpt>
      <trkpt lat="43.04446" lon="0.11952">
        <ele>953</ele>
        <time>2021-08-10T09:53:38.000Z</time>
      </trkpt>
      <trkpt lat="43.0445" lon="0.11944">
        <ele>952</ele>
        <time>2021-08-10T09:53:39.000Z</time>
      </trkpt>
      <trkpt lat="43.04456" lon="0.11934">
        <ele>952</ele>
        <time>2021-08-10T09:53:40.000Z</time>
      </trkpt>
      <trkpt lat="43.04464" lon="0.11923">
        <ele>951</ele>
        <time>2021-08-10T09:53:41.000Z</time>
      </trkpt>
      <trkpt lat="43.0447" lon="0.11914">
        <ele>951</ele>
        <time>2021-08-10T09:53:42.000Z</time>
      </trkpt>
      <trkpt lat="43.04478" lon="0.11905">
        <ele>949</ele>
        <time>2021-08-10T09:53:43.000Z</time>
      </trkpt>
      <trkpt lat="43.04485" lon="0.11896">
        <ele>949</ele>
        <time>2021-08-10T09:53:44.000Z</time>
      </trkpt>
      <trkpt lat="43.04494" lon="0.11888">
        <ele>948</ele>
        <time>2021-08-10T09:53:45.000Z</time>
      </trkpt>
      <trkpt lat="43.04503" lon="0.1188">
        <ele>948</ele>
        <time>2021-08-10T09:53:46.000Z</time>
      </trkpt>
      <trkpt lat="43.04512" lon="0.11873">
        <ele>947</ele>
        <time>2021-08-10T09:53:47.000Z</time>
      </trkpt>
      <trkpt lat="43.04519" lon="0.11866">
        <ele>947</ele>
        <time>2021-08-10T09:53:48.000Z</time>
      </trkpt>
      <trkpt lat="43.04525" lon="0.11859">
        <ele>945</ele>
        <time>2021-08-10T09:53:49.000Z</time>
      </trkpt>
      <trkpt lat="43.04533" lon="0.11851">
        <ele>945</ele>
        <time>2021-08-10T09:53:50.000Z</time>
      </trkpt>
      <trkpt lat="43.04536" lon="0.11839">
        <ele>944</ele>
        <time>2021-08-10T09:53:51.000Z</time>
      </trkpt>
      <trkpt lat="43.0454" lon="0.11826">
        <ele>944</ele>
        <time>2021-08-10T09:53:52.000Z</time>
      </trkpt>
      <trkpt lat="43.04537" lon="0.11786">
        <ele>942</ele>
        <time>2021-08-10T09:53:54.000Z</time>
      </trkpt>
      <trkpt lat="43.04541" lon="0.11772">
        <ele>941</ele>
        <time>2021-08-10T09:53:55.000Z</time>
      </trkpt>
      <trkpt lat="43.04554" lon="0.11764">
        <ele>941</ele>
        <time>2021-08-10T09:53:56.000Z</time>
      </trkpt>
      <trkpt lat="43.04565" lon="0.11753">
        <ele>940</ele>
        <time>2021-08-10T09:53:57.000Z</time>
      </trkpt>
      <trkpt lat="43.04575" lon="0.11746">
        <ele>940</ele>
        <time>2021-08-10T09:53:58.000Z</time>
      </trkpt>
      <trkpt lat="43.04585" lon="0.1174">
        <ele>938</ele>
        <time>2021-08-10T09:53:59.000Z</time>
      </trkpt>
      <trkpt lat="43.04593" lon="0.11735">
        <ele>938</ele>
        <time>2021-08-10T09:54:0.000Z</time>
      </trkpt>
      <trkpt lat="43.04604" lon="0.1173">
        <ele>937</ele>
        <time>2021-08-10T09:54:1.000Z</time>
      </trkpt>
      <trkpt lat="43.04614" lon="0.11727">
        <ele>937</ele>
        <time>2021-08-10T09:54:2.000Z</time>
      </trkpt>
      <trkpt lat="43.04625" lon="0.11726">
        <ele>936</ele>
        <time>2021-08-10T09:54:3.000Z</time>
      </trkpt>
      <trkpt lat="43.04636" lon="0.11726">
        <ele>936</ele>
        <time>2021-08-10T09:54:4.000Z</time>
      </trkpt>
      <trkpt lat="43.04667" lon="0.11738">
        <ele>934</ele>
        <time>2021-08-10T09:54:6.000Z</time>
      </trkpt>
      <trkpt lat="43.04676" lon="0.11741">
        <ele>933</ele>
        <time>2021-08-10T09:54:7.000Z</time>
      </trkpt>
      <trkpt lat="43.04686" lon="0.11744">
        <ele>933</ele>
        <time>2021-08-10T09:54:8.000Z</time>
      </trkpt>
      <trkpt lat="43.04696" lon="0.11746">
        <ele>931</ele>
        <time>2021-08-10T09:54:9.000Z</time>
      </trkpt>
      <trkpt lat="43.04707" lon="0.11747">
        <ele>931</ele>
        <time>2021-08-10T09:54:10.000Z</time>
      </trkpt>
      <trkpt lat="43.04717" lon="0.11746">
        <ele>930</ele>
        <time>2021-08-10T09:54:11.000Z</time>
      </trkpt>
      <trkpt lat="43.04728" lon="0.11743">
        <ele>930</ele>
        <time>2021-08-10T09:54:12.000Z</time>
      </trkpt>
      <trkpt lat="43.04736" lon="0.11741">
        <ele>929</ele>
        <time>2021-08-10T09:54:13.000Z</time>
      </trkpt>
      <trkpt lat="43.04746" lon="0.11737">
        <ele>929</ele>
        <time>2021-08-10T09:54:14.000Z</time>
      </trkpt>
      <trkpt lat="43.04754" lon="0.11732">
        <ele>928</ele>
        <time>2021-08-10T09:54:15.000Z</time>
      </trkpt>
      <trkpt lat="43.04762" lon="0.11727">
        <ele>928</ele>
        <time>2021-08-10T09:54:16.000Z</time>
      </trkpt>
      <trkpt lat="43.0477" lon="0.11724">
        <ele>927</ele>
        <time>2021-08-10T09:54:17.000Z</time>
      </trkpt>
      <trkpt lat="43.04778" lon="0.11722">
        <ele>927</ele>
        <time>2021-08-10T09:54:18.000Z</time>
      </trkpt>
      <trkpt lat="43.04786" lon="0.11728">
        <ele>926</ele>
        <time>2021-08-10T09:54:19.000Z</time>
      </trkpt>
      <trkpt lat="43.04792" lon="0.11734">
        <ele>926</ele>
        <time>2021-08-10T09:54:20.000Z</time>
      </trkpt>
      <trkpt lat="43.04797" lon="0.11743">
        <ele>925</ele>
        <time>2021-08-10T09:54:21.000Z</time>
      </trkpt>
      <trkpt lat="43.04802" lon="0.11753">
        <ele>925</ele>
        <time>2021-08-10T09:54:22.000Z</time>
      </trkpt>
      <trkpt lat="43.04807" lon="0.11764">
        <ele>924</ele>
        <time>2021-08-10T09:54:23.000Z</time>
      </trkpt>
      <trkpt lat="43.04811" lon="0.11774">
        <ele>924</ele>
        <time>2021-08-10T09:54:24.000Z</time>
      </trkpt>
      <trkpt lat="43.04816" lon="0.11784">
        <ele>924</ele>
        <time>2021-08-10T09:54:25.000Z</time>
      </trkpt>
      <trkpt lat="43.04821" lon="0.11794">
        <ele>923</ele>
        <time>2021-08-10T09:54:26.000Z</time>
      </trkpt>
      <trkpt lat="43.04826" lon="0.11805">
        <ele>923</ele>
        <time>2021-08-10T09:54:27.000Z</time>
      </trkpt>
      <trkpt lat="43.04831" lon="0.11815">
        <ele>922</ele>
        <time>2021-08-10T09:54:28.000Z</time>
      </trkpt>
      <trkpt lat="43.04835" lon="0.11825">
        <ele>922</ele>
        <time>2021-08-10T09:54:29.000Z</time>
      </trkpt>
      <trkpt lat="43.0484" lon="0.11836">
        <ele>921</ele>
        <time>2021-08-10T09:54:30.000Z</time>
      </trkpt>
      <trkpt lat="43.04843" lon="0.11848">
        <ele>921</ele>
        <time>2021-08-10T09:54:31.000Z</time>
      </trkpt>
      <trkpt lat="43.0484" lon="0.1186">
        <ele>920</ele>
        <time>2021-08-10T09:54:32.000Z</time>
      </trkpt>
      <trkpt lat="43.04819" lon="0.1189">
        <ele>919</ele>
        <time>2021-08-10T09:54:34.000Z</time>
      </trkpt>
      <trkpt lat="43.04815" lon="0.11902">
        <ele>918</ele>
        <time>2021-08-10T09:54:35.000Z</time>
      </trkpt>
      <trkpt lat="43.04809" lon="0.11912">
        <ele>917</ele>
        <time>2021-08-10T09:54:36.000Z</time>
      </trkpt>
      <trkpt lat="43.04804" lon="0.11921">
        <ele>916</ele>
        <time>2021-08-10T09:54:37.000Z</time>
      </trkpt>
      <trkpt lat="43.04798" lon="0.11933">
        <ele>915</ele>
        <time>2021-08-10T09:54:38.000Z</time>
      </trkpt>
      <trkpt lat="43.04791" lon="0.11949">
        <ele>914</ele>
        <time>2021-08-10T09:54:39.000Z</time>
      </trkpt>
      <trkpt lat="43.04786" lon="0.11962">
        <ele>913</ele>
        <time>2021-08-10T09:54:40.000Z</time>
      </trkpt>
      <trkpt lat="43.04782" lon="0.11976">
        <ele>913</ele>
        <time>2021-08-10T09:54:41.000Z</time>
      </trkpt>
      <trkpt lat="43.04778" lon="0.1199">
        <ele>912</ele>
        <time>2021-08-10T09:54:42.000Z</time>
      </trkpt>
      <trkpt lat="43.04775" lon="0.12005">
        <ele>911</ele>
        <time>2021-08-10T09:54:43.000Z</time>
      </trkpt>
      <trkpt lat="43.04776" lon="0.1202">
        <ele>910</ele>
        <time>2021-08-10T09:54:44.000Z</time>
      </trkpt>
      <trkpt lat="43.04774" lon="0.12036">
        <ele>909</ele>
        <time>2021-08-10T09:54:45.000Z</time>
      </trkpt>
      <trkpt lat="43.04772" lon="0.12052">
        <ele>908</ele>
        <time>2021-08-10T09:54:46.000Z</time>
      </trkpt>
      <trkpt lat="43.0477" lon="0.12068">
        <ele>907</ele>
        <time>2021-08-10T09:54:47.000Z</time>
      </trkpt>
      <trkpt lat="43.04767" lon="0.12083">
        <ele>906</ele>
        <time>2021-08-10T09:54:48.000Z</time>
      </trkpt>
      <trkpt lat="43.04763" lon="0.12098">
        <ele>905</ele>
        <time>2021-08-10T09:54:49.000Z</time>
      </trkpt>
      <trkpt lat="43.04756" lon="0.12112">
        <ele>904</ele>
        <time>2021-08-10T09:54:50.000Z</time>
      </trkpt>
      <trkpt lat="43.0475" lon="0.12126">
        <ele>904</ele>
        <time>2021-08-10T09:54:51.000Z</time>
      </trkpt>
      <trkpt lat="43.04743" lon="0.12137">
        <ele>903</ele>
        <time>2021-08-10T09:54:52.000Z</time>
      </trkpt>
      <trkpt lat="43.04737" lon="0.12147">
        <ele>903</ele>
        <time>2021-08-10T09:54:53.000Z</time>
      </trkpt>
      <trkpt lat="43.04734" lon="0.12157">
        <ele>902</ele>
        <time>2021-08-10T09:54:54.000Z</time>
      </trkpt>
      <trkpt lat="43.04733" lon="0.12168">
        <ele>902</ele>
        <time>2021-08-10T09:54:55.000Z</time>
      </trkpt>
      <trkpt lat="43.04733" lon="0.12178">
        <ele>900</ele>
        <time>2021-08-10T09:54:56.000Z</time>
      </trkpt>
      <trkpt lat="43.04735" lon="0.12189">
        <ele>900</ele>
        <time>2021-08-10T09:54:57.000Z</time>
      </trkpt>
      <trkpt lat="43.0474" lon="0.122">
        <ele>899</ele>
        <time>2021-08-10T09:54:58.000Z</time>
      </trkpt>
      <trkpt lat="43.04746" lon="0.1221">
        <ele>898</ele>
        <time>2021-08-10T09:54:59.000Z</time>
      </trkpt>
      <trkpt lat="43.04754" lon="0.12219">
        <ele>898</ele>
        <time>2021-08-10T09:55:0.000Z</time>
      </trkpt>
      <trkpt lat="43.04763" lon="0.12228">
        <ele>897</ele>
        <time>2021-08-10T09:55:1.000Z</time>
      </trkpt>
      <trkpt lat="43.04771" lon="0.12238">
        <ele>896</ele>
        <time>2021-08-10T09:55:2.000Z</time>
      </trkpt>
      <trkpt lat="43.04779" lon="0.12248">
        <ele>895</ele>
        <time>2021-08-10T09:55:3.000Z</time>
      </trkpt>
      <trkpt lat="43.04787" lon="0.1226">
        <ele>894</ele>
        <time>2021-08-10T09:55:4.000Z</time>
      </trkpt>
      <trkpt lat="43.04794" lon="0.12272">
        <ele>893</ele>
        <time>2021-08-10T09:55:5.000Z</time>
      </trkpt>
      <trkpt lat="43.048" lon="0.12284">
        <ele>892</ele>
        <time>2021-08-10T09:55:6.000Z</time>
      </trkpt>
      <trkpt lat="43.04807" lon="0.12295">
        <ele>892</ele>
        <time>2021-08-10T09:55:7.000Z</time>
      </trkpt>
      <trkpt lat="43.04812" lon="0.12304">
        <ele>891</ele>
        <time>2021-08-10T09:55:8.000Z</time>
      </trkpt>
      <trkpt lat="43.04819" lon="0.12312">
        <ele>891</ele>
        <time>2021-08-10T09:55:9.000Z</time>
      </trkpt>
      <trkpt lat="43.04826" lon="0.1232">
        <ele>889</ele>
        <time>2021-08-10T09:55:10.000Z</time>
      </trkpt>
      <trkpt lat="43.04833" lon="0.12328">
        <ele>889</ele>
        <time>2021-08-10T09:55:11.000Z</time>
      </trkpt>
      <trkpt lat="43.0484" lon="0.12336">
        <ele>888</ele>
        <time>2021-08-10T09:55:12.000Z</time>
      </trkpt>
      <trkpt lat="43.04849" lon="0.12342">
        <ele>887</ele>
        <time>2021-08-10T09:55:13.000Z</time>
      </trkpt>
      <trkpt lat="43.04857" lon="0.12344">
        <ele>887</ele>
        <time>2021-08-10T09:55:14.000Z</time>
      </trkpt>
      <trkpt lat="43.04865" lon="0.12347">
        <ele>886</ele>
        <time>2021-08-10T09:55:15.000Z</time>
      </trkpt>
      <trkpt lat="43.04873" lon="0.1235">
        <ele>885</ele>
        <time>2021-08-10T09:55:16.000Z</time>
      </trkpt>
      <trkpt lat="43.04881" lon="0.12355">
        <ele>884</ele>
        <time>2021-08-10T09:55:17.000Z</time>
      </trkpt>
      <trkpt lat="43.04889" lon="0.1236">
        <ele>884</ele>
        <time>2021-08-10T09:55:18.000Z</time>
      </trkpt>
      <trkpt lat="43.04896" lon="0.12367">
        <ele>883</ele>
        <time>2021-08-10T09:55:19.000Z</time>
      </trkpt>
      <trkpt lat="43.04902" lon="0.12374">
        <ele>883</ele>
        <time>2021-08-10T09:55:20.000Z</time>
      </trkpt>
      <trkpt lat="43.0491" lon="0.12385">
        <ele>881</ele>
        <time>2021-08-10T09:55:21.000Z</time>
      </trkpt>
      <trkpt lat="43.04914" lon="0.12394">
        <ele>880</ele>
        <time>2021-08-10T09:55:22.000Z</time>
      </trkpt>
      <trkpt lat="43.04919" lon="0.12406">
        <ele>879</ele>
        <time>2021-08-10T09:55:23.000Z</time>
      </trkpt>
      <trkpt lat="43.04923" lon="0.12422">
        <ele>878</ele>
        <time>2021-08-10T09:55:24.000Z</time>
      </trkpt>
      <trkpt lat="43.04926" lon="0.12434">
        <ele>876</ele>
        <time>2021-08-10T09:55:25.000Z</time>
      </trkpt>
      <trkpt lat="43.04929" lon="0.12449">
        <ele>875</ele>
        <time>2021-08-10T09:55:26.000Z</time>
      </trkpt>
      <trkpt lat="43.04932" lon="0.12465">
        <ele>874</ele>
        <time>2021-08-10T09:55:27.000Z</time>
      </trkpt>
      <trkpt lat="43.04934" lon="0.12484">
        <ele>872</ele>
        <time>2021-08-10T09:55:28.000Z</time>
      </trkpt>
      <trkpt lat="43.04936" lon="0.12502">
        <ele>871</ele>
        <time>2021-08-10T09:55:29.000Z</time>
      </trkpt>
      <trkpt lat="43.04937" lon="0.12521">
        <ele>869</ele>
        <time>2021-08-10T09:55:30.000Z</time>
      </trkpt>
      <trkpt lat="43.04939" lon="0.12536">
        <ele>868</ele>
        <time>2021-08-10T09:55:31.000Z</time>
      </trkpt>
      <trkpt lat="43.04939" lon="0.12549">
        <ele>867</ele>
        <time>2021-08-10T09:55:32.000Z</time>
      </trkpt>
      <trkpt lat="43.0494" lon="0.1256">
        <ele>866</ele>
        <time>2021-08-10T09:55:33.000Z</time>
      </trkpt>
      <trkpt lat="43.0494" lon="0.1257">
        <ele>865</ele>
        <time>2021-08-10T09:55:34.000Z</time>
      </trkpt>
      <trkpt lat="43.0494" lon="0.1258">
        <ele>864</ele>
        <time>2021-08-10T09:55:35.000Z</time>
      </trkpt>
      <trkpt lat="43.04932" lon="0.12589">
        <ele>862</ele>
        <time>2021-08-10T09:55:36.000Z</time>
      </trkpt>
      <trkpt lat="43.04928" lon="0.126">
        <ele>861</ele>
        <time>2021-08-10T09:55:37.000Z</time>
      </trkpt>
      <trkpt lat="43.04926" lon="0.12614">
        <ele>860</ele>
        <time>2021-08-10T09:55:38.000Z</time>
      </trkpt>
      <trkpt lat="43.04926" lon="0.12624">
        <ele>859</ele>
        <time>2021-08-10T09:55:39.000Z</time>
      </trkpt>
      <trkpt lat="43.04927" lon="0.12636">
        <ele>858</ele>
        <time>2021-08-10T09:55:40.000Z</time>
      </trkpt>
      <trkpt lat="43.04928" lon="0.12646">
        <ele>857</ele>
        <time>2021-08-10T09:55:41.000Z</time>
      </trkpt>
      <trkpt lat="43.04928" lon="0.12657">
        <ele>856</ele>
        <time>2021-08-10T09:55:42.000Z</time>
      </trkpt>
      <trkpt lat="43.04928" lon="0.12668">
        <ele>855</ele>
        <time>2021-08-10T09:55:43.000Z</time>
      </trkpt>
      <trkpt lat="43.04927" lon="0.12682">
        <ele>854</ele>
        <time>2021-08-10T09:55:44.000Z</time>
      </trkpt>
      <trkpt lat="43.04926" lon="0.12696">
        <ele>853</ele>
        <time>2021-08-10T09:55:45.000Z</time>
      </trkpt>
      <trkpt lat="43.04921" lon="0.1271">
        <ele>851</ele>
        <time>2021-08-10T09:55:46.000Z</time>
      </trkpt>
      <trkpt lat="43.04916" lon="0.12724">
        <ele>850</ele>
        <time>2021-08-10T09:55:47.000Z</time>
      </trkpt>
      <trkpt lat="43.04912" lon="0.12738">
        <ele>849</ele>
        <time>2021-08-10T09:55:48.000Z</time>
      </trkpt>
      <trkpt lat="43.04908" lon="0.12754">
        <ele>847</ele>
        <time>2021-08-10T09:55:49.000Z</time>
      </trkpt>
      <trkpt lat="43.04905" lon="0.12773">
        <ele>846</ele>
        <time>2021-08-10T09:55:50.000Z</time>
      </trkpt>
      <trkpt lat="43.04904" lon="0.1279">
        <ele>845</ele>
        <time>2021-08-10T09:55:51.000Z</time>
      </trkpt>
      <trkpt lat="43.04903" lon="0.12808">
        <ele>843</ele>
        <time>2021-08-10T09:55:52.000Z</time>
      </trkpt>
      <trkpt lat="43.04901" lon="0.12826">
        <ele>841</ele>
        <time>2021-08-10T09:55:53.000Z</time>
      </trkpt>
      <trkpt lat="43.049" lon="0.12839">
        <ele>840</ele>
        <time>2021-08-10T09:55:54.000Z</time>
      </trkpt>
      <trkpt lat="43.04899" lon="0.12854">
        <ele>839</ele>
        <time>2021-08-10T09:55:55.000Z</time>
      </trkpt>
      <trkpt lat="43.04898" lon="0.12867">
        <ele>838</ele>
        <time>2021-08-10T09:55:56.000Z</time>
      </trkpt>
      <trkpt lat="43.04896" lon="0.12876">
        <ele>837</ele>
        <time>2021-08-10T09:55:57.000Z</time>
      </trkpt>
      <trkpt lat="43.0489" lon="0.12884">
        <ele>836</ele>
        <time>2021-08-10T09:55:58.000Z</time>
      </trkpt>
      <trkpt lat="43.04884" lon="0.12889">
        <ele>835</ele>
        <time>2021-08-10T09:55:59.000Z</time>
      </trkpt>
      <trkpt lat="43.04877" lon="0.12894">
        <ele>834</ele>
        <time>2021-08-10T09:56:0.000Z</time>
      </trkpt>
      <trkpt lat="43.04868" lon="0.12897">
        <ele>833</ele>
        <time>2021-08-10T09:56:1.000Z</time>
      </trkpt>
      <trkpt lat="43.0486" lon="0.12902">
        <ele>832</ele>
        <time>2021-08-10T09:56:2.000Z</time>
      </trkpt>
      <trkpt lat="43.0485" lon="0.12908">
        <ele>830</ele>
        <time>2021-08-10T09:56:3.000Z</time>
      </trkpt>
      <trkpt lat="43.04843" lon="0.12919">
        <ele>829</ele>
        <time>2021-08-10T09:56:4.000Z</time>
      </trkpt>
      <trkpt lat="43.04835" lon="0.12935">
        <ele>828</ele>
        <time>2021-08-10T09:56:5.000Z</time>
      </trkpt>
      <trkpt lat="43.04828" lon="0.12947">
        <ele>827</ele>
        <time>2021-08-10T09:56:6.000Z</time>
      </trkpt>
      <trkpt lat="43.04821" lon="0.12958">
        <ele>825</ele>
        <time>2021-08-10T09:56:7.000Z</time>
      </trkpt>
      <trkpt lat="43.04813" lon="0.12967">
        <ele>824</ele>
        <time>2021-08-10T09:56:8.000Z</time>
      </trkpt>
      <trkpt lat="43.04805" lon="0.12975">
        <ele>823</ele>
        <time>2021-08-10T09:56:9.000Z</time>
      </trkpt>
      <trkpt lat="43.04798" lon="0.12981">
        <ele>822</ele>
        <time>2021-08-10T09:56:10.000Z</time>
      </trkpt>
      <trkpt lat="43.04793" lon="0.12989">
        <ele>821</ele>
        <time>2021-08-10T09:56:11.000Z</time>
      </trkpt>
      <trkpt lat="43.04789" lon="0.12998">
        <ele>820</ele>
        <time>2021-08-10T09:56:12.000Z</time>
      </trkpt>
      <trkpt lat="43.04787" lon="0.13008">
        <ele>819</ele>
        <time>2021-08-10T09:56:13.000Z</time>
      </trkpt>
      <trkpt lat="43.04786" lon="0.13018">
        <ele>818</ele>
        <time>2021-08-10T09:56:14.000Z</time>
      </trkpt>
      <trkpt lat="43.04785" lon="0.13028">
        <ele>818</ele>
        <time>2021-08-10T09:56:15.000Z</time>
      </trkpt>
      <trkpt lat="43.04781" lon="0.13036">
        <ele>817</ele>
        <time>2021-08-10T09:56:16.000Z</time>
      </trkpt>
      <trkpt lat="43.04776" lon="0.13044">
        <ele>815</ele>
        <time>2021-08-10T09:56:17.000Z</time>
      </trkpt>
      <trkpt lat="43.0477" lon="0.13051">
        <ele>814</ele>
        <time>2021-08-10T09:56:18.000Z</time>
      </trkpt>
      <trkpt lat="43.04762" lon="0.13059">
        <ele>813</ele>
        <time>2021-08-10T09:56:19.000Z</time>
      </trkpt>
      <trkpt lat="43.04754" lon="0.13066">
        <ele>812</ele>
        <time>2021-08-10T09:56:20.000Z</time>
      </trkpt>
      <trkpt lat="43.04746" lon="0.13072">
        <ele>812</ele>
        <time>2021-08-10T09:56:21.000Z</time>
      </trkpt>
      <trkpt lat="43.04738" lon="0.13078">
        <ele>811</ele>
        <time>2021-08-10T09:56:22.000Z</time>
      </trkpt>
      <trkpt lat="43.04732" lon="0.13086">
        <ele>810</ele>
        <time>2021-08-10T09:56:23.000Z</time>
      </trkpt>
      <trkpt lat="43.04727" lon="0.13096">
        <ele>810</ele>
        <time>2021-08-10T09:56:24.000Z</time>
      </trkpt>
      <trkpt lat="43.04722" lon="0.13106">
        <ele>808</ele>
        <time>2021-08-10T09:56:25.000Z</time>
      </trkpt>
      <trkpt lat="43.04716" lon="0.13114">
        <ele>807</ele>
        <time>2021-08-10T09:56:26.000Z</time>
      </trkpt>
      <trkpt lat="43.0471" lon="0.13121">
        <ele>807</ele>
        <time>2021-08-10T09:56:27.000Z</time>
      </trkpt>
      <trkpt lat="43.04702" lon="0.13129">
        <ele>807</ele>
        <time>2021-08-10T09:56:28.000Z</time>
      </trkpt>
      <trkpt lat="43.04695" lon="0.13138">
        <ele>805</ele>
        <time>2021-08-10T09:56:29.000Z</time>
      </trkpt>
      <trkpt lat="43.04688" lon="0.13146">
        <ele>805</ele>
        <time>2021-08-10T09:56:30.000Z</time>
      </trkpt>
      <trkpt lat="43.04681" lon="0.13155">
        <ele>804</ele>
        <time>2021-08-10T09:56:31.000Z</time>
      </trkpt>
      <trkpt lat="43.04674" lon="0.13163">
        <ele>804</ele>
        <time>2021-08-10T09:56:32.000Z</time>
      </trkpt>
      <trkpt lat="43.04667" lon="0.13171">
        <ele>803</ele>
        <time>2021-08-10T09:56:33.000Z</time>
      </trkpt>
      <trkpt lat="43.04661" lon="0.1318">
        <ele>803</ele>
        <time>2021-08-10T09:56:34.000Z</time>
      </trkpt>
      <trkpt lat="43.04654" lon="0.13188">
        <ele>802</ele>
        <time>2021-08-10T09:56:35.000Z</time>
      </trkpt>
      <trkpt lat="43.04648" lon="0.13194">
        <ele>802</ele>
        <time>2021-08-10T09:56:36.000Z</time>
      </trkpt>
      <trkpt lat="43.04641" lon="0.13196">
        <ele>801</ele>
        <time>2021-08-10T09:56:37.000Z</time>
      </trkpt>
      <trkpt lat="43.04633" lon="0.13198">
        <ele>801</ele>
        <time>2021-08-10T09:56:38.000Z</time>
      </trkpt>
      <trkpt lat="43.04625" lon="0.13199">
        <ele>801</ele>
        <time>2021-08-10T09:56:39.000Z</time>
      </trkpt>
      <trkpt lat="43.04618" lon="0.13201">
        <ele>800</ele>
        <time>2021-08-10T09:56:40.000Z</time>
      </trkpt>
      <trkpt lat="43.04611" lon="0.13205">
        <ele>800</ele>
        <time>2021-08-10T09:56:41.000Z</time>
      </trkpt>
      <trkpt lat="43.04604" lon="0.13209">
        <ele>799</ele>
        <time>2021-08-10T09:56:42.000Z</time>
      </trkpt>
      <trkpt lat="43.04596" lon="0.13213">
        <ele>799</ele>
        <time>2021-08-10T09:56:43.000Z</time>
      </trkpt>
      <trkpt lat="43.04588" lon="0.13215">
        <ele>798</ele>
        <time>2021-08-10T09:56:44.000Z</time>
      </trkpt>
      <trkpt lat="43.0458" lon="0.13213">
        <ele>798</ele>
        <time>2021-08-10T09:56:45.000Z</time>
      </trkpt>
      <trkpt lat="43.04572" lon="0.13213">
        <ele>797</ele>
        <time>2021-08-10T09:56:46.000Z</time>
      </trkpt>
      <trkpt lat="43.04562" lon="0.13212">
        <ele>797</ele>
        <time>2021-08-10T09:56:47.000Z</time>
      </trkpt>
      <trkpt lat="43.04554" lon="0.13212">
        <ele>796</ele>
        <time>2021-08-10T09:56:48.000Z</time>
      </trkpt>
      <trkpt lat="43.04546" lon="0.13211">
        <ele>796</ele>
        <time>2021-08-10T09:56:49.000Z</time>
      </trkpt>
      <trkpt lat="43.04539" lon="0.13209">
        <ele>795</ele>
        <time>2021-08-10T09:56:50.000Z</time>
      </trkpt>
      <trkpt lat="43.0453" lon="0.13206">
        <ele>795</ele>
        <time>2021-08-10T09:56:51.000Z</time>
      </trkpt>
      <trkpt lat="43.04523" lon="0.13204">
        <ele>795</ele>
        <time>2021-08-10T09:56:52.000Z</time>
      </trkpt>
      <trkpt lat="43.04515" lon="0.13202">
        <ele>794</ele>
        <time>2021-08-10T09:56:53.000Z</time>
      </trkpt>
      <trkpt lat="43.04509" lon="0.13204">
        <ele>794</ele>
        <time>2021-08-10T09:56:54.000Z</time>
      </trkpt>
      <trkpt lat="43.04503" lon="0.1321">
        <ele>794</ele>
        <time>2021-08-10T09:56:55.000Z</time>
      </trkpt>
      <trkpt lat="43.045" lon="0.13218">
        <ele>794</ele>
        <time>2021-08-10T09:56:56.000Z</time>
      </trkpt>
      <trkpt lat="43.04498" lon="0.13228">
        <ele>793</ele>
        <time>2021-08-10T09:56:57.000Z</time>
      </trkpt>
      <trkpt lat="43.04504" lon="0.13245">
        <ele>793</ele>
        <time>2021-08-10T09:56:58.000Z</time>
      </trkpt>
      <trkpt lat="43.04497" lon="0.13255">
        <ele>793</ele>
        <time>2021-08-10T09:56:59.000Z</time>
      </trkpt>
      <trkpt lat="43.04493" lon="0.13263">
        <ele>793</ele>
        <time>2021-08-10T09:57:0.000Z</time>
      </trkpt>
      <trkpt lat="43.04489" lon="0.13268">
        <ele>793</ele>
        <time>2021-08-10T09:57:1.000Z</time>
      </trkpt>
      <trkpt lat="43.04482" lon="0.13273">
        <ele>793</ele>
        <time>2021-08-10T09:57:2.000Z</time>
      </trkpt>
      <trkpt lat="43.04476" lon="0.13277">
        <ele>792</ele>
        <time>2021-08-10T09:57:3.000Z</time>
      </trkpt>
      <trkpt lat="43.0447" lon="0.1328">
        <ele>792</ele>
        <time>2021-08-10T09:57:4.000Z</time>
      </trkpt>
      <trkpt lat="43.04462" lon="0.13284">
        <ele>792</ele>
        <time>2021-08-10T09:57:5.000Z</time>
      </trkpt>
      <trkpt lat="43.0445" lon="0.13287">
        <ele>792</ele>
        <time>2021-08-10T09:57:6.000Z</time>
      </trkpt>
      <trkpt lat="43.04445" lon="0.13293">
        <ele>792</ele>
        <time>2021-08-10T09:57:7.000Z</time>
      </trkpt>
      <trkpt lat="43.04439" lon="0.13298">
        <ele>791</ele>
        <time>2021-08-10T09:57:8.000Z</time>
      </trkpt>
      <trkpt lat="43.04433" lon="0.13303">
        <ele>791</ele>
        <time>2021-08-10T09:57:9.000Z</time>
      </trkpt>
      <trkpt lat="43.04426" lon="0.13308">
        <ele>791</ele>
        <time>2021-08-10T09:57:10.000Z</time>
      </trkpt>
      <trkpt lat="43.04418" lon="0.13311">
        <ele>790</ele>
        <time>2021-08-10T09:57:11.000Z</time>
      </trkpt>
      <trkpt lat="43.0441" lon="0.13311">
        <ele>790</ele>
        <time>2021-08-10T09:57:12.000Z</time>
      </trkpt>
      <trkpt lat="43.04401" lon="0.13311">
        <ele>790</ele>
        <time>2021-08-10T09:57:13.000Z</time>
      </trkpt>
      <trkpt lat="43.04392" lon="0.13309">
        <ele>790</ele>
        <time>2021-08-10T09:57:14.000Z</time>
      </trkpt>
      <trkpt lat="43.04384" lon="0.13307">
        <ele>789</ele>
        <time>2021-08-10T09:57:15.000Z</time>
      </trkpt>
      <trkpt lat="43.04376" lon="0.13306">
        <ele>789</ele>
        <time>2021-08-10T09:57:16.000Z</time>
      </trkpt>
      <trkpt lat="43.04367" lon="0.13304">
        <ele>789</ele>
        <time>2021-08-10T09:57:17.000Z</time>
      </trkpt>
      <trkpt lat="43.04358" lon="0.13303">
        <ele>788</ele>
        <time>2021-08-10T09:57:18.000Z</time>
      </trkpt>
      <trkpt lat="43.04352" lon="0.13304">
        <ele>788</ele>
        <time>2021-08-10T09:57:19.000Z</time>
      </trkpt>
      <trkpt lat="43.04347" lon="0.1331">
        <ele>788</ele>
        <time>2021-08-10T09:57:20.000Z</time>
      </trkpt>
      <trkpt lat="43.04345" lon="0.13316">
        <ele>787</ele>
        <time>2021-08-10T09:57:21.000Z</time>
      </trkpt>
      <trkpt lat="43.04346" lon="0.13324">
        <ele>787</ele>
        <time>2021-08-10T09:57:22.000Z</time>
      </trkpt>
      <trkpt lat="43.04362" lon="0.13347">
        <ele>786</ele>
        <time>2021-08-10T09:57:24.000Z</time>
      </trkpt>
      <trkpt lat="43.04369" lon="0.1335">
        <ele>786</ele>
        <time>2021-08-10T09:57:25.000Z</time>
      </trkpt>
      <trkpt lat="43.04379" lon="0.13354">
        <ele>785</ele>
        <time>2021-08-10T09:57:26.000Z</time>
      </trkpt>
      <trkpt lat="43.04388" lon="0.13357">
        <ele>785</ele>
        <time>2021-08-10T09:57:27.000Z</time>
      </trkpt>
      <trkpt lat="43.04397" lon="0.1336">
        <ele>783</ele>
        <time>2021-08-10T09:57:27.000Z</time>
      </trkpt>
      <trkpt lat="43.04405" lon="0.13361">
        <ele>783</ele>
        <time>2021-08-10T09:57:28.000Z</time>
      </trkpt>
      <trkpt lat="43.04414" lon="0.13363">
        <ele>782</ele>
        <time>2021-08-10T09:57:29.000Z</time>
      </trkpt>
      <trkpt lat="43.04423" lon="0.13365">
        <ele>782</ele>
        <time>2021-08-10T09:57:30.000Z</time>
      </trkpt>
      <trkpt lat="43.04433" lon="0.13367">
        <ele>781</ele>
        <time>2021-08-10T09:57:31.000Z</time>
      </trkpt>
      <trkpt lat="43.04442" lon="0.13369">
        <ele>780</ele>
        <time>2021-08-10T09:57:32.000Z</time>
      </trkpt>
      <trkpt lat="43.04452" lon="0.13372">
        <ele>779</ele>
        <time>2021-08-10T09:57:33.000Z</time>
      </trkpt>
      <trkpt lat="43.04462" lon="0.13375">
        <ele>778</ele>
        <time>2021-08-10T09:57:34.000Z</time>
      </trkpt>
      <trkpt lat="43.04473" lon="0.13377">
        <ele>777</ele>
        <time>2021-08-10T09:57:35.000Z</time>
      </trkpt>
      <trkpt lat="43.04482" lon="0.13375">
        <ele>776</ele>
        <time>2021-08-10T09:57:36.000Z</time>
      </trkpt>
      <trkpt lat="43.04491" lon="0.13372">
        <ele>776</ele>
        <time>2021-08-10T09:57:37.000Z</time>
      </trkpt>
      <trkpt lat="43.04501" lon="0.13368">
        <ele>775</ele>
        <time>2021-08-10T09:57:38.000Z</time>
      </trkpt>
      <trkpt lat="43.0451" lon="0.13363">
        <ele>775</ele>
        <time>2021-08-10T09:57:39.000Z</time>
      </trkpt>
      <trkpt lat="43.04522" lon="0.13364">
        <ele>772</ele>
        <time>2021-08-10T09:57:41.000Z</time>
      </trkpt>
      <trkpt lat="43.04532" lon="0.13364">
        <ele>771</ele>
        <time>2021-08-10T09:57:42.000Z</time>
      </trkpt>
      <trkpt lat="43.04543" lon="0.13368">
        <ele>770</ele>
        <time>2021-08-10T09:57:43.000Z</time>
      </trkpt>
      <trkpt lat="43.04554" lon="0.1337">
        <ele>770</ele>
        <time>2021-08-10T09:57:44.000Z</time>
      </trkpt>
      <trkpt lat="43.04563" lon="0.13371">
        <ele>769</ele>
        <time>2021-08-10T09:57:45.000Z</time>
      </trkpt>
      <trkpt lat="43.04573" lon="0.13372">
        <ele>769</ele>
        <time>2021-08-10T09:57:46.000Z</time>
      </trkpt>
      <trkpt lat="43.04583" lon="0.13371">
        <ele>767</ele>
        <time>2021-08-10T09:57:47.000Z</time>
      </trkpt>
      <trkpt lat="43.04592" lon="0.13366">
        <ele>767</ele>
        <time>2021-08-10T09:57:48.000Z</time>
      </trkpt>
      <trkpt lat="43.04603" lon="0.1336">
        <ele>766</ele>
        <time>2021-08-10T09:57:49.000Z</time>
      </trkpt>
      <trkpt lat="43.04613" lon="0.13357">
        <ele>766</ele>
        <time>2021-08-10T09:57:50.000Z</time>
      </trkpt>
      <trkpt lat="43.04623" lon="0.13354">
        <ele>764</ele>
        <time>2021-08-10T09:57:51.000Z</time>
      </trkpt>
      <trkpt lat="43.04633" lon="0.13351">
        <ele>763</ele>
        <time>2021-08-10T09:57:52.000Z</time>
      </trkpt>
      <trkpt lat="43.04644" lon="0.1335">
        <ele>762</ele>
        <time>2021-08-10T09:57:53.000Z</time>
      </trkpt>
      <trkpt lat="43.04654" lon="0.13349">
        <ele>761</ele>
        <time>2021-08-10T09:57:54.000Z</time>
      </trkpt>
      <trkpt lat="43.04665" lon="0.13348">
        <ele>760</ele>
        <time>2021-08-10T09:57:55.000Z</time>
      </trkpt>
      <trkpt lat="43.04676" lon="0.13347">
        <ele>759</ele>
        <time>2021-08-10T09:57:56.000Z</time>
      </trkpt>
      <trkpt lat="43.04687" lon="0.13346">
        <ele>758</ele>
        <time>2021-08-10T09:57:57.000Z</time>
      </trkpt>
      <trkpt lat="43.04696" lon="0.13345">
        <ele>758</ele>
        <time>2021-08-10T09:57:58.000Z</time>
      </trkpt>
      <trkpt lat="43.0471" lon="0.13343">
        <ele>757</ele>
        <time>2021-08-10T09:57:59.000Z</time>
      </trkpt>
      <trkpt lat="43.04722" lon="0.13341">
        <ele>756</ele>
        <time>2021-08-10T09:58:0.000Z</time>
      </trkpt>
      <trkpt lat="43.04733" lon="0.13338">
        <ele>755</ele>
        <time>2021-08-10T09:58:1.000Z</time>
      </trkpt>
      <trkpt lat="43.04744" lon="0.13335">
        <ele>755</ele>
        <time>2021-08-10T09:58:2.000Z</time>
      </trkpt>
      <trkpt lat="43.04753" lon="0.13323">
        <ele>754</ele>
        <time>2021-08-10T09:58:3.000Z</time>
      </trkpt>
      <trkpt lat="43.04761" lon="0.13317">
        <ele>754</ele>
        <time>2021-08-10T09:58:4.000Z</time>
      </trkpt>
      <trkpt lat="43.04771" lon="0.13305">
        <ele>752</ele>
        <time>2021-08-10T09:58:5.000Z</time>
      </trkpt>
      <trkpt lat="43.04778" lon="0.13294">
        <ele>752</ele>
        <time>2021-08-10T09:58:6.000Z</time>
      </trkpt>
      <trkpt lat="43.04785" lon="0.13285">
        <ele>751</ele>
        <time>2021-08-10T09:58:7.000Z</time>
      </trkpt>
      <trkpt lat="43.04795" lon="0.13274">
        <ele>751</ele>
        <time>2021-08-10T09:58:8.000Z</time>
      </trkpt>
      <trkpt lat="43.04804" lon="0.13265">
        <ele>749</ele>
        <time>2021-08-10T09:58:9.000Z</time>
      </trkpt>
      <trkpt lat="43.04814" lon="0.13261">
        <ele>749</ele>
        <time>2021-08-10T09:58:10.000Z</time>
      </trkpt>
      <trkpt lat="43.04825" lon="0.13258">
        <ele>748</ele>
        <time>2021-08-10T09:58:11.000Z</time>
      </trkpt>
      <trkpt lat="43.04836" lon="0.13255">
        <ele>747</ele>
        <time>2021-08-10T09:58:12.000Z</time>
      </trkpt>
      <trkpt lat="43.04844" lon="0.13253">
        <ele>747</ele>
        <time>2021-08-10T09:58:13.000Z</time>
      </trkpt>
      <trkpt lat="43.04857" lon="0.13248">
        <ele>746</ele>
        <time>2021-08-10T09:58:14.000Z</time>
      </trkpt>
      <trkpt lat="43.04867" lon="0.13244">
        <ele>746</ele>
        <time>2021-08-10T09:58:15.000Z</time>
      </trkpt>
      <trkpt lat="43.04877" lon="0.13239">
        <ele>744</ele>
        <time>2021-08-10T09:58:16.000Z</time>
      </trkpt>
      <trkpt lat="43.04883" lon="0.13234">
        <ele>744</ele>
        <time>2021-08-10T09:58:17.000Z</time>
      </trkpt>
      <trkpt lat="43.04892" lon="0.13223">
        <ele>743</ele>
        <time>2021-08-10T09:58:18.000Z</time>
      </trkpt>
      <trkpt lat="43.049" lon="0.13213">
        <ele>743</ele>
        <time>2021-08-10T09:58:19.000Z</time>
      </trkpt>
      <trkpt lat="43.04909" lon="0.132">
        <ele>741</ele>
        <time>2021-08-10T09:58:20.000Z</time>
      </trkpt>
      <trkpt lat="43.04916" lon="0.13191">
        <ele>741</ele>
        <time>2021-08-10T09:58:21.000Z</time>
      </trkpt>
      <trkpt lat="43.04922" lon="0.13183">
        <ele>740</ele>
        <time>2021-08-10T09:58:22.000Z</time>
      </trkpt>
      <trkpt lat="43.04928" lon="0.13176">
        <ele>740</ele>
        <time>2021-08-10T09:58:23.000Z</time>
      </trkpt>
      <trkpt lat="43.04935" lon="0.13171">
        <ele>740</ele>
        <time>2021-08-10T09:58:24.000Z</time>
      </trkpt>
      <trkpt lat="43.04943" lon="0.13171">
        <ele>739</ele>
        <time>2021-08-10T09:58:25.000Z</time>
      </trkpt>
      <trkpt lat="43.04948" lon="0.13173">
        <ele>739</ele>
        <time>2021-08-10T09:58:26.000Z</time>
      </trkpt>
      <trkpt lat="43.04958" lon="0.13177">
        <ele>739</ele>
        <time>2021-08-10T09:58:27.000Z</time>
      </trkpt>
      <trkpt lat="43.04967" lon="0.13192">
        <ele>739</ele>
        <time>2021-08-10T09:58:28.000Z</time>
      </trkpt>
      <trkpt lat="43.04974" lon="0.13191">
        <ele>739</ele>
        <time>2021-08-10T09:58:29.000Z</time>
      </trkpt>
      <trkpt lat="43.04985" lon="0.13189">
        <ele>739</ele>
        <time>2021-08-10T09:58:31.000Z</time>
      </trkpt>
      <trkpt lat="43.04992" lon="0.13187">
        <ele>739</ele>
        <time>2021-08-10T09:58:32.000Z</time>
      </trkpt>
      <trkpt lat="43.04997" lon="0.13187">
        <ele>739</ele>
        <time>2021-08-10T09:58:33.000Z</time>
      </trkpt>
      <trkpt lat="43.05004" lon="0.13186">
        <ele>739</ele>
        <time>2021-08-10T09:58:34.000Z</time>
      </trkpt>
      <trkpt lat="43.05011" lon="0.13184">
        <ele>739</ele>
        <time>2021-08-10T09:58:35.000Z</time>
      </trkpt>
      <trkpt lat="43.05016" lon="0.1318">
        <ele>738</ele>
        <time>2021-08-10T09:58:36.000Z</time>
      </trkpt>
      <trkpt lat="43.05023" lon="0.13177">
        <ele>738</ele>
        <time>2021-08-10T09:58:37.000Z</time>
      </trkpt>
      <trkpt lat="43.05029" lon="0.13174">
        <ele>738</ele>
        <time>2021-08-10T09:58:38.000Z</time>
      </trkpt>
      <trkpt lat="43.05035" lon="0.13171">
        <ele>738</ele>
        <time>2021-08-10T09:58:39.000Z</time>
      </trkpt>
      <trkpt lat="43.05041" lon="0.13168">
        <ele>739</ele>
        <time>2021-08-10T09:58:40.000Z</time>
      </trkpt>
      <trkpt lat="43.05047" lon="0.13165">
        <ele>739</ele>
        <time>2021-08-10T09:58:41.000Z</time>
      </trkpt>
      <trkpt lat="43.05052" lon="0.13161">
        <ele>739</ele>
        <time>2021-08-10T09:58:42.000Z</time>
      </trkpt>
      <trkpt lat="43.05057" lon="0.13157">
        <ele>739</ele>
        <time>2021-08-10T09:58:43.000Z</time>
      </trkpt>
      <trkpt lat="43.05061" lon="0.13153">
        <ele>739</ele>
        <time>2021-08-10T09:58:44.000Z</time>
      </trkpt>
      <trkpt lat="43.05067" lon="0.13148">
        <ele>739</ele>
        <time>2021-08-10T09:58:45.000Z</time>
      </trkpt>
      <trkpt lat="43.05072" lon="0.13143">
        <ele>739</ele>
        <time>2021-08-10T09:58:46.000Z</time>
      </trkpt>
      <trkpt lat="43.05076" lon="0.13138">
        <ele>739</ele>
        <time>2021-08-10T09:58:47.000Z</time>
      </trkpt>
      <trkpt lat="43.05082" lon="0.13132">
        <ele>739</ele>
        <time>2021-08-10T09:58:48.000Z</time>
      </trkpt>
      <trkpt lat="43.05088" lon="0.13127">
        <ele>739</ele>
        <time>2021-08-10T09:58:49.000Z</time>
      </trkpt>
      <trkpt lat="43.05094" lon="0.13123">
        <ele>739</ele>
        <time>2021-08-10T09:58:50.000Z</time>
      </trkpt>
      <trkpt lat="43.05099" lon="0.13126">
        <ele>739</ele>
        <time>2021-08-10T09:58:51.000Z</time>
      </trkpt>
      <trkpt lat="43.05104" lon="0.13128">
        <ele>739</ele>
        <time>2021-08-10T09:58:52.000Z</time>
      </trkpt>
      <trkpt lat="43.0511" lon="0.13129">
        <ele>739</ele>
        <time>2021-08-10T09:58:53.000Z</time>
      </trkpt>
      <trkpt lat="43.05115" lon="0.13131">
        <ele>739</ele>
        <time>2021-08-10T09:58:54.000Z</time>
      </trkpt>
      <trkpt lat="43.0512" lon="0.13133">
        <ele>739</ele>
        <time>2021-08-10T09:58:55.000Z</time>
      </trkpt>
      <trkpt lat="43.05125" lon="0.13133">
        <ele>739</ele>
        <time>2021-08-10T09:58:56.000Z</time>
      </trkpt>
      <trkpt lat="43.0513" lon="0.13133">
        <ele>741</ele>
        <time>2021-08-10T09:58:57.000Z</time>
      </trkpt>
      <trkpt lat="43.05138" lon="0.1313">
        <ele>741</ele>
        <time>2021-08-10T09:58:59.000Z</time>
      </trkpt>
      <trkpt lat="43.05146" lon="0.13128">
        <ele>741</ele>
        <time>2021-08-10T09:59:1.000Z</time>
      </trkpt>
      <trkpt lat="43.05154" lon="0.13127">
        <ele>742</ele>
        <time>2021-08-10T09:59:3.000Z</time>
      </trkpt>
      <trkpt lat="43.05162" lon="0.13126">
        <ele>742</ele>
        <time>2021-08-10T09:59:5.000Z</time>
      </trkpt>
      <trkpt lat="43.0517" lon="0.13126">
        <ele>743</ele>
        <time>2021-08-10T09:59:7.000Z</time>
      </trkpt>
      <trkpt lat="43.05177" lon="0.13129">
        <ele>743</ele>
        <time>2021-08-10T09:59:9.000Z</time>
      </trkpt>
      <trkpt lat="43.05184" lon="0.13133">
        <ele>744</ele>
        <time>2021-08-10T09:59:11.000Z</time>
      </trkpt>
      <trkpt lat="43.0519" lon="0.13137">
        <ele>744</ele>
        <time>2021-08-10T09:59:13.000Z</time>
      </trkpt>
      <trkpt lat="43.05196" lon="0.13142">
        <ele>745</ele>
        <time>2021-08-10T09:59:15.000Z</time>
      </trkpt>
      <trkpt lat="43.05203" lon="0.13148">
        <ele>745</ele>
        <time>2021-08-10T09:59:17.000Z</time>
      </trkpt>
      <trkpt lat="43.05208" lon="0.13153">
        <ele>746</ele>
        <time>2021-08-10T09:59:19.000Z</time>
      </trkpt>
      <trkpt lat="43.05213" lon="0.1316">
        <ele>746</ele>
        <time>2021-08-10T09:59:21.000Z</time>
      </trkpt>
      <trkpt lat="43.05218" lon="0.13166">
        <ele>746</ele>
        <time>2021-08-10T09:59:23.000Z</time>
      </trkpt>
      <trkpt lat="43.05223" lon="0.13173">
        <ele>746</ele>
        <time>2021-08-10T09:59:25.000Z</time>
      </trkpt>
      <trkpt lat="43.05229" lon="0.1318">
        <ele>747</ele>
        <time>2021-08-10T09:59:27.000Z</time>
      </trkpt>
      <trkpt lat="43.05234" lon="0.13186">
        <ele>747</ele>
        <time>2021-08-10T09:59:29.000Z</time>
      </trkpt>
      <trkpt lat="43.05239" lon="0.13192">
        <ele>748</ele>
        <time>2021-08-10T09:59:31.000Z</time>
      </trkpt>
      <trkpt lat="43.05245" lon="0.13198">
        <ele>748</ele>
        <time>2021-08-10T09:59:33.000Z</time>
      </trkpt>
      <trkpt lat="43.05249" lon="0.13203">
        <ele>749</ele>
        <time>2021-08-10T09:59:35.000Z</time>
      </trkpt>
      <trkpt lat="43.05254" lon="0.13208">
        <ele>749</ele>
        <time>2021-08-10T09:59:37.000Z</time>
      </trkpt>
      <trkpt lat="43.05259" lon="0.13213">
        <ele>749</ele>
        <time>2021-08-10T09:59:39.000Z</time>
      </trkpt>
      <trkpt lat="43.05264" lon="0.13218">
        <ele>750</ele>
        <time>2021-08-10T09:59:41.000Z</time>
      </trkpt>
      <trkpt lat="43.0527" lon="0.13222">
        <ele>750</ele>
        <time>2021-08-10T09:59:43.000Z</time>
      </trkpt>
      <trkpt lat="43.05275" lon="0.13226">
        <ele>751</ele>
        <time>2021-08-10T09:59:45.000Z</time>
      </trkpt>
      <trkpt lat="43.0528" lon="0.1323">
        <ele>751</ele>
        <time>2021-08-10T09:59:47.000Z</time>
      </trkpt>
      <trkpt lat="43.05285" lon="0.13234">
        <ele>752</ele>
        <time>2021-08-10T09:59:49.000Z</time>
      </trkpt>
      <trkpt lat="43.0529" lon="0.13237">
        <ele>752</ele>
        <time>2021-08-10T09:59:51.000Z</time>
      </trkpt>
      <trkpt lat="43.05295" lon="0.13239">
        <ele>752</ele>
        <time>2021-08-10T09:59:53.000Z</time>
      </trkpt>
      <trkpt lat="43.05299" lon="0.13242">
        <ele>752</ele>
        <time>2021-08-10T09:59:55.000Z</time>
      </trkpt>
      <trkpt lat="43.05305" lon="0.13245">
        <ele>752</ele>
        <time>2021-08-10T09:59:57.000Z</time>
      </trkpt>
      <trkpt lat="43.0531" lon="0.13248">
        <ele>753</ele>
        <time>2021-08-10T09:59:59.000Z</time>
      </trkpt>
      <trkpt lat="43.05315" lon="0.1325">
        <ele>753</ele>
        <time>2021-08-10T10:00:1.000Z</time>
      </trkpt>
      <trkpt lat="43.0532" lon="0.13253">
        <ele>754</ele>
        <time>2021-08-10T10:00:3.000Z</time>
      </trkpt>
      <trkpt lat="43.05324" lon="0.13255">
        <ele>754</ele>
        <time>2021-08-10T10:00:5.000Z</time>
      </trkpt>
      <trkpt lat="43.05329" lon="0.13258">
        <ele>755</ele>
        <time>2021-08-10T10:00:7.000Z</time>
      </trkpt>
      <trkpt lat="43.05333" lon="0.13261">
        <ele>755</ele>
        <time>2021-08-10T10:00:9.000Z</time>
      </trkpt>
      <trkpt lat="43.05337" lon="0.13263">
        <ele>755</ele>
        <time>2021-08-10T10:00:11.000Z</time>
      </trkpt>
      <trkpt lat="43.05341" lon="0.13269">
        <ele>756</ele>
        <time>2021-08-10T10:00:13.000Z</time>
      </trkpt>
      <trkpt lat="43.05346" lon="0.13274">
        <ele>756</ele>
        <time>2021-08-10T10:00:15.000Z</time>
      </trkpt>
      <trkpt lat="43.0535" lon="0.13279">
        <ele>756</ele>
        <time>2021-08-10T10:00:17.000Z</time>
      </trkpt>
      <trkpt lat="43.05353" lon="0.13285">
        <ele>756</ele>
        <time>2021-08-10T10:00:19.000Z</time>
      </trkpt>
      <trkpt lat="43.05356" lon="0.13291">
        <ele>756</ele>
        <time>2021-08-10T10:00:21.000Z</time>
      </trkpt>
      <trkpt lat="43.05359" lon="0.133">
        <ele>756</ele>
        <time>2021-08-10T10:00:23.000Z</time>
      </trkpt>
      <trkpt lat="43.0536" lon="0.13309">
        <ele>756</ele>
        <time>2021-08-10T10:00:25.000Z</time>
      </trkpt>
      <trkpt lat="43.05364" lon="0.13318">
        <ele>756</ele>
        <time>2021-08-10T10:00:27.000Z</time>
      </trkpt>
      <trkpt lat="43.05368" lon="0.13329">
        <ele>756</ele>
        <time>2021-08-10T10:00:29.000Z</time>
      </trkpt>
      <trkpt lat="43.0537" lon="0.13334">
        <ele>756</ele>
        <time>2021-08-10T10:00:30.000Z</time>
      </trkpt>
      <trkpt lat="43.05372" lon="0.1334">
        <ele>755</ele>
        <time>2021-08-10T10:00:31.000Z</time>
      </trkpt>
      <trkpt lat="43.05374" lon="0.13347">
        <ele>755</ele>
        <time>2021-08-10T10:00:32.000Z</time>
      </trkpt>
      <trkpt lat="43.05376" lon="0.13353">
        <ele>755</ele>
        <time>2021-08-10T10:00:33.000Z</time>
      </trkpt>
      <trkpt lat="43.05379" lon="0.13359">
        <ele>755</ele>
        <time>2021-08-10T10:00:34.000Z</time>
      </trkpt>
      <trkpt lat="43.05381" lon="0.13365">
        <ele>755</ele>
        <time>2021-08-10T10:00:35.000Z</time>
      </trkpt>
      <trkpt lat="43.05383" lon="0.13371">
        <ele>755</ele>
        <time>2021-08-10T10:00:36.000Z</time>
      </trkpt>
      <trkpt lat="43.05386" lon="0.13377">
        <ele>755</ele>
        <time>2021-08-10T10:00:37.000Z</time>
      </trkpt>
      <trkpt lat="43.05388" lon="0.13384">
        <ele>755</ele>
        <time>2021-08-10T10:00:38.000Z</time>
      </trkpt>
      <trkpt lat="43.05391" lon="0.13389">
        <ele>754</ele>
        <time>2021-08-10T10:00:39.000Z</time>
      </trkpt>
      <trkpt lat="43.05394" lon="0.13395">
        <ele>754</ele>
        <time>2021-08-10T10:00:40.000Z</time>
      </trkpt>
      <trkpt lat="43.05397" lon="0.13401">
        <ele>754</ele>
        <time>2021-08-10T10:00:41.000Z</time>
      </trkpt>
      <trkpt lat="43.05401" lon="0.13408">
        <ele>754</ele>
        <time>2021-08-10T10:00:42.000Z</time>
      </trkpt>
      <trkpt lat="43.05404" lon="0.13414">
        <ele>753</ele>
        <time>2021-08-10T10:00:43.000Z</time>
      </trkpt>
      <trkpt lat="43.05407" lon="0.1342">
        <ele>753</ele>
        <time>2021-08-10T10:00:44.000Z</time>
      </trkpt>
      <trkpt lat="43.05418" lon="0.13426">
        <ele>753</ele>
        <time>2021-08-10T10:00:45.000Z</time>
      </trkpt>
      <trkpt lat="43.05422" lon="0.13431">
        <ele>753</ele>
        <time>2021-08-10T10:00:46.000Z</time>
      </trkpt>
      <trkpt lat="43.05427" lon="0.13437">
        <ele>753</ele>
        <time>2021-08-10T10:00:47.000Z</time>
      </trkpt>
      <trkpt lat="43.05431" lon="0.13442">
        <ele>752</ele>
        <time>2021-08-10T10:00:48.000Z</time>
      </trkpt>
      <trkpt lat="43.05436" lon="0.13448">
        <ele>752</ele>
        <time>2021-08-10T10:00:49.000Z</time>
      </trkpt>
      <trkpt lat="43.05441" lon="0.13453">
        <ele>752</ele>
        <time>2021-08-10T10:00:50.000Z</time>
      </trkpt>
      <trkpt lat="43.05446" lon="0.13458">
        <ele>752</ele>
        <time>2021-08-10T10:00:51.000Z</time>
      </trkpt>
      <trkpt lat="43.0545" lon="0.13464">
        <ele>752</ele>
        <time>2021-08-10T10:00:52.000Z</time>
      </trkpt>
      <trkpt lat="43.05455" lon="0.13469">
        <ele>752</ele>
        <time>2021-08-10T10:00:53.000Z</time>
      </trkpt>
      <trkpt lat="43.0546" lon="0.13475">
        <ele>752</ele>
        <time>2021-08-10T10:00:54.000Z</time>
      </trkpt>
      <trkpt lat="43.05464" lon="0.1348">
        <ele>752</ele>
        <time>2021-08-10T10:00:55.000Z</time>
      </trkpt>
      <trkpt lat="43.05469" lon="0.13486">
        <ele>752</ele>
        <time>2021-08-10T10:00:56.000Z</time>
      </trkpt>
      <trkpt lat="43.05474" lon="0.13493">
        <ele>752</ele>
        <time>2021-08-10T10:00:57.000Z</time>
      </trkpt>
      <trkpt lat="43.05479" lon="0.13498">
        <ele>752</ele>
        <time>2021-08-10T10:00:58.000Z</time>
      </trkpt>
      <trkpt lat="43.05483" lon="0.13504">
        <ele>751</ele>
        <time>2021-08-10T10:00:59.000Z</time>
      </trkpt>
      <trkpt lat="43.05488" lon="0.1351">
        <ele>751</ele>
        <time>2021-08-10T10:01:0.000Z</time>
      </trkpt>
      <trkpt lat="43.05494" lon="0.13516">
        <ele>751</ele>
        <time>2021-08-10T10:01:1.000Z</time>
      </trkpt>
      <trkpt lat="43.055" lon="0.13522">
        <ele>751</ele>
        <time>2021-08-10T10:01:2.000Z</time>
      </trkpt>
      <trkpt lat="43.05505" lon="0.13529">
        <ele>750</ele>
        <time>2021-08-10T10:01:3.000Z</time>
      </trkpt>
      <trkpt lat="43.05511" lon="0.13535">
        <ele>750</ele>
        <time>2021-08-10T10:01:4.000Z</time>
      </trkpt>
      <trkpt lat="43.05516" lon="0.1354">
        <ele>750</ele>
        <time>2021-08-10T10:01:5.000Z</time>
      </trkpt>
      <trkpt lat="43.05522" lon="0.13546">
        <ele>748</ele>
        <time>2021-08-10T10:01:6.000Z</time>
      </trkpt>
      <trkpt lat="43.05526" lon="0.13551">
        <ele>748</ele>
        <time>2021-08-10T10:01:7.000Z</time>
      </trkpt>
      <trkpt lat="43.05531" lon="0.13556">
        <ele>748</ele>
        <time>2021-08-10T10:01:8.000Z</time>
      </trkpt>
      <trkpt lat="43.05534" lon="0.13565">
        <ele>748</ele>
        <time>2021-08-10T10:01:9.000Z</time>
      </trkpt>
      <trkpt lat="43.05539" lon="0.13578">
        <ele>746</ele>
        <time>2021-08-10T10:01:10.000Z</time>
      </trkpt>
      <trkpt lat="43.0554" lon="0.13588">
        <ele>746</ele>
        <time>2021-08-10T10:01:11.000Z</time>
      </trkpt>
      <trkpt lat="43.05543" lon="0.136">
        <ele>745</ele>
        <time>2021-08-10T10:01:12.000Z</time>
      </trkpt>
      <trkpt lat="43.05546" lon="0.13613">
        <ele>744</ele>
        <time>2021-08-10T10:01:13.000Z</time>
      </trkpt>
      <trkpt lat="43.05549" lon="0.13626">
        <ele>743</ele>
        <time>2021-08-10T10:01:14.000Z</time>
      </trkpt>
      <trkpt lat="43.05552" lon="0.13638">
        <ele>742</ele>
        <time>2021-08-10T10:01:15.000Z</time>
      </trkpt>
      <trkpt lat="43.05553" lon="0.13648">
        <ele>741</ele>
        <time>2021-08-10T10:01:16.000Z</time>
      </trkpt>
      <trkpt lat="43.05555" lon="0.13657">
        <ele>740</ele>
        <time>2021-08-10T10:01:17.000Z</time>
      </trkpt>
      <trkpt lat="43.05557" lon="0.13666">
        <ele>740</ele>
        <time>2021-08-10T10:01:18.000Z</time>
      </trkpt>
      <trkpt lat="43.05553" lon="0.13674">
        <ele>739</ele>
        <time>2021-08-10T10:01:19.000Z</time>
      </trkpt>
      <trkpt lat="43.05539" lon="0.13675">
        <ele>739</ele>
        <time>2021-08-10T10:01:20.000Z</time>
      </trkpt>
      <trkpt lat="43.05533" lon="0.1368">
        <ele>737</ele>
        <time>2021-08-10T10:01:21.000Z</time>
      </trkpt>
      <trkpt lat="43.05528" lon="0.13683">
        <ele>737</ele>
        <time>2021-08-10T10:01:22.000Z</time>
      </trkpt>
      <trkpt lat="43.05524" lon="0.13687">
        <ele>736</ele>
        <time>2021-08-10T10:01:23.000Z</time>
      </trkpt>
      <trkpt lat="43.05525" lon="0.13699">
        <ele>734</ele>
        <time>2021-08-10T10:01:25.000Z</time>
      </trkpt>
      <trkpt lat="43.05529" lon="0.13704">
        <ele>733</ele>
        <time>2021-08-10T10:01:26.000Z</time>
      </trkpt>
      <trkpt lat="43.05536" lon="0.13708">
        <ele>732</ele>
        <time>2021-08-10T10:01:27.000Z</time>
      </trkpt>
      <trkpt lat="43.05571" lon="0.13709">
        <ele>730</ele>
        <time>2021-08-10T10:01:29.000Z</time>
      </trkpt>
      <trkpt lat="43.05579" lon="0.13713">
        <ele>729</ele>
        <time>2021-08-10T10:01:30.000Z</time>
      </trkpt>
      <trkpt lat="43.05582" lon="0.13717">
        <ele>728</ele>
        <time>2021-08-10T10:01:31.000Z</time>
      </trkpt>
      <trkpt lat="43.05586" lon="0.13727">
        <ele>727</ele>
        <time>2021-08-10T10:01:32.000Z</time>
      </trkpt>
      <trkpt lat="43.05588" lon="0.13738">
        <ele>725</ele>
        <time>2021-08-10T10:01:33.000Z</time>
      </trkpt>
      <trkpt lat="43.05587" lon="0.13752">
        <ele>724</ele>
        <time>2021-08-10T10:01:34.000Z</time>
      </trkpt>
      <trkpt lat="43.05588" lon="0.13771">
        <ele>722</ele>
        <time>2021-08-10T10:01:35.000Z</time>
      </trkpt>
      <trkpt lat="43.05589" lon="0.13788">
        <ele>720</ele>
        <time>2021-08-10T10:01:36.000Z</time>
      </trkpt>
      <trkpt lat="43.05591" lon="0.13802">
        <ele>718</ele>
        <time>2021-08-10T10:01:37.000Z</time>
      </trkpt>
      <trkpt lat="43.05594" lon="0.13822">
        <ele>717</ele>
        <time>2021-08-10T10:01:38.000Z</time>
      </trkpt>
      <trkpt lat="43.05596" lon="0.1384">
        <ele>715</ele>
        <time>2021-08-10T10:01:39.000Z</time>
      </trkpt>
      <trkpt lat="43.05597" lon="0.13856">
        <ele>714</ele>
        <time>2021-08-10T10:01:40.000Z</time>
      </trkpt>
      <trkpt lat="43.05598" lon="0.13868">
        <ele>713</ele>
        <time>2021-08-10T10:01:41.000Z</time>
      </trkpt>
      <trkpt lat="43.05598" lon="0.13882">
        <ele>712</ele>
        <time>2021-08-10T10:01:42.000Z</time>
      </trkpt>
      <trkpt lat="43.056" lon="0.13898">
        <ele>711</ele>
        <time>2021-08-10T10:01:42.000Z</time>
      </trkpt>
      <trkpt lat="43.056" lon="0.1391">
        <ele>711</ele>
        <time>2021-08-10T10:01:43.000Z</time>
      </trkpt>
      <trkpt lat="43.056" lon="0.1392">
        <ele>709</ele>
        <time>2021-08-10T10:01:44.000Z</time>
      </trkpt>
      <trkpt lat="43.056" lon="0.13928">
        <ele>709</ele>
        <time>2021-08-10T10:01:45.000Z</time>
      </trkpt>
      <trkpt lat="43.05601" lon="0.13938">
        <ele>708</ele>
        <time>2021-08-10T10:01:46.000Z</time>
      </trkpt>
      <trkpt lat="43.05605" lon="0.13943">
        <ele>708</ele>
        <time>2021-08-10T10:01:47.000Z</time>
      </trkpt>
      <trkpt lat="43.0561" lon="0.13947">
        <ele>707</ele>
        <time>2021-08-10T10:01:48.000Z</time>
      </trkpt>
      <trkpt lat="43.05619" lon="0.13954">
        <ele>707</ele>
        <time>2021-08-10T10:01:49.000Z</time>
      </trkpt>
      <trkpt lat="43.05629" lon="0.1395">
        <ele>707</ele>
        <time>2021-08-10T10:01:50.000Z</time>
      </trkpt>
      <trkpt lat="43.05636" lon="0.13942">
        <ele>706</ele>
        <time>2021-08-10T10:01:52.000Z</time>
      </trkpt>
      <trkpt lat="43.05639" lon="0.13936">
        <ele>706</ele>
        <time>2021-08-10T10:01:53.000Z</time>
      </trkpt>
      <trkpt lat="43.05642" lon="0.1393">
        <ele>705</ele>
        <time>2021-08-10T10:01:54.000Z</time>
      </trkpt>
      <trkpt lat="43.0565" lon="0.13921">
        <ele>705</ele>
        <time>2021-08-10T10:01:56.000Z</time>
      </trkpt>
      <trkpt lat="43.05654" lon="0.13916">
        <ele>705</ele>
        <time>2021-08-10T10:01:57.000Z</time>
      </trkpt>
      <trkpt lat="43.05658" lon="0.13912">
        <ele>705</ele>
        <time>2021-08-10T10:01:58.000Z</time>
      </trkpt>
      <trkpt lat="43.05663" lon="0.13909">
        <ele>704</ele>
        <time>2021-08-10T10:01:59.000Z</time>
      </trkpt>
      <trkpt lat="43.05671" lon="0.13912">
        <ele>704</ele>
        <time>2021-08-10T10:02:1.000Z</time>
      </trkpt>
      <trkpt lat="43.05675" lon="0.13914">
        <ele>704</ele>
        <time>2021-08-10T10:02:2.000Z</time>
      </trkpt>
      <trkpt lat="43.05679" lon="0.13919">
        <ele>704</ele>
        <time>2021-08-10T10:02:3.000Z</time>
      </trkpt>
      <trkpt lat="43.05682" lon="0.13924">
        <ele>704</ele>
        <time>2021-08-10T10:02:4.000Z</time>
      </trkpt>
      <trkpt lat="43.05687" lon="0.13934">
        <ele>704</ele>
        <time>2021-08-10T10:02:6.000Z</time>
      </trkpt>
      <trkpt lat="43.05691" lon="0.13942">
        <ele>704</ele>
        <time>2021-08-10T10:02:7.000Z</time>
      </trkpt>
      <trkpt lat="43.05695" lon="0.13949">
        <ele>704</ele>
        <time>2021-08-10T10:02:8.000Z</time>
      </trkpt>
      <trkpt lat="43.05699" lon="0.13956">
        <ele>704</ele>
        <time>2021-08-10T10:02:9.000Z</time>
      </trkpt>
      <trkpt lat="43.05703" lon="0.13964">
        <ele>704</ele>
        <time>2021-08-10T10:02:10.000Z</time>
      </trkpt>
      <trkpt lat="43.05709" lon="0.13971">
        <ele>702</ele>
        <time>2021-08-10T10:02:11.000Z</time>
      </trkpt>
      <trkpt lat="43.05715" lon="0.13979">
        <ele>702</ele>
        <time>2021-08-10T10:02:12.000Z</time>
      </trkpt>
      <trkpt lat="43.0572" lon="0.13987">
        <ele>702</ele>
        <time>2021-08-10T10:02:13.000Z</time>
      </trkpt>
      <trkpt lat="43.05724" lon="0.13996">
        <ele>702</ele>
        <time>2021-08-10T10:02:14.000Z</time>
      </trkpt>
      <trkpt lat="43.05727" lon="0.14003">
        <ele>702</ele>
        <time>2021-08-10T10:02:15.000Z</time>
      </trkpt>
      <trkpt lat="43.0573" lon="0.14009">
        <ele>702</ele>
        <time>2021-08-10T10:02:16.000Z</time>
      </trkpt>
      <trkpt lat="43.05734" lon="0.14017">
        <ele>702</ele>
        <time>2021-08-10T10:02:17.000Z</time>
      </trkpt>
      <trkpt lat="43.05737" lon="0.14024">
        <ele>702</ele>
        <time>2021-08-10T10:02:18.000Z</time>
      </trkpt>
      <trkpt lat="43.0574" lon="0.14031">
        <ele>701</ele>
        <time>2021-08-10T10:02:19.000Z</time>
      </trkpt>
      <trkpt lat="43.05745" lon="0.14037">
        <ele>701</ele>
        <time>2021-08-10T10:02:20.000Z</time>
      </trkpt>
      <trkpt lat="43.05749" lon="0.14045">
        <ele>700</ele>
        <time>2021-08-10T10:02:21.000Z</time>
      </trkpt>
      <trkpt lat="43.05756" lon="0.14057">
        <ele>700</ele>
        <time>2021-08-10T10:02:22.000Z</time>
      </trkpt>
      <trkpt lat="43.05761" lon="0.14067">
        <ele>699</ele>
        <time>2021-08-10T10:02:23.000Z</time>
      </trkpt>
      <trkpt lat="43.05766" lon="0.14077">
        <ele>699</ele>
        <time>2021-08-10T10:02:24.000Z</time>
      </trkpt>
      <trkpt lat="43.0577" lon="0.14088">
        <ele>697</ele>
        <time>2021-08-10T10:02:25.000Z</time>
      </trkpt>
      <trkpt lat="43.05772" lon="0.14101">
        <ele>697</ele>
        <time>2021-08-10T10:02:26.000Z</time>
      </trkpt>
      <trkpt lat="43.05775" lon="0.14115">
        <ele>696</ele>
        <time>2021-08-10T10:02:27.000Z</time>
      </trkpt>
      <trkpt lat="43.05779" lon="0.14126">
        <ele>696</ele>
        <time>2021-08-10T10:02:28.000Z</time>
      </trkpt>
      <trkpt lat="43.05784" lon="0.14138">
        <ele>694</ele>
        <time>2021-08-10T10:02:29.000Z</time>
      </trkpt>
      <trkpt lat="43.05791" lon="0.14148">
        <ele>694</ele>
        <time>2021-08-10T10:02:30.000Z</time>
      </trkpt>
      <trkpt lat="43.05798" lon="0.14157">
        <ele>693</ele>
        <time>2021-08-10T10:02:31.000Z</time>
      </trkpt>
      <trkpt lat="43.05805" lon="0.14166">
        <ele>693</ele>
        <time>2021-08-10T10:02:32.000Z</time>
      </trkpt>
      <trkpt lat="43.05811" lon="0.14175">
        <ele>693</ele>
        <time>2021-08-10T10:02:33.000Z</time>
      </trkpt>
      <trkpt lat="43.05817" lon="0.14185">
        <ele>692</ele>
        <time>2021-08-10T10:02:34.000Z</time>
      </trkpt>
      <trkpt lat="43.05822" lon="0.14193">
        <ele>692</ele>
        <time>2021-08-10T10:02:35.000Z</time>
      </trkpt>
      <trkpt lat="43.05826" lon="0.142">
        <ele>692</ele>
        <time>2021-08-10T10:02:36.000Z</time>
      </trkpt>
      <trkpt lat="43.05832" lon="0.14206">
        <ele>692</ele>
        <time>2021-08-10T10:02:37.000Z</time>
      </trkpt>
      <trkpt lat="43.05838" lon="0.14212">
        <ele>691</ele>
        <time>2021-08-10T10:02:38.000Z</time>
      </trkpt>
      <trkpt lat="43.0585" lon="0.14219">
        <ele>691</ele>
        <time>2021-08-10T10:02:39.000Z</time>
      </trkpt>
      <trkpt lat="43.05856" lon="0.14217">
        <ele>691</ele>
        <time>2021-08-10T10:02:40.000Z</time>
      </trkpt>
      <trkpt lat="43.05861" lon="0.14216">
        <ele>690</ele>
        <time>2021-08-10T10:02:41.000Z</time>
      </trkpt>
      <trkpt lat="43.05869" lon="0.14216">
        <ele>690</ele>
        <time>2021-08-10T10:02:42.000Z</time>
      </trkpt>
      <trkpt lat="43.05876" lon="0.14213">
        <ele>689</ele>
        <time>2021-08-10T10:02:43.000Z</time>
      </trkpt>
      <trkpt lat="43.05883" lon="0.14208">
        <ele>689</ele>
        <time>2021-08-10T10:02:44.000Z</time>
      </trkpt>
      <trkpt lat="43.05891" lon="0.14202">
        <ele>687</ele>
        <time>2021-08-10T10:02:45.000Z</time>
      </trkpt>
      <trkpt lat="43.05901" lon="0.14195">
        <ele>687</ele>
        <time>2021-08-10T10:02:46.000Z</time>
      </trkpt>
      <trkpt lat="43.05908" lon="0.14187">
        <ele>686</ele>
        <time>2021-08-10T10:02:47.000Z</time>
      </trkpt>
      <trkpt lat="43.05916" lon="0.1418">
        <ele>686</ele>
        <time>2021-08-10T10:02:48.000Z</time>
      </trkpt>
      <trkpt lat="43.05925" lon="0.14173">
        <ele>685</ele>
        <time>2021-08-10T10:02:49.000Z</time>
      </trkpt>
      <trkpt lat="43.05935" lon="0.14166">
        <ele>684</ele>
        <time>2021-08-10T10:02:50.000Z</time>
      </trkpt>
      <trkpt lat="43.05944" lon="0.14162">
        <ele>683</ele>
        <time>2021-08-10T10:02:51.000Z</time>
      </trkpt>
      <trkpt lat="43.05953" lon="0.14161">
        <ele>683</ele>
        <time>2021-08-10T10:02:52.000Z</time>
      </trkpt>
      <trkpt lat="43.05962" lon="0.14156">
        <ele>681</ele>
        <time>2021-08-10T10:02:53.000Z</time>
      </trkpt>
      <trkpt lat="43.0597" lon="0.14151">
        <ele>681</ele>
        <time>2021-08-10T10:02:54.000Z</time>
      </trkpt>
      <trkpt lat="43.05978" lon="0.14145">
        <ele>681</ele>
        <time>2021-08-10T10:02:55.000Z</time>
      </trkpt>
      <trkpt lat="43.05986" lon="0.14137">
        <ele>679</ele>
        <time>2021-08-10T10:02:56.000Z</time>
      </trkpt>
      <trkpt lat="43.05994" lon="0.14127">
        <ele>678</ele>
        <time>2021-08-10T10:02:57.000Z</time>
      </trkpt>
      <trkpt lat="43.06002" lon="0.14118">
        <ele>677</ele>
        <time>2021-08-10T10:02:58.000Z</time>
      </trkpt>
      <trkpt lat="43.0601" lon="0.1411">
        <ele>676</ele>
        <time>2021-08-10T10:02:59.000Z</time>
      </trkpt>
      <trkpt lat="43.06021" lon="0.14103">
        <ele>675</ele>
        <time>2021-08-10T10:03:0.000Z</time>
      </trkpt>
      <trkpt lat="43.0603" lon="0.14098">
        <ele>674</ele>
        <time>2021-08-10T10:03:1.000Z</time>
      </trkpt>
      <trkpt lat="43.06038" lon="0.14092">
        <ele>673</ele>
        <time>2021-08-10T10:03:2.000Z</time>
      </trkpt>
      <trkpt lat="43.06046" lon="0.14087">
        <ele>672</ele>
        <time>2021-08-10T10:03:3.000Z</time>
      </trkpt>
      <trkpt lat="43.06055" lon="0.14083">
        <ele>671</ele>
        <time>2021-08-10T10:03:4.000Z</time>
      </trkpt>
      <trkpt lat="43.06064" lon="0.14079">
        <ele>670</ele>
        <time>2021-08-10T10:03:5.000Z</time>
      </trkpt>
      <trkpt lat="43.06071" lon="0.14073">
        <ele>668</ele>
        <time>2021-08-10T10:03:6.000Z</time>
      </trkpt>
      <trkpt lat="43.06079" lon="0.14067">
        <ele>667</ele>
        <time>2021-08-10T10:03:7.000Z</time>
      </trkpt>
      <trkpt lat="43.06087" lon="0.1406">
        <ele>666</ele>
        <time>2021-08-10T10:03:8.000Z</time>
      </trkpt>
      <trkpt lat="43.06096" lon="0.14052">
        <ele>665</ele>
        <time>2021-08-10T10:03:9.000Z</time>
      </trkpt>
      <trkpt lat="43.06104" lon="0.14044">
        <ele>663</ele>
        <time>2021-08-10T10:03:10.000Z</time>
      </trkpt>
      <trkpt lat="43.06112" lon="0.14035">
        <ele>662</ele>
        <time>2021-08-10T10:03:11.000Z</time>
      </trkpt>
      <trkpt lat="43.0612" lon="0.14025">
        <ele>660</ele>
        <time>2021-08-10T10:03:12.000Z</time>
      </trkpt>
      <trkpt lat="43.06129" lon="0.14015">
        <ele>659</ele>
        <time>2021-08-10T10:03:13.000Z</time>
      </trkpt>
      <trkpt lat="43.06139" lon="0.14003">
        <ele>657</ele>
        <time>2021-08-10T10:03:14.000Z</time>
      </trkpt>
      <trkpt lat="43.06149" lon="0.13991">
        <ele>656</ele>
        <time>2021-08-10T10:03:15.000Z</time>
      </trkpt>
      <trkpt lat="43.0616" lon="0.1398">
        <ele>654</ele>
        <time>2021-08-10T10:03:16.000Z</time>
      </trkpt>
      <trkpt lat="43.06169" lon="0.1397">
        <ele>653</ele>
        <time>2021-08-10T10:03:17.000Z</time>
      </trkpt>
      <trkpt lat="43.06178" lon="0.1396">
        <ele>652</ele>
        <time>2021-08-10T10:03:18.000Z</time>
      </trkpt>
      <trkpt lat="43.06185" lon="0.13952">
        <ele>651</ele>
        <time>2021-08-10T10:03:19.000Z</time>
      </trkpt>
      <trkpt lat="43.06195" lon="0.13943">
        <ele>650</ele>
        <time>2021-08-10T10:03:20.000Z</time>
      </trkpt>
      <trkpt lat="43.06202" lon="0.13939">
        <ele>649</ele>
        <time>2021-08-10T10:03:21.000Z</time>
      </trkpt>
      <trkpt lat="43.06206" lon="0.13952">
        <ele>648</ele>
        <time>2021-08-10T10:03:22.000Z</time>
      </trkpt>
      <trkpt lat="43.06203" lon="0.13961">
        <ele>646</ele>
        <time>2021-08-10T10:03:24.000Z</time>
      </trkpt>
      <trkpt lat="43.06197" lon="0.13967">
        <ele>645</ele>
        <time>2021-08-10T10:03:26.000Z</time>
      </trkpt>
      <trkpt lat="43.06191" lon="0.13973">
        <ele>644</ele>
        <time>2021-08-10T10:03:28.000Z</time>
      </trkpt>
      <trkpt lat="43.06185" lon="0.1398">
        <ele>644</ele>
        <time>2021-08-10T10:03:29.000Z</time>
      </trkpt>
      <trkpt lat="43.06179" lon="0.13987">
        <ele>642</ele>
        <time>2021-08-10T10:03:30.000Z</time>
      </trkpt>
      <trkpt lat="43.06173" lon="0.13995">
        <ele>642</ele>
        <time>2021-08-10T10:03:31.000Z</time>
      </trkpt>
      <trkpt lat="43.06167" lon="0.14002">
        <ele>641</ele>
        <time>2021-08-10T10:03:32.000Z</time>
      </trkpt>
      <trkpt lat="43.06163" lon="0.14009">
        <ele>640</ele>
        <time>2021-08-10T10:03:33.000Z</time>
      </trkpt>
      <trkpt lat="43.06159" lon="0.14018">
        <ele>640</ele>
        <time>2021-08-10T10:03:34.000Z</time>
      </trkpt>
      <trkpt lat="43.06155" lon="0.14027">
        <ele>638</ele>
        <time>2021-08-10T10:03:35.000Z</time>
      </trkpt>
      <trkpt lat="43.06152" lon="0.14035">
        <ele>638</ele>
        <time>2021-08-10T10:03:36.000Z</time>
      </trkpt>
      <trkpt lat="43.06149" lon="0.14041">
        <ele>637</ele>
        <time>2021-08-10T10:03:37.000Z</time>
      </trkpt>
      <trkpt lat="43.06145" lon="0.14048">
        <ele>637</ele>
        <time>2021-08-10T10:03:38.000Z</time>
      </trkpt>
      <trkpt lat="43.06141" lon="0.14056">
        <ele>636</ele>
        <time>2021-08-10T10:03:39.000Z</time>
      </trkpt>
      <trkpt lat="43.06137" lon="0.14064">
        <ele>635</ele>
        <time>2021-08-10T10:03:40.000Z</time>
      </trkpt>
      <trkpt lat="43.06132" lon="0.14072">
        <ele>634</ele>
        <time>2021-08-10T10:03:41.000Z</time>
      </trkpt>
      <trkpt lat="43.06127" lon="0.14082">
        <ele>632</ele>
        <time>2021-08-10T10:03:42.000Z</time>
      </trkpt>
      <trkpt lat="43.06122" lon="0.14093">
        <ele>631</ele>
        <time>2021-08-10T10:03:43.000Z</time>
      </trkpt>
      <trkpt lat="43.06117" lon="0.14104">
        <ele>630</ele>
        <time>2021-08-10T10:03:44.000Z</time>
      </trkpt>
      <trkpt lat="43.06112" lon="0.14117">
        <ele>629</ele>
        <time>2021-08-10T10:03:45.000Z</time>
      </trkpt>
      <trkpt lat="43.06106" lon="0.1413">
        <ele>628</ele>
        <time>2021-08-10T10:03:46.000Z</time>
      </trkpt>
      <trkpt lat="43.061" lon="0.14143">
        <ele>627</ele>
        <time>2021-08-10T10:03:47.000Z</time>
      </trkpt>
      <trkpt lat="43.06095" lon="0.14156">
        <ele>625</ele>
        <time>2021-08-10T10:03:48.000Z</time>
      </trkpt>
      <trkpt lat="43.06089" lon="0.1417">
        <ele>624</ele>
        <time>2021-08-10T10:03:49.000Z</time>
      </trkpt>
      <trkpt lat="43.06084" lon="0.14183">
        <ele>623</ele>
        <time>2021-08-10T10:03:50.000Z</time>
      </trkpt>
      <trkpt lat="43.0608" lon="0.14197">
        <ele>622</ele>
        <time>2021-08-10T10:03:51.000Z</time>
      </trkpt>
      <trkpt lat="43.06076" lon="0.1421">
        <ele>621</ele>
        <time>2021-08-10T10:03:52.000Z</time>
      </trkpt>
      <trkpt lat="43.06073" lon="0.14222">
        <ele>620</ele>
        <time>2021-08-10T10:03:53.000Z</time>
      </trkpt>
      <trkpt lat="43.06069" lon="0.14233">
        <ele>619</ele>
        <time>2021-08-10T10:03:54.000Z</time>
      </trkpt>
      <trkpt lat="43.06065" lon="0.14245">
        <ele>618</ele>
        <time>2021-08-10T10:03:55.000Z</time>
      </trkpt>
      <trkpt lat="43.0606" lon="0.14256">
        <ele>617</ele>
        <time>2021-08-10T10:03:56.000Z</time>
      </trkpt>
      <trkpt lat="43.06057" lon="0.14267">
        <ele>616</ele>
        <time>2021-08-10T10:03:57.000Z</time>
      </trkpt>
      <trkpt lat="43.06053" lon="0.14277">
        <ele>614</ele>
        <time>2021-08-10T10:03:58.000Z</time>
      </trkpt>
      <trkpt lat="43.06048" lon="0.14288">
        <ele>613</ele>
        <time>2021-08-10T10:03:59.000Z</time>
      </trkpt>
      <trkpt lat="43.06044" lon="0.14296">
        <ele>612</ele>
        <time>2021-08-10T10:04:0.000Z</time>
      </trkpt>
      <trkpt lat="43.0604" lon="0.14303">
        <ele>611</ele>
        <time>2021-08-10T10:04:1.000Z</time>
      </trkpt>
      <trkpt lat="43.06027" lon="0.14308">
        <ele>610</ele>
        <time>2021-08-10T10:04:2.000Z</time>
      </trkpt>
      <trkpt lat="43.06019" lon="0.14312">
        <ele>609</ele>
        <time>2021-08-10T10:04:3.000Z</time>
      </trkpt>
      <trkpt lat="43.0601" lon="0.14318">
        <ele>607</ele>
        <time>2021-08-10T10:04:4.000Z</time>
      </trkpt>
      <trkpt lat="43.06003" lon="0.14326">
        <ele>606</ele>
        <time>2021-08-10T10:04:5.000Z</time>
      </trkpt>
      <trkpt lat="43.05994" lon="0.14334">
        <ele>605</ele>
        <time>2021-08-10T10:04:6.000Z</time>
      </trkpt>
      <trkpt lat="43.05986" lon="0.14342">
        <ele>604</ele>
        <time>2021-08-10T10:04:7.000Z</time>
      </trkpt>
      <trkpt lat="43.05977" lon="0.14349">
        <ele>603</ele>
        <time>2021-08-10T10:04:8.000Z</time>
      </trkpt>
      <trkpt lat="43.0597" lon="0.14356">
        <ele>602</ele>
        <time>2021-08-10T10:04:9.000Z</time>
      </trkpt>
      <trkpt lat="43.05965" lon="0.14362">
        <ele>601</ele>
        <time>2021-08-10T10:04:10.000Z</time>
      </trkpt>
      <trkpt lat="43.05963" lon="0.14374">
        <ele>600</ele>
        <time>2021-08-10T10:04:11.000Z</time>
      </trkpt>
      <trkpt lat="43.05962" lon="0.14386">
        <ele>599</ele>
        <time>2021-08-10T10:04:12.000Z</time>
      </trkpt>
      <trkpt lat="43.05963" lon="0.14398">
        <ele>597</ele>
        <time>2021-08-10T10:04:13.000Z</time>
      </trkpt>
      <trkpt lat="43.05963" lon="0.1441">
        <ele>596</ele>
        <time>2021-08-10T10:04:14.000Z</time>
      </trkpt>
      <trkpt lat="43.05963" lon="0.14421">
        <ele>595</ele>
        <time>2021-08-10T10:04:15.000Z</time>
      </trkpt>
      <trkpt lat="43.05962" lon="0.14432">
        <ele>594</ele>
        <time>2021-08-10T10:04:16.000Z</time>
      </trkpt>
      <trkpt lat="43.05959" lon="0.14442">
        <ele>593</ele>
        <time>2021-08-10T10:04:17.000Z</time>
      </trkpt>
      <trkpt lat="43.05957" lon="0.14451">
        <ele>593</ele>
        <time>2021-08-10T10:04:18.000Z</time>
      </trkpt>
      <trkpt lat="43.05957" lon="0.14459">
        <ele>592</ele>
        <time>2021-08-10T10:04:19.000Z</time>
      </trkpt>
      <trkpt lat="43.05959" lon="0.14464">
        <ele>591</ele>
        <time>2021-08-10T10:04:20.000Z</time>
      </trkpt>
      <trkpt lat="43.05965" lon="0.14467">
        <ele>589</ele>
        <time>2021-08-10T10:04:22.000Z</time>
      </trkpt>
      <trkpt lat="43.05972" lon="0.14463">
        <ele>588</ele>
        <time>2021-08-10T10:04:24.000Z</time>
      </trkpt>
      <trkpt lat="43.05978" lon="0.14454">
        <ele>588</ele>
        <time>2021-08-10T10:04:26.000Z</time>
      </trkpt>
      <trkpt lat="43.05982" lon="0.14449">
        <ele>588</ele>
        <time>2021-08-10T10:04:27.000Z</time>
      </trkpt>
      <trkpt lat="43.05986" lon="0.14442">
        <ele>587</ele>
        <time>2021-08-10T10:04:28.000Z</time>
      </trkpt>
      <trkpt lat="43.05989" lon="0.14434">
        <ele>587</ele>
        <time>2021-08-10T10:04:29.000Z</time>
      </trkpt>
      <trkpt lat="43.05992" lon="0.14425">
        <ele>586</ele>
        <time>2021-08-10T10:04:30.000Z</time>
      </trkpt>
      <trkpt lat="43.05996" lon="0.14417">
        <ele>586</ele>
        <time>2021-08-10T10:04:31.000Z</time>
      </trkpt>
      <trkpt lat="43.06001" lon="0.14408">
        <ele>584</ele>
        <time>2021-08-10T10:04:32.000Z</time>
      </trkpt>
      <trkpt lat="43.06006" lon="0.144">
        <ele>584</ele>
        <time>2021-08-10T10:04:33.000Z</time>
      </trkpt>
      <trkpt lat="43.06011" lon="0.14392">
        <ele>583</ele>
        <time>2021-08-10T10:04:34.000Z</time>
      </trkpt>
      <trkpt lat="43.06016" lon="0.14388">
        <ele>583</ele>
        <time>2021-08-10T10:04:35.000Z</time>
      </trkpt>
      <trkpt lat="43.06021" lon="0.14386">
        <ele>582</ele>
        <time>2021-08-10T10:04:36.000Z</time>
      </trkpt>
      <trkpt lat="43.06028" lon="0.14387">
        <ele>580</ele>
        <time>2021-08-10T10:04:38.000Z</time>
      </trkpt>
      <trkpt lat="43.0603" lon="0.14395">
        <ele>579</ele>
        <time>2021-08-10T10:04:41.000Z</time>
      </trkpt>
      <trkpt lat="43.06028" lon="0.14405">
        <ele>578</ele>
        <time>2021-08-10T10:04:43.000Z</time>
      </trkpt>
      <trkpt lat="43.06028" lon="0.14416">
        <ele>575</ele>
        <time>2021-08-10T10:04:45.000Z</time>
      </trkpt>
      <trkpt lat="43.06027" lon="0.14423">
        <ele>574</ele>
        <time>2021-08-10T10:04:46.000Z</time>
      </trkpt>
      <trkpt lat="43.06026" lon="0.14432">
        <ele>573</ele>
        <time>2021-08-10T10:04:47.000Z</time>
      </trkpt>
      <trkpt lat="43.06025" lon="0.14441">
        <ele>572</ele>
        <time>2021-08-10T10:04:48.000Z</time>
      </trkpt>
      <trkpt lat="43.06027" lon="0.14456">
        <ele>571</ele>
        <time>2021-08-10T10:04:49.000Z</time>
      </trkpt>
      <trkpt lat="43.06027" lon="0.14467">
        <ele>570</ele>
        <time>2021-08-10T10:04:50.000Z</time>
      </trkpt>
      <trkpt lat="43.06027" lon="0.1448">
        <ele>568</ele>
        <time>2021-08-10T10:04:51.000Z</time>
      </trkpt>
      <trkpt lat="43.06027" lon="0.14493">
        <ele>567</ele>
        <time>2021-08-10T10:04:52.000Z</time>
      </trkpt>
      <trkpt lat="43.06025" lon="0.14507">
        <ele>566</ele>
        <time>2021-08-10T10:04:53.000Z</time>
      </trkpt>
      <trkpt lat="43.06023" lon="0.14521">
        <ele>565</ele>
        <time>2021-08-10T10:04:54.000Z</time>
      </trkpt>
      <trkpt lat="43.06018" lon="0.14545">
        <ele>565</ele>
        <time>2021-08-10T10:04:55.000Z</time>
      </trkpt>
      <trkpt lat="43.06013" lon="0.14561">
        <ele>563</ele>
        <time>2021-08-10T10:04:56.000Z</time>
      </trkpt>
      <trkpt lat="43.06007" lon="0.14575">
        <ele>563</ele>
        <time>2021-08-10T10:04:57.000Z</time>
      </trkpt>
      <trkpt lat="43.06002" lon="0.1459">
        <ele>563</ele>
        <time>2021-08-10T10:04:58.000Z</time>
      </trkpt>
      <trkpt lat="43.05998" lon="0.14602">
        <ele>563</ele>
        <time>2021-08-10T10:04:59.000Z</time>
      </trkpt>
      <trkpt lat="43.05992" lon="0.14612">
        <ele>561</ele>
        <time>2021-08-10T10:05:0.000Z</time>
      </trkpt>
      <trkpt lat="43.0594" lon="0.14665">
        <ele>560</ele>
        <time>2021-08-10T10:05:2.000Z</time>
      </trkpt>
      <trkpt lat="43.05932" lon="0.14672">
        <ele>559</ele>
        <time>2021-08-10T10:05:3.000Z</time>
      </trkpt>
      <trkpt lat="43.05925" lon="0.14682">
        <ele>558</ele>
        <time>2021-08-10T10:05:4.000Z</time>
      </trkpt>
      <trkpt lat="43.05918" lon="0.14693">
        <ele>557</ele>
        <time>2021-08-10T10:05:5.000Z</time>
      </trkpt>
      <trkpt lat="43.05911" lon="0.14706">
        <ele>556</ele>
        <time>2021-08-10T10:05:6.000Z</time>
      </trkpt>
      <trkpt lat="43.05905" lon="0.14717">
        <ele>555</ele>
        <time>2021-08-10T10:05:7.000Z</time>
      </trkpt>
      <trkpt lat="43.059" lon="0.14728">
        <ele>555</ele>
        <time>2021-08-10T10:05:8.000Z</time>
      </trkpt>
      <trkpt lat="43.05896" lon="0.14736">
        <ele>554</ele>
        <time>2021-08-10T10:05:9.000Z</time>
      </trkpt>
      <trkpt lat="43.05898" lon="0.14744">
        <ele>554</ele>
        <time>2021-08-10T10:05:10.000Z</time>
      </trkpt>
      <trkpt lat="43.05899" lon="0.14751">
        <ele>554</ele>
        <time>2021-08-10T10:05:12.000Z</time>
      </trkpt>
      <trkpt lat="43.05905" lon="0.14748">
        <ele>553</ele>
        <time>2021-08-10T10:05:13.000Z</time>
      </trkpt>
      <trkpt lat="43.05907" lon="0.14755">
        <ele>553</ele>
        <time>2021-08-10T10:05:14.000Z</time>
      </trkpt>
      <trkpt lat="43.05914" lon="0.14759">
        <ele>553</ele>
        <time>2021-08-10T10:05:16.000Z</time>
      </trkpt>
      <trkpt lat="43.0592" lon="0.14761">
        <ele>553</ele>
        <time>2021-08-10T10:05:17.000Z</time>
      </trkpt>
      <trkpt lat="43.05925" lon="0.14764">
        <ele>553</ele>
        <time>2021-08-10T10:05:18.000Z</time>
      </trkpt>
      <trkpt lat="43.05931" lon="0.14766">
        <ele>553</ele>
        <time>2021-08-10T10:05:19.000Z</time>
      </trkpt>
      <trkpt lat="43.05936" lon="0.14769">
        <ele>553</ele>
        <time>2021-08-10T10:05:20.000Z</time>
      </trkpt>
      <trkpt lat="43.05944" lon="0.14772">
        <ele>553</ele>
        <time>2021-08-10T10:05:21.000Z</time>
      </trkpt>
      <trkpt lat="43.0595" lon="0.14775">
        <ele>553</ele>
        <time>2021-08-10T10:05:22.000Z</time>
      </trkpt>
      <trkpt lat="43.05957" lon="0.14778">
        <ele>552</ele>
        <time>2021-08-10T10:05:23.000Z</time>
      </trkpt>
      <trkpt lat="43.05964" lon="0.14782">
        <ele>552</ele>
        <time>2021-08-10T10:05:24.000Z</time>
      </trkpt>
      <trkpt lat="43.05971" lon="0.14786">
        <ele>552</ele>
        <time>2021-08-10T10:05:25.000Z</time>
      </trkpt>
      <trkpt lat="43.05977" lon="0.1479">
        <ele>552</ele>
        <time>2021-08-10T10:05:26.000Z</time>
      </trkpt>
      <trkpt lat="43.05984" lon="0.14794">
        <ele>551</ele>
        <time>2021-08-10T10:05:27.000Z</time>
      </trkpt>
      <trkpt lat="43.05993" lon="0.14801">
        <ele>551</ele>
        <time>2021-08-10T10:05:28.000Z</time>
      </trkpt>
      <trkpt lat="43.06001" lon="0.14805">
        <ele>551</ele>
        <time>2021-08-10T10:05:29.000Z</time>
      </trkpt>
      <trkpt lat="43.06008" lon="0.14809">
        <ele>551</ele>
        <time>2021-08-10T10:05:30.000Z</time>
      </trkpt>
      <trkpt lat="43.06015" lon="0.14813">
        <ele>550</ele>
        <time>2021-08-10T10:05:31.000Z</time>
      </trkpt>
      <trkpt lat="43.0602" lon="0.14816">
        <ele>550</ele>
        <time>2021-08-10T10:05:32.000Z</time>
      </trkpt>
      <trkpt lat="43.06026" lon="0.1482">
        <ele>550</ele>
        <time>2021-08-10T10:05:33.000Z</time>
      </trkpt>
      <trkpt lat="43.06033" lon="0.14824">
        <ele>550</ele>
        <time>2021-08-10T10:05:34.000Z</time>
      </trkpt>
      <trkpt lat="43.06041" lon="0.14829">
        <ele>549</ele>
        <time>2021-08-10T10:05:35.000Z</time>
      </trkpt>
      <trkpt lat="43.06049" lon="0.14833">
        <ele>549</ele>
        <time>2021-08-10T10:05:36.000Z</time>
      </trkpt>
      <trkpt lat="43.06057" lon="0.14838">
        <ele>549</ele>
        <time>2021-08-10T10:05:37.000Z</time>
      </trkpt>
      <trkpt lat="43.06064" lon="0.14842">
        <ele>549</ele>
        <time>2021-08-10T10:05:38.000Z</time>
      </trkpt>
      <trkpt lat="43.06072" lon="0.14845">
        <ele>549</ele>
        <time>2021-08-10T10:05:39.000Z</time>
      </trkpt>
      <trkpt lat="43.06078" lon="0.14849">
        <ele>549</ele>
        <time>2021-08-10T10:05:40.000Z</time>
      </trkpt>
      <trkpt lat="43.06085" lon="0.14853">
        <ele>549</ele>
        <time>2021-08-10T10:05:41.000Z</time>
      </trkpt>
      <trkpt lat="43.06092" lon="0.14857">
        <ele>549</ele>
        <time>2021-08-10T10:05:42.000Z</time>
      </trkpt>
      <trkpt lat="43.06099" lon="0.14861">
        <ele>549</ele>
        <time>2021-08-10T10:05:43.000Z</time>
      </trkpt>
      <trkpt lat="43.06106" lon="0.14865">
        <ele>549</ele>
        <time>2021-08-10T10:05:44.000Z</time>
      </trkpt>
      <trkpt lat="43.06113" lon="0.14869">
        <ele>549</ele>
        <time>2021-08-10T10:05:45.000Z</time>
      </trkpt>
      <trkpt lat="43.06119" lon="0.14872">
        <ele>549</ele>
        <time>2021-08-10T10:05:46.000Z</time>
      </trkpt>
      <trkpt lat="43.06128" lon="0.14877">
        <ele>549</ele>
        <time>2021-08-10T10:05:47.000Z</time>
      </trkpt>
      <trkpt lat="43.06134" lon="0.14881">
        <ele>549</ele>
        <time>2021-08-10T10:05:48.000Z</time>
      </trkpt>
      <trkpt lat="43.06142" lon="0.14885">
        <ele>549</ele>
        <time>2021-08-10T10:05:49.000Z</time>
      </trkpt>
      <trkpt lat="43.0615" lon="0.14889">
        <ele>549</ele>
        <time>2021-08-10T10:05:50.000Z</time>
      </trkpt>
      <trkpt lat="43.06157" lon="0.14892">
        <ele>549</ele>
        <time>2021-08-10T10:05:51.000Z</time>
      </trkpt>
      <trkpt lat="43.06161" lon="0.14895">
        <ele>548</ele>
        <time>2021-08-10T10:05:52.000Z</time>
      </trkpt>
      <trkpt lat="43.06167" lon="0.14897">
        <ele>548</ele>
        <time>2021-08-10T10:05:53.000Z</time>
      </trkpt>
      <trkpt lat="43.06173" lon="0.14901">
        <ele>548</ele>
        <time>2021-08-10T10:05:54.000Z</time>
      </trkpt>
      <trkpt lat="43.06179" lon="0.14905">
        <ele>548</ele>
        <time>2021-08-10T10:05:55.000Z</time>
      </trkpt>
      <trkpt lat="43.06186" lon="0.14908">
        <ele>548</ele>
        <time>2021-08-10T10:05:56.000Z</time>
      </trkpt>
      <trkpt lat="43.06192" lon="0.14911">
        <ele>548</ele>
        <time>2021-08-10T10:05:57.000Z</time>
      </trkpt>
      <trkpt lat="43.06197" lon="0.14915">
        <ele>548</ele>
        <time>2021-08-10T10:05:57.000Z</time>
      </trkpt>
      <trkpt lat="43.06203" lon="0.14918">
        <ele>548</ele>
        <time>2021-08-10T10:05:58.000Z</time>
      </trkpt>
      <trkpt lat="43.06208" lon="0.14931">
        <ele>548</ele>
        <time>2021-08-10T10:05:59.000Z</time>
      </trkpt>
      <trkpt lat="43.06213" lon="0.14937">
        <ele>548</ele>
        <time>2021-08-10T10:06:0.000Z</time>
      </trkpt>
      <trkpt lat="43.06217" lon="0.14945">
        <ele>548</ele>
        <time>2021-08-10T10:06:1.000Z</time>
      </trkpt>
      <trkpt lat="43.06221" lon="0.14952">
        <ele>548</ele>
        <time>2021-08-10T10:06:2.000Z</time>
      </trkpt>
      <trkpt lat="43.06226" lon="0.14959">
        <ele>548</ele>
        <time>2021-08-10T10:06:3.000Z</time>
      </trkpt>
      <trkpt lat="43.0623" lon="0.14966">
        <ele>548</ele>
        <time>2021-08-10T10:06:4.000Z</time>
      </trkpt>
      <trkpt lat="43.06235" lon="0.14973">
        <ele>548</ele>
        <time>2021-08-10T10:06:5.000Z</time>
      </trkpt>
      <trkpt lat="43.06239" lon="0.14979">
        <ele>548</ele>
        <time>2021-08-10T10:06:6.000Z</time>
      </trkpt>
      <trkpt lat="43.06244" lon="0.14986">
        <ele>548</ele>
        <time>2021-08-10T10:06:7.000Z</time>
      </trkpt>
      <trkpt lat="43.06248" lon="0.14992">
        <ele>548</ele>
        <time>2021-08-10T10:06:8.000Z</time>
      </trkpt>
      <trkpt lat="43.06251" lon="0.14998">
        <ele>548</ele>
        <time>2021-08-10T10:06:9.000Z</time>
      </trkpt>
      <trkpt lat="43.06255" lon="0.15005">
        <ele>548</ele>
        <time>2021-08-10T10:06:10.000Z</time>
      </trkpt>
      <trkpt lat="43.06257" lon="0.1501">
        <ele>548</ele>
        <time>2021-08-10T10:06:11.000Z</time>
      </trkpt>
      <trkpt lat="43.06261" lon="0.15012">
        <ele>548</ele>
        <time>2021-08-10T10:06:12.000Z</time>
      </trkpt>
      <trkpt lat="43.06266" lon="0.15012">
        <ele>548</ele>
        <time>2021-08-10T10:06:13.000Z</time>
      </trkpt>
      <trkpt lat="43.06271" lon="0.15011">
        <ele>548</ele>
        <time>2021-08-10T10:06:14.000Z</time>
      </trkpt>
      <trkpt lat="43.06277" lon="0.1501">
        <ele>548</ele>
        <time>2021-08-10T10:06:15.000Z</time>
      </trkpt>
      <trkpt lat="43.06282" lon="0.15009">
        <ele>547</ele>
        <time>2021-08-10T10:06:16.000Z</time>
      </trkpt>
      <trkpt lat="43.06289" lon="0.15008">
        <ele>547</ele>
        <time>2021-08-10T10:06:17.000Z</time>
      </trkpt>
      <trkpt lat="43.06294" lon="0.15007">
        <ele>547</ele>
        <time>2021-08-10T10:06:18.000Z</time>
      </trkpt>
      <trkpt lat="43.063" lon="0.15006">
        <ele>547</ele>
        <time>2021-08-10T10:06:19.000Z</time>
      </trkpt>
      <trkpt lat="43.06306" lon="0.15005">
        <ele>547</ele>
        <time>2021-08-10T10:06:20.000Z</time>
      </trkpt>
      <trkpt lat="43.06313" lon="0.15004">
        <ele>547</ele>
        <time>2021-08-10T10:06:21.000Z</time>
      </trkpt>
      <trkpt lat="43.06318" lon="0.15004">
        <ele>547</ele>
        <time>2021-08-10T10:06:22.000Z</time>
      </trkpt>
      <trkpt lat="43.06325" lon="0.15005">
        <ele>547</ele>
        <time>2021-08-10T10:06:23.000Z</time>
      </trkpt>
      <trkpt lat="43.06331" lon="0.15009">
        <ele>547</ele>
        <time>2021-08-10T10:06:24.000Z</time>
      </trkpt>
      <trkpt lat="43.06337" lon="0.15013">
        <ele>547</ele>
        <time>2021-08-10T10:06:25.000Z</time>
      </trkpt>
      <trkpt lat="43.06342" lon="0.15017">
        <ele>547</ele>
        <time>2021-08-10T10:06:26.000Z</time>
      </trkpt>
      <trkpt lat="43.06347" lon="0.15022">
        <ele>547</ele>
        <time>2021-08-10T10:06:27.000Z</time>
      </trkpt>
      <trkpt lat="43.06353" lon="0.15026">
        <ele>547</ele>
        <time>2021-08-10T10:06:28.000Z</time>
      </trkpt>
      <trkpt lat="43.06358" lon="0.1503">
        <ele>547</ele>
        <time>2021-08-10T10:06:29.000Z</time>
      </trkpt>
      <trkpt lat="43.06363" lon="0.15034">
        <ele>547</ele>
        <time>2021-08-10T10:06:30.000Z</time>
      </trkpt>
      <trkpt lat="43.06369" lon="0.15038">
        <ele>547</ele>
        <time>2021-08-10T10:06:31.000Z</time>
      </trkpt>
      <trkpt lat="43.06374" lon="0.1504">
        <ele>547</ele>
        <time>2021-08-10T10:06:32.000Z</time>
      </trkpt>
      <trkpt lat="43.06378" lon="0.15042">
        <ele>547</ele>
        <time>2021-08-10T10:06:33.000Z</time>
      </trkpt>
      <trkpt lat="43.06384" lon="0.15039">
        <ele>547</ele>
        <time>2021-08-10T10:06:34.000Z</time>
      </trkpt>
      <trkpt lat="43.06389" lon="0.15042">
        <ele>547</ele>
        <time>2021-08-10T10:06:35.000Z</time>
      </trkpt>
      <trkpt lat="43.06392" lon="0.15046">
        <ele>547</ele>
        <time>2021-08-10T10:06:36.000Z</time>
      </trkpt>
      <trkpt lat="43.06394" lon="0.15053">
        <ele>547</ele>
        <time>2021-08-10T10:06:37.000Z</time>
      </trkpt>
      <trkpt lat="43.06397" lon="0.15059">
        <ele>547</ele>
        <time>2021-08-10T10:06:38.000Z</time>
      </trkpt>
      <trkpt lat="43.06399" lon="0.15067">
        <ele>547</ele>
        <time>2021-08-10T10:06:39.000Z</time>
      </trkpt>
      <trkpt lat="43.06402" lon="0.15076">
        <ele>547</ele>
        <time>2021-08-10T10:06:40.000Z</time>
      </trkpt>
      <trkpt lat="43.06403" lon="0.15082">
        <ele>547</ele>
        <time>2021-08-10T10:06:41.000Z</time>
      </trkpt>
      <trkpt lat="43.06406" lon="0.1509">
        <ele>547</ele>
        <time>2021-08-10T10:06:42.000Z</time>
      </trkpt>
      <trkpt lat="43.06408" lon="0.15099">
        <ele>547</ele>
        <time>2021-08-10T10:06:43.000Z</time>
      </trkpt>
      <trkpt lat="43.06411" lon="0.15107">
        <ele>547</ele>
        <time>2021-08-10T10:06:44.000Z</time>
      </trkpt>
      <trkpt lat="43.06413" lon="0.15114">
        <ele>547</ele>
        <time>2021-08-10T10:06:45.000Z</time>
      </trkpt>
      <trkpt lat="43.06414" lon="0.15121">
        <ele>547</ele>
        <time>2021-08-10T10:06:46.000Z</time>
      </trkpt>
      <trkpt lat="43.06416" lon="0.1513">
        <ele>547</ele>
        <time>2021-08-10T10:06:47.000Z</time>
      </trkpt>
      <trkpt lat="43.06418" lon="0.15137">
        <ele>547</ele>
        <time>2021-08-10T10:06:48.000Z</time>
      </trkpt>
      <trkpt lat="43.06419" lon="0.15144">
        <ele>547</ele>
        <time>2021-08-10T10:06:49.000Z</time>
      </trkpt>
      <trkpt lat="43.06421" lon="0.15154">
        <ele>547</ele>
        <time>2021-08-10T10:06:51.000Z</time>
      </trkpt>
      <trkpt lat="43.06423" lon="0.15164">
        <ele>547</ele>
        <time>2021-08-10T10:06:53.000Z</time>
      </trkpt>
      <trkpt lat="43.06424" lon="0.15172">
        <ele>547</ele>
        <time>2021-08-10T10:06:55.000Z</time>
      </trkpt>
      <trkpt lat="43.06427" lon="0.15182">
        <ele>547</ele>
        <time>2021-08-10T10:06:57.000Z</time>
      </trkpt>
      <trkpt lat="43.0643" lon="0.15194">
        <ele>547</ele>
        <time>2021-08-10T10:06:59.000Z</time>
      </trkpt>
      <trkpt lat="43.06432" lon="0.152">
        <ele>547</ele>
        <time>2021-08-10T10:07:0.000Z</time>
      </trkpt>
      <trkpt lat="43.06434" lon="0.15206">
        <ele>547</ele>
        <time>2021-08-10T10:07:1.000Z</time>
      </trkpt>
      <trkpt lat="43.06435" lon="0.15213">
        <ele>547</ele>
        <time>2021-08-10T10:07:2.000Z</time>
      </trkpt>
      <trkpt lat="43.06438" lon="0.15219">
        <ele>547</ele>
        <time>2021-08-10T10:07:3.000Z</time>
      </trkpt>
      <trkpt lat="43.0644" lon="0.15227">
        <ele>547</ele>
        <time>2021-08-10T10:07:4.000Z</time>
      </trkpt>
      <trkpt lat="43.06443" lon="0.15234">
        <ele>547</ele>
        <time>2021-08-10T10:07:5.000Z</time>
      </trkpt>
      <trkpt lat="43.06445" lon="0.1524">
        <ele>547</ele>
        <time>2021-08-10T10:07:6.000Z</time>
      </trkpt>
      <trkpt lat="43.06447" lon="0.15248">
        <ele>546</ele>
        <time>2021-08-10T10:07:7.000Z</time>
      </trkpt>
      <trkpt lat="43.0645" lon="0.15256">
        <ele>546</ele>
        <time>2021-08-10T10:07:8.000Z</time>
      </trkpt>
      <trkpt lat="43.06452" lon="0.15263">
        <ele>546</ele>
        <time>2021-08-10T10:07:9.000Z</time>
      </trkpt>
      <trkpt lat="43.06455" lon="0.15273">
        <ele>545</ele>
        <time>2021-08-10T10:07:10.000Z</time>
      </trkpt>
      <trkpt lat="43.06457" lon="0.1528">
        <ele>545</ele>
        <time>2021-08-10T10:07:11.000Z</time>
      </trkpt>
      <trkpt lat="43.0646" lon="0.1529">
        <ele>545</ele>
        <time>2021-08-10T10:07:13.000Z</time>
      </trkpt>
      <trkpt lat="43.06462" lon="0.15296">
        <ele>545</ele>
        <time>2021-08-10T10:07:16.000Z</time>
      </trkpt>
      <trkpt lat="43.06459" lon="0.15301">
        <ele>545</ele>
        <time>2021-08-10T10:07:21.000Z</time>
      </trkpt>
      <trkpt lat="43.06463" lon="0.15308">
        <ele>544</ele>
        <time>2021-08-10T10:07:24.000Z</time>
      </trkpt>
      <trkpt lat="43.06468" lon="0.15315">
        <ele>544</ele>
        <time>2021-08-10T10:07:26.000Z</time>
      </trkpt>
      <trkpt lat="43.06471" lon="0.15321">
        <ele>544</ele>
        <time>2021-08-10T10:07:27.000Z</time>
      </trkpt>
      <trkpt lat="43.06473" lon="0.15327">
        <ele>544</ele>
        <time>2021-08-10T10:07:28.000Z</time>
      </trkpt>
      <trkpt lat="43.06475" lon="0.15334">
        <ele>544</ele>
        <time>2021-08-10T10:07:29.000Z</time>
      </trkpt>
      <trkpt lat="43.06479" lon="0.15347">
        <ele>544</ele>
        <time>2021-08-10T10:07:31.000Z</time>
      </trkpt>
      <trkpt lat="43.06481" lon="0.15355">
        <ele>544</ele>
        <time>2021-08-10T10:07:32.000Z</time>
      </trkpt>
      <trkpt lat="43.06483" lon="0.15361">
        <ele>544</ele>
        <time>2021-08-10T10:07:33.000Z</time>
      </trkpt>
      <trkpt lat="43.06485" lon="0.15369">
        <ele>544</ele>
        <time>2021-08-10T10:07:34.000Z</time>
      </trkpt>
      <trkpt lat="43.06487" lon="0.15377">
        <ele>544</ele>
        <time>2021-08-10T10:07:35.000Z</time>
      </trkpt>
      <trkpt lat="43.06489" lon="0.15385">
        <ele>544</ele>
        <time>2021-08-10T10:07:36.000Z</time>
      </trkpt>
      <trkpt lat="43.06491" lon="0.15394">
        <ele>544</ele>
        <time>2021-08-10T10:07:37.000Z</time>
      </trkpt>
      <trkpt lat="43.06492" lon="0.15401">
        <ele>544</ele>
        <time>2021-08-10T10:07:38.000Z</time>
      </trkpt>
      <trkpt lat="43.06493" lon="0.15411">
        <ele>544</ele>
        <time>2021-08-10T10:07:39.000Z</time>
      </trkpt>
      <trkpt lat="43.06495" lon="0.15417">
        <ele>544</ele>
        <time>2021-08-10T10:07:40.000Z</time>
      </trkpt>
      <trkpt lat="43.06496" lon="0.15426">
        <ele>544</ele>
        <time>2021-08-10T10:07:41.000Z</time>
      </trkpt>
      <trkpt lat="43.06496" lon="0.15434">
        <ele>544</ele>
        <time>2021-08-10T10:07:42.000Z</time>
      </trkpt>
      <trkpt lat="43.06497" lon="0.15442">
        <ele>544</ele>
        <time>2021-08-10T10:07:43.000Z</time>
      </trkpt>
      <trkpt lat="43.06498" lon="0.15451">
        <ele>544</ele>
        <time>2021-08-10T10:07:44.000Z</time>
      </trkpt>
      <trkpt lat="43.06499" lon="0.15457">
        <ele>544</ele>
        <time>2021-08-10T10:07:45.000Z</time>
      </trkpt>
      <trkpt lat="43.065" lon="0.15465">
        <ele>544</ele>
        <time>2021-08-10T10:07:46.000Z</time>
      </trkpt>
      <trkpt lat="43.06501" lon="0.15472">
        <ele>545</ele>
        <time>2021-08-10T10:07:47.000Z</time>
      </trkpt>
      <trkpt lat="43.06503" lon="0.15479">
        <ele>545</ele>
        <time>2021-08-10T10:07:48.000Z</time>
      </trkpt>
      <trkpt lat="43.06507" lon="0.15485">
        <ele>545</ele>
        <time>2021-08-10T10:07:49.000Z</time>
      </trkpt>
      <trkpt lat="43.06511" lon="0.15491">
        <ele>545</ele>
        <time>2021-08-10T10:07:50.000Z</time>
      </trkpt>
      <trkpt lat="43.06515" lon="0.15497">
        <ele>545</ele>
        <time>2021-08-10T10:07:51.000Z</time>
      </trkpt>
      <trkpt lat="43.06519" lon="0.15502">
        <ele>545</ele>
        <time>2021-08-10T10:07:52.000Z</time>
      </trkpt>
      <trkpt lat="43.06524" lon="0.15507">
        <ele>545</ele>
        <time>2021-08-10T10:07:53.000Z</time>
      </trkpt>
      <trkpt lat="43.0653" lon="0.15511">
        <ele>545</ele>
        <time>2021-08-10T10:07:54.000Z</time>
      </trkpt>
      <trkpt lat="43.06535" lon="0.15515">
        <ele>545</ele>
        <time>2021-08-10T10:07:55.000Z</time>
      </trkpt>
      <trkpt lat="43.06541" lon="0.15519">
        <ele>545</ele>
        <time>2021-08-10T10:07:56.000Z</time>
      </trkpt>
      <trkpt lat="43.06547" lon="0.15523">
        <ele>545</ele>
        <time>2021-08-10T10:07:57.000Z</time>
      </trkpt>
      <trkpt lat="43.06553" lon="0.15527">
        <ele>545</ele>
        <time>2021-08-10T10:07:58.000Z</time>
      </trkpt>
      <trkpt lat="43.06559" lon="0.1553">
        <ele>545</ele>
        <time>2021-08-10T10:07:59.000Z</time>
      </trkpt>
      <trkpt lat="43.06566" lon="0.15534">
        <ele>545</ele>
        <time>2021-08-10T10:08:0.000Z</time>
      </trkpt>
      <trkpt lat="43.06572" lon="0.15537">
        <ele>545</ele>
        <time>2021-08-10T10:08:1.000Z</time>
      </trkpt>
      <trkpt lat="43.06578" lon="0.1554">
        <ele>545</ele>
        <time>2021-08-10T10:08:2.000Z</time>
      </trkpt>
      <trkpt lat="43.06584" lon="0.15543">
        <ele>545</ele>
        <time>2021-08-10T10:08:3.000Z</time>
      </trkpt>
      <trkpt lat="43.06591" lon="0.15545">
        <ele>545</ele>
        <time>2021-08-10T10:08:4.000Z</time>
      </trkpt>
      <trkpt lat="43.06597" lon="0.15548">
        <ele>545</ele>
        <time>2021-08-10T10:08:5.000Z</time>
      </trkpt>
      <trkpt lat="43.06604" lon="0.1555">
        <ele>545</ele>
        <time>2021-08-10T10:08:6.000Z</time>
      </trkpt>
      <trkpt lat="43.0661" lon="0.15553">
        <ele>545</ele>
        <time>2021-08-10T10:08:7.000Z</time>
      </trkpt>
      <trkpt lat="43.06616" lon="0.15555">
        <ele>545</ele>
        <time>2021-08-10T10:08:8.000Z</time>
      </trkpt>
      <trkpt lat="43.06623" lon="0.15558">
        <ele>545</ele>
        <time>2021-08-10T10:08:9.000Z</time>
      </trkpt>
      <trkpt lat="43.06629" lon="0.1556">
        <ele>545</ele>
        <time>2021-08-10T10:08:10.000Z</time>
      </trkpt>
      <trkpt lat="43.06636" lon="0.15563">
        <ele>544</ele>
        <time>2021-08-10T10:08:11.000Z</time>
      </trkpt>
      <trkpt lat="43.06643" lon="0.15565">
        <ele>544</ele>
        <time>2021-08-10T10:08:12.000Z</time>
      </trkpt>
      <trkpt lat="43.0665" lon="0.15568">
        <ele>544</ele>
        <time>2021-08-10T10:08:13.000Z</time>
      </trkpt>
      <trkpt lat="43.06657" lon="0.1557">
        <ele>544</ele>
        <time>2021-08-10T10:08:14.000Z</time>
      </trkpt>
      <trkpt lat="43.06664" lon="0.15566">
        <ele>544</ele>
        <time>2021-08-10T10:08:15.000Z</time>
      </trkpt>
      <trkpt lat="43.06671" lon="0.15566">
        <ele>544</ele>
        <time>2021-08-10T10:08:16.000Z</time>
      </trkpt>
      <trkpt lat="43.06678" lon="0.15565">
        <ele>544</ele>
        <time>2021-08-10T10:08:17.000Z</time>
      </trkpt>
      <trkpt lat="43.06685" lon="0.15565">
        <ele>543</ele>
        <time>2021-08-10T10:08:18.000Z</time>
      </trkpt>
      <trkpt lat="43.06692" lon="0.15565">
        <ele>543</ele>
        <time>2021-08-10T10:08:19.000Z</time>
      </trkpt>
      <trkpt lat="43.06699" lon="0.15564">
        <ele>543</ele>
        <time>2021-08-10T10:08:20.000Z</time>
      </trkpt>
      <trkpt lat="43.06707" lon="0.15564">
        <ele>543</ele>
        <time>2021-08-10T10:08:21.000Z</time>
      </trkpt>
      <trkpt lat="43.06714" lon="0.15564">
        <ele>543</ele>
        <time>2021-08-10T10:08:22.000Z</time>
      </trkpt>
      <trkpt lat="43.06721" lon="0.15565">
        <ele>542</ele>
        <time>2021-08-10T10:08:23.000Z</time>
      </trkpt>
      <trkpt lat="43.06728" lon="0.15565">
        <ele>542</ele>
        <time>2021-08-10T10:08:24.000Z</time>
      </trkpt>
      <trkpt lat="43.06735" lon="0.15566">
        <ele>542</ele>
        <time>2021-08-10T10:08:25.000Z</time>
      </trkpt>
      <trkpt lat="43.06742" lon="0.15567">
        <ele>542</ele>
        <time>2021-08-10T10:08:26.000Z</time>
      </trkpt>
      <trkpt lat="43.06749" lon="0.15568">
        <ele>541</ele>
        <time>2021-08-10T10:08:27.000Z</time>
      </trkpt>
      <trkpt lat="43.06755" lon="0.1557">
        <ele>541</ele>
        <time>2021-08-10T10:08:28.000Z</time>
      </trkpt>
      <trkpt lat="43.06762" lon="0.1558">
        <ele>541</ele>
        <time>2021-08-10T10:08:29.000Z</time>
      </trkpt>
      <trkpt lat="43.06768" lon="0.15583">
        <ele>541</ele>
        <time>2021-08-10T10:08:30.000Z</time>
      </trkpt>
      <trkpt lat="43.06775" lon="0.15586">
        <ele>540</ele>
        <time>2021-08-10T10:08:31.000Z</time>
      </trkpt>
      <trkpt lat="43.06782" lon="0.15588">
        <ele>540</ele>
        <time>2021-08-10T10:08:32.000Z</time>
      </trkpt>
      <trkpt lat="43.06788" lon="0.15587">
        <ele>540</ele>
        <time>2021-08-10T10:08:33.000Z</time>
      </trkpt>
      <trkpt lat="43.06794" lon="0.15581">
        <ele>540</ele>
        <time>2021-08-10T10:08:34.000Z</time>
      </trkpt>
      <trkpt lat="43.06799" lon="0.15576">
        <ele>540</ele>
        <time>2021-08-10T10:08:35.000Z</time>
      </trkpt>
      <trkpt lat="43.06804" lon="0.1557">
        <ele>540</ele>
        <time>2021-08-10T10:08:36.000Z</time>
      </trkpt>
      <trkpt lat="43.06809" lon="0.15565">
        <ele>540</ele>
        <time>2021-08-10T10:08:37.000Z</time>
      </trkpt>
      <trkpt lat="43.06812" lon="0.15559">
        <ele>540</ele>
        <time>2021-08-10T10:08:38.000Z</time>
      </trkpt>
      <trkpt lat="43.06817" lon="0.15553">
        <ele>540</ele>
        <time>2021-08-10T10:08:39.000Z</time>
      </trkpt>
      <trkpt lat="43.06821" lon="0.15547">
        <ele>540</ele>
        <time>2021-08-10T10:08:40.000Z</time>
      </trkpt>
      <trkpt lat="43.06824" lon="0.15541">
        <ele>540</ele>
        <time>2021-08-10T10:08:41.000Z</time>
      </trkpt>
      <trkpt lat="43.06828" lon="0.15535">
        <ele>540</ele>
        <time>2021-08-10T10:08:42.000Z</time>
      </trkpt>
      <trkpt lat="43.06832" lon="0.15529">
        <ele>540</ele>
        <time>2021-08-10T10:08:43.000Z</time>
      </trkpt>
      <trkpt lat="43.06836" lon="0.15523">
        <ele>540</ele>
        <time>2021-08-10T10:08:44.000Z</time>
      </trkpt>
      <trkpt lat="43.06839" lon="0.15517">
        <ele>540</ele>
        <time>2021-08-10T10:08:45.000Z</time>
      </trkpt>
      <trkpt lat="43.06843" lon="0.15511">
        <ele>540</ele>
        <time>2021-08-10T10:08:46.000Z</time>
      </trkpt>
      <trkpt lat="43.06847" lon="0.15507">
        <ele>539</ele>
        <time>2021-08-10T10:08:47.000Z</time>
      </trkpt>
      <trkpt lat="43.06851" lon="0.15505">
        <ele>539</ele>
        <time>2021-08-10T10:08:48.000Z</time>
      </trkpt>
      <trkpt lat="43.06856" lon="0.15505">
        <ele>539</ele>
        <time>2021-08-10T10:08:49.000Z</time>
      </trkpt>
      <trkpt lat="43.06861" lon="0.15507">
        <ele>539</ele>
        <time>2021-08-10T10:08:50.000Z</time>
      </trkpt>
      <trkpt lat="43.06865" lon="0.15511">
        <ele>539</ele>
        <time>2021-08-10T10:08:51.000Z</time>
      </trkpt>
      <trkpt lat="43.0687" lon="0.15514">
        <ele>539</ele>
        <time>2021-08-10T10:08:52.000Z</time>
      </trkpt>
      <trkpt lat="43.06875" lon="0.15519">
        <ele>539</ele>
        <time>2021-08-10T10:08:53.000Z</time>
      </trkpt>
      <trkpt lat="43.0688" lon="0.15523">
        <ele>539</ele>
        <time>2021-08-10T10:08:54.000Z</time>
      </trkpt>
      <trkpt lat="43.06885" lon="0.15528">
        <ele>539</ele>
        <time>2021-08-10T10:08:55.000Z</time>
      </trkpt>
      <trkpt lat="43.0689" lon="0.15533">
        <ele>539</ele>
        <time>2021-08-10T10:08:56.000Z</time>
      </trkpt>
      <trkpt lat="43.06895" lon="0.15538">
        <ele>539</ele>
        <time>2021-08-10T10:08:57.000Z</time>
      </trkpt>
      <trkpt lat="43.069" lon="0.15543">
        <ele>539</ele>
        <time>2021-08-10T10:08:58.000Z</time>
      </trkpt>
      <trkpt lat="43.06905" lon="0.15549">
        <ele>539</ele>
        <time>2021-08-10T10:08:59.000Z</time>
      </trkpt>
      <trkpt lat="43.0691" lon="0.15554">
        <ele>539</ele>
        <time>2021-08-10T10:09:0.000Z</time>
      </trkpt>
      <trkpt lat="43.06915" lon="0.15559">
        <ele>539</ele>
        <time>2021-08-10T10:09:1.000Z</time>
      </trkpt>
      <trkpt lat="43.0692" lon="0.15565">
        <ele>539</ele>
        <time>2021-08-10T10:09:2.000Z</time>
      </trkpt>
      <trkpt lat="43.06926" lon="0.1557">
        <ele>539</ele>
        <time>2021-08-10T10:09:3.000Z</time>
      </trkpt>
      <trkpt lat="43.06931" lon="0.15576">
        <ele>539</ele>
        <time>2021-08-10T10:09:4.000Z</time>
      </trkpt>
      <trkpt lat="43.06936" lon="0.15582">
        <ele>539</ele>
        <time>2021-08-10T10:09:5.000Z</time>
      </trkpt>
      <trkpt lat="43.06942" lon="0.15587">
        <ele>539</ele>
        <time>2021-08-10T10:09:6.000Z</time>
      </trkpt>
      <trkpt lat="43.06948" lon="0.15593">
        <ele>539</ele>
        <time>2021-08-10T10:09:7.000Z</time>
      </trkpt>
      <trkpt lat="43.06953" lon="0.15598">
        <ele>539</ele>
        <time>2021-08-10T10:09:8.000Z</time>
      </trkpt>
      <trkpt lat="43.06959" lon="0.15603">
        <ele>539</ele>
        <time>2021-08-10T10:09:9.000Z</time>
      </trkpt>
      <trkpt lat="43.06964" lon="0.15609">
        <ele>539</ele>
        <time>2021-08-10T10:09:10.000Z</time>
      </trkpt>
      <trkpt lat="43.0697" lon="0.15614">
        <ele>539</ele>
        <time>2021-08-10T10:09:11.000Z</time>
      </trkpt>
      <trkpt lat="43.06975" lon="0.15619">
        <ele>539</ele>
        <time>2021-08-10T10:09:12.000Z</time>
      </trkpt>
      <trkpt lat="43.06981" lon="0.15624">
        <ele>539</ele>
        <time>2021-08-10T10:09:13.000Z</time>
      </trkpt>
      <trkpt lat="43.06986" lon="0.1563">
        <ele>538</ele>
        <time>2021-08-10T10:09:14.000Z</time>
      </trkpt>
      <trkpt lat="43.06991" lon="0.15635">
        <ele>538</ele>
        <time>2021-08-10T10:09:15.000Z</time>
      </trkpt>
      <trkpt lat="43.06996" lon="0.1564">
        <ele>538</ele>
        <time>2021-08-10T10:09:16.000Z</time>
      </trkpt>
      <trkpt lat="43.07001" lon="0.15645">
        <ele>538</ele>
        <time>2021-08-10T10:09:17.000Z</time>
      </trkpt>
      <trkpt lat="43.07005" lon="0.15654">
        <ele>538</ele>
        <time>2021-08-10T10:09:18.000Z</time>
      </trkpt>
      <trkpt lat="43.07008" lon="0.1566">
        <ele>537</ele>
        <time>2021-08-10T10:09:19.000Z</time>
      </trkpt>
      <trkpt lat="43.07012" lon="0.15663">
        <ele>537</ele>
        <time>2021-08-10T10:09:20.000Z</time>
      </trkpt>
      <trkpt lat="43.0702" lon="0.1566">
        <ele>537</ele>
        <time>2021-08-10T10:09:22.000Z</time>
      </trkpt>
      <trkpt lat="43.07025" lon="0.15655">
        <ele>537</ele>
        <time>2021-08-10T10:09:23.000Z</time>
      </trkpt>
      <trkpt lat="43.07031" lon="0.15652">
        <ele>537</ele>
        <time>2021-08-10T10:09:24.000Z</time>
      </trkpt>
      <trkpt lat="43.07037" lon="0.15649">
        <ele>536</ele>
        <time>2021-08-10T10:09:25.000Z</time>
      </trkpt>
      <trkpt lat="43.07044" lon="0.15646">
        <ele>536</ele>
        <time>2021-08-10T10:09:26.000Z</time>
      </trkpt>
      <trkpt lat="43.0705" lon="0.15644">
        <ele>536</ele>
        <time>2021-08-10T10:09:27.000Z</time>
      </trkpt>
      <trkpt lat="43.07057" lon="0.15642">
        <ele>536</ele>
        <time>2021-08-10T10:09:28.000Z</time>
      </trkpt>
      <trkpt lat="43.07064" lon="0.15639">
        <ele>536</ele>
        <time>2021-08-10T10:09:29.000Z</time>
      </trkpt>
      <trkpt lat="43.07071" lon="0.15637">
        <ele>535</ele>
        <time>2021-08-10T10:09:30.000Z</time>
      </trkpt>
      <trkpt lat="43.07078" lon="0.15634">
        <ele>535</ele>
        <time>2021-08-10T10:09:31.000Z</time>
      </trkpt>
      <trkpt lat="43.07085" lon="0.15632">
        <ele>535</ele>
        <time>2021-08-10T10:09:32.000Z</time>
      </trkpt>
      <trkpt lat="43.07092" lon="0.1563">
        <ele>535</ele>
        <time>2021-08-10T10:09:33.000Z</time>
      </trkpt>
      <trkpt lat="43.07099" lon="0.15626">
        <ele>535</ele>
        <time>2021-08-10T10:09:34.000Z</time>
      </trkpt>
      <trkpt lat="43.07107" lon="0.15622">
        <ele>534</ele>
        <time>2021-08-10T10:09:35.000Z</time>
      </trkpt>
      <trkpt lat="43.07114" lon="0.1562">
        <ele>534</ele>
        <time>2021-08-10T10:09:36.000Z</time>
      </trkpt>
      <trkpt lat="43.07121" lon="0.15618">
        <ele>534</ele>
        <time>2021-08-10T10:09:37.000Z</time>
      </trkpt>
      <trkpt lat="43.07126" lon="0.15616">
        <ele>534</ele>
        <time>2021-08-10T10:09:38.000Z</time>
      </trkpt>
      <trkpt lat="43.07134" lon="0.15613">
        <ele>534</ele>
        <time>2021-08-10T10:09:39.000Z</time>
      </trkpt>
      <trkpt lat="43.07142" lon="0.15609">
        <ele>534</ele>
        <time>2021-08-10T10:09:40.000Z</time>
      </trkpt>
      <trkpt lat="43.07149" lon="0.15606">
        <ele>533</ele>
        <time>2021-08-10T10:09:41.000Z</time>
      </trkpt>
      <trkpt lat="43.07157" lon="0.15602">
        <ele>533</ele>
        <time>2021-08-10T10:09:42.000Z</time>
      </trkpt>
      <trkpt lat="43.07164" lon="0.15598">
        <ele>533</ele>
        <time>2021-08-10T10:09:43.000Z</time>
      </trkpt>
      <trkpt lat="43.07171" lon="0.15594">
        <ele>533</ele>
        <time>2021-08-10T10:09:44.000Z</time>
      </trkpt>
      <trkpt lat="43.07178" lon="0.1559">
        <ele>533</ele>
        <time>2021-08-10T10:09:45.000Z</time>
      </trkpt>
      <trkpt lat="43.07185" lon="0.15587">
        <ele>533</ele>
        <time>2021-08-10T10:09:46.000Z</time>
      </trkpt>
      <trkpt lat="43.07191" lon="0.15583">
        <ele>533</ele>
        <time>2021-08-10T10:09:47.000Z</time>
      </trkpt>
      <trkpt lat="43.072" lon="0.15578">
        <ele>533</ele>
        <time>2021-08-10T10:09:48.000Z</time>
      </trkpt>
      <trkpt lat="43.07207" lon="0.15574">
        <ele>533</ele>
        <time>2021-08-10T10:09:49.000Z</time>
      </trkpt>
      <trkpt lat="43.07213" lon="0.15569">
        <ele>533</ele>
        <time>2021-08-10T10:09:50.000Z</time>
      </trkpt>
      <trkpt lat="43.07219" lon="0.15566">
        <ele>533</ele>
        <time>2021-08-10T10:09:51.000Z</time>
      </trkpt>
      <trkpt lat="43.07225" lon="0.15561">
        <ele>533</ele>
        <time>2021-08-10T10:09:52.000Z</time>
      </trkpt>
      <trkpt lat="43.07232" lon="0.15557">
        <ele>532</ele>
        <time>2021-08-10T10:09:53.000Z</time>
      </trkpt>
      <trkpt lat="43.07239" lon="0.15553">
        <ele>532</ele>
        <time>2021-08-10T10:09:54.000Z</time>
      </trkpt>
      <trkpt lat="43.07246" lon="0.15549">
        <ele>532</ele>
        <time>2021-08-10T10:09:55.000Z</time>
      </trkpt>
      <trkpt lat="43.07253" lon="0.15545">
        <ele>532</ele>
        <time>2021-08-10T10:09:56.000Z</time>
      </trkpt>
      <trkpt lat="43.07261" lon="0.1554">
        <ele>532</ele>
        <time>2021-08-10T10:09:57.000Z</time>
      </trkpt>
      <trkpt lat="43.07267" lon="0.15537">
        <ele>531</ele>
        <time>2021-08-10T10:09:58.000Z</time>
      </trkpt>
      <trkpt lat="43.07274" lon="0.15532">
        <ele>531</ele>
        <time>2021-08-10T10:09:59.000Z</time>
      </trkpt>
      <trkpt lat="43.07281" lon="0.15529">
        <ele>531</ele>
        <time>2021-08-10T10:10:0.000Z</time>
      </trkpt>
      <trkpt lat="43.07288" lon="0.15525">
        <ele>531</ele>
        <time>2021-08-10T10:10:1.000Z</time>
      </trkpt>
      <trkpt lat="43.07294" lon="0.15522">
        <ele>531</ele>
        <time>2021-08-10T10:10:2.000Z</time>
      </trkpt>
      <trkpt lat="43.07302" lon="0.15518">
        <ele>531</ele>
        <time>2021-08-10T10:10:3.000Z</time>
      </trkpt>
      <trkpt lat="43.07309" lon="0.15515">
        <ele>531</ele>
        <time>2021-08-10T10:10:4.000Z</time>
      </trkpt>
      <trkpt lat="43.07315" lon="0.15512">
        <ele>531</ele>
        <time>2021-08-10T10:10:5.000Z</time>
      </trkpt>
      <trkpt lat="43.07323" lon="0.15508">
        <ele>531</ele>
        <time>2021-08-10T10:10:6.000Z</time>
      </trkpt>
      <trkpt lat="43.0733" lon="0.15505">
        <ele>530</ele>
        <time>2021-08-10T10:10:7.000Z</time>
      </trkpt>
      <trkpt lat="43.07344" lon="0.15499">
        <ele>530</ele>
        <time>2021-08-10T10:10:9.000Z</time>
      </trkpt>
      <trkpt lat="43.07351" lon="0.15497">
        <ele>530</ele>
        <time>2021-08-10T10:10:10.000Z</time>
      </trkpt>
      <trkpt lat="43.07358" lon="0.15494">
        <ele>530</ele>
        <time>2021-08-10T10:10:11.000Z</time>
      </trkpt>
      <trkpt lat="43.07365" lon="0.15492">
        <ele>530</ele>
        <time>2021-08-10T10:10:12.000Z</time>
      </trkpt>
      <trkpt lat="43.07373" lon="0.15489">
        <ele>530</ele>
        <time>2021-08-10T10:10:12.000Z</time>
      </trkpt>
      <trkpt lat="43.07381" lon="0.15487">
        <ele>530</ele>
        <time>2021-08-10T10:10:13.000Z</time>
      </trkpt>
      <trkpt lat="43.07388" lon="0.15484">
        <ele>530</ele>
        <time>2021-08-10T10:10:14.000Z</time>
      </trkpt>
      <trkpt lat="43.07394" lon="0.15482">
        <ele>530</ele>
        <time>2021-08-10T10:10:15.000Z</time>
      </trkpt>
      <trkpt lat="43.07401" lon="0.1548">
        <ele>530</ele>
        <time>2021-08-10T10:10:16.000Z</time>
      </trkpt>
      <trkpt lat="43.07408" lon="0.15478">
        <ele>530</ele>
        <time>2021-08-10T10:10:17.000Z</time>
      </trkpt>
      <trkpt lat="43.07415" lon="0.15475">
        <ele>530</ele>
        <time>2021-08-10T10:10:18.000Z</time>
      </trkpt>
      <trkpt lat="43.07422" lon="0.15473">
        <ele>530</ele>
        <time>2021-08-10T10:10:19.000Z</time>
      </trkpt>
      <trkpt lat="43.07428" lon="0.15472">
        <ele>530</ele>
        <time>2021-08-10T10:10:20.000Z</time>
      </trkpt>
      <trkpt lat="43.07435" lon="0.1547">
        <ele>530</ele>
        <time>2021-08-10T10:10:21.000Z</time>
      </trkpt>
      <trkpt lat="43.07441" lon="0.15468">
        <ele>530</ele>
        <time>2021-08-10T10:10:22.000Z</time>
      </trkpt>
      <trkpt lat="43.07447" lon="0.15466">
        <ele>530</ele>
        <time>2021-08-10T10:10:23.000Z</time>
      </trkpt>
      <trkpt lat="43.07454" lon="0.15465">
        <ele>530</ele>
        <time>2021-08-10T10:10:24.000Z</time>
      </trkpt>
      <trkpt lat="43.0746" lon="0.15464">
        <ele>530</ele>
        <time>2021-08-10T10:10:25.000Z</time>
      </trkpt>
      <trkpt lat="43.07466" lon="0.15462">
        <ele>530</ele>
        <time>2021-08-10T10:10:26.000Z</time>
      </trkpt>
      <trkpt lat="43.07472" lon="0.15461">
        <ele>530</ele>
        <time>2021-08-10T10:10:27.000Z</time>
      </trkpt>
      <trkpt lat="43.07479" lon="0.1546">
        <ele>530</ele>
        <time>2021-08-10T10:10:28.000Z</time>
      </trkpt>
      <trkpt lat="43.07485" lon="0.15459">
        <ele>530</ele>
        <time>2021-08-10T10:10:29.000Z</time>
      </trkpt>
      <trkpt lat="43.07491" lon="0.15458">
        <ele>530</ele>
        <time>2021-08-10T10:10:30.000Z</time>
      </trkpt>
      <trkpt lat="43.07497" lon="0.15458">
        <ele>530</ele>
        <time>2021-08-10T10:10:31.000Z</time>
      </trkpt>
      <trkpt lat="43.07504" lon="0.15456">
        <ele>530</ele>
        <time>2021-08-10T10:10:32.000Z</time>
      </trkpt>
      <trkpt lat="43.07511" lon="0.15455">
        <ele>530</ele>
        <time>2021-08-10T10:10:33.000Z</time>
      </trkpt>
      <trkpt lat="43.07518" lon="0.15455">
        <ele>529</ele>
        <time>2021-08-10T10:10:34.000Z</time>
      </trkpt>
      <trkpt lat="43.07524" lon="0.15454">
        <ele>529</ele>
        <time>2021-08-10T10:10:35.000Z</time>
      </trkpt>
      <trkpt lat="43.07531" lon="0.15453">
        <ele>529</ele>
        <time>2021-08-10T10:10:36.000Z</time>
      </trkpt>
      <trkpt lat="43.07537" lon="0.15452">
        <ele>529</ele>
        <time>2021-08-10T10:10:37.000Z</time>
      </trkpt>
      <trkpt lat="43.07544" lon="0.15452">
        <ele>529</ele>
        <time>2021-08-10T10:10:38.000Z</time>
      </trkpt>
      <trkpt lat="43.0755" lon="0.1545">
        <ele>529</ele>
        <time>2021-08-10T10:10:39.000Z</time>
      </trkpt>
      <trkpt lat="43.07557" lon="0.15449">
        <ele>529</ele>
        <time>2021-08-10T10:10:40.000Z</time>
      </trkpt>
      <trkpt lat="43.07563" lon="0.15449">
        <ele>529</ele>
        <time>2021-08-10T10:10:41.000Z</time>
      </trkpt>
      <trkpt lat="43.07569" lon="0.15448">
        <ele>529</ele>
        <time>2021-08-10T10:10:42.000Z</time>
      </trkpt>
      <trkpt lat="43.07575" lon="0.15446">
        <ele>529</ele>
        <time>2021-08-10T10:10:43.000Z</time>
      </trkpt>
      <trkpt lat="43.07581" lon="0.15443">
        <ele>529</ele>
        <time>2021-08-10T10:10:44.000Z</time>
      </trkpt>
      <trkpt lat="43.07587" lon="0.15439">
        <ele>529</ele>
        <time>2021-08-10T10:10:45.000Z</time>
      </trkpt>
      <trkpt lat="43.07593" lon="0.15434">
        <ele>529</ele>
        <time>2021-08-10T10:10:46.000Z</time>
      </trkpt>
      <trkpt lat="43.07599" lon="0.1543">
        <ele>529</ele>
        <time>2021-08-10T10:10:47.000Z</time>
      </trkpt>
      <trkpt lat="43.07605" lon="0.15426">
        <ele>529</ele>
        <time>2021-08-10T10:10:48.000Z</time>
      </trkpt>
      <trkpt lat="43.07611" lon="0.15422">
        <ele>529</ele>
        <time>2021-08-10T10:10:49.000Z</time>
      </trkpt>
      <trkpt lat="43.07616" lon="0.15418">
        <ele>528</ele>
        <time>2021-08-10T10:10:50.000Z</time>
      </trkpt>
      <trkpt lat="43.07623" lon="0.15413">
        <ele>528</ele>
        <time>2021-08-10T10:10:51.000Z</time>
      </trkpt>
      <trkpt lat="43.07628" lon="0.15409">
        <ele>528</ele>
        <time>2021-08-10T10:10:52.000Z</time>
      </trkpt>
      <trkpt lat="43.07634" lon="0.15405">
        <ele>528</ele>
        <time>2021-08-10T10:10:53.000Z</time>
      </trkpt>
      <trkpt lat="43.07639" lon="0.15401">
        <ele>528</ele>
        <time>2021-08-10T10:10:54.000Z</time>
      </trkpt>
      <trkpt lat="43.07645" lon="0.15397">
        <ele>528</ele>
        <time>2021-08-10T10:10:55.000Z</time>
      </trkpt>
      <trkpt lat="43.07651" lon="0.15393">
        <ele>528</ele>
        <time>2021-08-10T10:10:56.000Z</time>
      </trkpt>
      <trkpt lat="43.07657" lon="0.15388">
        <ele>528</ele>
        <time>2021-08-10T10:10:57.000Z</time>
      </trkpt>
      <trkpt lat="43.07662" lon="0.15384">
        <ele>527</ele>
        <time>2021-08-10T10:10:58.000Z</time>
      </trkpt>
      <trkpt lat="43.07668" lon="0.1538">
        <ele>527</ele>
        <time>2021-08-10T10:10:59.000Z</time>
      </trkpt>
      <trkpt lat="43.07673" lon="0.15375">
        <ele>527</ele>
        <time>2021-08-10T10:11:0.000Z</time>
      </trkpt>
      <trkpt lat="43.07678" lon="0.15371">
        <ele>527</ele>
        <time>2021-08-10T10:11:1.000Z</time>
      </trkpt>
      <trkpt lat="43.07684" lon="0.15366">
        <ele>527</ele>
        <time>2021-08-10T10:11:2.000Z</time>
      </trkpt>
      <trkpt lat="43.07689" lon="0.15361">
        <ele>527</ele>
        <time>2021-08-10T10:11:3.000Z</time>
      </trkpt>
      <trkpt lat="43.07694" lon="0.15356">
        <ele>527</ele>
        <time>2021-08-10T10:11:4.000Z</time>
      </trkpt>
      <trkpt lat="43.077" lon="0.15351">
        <ele>527</ele>
        <time>2021-08-10T10:11:5.000Z</time>
      </trkpt>
      <trkpt lat="43.07705" lon="0.15346">
        <ele>527</ele>
        <time>2021-08-10T10:11:6.000Z</time>
      </trkpt>
      <trkpt lat="43.0771" lon="0.15341">
        <ele>527</ele>
        <time>2021-08-10T10:11:7.000Z</time>
      </trkpt>
      <trkpt lat="43.07715" lon="0.15335">
        <ele>527</ele>
        <time>2021-08-10T10:11:8.000Z</time>
      </trkpt>
      <trkpt lat="43.0772" lon="0.1533">
        <ele>526</ele>
        <time>2021-08-10T10:11:9.000Z</time>
      </trkpt>
      <trkpt lat="43.07725" lon="0.15325">
        <ele>526</ele>
        <time>2021-08-10T10:11:10.000Z</time>
      </trkpt>
      <trkpt lat="43.07731" lon="0.15319">
        <ele>526</ele>
        <time>2021-08-10T10:11:11.000Z</time>
      </trkpt>
      <trkpt lat="43.07735" lon="0.15313">
        <ele>526</ele>
        <time>2021-08-10T10:11:12.000Z</time>
      </trkpt>
      <trkpt lat="43.07741" lon="0.15307">
        <ele>526</ele>
        <time>2021-08-10T10:11:13.000Z</time>
      </trkpt>
      <trkpt lat="43.07746" lon="0.15302">
        <ele>526</ele>
        <time>2021-08-10T10:11:14.000Z</time>
      </trkpt>
      <trkpt lat="43.07751" lon="0.15296">
        <ele>526</ele>
        <time>2021-08-10T10:11:15.000Z</time>
      </trkpt>
      <trkpt lat="43.07756" lon="0.1529">
        <ele>525</ele>
        <time>2021-08-10T10:11:16.000Z</time>
      </trkpt>
      <trkpt lat="43.07762" lon="0.15284">
        <ele>525</ele>
        <time>2021-08-10T10:11:17.000Z</time>
      </trkpt>
      <trkpt lat="43.07766" lon="0.15278">
        <ele>525</ele>
        <time>2021-08-10T10:11:18.000Z</time>
      </trkpt>
      <trkpt lat="43.07771" lon="0.15273">
        <ele>524</ele>
        <time>2021-08-10T10:11:19.000Z</time>
      </trkpt>
      <trkpt lat="43.07777" lon="0.15267">
        <ele>524</ele>
        <time>2021-08-10T10:11:20.000Z</time>
      </trkpt>
      <trkpt lat="43.07782" lon="0.15262">
        <ele>524</ele>
        <time>2021-08-10T10:11:21.000Z</time>
      </trkpt>
      <trkpt lat="43.07787" lon="0.15256">
        <ele>524</ele>
        <time>2021-08-10T10:11:22.000Z</time>
      </trkpt>
      <trkpt lat="43.07792" lon="0.1525">
        <ele>523</ele>
        <time>2021-08-10T10:11:23.000Z</time>
      </trkpt>
      <trkpt lat="43.07797" lon="0.15244">
        <ele>523</ele>
        <time>2021-08-10T10:11:24.000Z</time>
      </trkpt>
      <trkpt lat="43.07802" lon="0.15238">
        <ele>523</ele>
        <time>2021-08-10T10:11:25.000Z</time>
      </trkpt>
      <trkpt lat="43.07807" lon="0.15232">
        <ele>523</ele>
        <time>2021-08-10T10:11:26.000Z</time>
      </trkpt>
      <trkpt lat="43.07813" lon="0.15226">
        <ele>523</ele>
        <time>2021-08-10T10:11:27.000Z</time>
      </trkpt>
      <trkpt lat="43.07818" lon="0.1522">
        <ele>523</ele>
        <time>2021-08-10T10:11:28.000Z</time>
      </trkpt>
      <trkpt lat="43.07822" lon="0.15214">
        <ele>523</ele>
        <time>2021-08-10T10:11:29.000Z</time>
      </trkpt>
      <trkpt lat="43.07828" lon="0.15208">
        <ele>523</ele>
        <time>2021-08-10T10:11:30.000Z</time>
      </trkpt>
      <trkpt lat="43.07834" lon="0.15202">
        <ele>523</ele>
        <time>2021-08-10T10:11:31.000Z</time>
      </trkpt>
      <trkpt lat="43.07838" lon="0.15196">
        <ele>523</ele>
        <time>2021-08-10T10:11:32.000Z</time>
      </trkpt>
      <trkpt lat="43.07843" lon="0.1519">
        <ele>523</ele>
        <time>2021-08-10T10:11:33.000Z</time>
      </trkpt>
      <trkpt lat="43.07849" lon="0.15183">
        <ele>523</ele>
        <time>2021-08-10T10:11:34.000Z</time>
      </trkpt>
      <trkpt lat="43.07855" lon="0.15176">
        <ele>523</ele>
        <time>2021-08-10T10:11:35.000Z</time>
      </trkpt>
      <trkpt lat="43.07859" lon="0.15169">
        <ele>522</ele>
        <time>2021-08-10T10:11:36.000Z</time>
      </trkpt>
      <trkpt lat="43.07865" lon="0.15162">
        <ele>522</ele>
        <time>2021-08-10T10:11:37.000Z</time>
      </trkpt>
      <trkpt lat="43.07871" lon="0.15155">
        <ele>522</ele>
        <time>2021-08-10T10:11:38.000Z</time>
      </trkpt>
      <trkpt lat="43.07876" lon="0.15149">
        <ele>522</ele>
        <time>2021-08-10T10:11:39.000Z</time>
      </trkpt>
      <trkpt lat="43.07882" lon="0.15142">
        <ele>522</ele>
        <time>2021-08-10T10:11:40.000Z</time>
      </trkpt>
      <trkpt lat="43.07887" lon="0.15135">
        <ele>522</ele>
        <time>2021-08-10T10:11:41.000Z</time>
      </trkpt>
      <trkpt lat="43.07893" lon="0.15128">
        <ele>522</ele>
        <time>2021-08-10T10:11:42.000Z</time>
      </trkpt>
      <trkpt lat="43.07898" lon="0.15121">
        <ele>522</ele>
        <time>2021-08-10T10:11:43.000Z</time>
      </trkpt>
      <trkpt lat="43.07904" lon="0.15114">
        <ele>522</ele>
        <time>2021-08-10T10:11:44.000Z</time>
      </trkpt>
      <trkpt lat="43.07909" lon="0.15108">
        <ele>521</ele>
        <time>2021-08-10T10:11:45.000Z</time>
      </trkpt>
      <trkpt lat="43.07914" lon="0.15102">
        <ele>521</ele>
        <time>2021-08-10T10:11:46.000Z</time>
      </trkpt>
      <trkpt lat="43.0792" lon="0.15095">
        <ele>521</ele>
        <time>2021-08-10T10:11:47.000Z</time>
      </trkpt>
      <trkpt lat="43.07925" lon="0.15088">
        <ele>521</ele>
        <time>2021-08-10T10:11:48.000Z</time>
      </trkpt>
      <trkpt lat="43.07931" lon="0.15082">
        <ele>521</ele>
        <time>2021-08-10T10:11:49.000Z</time>
      </trkpt>
      <trkpt lat="43.07936" lon="0.15076">
        <ele>521</ele>
        <time>2021-08-10T10:11:50.000Z</time>
      </trkpt>
      <trkpt lat="43.07941" lon="0.1507">
        <ele>521</ele>
        <time>2021-08-10T10:11:51.000Z</time>
      </trkpt>
      <trkpt lat="43.07947" lon="0.15064">
        <ele>521</ele>
        <time>2021-08-10T10:11:52.000Z</time>
      </trkpt>
      <trkpt lat="43.07952" lon="0.15058">
        <ele>521</ele>
        <time>2021-08-10T10:11:53.000Z</time>
      </trkpt>
      <trkpt lat="43.07957" lon="0.15052">
        <ele>521</ele>
        <time>2021-08-10T10:11:54.000Z</time>
      </trkpt>
      <trkpt lat="43.07963" lon="0.15046">
        <ele>521</ele>
        <time>2021-08-10T10:11:55.000Z</time>
      </trkpt>
      <trkpt lat="43.07969" lon="0.1504">
        <ele>521</ele>
        <time>2021-08-10T10:11:56.000Z</time>
      </trkpt>
      <trkpt lat="43.07974" lon="0.15034">
        <ele>521</ele>
        <time>2021-08-10T10:11:57.000Z</time>
      </trkpt>
      <trkpt lat="43.07979" lon="0.15028">
        <ele>520</ele>
        <time>2021-08-10T10:11:58.000Z</time>
      </trkpt>
      <trkpt lat="43.07985" lon="0.15022">
        <ele>520</ele>
        <time>2021-08-10T10:11:59.000Z</time>
      </trkpt>
      <trkpt lat="43.0799" lon="0.15016">
        <ele>520</ele>
        <time>2021-08-10T10:12:0.000Z</time>
      </trkpt>
      <trkpt lat="43.07995" lon="0.1501">
        <ele>520</ele>
        <time>2021-08-10T10:12:1.000Z</time>
      </trkpt>
      <trkpt lat="43.08001" lon="0.15004">
        <ele>520</ele>
        <time>2021-08-10T10:12:2.000Z</time>
      </trkpt>
      <trkpt lat="43.08006" lon="0.14997">
        <ele>520</ele>
        <time>2021-08-10T10:12:3.000Z</time>
      </trkpt>
      <trkpt lat="43.08012" lon="0.14992">
        <ele>519</ele>
        <time>2021-08-10T10:12:4.000Z</time>
      </trkpt>
      <trkpt lat="43.08017" lon="0.14985">
        <ele>519</ele>
        <time>2021-08-10T10:12:5.000Z</time>
      </trkpt>
      <trkpt lat="43.08023" lon="0.14979">
        <ele>519</ele>
        <time>2021-08-10T10:12:6.000Z</time>
      </trkpt>
      <trkpt lat="43.08028" lon="0.14974">
        <ele>519</ele>
        <time>2021-08-10T10:12:7.000Z</time>
      </trkpt>
      <trkpt lat="43.08033" lon="0.14968">
        <ele>519</ele>
        <time>2021-08-10T10:12:8.000Z</time>
      </trkpt>
      <trkpt lat="43.08039" lon="0.14961">
        <ele>519</ele>
        <time>2021-08-10T10:12:9.000Z</time>
      </trkpt>
      <trkpt lat="43.08045" lon="0.14956">
        <ele>518</ele>
        <time>2021-08-10T10:12:10.000Z</time>
      </trkpt>
      <trkpt lat="43.08051" lon="0.14949">
        <ele>518</ele>
        <time>2021-08-10T10:12:11.000Z</time>
      </trkpt>
      <trkpt lat="43.08056" lon="0.14943">
        <ele>518</ele>
        <time>2021-08-10T10:12:12.000Z</time>
      </trkpt>
      <trkpt lat="43.08061" lon="0.14937">
        <ele>518</ele>
        <time>2021-08-10T10:12:13.000Z</time>
      </trkpt>
      <trkpt lat="43.08067" lon="0.14931">
        <ele>518</ele>
        <time>2021-08-10T10:12:14.000Z</time>
      </trkpt>
      <trkpt lat="43.08072" lon="0.14925">
        <ele>518</ele>
        <time>2021-08-10T10:12:15.000Z</time>
      </trkpt>
      <trkpt lat="43.08078" lon="0.14919">
        <ele>518</ele>
        <time>2021-08-10T10:12:16.000Z</time>
      </trkpt>
      <trkpt lat="43.08083" lon="0.14913">
        <ele>518</ele>
        <time>2021-08-10T10:12:17.000Z</time>
      </trkpt>
      <trkpt lat="43.08089" lon="0.14907">
        <ele>518</ele>
        <time>2021-08-10T10:12:18.000Z</time>
      </trkpt>
      <trkpt lat="43.08094" lon="0.14901">
        <ele>518</ele>
        <time>2021-08-10T10:12:19.000Z</time>
      </trkpt>
      <trkpt lat="43.081" lon="0.14895">
        <ele>517</ele>
        <time>2021-08-10T10:12:20.000Z</time>
      </trkpt>
      <trkpt lat="43.08105" lon="0.14889">
        <ele>517</ele>
        <time>2021-08-10T10:12:21.000Z</time>
      </trkpt>
      <trkpt lat="43.0811" lon="0.14883">
        <ele>517</ele>
        <time>2021-08-10T10:12:22.000Z</time>
      </trkpt>
      <trkpt lat="43.08116" lon="0.14877">
        <ele>517</ele>
        <time>2021-08-10T10:12:23.000Z</time>
      </trkpt>
      <trkpt lat="43.08121" lon="0.14871">
        <ele>517</ele>
        <time>2021-08-10T10:12:24.000Z</time>
      </trkpt>
      <trkpt lat="43.08126" lon="0.14865">
        <ele>517</ele>
        <time>2021-08-10T10:12:25.000Z</time>
      </trkpt>
      <trkpt lat="43.08132" lon="0.14859">
        <ele>518</ele>
        <time>2021-08-10T10:12:26.000Z</time>
      </trkpt>
      <trkpt lat="43.08138" lon="0.14852">
        <ele>518</ele>
        <time>2021-08-10T10:12:27.000Z</time>
      </trkpt>
      <trkpt lat="43.08143" lon="0.14846">
        <ele>518</ele>
        <time>2021-08-10T10:12:28.000Z</time>
      </trkpt>
      <trkpt lat="43.08148" lon="0.1484">
        <ele>518</ele>
        <time>2021-08-10T10:12:29.000Z</time>
      </trkpt>
      <trkpt lat="43.08154" lon="0.14834">
        <ele>517</ele>
        <time>2021-08-10T10:12:30.000Z</time>
      </trkpt>
      <trkpt lat="43.0816" lon="0.14827">
        <ele>517</ele>
        <time>2021-08-10T10:12:31.000Z</time>
      </trkpt>
      <trkpt lat="43.08165" lon="0.14821">
        <ele>516</ele>
        <time>2021-08-10T10:12:32.000Z</time>
      </trkpt>
      <trkpt lat="43.0817" lon="0.14815">
        <ele>516</ele>
        <time>2021-08-10T10:12:33.000Z</time>
      </trkpt>
      <trkpt lat="43.08176" lon="0.14808">
        <ele>516</ele>
        <time>2021-08-10T10:12:34.000Z</time>
      </trkpt>
      <trkpt lat="43.08181" lon="0.14802">
        <ele>515</ele>
        <time>2021-08-10T10:12:35.000Z</time>
      </trkpt>
      <trkpt lat="43.08187" lon="0.14796">
        <ele>515</ele>
        <time>2021-08-10T10:12:36.000Z</time>
      </trkpt>
      <trkpt lat="43.08192" lon="0.1479">
        <ele>515</ele>
        <time>2021-08-10T10:12:37.000Z</time>
      </trkpt>
      <trkpt lat="43.08197" lon="0.14784">
        <ele>515</ele>
        <time>2021-08-10T10:12:38.000Z</time>
      </trkpt>
      <trkpt lat="43.08202" lon="0.14778">
        <ele>514</ele>
        <time>2021-08-10T10:12:39.000Z</time>
      </trkpt>
      <trkpt lat="43.08208" lon="0.14772">
        <ele>514</ele>
        <time>2021-08-10T10:12:40.000Z</time>
      </trkpt>
      <trkpt lat="43.08213" lon="0.14766">
        <ele>514</ele>
        <time>2021-08-10T10:12:41.000Z</time>
      </trkpt>
      <trkpt lat="43.08218" lon="0.1476">
        <ele>514</ele>
        <time>2021-08-10T10:12:42.000Z</time>
      </trkpt>
      <trkpt lat="43.08223" lon="0.14754">
        <ele>514</ele>
        <time>2021-08-10T10:12:43.000Z</time>
      </trkpt>
      <trkpt lat="43.08229" lon="0.14747">
        <ele>513</ele>
        <time>2021-08-10T10:12:44.000Z</time>
      </trkpt>
      <trkpt lat="43.08235" lon="0.14741">
        <ele>513</ele>
        <time>2021-08-10T10:12:45.000Z</time>
      </trkpt>
      <trkpt lat="43.0824" lon="0.14735">
        <ele>513</ele>
        <time>2021-08-10T10:12:46.000Z</time>
      </trkpt>
      <trkpt lat="43.08246" lon="0.14729">
        <ele>513</ele>
        <time>2021-08-10T10:12:47.000Z</time>
      </trkpt>
      <trkpt lat="43.08251" lon="0.14723">
        <ele>513</ele>
        <time>2021-08-10T10:12:48.000Z</time>
      </trkpt>
      <trkpt lat="43.08256" lon="0.14717">
        <ele>513</ele>
        <time>2021-08-10T10:12:49.000Z</time>
      </trkpt>
      <trkpt lat="43.08261" lon="0.14711">
        <ele>513</ele>
        <time>2021-08-10T10:12:50.000Z</time>
      </trkpt>
      <trkpt lat="43.08266" lon="0.14705">
        <ele>513</ele>
        <time>2021-08-10T10:12:51.000Z</time>
      </trkpt>
      <trkpt lat="43.08272" lon="0.14699">
        <ele>513</ele>
        <time>2021-08-10T10:12:52.000Z</time>
      </trkpt>
      <trkpt lat="43.08278" lon="0.14693">
        <ele>513</ele>
        <time>2021-08-10T10:12:53.000Z</time>
      </trkpt>
      <trkpt lat="43.08283" lon="0.14687">
        <ele>513</ele>
        <time>2021-08-10T10:12:54.000Z</time>
      </trkpt>
      <trkpt lat="43.08288" lon="0.14681">
        <ele>513</ele>
        <time>2021-08-10T10:12:55.000Z</time>
      </trkpt>
      <trkpt lat="43.08293" lon="0.14675">
        <ele>512</ele>
        <time>2021-08-10T10:12:56.000Z</time>
      </trkpt>
      <trkpt lat="43.08298" lon="0.1467">
        <ele>512</ele>
        <time>2021-08-10T10:12:57.000Z</time>
      </trkpt>
      <trkpt lat="43.08304" lon="0.14664">
        <ele>512</ele>
        <time>2021-08-10T10:12:58.000Z</time>
      </trkpt>
      <trkpt lat="43.08309" lon="0.14658">
        <ele>512</ele>
        <time>2021-08-10T10:12:59.000Z</time>
      </trkpt>
      <trkpt lat="43.08314" lon="0.14652">
        <ele>512</ele>
        <time>2021-08-10T10:13:0.000Z</time>
      </trkpt>
      <trkpt lat="43.08319" lon="0.14646">
        <ele>511</ele>
        <time>2021-08-10T10:13:1.000Z</time>
      </trkpt>
      <trkpt lat="43.08324" lon="0.1464">
        <ele>511</ele>
        <time>2021-08-10T10:13:2.000Z</time>
      </trkpt>
      <trkpt lat="43.08329" lon="0.14634">
        <ele>511</ele>
        <time>2021-08-10T10:13:3.000Z</time>
      </trkpt>
      <trkpt lat="43.08335" lon="0.14628">
        <ele>511</ele>
        <time>2021-08-10T10:13:4.000Z</time>
      </trkpt>
      <trkpt lat="43.0834" lon="0.14623">
        <ele>511</ele>
        <time>2021-08-10T10:13:5.000Z</time>
      </trkpt>
      <trkpt lat="43.08345" lon="0.14618">
        <ele>511</ele>
        <time>2021-08-10T10:13:6.000Z</time>
      </trkpt>
      <trkpt lat="43.0835" lon="0.14611">
        <ele>511</ele>
        <time>2021-08-10T10:13:7.000Z</time>
      </trkpt>
      <trkpt lat="43.08356" lon="0.14605">
        <ele>510</ele>
        <time>2021-08-10T10:13:8.000Z</time>
      </trkpt>
      <trkpt lat="43.08361" lon="0.14599">
        <ele>510</ele>
        <time>2021-08-10T10:13:9.000Z</time>
      </trkpt>
      <trkpt lat="43.08366" lon="0.14593">
        <ele>510</ele>
        <time>2021-08-10T10:13:10.000Z</time>
      </trkpt>
      <trkpt lat="43.08371" lon="0.14587">
        <ele>510</ele>
        <time>2021-08-10T10:13:11.000Z</time>
      </trkpt>
      <trkpt lat="43.08377" lon="0.14581">
        <ele>509</ele>
        <time>2021-08-10T10:13:12.000Z</time>
      </trkpt>
      <trkpt lat="43.08382" lon="0.14575">
        <ele>509</ele>
        <time>2021-08-10T10:13:13.000Z</time>
      </trkpt>
      <trkpt lat="43.08388" lon="0.14569">
        <ele>509</ele>
        <time>2021-08-10T10:13:14.000Z</time>
      </trkpt>
      <trkpt lat="43.08393" lon="0.14564">
        <ele>509</ele>
        <time>2021-08-10T10:13:15.000Z</time>
      </trkpt>
      <trkpt lat="43.08398" lon="0.14558">
        <ele>509</ele>
        <time>2021-08-10T10:13:16.000Z</time>
      </trkpt>
      <trkpt lat="43.08404" lon="0.14552">
        <ele>509</ele>
        <time>2021-08-10T10:13:17.000Z</time>
      </trkpt>
      <trkpt lat="43.08409" lon="0.14546">
        <ele>509</ele>
        <time>2021-08-10T10:13:18.000Z</time>
      </trkpt>
      <trkpt lat="43.08415" lon="0.14539">
        <ele>509</ele>
        <time>2021-08-10T10:13:19.000Z</time>
      </trkpt>
      <trkpt lat="43.0842" lon="0.14533">
        <ele>509</ele>
        <time>2021-08-10T10:13:20.000Z</time>
      </trkpt>
      <trkpt lat="43.08426" lon="0.14527">
        <ele>509</ele>
        <time>2021-08-10T10:13:21.000Z</time>
      </trkpt>
      <trkpt lat="43.08431" lon="0.14521">
        <ele>509</ele>
        <time>2021-08-10T10:13:22.000Z</time>
      </trkpt>
      <trkpt lat="43.08437" lon="0.14515">
        <ele>509</ele>
        <time>2021-08-10T10:13:23.000Z</time>
      </trkpt>
      <trkpt lat="43.08442" lon="0.14509">
        <ele>508</ele>
        <time>2021-08-10T10:13:24.000Z</time>
      </trkpt>
      <trkpt lat="43.08447" lon="0.14502">
        <ele>508</ele>
        <time>2021-08-10T10:13:25.000Z</time>
      </trkpt>
      <trkpt lat="43.08453" lon="0.14496">
        <ele>508</ele>
        <time>2021-08-10T10:13:26.000Z</time>
      </trkpt>
      <trkpt lat="43.08458" lon="0.1449">
        <ele>508</ele>
        <time>2021-08-10T10:13:27.000Z</time>
      </trkpt>
      <trkpt lat="43.08464" lon="0.14484">
        <ele>508</ele>
        <time>2021-08-10T10:13:28.000Z</time>
      </trkpt>
      <trkpt lat="43.08469" lon="0.14479">
        <ele>508</ele>
        <time>2021-08-10T10:13:29.000Z</time>
      </trkpt>
      <trkpt lat="43.08474" lon="0.14472">
        <ele>508</ele>
        <time>2021-08-10T10:13:30.000Z</time>
      </trkpt>
      <trkpt lat="43.08479" lon="0.14466">
        <ele>508</ele>
        <time>2021-08-10T10:13:31.000Z</time>
      </trkpt>
      <trkpt lat="43.08485" lon="0.1446">
        <ele>508</ele>
        <time>2021-08-10T10:13:32.000Z</time>
      </trkpt>
      <trkpt lat="43.08491" lon="0.14454">
        <ele>508</ele>
        <time>2021-08-10T10:13:33.000Z</time>
      </trkpt>
      <trkpt lat="43.08496" lon="0.14448">
        <ele>508</ele>
        <time>2021-08-10T10:13:34.000Z</time>
      </trkpt>
      <trkpt lat="43.08501" lon="0.14442">
        <ele>508</ele>
        <time>2021-08-10T10:13:35.000Z</time>
      </trkpt>
      <trkpt lat="43.08507" lon="0.14437">
        <ele>508</ele>
        <time>2021-08-10T10:13:36.000Z</time>
      </trkpt>
      <trkpt lat="43.08512" lon="0.14431">
        <ele>508</ele>
        <time>2021-08-10T10:13:37.000Z</time>
      </trkpt>
      <trkpt lat="43.08518" lon="0.14424">
        <ele>508</ele>
        <time>2021-08-10T10:13:38.000Z</time>
      </trkpt>
      <trkpt lat="43.08523" lon="0.14419">
        <ele>508</ele>
        <time>2021-08-10T10:13:39.000Z</time>
      </trkpt>
      <trkpt lat="43.08528" lon="0.14413">
        <ele>508</ele>
        <time>2021-08-10T10:13:40.000Z</time>
      </trkpt>
      <trkpt lat="43.08534" lon="0.14406">
        <ele>507</ele>
        <time>2021-08-10T10:13:41.000Z</time>
      </trkpt>
      <trkpt lat="43.08539" lon="0.14401">
        <ele>507</ele>
        <time>2021-08-10T10:13:42.000Z</time>
      </trkpt>
      <trkpt lat="43.08545" lon="0.14394">
        <ele>507</ele>
        <time>2021-08-10T10:13:43.000Z</time>
      </trkpt>
      <trkpt lat="43.0855" lon="0.14388">
        <ele>507</ele>
        <time>2021-08-10T10:13:44.000Z</time>
      </trkpt>
      <trkpt lat="43.08555" lon="0.14382">
        <ele>507</ele>
        <time>2021-08-10T10:13:45.000Z</time>
      </trkpt>
      <trkpt lat="43.08561" lon="0.14376">
        <ele>507</ele>
        <time>2021-08-10T10:13:46.000Z</time>
      </trkpt>
      <trkpt lat="43.08566" lon="0.1437">
        <ele>506</ele>
        <time>2021-08-10T10:13:47.000Z</time>
      </trkpt>
      <trkpt lat="43.08571" lon="0.14364">
        <ele>506</ele>
        <time>2021-08-10T10:13:48.000Z</time>
      </trkpt>
      <trkpt lat="43.08576" lon="0.14358">
        <ele>506</ele>
        <time>2021-08-10T10:13:49.000Z</time>
      </trkpt>
      <trkpt lat="43.08582" lon="0.14352">
        <ele>506</ele>
        <time>2021-08-10T10:13:50.000Z</time>
      </trkpt>
      <trkpt lat="43.08587" lon="0.14346">
        <ele>506</ele>
        <time>2021-08-10T10:13:51.000Z</time>
      </trkpt>
      <trkpt lat="43.08592" lon="0.14341">
        <ele>506</ele>
        <time>2021-08-10T10:13:52.000Z</time>
      </trkpt>
      <trkpt lat="43.08598" lon="0.14335">
        <ele>506</ele>
        <time>2021-08-10T10:13:53.000Z</time>
      </trkpt>
      <trkpt lat="43.08603" lon="0.14329">
        <ele>506</ele>
        <time>2021-08-10T10:13:54.000Z</time>
      </trkpt>
      <trkpt lat="43.08609" lon="0.14323">
        <ele>505</ele>
        <time>2021-08-10T10:13:55.000Z</time>
      </trkpt>
      <trkpt lat="43.08614" lon="0.14316">
        <ele>505</ele>
        <time>2021-08-10T10:13:56.000Z</time>
      </trkpt>
      <trkpt lat="43.08619" lon="0.1431">
        <ele>505</ele>
        <time>2021-08-10T10:13:57.000Z</time>
      </trkpt>
      <trkpt lat="43.08625" lon="0.14304">
        <ele>505</ele>
        <time>2021-08-10T10:13:58.000Z</time>
      </trkpt>
      <trkpt lat="43.0863" lon="0.14297">
        <ele>505</ele>
        <time>2021-08-10T10:13:59.000Z</time>
      </trkpt>
      <trkpt lat="43.08636" lon="0.14291">
        <ele>505</ele>
        <time>2021-08-10T10:14:0.000Z</time>
      </trkpt>
      <trkpt lat="43.08641" lon="0.14285">
        <ele>504</ele>
        <time>2021-08-10T10:14:1.000Z</time>
      </trkpt>
      <trkpt lat="43.08647" lon="0.14279">
        <ele>504</ele>
        <time>2021-08-10T10:14:2.000Z</time>
      </trkpt>
      <trkpt lat="43.08653" lon="0.14273">
        <ele>504</ele>
        <time>2021-08-10T10:14:3.000Z</time>
      </trkpt>
      <trkpt lat="43.08658" lon="0.14266">
        <ele>504</ele>
        <time>2021-08-10T10:14:4.000Z</time>
      </trkpt>
      <trkpt lat="43.08664" lon="0.1426">
        <ele>504</ele>
        <time>2021-08-10T10:14:5.000Z</time>
      </trkpt>
      <trkpt lat="43.08669" lon="0.14254">
        <ele>504</ele>
        <time>2021-08-10T10:14:6.000Z</time>
      </trkpt>
      <trkpt lat="43.08675" lon="0.14248">
        <ele>504</ele>
        <time>2021-08-10T10:14:7.000Z</time>
      </trkpt>
      <trkpt lat="43.0868" lon="0.14242">
        <ele>504</ele>
        <time>2021-08-10T10:14:8.000Z</time>
      </trkpt>
      <trkpt lat="43.08685" lon="0.14236">
        <ele>504</ele>
        <time>2021-08-10T10:14:9.000Z</time>
      </trkpt>
      <trkpt lat="43.0869" lon="0.1423">
        <ele>504</ele>
        <time>2021-08-10T10:14:10.000Z</time>
      </trkpt>
      <trkpt lat="43.08696" lon="0.14224">
        <ele>504</ele>
        <time>2021-08-10T10:14:11.000Z</time>
      </trkpt>
      <trkpt lat="43.08701" lon="0.14218">
        <ele>504</ele>
        <time>2021-08-10T10:14:12.000Z</time>
      </trkpt>
      <trkpt lat="43.08706" lon="0.14212">
        <ele>504</ele>
        <time>2021-08-10T10:14:13.000Z</time>
      </trkpt>
      <trkpt lat="43.08711" lon="0.14207">
        <ele>504</ele>
        <time>2021-08-10T10:14:14.000Z</time>
      </trkpt>
      <trkpt lat="43.08716" lon="0.14202">
        <ele>504</ele>
        <time>2021-08-10T10:14:15.000Z</time>
      </trkpt>
      <trkpt lat="43.08721" lon="0.14196">
        <ele>504</ele>
        <time>2021-08-10T10:14:16.000Z</time>
      </trkpt>
      <trkpt lat="43.08726" lon="0.14191">
        <ele>504</ele>
        <time>2021-08-10T10:14:17.000Z</time>
      </trkpt>
      <trkpt lat="43.0873" lon="0.14186">
        <ele>504</ele>
        <time>2021-08-10T10:14:18.000Z</time>
      </trkpt>
      <trkpt lat="43.08735" lon="0.14181">
        <ele>504</ele>
        <time>2021-08-10T10:14:19.000Z</time>
      </trkpt>
      <trkpt lat="43.08739" lon="0.14176">
        <ele>504</ele>
        <time>2021-08-10T10:14:20.000Z</time>
      </trkpt>
      <trkpt lat="43.08744" lon="0.14171">
        <ele>504</ele>
        <time>2021-08-10T10:14:21.000Z</time>
      </trkpt>
      <trkpt lat="43.08749" lon="0.14165">
        <ele>504</ele>
        <time>2021-08-10T10:14:22.000Z</time>
      </trkpt>
      <trkpt lat="43.08758" lon="0.14155">
        <ele>504</ele>
        <time>2021-08-10T10:14:24.000Z</time>
      </trkpt>
      <trkpt lat="43.08763" lon="0.1415">
        <ele>504</ele>
        <time>2021-08-10T10:14:25.000Z</time>
      </trkpt>
      <trkpt lat="43.08771" lon="0.14141">
        <ele>504</ele>
        <time>2021-08-10T10:14:27.000Z</time>
      </trkpt>
      <trkpt lat="43.08775" lon="0.14136">
        <ele>504</ele>
        <time>2021-08-10T10:14:27.000Z</time>
      </trkpt>
      <trkpt lat="43.08781" lon="0.14131">
        <ele>504</ele>
        <time>2021-08-10T10:14:28.000Z</time>
      </trkpt>
      <trkpt lat="43.08786" lon="0.14126">
        <ele>504</ele>
        <time>2021-08-10T10:14:29.000Z</time>
      </trkpt>
      <trkpt lat="43.08791" lon="0.14121">
        <ele>504</ele>
        <time>2021-08-10T10:14:30.000Z</time>
      </trkpt>
      <trkpt lat="43.08796" lon="0.14115">
        <ele>504</ele>
        <time>2021-08-10T10:14:31.000Z</time>
      </trkpt>
      <trkpt lat="43.08802" lon="0.1411">
        <ele>504</ele>
        <time>2021-08-10T10:14:32.000Z</time>
      </trkpt>
      <trkpt lat="43.08807" lon="0.14104">
        <ele>504</ele>
        <time>2021-08-10T10:14:33.000Z</time>
      </trkpt>
      <trkpt lat="43.08813" lon="0.14099">
        <ele>504</ele>
        <time>2021-08-10T10:14:34.000Z</time>
      </trkpt>
      <trkpt lat="43.08818" lon="0.14094">
        <ele>504</ele>
        <time>2021-08-10T10:14:35.000Z</time>
      </trkpt>
      <trkpt lat="43.08825" lon="0.14089">
        <ele>504</ele>
        <time>2021-08-10T10:14:36.000Z</time>
      </trkpt>
      <trkpt lat="43.08831" lon="0.14083">
        <ele>504</ele>
        <time>2021-08-10T10:14:37.000Z</time>
      </trkpt>
      <trkpt lat="43.08838" lon="0.14078">
        <ele>504</ele>
        <time>2021-08-10T10:14:38.000Z</time>
      </trkpt>
      <trkpt lat="43.08844" lon="0.14072">
        <ele>503</ele>
        <time>2021-08-10T10:14:39.000Z</time>
      </trkpt>
      <trkpt lat="43.08851" lon="0.14067">
        <ele>503</ele>
        <time>2021-08-10T10:14:40.000Z</time>
      </trkpt>
      <trkpt lat="43.08857" lon="0.14086">
        <ele>503</ele>
        <time>2021-08-10T10:14:41.000Z</time>
      </trkpt>
      <trkpt lat="43.08864" lon="0.14086">
        <ele>502</ele>
        <time>2021-08-10T10:14:41.000Z</time>
      </trkpt>
      <trkpt lat="43.08873" lon="0.14087">
        <ele>502</ele>
        <time>2021-08-10T10:14:42.000Z</time>
      </trkpt>
      <trkpt lat="43.0888" lon="0.14088">
        <ele>502</ele>
        <time>2021-08-10T10:14:43.000Z</time>
      </trkpt>
      <trkpt lat="43.08886" lon="0.14089">
        <ele>502</ele>
        <time>2021-08-10T10:14:44.000Z</time>
      </trkpt>
      <trkpt lat="43.08893" lon="0.1409">
        <ele>502</ele>
        <time>2021-08-10T10:14:45.000Z</time>
      </trkpt>
      <trkpt lat="43.08899" lon="0.14091">
        <ele>502</ele>
        <time>2021-08-10T10:14:46.000Z</time>
      </trkpt>
      <trkpt lat="43.08905" lon="0.14092">
        <ele>502</ele>
        <time>2021-08-10T10:14:47.000Z</time>
      </trkpt>
      <trkpt lat="43.08912" lon="0.14093">
        <ele>502</ele>
        <time>2021-08-10T10:14:48.000Z</time>
      </trkpt>
      <trkpt lat="43.08918" lon="0.14094">
        <ele>502</ele>
        <time>2021-08-10T10:14:49.000Z</time>
      </trkpt>
      <trkpt lat="43.08924" lon="0.14094">
        <ele>502</ele>
        <time>2021-08-10T10:14:50.000Z</time>
      </trkpt>
      <trkpt lat="43.08929" lon="0.14094">
        <ele>502</ele>
        <time>2021-08-10T10:14:51.000Z</time>
      </trkpt>
      <trkpt lat="43.08935" lon="0.14093">
        <ele>502</ele>
        <time>2021-08-10T10:14:52.000Z</time>
      </trkpt>
      <trkpt lat="43.08941" lon="0.14093">
        <ele>502</ele>
        <time>2021-08-10T10:14:53.000Z</time>
      </trkpt>
      <trkpt lat="43.08947" lon="0.14091">
        <ele>502</ele>
        <time>2021-08-10T10:14:54.000Z</time>
      </trkpt>
      <trkpt lat="43.08952" lon="0.1409">
        <ele>502</ele>
        <time>2021-08-10T10:14:55.000Z</time>
      </trkpt>
      <trkpt lat="43.08958" lon="0.14088">
        <ele>502</ele>
        <time>2021-08-10T10:14:56.000Z</time>
      </trkpt>
      <trkpt lat="43.08964" lon="0.14086">
        <ele>502</ele>
        <time>2021-08-10T10:14:57.000Z</time>
      </trkpt>
      <trkpt lat="43.0897" lon="0.14084">
        <ele>502</ele>
        <time>2021-08-10T10:14:58.000Z</time>
      </trkpt>
      <trkpt lat="43.08975" lon="0.14082">
        <ele>503</ele>
        <time>2021-08-10T10:14:59.000Z</time>
      </trkpt>
      <trkpt lat="43.08979" lon="0.1408">
        <ele>503</ele>
        <time>2021-08-10T10:15:0.000Z</time>
      </trkpt>
      <trkpt lat="43.08986" lon="0.14078">
        <ele>503</ele>
        <time>2021-08-10T10:15:1.000Z</time>
      </trkpt>
      <trkpt lat="43.08991" lon="0.14075">
        <ele>503</ele>
        <time>2021-08-10T10:15:2.000Z</time>
      </trkpt>
      <trkpt lat="43.08996" lon="0.14073">
        <ele>504</ele>
        <time>2021-08-10T10:15:3.000Z</time>
      </trkpt>
      <trkpt lat="43.09001" lon="0.14071">
        <ele>504</ele>
        <time>2021-08-10T10:15:4.000Z</time>
      </trkpt>
      <trkpt lat="43.09007" lon="0.14069">
        <ele>504</ele>
        <time>2021-08-10T10:15:5.000Z</time>
      </trkpt>
      <trkpt lat="43.09012" lon="0.14067">
        <ele>504</ele>
        <time>2021-08-10T10:15:6.000Z</time>
      </trkpt>
      <trkpt lat="43.09016" lon="0.14064">
        <ele>504</ele>
        <time>2021-08-10T10:15:7.000Z</time>
      </trkpt>
      <trkpt lat="43.09022" lon="0.14062">
        <ele>505</ele>
        <time>2021-08-10T10:15:8.000Z</time>
      </trkpt>
      <trkpt lat="43.09027" lon="0.14059">
        <ele>505</ele>
        <time>2021-08-10T10:15:9.000Z</time>
      </trkpt>
      <trkpt lat="43.09031" lon="0.14057">
        <ele>505</ele>
        <time>2021-08-10T10:15:10.000Z</time>
      </trkpt>
      <trkpt lat="43.09036" lon="0.14054">
        <ele>505</ele>
        <time>2021-08-10T10:15:11.000Z</time>
      </trkpt>
      <trkpt lat="43.09041" lon="0.14051">
        <ele>506</ele>
        <time>2021-08-10T10:15:12.000Z</time>
      </trkpt>
      <trkpt lat="43.09046" lon="0.14048">
        <ele>506</ele>
        <time>2021-08-10T10:15:13.000Z</time>
      </trkpt>
      <trkpt lat="43.09055" lon="0.14044">
        <ele>506</ele>
        <time>2021-08-10T10:15:15.000Z</time>
      </trkpt>
      <trkpt lat="43.0906" lon="0.14041">
        <ele>507</ele>
        <time>2021-08-10T10:15:16.000Z</time>
      </trkpt>
      <trkpt lat="43.09065" lon="0.14038">
        <ele>507</ele>
        <time>2021-08-10T10:15:17.000Z</time>
      </trkpt>
      <trkpt lat="43.0907" lon="0.14035">
        <ele>507</ele>
        <time>2021-08-10T10:15:18.000Z</time>
      </trkpt>
      <trkpt lat="43.09075" lon="0.14032">
        <ele>507</ele>
        <time>2021-08-10T10:15:19.000Z</time>
      </trkpt>
      <trkpt lat="43.09084" lon="0.14027">
        <ele>507</ele>
        <time>2021-08-10T10:15:21.000Z</time>
      </trkpt>
      <trkpt lat="43.09088" lon="0.14024">
        <ele>507</ele>
        <time>2021-08-10T10:15:22.000Z</time>
      </trkpt>
      <trkpt lat="43.09092" lon="0.14021">
        <ele>507</ele>
        <time>2021-08-10T10:15:23.000Z</time>
      </trkpt>
      <trkpt lat="43.09097" lon="0.14019">
        <ele>507</ele>
        <time>2021-08-10T10:15:24.000Z</time>
      </trkpt>
      <trkpt lat="43.09101" lon="0.14015">
        <ele>508</ele>
        <time>2021-08-10T10:15:25.000Z</time>
      </trkpt>
      <trkpt lat="43.09105" lon="0.14013">
        <ele>508</ele>
        <time>2021-08-10T10:15:26.000Z</time>
      </trkpt>
      <trkpt lat="43.09108" lon="0.1401">
        <ele>508</ele>
        <time>2021-08-10T10:15:27.000Z</time>
      </trkpt>
      <trkpt lat="43.09111" lon="0.14006">
        <ele>508</ele>
        <time>2021-08-10T10:15:28.000Z</time>
      </trkpt>
      <trkpt lat="43.09115" lon="0.14003">
        <ele>508</ele>
        <time>2021-08-10T10:15:29.000Z</time>
      </trkpt>
      <trkpt lat="43.09119" lon="0.13978">
        <ele>509</ele>
        <time>2021-08-10T10:15:30.000Z</time>
      </trkpt>
      <trkpt lat="43.09122" lon="0.13972">
        <ele>509</ele>
        <time>2021-08-10T10:15:31.000Z</time>
      </trkpt>
      <trkpt lat="43.09125" lon="0.13967">
        <ele>509</ele>
        <time>2021-08-10T10:15:32.000Z</time>
      </trkpt>
      <trkpt lat="43.09128" lon="0.13961">
        <ele>509</ele>
        <time>2021-08-10T10:15:33.000Z</time>
      </trkpt>
      <trkpt lat="43.09131" lon="0.13955">
        <ele>509</ele>
        <time>2021-08-10T10:15:34.000Z</time>
      </trkpt>
      <trkpt lat="43.09134" lon="0.13948">
        <ele>510</ele>
        <time>2021-08-10T10:15:35.000Z</time>
      </trkpt>
      <trkpt lat="43.09136" lon="0.13942">
        <ele>510</ele>
        <time>2021-08-10T10:15:36.000Z</time>
      </trkpt>
      <trkpt lat="43.09139" lon="0.13936">
        <ele>510</ele>
        <time>2021-08-10T10:15:37.000Z</time>
      </trkpt>
      <trkpt lat="43.09141" lon="0.1393">
        <ele>510</ele>
        <time>2021-08-10T10:15:38.000Z</time>
      </trkpt>
      <trkpt lat="43.09143" lon="0.13924">
        <ele>511</ele>
        <time>2021-08-10T10:15:39.000Z</time>
      </trkpt>
      <trkpt lat="43.09145" lon="0.13918">
        <ele>511</ele>
        <time>2021-08-10T10:15:40.000Z</time>
      </trkpt>
      <trkpt lat="43.09147" lon="0.13912">
        <ele>511</ele>
        <time>2021-08-10T10:15:41.000Z</time>
      </trkpt>
      <trkpt lat="43.0915" lon="0.13907">
        <ele>511</ele>
        <time>2021-08-10T10:15:42.000Z</time>
      </trkpt>
      <trkpt lat="43.09152" lon="0.13901">
        <ele>511</ele>
        <time>2021-08-10T10:15:43.000Z</time>
      </trkpt>
      <trkpt lat="43.09154" lon="0.13895">
        <ele>511</ele>
        <time>2021-08-10T10:15:44.000Z</time>
      </trkpt>
      <trkpt lat="43.09156" lon="0.13889">
        <ele>511</ele>
        <time>2021-08-10T10:15:45.000Z</time>
      </trkpt>
      <trkpt lat="43.09158" lon="0.13883">
        <ele>511</ele>
        <time>2021-08-10T10:15:46.000Z</time>
      </trkpt>
      <trkpt lat="43.09161" lon="0.13876">
        <ele>511</ele>
        <time>2021-08-10T10:15:47.000Z</time>
      </trkpt>
      <trkpt lat="43.09164" lon="0.13871">
        <ele>511</ele>
        <time>2021-08-10T10:15:48.000Z</time>
      </trkpt>
      <trkpt lat="43.09166" lon="0.13866">
        <ele>511</ele>
        <time>2021-08-10T10:15:49.000Z</time>
      </trkpt>
      <trkpt lat="43.09172" lon="0.13861">
        <ele>511</ele>
        <time>2021-08-10T10:15:50.000Z</time>
      </trkpt>
      <trkpt lat="43.09176" lon="0.13857">
        <ele>511</ele>
        <time>2021-08-10T10:15:51.000Z</time>
      </trkpt>
      <trkpt lat="43.09182" lon="0.13852">
        <ele>511</ele>
        <time>2021-08-10T10:15:52.000Z</time>
      </trkpt>
      <trkpt lat="43.09186" lon="0.13848">
        <ele>511</ele>
        <time>2021-08-10T10:15:53.000Z</time>
      </trkpt>
      <trkpt lat="43.0919" lon="0.13844">
        <ele>511</ele>
        <time>2021-08-10T10:15:54.000Z</time>
      </trkpt>
      <trkpt lat="43.09197" lon="0.13839">
        <ele>511</ele>
        <time>2021-08-10T10:15:55.000Z</time>
      </trkpt>
      <trkpt lat="43.09203" lon="0.13835">
        <ele>510</ele>
        <time>2021-08-10T10:15:56.000Z</time>
      </trkpt>
      <trkpt lat="43.09208" lon="0.13831">
        <ele>510</ele>
        <time>2021-08-10T10:15:57.000Z</time>
      </trkpt>
      <trkpt lat="43.09213" lon="0.13828">
        <ele>510</ele>
        <time>2021-08-10T10:15:58.000Z</time>
      </trkpt>
      <trkpt lat="43.09219" lon="0.13824">
        <ele>510</ele>
        <time>2021-08-10T10:15:59.000Z</time>
      </trkpt>
      <trkpt lat="43.09227" lon="0.1382">
        <ele>509</ele>
        <time>2021-08-10T10:16:0.000Z</time>
      </trkpt>
      <trkpt lat="43.09233" lon="0.13818">
        <ele>509</ele>
        <time>2021-08-10T10:16:1.000Z</time>
      </trkpt>
      <trkpt lat="43.09239" lon="0.13815">
        <ele>509</ele>
        <time>2021-08-10T10:16:2.000Z</time>
      </trkpt>
      <trkpt lat="43.09245" lon="0.13814">
        <ele>508</ele>
        <time>2021-08-10T10:16:3.000Z</time>
      </trkpt>
      <trkpt lat="43.09254" lon="0.13811">
        <ele>508</ele>
        <time>2021-08-10T10:16:4.000Z</time>
      </trkpt>
      <trkpt lat="43.09261" lon="0.13808">
        <ele>508</ele>
        <time>2021-08-10T10:16:5.000Z</time>
      </trkpt>
      <trkpt lat="43.09266" lon="0.13804">
        <ele>507</ele>
        <time>2021-08-10T10:16:6.000Z</time>
      </trkpt>
      <trkpt lat="43.09275" lon="0.13799">
        <ele>507</ele>
        <time>2021-08-10T10:16:7.000Z</time>
      </trkpt>
      <trkpt lat="43.09282" lon="0.13795">
        <ele>507</ele>
        <time>2021-08-10T10:16:8.000Z</time>
      </trkpt>
      <trkpt lat="43.0929" lon="0.13792">
        <ele>506</ele>
        <time>2021-08-10T10:16:9.000Z</time>
      </trkpt>
      <trkpt lat="43.09298" lon="0.13788">
        <ele>506</ele>
        <time>2021-08-10T10:16:10.000Z</time>
      </trkpt>
      <trkpt lat="43.09308" lon="0.13785">
        <ele>506</ele>
        <time>2021-08-10T10:16:11.000Z</time>
      </trkpt>
      <trkpt lat="43.09315" lon="0.13782">
        <ele>505</ele>
        <time>2021-08-10T10:16:12.000Z</time>
      </trkpt>
      <trkpt lat="43.09322" lon="0.13787">
        <ele>505</ele>
        <time>2021-08-10T10:16:13.000Z</time>
      </trkpt>
      <trkpt lat="43.09332" lon="0.13786">
        <ele>504</ele>
        <time>2021-08-10T10:16:14.000Z</time>
      </trkpt>
      <trkpt lat="43.09341" lon="0.13786">
        <ele>504</ele>
        <time>2021-08-10T10:16:15.000Z</time>
      </trkpt>
      <trkpt lat="43.09349" lon="0.1379">
        <ele>503</ele>
        <time>2021-08-10T10:16:16.000Z</time>
      </trkpt>
      <trkpt lat="43.09358" lon="0.13793">
        <ele>503</ele>
        <time>2021-08-10T10:16:17.000Z</time>
      </trkpt>
      <trkpt lat="43.09366" lon="0.13798">
        <ele>502</ele>
        <time>2021-08-10T10:16:18.000Z</time>
      </trkpt>
      <trkpt lat="43.09374" lon="0.13804">
        <ele>502</ele>
        <time>2021-08-10T10:16:19.000Z</time>
      </trkpt>
      <trkpt lat="43.09381" lon="0.1381">
        <ele>502</ele>
        <time>2021-08-10T10:16:20.000Z</time>
      </trkpt>
      <trkpt lat="43.09387" lon="0.13814">
        <ele>502</ele>
        <time>2021-08-10T10:16:21.000Z</time>
      </trkpt>
      <trkpt lat="43.09394" lon="0.1382">
        <ele>502</ele>
        <time>2021-08-10T10:16:22.000Z</time>
      </trkpt>
      <trkpt lat="43.09403" lon="0.13824">
        <ele>502</ele>
        <time>2021-08-10T10:16:23.000Z</time>
      </trkpt>
      <trkpt lat="43.09412" lon="0.1383">
        <ele>501</ele>
        <time>2021-08-10T10:16:24.000Z</time>
      </trkpt>
      <trkpt lat="43.09421" lon="0.13835">
        <ele>501</ele>
        <time>2021-08-10T10:16:25.000Z</time>
      </trkpt>
      <trkpt lat="43.0943" lon="0.13839">
        <ele>500</ele>
        <time>2021-08-10T10:16:26.000Z</time>
      </trkpt>
      <trkpt lat="43.09436" lon="0.13842">
        <ele>500</ele>
        <time>2021-08-10T10:16:27.000Z</time>
      </trkpt>
      <trkpt lat="43.09444" lon="0.13847">
        <ele>500</ele>
        <time>2021-08-10T10:16:28.000Z</time>
      </trkpt>
      <trkpt lat="43.09453" lon="0.13853">
        <ele>499</ele>
        <time>2021-08-10T10:16:29.000Z</time>
      </trkpt>
      <trkpt lat="43.09461" lon="0.13859">
        <ele>499</ele>
        <time>2021-08-10T10:16:30.000Z</time>
      </trkpt>
      <trkpt lat="43.09467" lon="0.13864">
        <ele>497</ele>
        <time>2021-08-10T10:16:31.000Z</time>
      </trkpt>
      <trkpt lat="43.09478" lon="0.13871">
        <ele>497</ele>
        <time>2021-08-10T10:16:32.000Z</time>
      </trkpt>
      <trkpt lat="43.09485" lon="0.13875">
        <ele>496</ele>
        <time>2021-08-10T10:16:33.000Z</time>
      </trkpt>
      <trkpt lat="43.09494" lon="0.13875">
        <ele>496</ele>
        <time>2021-08-10T10:16:34.000Z</time>
      </trkpt>
      <trkpt lat="43.09501" lon="0.13874">
        <ele>495</ele>
        <time>2021-08-10T10:16:35.000Z</time>
      </trkpt>
      <trkpt lat="43.0951" lon="0.13871">
        <ele>495</ele>
        <time>2021-08-10T10:16:36.000Z</time>
      </trkpt>
      <trkpt lat="43.09519" lon="0.13867">
        <ele>495</ele>
        <time>2021-08-10T10:16:37.000Z</time>
      </trkpt>
      <trkpt lat="43.09526" lon="0.13863">
        <ele>495</ele>
        <time>2021-08-10T10:16:38.000Z</time>
      </trkpt>
      <trkpt lat="43.09534" lon="0.13859">
        <ele>495</ele>
        <time>2021-08-10T10:16:39.000Z</time>
      </trkpt>
      <trkpt lat="43.09544" lon="0.13853">
        <ele>495</ele>
        <time>2021-08-10T10:16:40.000Z</time>
      </trkpt>
      <trkpt lat="43.09549" lon="0.13848">
        <ele>495</ele>
        <time>2021-08-10T10:16:41.000Z</time>
      </trkpt>
      <trkpt lat="43.09556" lon="0.13843">
        <ele>494</ele>
        <time>2021-08-10T10:16:42.000Z</time>
      </trkpt>
      <trkpt lat="43.09563" lon="0.13839">
        <ele>494</ele>
        <time>2021-08-10T10:16:43.000Z</time>
      </trkpt>
      <trkpt lat="43.0957" lon="0.13834">
        <ele>494</ele>
        <time>2021-08-10T10:16:44.000Z</time>
      </trkpt>
      <trkpt lat="43.09576" lon="0.13829">
        <ele>494</ele>
        <time>2021-08-10T10:16:45.000Z</time>
      </trkpt>
      <trkpt lat="43.09583" lon="0.13825">
        <ele>494</ele>
        <time>2021-08-10T10:16:46.000Z</time>
      </trkpt>
      <trkpt lat="43.09589" lon="0.1382">
        <ele>494</ele>
        <time>2021-08-10T10:16:47.000Z</time>
      </trkpt>
      <trkpt lat="43.09596" lon="0.13816">
        <ele>494</ele>
        <time>2021-08-10T10:16:48.000Z</time>
      </trkpt>
      <trkpt lat="43.09604" lon="0.1381">
        <ele>494</ele>
        <time>2021-08-10T10:16:49.000Z</time>
      </trkpt>
      <trkpt lat="43.09606" lon="0.13807">
        <ele>494</ele>
        <time>2021-08-10T10:16:50.000Z</time>
      </trkpt>
      <trkpt lat="43.09617" lon="0.138">
        <ele>494</ele>
        <time>2021-08-10T10:16:51.000Z</time>
      </trkpt>
      <trkpt lat="43.09624" lon="0.13796">
        <ele>494</ele>
        <time>2021-08-10T10:16:52.000Z</time>
      </trkpt>
      <trkpt lat="43.09631" lon="0.13792">
        <ele>494</ele>
        <time>2021-08-10T10:16:53.000Z</time>
      </trkpt>
      <trkpt lat="43.09639" lon="0.13789">
        <ele>494</ele>
        <time>2021-08-10T10:16:54.000Z</time>
      </trkpt>
      <trkpt lat="43.09645" lon="0.13787">
        <ele>494</ele>
        <time>2021-08-10T10:16:55.000Z</time>
      </trkpt>
      <trkpt lat="43.09652" lon="0.13784">
        <ele>494</ele>
        <time>2021-08-10T10:16:56.000Z</time>
      </trkpt>
      <trkpt lat="43.0966" lon="0.13781">
        <ele>494</ele>
        <time>2021-08-10T10:16:57.000Z</time>
      </trkpt>
      <trkpt lat="43.09667" lon="0.13779">
        <ele>494</ele>
        <time>2021-08-10T10:16:58.000Z</time>
      </trkpt>
      <trkpt lat="43.09676" lon="0.13776">
        <ele>494</ele>
        <time>2021-08-10T10:16:59.000Z</time>
      </trkpt>
      <trkpt lat="43.09682" lon="0.13775">
        <ele>494</ele>
        <time>2021-08-10T10:17:0.000Z</time>
      </trkpt>
      <trkpt lat="43.09689" lon="0.13773">
        <ele>494</ele>
        <time>2021-08-10T10:17:1.000Z</time>
      </trkpt>
      <trkpt lat="43.09696" lon="0.13771">
        <ele>494</ele>
        <time>2021-08-10T10:17:2.000Z</time>
      </trkpt>
      <trkpt lat="43.09703" lon="0.13769">
        <ele>494</ele>
        <time>2021-08-10T10:17:3.000Z</time>
      </trkpt>
      <trkpt lat="43.09712" lon="0.13767">
        <ele>494</ele>
        <time>2021-08-10T10:17:4.000Z</time>
      </trkpt>
      <trkpt lat="43.09719" lon="0.13765">
        <ele>494</ele>
        <time>2021-08-10T10:17:5.000Z</time>
      </trkpt>
      <trkpt lat="43.09726" lon="0.13764">
        <ele>494</ele>
        <time>2021-08-10T10:17:6.000Z</time>
      </trkpt>
      <trkpt lat="43.09732" lon="0.13762">
        <ele>494</ele>
        <time>2021-08-10T10:17:7.000Z</time>
      </trkpt>
      <trkpt lat="43.0974" lon="0.13761">
        <ele>494</ele>
        <time>2021-08-10T10:17:8.000Z</time>
      </trkpt>
      <trkpt lat="43.09749" lon="0.1376">
        <ele>494</ele>
        <time>2021-08-10T10:17:9.000Z</time>
      </trkpt>
      <trkpt lat="43.09756" lon="0.1376">
        <ele>494</ele>
        <time>2021-08-10T10:17:10.000Z</time>
      </trkpt>
      <trkpt lat="43.09763" lon="0.13759">
        <ele>494</ele>
        <time>2021-08-10T10:17:11.000Z</time>
      </trkpt>
      <trkpt lat="43.09769" lon="0.13759">
        <ele>494</ele>
        <time>2021-08-10T10:17:12.000Z</time>
      </trkpt>
      <trkpt lat="43.09779" lon="0.13757">
        <ele>494</ele>
        <time>2021-08-10T10:17:13.000Z</time>
      </trkpt>
      <trkpt lat="43.09787" lon="0.1377">
        <ele>494</ele>
        <time>2021-08-10T10:17:14.000Z</time>
      </trkpt>
      <trkpt lat="43.09794" lon="0.13763">
        <ele>493</ele>
        <time>2021-08-10T10:17:15.000Z</time>
      </trkpt>
      <trkpt lat="43.09801" lon="0.13757">
        <ele>493</ele>
        <time>2021-08-10T10:17:16.000Z</time>
      </trkpt>
      <trkpt lat="43.09806" lon="0.13753">
        <ele>493</ele>
        <time>2021-08-10T10:17:17.000Z</time>
      </trkpt>
      <trkpt lat="43.09813" lon="0.13746">
        <ele>493</ele>
        <time>2021-08-10T10:17:18.000Z</time>
      </trkpt>
      <trkpt lat="43.09819" lon="0.13741">
        <ele>493</ele>
        <time>2021-08-10T10:17:19.000Z</time>
      </trkpt>
      <trkpt lat="43.09826" lon="0.13735">
        <ele>493</ele>
        <time>2021-08-10T10:17:20.000Z</time>
      </trkpt>
      <trkpt lat="43.09832" lon="0.13729">
        <ele>493</ele>
        <time>2021-08-10T10:17:21.000Z</time>
      </trkpt>
      <trkpt lat="43.09839" lon="0.13723">
        <ele>493</ele>
        <time>2021-08-10T10:17:22.000Z</time>
      </trkpt>
      <trkpt lat="43.09845" lon="0.13717">
        <ele>493</ele>
        <time>2021-08-10T10:17:23.000Z</time>
      </trkpt>
      <trkpt lat="43.09853" lon="0.13713">
        <ele>493</ele>
        <time>2021-08-10T10:17:24.000Z</time>
      </trkpt>
      <trkpt lat="43.0986" lon="0.1371">
        <ele>492</ele>
        <time>2021-08-10T10:17:25.000Z</time>
      </trkpt>
      <trkpt lat="43.09866" lon="0.13707">
        <ele>492</ele>
        <time>2021-08-10T10:17:26.000Z</time>
      </trkpt>
      <trkpt lat="43.09874" lon="0.13703">
        <ele>492</ele>
        <time>2021-08-10T10:17:27.000Z</time>
      </trkpt>
      <trkpt lat="43.09882" lon="0.13699">
        <ele>492</ele>
        <time>2021-08-10T10:17:28.000Z</time>
      </trkpt>
      <trkpt lat="43.0989" lon="0.13696">
        <ele>492</ele>
        <time>2021-08-10T10:17:29.000Z</time>
      </trkpt>
      <trkpt lat="43.09896" lon="0.13692">
        <ele>492</ele>
        <time>2021-08-10T10:17:30.000Z</time>
      </trkpt>
      <trkpt lat="43.09903" lon="0.13689">
        <ele>492</ele>
        <time>2021-08-10T10:17:31.000Z</time>
      </trkpt>
      <trkpt lat="43.09911" lon="0.13685">
        <ele>492</ele>
        <time>2021-08-10T10:17:32.000Z</time>
      </trkpt>
      <trkpt lat="43.09914" lon="0.13682">
        <ele>492</ele>
        <time>2021-08-10T10:17:33.000Z</time>
      </trkpt>
      <trkpt lat="43.09919" lon="0.13678">
        <ele>492</ele>
        <time>2021-08-10T10:17:34.000Z</time>
      </trkpt>
      <trkpt lat="43.09925" lon="0.13674">
        <ele>492</ele>
        <time>2021-08-10T10:17:35.000Z</time>
      </trkpt>
      <trkpt lat="43.09932" lon="0.13669">
        <ele>492</ele>
        <time>2021-08-10T10:17:36.000Z</time>
      </trkpt>
      <trkpt lat="43.09936" lon="0.13665">
        <ele>492</ele>
        <time>2021-08-10T10:17:37.000Z</time>
      </trkpt>
      <trkpt lat="43.09942" lon="0.13661">
        <ele>491</ele>
        <time>2021-08-10T10:17:38.000Z</time>
      </trkpt>
      <trkpt lat="43.09948" lon="0.13657">
        <ele>491</ele>
        <time>2021-08-10T10:17:39.000Z</time>
      </trkpt>
      <trkpt lat="43.09955" lon="0.13656">
        <ele>491</ele>
        <time>2021-08-10T10:17:40.000Z</time>
      </trkpt>
      <trkpt lat="43.09962" lon="0.13656">
        <ele>491</ele>
        <time>2021-08-10T10:17:41.000Z</time>
      </trkpt>
      <trkpt lat="43.0997" lon="0.13653">
        <ele>491</ele>
        <time>2021-08-10T10:17:42.000Z</time>
      </trkpt>
      <trkpt lat="43.09978" lon="0.13655">
        <ele>490</ele>
        <time>2021-08-10T10:17:43.000Z</time>
      </trkpt>
      <trkpt lat="43.09986" lon="0.13657">
        <ele>490</ele>
        <time>2021-08-10T10:17:44.000Z</time>
      </trkpt>
      <trkpt lat="43.09994" lon="0.13656">
        <ele>490</ele>
        <time>2021-08-10T10:17:45.000Z</time>
      </trkpt>
      <trkpt lat="43.10001" lon="0.13651">
        <ele>490</ele>
        <time>2021-08-10T10:17:46.000Z</time>
      </trkpt>
      <trkpt lat="43.10008" lon="0.13646">
        <ele>490</ele>
        <time>2021-08-10T10:17:47.000Z</time>
      </trkpt>
      <trkpt lat="43.10015" lon="0.13639">
        <ele>490</ele>
        <time>2021-08-10T10:17:48.000Z</time>
      </trkpt>
      <trkpt lat="43.10023" lon="0.13632">
        <ele>488</ele>
        <time>2021-08-10T10:17:49.000Z</time>
      </trkpt>
      <trkpt lat="43.10029" lon="0.13627">
        <ele>488</ele>
        <time>2021-08-10T10:17:50.000Z</time>
      </trkpt>
      <trkpt lat="43.10035" lon="0.1362">
        <ele>487</ele>
        <time>2021-08-10T10:17:51.000Z</time>
      </trkpt>
      <trkpt lat="43.10043" lon="0.13613">
        <ele>487</ele>
        <time>2021-08-10T10:17:52.000Z</time>
      </trkpt>
      <trkpt lat="43.1005" lon="0.13607">
        <ele>486</ele>
        <time>2021-08-10T10:17:53.000Z</time>
      </trkpt>
      <trkpt lat="43.10061" lon="0.13598">
        <ele>486</ele>
        <time>2021-08-10T10:17:54.000Z</time>
      </trkpt>
      <trkpt lat="43.1007" lon="0.13591">
        <ele>485</ele>
        <time>2021-08-10T10:17:55.000Z</time>
      </trkpt>
      <trkpt lat="43.10079" lon="0.13584">
        <ele>485</ele>
        <time>2021-08-10T10:17:56.000Z</time>
      </trkpt>
      <trkpt lat="43.10089" lon="0.13577">
        <ele>483</ele>
        <time>2021-08-10T10:17:57.000Z</time>
      </trkpt>
      <trkpt lat="43.10098" lon="0.1357">
        <ele>483</ele>
        <time>2021-08-10T10:17:58.000Z</time>
      </trkpt>
      <trkpt lat="43.10108" lon="0.13563">
        <ele>482</ele>
        <time>2021-08-10T10:17:59.000Z</time>
      </trkpt>
      <trkpt lat="43.10119" lon="0.13556">
        <ele>482</ele>
        <time>2021-08-10T10:18:0.000Z</time>
      </trkpt>
      <trkpt lat="43.10129" lon="0.13552">
        <ele>480</ele>
        <time>2021-08-10T10:18:1.000Z</time>
      </trkpt>
      <trkpt lat="43.10139" lon="0.13569">
        <ele>480</ele>
        <time>2021-08-10T10:18:2.000Z</time>
      </trkpt>
      <trkpt lat="43.10147" lon="0.13571">
        <ele>479</ele>
        <time>2021-08-10T10:18:3.000Z</time>
      </trkpt>
      <trkpt lat="43.10156" lon="0.13572">
        <ele>479</ele>
        <time>2021-08-10T10:18:4.000Z</time>
      </trkpt>
      <trkpt lat="43.10164" lon="0.1357">
        <ele>479</ele>
        <time>2021-08-10T10:18:5.000Z</time>
      </trkpt>
      <trkpt lat="43.10171" lon="0.13562">
        <ele>479</ele>
        <time>2021-08-10T10:18:6.000Z</time>
      </trkpt>
      <trkpt lat="43.10175" lon="0.13552">
        <ele>479</ele>
        <time>2021-08-10T10:18:7.000Z</time>
      </trkpt>
      <trkpt lat="43.10177" lon="0.13541">
        <ele>478</ele>
        <time>2021-08-10T10:18:8.000Z</time>
      </trkpt>
      <trkpt lat="43.10177" lon="0.13527">
        <ele>478</ele>
        <time>2021-08-10T10:18:9.000Z</time>
      </trkpt>
      <trkpt lat="43.10177" lon="0.13517">
        <ele>478</ele>
        <time>2021-08-10T10:18:10.000Z</time>
      </trkpt>
      <trkpt lat="43.10179" lon="0.13503">
        <ele>478</ele>
        <time>2021-08-10T10:18:11.000Z</time>
      </trkpt>
      <trkpt lat="43.10181" lon="0.13493">
        <ele>477</ele>
        <time>2021-08-10T10:18:12.000Z</time>
      </trkpt>
      <trkpt lat="43.10186" lon="0.13482">
        <ele>477</ele>
        <time>2021-08-10T10:18:13.000Z</time>
      </trkpt>
      <trkpt lat="43.10189" lon="0.13472">
        <ele>477</ele>
        <time>2021-08-10T10:18:14.000Z</time>
      </trkpt>
      <trkpt lat="43.10194" lon="0.13461">
        <ele>477</ele>
        <time>2021-08-10T10:18:15.000Z</time>
      </trkpt>
      <trkpt lat="43.10199" lon="0.13452">
        <ele>476</ele>
        <time>2021-08-10T10:18:16.000Z</time>
      </trkpt>
      <trkpt lat="43.10204" lon="0.13443">
        <ele>476</ele>
        <time>2021-08-10T10:18:17.000Z</time>
      </trkpt>
      <trkpt lat="43.10208" lon="0.13433">
        <ele>476</ele>
        <time>2021-08-10T10:18:18.000Z</time>
      </trkpt>
      <trkpt lat="43.10213" lon="0.13424">
        <ele>475</ele>
        <time>2021-08-10T10:18:19.000Z</time>
      </trkpt>
      <trkpt lat="43.10217" lon="0.13415">
        <ele>475</ele>
        <time>2021-08-10T10:18:20.000Z</time>
      </trkpt>
      <trkpt lat="43.10222" lon="0.13406">
        <ele>475</ele>
        <time>2021-08-10T10:18:21.000Z</time>
      </trkpt>
      <trkpt lat="43.10228" lon="0.13397">
        <ele>475</ele>
        <time>2021-08-10T10:18:22.000Z</time>
      </trkpt>
      <trkpt lat="43.10233" lon="0.13389">
        <ele>475</ele>
        <time>2021-08-10T10:18:23.000Z</time>
      </trkpt>
      <trkpt lat="43.10238" lon="0.13381">
        <ele>474</ele>
        <time>2021-08-10T10:18:24.000Z</time>
      </trkpt>
      <trkpt lat="43.10243" lon="0.13373">
        <ele>474</ele>
        <time>2021-08-10T10:18:25.000Z</time>
      </trkpt>
      <trkpt lat="43.10251" lon="0.13365">
        <ele>474</ele>
        <time>2021-08-10T10:18:26.000Z</time>
      </trkpt>
      <trkpt lat="43.10257" lon="0.13358">
        <ele>474</ele>
        <time>2021-08-10T10:18:27.000Z</time>
      </trkpt>
      <trkpt lat="43.10263" lon="0.1335">
        <ele>475</ele>
        <time>2021-08-10T10:18:28.000Z</time>
      </trkpt>
      <trkpt lat="43.1027" lon="0.13341">
        <ele>475</ele>
        <time>2021-08-10T10:18:29.000Z</time>
      </trkpt>
      <trkpt lat="43.10277" lon="0.13333">
        <ele>475</ele>
        <time>2021-08-10T10:18:30.000Z</time>
      </trkpt>
      <trkpt lat="43.10283" lon="0.13326">
        <ele>475</ele>
        <time>2021-08-10T10:18:31.000Z</time>
      </trkpt>
      <trkpt lat="43.10288" lon="0.1332">
        <ele>475</ele>
        <time>2021-08-10T10:18:32.000Z</time>
      </trkpt>
      <trkpt lat="43.10296" lon="0.13311">
        <ele>475</ele>
        <time>2021-08-10T10:18:33.000Z</time>
      </trkpt>
      <trkpt lat="43.10301" lon="0.13306">
        <ele>475</ele>
        <time>2021-08-10T10:18:34.000Z</time>
      </trkpt>
      <trkpt lat="43.10307" lon="0.13298">
        <ele>474</ele>
        <time>2021-08-10T10:18:35.000Z</time>
      </trkpt>
      <trkpt lat="43.10313" lon="0.13291">
        <ele>474</ele>
        <time>2021-08-10T10:18:36.000Z</time>
      </trkpt>
      <trkpt lat="43.10319" lon="0.13284">
        <ele>474</ele>
        <time>2021-08-10T10:18:37.000Z</time>
      </trkpt>
      <trkpt lat="43.10325" lon="0.13277">
        <ele>474</ele>
        <time>2021-08-10T10:18:38.000Z</time>
      </trkpt>
      <trkpt lat="43.10331" lon="0.1327">
        <ele>474</ele>
        <time>2021-08-10T10:18:39.000Z</time>
      </trkpt>
      <trkpt lat="43.10337" lon="0.13263">
        <ele>474</ele>
        <time>2021-08-10T10:18:40.000Z</time>
      </trkpt>
      <trkpt lat="43.10344" lon="0.13256">
        <ele>474</ele>
        <time>2021-08-10T10:18:41.000Z</time>
      </trkpt>
      <trkpt lat="43.1035" lon="0.13249">
        <ele>474</ele>
        <time>2021-08-10T10:18:42.000Z</time>
      </trkpt>
      <trkpt lat="43.10357" lon="0.13242">
        <ele>473</ele>
        <time>2021-08-10T10:18:42.000Z</time>
      </trkpt>
      <trkpt lat="43.10363" lon="0.13236">
        <ele>473</ele>
        <time>2021-08-10T10:18:43.000Z</time>
      </trkpt>
      <trkpt lat="43.10368" lon="0.1323">
        <ele>472</ele>
        <time>2021-08-10T10:18:44.000Z</time>
      </trkpt>
      <trkpt lat="43.10374" lon="0.13224">
        <ele>472</ele>
        <time>2021-08-10T10:18:45.000Z</time>
      </trkpt>
      <trkpt lat="43.10379" lon="0.13218">
        <ele>472</ele>
        <time>2021-08-10T10:18:46.000Z</time>
      </trkpt>
      <trkpt lat="43.10385" lon="0.13211">
        <ele>471</ele>
        <time>2021-08-10T10:18:47.000Z</time>
      </trkpt>
      <trkpt lat="43.10391" lon="0.13205">
        <ele>471</ele>
        <time>2021-08-10T10:18:48.000Z</time>
      </trkpt>
      <trkpt lat="43.10397" lon="0.13198">
        <ele>471</ele>
        <time>2021-08-10T10:18:49.000Z</time>
      </trkpt>
      <trkpt lat="43.10403" lon="0.13192">
        <ele>471</ele>
        <time>2021-08-10T10:18:50.000Z</time>
      </trkpt>
      <trkpt lat="43.1041" lon="0.13184">
        <ele>471</ele>
        <time>2021-08-10T10:18:51.000Z</time>
      </trkpt>
      <trkpt lat="43.10416" lon="0.13177">
        <ele>471</ele>
        <time>2021-08-10T10:18:52.000Z</time>
      </trkpt>
      <trkpt lat="43.10421" lon="0.13172">
        <ele>471</ele>
        <time>2021-08-10T10:18:53.000Z</time>
      </trkpt>
      <trkpt lat="43.10431" lon="0.13161">
        <ele>471</ele>
        <time>2021-08-10T10:18:55.000Z</time>
      </trkpt>
      <trkpt lat="43.10437" lon="0.13155">
        <ele>471</ele>
        <time>2021-08-10T10:18:56.000Z</time>
      </trkpt>
      <trkpt lat="43.10442" lon="0.13149">
        <ele>471</ele>
        <time>2021-08-10T10:18:57.000Z</time>
      </trkpt>
      <trkpt lat="43.10448" lon="0.13142">
        <ele>471</ele>
        <time>2021-08-10T10:18:58.000Z</time>
      </trkpt>
      <trkpt lat="43.10454" lon="0.13135">
        <ele>471</ele>
        <time>2021-08-10T10:18:59.000Z</time>
      </trkpt>
      <trkpt lat="43.1046" lon="0.13128">
        <ele>470</ele>
        <time>2021-08-10T10:19:0.000Z</time>
      </trkpt>
      <trkpt lat="43.10467" lon="0.13121">
        <ele>470</ele>
        <time>2021-08-10T10:19:1.000Z</time>
      </trkpt>
      <trkpt lat="43.10473" lon="0.13114">
        <ele>470</ele>
        <time>2021-08-10T10:19:2.000Z</time>
      </trkpt>
      <trkpt lat="43.10479" lon="0.13107">
        <ele>470</ele>
        <time>2021-08-10T10:19:3.000Z</time>
      </trkpt>
      <trkpt lat="43.10485" lon="0.13101">
        <ele>470</ele>
        <time>2021-08-10T10:19:4.000Z</time>
      </trkpt>
      <trkpt lat="43.10491" lon="0.13094">
        <ele>470</ele>
        <time>2021-08-10T10:19:5.000Z</time>
      </trkpt>
      <trkpt lat="43.10497" lon="0.13088">
        <ele>470</ele>
        <time>2021-08-10T10:19:6.000Z</time>
      </trkpt>
      <trkpt lat="43.10502" lon="0.13082">
        <ele>470</ele>
        <time>2021-08-10T10:19:7.000Z</time>
      </trkpt>
      <trkpt lat="43.10508" lon="0.13076">
        <ele>470</ele>
        <time>2021-08-10T10:19:8.000Z</time>
      </trkpt>
      <trkpt lat="43.10515" lon="0.13067">
        <ele>470</ele>
        <time>2021-08-10T10:19:9.000Z</time>
      </trkpt>
      <trkpt lat="43.10519" lon="0.13062">
        <ele>470</ele>
        <time>2021-08-10T10:19:10.000Z</time>
      </trkpt>
      <trkpt lat="43.10525" lon="0.13055">
        <ele>470</ele>
        <time>2021-08-10T10:19:11.000Z</time>
      </trkpt>
      <trkpt lat="43.1053" lon="0.13049">
        <ele>469</ele>
        <time>2021-08-10T10:19:12.000Z</time>
      </trkpt>
      <trkpt lat="43.10536" lon="0.13043">
        <ele>469</ele>
        <time>2021-08-10T10:19:13.000Z</time>
      </trkpt>
      <trkpt lat="43.10542" lon="0.13036">
        <ele>469</ele>
        <time>2021-08-10T10:19:14.000Z</time>
      </trkpt>
      <trkpt lat="43.10548" lon="0.13029">
        <ele>469</ele>
        <time>2021-08-10T10:19:15.000Z</time>
      </trkpt>
      <trkpt lat="43.10554" lon="0.13023">
        <ele>469</ele>
        <time>2021-08-10T10:19:16.000Z</time>
      </trkpt>
      <trkpt lat="43.10559" lon="0.13016">
        <ele>469</ele>
        <time>2021-08-10T10:19:17.000Z</time>
      </trkpt>
      <trkpt lat="43.10564" lon="0.13011">
        <ele>469</ele>
        <time>2021-08-10T10:19:18.000Z</time>
      </trkpt>
      <trkpt lat="43.10569" lon="0.13006">
        <ele>469</ele>
        <time>2021-08-10T10:19:19.000Z</time>
      </trkpt>
      <trkpt lat="43.10574" lon="0.12999">
        <ele>469</ele>
        <time>2021-08-10T10:19:20.000Z</time>
      </trkpt>
      <trkpt lat="43.1058" lon="0.12992">
        <ele>469</ele>
        <time>2021-08-10T10:19:21.000Z</time>
      </trkpt>
      <trkpt lat="43.10586" lon="0.12986">
        <ele>469</ele>
        <time>2021-08-10T10:19:22.000Z</time>
      </trkpt>
      <trkpt lat="43.10592" lon="0.12979">
        <ele>469</ele>
        <time>2021-08-10T10:19:23.000Z</time>
      </trkpt>
      <trkpt lat="43.10598" lon="0.12972">
        <ele>468</ele>
        <time>2021-08-10T10:19:24.000Z</time>
      </trkpt>
      <trkpt lat="43.10604" lon="0.12965">
        <ele>468</ele>
        <time>2021-08-10T10:19:25.000Z</time>
      </trkpt>
      <trkpt lat="43.1061" lon="0.12958">
        <ele>468</ele>
        <time>2021-08-10T10:19:26.000Z</time>
      </trkpt>
      <trkpt lat="43.10616" lon="0.12951">
        <ele>467</ele>
        <time>2021-08-10T10:19:27.000Z</time>
      </trkpt>
      <trkpt lat="43.10622" lon="0.12943">
        <ele>467</ele>
        <time>2021-08-10T10:19:28.000Z</time>
      </trkpt>
      <trkpt lat="43.10628" lon="0.12937">
        <ele>467</ele>
        <time>2021-08-10T10:19:29.000Z</time>
      </trkpt>
      <trkpt lat="43.10634" lon="0.12929">
        <ele>466</ele>
        <time>2021-08-10T10:19:30.000Z</time>
      </trkpt>
      <trkpt lat="43.1064" lon="0.12923">
        <ele>466</ele>
        <time>2021-08-10T10:19:31.000Z</time>
      </trkpt>
      <trkpt lat="43.10646" lon="0.12915">
        <ele>466</ele>
        <time>2021-08-10T10:19:32.000Z</time>
      </trkpt>
      <trkpt lat="43.10651" lon="0.12909">
        <ele>466</ele>
        <time>2021-08-10T10:19:33.000Z</time>
      </trkpt>
      <trkpt lat="43.10657" lon="0.12902">
        <ele>466</ele>
        <time>2021-08-10T10:19:34.000Z</time>
      </trkpt>
      <trkpt lat="43.10663" lon="0.12895">
        <ele>466</ele>
        <time>2021-08-10T10:19:35.000Z</time>
      </trkpt>
      <trkpt lat="43.10669" lon="0.12888">
        <ele>466</ele>
        <time>2021-08-10T10:19:36.000Z</time>
      </trkpt>
      <trkpt lat="43.10675" lon="0.12882">
        <ele>466</ele>
        <time>2021-08-10T10:19:37.000Z</time>
      </trkpt>
      <trkpt lat="43.1068" lon="0.12875">
        <ele>466</ele>
        <time>2021-08-10T10:19:38.000Z</time>
      </trkpt>
      <trkpt lat="43.10687" lon="0.12869">
        <ele>465</ele>
        <time>2021-08-10T10:19:39.000Z</time>
      </trkpt>
      <trkpt lat="43.10692" lon="0.12862">
        <ele>465</ele>
        <time>2021-08-10T10:19:40.000Z</time>
      </trkpt>
      <trkpt lat="43.10699" lon="0.12855">
        <ele>465</ele>
        <time>2021-08-10T10:19:41.000Z</time>
      </trkpt>
      <trkpt lat="43.10705" lon="0.12849">
        <ele>465</ele>
        <time>2021-08-10T10:19:42.000Z</time>
      </trkpt>
      <trkpt lat="43.10711" lon="0.12842">
        <ele>465</ele>
        <time>2021-08-10T10:19:43.000Z</time>
      </trkpt>
      <trkpt lat="43.10716" lon="0.12836">
        <ele>465</ele>
        <time>2021-08-10T10:19:44.000Z</time>
      </trkpt>
      <trkpt lat="43.10723" lon="0.12828">
        <ele>465</ele>
        <time>2021-08-10T10:19:45.000Z</time>
      </trkpt>
      <trkpt lat="43.10728" lon="0.12823">
        <ele>465</ele>
        <time>2021-08-10T10:19:46.000Z</time>
      </trkpt>
      <trkpt lat="43.10732" lon="0.12818">
        <ele>465</ele>
        <time>2021-08-10T10:19:47.000Z</time>
      </trkpt>
      <trkpt lat="43.10738" lon="0.12811">
        <ele>465</ele>
        <time>2021-08-10T10:19:48.000Z</time>
      </trkpt>
      <trkpt lat="43.10744" lon="0.12804">
        <ele>465</ele>
        <time>2021-08-10T10:19:49.000Z</time>
      </trkpt>
      <trkpt lat="43.1075" lon="0.12797">
        <ele>465</ele>
        <time>2021-08-10T10:19:50.000Z</time>
      </trkpt>
      <trkpt lat="43.10756" lon="0.12791">
        <ele>465</ele>
        <time>2021-08-10T10:19:51.000Z</time>
      </trkpt>
      <trkpt lat="43.10763" lon="0.12783">
        <ele>465</ele>
        <time>2021-08-10T10:19:52.000Z</time>
      </trkpt>
      <trkpt lat="43.1077" lon="0.12776">
        <ele>465</ele>
        <time>2021-08-10T10:19:53.000Z</time>
      </trkpt>
      <trkpt lat="43.10774" lon="0.12771">
        <ele>465</ele>
        <time>2021-08-10T10:19:54.000Z</time>
      </trkpt>
      <trkpt lat="43.10779" lon="0.12766">
        <ele>465</ele>
        <time>2021-08-10T10:19:55.000Z</time>
      </trkpt>
      <trkpt lat="43.10786" lon="0.12759">
        <ele>465</ele>
        <time>2021-08-10T10:19:56.000Z</time>
      </trkpt>
      <trkpt lat="43.10791" lon="0.12753">
        <ele>465</ele>
        <time>2021-08-10T10:19:57.000Z</time>
      </trkpt>
      <trkpt lat="43.10797" lon="0.12746">
        <ele>465</ele>
        <time>2021-08-10T10:19:58.000Z</time>
      </trkpt>
      <trkpt lat="43.10803" lon="0.12741">
        <ele>465</ele>
        <time>2021-08-10T10:19:59.000Z</time>
      </trkpt>
      <trkpt lat="43.10807" lon="0.12735">
        <ele>465</ele>
        <time>2021-08-10T10:20:0.000Z</time>
      </trkpt>
      <trkpt lat="43.10812" lon="0.12729">
        <ele>465</ele>
        <time>2021-08-10T10:20:1.000Z</time>
      </trkpt>
      <trkpt lat="43.10818" lon="0.12724">
        <ele>465</ele>
        <time>2021-08-10T10:20:2.000Z</time>
      </trkpt>
      <trkpt lat="43.10822" lon="0.12718">
        <ele>465</ele>
        <time>2021-08-10T10:20:3.000Z</time>
      </trkpt>
      <trkpt lat="43.10828" lon="0.12713">
        <ele>465</ele>
        <time>2021-08-10T10:20:4.000Z</time>
      </trkpt>
      <trkpt lat="43.10833" lon="0.12707">
        <ele>465</ele>
        <time>2021-08-10T10:20:5.000Z</time>
      </trkpt>
      <trkpt lat="43.10839" lon="0.12701">
        <ele>465</ele>
        <time>2021-08-10T10:20:6.000Z</time>
      </trkpt>
      <trkpt lat="43.10844" lon="0.12694">
        <ele>465</ele>
        <time>2021-08-10T10:20:7.000Z</time>
      </trkpt>
      <trkpt lat="43.1085" lon="0.12688">
        <ele>465</ele>
        <time>2021-08-10T10:20:8.000Z</time>
      </trkpt>
      <trkpt lat="43.10856" lon="0.12682">
        <ele>465</ele>
        <time>2021-08-10T10:20:9.000Z</time>
      </trkpt>
      <trkpt lat="43.10861" lon="0.12676">
        <ele>465</ele>
        <time>2021-08-10T10:20:10.000Z</time>
      </trkpt>
      <trkpt lat="43.10868" lon="0.12669">
        <ele>465</ele>
        <time>2021-08-10T10:20:11.000Z</time>
      </trkpt>
      <trkpt lat="43.10872" lon="0.12664">
        <ele>464</ele>
        <time>2021-08-10T10:20:12.000Z</time>
      </trkpt>
      <trkpt lat="43.10878" lon="0.12658">
        <ele>464</ele>
        <time>2021-08-10T10:20:13.000Z</time>
      </trkpt>
      <trkpt lat="43.10883" lon="0.12651">
        <ele>464</ele>
        <time>2021-08-10T10:20:14.000Z</time>
      </trkpt>
      <trkpt lat="43.10889" lon="0.12645">
        <ele>464</ele>
        <time>2021-08-10T10:20:15.000Z</time>
      </trkpt>
      <trkpt lat="43.10895" lon="0.12638">
        <ele>464</ele>
        <time>2021-08-10T10:20:16.000Z</time>
      </trkpt>
      <trkpt lat="43.109" lon="0.12632">
        <ele>463</ele>
        <time>2021-08-10T10:20:17.000Z</time>
      </trkpt>
      <trkpt lat="43.10906" lon="0.12626">
        <ele>463</ele>
        <time>2021-08-10T10:20:18.000Z</time>
      </trkpt>
      <trkpt lat="43.10911" lon="0.1262">
        <ele>463</ele>
        <time>2021-08-10T10:20:19.000Z</time>
      </trkpt>
      <trkpt lat="43.10917" lon="0.12614">
        <ele>463</ele>
        <time>2021-08-10T10:20:20.000Z</time>
      </trkpt>
      <trkpt lat="43.10922" lon="0.12608">
        <ele>463</ele>
        <time>2021-08-10T10:20:21.000Z</time>
      </trkpt>
      <trkpt lat="43.10928" lon="0.12601">
        <ele>463</ele>
        <time>2021-08-10T10:20:22.000Z</time>
      </trkpt>
      <trkpt lat="43.10934" lon="0.12595">
        <ele>463</ele>
        <time>2021-08-10T10:20:23.000Z</time>
      </trkpt>
      <trkpt lat="43.10939" lon="0.12589">
        <ele>463</ele>
        <time>2021-08-10T10:20:24.000Z</time>
      </trkpt>
      <trkpt lat="43.10945" lon="0.12583">
        <ele>463</ele>
        <time>2021-08-10T10:20:25.000Z</time>
      </trkpt>
      <trkpt lat="43.10951" lon="0.12576">
        <ele>463</ele>
        <time>2021-08-10T10:20:26.000Z</time>
      </trkpt>
      <trkpt lat="43.10955" lon="0.12571">
        <ele>462</ele>
        <time>2021-08-10T10:20:27.000Z</time>
      </trkpt>
      <trkpt lat="43.10963" lon="0.12562">
        <ele>462</ele>
        <time>2021-08-10T10:20:28.000Z</time>
      </trkpt>
      <trkpt lat="43.10968" lon="0.12556">
        <ele>462</ele>
        <time>2021-08-10T10:20:29.000Z</time>
      </trkpt>
      <trkpt lat="43.10975" lon="0.1255">
        <ele>462</ele>
        <time>2021-08-10T10:20:30.000Z</time>
      </trkpt>
      <trkpt lat="43.1098" lon="0.12544">
        <ele>462</ele>
        <time>2021-08-10T10:20:31.000Z</time>
      </trkpt>
      <trkpt lat="43.10986" lon="0.12537">
        <ele>461</ele>
        <time>2021-08-10T10:20:32.000Z</time>
      </trkpt>
      <trkpt lat="43.10991" lon="0.12531">
        <ele>461</ele>
        <time>2021-08-10T10:20:33.000Z</time>
      </trkpt>
      <trkpt lat="43.10997" lon="0.12525">
        <ele>461</ele>
        <time>2021-08-10T10:20:34.000Z</time>
      </trkpt>
      <trkpt lat="43.11003" lon="0.12519">
        <ele>461</ele>
        <time>2021-08-10T10:20:35.000Z</time>
      </trkpt>
      <trkpt lat="43.11008" lon="0.12512">
        <ele>461</ele>
        <time>2021-08-10T10:20:36.000Z</time>
      </trkpt>
      <trkpt lat="43.11014" lon="0.12506">
        <ele>461</ele>
        <time>2021-08-10T10:20:37.000Z</time>
      </trkpt>
      <trkpt lat="43.1102" lon="0.125">
        <ele>461</ele>
        <time>2021-08-10T10:20:38.000Z</time>
      </trkpt>
      <trkpt lat="43.11025" lon="0.12493">
        <ele>460</ele>
        <time>2021-08-10T10:20:39.000Z</time>
      </trkpt>
      <trkpt lat="43.11032" lon="0.12486">
        <ele>460</ele>
        <time>2021-08-10T10:20:40.000Z</time>
      </trkpt>
      <trkpt lat="43.11039" lon="0.12478">
        <ele>460</ele>
        <time>2021-08-10T10:20:41.000Z</time>
      </trkpt>
      <trkpt lat="43.11045" lon="0.12472">
        <ele>460</ele>
        <time>2021-08-10T10:20:42.000Z</time>
      </trkpt>
      <trkpt lat="43.11051" lon="0.12466">
        <ele>460</ele>
        <time>2021-08-10T10:20:43.000Z</time>
      </trkpt>
      <trkpt lat="43.11057" lon="0.12459">
        <ele>460</ele>
        <time>2021-08-10T10:20:44.000Z</time>
      </trkpt>
      <trkpt lat="43.11063" lon="0.12453">
        <ele>459</ele>
        <time>2021-08-10T10:20:45.000Z</time>
      </trkpt>
      <trkpt lat="43.11069" lon="0.12445">
        <ele>459</ele>
        <time>2021-08-10T10:20:46.000Z</time>
      </trkpt>
      <trkpt lat="43.11075" lon="0.1244">
        <ele>459</ele>
        <time>2021-08-10T10:20:47.000Z</time>
      </trkpt>
      <trkpt lat="43.11081" lon="0.12434">
        <ele>459</ele>
        <time>2021-08-10T10:20:48.000Z</time>
      </trkpt>
      <trkpt lat="43.11087" lon="0.12427">
        <ele>459</ele>
        <time>2021-08-10T10:20:49.000Z</time>
      </trkpt>
      <trkpt lat="43.11093" lon="0.12421">
        <ele>459</ele>
        <time>2021-08-10T10:20:50.000Z</time>
      </trkpt>
      <trkpt lat="43.111" lon="0.12414">
        <ele>459</ele>
        <time>2021-08-10T10:20:51.000Z</time>
      </trkpt>
      <trkpt lat="43.11106" lon="0.12408">
        <ele>459</ele>
        <time>2021-08-10T10:20:52.000Z</time>
      </trkpt>
      <trkpt lat="43.11112" lon="0.12401">
        <ele>459</ele>
        <time>2021-08-10T10:20:53.000Z</time>
      </trkpt>
      <trkpt lat="43.11119" lon="0.12394">
        <ele>459</ele>
        <time>2021-08-10T10:20:54.000Z</time>
      </trkpt>
      <trkpt lat="43.11125" lon="0.12388">
        <ele>459</ele>
        <time>2021-08-10T10:20:55.000Z</time>
      </trkpt>
      <trkpt lat="43.11131" lon="0.12382">
        <ele>459</ele>
        <time>2021-08-10T10:20:56.000Z</time>
      </trkpt>
      <trkpt lat="43.11137" lon="0.12375">
        <ele>458</ele>
        <time>2021-08-10T10:20:57.000Z</time>
      </trkpt>
      <trkpt lat="43.11144" lon="0.1237">
        <ele>458</ele>
        <time>2021-08-10T10:20:58.000Z</time>
      </trkpt>
      <trkpt lat="43.11149" lon="0.12363">
        <ele>458</ele>
        <time>2021-08-10T10:20:59.000Z</time>
      </trkpt>
      <trkpt lat="43.11155" lon="0.12357">
        <ele>458</ele>
        <time>2021-08-10T10:21:0.000Z</time>
      </trkpt>
      <trkpt lat="43.11161" lon="0.12351">
        <ele>458</ele>
        <time>2021-08-10T10:21:1.000Z</time>
      </trkpt>
      <trkpt lat="43.11168" lon="0.12344">
        <ele>458</ele>
        <time>2021-08-10T10:21:2.000Z</time>
      </trkpt>
      <trkpt lat="43.11173" lon="0.12339">
        <ele>457</ele>
        <time>2021-08-10T10:21:3.000Z</time>
      </trkpt>
      <trkpt lat="43.11179" lon="0.12332">
        <ele>457</ele>
        <time>2021-08-10T10:21:4.000Z</time>
      </trkpt>
      <trkpt lat="43.11185" lon="0.12326">
        <ele>457</ele>
        <time>2021-08-10T10:21:5.000Z</time>
      </trkpt>
      <trkpt lat="43.1119" lon="0.1232">
        <ele>457</ele>
        <time>2021-08-10T10:21:6.000Z</time>
      </trkpt>
      <trkpt lat="43.11196" lon="0.12314">
        <ele>457</ele>
        <time>2021-08-10T10:21:7.000Z</time>
      </trkpt>
      <trkpt lat="43.11202" lon="0.12308">
        <ele>457</ele>
        <time>2021-08-10T10:21:8.000Z</time>
      </trkpt>
      <trkpt lat="43.11208" lon="0.12301">
        <ele>457</ele>
        <time>2021-08-10T10:21:9.000Z</time>
      </trkpt>
      <trkpt lat="43.11215" lon="0.12293">
        <ele>457</ele>
        <time>2021-08-10T10:21:10.000Z</time>
      </trkpt>
      <trkpt lat="43.11221" lon="0.12288">
        <ele>457</ele>
        <time>2021-08-10T10:21:11.000Z</time>
      </trkpt>
      <trkpt lat="43.11227" lon="0.12282">
        <ele>457</ele>
        <time>2021-08-10T10:21:12.000Z</time>
      </trkpt>
      <trkpt lat="43.11232" lon="0.12276">
        <ele>457</ele>
        <time>2021-08-10T10:21:13.000Z</time>
      </trkpt>
      <trkpt lat="43.11239" lon="0.1227">
        <ele>457</ele>
        <time>2021-08-10T10:21:14.000Z</time>
      </trkpt>
      <trkpt lat="43.11245" lon="0.12263">
        <ele>457</ele>
        <time>2021-08-10T10:21:15.000Z</time>
      </trkpt>
      <trkpt lat="43.11251" lon="0.12257">
        <ele>457</ele>
        <time>2021-08-10T10:21:16.000Z</time>
      </trkpt>
      <trkpt lat="43.11257" lon="0.12251">
        <ele>456</ele>
        <time>2021-08-10T10:21:17.000Z</time>
      </trkpt>
      <trkpt lat="43.11263" lon="0.12246">
        <ele>456</ele>
        <time>2021-08-10T10:21:18.000Z</time>
      </trkpt>
      <trkpt lat="43.11269" lon="0.12239">
        <ele>456</ele>
        <time>2021-08-10T10:21:19.000Z</time>
      </trkpt>
      <trkpt lat="43.11275" lon="0.12234">
        <ele>456</ele>
        <time>2021-08-10T10:21:20.000Z</time>
      </trkpt>
      <trkpt lat="43.11281" lon="0.12228">
        <ele>456</ele>
        <time>2021-08-10T10:21:21.000Z</time>
      </trkpt>
      <trkpt lat="43.11287" lon="0.12223">
        <ele>456</ele>
        <time>2021-08-10T10:21:22.000Z</time>
      </trkpt>
      <trkpt lat="43.11293" lon="0.12217">
        <ele>456</ele>
        <time>2021-08-10T10:21:23.000Z</time>
      </trkpt>
      <trkpt lat="43.11299" lon="0.12212">
        <ele>455</ele>
        <time>2021-08-10T10:21:24.000Z</time>
      </trkpt>
      <trkpt lat="43.11305" lon="0.12206">
        <ele>455</ele>
        <time>2021-08-10T10:21:25.000Z</time>
      </trkpt>
      <trkpt lat="43.11311" lon="0.12201">
        <ele>455</ele>
        <time>2021-08-10T10:21:26.000Z</time>
      </trkpt>
      <trkpt lat="43.11316" lon="0.12195">
        <ele>455</ele>
        <time>2021-08-10T10:21:27.000Z</time>
      </trkpt>
      <trkpt lat="43.11323" lon="0.1219">
        <ele>455</ele>
        <time>2021-08-10T10:21:28.000Z</time>
      </trkpt>
      <trkpt lat="43.11329" lon="0.12184">
        <ele>455</ele>
        <time>2021-08-10T10:21:29.000Z</time>
      </trkpt>
      <trkpt lat="43.11334" lon="0.12179">
        <ele>455</ele>
        <time>2021-08-10T10:21:30.000Z</time>
      </trkpt>
      <trkpt lat="43.11341" lon="0.12173">
        <ele>455</ele>
        <time>2021-08-10T10:21:31.000Z</time>
      </trkpt>
      <trkpt lat="43.11348" lon="0.12166">
        <ele>455</ele>
        <time>2021-08-10T10:21:32.000Z</time>
      </trkpt>
      <trkpt lat="43.11353" lon="0.12162">
        <ele>455</ele>
        <time>2021-08-10T10:21:33.000Z</time>
      </trkpt>
      <trkpt lat="43.11358" lon="0.12157">
        <ele>455</ele>
        <time>2021-08-10T10:21:34.000Z</time>
      </trkpt>
      <trkpt lat="43.11364" lon="0.12152">
        <ele>455</ele>
        <time>2021-08-10T10:21:35.000Z</time>
      </trkpt>
      <trkpt lat="43.1137" lon="0.12146">
        <ele>455</ele>
        <time>2021-08-10T10:21:36.000Z</time>
      </trkpt>
      <trkpt lat="43.11377" lon="0.1214">
        <ele>454</ele>
        <time>2021-08-10T10:21:37.000Z</time>
      </trkpt>
      <trkpt lat="43.11384" lon="0.12134">
        <ele>454</ele>
        <time>2021-08-10T10:21:38.000Z</time>
      </trkpt>
      <trkpt lat="43.11391" lon="0.12128">
        <ele>454</ele>
        <time>2021-08-10T10:21:39.000Z</time>
      </trkpt>
      <trkpt lat="43.11398" lon="0.12122">
        <ele>454</ele>
        <time>2021-08-10T10:21:40.000Z</time>
      </trkpt>
      <trkpt lat="43.11405" lon="0.12116">
        <ele>454</ele>
        <time>2021-08-10T10:21:41.000Z</time>
      </trkpt>
      <trkpt lat="43.11412" lon="0.12111">
        <ele>454</ele>
        <time>2021-08-10T10:21:42.000Z</time>
      </trkpt>
      <trkpt lat="43.11419" lon="0.12106">
        <ele>454</ele>
        <time>2021-08-10T10:21:43.000Z</time>
      </trkpt>
      <trkpt lat="43.11425" lon="0.121">
        <ele>454</ele>
        <time>2021-08-10T10:21:44.000Z</time>
      </trkpt>
      <trkpt lat="43.11433" lon="0.12096">
        <ele>454</ele>
        <time>2021-08-10T10:21:45.000Z</time>
      </trkpt>
      <trkpt lat="43.1144" lon="0.12091">
        <ele>454</ele>
        <time>2021-08-10T10:21:46.000Z</time>
      </trkpt>
      <trkpt lat="43.11448" lon="0.12085">
        <ele>454</ele>
        <time>2021-08-10T10:21:47.000Z</time>
      </trkpt>
      <trkpt lat="43.11455" lon="0.12081">
        <ele>454</ele>
        <time>2021-08-10T10:21:48.000Z</time>
      </trkpt>
      <trkpt lat="43.11462" lon="0.12076">
        <ele>453</ele>
        <time>2021-08-10T10:21:49.000Z</time>
      </trkpt>
      <trkpt lat="43.1147" lon="0.12072">
        <ele>453</ele>
        <time>2021-08-10T10:21:50.000Z</time>
      </trkpt>
      <trkpt lat="43.11477" lon="0.12067">
        <ele>453</ele>
        <time>2021-08-10T10:21:51.000Z</time>
      </trkpt>
      <trkpt lat="43.11485" lon="0.12064">
        <ele>453</ele>
        <time>2021-08-10T10:21:52.000Z</time>
      </trkpt>
      <trkpt lat="43.11491" lon="0.1206">
        <ele>453</ele>
        <time>2021-08-10T10:21:53.000Z</time>
      </trkpt>
      <trkpt lat="43.11499" lon="0.12057">
        <ele>453</ele>
        <time>2021-08-10T10:21:54.000Z</time>
      </trkpt>
      <trkpt lat="43.11506" lon="0.12053">
        <ele>452</ele>
        <time>2021-08-10T10:21:55.000Z</time>
      </trkpt>
      <trkpt lat="43.11513" lon="0.1205">
        <ele>452</ele>
        <time>2021-08-10T10:21:56.000Z</time>
      </trkpt>
      <trkpt lat="43.11519" lon="0.12048">
        <ele>452</ele>
        <time>2021-08-10T10:21:57.000Z</time>
      </trkpt>
      <trkpt lat="43.11527" lon="0.12044">
        <ele>452</ele>
        <time>2021-08-10T10:21:58.000Z</time>
      </trkpt>
      <trkpt lat="43.11536" lon="0.12041">
        <ele>452</ele>
        <time>2021-08-10T10:21:59.000Z</time>
      </trkpt>
      <trkpt lat="43.11542" lon="0.12039">
        <ele>452</ele>
        <time>2021-08-10T10:22:0.000Z</time>
      </trkpt>
      <trkpt lat="43.11547" lon="0.12038">
        <ele>452</ele>
        <time>2021-08-10T10:22:1.000Z</time>
      </trkpt>
      <trkpt lat="43.11554" lon="0.12035">
        <ele>452</ele>
        <time>2021-08-10T10:22:2.000Z</time>
      </trkpt>
      <trkpt lat="43.11561" lon="0.12033">
        <ele>452</ele>
        <time>2021-08-10T10:22:3.000Z</time>
      </trkpt>
      <trkpt lat="43.11568" lon="0.12031">
        <ele>452</ele>
        <time>2021-08-10T10:22:4.000Z</time>
      </trkpt>
      <trkpt lat="43.11575" lon="0.12028">
        <ele>452</ele>
        <time>2021-08-10T10:22:5.000Z</time>
      </trkpt>
      <trkpt lat="43.11581" lon="0.12026">
        <ele>452</ele>
        <time>2021-08-10T10:22:6.000Z</time>
      </trkpt>
      <trkpt lat="43.11588" lon="0.12024">
        <ele>452</ele>
        <time>2021-08-10T10:22:7.000Z</time>
      </trkpt>
      <trkpt lat="43.11596" lon="0.12021">
        <ele>452</ele>
        <time>2021-08-10T10:22:8.000Z</time>
      </trkpt>
      <trkpt lat="43.11604" lon="0.12019">
        <ele>452</ele>
        <time>2021-08-10T10:22:9.000Z</time>
      </trkpt>
      <trkpt lat="43.11611" lon="0.12017">
        <ele>452</ele>
        <time>2021-08-10T10:22:10.000Z</time>
      </trkpt>
      <trkpt lat="43.11618" lon="0.12015">
        <ele>452</ele>
        <time>2021-08-10T10:22:11.000Z</time>
      </trkpt>
      <trkpt lat="43.11625" lon="0.12013">
        <ele>452</ele>
        <time>2021-08-10T10:22:12.000Z</time>
      </trkpt>
      <trkpt lat="43.11633" lon="0.12011">
        <ele>451</ele>
        <time>2021-08-10T10:22:13.000Z</time>
      </trkpt>
      <trkpt lat="43.11639" lon="0.1201">
        <ele>451</ele>
        <time>2021-08-10T10:22:14.000Z</time>
      </trkpt>
      <trkpt lat="43.11646" lon="0.12008">
        <ele>451</ele>
        <time>2021-08-10T10:22:15.000Z</time>
      </trkpt>
      <trkpt lat="43.11654" lon="0.12006">
        <ele>451</ele>
        <time>2021-08-10T10:22:16.000Z</time>
      </trkpt>
      <trkpt lat="43.1166" lon="0.12004">
        <ele>451</ele>
        <time>2021-08-10T10:22:17.000Z</time>
      </trkpt>
      <trkpt lat="43.11667" lon="0.12003">
        <ele>451</ele>
        <time>2021-08-10T10:22:18.000Z</time>
      </trkpt>
      <trkpt lat="43.11675" lon="0.12001">
        <ele>451</ele>
        <time>2021-08-10T10:22:19.000Z</time>
      </trkpt>
      <trkpt lat="43.11684" lon="0.11998">
        <ele>451</ele>
        <time>2021-08-10T10:22:21.000Z</time>
      </trkpt>
      <trkpt lat="43.11693" lon="0.11995">
        <ele>450</ele>
        <time>2021-08-10T10:22:22.000Z</time>
      </trkpt>
      <trkpt lat="43.117" lon="0.11993">
        <ele>450</ele>
        <time>2021-08-10T10:22:23.000Z</time>
      </trkpt>
      <trkpt lat="43.1171" lon="0.1199">
        <ele>450</ele>
        <time>2021-08-10T10:22:24.000Z</time>
      </trkpt>
      <trkpt lat="43.11718" lon="0.11988">
        <ele>450</ele>
        <time>2021-08-10T10:22:25.000Z</time>
      </trkpt>
      <trkpt lat="43.11725" lon="0.11986">
        <ele>450</ele>
        <time>2021-08-10T10:22:26.000Z</time>
      </trkpt>
      <trkpt lat="43.11732" lon="0.11983">
        <ele>450</ele>
        <time>2021-08-10T10:22:27.000Z</time>
      </trkpt>
      <trkpt lat="43.1174" lon="0.11981">
        <ele>450</ele>
        <time>2021-08-10T10:22:28.000Z</time>
      </trkpt>
      <trkpt lat="43.11748" lon="0.11979">
        <ele>450</ele>
        <time>2021-08-10T10:22:29.000Z</time>
      </trkpt>
      <trkpt lat="43.11754" lon="0.11977">
        <ele>450</ele>
        <time>2021-08-10T10:22:30.000Z</time>
      </trkpt>
      <trkpt lat="43.11763" lon="0.11973">
        <ele>450</ele>
        <time>2021-08-10T10:22:31.000Z</time>
      </trkpt>
      <trkpt lat="43.11768" lon="0.11973">
        <ele>450</ele>
        <time>2021-08-10T10:22:32.000Z</time>
      </trkpt>
      <trkpt lat="43.11776" lon="0.1197">
        <ele>450</ele>
        <time>2021-08-10T10:22:33.000Z</time>
      </trkpt>
      <trkpt lat="43.11783" lon="0.11968">
        <ele>449</ele>
        <time>2021-08-10T10:22:34.000Z</time>
      </trkpt>
      <trkpt lat="43.11791" lon="0.11965">
        <ele>449</ele>
        <time>2021-08-10T10:22:35.000Z</time>
      </trkpt>
      <trkpt lat="43.11798" lon="0.11962">
        <ele>449</ele>
        <time>2021-08-10T10:22:36.000Z</time>
      </trkpt>
      <trkpt lat="43.11806" lon="0.11959">
        <ele>449</ele>
        <time>2021-08-10T10:22:37.000Z</time>
      </trkpt>
      <trkpt lat="43.11813" lon="0.11956">
        <ele>448</ele>
        <time>2021-08-10T10:22:38.000Z</time>
      </trkpt>
      <trkpt lat="43.1182" lon="0.11953">
        <ele>448</ele>
        <time>2021-08-10T10:22:39.000Z</time>
      </trkpt>
      <trkpt lat="43.11826" lon="0.11951">
        <ele>448</ele>
        <time>2021-08-10T10:22:40.000Z</time>
      </trkpt>
      <trkpt lat="43.11832" lon="0.11948">
        <ele>448</ele>
        <time>2021-08-10T10:22:41.000Z</time>
      </trkpt>
      <trkpt lat="43.11839" lon="0.11946">
        <ele>448</ele>
        <time>2021-08-10T10:22:42.000Z</time>
      </trkpt>
      <trkpt lat="43.11847" lon="0.11944">
        <ele>448</ele>
        <time>2021-08-10T10:22:43.000Z</time>
      </trkpt>
      <trkpt lat="43.11853" lon="0.11941">
        <ele>448</ele>
        <time>2021-08-10T10:22:44.000Z</time>
      </trkpt>
      <trkpt lat="43.11861" lon="0.11938">
        <ele>448</ele>
        <time>2021-08-10T10:22:45.000Z</time>
      </trkpt>
      <trkpt lat="43.11867" lon="0.11936">
        <ele>448</ele>
        <time>2021-08-10T10:22:46.000Z</time>
      </trkpt>
      <trkpt lat="43.11874" lon="0.11933">
        <ele>448</ele>
        <time>2021-08-10T10:22:47.000Z</time>
      </trkpt>
      <trkpt lat="43.11882" lon="0.1193">
        <ele>448</ele>
        <time>2021-08-10T10:22:48.000Z</time>
      </trkpt>
      <trkpt lat="43.1189" lon="0.11927">
        <ele>448</ele>
        <time>2021-08-10T10:22:49.000Z</time>
      </trkpt>
      <trkpt lat="43.11897" lon="0.11925">
        <ele>447</ele>
        <time>2021-08-10T10:22:50.000Z</time>
      </trkpt>
      <trkpt lat="43.11904" lon="0.11922">
        <ele>447</ele>
        <time>2021-08-10T10:22:51.000Z</time>
      </trkpt>
      <trkpt lat="43.11911" lon="0.11919">
        <ele>447</ele>
        <time>2021-08-10T10:22:52.000Z</time>
      </trkpt>
      <trkpt lat="43.11919" lon="0.11916">
        <ele>447</ele>
        <time>2021-08-10T10:22:53.000Z</time>
      </trkpt>
      <trkpt lat="43.11926" lon="0.11914">
        <ele>447</ele>
        <time>2021-08-10T10:22:54.000Z</time>
      </trkpt>
      <trkpt lat="43.11934" lon="0.11911">
        <ele>447</ele>
        <time>2021-08-10T10:22:55.000Z</time>
      </trkpt>
      <trkpt lat="43.11941" lon="0.11908">
        <ele>446</ele>
        <time>2021-08-10T10:22:56.000Z</time>
      </trkpt>
      <trkpt lat="43.11948" lon="0.11905">
        <ele>446</ele>
        <time>2021-08-10T10:22:57.000Z</time>
      </trkpt>
      <trkpt lat="43.11956" lon="0.11902">
        <ele>446</ele>
        <time>2021-08-10T10:22:57.000Z</time>
      </trkpt>
      <trkpt lat="43.11963" lon="0.119">
        <ele>446</ele>
        <time>2021-08-10T10:22:58.000Z</time>
      </trkpt>
      <trkpt lat="43.11971" lon="0.11897">
        <ele>446</ele>
        <time>2021-08-10T10:22:59.000Z</time>
      </trkpt>
      <trkpt lat="43.11979" lon="0.11894">
        <ele>446</ele>
        <time>2021-08-10T10:23:0.000Z</time>
      </trkpt>
      <trkpt lat="43.11986" lon="0.11891">
        <ele>446</ele>
        <time>2021-08-10T10:23:1.000Z</time>
      </trkpt>
      <trkpt lat="43.11993" lon="0.11888">
        <ele>446</ele>
        <time>2021-08-10T10:23:2.000Z</time>
      </trkpt>
      <trkpt lat="43.12001" lon="0.11886">
        <ele>446</ele>
        <time>2021-08-10T10:23:3.000Z</time>
      </trkpt>
      <trkpt lat="43.12008" lon="0.11884">
        <ele>446</ele>
        <time>2021-08-10T10:23:4.000Z</time>
      </trkpt>
      <trkpt lat="43.12015" lon="0.11881">
        <ele>445</ele>
        <time>2021-08-10T10:23:5.000Z</time>
      </trkpt>
      <trkpt lat="43.12022" lon="0.11878">
        <ele>445</ele>
        <time>2021-08-10T10:23:6.000Z</time>
      </trkpt>
      <trkpt lat="43.12029" lon="0.11875">
        <ele>445</ele>
        <time>2021-08-10T10:23:7.000Z</time>
      </trkpt>
      <trkpt lat="43.12037" lon="0.11873">
        <ele>445</ele>
        <time>2021-08-10T10:23:8.000Z</time>
      </trkpt>
      <trkpt lat="43.12043" lon="0.1187">
        <ele>445</ele>
        <time>2021-08-10T10:23:9.000Z</time>
      </trkpt>
      <trkpt lat="43.12052" lon="0.11866">
        <ele>445</ele>
        <time>2021-08-10T10:23:10.000Z</time>
      </trkpt>
      <trkpt lat="43.12058" lon="0.11864">
        <ele>445</ele>
        <time>2021-08-10T10:23:11.000Z</time>
      </trkpt>
      <trkpt lat="43.12067" lon="0.1186">
        <ele>445</ele>
        <time>2021-08-10T10:23:12.000Z</time>
      </trkpt>
      <trkpt lat="43.12073" lon="0.11858">
        <ele>445</ele>
        <time>2021-08-10T10:23:13.000Z</time>
      </trkpt>
      <trkpt lat="43.1208" lon="0.11855">
        <ele>445</ele>
        <time>2021-08-10T10:23:14.000Z</time>
      </trkpt>
      <trkpt lat="43.12088" lon="0.11852">
        <ele>445</ele>
        <time>2021-08-10T10:23:15.000Z</time>
      </trkpt>
      <trkpt lat="43.12095" lon="0.11849">
        <ele>445</ele>
        <time>2021-08-10T10:23:16.000Z</time>
      </trkpt>
      <trkpt lat="43.12102" lon="0.11846">
        <ele>445</ele>
        <time>2021-08-10T10:23:17.000Z</time>
      </trkpt>
      <trkpt lat="43.1211" lon="0.11844">
        <ele>444</ele>
        <time>2021-08-10T10:23:18.000Z</time>
      </trkpt>
      <trkpt lat="43.12116" lon="0.11841">
        <ele>444</ele>
        <time>2021-08-10T10:23:19.000Z</time>
      </trkpt>
      <trkpt lat="43.12122" lon="0.11839">
        <ele>444</ele>
        <time>2021-08-10T10:23:20.000Z</time>
      </trkpt>
      <trkpt lat="43.1213" lon="0.11836">
        <ele>444</ele>
        <time>2021-08-10T10:23:21.000Z</time>
      </trkpt>
      <trkpt lat="43.12138" lon="0.11833">
        <ele>444</ele>
        <time>2021-08-10T10:23:22.000Z</time>
      </trkpt>
      <trkpt lat="43.12145" lon="0.1183">
        <ele>443</ele>
        <time>2021-08-10T10:23:23.000Z</time>
      </trkpt>
      <trkpt lat="43.12152" lon="0.11828">
        <ele>443</ele>
        <time>2021-08-10T10:23:24.000Z</time>
      </trkpt>
      <trkpt lat="43.12158" lon="0.11825">
        <ele>442</ele>
        <time>2021-08-10T10:23:25.000Z</time>
      </trkpt>
      <trkpt lat="43.12166" lon="0.11823">
        <ele>442</ele>
        <time>2021-08-10T10:23:26.000Z</time>
      </trkpt>
      <trkpt lat="43.12172" lon="0.1182">
        <ele>441</ele>
        <time>2021-08-10T10:23:27.000Z</time>
      </trkpt>
      <trkpt lat="43.12179" lon="0.11817">
        <ele>441</ele>
        <time>2021-08-10T10:23:28.000Z</time>
      </trkpt>
      <trkpt lat="43.12186" lon="0.11815">
        <ele>441</ele>
        <time>2021-08-10T10:23:29.000Z</time>
      </trkpt>
      <trkpt lat="43.12193" lon="0.11811">
        <ele>441</ele>
        <time>2021-08-10T10:23:30.000Z</time>
      </trkpt>
      <trkpt lat="43.122" lon="0.11809">
        <ele>440</ele>
        <time>2021-08-10T10:23:31.000Z</time>
      </trkpt>
      <trkpt lat="43.12207" lon="0.11806">
        <ele>440</ele>
        <time>2021-08-10T10:23:32.000Z</time>
      </trkpt>
      <trkpt lat="43.12214" lon="0.11803">
        <ele>440</ele>
        <time>2021-08-10T10:23:33.000Z</time>
      </trkpt>
      <trkpt lat="43.12221" lon="0.11801">
        <ele>440</ele>
        <time>2021-08-10T10:23:34.000Z</time>
      </trkpt>
      <trkpt lat="43.12228" lon="0.11798">
        <ele>440</ele>
        <time>2021-08-10T10:23:35.000Z</time>
      </trkpt>
      <trkpt lat="43.12235" lon="0.11795">
        <ele>440</ele>
        <time>2021-08-10T10:23:36.000Z</time>
      </trkpt>
      <trkpt lat="43.12242" lon="0.11793">
        <ele>440</ele>
        <time>2021-08-10T10:23:37.000Z</time>
      </trkpt>
      <trkpt lat="43.12249" lon="0.1179">
        <ele>440</ele>
        <time>2021-08-10T10:23:38.000Z</time>
      </trkpt>
      <trkpt lat="43.12257" lon="0.11787">
        <ele>440</ele>
        <time>2021-08-10T10:23:39.000Z</time>
      </trkpt>
      <trkpt lat="43.12264" lon="0.11785">
        <ele>439</ele>
        <time>2021-08-10T10:23:40.000Z</time>
      </trkpt>
      <trkpt lat="43.12271" lon="0.11782">
        <ele>439</ele>
        <time>2021-08-10T10:23:41.000Z</time>
      </trkpt>
      <trkpt lat="43.12278" lon="0.11779">
        <ele>439</ele>
        <time>2021-08-10T10:23:42.000Z</time>
      </trkpt>
      <trkpt lat="43.12285" lon="0.11777">
        <ele>439</ele>
        <time>2021-08-10T10:23:43.000Z</time>
      </trkpt>
      <trkpt lat="43.12292" lon="0.11775">
        <ele>439</ele>
        <time>2021-08-10T10:23:44.000Z</time>
      </trkpt>
      <trkpt lat="43.12299" lon="0.11772">
        <ele>439</ele>
        <time>2021-08-10T10:23:45.000Z</time>
      </trkpt>
      <trkpt lat="43.12307" lon="0.11769">
        <ele>439</ele>
        <time>2021-08-10T10:23:46.000Z</time>
      </trkpt>
      <trkpt lat="43.12311" lon="0.11767">
        <ele>439</ele>
        <time>2021-08-10T10:23:47.000Z</time>
      </trkpt>
      <trkpt lat="43.12322" lon="0.11763">
        <ele>438</ele>
        <time>2021-08-10T10:23:48.000Z</time>
      </trkpt>
      <trkpt lat="43.1233" lon="0.11759">
        <ele>438</ele>
        <time>2021-08-10T10:23:49.000Z</time>
      </trkpt>
      <trkpt lat="43.12338" lon="0.11756">
        <ele>438</ele>
        <time>2021-08-10T10:23:50.000Z</time>
      </trkpt>
      <trkpt lat="43.12345" lon="0.11753">
        <ele>438</ele>
        <time>2021-08-10T10:23:51.000Z</time>
      </trkpt>
      <trkpt lat="43.12351" lon="0.11751">
        <ele>438</ele>
        <time>2021-08-10T10:23:52.000Z</time>
      </trkpt>
      <trkpt lat="43.12357" lon="0.11748">
        <ele>438</ele>
        <time>2021-08-10T10:23:53.000Z</time>
      </trkpt>
      <trkpt lat="43.12363" lon="0.11746">
        <ele>438</ele>
        <time>2021-08-10T10:23:54.000Z</time>
      </trkpt>
      <trkpt lat="43.1237" lon="0.11743">
        <ele>438</ele>
        <time>2021-08-10T10:23:55.000Z</time>
      </trkpt>
      <trkpt lat="43.12377" lon="0.11741">
        <ele>438</ele>
        <time>2021-08-10T10:23:56.000Z</time>
      </trkpt>
      <trkpt lat="43.12384" lon="0.11738">
        <ele>438</ele>
        <time>2021-08-10T10:23:57.000Z</time>
      </trkpt>
      <trkpt lat="43.12391" lon="0.11735">
        <ele>438</ele>
        <time>2021-08-10T10:23:58.000Z</time>
      </trkpt>
      <trkpt lat="43.12398" lon="0.11732">
        <ele>438</ele>
        <time>2021-08-10T10:23:59.000Z</time>
      </trkpt>
      <trkpt lat="43.12405" lon="0.11729">
        <ele>438</ele>
        <time>2021-08-10T10:24:0.000Z</time>
      </trkpt>
      <trkpt lat="43.12412" lon="0.11726">
        <ele>438</ele>
        <time>2021-08-10T10:24:1.000Z</time>
      </trkpt>
      <trkpt lat="43.12419" lon="0.11724">
        <ele>438</ele>
        <time>2021-08-10T10:24:2.000Z</time>
      </trkpt>
      <trkpt lat="43.12426" lon="0.1172">
        <ele>438</ele>
        <time>2021-08-10T10:24:3.000Z</time>
      </trkpt>
      <trkpt lat="43.12432" lon="0.11718">
        <ele>438</ele>
        <time>2021-08-10T10:24:4.000Z</time>
      </trkpt>
      <trkpt lat="43.12439" lon="0.11714">
        <ele>438</ele>
        <time>2021-08-10T10:24:5.000Z</time>
      </trkpt>
      <trkpt lat="43.12446" lon="0.11711">
        <ele>438</ele>
        <time>2021-08-10T10:24:6.000Z</time>
      </trkpt>
      <trkpt lat="43.12453" lon="0.11708">
        <ele>438</ele>
        <time>2021-08-10T10:24:7.000Z</time>
      </trkpt>
      <trkpt lat="43.1246" lon="0.11705">
        <ele>438</ele>
        <time>2021-08-10T10:24:8.000Z</time>
      </trkpt>
      <trkpt lat="43.12467" lon="0.11702">
        <ele>438</ele>
        <time>2021-08-10T10:24:9.000Z</time>
      </trkpt>
      <trkpt lat="43.12474" lon="0.11699">
        <ele>438</ele>
        <time>2021-08-10T10:24:10.000Z</time>
      </trkpt>
      <trkpt lat="43.12481" lon="0.11696">
        <ele>438</ele>
        <time>2021-08-10T10:24:11.000Z</time>
      </trkpt>
      <trkpt lat="43.12487" lon="0.11693">
        <ele>438</ele>
        <time>2021-08-10T10:24:12.000Z</time>
      </trkpt>
      <trkpt lat="43.12495" lon="0.1169">
        <ele>438</ele>
        <time>2021-08-10T10:24:13.000Z</time>
      </trkpt>
      <trkpt lat="43.12501" lon="0.11687">
        <ele>438</ele>
        <time>2021-08-10T10:24:14.000Z</time>
      </trkpt>
      <trkpt lat="43.12508" lon="0.11684">
        <ele>438</ele>
        <time>2021-08-10T10:24:15.000Z</time>
      </trkpt>
      <trkpt lat="43.12516" lon="0.11681">
        <ele>438</ele>
        <time>2021-08-10T10:24:16.000Z</time>
      </trkpt>
      <trkpt lat="43.12523" lon="0.11679">
        <ele>438</ele>
        <time>2021-08-10T10:24:17.000Z</time>
      </trkpt>
      <trkpt lat="43.1253" lon="0.11675">
        <ele>438</ele>
        <time>2021-08-10T10:24:18.000Z</time>
      </trkpt>
      <trkpt lat="43.12537" lon="0.11672">
        <ele>437</ele>
        <time>2021-08-10T10:24:19.000Z</time>
      </trkpt>
      <trkpt lat="43.12544" lon="0.11669">
        <ele>437</ele>
        <time>2021-08-10T10:24:20.000Z</time>
      </trkpt>
      <trkpt lat="43.12551" lon="0.11667">
        <ele>437</ele>
        <time>2021-08-10T10:24:21.000Z</time>
      </trkpt>
      <trkpt lat="43.12558" lon="0.11664">
        <ele>437</ele>
        <time>2021-08-10T10:24:22.000Z</time>
      </trkpt>
      <trkpt lat="43.12565" lon="0.1166">
        <ele>437</ele>
        <time>2021-08-10T10:24:23.000Z</time>
      </trkpt>
      <trkpt lat="43.12571" lon="0.11658">
        <ele>437</ele>
        <time>2021-08-10T10:24:24.000Z</time>
      </trkpt>
      <trkpt lat="43.12579" lon="0.11655">
        <ele>437</ele>
        <time>2021-08-10T10:24:25.000Z</time>
      </trkpt>
      <trkpt lat="43.12585" lon="0.11652">
        <ele>437</ele>
        <time>2021-08-10T10:24:26.000Z</time>
      </trkpt>
      <trkpt lat="43.12592" lon="0.11649">
        <ele>436</ele>
        <time>2021-08-10T10:24:27.000Z</time>
      </trkpt>
      <trkpt lat="43.126" lon="0.11646">
        <ele>436</ele>
        <time>2021-08-10T10:24:28.000Z</time>
      </trkpt>
      <trkpt lat="43.12607" lon="0.11643">
        <ele>436</ele>
        <time>2021-08-10T10:24:29.000Z</time>
      </trkpt>
      <trkpt lat="43.12614" lon="0.11641">
        <ele>436</ele>
        <time>2021-08-10T10:24:30.000Z</time>
      </trkpt>
      <trkpt lat="43.12621" lon="0.11638">
        <ele>436</ele>
        <time>2021-08-10T10:24:31.000Z</time>
      </trkpt>
      <trkpt lat="43.12628" lon="0.11635">
        <ele>436</ele>
        <time>2021-08-10T10:24:32.000Z</time>
      </trkpt>
      <trkpt lat="43.12635" lon="0.11633">
        <ele>436</ele>
        <time>2021-08-10T10:24:33.000Z</time>
      </trkpt>
      <trkpt lat="43.12642" lon="0.1163">
        <ele>436</ele>
        <time>2021-08-10T10:24:34.000Z</time>
      </trkpt>
      <trkpt lat="43.12649" lon="0.11628">
        <ele>436</ele>
        <time>2021-08-10T10:24:35.000Z</time>
      </trkpt>
      <trkpt lat="43.12656" lon="0.11625">
        <ele>436</ele>
        <time>2021-08-10T10:24:36.000Z</time>
      </trkpt>
      <trkpt lat="43.12664" lon="0.11623">
        <ele>436</ele>
        <time>2021-08-10T10:24:37.000Z</time>
      </trkpt>
      <trkpt lat="43.1267" lon="0.1162">
        <ele>436</ele>
        <time>2021-08-10T10:24:38.000Z</time>
      </trkpt>
      <trkpt lat="43.12677" lon="0.11618">
        <ele>436</ele>
        <time>2021-08-10T10:24:39.000Z</time>
      </trkpt>
      <trkpt lat="43.12685" lon="0.11615">
        <ele>435</ele>
        <time>2021-08-10T10:24:40.000Z</time>
      </trkpt>
      <trkpt lat="43.12692" lon="0.11613">
        <ele>435</ele>
        <time>2021-08-10T10:24:41.000Z</time>
      </trkpt>
      <trkpt lat="43.127" lon="0.1161">
        <ele>435</ele>
        <time>2021-08-10T10:24:42.000Z</time>
      </trkpt>
      <trkpt lat="43.12708" lon="0.11607">
        <ele>435</ele>
        <time>2021-08-10T10:24:43.000Z</time>
      </trkpt>
      <trkpt lat="43.12717" lon="0.11604">
        <ele>435</ele>
        <time>2021-08-10T10:24:44.000Z</time>
      </trkpt>
      <trkpt lat="43.12723" lon="0.11602">
        <ele>435</ele>
        <time>2021-08-10T10:24:45.000Z</time>
      </trkpt>
      <trkpt lat="43.12729" lon="0.116">
        <ele>435</ele>
        <time>2021-08-10T10:24:46.000Z</time>
      </trkpt>
      <trkpt lat="43.12736" lon="0.11598">
        <ele>435</ele>
        <time>2021-08-10T10:24:47.000Z</time>
      </trkpt>
      <trkpt lat="43.12744" lon="0.11595">
        <ele>435</ele>
        <time>2021-08-10T10:24:48.000Z</time>
      </trkpt>
      <trkpt lat="43.12751" lon="0.11593">
        <ele>435</ele>
        <time>2021-08-10T10:24:49.000Z</time>
      </trkpt>
      <trkpt lat="43.12758" lon="0.11591">
        <ele>434</ele>
        <time>2021-08-10T10:24:50.000Z</time>
      </trkpt>
      <trkpt lat="43.12765" lon="0.11588">
        <ele>434</ele>
        <time>2021-08-10T10:24:51.000Z</time>
      </trkpt>
      <trkpt lat="43.12773" lon="0.11586">
        <ele>434</ele>
        <time>2021-08-10T10:24:52.000Z</time>
      </trkpt>
      <trkpt lat="43.1278" lon="0.11584">
        <ele>434</ele>
        <time>2021-08-10T10:24:53.000Z</time>
      </trkpt>
      <trkpt lat="43.12788" lon="0.11582">
        <ele>434</ele>
        <time>2021-08-10T10:24:54.000Z</time>
      </trkpt>
      <trkpt lat="43.12795" lon="0.11579">
        <ele>434</ele>
        <time>2021-08-10T10:24:55.000Z</time>
      </trkpt>
      <trkpt lat="43.12802" lon="0.11577">
        <ele>434</ele>
        <time>2021-08-10T10:24:56.000Z</time>
      </trkpt>
      <trkpt lat="43.12809" lon="0.11574">
        <ele>434</ele>
        <time>2021-08-10T10:24:57.000Z</time>
      </trkpt>
      <trkpt lat="43.12817" lon="0.11571">
        <ele>434</ele>
        <time>2021-08-10T10:24:58.000Z</time>
      </trkpt>
      <trkpt lat="43.12825" lon="0.11568">
        <ele>433</ele>
        <time>2021-08-10T10:24:59.000Z</time>
      </trkpt>
      <trkpt lat="43.12833" lon="0.11566">
        <ele>433</ele>
        <time>2021-08-10T10:25:0.000Z</time>
      </trkpt>
      <trkpt lat="43.1284" lon="0.11564">
        <ele>433</ele>
        <time>2021-08-10T10:25:1.000Z</time>
      </trkpt>
      <trkpt lat="43.12846" lon="0.11561">
        <ele>433</ele>
        <time>2021-08-10T10:25:2.000Z</time>
      </trkpt>
      <trkpt lat="43.12851" lon="0.1156">
        <ele>433</ele>
        <time>2021-08-10T10:25:3.000Z</time>
      </trkpt>
      <trkpt lat="43.12858" lon="0.11558">
        <ele>432</ele>
        <time>2021-08-10T10:25:4.000Z</time>
      </trkpt>
      <trkpt lat="43.12866" lon="0.11555">
        <ele>432</ele>
        <time>2021-08-10T10:25:5.000Z</time>
      </trkpt>
      <trkpt lat="43.12874" lon="0.11552">
        <ele>432</ele>
        <time>2021-08-10T10:25:6.000Z</time>
      </trkpt>
      <trkpt lat="43.12881" lon="0.1155">
        <ele>432</ele>
        <time>2021-08-10T10:25:7.000Z</time>
      </trkpt>
      <trkpt lat="43.12887" lon="0.11547">
        <ele>432</ele>
        <time>2021-08-10T10:25:8.000Z</time>
      </trkpt>
      <trkpt lat="43.12895" lon="0.11545">
        <ele>432</ele>
        <time>2021-08-10T10:25:9.000Z</time>
      </trkpt>
      <trkpt lat="43.12903" lon="0.11542">
        <ele>432</ele>
        <time>2021-08-10T10:25:10.000Z</time>
      </trkpt>
      <trkpt lat="43.1291" lon="0.11539">
        <ele>432</ele>
        <time>2021-08-10T10:25:11.000Z</time>
      </trkpt>
      <trkpt lat="43.12917" lon="0.11537">
        <ele>432</ele>
        <time>2021-08-10T10:25:12.000Z</time>
      </trkpt>
      <trkpt lat="43.12925" lon="0.11534">
        <ele>432</ele>
        <time>2021-08-10T10:25:13.000Z</time>
      </trkpt>
      <trkpt lat="43.12932" lon="0.11531">
        <ele>432</ele>
        <time>2021-08-10T10:25:14.000Z</time>
      </trkpt>
      <trkpt lat="43.12939" lon="0.11529">
        <ele>432</ele>
        <time>2021-08-10T10:25:15.000Z</time>
      </trkpt>
      <trkpt lat="43.12946" lon="0.11526">
        <ele>432</ele>
        <time>2021-08-10T10:25:16.000Z</time>
      </trkpt>
      <trkpt lat="43.12953" lon="0.11523">
        <ele>432</ele>
        <time>2021-08-10T10:25:17.000Z</time>
      </trkpt>
      <trkpt lat="43.1296" lon="0.1152">
        <ele>432</ele>
        <time>2021-08-10T10:25:18.000Z</time>
      </trkpt>
      <trkpt lat="43.12967" lon="0.11518">
        <ele>432</ele>
        <time>2021-08-10T10:25:19.000Z</time>
      </trkpt>
      <trkpt lat="43.12974" lon="0.11515">
        <ele>432</ele>
        <time>2021-08-10T10:25:20.000Z</time>
      </trkpt>
      <trkpt lat="43.12981" lon="0.11512">
        <ele>432</ele>
        <time>2021-08-10T10:25:21.000Z</time>
      </trkpt>
      <trkpt lat="43.12988" lon="0.1151">
        <ele>431</ele>
        <time>2021-08-10T10:25:22.000Z</time>
      </trkpt>
      <trkpt lat="43.12996" lon="0.11506">
        <ele>431</ele>
        <time>2021-08-10T10:25:23.000Z</time>
      </trkpt>
      <trkpt lat="43.13002" lon="0.11503">
        <ele>431</ele>
        <time>2021-08-10T10:25:24.000Z</time>
      </trkpt>
      <trkpt lat="43.13009" lon="0.11501">
        <ele>431</ele>
        <time>2021-08-10T10:25:25.000Z</time>
      </trkpt>
      <trkpt lat="43.13015" lon="0.11497">
        <ele>431</ele>
        <time>2021-08-10T10:25:26.000Z</time>
      </trkpt>
      <trkpt lat="43.13022" lon="0.11494">
        <ele>431</ele>
        <time>2021-08-10T10:25:27.000Z</time>
      </trkpt>
      <trkpt lat="43.13029" lon="0.11492">
        <ele>431</ele>
        <time>2021-08-10T10:25:28.000Z</time>
      </trkpt>
      <trkpt lat="43.13036" lon="0.11488">
        <ele>431</ele>
        <time>2021-08-10T10:25:29.000Z</time>
      </trkpt>
      <trkpt lat="43.13043" lon="0.11485">
        <ele>431</ele>
        <time>2021-08-10T10:25:30.000Z</time>
      </trkpt>
      <trkpt lat="43.1305" lon="0.11482">
        <ele>431</ele>
        <time>2021-08-10T10:25:31.000Z</time>
      </trkpt>
      <trkpt lat="43.13056" lon="0.11479">
        <ele>431</ele>
        <time>2021-08-10T10:25:32.000Z</time>
      </trkpt>
      <trkpt lat="43.13062" lon="0.11476">
        <ele>431</ele>
        <time>2021-08-10T10:25:33.000Z</time>
      </trkpt>
      <trkpt lat="43.13069" lon="0.11472">
        <ele>431</ele>
        <time>2021-08-10T10:25:34.000Z</time>
      </trkpt>
      <trkpt lat="43.13075" lon="0.11469">
        <ele>431</ele>
        <time>2021-08-10T10:25:35.000Z</time>
      </trkpt>
      <trkpt lat="43.13082" lon="0.11466">
        <ele>431</ele>
        <time>2021-08-10T10:25:36.000Z</time>
      </trkpt>
      <trkpt lat="43.13089" lon="0.11463">
        <ele>431</ele>
        <time>2021-08-10T10:25:37.000Z</time>
      </trkpt>
      <trkpt lat="43.13096" lon="0.1146">
        <ele>431</ele>
        <time>2021-08-10T10:25:38.000Z</time>
      </trkpt>
      <trkpt lat="43.13102" lon="0.11456">
        <ele>431</ele>
        <time>2021-08-10T10:25:39.000Z</time>
      </trkpt>
      <trkpt lat="43.1311" lon="0.11452">
        <ele>430</ele>
        <time>2021-08-10T10:25:40.000Z</time>
      </trkpt>
      <trkpt lat="43.13116" lon="0.11449">
        <ele>430</ele>
        <time>2021-08-10T10:25:41.000Z</time>
      </trkpt>
      <trkpt lat="43.13122" lon="0.11446">
        <ele>429</ele>
        <time>2021-08-10T10:25:42.000Z</time>
      </trkpt>
      <trkpt lat="43.13128" lon="0.11443">
        <ele>429</ele>
        <time>2021-08-10T10:25:43.000Z</time>
      </trkpt>
      <trkpt lat="43.13136" lon="0.1144">
        <ele>428</ele>
        <time>2021-08-10T10:25:44.000Z</time>
      </trkpt>
      <trkpt lat="43.13143" lon="0.11436">
        <ele>428</ele>
        <time>2021-08-10T10:25:45.000Z</time>
      </trkpt>
      <trkpt lat="43.1315" lon="0.11433">
        <ele>428</ele>
        <time>2021-08-10T10:25:46.000Z</time>
      </trkpt>
      <trkpt lat="43.13156" lon="0.11429">
        <ele>427</ele>
        <time>2021-08-10T10:25:47.000Z</time>
      </trkpt>
      <trkpt lat="43.13163" lon="0.11426">
        <ele>427</ele>
        <time>2021-08-10T10:25:48.000Z</time>
      </trkpt>
      <trkpt lat="43.1317" lon="0.11422">
        <ele>427</ele>
        <time>2021-08-10T10:25:49.000Z</time>
      </trkpt>
      <trkpt lat="43.13176" lon="0.11419">
        <ele>427</ele>
        <time>2021-08-10T10:25:50.000Z</time>
      </trkpt>
      <trkpt lat="43.13183" lon="0.11416">
        <ele>427</ele>
        <time>2021-08-10T10:25:51.000Z</time>
      </trkpt>
      <trkpt lat="43.13191" lon="0.11412">
        <ele>427</ele>
        <time>2021-08-10T10:25:52.000Z</time>
      </trkpt>
      <trkpt lat="43.13197" lon="0.11409">
        <ele>427</ele>
        <time>2021-08-10T10:25:53.000Z</time>
      </trkpt>
      <trkpt lat="43.13205" lon="0.11405">
        <ele>426</ele>
        <time>2021-08-10T10:25:54.000Z</time>
      </trkpt>
      <trkpt lat="43.13211" lon="0.11402">
        <ele>426</ele>
        <time>2021-08-10T10:25:55.000Z</time>
      </trkpt>
      <trkpt lat="43.13219" lon="0.11398">
        <ele>426</ele>
        <time>2021-08-10T10:25:56.000Z</time>
      </trkpt>
      <trkpt lat="43.13225" lon="0.11395">
        <ele>426</ele>
        <time>2021-08-10T10:25:57.000Z</time>
      </trkpt>
      <trkpt lat="43.13231" lon="0.11392">
        <ele>426</ele>
        <time>2021-08-10T10:25:58.000Z</time>
      </trkpt>
      <trkpt lat="43.1324" lon="0.11387">
        <ele>426</ele>
        <time>2021-08-10T10:25:59.000Z</time>
      </trkpt>
      <trkpt lat="43.13248" lon="0.11383">
        <ele>426</ele>
        <time>2021-08-10T10:26:0.000Z</time>
      </trkpt>
      <trkpt lat="43.13257" lon="0.11379">
        <ele>426</ele>
        <time>2021-08-10T10:26:1.000Z</time>
      </trkpt>
      <trkpt lat="43.13265" lon="0.11375">
        <ele>426</ele>
        <time>2021-08-10T10:26:2.000Z</time>
      </trkpt>
      <trkpt lat="43.13273" lon="0.11372">
        <ele>426</ele>
        <time>2021-08-10T10:26:3.000Z</time>
      </trkpt>
      <trkpt lat="43.13279" lon="0.11369">
        <ele>426</ele>
        <time>2021-08-10T10:26:4.000Z</time>
      </trkpt>
      <trkpt lat="43.13286" lon="0.11366">
        <ele>426</ele>
        <time>2021-08-10T10:26:5.000Z</time>
      </trkpt>
      <trkpt lat="43.13294" lon="0.11362">
        <ele>426</ele>
        <time>2021-08-10T10:26:6.000Z</time>
      </trkpt>
      <trkpt lat="43.13301" lon="0.11359">
        <ele>426</ele>
        <time>2021-08-10T10:26:7.000Z</time>
      </trkpt>
      <trkpt lat="43.13309" lon="0.11356">
        <ele>426</ele>
        <time>2021-08-10T10:26:8.000Z</time>
      </trkpt>
      <trkpt lat="43.13316" lon="0.11353">
        <ele>426</ele>
        <time>2021-08-10T10:26:9.000Z</time>
      </trkpt>
      <trkpt lat="43.13324" lon="0.1135">
        <ele>426</ele>
        <time>2021-08-10T10:26:10.000Z</time>
      </trkpt>
      <trkpt lat="43.1333" lon="0.11347">
        <ele>426</ele>
        <time>2021-08-10T10:26:11.000Z</time>
      </trkpt>
      <trkpt lat="43.13337" lon="0.11344">
        <ele>426</ele>
        <time>2021-08-10T10:26:12.000Z</time>
      </trkpt>
      <trkpt lat="43.13345" lon="0.11341">
        <ele>426</ele>
        <time>2021-08-10T10:26:13.000Z</time>
      </trkpt>
      <trkpt lat="43.13352" lon="0.11338">
        <ele>426</ele>
        <time>2021-08-10T10:26:14.000Z</time>
      </trkpt>
      <trkpt lat="43.13359" lon="0.11336">
        <ele>426</ele>
        <time>2021-08-10T10:26:15.000Z</time>
      </trkpt>
      <trkpt lat="43.13366" lon="0.11333">
        <ele>426</ele>
        <time>2021-08-10T10:26:16.000Z</time>
      </trkpt>
      <trkpt lat="43.13373" lon="0.1133">
        <ele>426</ele>
        <time>2021-08-10T10:26:17.000Z</time>
      </trkpt>
      <trkpt lat="43.13385" lon="0.11325">
        <ele>426</ele>
        <time>2021-08-10T10:26:19.000Z</time>
      </trkpt>
      <trkpt lat="43.13393" lon="0.11322">
        <ele>425</ele>
        <time>2021-08-10T10:26:20.000Z</time>
      </trkpt>
      <trkpt lat="43.13401" lon="0.11319">
        <ele>425</ele>
        <time>2021-08-10T10:26:21.000Z</time>
      </trkpt>
      <trkpt lat="43.13409" lon="0.11316">
        <ele>425</ele>
        <time>2021-08-10T10:26:22.000Z</time>
      </trkpt>
      <trkpt lat="43.13417" lon="0.11313">
        <ele>425</ele>
        <time>2021-08-10T10:26:23.000Z</time>
      </trkpt>
      <trkpt lat="43.13425" lon="0.1131">
        <ele>424</ele>
        <time>2021-08-10T10:26:24.000Z</time>
      </trkpt>
      <trkpt lat="43.13432" lon="0.11308">
        <ele>424</ele>
        <time>2021-08-10T10:26:25.000Z</time>
      </trkpt>
      <trkpt lat="43.13439" lon="0.11305">
        <ele>424</ele>
        <time>2021-08-10T10:26:26.000Z</time>
      </trkpt>
      <trkpt lat="43.13447" lon="0.11302">
        <ele>424</ele>
        <time>2021-08-10T10:26:27.000Z</time>
      </trkpt>
      <trkpt lat="43.13454" lon="0.11299">
        <ele>424</ele>
        <time>2021-08-10T10:26:28.000Z</time>
      </trkpt>
      <trkpt lat="43.13462" lon="0.11296">
        <ele>424</ele>
        <time>2021-08-10T10:26:29.000Z</time>
      </trkpt>
      <trkpt lat="43.13469" lon="0.11294">
        <ele>424</ele>
        <time>2021-08-10T10:26:30.000Z</time>
      </trkpt>
      <trkpt lat="43.13477" lon="0.11291">
        <ele>424</ele>
        <time>2021-08-10T10:26:31.000Z</time>
      </trkpt>
      <trkpt lat="43.13483" lon="0.11288">
        <ele>424</ele>
        <time>2021-08-10T10:26:32.000Z</time>
      </trkpt>
      <trkpt lat="43.1349" lon="0.11286">
        <ele>423</ele>
        <time>2021-08-10T10:26:33.000Z</time>
      </trkpt>
      <trkpt lat="43.13498" lon="0.11284">
        <ele>423</ele>
        <time>2021-08-10T10:26:34.000Z</time>
      </trkpt>
      <trkpt lat="43.13505" lon="0.11281">
        <ele>423</ele>
        <time>2021-08-10T10:26:35.000Z</time>
      </trkpt>
      <trkpt lat="43.13512" lon="0.11279">
        <ele>423</ele>
        <time>2021-08-10T10:26:36.000Z</time>
      </trkpt>
      <trkpt lat="43.13519" lon="0.11276">
        <ele>423</ele>
        <time>2021-08-10T10:26:37.000Z</time>
      </trkpt>
      <trkpt lat="43.13527" lon="0.11274">
        <ele>422</ele>
        <time>2021-08-10T10:26:38.000Z</time>
      </trkpt>
      <trkpt lat="43.13533" lon="0.11271">
        <ele>422</ele>
        <time>2021-08-10T10:26:39.000Z</time>
      </trkpt>
      <trkpt lat="43.13541" lon="0.11269">
        <ele>422</ele>
        <time>2021-08-10T10:26:40.000Z</time>
      </trkpt>
      <trkpt lat="43.13547" lon="0.11267">
        <ele>422</ele>
        <time>2021-08-10T10:26:41.000Z</time>
      </trkpt>
      <trkpt lat="43.13553" lon="0.11265">
        <ele>422</ele>
        <time>2021-08-10T10:26:42.000Z</time>
      </trkpt>
      <trkpt lat="43.13561" lon="0.11262">
        <ele>422</ele>
        <time>2021-08-10T10:26:43.000Z</time>
      </trkpt>
      <trkpt lat="43.13569" lon="0.11259">
        <ele>422</ele>
        <time>2021-08-10T10:26:44.000Z</time>
      </trkpt>
      <trkpt lat="43.13577" lon="0.11256">
        <ele>422</ele>
        <time>2021-08-10T10:26:45.000Z</time>
      </trkpt>
      <trkpt lat="43.13584" lon="0.11254">
        <ele>422</ele>
        <time>2021-08-10T10:26:46.000Z</time>
      </trkpt>
      <trkpt lat="43.13591" lon="0.11252">
        <ele>422</ele>
        <time>2021-08-10T10:26:47.000Z</time>
      </trkpt>
      <trkpt lat="43.13599" lon="0.1125">
        <ele>422</ele>
        <time>2021-08-10T10:26:48.000Z</time>
      </trkpt>
      <trkpt lat="43.13606" lon="0.11247">
        <ele>422</ele>
        <time>2021-08-10T10:26:49.000Z</time>
      </trkpt>
      <trkpt lat="43.13613" lon="0.11244">
        <ele>422</ele>
        <time>2021-08-10T10:26:50.000Z</time>
      </trkpt>
      <trkpt lat="43.1362" lon="0.11242">
        <ele>422</ele>
        <time>2021-08-10T10:26:51.000Z</time>
      </trkpt>
      <trkpt lat="43.13627" lon="0.11239">
        <ele>422</ele>
        <time>2021-08-10T10:26:52.000Z</time>
      </trkpt>
      <trkpt lat="43.13633" lon="0.11237">
        <ele>421</ele>
        <time>2021-08-10T10:26:53.000Z</time>
      </trkpt>
      <trkpt lat="43.1364" lon="0.11234">
        <ele>421</ele>
        <time>2021-08-10T10:26:54.000Z</time>
      </trkpt>
      <trkpt lat="43.13647" lon="0.11232">
        <ele>421</ele>
        <time>2021-08-10T10:26:55.000Z</time>
      </trkpt>
      <trkpt lat="43.13654" lon="0.11229">
        <ele>421</ele>
        <time>2021-08-10T10:26:56.000Z</time>
      </trkpt>
      <trkpt lat="43.13661" lon="0.11227">
        <ele>421</ele>
        <time>2021-08-10T10:26:57.000Z</time>
      </trkpt>
      <trkpt lat="43.13668" lon="0.11224">
        <ele>421</ele>
        <time>2021-08-10T10:26:58.000Z</time>
      </trkpt>
      <trkpt lat="43.13675" lon="0.11221">
        <ele>421</ele>
        <time>2021-08-10T10:26:59.000Z</time>
      </trkpt>
      <trkpt lat="43.13683" lon="0.11219">
        <ele>421</ele>
        <time>2021-08-10T10:27:0.000Z</time>
      </trkpt>
      <trkpt lat="43.13689" lon="0.11217">
        <ele>421</ele>
        <time>2021-08-10T10:27:1.000Z</time>
      </trkpt>
      <trkpt lat="43.13697" lon="0.11214">
        <ele>421</ele>
        <time>2021-08-10T10:27:2.000Z</time>
      </trkpt>
      <trkpt lat="43.13704" lon="0.11211">
        <ele>421</ele>
        <time>2021-08-10T10:27:3.000Z</time>
      </trkpt>
      <trkpt lat="43.13711" lon="0.11209">
        <ele>421</ele>
        <time>2021-08-10T10:27:4.000Z</time>
      </trkpt>
      <trkpt lat="43.13718" lon="0.11206">
        <ele>421</ele>
        <time>2021-08-10T10:27:5.000Z</time>
      </trkpt>
      <trkpt lat="43.13725" lon="0.11203">
        <ele>421</ele>
        <time>2021-08-10T10:27:6.000Z</time>
      </trkpt>
      <trkpt lat="43.13732" lon="0.11201">
        <ele>421</ele>
        <time>2021-08-10T10:27:7.000Z</time>
      </trkpt>
      <trkpt lat="43.13739" lon="0.11199">
        <ele>421</ele>
        <time>2021-08-10T10:27:8.000Z</time>
      </trkpt>
      <trkpt lat="43.13746" lon="0.11196">
        <ele>420</ele>
        <time>2021-08-10T10:27:9.000Z</time>
      </trkpt>
      <trkpt lat="43.13754" lon="0.11193">
        <ele>420</ele>
        <time>2021-08-10T10:27:10.000Z</time>
      </trkpt>
      <trkpt lat="43.13762" lon="0.1119">
        <ele>420</ele>
        <time>2021-08-10T10:27:11.000Z</time>
      </trkpt>
      <trkpt lat="43.13769" lon="0.11187">
        <ele>420</ele>
        <time>2021-08-10T10:27:12.000Z</time>
      </trkpt>
      <trkpt lat="43.13776" lon="0.11184">
        <ele>419</ele>
        <time>2021-08-10T10:27:12.000Z</time>
      </trkpt>
      <trkpt lat="43.13783" lon="0.11182">
        <ele>419</ele>
        <time>2021-08-10T10:27:13.000Z</time>
      </trkpt>
      <trkpt lat="43.13791" lon="0.11179">
        <ele>419</ele>
        <time>2021-08-10T10:27:14.000Z</time>
      </trkpt>
      <trkpt lat="43.13798" lon="0.11176">
        <ele>419</ele>
        <time>2021-08-10T10:27:15.000Z</time>
      </trkpt>
      <trkpt lat="43.13805" lon="0.11173">
        <ele>419</ele>
        <time>2021-08-10T10:27:16.000Z</time>
      </trkpt>
      <trkpt lat="43.13812" lon="0.1117">
        <ele>419</ele>
        <time>2021-08-10T10:27:17.000Z</time>
      </trkpt>
      <trkpt lat="43.13819" lon="0.11168">
        <ele>419</ele>
        <time>2021-08-10T10:27:18.000Z</time>
      </trkpt>
      <trkpt lat="43.13826" lon="0.11165">
        <ele>418</ele>
        <time>2021-08-10T10:27:19.000Z</time>
      </trkpt>
      <trkpt lat="43.13834" lon="0.11162">
        <ele>418</ele>
        <time>2021-08-10T10:27:20.000Z</time>
      </trkpt>
      <trkpt lat="43.13841" lon="0.1116">
        <ele>418</ele>
        <time>2021-08-10T10:27:21.000Z</time>
      </trkpt>
      <trkpt lat="43.13848" lon="0.11157">
        <ele>418</ele>
        <time>2021-08-10T10:27:22.000Z</time>
      </trkpt>
      <trkpt lat="43.13855" lon="0.11154">
        <ele>418</ele>
        <time>2021-08-10T10:27:23.000Z</time>
      </trkpt>
      <trkpt lat="43.13863" lon="0.11151">
        <ele>418</ele>
        <time>2021-08-10T10:27:24.000Z</time>
      </trkpt>
      <trkpt lat="43.1387" lon="0.11148">
        <ele>418</ele>
        <time>2021-08-10T10:27:25.000Z</time>
      </trkpt>
      <trkpt lat="43.13877" lon="0.11146">
        <ele>417</ele>
        <time>2021-08-10T10:27:26.000Z</time>
      </trkpt>
      <trkpt lat="43.13885" lon="0.11143">
        <ele>417</ele>
        <time>2021-08-10T10:27:27.000Z</time>
      </trkpt>
      <trkpt lat="43.13891" lon="0.11141">
        <ele>417</ele>
        <time>2021-08-10T10:27:28.000Z</time>
      </trkpt>
      <trkpt lat="43.13897" lon="0.11137">
        <ele>417</ele>
        <time>2021-08-10T10:27:29.000Z</time>
      </trkpt>
      <trkpt lat="43.13903" lon="0.11135">
        <ele>417</ele>
        <time>2021-08-10T10:27:30.000Z</time>
      </trkpt>
      <trkpt lat="43.1391" lon="0.11132">
        <ele>417</ele>
        <time>2021-08-10T10:27:31.000Z</time>
      </trkpt>
      <trkpt lat="43.13917" lon="0.1113">
        <ele>417</ele>
        <time>2021-08-10T10:27:32.000Z</time>
      </trkpt>
      <trkpt lat="43.13924" lon="0.11127">
        <ele>416</ele>
        <time>2021-08-10T10:27:33.000Z</time>
      </trkpt>
      <trkpt lat="43.13931" lon="0.11124">
        <ele>416</ele>
        <time>2021-08-10T10:27:34.000Z</time>
      </trkpt>
      <trkpt lat="43.13938" lon="0.11122">
        <ele>416</ele>
        <time>2021-08-10T10:27:35.000Z</time>
      </trkpt>
      <trkpt lat="43.13945" lon="0.11119">
        <ele>416</ele>
        <time>2021-08-10T10:27:36.000Z</time>
      </trkpt>
      <trkpt lat="43.13952" lon="0.11116">
        <ele>416</ele>
        <time>2021-08-10T10:27:37.000Z</time>
      </trkpt>
      <trkpt lat="43.13959" lon="0.11113">
        <ele>416</ele>
        <time>2021-08-10T10:27:38.000Z</time>
      </trkpt>
      <trkpt lat="43.13966" lon="0.1111">
        <ele>416</ele>
        <time>2021-08-10T10:27:39.000Z</time>
      </trkpt>
      <trkpt lat="43.13973" lon="0.11108">
        <ele>416</ele>
        <time>2021-08-10T10:27:40.000Z</time>
      </trkpt>
      <trkpt lat="43.13979" lon="0.11105">
        <ele>416</ele>
        <time>2021-08-10T10:27:41.000Z</time>
      </trkpt>
      <trkpt lat="43.13987" lon="0.11102">
        <ele>416</ele>
        <time>2021-08-10T10:27:42.000Z</time>
      </trkpt>
      <trkpt lat="43.13994" lon="0.11099">
        <ele>416</ele>
        <time>2021-08-10T10:27:43.000Z</time>
      </trkpt>
      <trkpt lat="43.14001" lon="0.11096">
        <ele>416</ele>
        <time>2021-08-10T10:27:44.000Z</time>
      </trkpt>
      <trkpt lat="43.14008" lon="0.11093">
        <ele>416</ele>
        <time>2021-08-10T10:27:45.000Z</time>
      </trkpt>
      <trkpt lat="43.14015" lon="0.1109">
        <ele>416</ele>
        <time>2021-08-10T10:27:46.000Z</time>
      </trkpt>
      <trkpt lat="43.14021" lon="0.11087">
        <ele>416</ele>
        <time>2021-08-10T10:27:47.000Z</time>
      </trkpt>
      <trkpt lat="43.14027" lon="0.11085">
        <ele>416</ele>
        <time>2021-08-10T10:27:48.000Z</time>
      </trkpt>
      <trkpt lat="43.14035" lon="0.11082">
        <ele>416</ele>
        <time>2021-08-10T10:27:49.000Z</time>
      </trkpt>
      <trkpt lat="43.14042" lon="0.11078">
        <ele>415</ele>
        <time>2021-08-10T10:27:50.000Z</time>
      </trkpt>
      <trkpt lat="43.14051" lon="0.11075">
        <ele>415</ele>
        <time>2021-08-10T10:27:51.000Z</time>
      </trkpt>
      <trkpt lat="43.14057" lon="0.11072">
        <ele>415</ele>
        <time>2021-08-10T10:27:52.000Z</time>
      </trkpt>
      <trkpt lat="43.14064" lon="0.1107">
        <ele>415</ele>
        <time>2021-08-10T10:27:53.000Z</time>
      </trkpt>
      <trkpt lat="43.14071" lon="0.11067">
        <ele>415</ele>
        <time>2021-08-10T10:27:54.000Z</time>
      </trkpt>
      <trkpt lat="43.14077" lon="0.11064">
        <ele>415</ele>
        <time>2021-08-10T10:27:55.000Z</time>
      </trkpt>
      <trkpt lat="43.14084" lon="0.11061">
        <ele>415</ele>
        <time>2021-08-10T10:27:56.000Z</time>
      </trkpt>
      <trkpt lat="43.14092" lon="0.11058">
        <ele>415</ele>
        <time>2021-08-10T10:27:57.000Z</time>
      </trkpt>
      <trkpt lat="43.14098" lon="0.11055">
        <ele>415</ele>
        <time>2021-08-10T10:27:58.000Z</time>
      </trkpt>
      <trkpt lat="43.14104" lon="0.11052">
        <ele>415</ele>
        <time>2021-08-10T10:27:59.000Z</time>
      </trkpt>
      <trkpt lat="43.14111" lon="0.1105">
        <ele>415</ele>
        <time>2021-08-10T10:28:0.000Z</time>
      </trkpt>
      <trkpt lat="43.14117" lon="0.11047">
        <ele>415</ele>
        <time>2021-08-10T10:28:1.000Z</time>
      </trkpt>
      <trkpt lat="43.14123" lon="0.11044">
        <ele>415</ele>
        <time>2021-08-10T10:28:2.000Z</time>
      </trkpt>
      <trkpt lat="43.14129" lon="0.11041">
        <ele>414</ele>
        <time>2021-08-10T10:28:3.000Z</time>
      </trkpt>
      <trkpt lat="43.14136" lon="0.11038">
        <ele>414</ele>
        <time>2021-08-10T10:28:4.000Z</time>
      </trkpt>
      <trkpt lat="43.14142" lon="0.11035">
        <ele>414</ele>
        <time>2021-08-10T10:28:5.000Z</time>
      </trkpt>
      <trkpt lat="43.14148" lon="0.11032">
        <ele>414</ele>
        <time>2021-08-10T10:28:6.000Z</time>
      </trkpt>
      <trkpt lat="43.14154" lon="0.1103">
        <ele>414</ele>
        <time>2021-08-10T10:28:7.000Z</time>
      </trkpt>
      <trkpt lat="43.14161" lon="0.11026">
        <ele>414</ele>
        <time>2021-08-10T10:28:8.000Z</time>
      </trkpt>
      <trkpt lat="43.14167" lon="0.11024">
        <ele>414</ele>
        <time>2021-08-10T10:28:9.000Z</time>
      </trkpt>
      <trkpt lat="43.14174" lon="0.1102">
        <ele>414</ele>
        <time>2021-08-10T10:28:10.000Z</time>
      </trkpt>
      <trkpt lat="43.1418" lon="0.11018">
        <ele>413</ele>
        <time>2021-08-10T10:28:11.000Z</time>
      </trkpt>
      <trkpt lat="43.14186" lon="0.11016">
        <ele>413</ele>
        <time>2021-08-10T10:28:12.000Z</time>
      </trkpt>
      <trkpt lat="43.14191" lon="0.11028">
        <ele>413</ele>
        <time>2021-08-10T10:28:13.000Z</time>
      </trkpt>
      <trkpt lat="43.14195" lon="0.11036">
        <ele>413</ele>
        <time>2021-08-10T10:28:14.000Z</time>
      </trkpt>
      <trkpt lat="43.14199" lon="0.11044">
        <ele>413</ele>
        <time>2021-08-10T10:28:15.000Z</time>
      </trkpt>
      <trkpt lat="43.14204" lon="0.11051">
        <ele>412</ele>
        <time>2021-08-10T10:28:16.000Z</time>
      </trkpt>
      <trkpt lat="43.14209" lon="0.11058">
        <ele>412</ele>
        <time>2021-08-10T10:28:17.000Z</time>
      </trkpt>
      <trkpt lat="43.14214" lon="0.11064">
        <ele>412</ele>
        <time>2021-08-10T10:28:18.000Z</time>
      </trkpt>
      <trkpt lat="43.1422" lon="0.11069">
        <ele>412</ele>
        <time>2021-08-10T10:28:19.000Z</time>
      </trkpt>
      <trkpt lat="43.14227" lon="0.11073">
        <ele>412</ele>
        <time>2021-08-10T10:28:20.000Z</time>
      </trkpt>
      <trkpt lat="43.14233" lon="0.11078">
        <ele>412</ele>
        <time>2021-08-10T10:28:21.000Z</time>
      </trkpt>
      <trkpt lat="43.1424" lon="0.11082">
        <ele>412</ele>
        <time>2021-08-10T10:28:22.000Z</time>
      </trkpt>
      <trkpt lat="43.14246" lon="0.11086">
        <ele>412</ele>
        <time>2021-08-10T10:28:23.000Z</time>
      </trkpt>
      <trkpt lat="43.14252" lon="0.1109">
        <ele>412</ele>
        <time>2021-08-10T10:28:24.000Z</time>
      </trkpt>
      <trkpt lat="43.14259" lon="0.11094">
        <ele>412</ele>
        <time>2021-08-10T10:28:25.000Z</time>
      </trkpt>
      <trkpt lat="43.14265" lon="0.11098">
        <ele>413</ele>
        <time>2021-08-10T10:28:26.000Z</time>
      </trkpt>
      <trkpt lat="43.14271" lon="0.11102">
        <ele>413</ele>
        <time>2021-08-10T10:28:27.000Z</time>
      </trkpt>
      <trkpt lat="43.14277" lon="0.11105">
        <ele>413</ele>
        <time>2021-08-10T10:28:28.000Z</time>
      </trkpt>
      <trkpt lat="43.14283" lon="0.11109">
        <ele>413</ele>
        <time>2021-08-10T10:28:29.000Z</time>
      </trkpt>
      <trkpt lat="43.1429" lon="0.11113">
        <ele>412</ele>
        <time>2021-08-10T10:28:30.000Z</time>
      </trkpt>
      <trkpt lat="43.14297" lon="0.11116">
        <ele>412</ele>
        <time>2021-08-10T10:28:31.000Z</time>
      </trkpt>
      <trkpt lat="43.14304" lon="0.11119">
        <ele>411</ele>
        <time>2021-08-10T10:28:32.000Z</time>
      </trkpt>
      <trkpt lat="43.1431" lon="0.11123">
        <ele>411</ele>
        <time>2021-08-10T10:28:33.000Z</time>
      </trkpt>
      <trkpt lat="43.14317" lon="0.11126">
        <ele>411</ele>
        <time>2021-08-10T10:28:34.000Z</time>
      </trkpt>
      <trkpt lat="43.14324" lon="0.11128">
        <ele>411</ele>
        <time>2021-08-10T10:28:35.000Z</time>
      </trkpt>
      <trkpt lat="43.14331" lon="0.11131">
        <ele>411</ele>
        <time>2021-08-10T10:28:36.000Z</time>
      </trkpt>
      <trkpt lat="43.14337" lon="0.11133">
        <ele>411</ele>
        <time>2021-08-10T10:28:37.000Z</time>
      </trkpt>
      <trkpt lat="43.14344" lon="0.11135">
        <ele>411</ele>
        <time>2021-08-10T10:28:38.000Z</time>
      </trkpt>
      <trkpt lat="43.14351" lon="0.11137">
        <ele>411</ele>
        <time>2021-08-10T10:28:39.000Z</time>
      </trkpt>
      <trkpt lat="43.14358" lon="0.11139">
        <ele>411</ele>
        <time>2021-08-10T10:28:40.000Z</time>
      </trkpt>
      <trkpt lat="43.14364" lon="0.1114">
        <ele>410</ele>
        <time>2021-08-10T10:28:41.000Z</time>
      </trkpt>
      <trkpt lat="43.14371" lon="0.11141">
        <ele>410</ele>
        <time>2021-08-10T10:28:42.000Z</time>
      </trkpt>
      <trkpt lat="43.14378" lon="0.11143">
        <ele>410</ele>
        <time>2021-08-10T10:28:43.000Z</time>
      </trkpt>
      <trkpt lat="43.14385" lon="0.11144">
        <ele>410</ele>
        <time>2021-08-10T10:28:44.000Z</time>
      </trkpt>
      <trkpt lat="43.14392" lon="0.11145">
        <ele>410</ele>
        <time>2021-08-10T10:28:45.000Z</time>
      </trkpt>
      <trkpt lat="43.14399" lon="0.11146">
        <ele>410</ele>
        <time>2021-08-10T10:28:46.000Z</time>
      </trkpt>
      <trkpt lat="43.14406" lon="0.11146">
        <ele>410</ele>
        <time>2021-08-10T10:28:47.000Z</time>
      </trkpt>
      <trkpt lat="43.14413" lon="0.11146">
        <ele>410</ele>
        <time>2021-08-10T10:28:48.000Z</time>
      </trkpt>
      <trkpt lat="43.14419" lon="0.11147">
        <ele>409</ele>
        <time>2021-08-10T10:28:49.000Z</time>
      </trkpt>
      <trkpt lat="43.14425" lon="0.11148">
        <ele>409</ele>
        <time>2021-08-10T10:28:50.000Z</time>
      </trkpt>
      <trkpt lat="43.1443" lon="0.11148">
        <ele>409</ele>
        <time>2021-08-10T10:28:51.000Z</time>
      </trkpt>
      <trkpt lat="43.14433" lon="0.11156">
        <ele>409</ele>
        <time>2021-08-10T10:28:52.000Z</time>
      </trkpt>
      <trkpt lat="43.14435" lon="0.11164">
        <ele>409</ele>
        <time>2021-08-10T10:28:53.000Z</time>
      </trkpt>
      <trkpt lat="43.14437" lon="0.11172">
        <ele>409</ele>
        <time>2021-08-10T10:28:54.000Z</time>
      </trkpt>
      <trkpt lat="43.14438" lon="0.11181">
        <ele>409</ele>
        <time>2021-08-10T10:28:55.000Z</time>
      </trkpt>
      <trkpt lat="43.14439" lon="0.1119">
        <ele>409</ele>
        <time>2021-08-10T10:28:56.000Z</time>
      </trkpt>
      <trkpt lat="43.1444" lon="0.112">
        <ele>409</ele>
        <time>2021-08-10T10:28:57.000Z</time>
      </trkpt>
      <trkpt lat="43.14442" lon="0.11209">
        <ele>409</ele>
        <time>2021-08-10T10:28:58.000Z</time>
      </trkpt>
      <trkpt lat="43.14443" lon="0.11217">
        <ele>409</ele>
        <time>2021-08-10T10:28:59.000Z</time>
      </trkpt>
      <trkpt lat="43.14444" lon="0.11226">
        <ele>409</ele>
        <time>2021-08-10T10:29:0.000Z</time>
      </trkpt>
      <trkpt lat="43.14446" lon="0.11235">
        <ele>409</ele>
        <time>2021-08-10T10:29:1.000Z</time>
      </trkpt>
      <trkpt lat="43.14446" lon="0.11244">
        <ele>409</ele>
        <time>2021-08-10T10:29:2.000Z</time>
      </trkpt>
      <trkpt lat="43.14447" lon="0.11253">
        <ele>409</ele>
        <time>2021-08-10T10:29:3.000Z</time>
      </trkpt>
      <trkpt lat="43.14449" lon="0.11262">
        <ele>409</ele>
        <time>2021-08-10T10:29:4.000Z</time>
      </trkpt>
      <trkpt lat="43.1445" lon="0.11271">
        <ele>409</ele>
        <time>2021-08-10T10:29:5.000Z</time>
      </trkpt>
      <trkpt lat="43.14452" lon="0.11279">
        <ele>409</ele>
        <time>2021-08-10T10:29:6.000Z</time>
      </trkpt>
      <trkpt lat="43.14452" lon="0.11288">
        <ele>409</ele>
        <time>2021-08-10T10:29:7.000Z</time>
      </trkpt>
      <trkpt lat="43.14454" lon="0.11297">
        <ele>409</ele>
        <time>2021-08-10T10:29:8.000Z</time>
      </trkpt>
      <trkpt lat="43.14455" lon="0.11305">
        <ele>409</ele>
        <time>2021-08-10T10:29:9.000Z</time>
      </trkpt>
      <trkpt lat="43.14457" lon="0.11313">
        <ele>409</ele>
        <time>2021-08-10T10:29:10.000Z</time>
      </trkpt>
      <trkpt lat="43.14459" lon="0.11319">
        <ele>409</ele>
        <time>2021-08-10T10:29:11.000Z</time>
      </trkpt>
      <trkpt lat="43.14468" lon="0.11323">
        <ele>409</ele>
        <time>2021-08-10T10:29:12.000Z</time>
      </trkpt>
      <trkpt lat="43.14474" lon="0.11326">
        <ele>409</ele>
        <time>2021-08-10T10:29:13.000Z</time>
      </trkpt>
      <trkpt lat="43.14479" lon="0.11328">
        <ele>408</ele>
        <time>2021-08-10T10:29:14.000Z</time>
      </trkpt>
      <trkpt lat="43.14486" lon="0.1133">
        <ele>408</ele>
        <time>2021-08-10T10:29:15.000Z</time>
      </trkpt>
      <trkpt lat="43.14492" lon="0.1133">
        <ele>408</ele>
        <time>2021-08-10T10:29:16.000Z</time>
      </trkpt>
      <trkpt lat="43.14499" lon="0.1133">
        <ele>408</ele>
        <time>2021-08-10T10:29:17.000Z</time>
      </trkpt>
      <trkpt lat="43.14505" lon="0.1133">
        <ele>408</ele>
        <time>2021-08-10T10:29:18.000Z</time>
      </trkpt>
      <trkpt lat="43.14512" lon="0.1133">
        <ele>408</ele>
        <time>2021-08-10T10:29:19.000Z</time>
      </trkpt>
      <trkpt lat="43.14518" lon="0.11331">
        <ele>408</ele>
        <time>2021-08-10T10:29:20.000Z</time>
      </trkpt>
      <trkpt lat="43.14523" lon="0.11332">
        <ele>408</ele>
        <time>2021-08-10T10:29:21.000Z</time>
      </trkpt>
      <trkpt lat="43.14528" lon="0.11334">
        <ele>408</ele>
        <time>2021-08-10T10:29:22.000Z</time>
      </trkpt>
      <trkpt lat="43.14533" lon="0.1134">
        <ele>408</ele>
        <time>2021-08-10T10:29:23.000Z</time>
      </trkpt>
      <trkpt lat="43.14536" lon="0.11345">
        <ele>408</ele>
        <time>2021-08-10T10:29:24.000Z</time>
      </trkpt>
      <trkpt lat="43.14539" lon="0.11351">
        <ele>408</ele>
        <time>2021-08-10T10:29:25.000Z</time>
      </trkpt>
      <trkpt lat="43.1454" lon="0.11358">
        <ele>408</ele>
        <time>2021-08-10T10:29:26.000Z</time>
      </trkpt>
      <trkpt lat="43.14541" lon="0.11365">
        <ele>408</ele>
        <time>2021-08-10T10:29:27.000Z</time>
      </trkpt>
      <trkpt lat="43.14542" lon="0.11373">
        <ele>408</ele>
        <time>2021-08-10T10:29:28.000Z</time>
      </trkpt>
      <trkpt lat="43.14543" lon="0.1138">
        <ele>408</ele>
        <time>2021-08-10T10:29:29.000Z</time>
      </trkpt>
      <trkpt lat="43.14543" lon="0.11388">
        <ele>408</ele>
        <time>2021-08-10T10:29:30.000Z</time>
      </trkpt>
      <trkpt lat="43.14544" lon="0.11395">
        <ele>408</ele>
        <time>2021-08-10T10:29:31.000Z</time>
      </trkpt>
      <trkpt lat="43.14545" lon="0.11403">
        <ele>408</ele>
        <time>2021-08-10T10:29:32.000Z</time>
      </trkpt>
      <trkpt lat="43.14546" lon="0.1141">
        <ele>408</ele>
        <time>2021-08-10T10:29:33.000Z</time>
      </trkpt>
      <trkpt lat="43.14546" lon="0.11418">
        <ele>408</ele>
        <time>2021-08-10T10:29:34.000Z</time>
      </trkpt>
      <trkpt lat="43.14547" lon="0.11425">
        <ele>408</ele>
        <time>2021-08-10T10:29:35.000Z</time>
      </trkpt>
      <trkpt lat="43.14548" lon="0.11432">
        <ele>409</ele>
        <time>2021-08-10T10:29:36.000Z</time>
      </trkpt>
      <trkpt lat="43.14549" lon="0.11439">
        <ele>409</ele>
        <time>2021-08-10T10:29:37.000Z</time>
      </trkpt>
      <trkpt lat="43.1455" lon="0.11447">
        <ele>409</ele>
        <time>2021-08-10T10:29:38.000Z</time>
      </trkpt>
      <trkpt lat="43.1455" lon="0.11454">
        <ele>409</ele>
        <time>2021-08-10T10:29:39.000Z</time>
      </trkpt>
      <trkpt lat="43.14551" lon="0.11461">
        <ele>409</ele>
        <time>2021-08-10T10:29:40.000Z</time>
      </trkpt>
      <trkpt lat="43.14552" lon="0.11467">
        <ele>409</ele>
        <time>2021-08-10T10:29:41.000Z</time>
      </trkpt>
      <trkpt lat="43.14553" lon="0.11474">
        <ele>409</ele>
        <time>2021-08-10T10:29:42.000Z</time>
      </trkpt>
      <trkpt lat="43.14554" lon="0.11481">
        <ele>409</ele>
        <time>2021-08-10T10:29:43.000Z</time>
      </trkpt>
      <trkpt lat="43.14555" lon="0.11487">
        <ele>409</ele>
        <time>2021-08-10T10:29:44.000Z</time>
      </trkpt>
      <trkpt lat="43.14556" lon="0.11499">
        <ele>409</ele>
        <time>2021-08-10T10:29:46.000Z</time>
      </trkpt>
      <trkpt lat="43.14558" lon="0.11506">
        <ele>408</ele>
        <time>2021-08-10T10:29:48.000Z</time>
      </trkpt>
      <trkpt lat="43.14569" lon="0.11507">
        <ele>408</ele>
        <time>2021-08-10T10:29:50.000Z</time>
      </trkpt>
      <trkpt lat="43.14574" lon="0.11506">
        <ele>408</ele>
        <time>2021-08-10T10:29:51.000Z</time>
      </trkpt>
      <trkpt lat="43.14579" lon="0.11505">
        <ele>408</ele>
        <time>2021-08-10T10:29:52.000Z</time>
      </trkpt>
      <trkpt lat="43.14584" lon="0.11505">
        <ele>407</ele>
        <time>2021-08-10T10:29:53.000Z</time>
      </trkpt>
      <trkpt lat="43.14589" lon="0.11504">
        <ele>407</ele>
        <time>2021-08-10T10:29:54.000Z</time>
      </trkpt>
      <trkpt lat="43.14594" lon="0.11503">
        <ele>407</ele>
        <time>2021-08-10T10:29:55.000Z</time>
      </trkpt>
      <trkpt lat="43.146" lon="0.11502">
        <ele>407</ele>
        <time>2021-08-10T10:29:56.000Z</time>
      </trkpt>
      <trkpt lat="43.14605" lon="0.11502">
        <ele>407</ele>
        <time>2021-08-10T10:29:57.000Z</time>
      </trkpt>
      <trkpt lat="43.1461" lon="0.11501">
        <ele>407</ele>
        <time>2021-08-10T10:29:58.000Z</time>
      </trkpt>
      <trkpt lat="43.14615" lon="0.115">
        <ele>407</ele>
        <time>2021-08-10T10:29:59.000Z</time>
      </trkpt>
      <trkpt lat="43.14621" lon="0.11499">
        <ele>407</ele>
        <time>2021-08-10T10:30:0.000Z</time>
      </trkpt>
      <trkpt lat="43.14626" lon="0.11498">
        <ele>407</ele>
        <time>2021-08-10T10:30:1.000Z</time>
      </trkpt>
      <trkpt lat="43.14631" lon="0.11497">
        <ele>407</ele>
        <time>2021-08-10T10:30:2.000Z</time>
      </trkpt>
    </trkseg>
  </trk>
</gpx>